<?xml version="1.0" encoding="UTF-8"?>
<gpx xmlns="http://www.topografix.com/GPX/1/1" version="1.1" creator="Trails 1.14 - https://www.trails.io">
	<metadata>
		<time>2015-07-04T09:42:02Z</time>
	</metadata>
	<trk>
		<name>Marno's Run to Blue Knob</name>
		<extensions>
		</extensions>
		<trkseg>
			<trkpt lat="-27.349713" lon="152.966419">
				<ele>31.010</ele>
				<time>2015-07-03T21:43:59Z</time>
				<extensions>
				</extensions>
			</trkpt>
			<trkpt lat="-27.349374" lon="152.966326">
				<ele>28.922</ele>
				<time>2015-07-03T21:44:01Z</time>
				<extensions>
				</extensions>
			</trkpt>
			<trkpt lat="-27.349032" lon="152.966214">
				<ele>26.565</ele>
				<time>2015-07-03T21:44:03Z</time>
				<extensions>
				</extensions>
			</trkpt>
			<trkpt lat="-27.348695" lon="152.966104">
				<ele>25.206</ele>
				<time>2015-07-03T21:44:05Z</time>
				<extensions>
				</extensions>
			</trkpt>
			<trkpt lat="-27.348351" lon="152.965989">
				<ele>25.129</ele>
				<time>2015-07-03T21:44:07Z</time>
				<extensions>
				</extensions>
			</trkpt>
			<trkpt lat="-27.348007" lon="152.965861">
				<ele>24.727</ele>
				<time>2015-07-03T21:44:09Z</time>
				<extensions>
				</extensions>
			</trkpt>
			<trkpt lat="-27.347688" lon="152.965693">
				<ele>23.517</ele>
				<time>2015-07-03T21:44:11Z</time>
				<extensions>
				</extensions>
			</trkpt>
			<trkpt lat="-27.347417" lon="152.965519">
				<ele>21.433</ele>
				<time>2015-07-03T21:44:13Z</time>
				<extensions>
				</extensions>
			</trkpt>
			<trkpt lat="-27.347199" lon="152.965367">
				<ele>17.897</ele>
				<time>2015-07-03T21:44:15Z</time>
				<extensions>
				</extensions>
			</trkpt>
			<trkpt lat="-27.347034" lon="152.965221">
				<ele>15.303</ele>
				<time>2015-07-03T21:44:17Z</time>
				<extensions>
				</extensions>
			</trkpt>
			<trkpt lat="-27.346898" lon="152.965077">
				<ele>12.798</ele>
				<time>2015-07-03T21:44:20Z</time>
				<extensions>
				</extensions>
			</trkpt>
			<trkpt lat="-27.346686" lon="152.965047">
				<ele>16.529</ele>
				<time>2015-07-03T21:44:33Z</time>
				<extensions>
				</extensions>
			</trkpt>
			<trkpt lat="-27.346457" lon="152.965192">
				<ele>15.237</ele>
				<time>2015-07-03T21:44:36Z</time>
				<extensions>
				</extensions>
			</trkpt>
			<trkpt lat="-27.346226" lon="152.965309">
				<ele>14.118</ele>
				<time>2015-07-03T21:44:39Z</time>
				<extensions>
				</extensions>
			</trkpt>
			<trkpt lat="-27.345992" lon="152.965362">
				<ele>13.272</ele>
				<time>2015-07-03T21:44:42Z</time>
				<extensions>
				</extensions>
			</trkpt>
			<trkpt lat="-27.345799" lon="152.965322">
				<ele>11.999</ele>
				<time>2015-07-03T21:44:46Z</time>
				<extensions>
				</extensions>
			</trkpt>
			<trkpt lat="-27.345689" lon="152.965141">
				<ele>12.748</ele>
				<time>2015-07-03T21:44:52Z</time>
				<extensions>
				</extensions>
			</trkpt>
			<trkpt lat="-27.345504" lon="152.965148">
				<ele>13.147</ele>
				<time>2015-07-03T21:44:56Z</time>
				<extensions>
				</extensions>
			</trkpt>
			<trkpt lat="-27.345305" lon="152.965185">
				<ele>12.854</ele>
				<time>2015-07-03T21:45:02Z</time>
				<extensions>
				</extensions>
			</trkpt>
			<trkpt lat="-27.345500" lon="152.965160">
				<ele>20.221</ele>
				<time>2015-07-03T21:47:52Z</time>
				<extensions>
				</extensions>
			</trkpt>
			<trkpt lat="-27.345693" lon="152.965170">
				<ele>19.684</ele>
				<time>2015-07-03T21:47:58Z</time>
				<extensions>
				</extensions>
			</trkpt>
			<trkpt lat="-27.345762" lon="152.965371">
				<ele>19.169</ele>
				<time>2015-07-03T21:48:10Z</time>
				<extensions>
				</extensions>
			</trkpt>
			<trkpt lat="-27.345944" lon="152.965424">
				<ele>21.522</ele>
				<time>2015-07-03T21:48:13Z</time>
				<extensions>
				</extensions>
			</trkpt>
			<trkpt lat="-27.346173" lon="152.965378">
				<ele>22.213</ele>
				<time>2015-07-03T21:48:16Z</time>
				<extensions>
				</extensions>
			</trkpt>
			<trkpt lat="-27.346416" lon="152.965371">
				<ele>21.911</ele>
				<time>2015-07-03T21:48:19Z</time>
				<extensions>
				</extensions>
			</trkpt>
			<trkpt lat="-27.346620" lon="152.965314">
				<ele>22.155</ele>
				<time>2015-07-03T21:48:22Z</time>
				<extensions>
				</extensions>
			</trkpt>
			<trkpt lat="-27.346813" lon="152.965252">
				<ele>22.266</ele>
				<time>2015-07-03T21:48:28Z</time>
				<extensions>
				</extensions>
			</trkpt>
			<trkpt lat="-27.347019" lon="152.965315">
				<ele>24.186</ele>
				<time>2015-07-03T21:48:32Z</time>
				<extensions>
				</extensions>
			</trkpt>
			<trkpt lat="-27.347185" lon="152.965454">
				<ele>26.350</ele>
				<time>2015-07-03T21:48:34Z</time>
				<extensions>
				</extensions>
			</trkpt>
			<trkpt lat="-27.347387" lon="152.965616">
				<ele>28.051</ele>
				<time>2015-07-03T21:48:36Z</time>
				<extensions>
				</extensions>
			</trkpt>
			<trkpt lat="-27.347624" lon="152.965779">
				<ele>29.235</ele>
				<time>2015-07-03T21:48:38Z</time>
				<extensions>
				</extensions>
			</trkpt>
			<trkpt lat="-27.347873" lon="152.965909">
				<ele>29.254</ele>
				<time>2015-07-03T21:48:40Z</time>
				<extensions>
				</extensions>
			</trkpt>
			<trkpt lat="-27.348136" lon="152.966010">
				<ele>30.651</ele>
				<time>2015-07-03T21:48:42Z</time>
				<extensions>
				</extensions>
			</trkpt>
			<trkpt lat="-27.348434" lon="152.966112">
				<ele>30.495</ele>
				<time>2015-07-03T21:48:44Z</time>
				<extensions>
				</extensions>
			</trkpt>
			<trkpt lat="-27.348735" lon="152.966221">
				<ele>30.774</ele>
				<time>2015-07-03T21:48:46Z</time>
				<extensions>
				</extensions>
			</trkpt>
			<trkpt lat="-27.349025" lon="152.966318">
				<ele>33.049</ele>
				<time>2015-07-03T21:48:48Z</time>
				<extensions>
				</extensions>
			</trkpt>
			<trkpt lat="-27.349330" lon="152.966437">
				<ele>32.299</ele>
				<time>2015-07-03T21:48:50Z</time>
				<extensions>
				</extensions>
			</trkpt>
			<trkpt lat="-27.349641" lon="152.966521">
				<ele>34.579</ele>
				<time>2015-07-03T21:48:52Z</time>
				<extensions>
				</extensions>
			</trkpt>
			<trkpt lat="-27.349960" lon="152.966553">
				<ele>37.268</ele>
				<time>2015-07-03T21:48:54Z</time>
				<extensions>
				</extensions>
			</trkpt>
			<trkpt lat="-27.350296" lon="152.966559">
				<ele>40.193</ele>
				<time>2015-07-03T21:48:56Z</time>
				<extensions>
				</extensions>
			</trkpt>
			<trkpt lat="-27.350621" lon="152.966534">
				<ele>41.994</ele>
				<time>2015-07-03T21:48:58Z</time>
				<extensions>
				</extensions>
			</trkpt>
			<trkpt lat="-27.350949" lon="152.966523">
				<ele>44.232</ele>
				<time>2015-07-03T21:49:00Z</time>
				<extensions>
				</extensions>
			</trkpt>
			<trkpt lat="-27.351277" lon="152.966540">
				<ele>45.591</ele>
				<time>2015-07-03T21:49:02Z</time>
				<extensions>
				</extensions>
			</trkpt>
			<trkpt lat="-27.351606" lon="152.966578">
				<ele>47.648</ele>
				<time>2015-07-03T21:49:04Z</time>
				<extensions>
				</extensions>
			</trkpt>
			<trkpt lat="-27.351935" lon="152.966666">
				<ele>48.147</ele>
				<time>2015-07-03T21:49:06Z</time>
				<extensions>
				</extensions>
			</trkpt>
			<trkpt lat="-27.352267" lon="152.966815">
				<ele>47.537</ele>
				<time>2015-07-03T21:49:08Z</time>
				<extensions>
				</extensions>
			</trkpt>
			<trkpt lat="-27.352573" lon="152.966996">
				<ele>45.709</ele>
				<time>2015-07-03T21:49:10Z</time>
				<extensions>
				</extensions>
			</trkpt>
			<trkpt lat="-27.352870" lon="152.967215">
				<ele>42.143</ele>
				<time>2015-07-03T21:49:12Z</time>
				<extensions>
				</extensions>
			</trkpt>
			<trkpt lat="-27.353140" lon="152.967482">
				<ele>41.080</ele>
				<time>2015-07-03T21:49:14Z</time>
				<extensions>
				</extensions>
			</trkpt>
			<trkpt lat="-27.353272" lon="152.967632">
				<ele>41.450</ele>
				<time>2015-07-03T21:49:15Z</time>
				<extensions>
				</extensions>
			</trkpt>
			<trkpt lat="-27.353412" lon="152.967793">
				<ele>42.758</ele>
				<time>2015-07-03T21:49:16Z</time>
				<extensions>
				</extensions>
			</trkpt>
			<trkpt lat="-27.353553" lon="152.967961">
				<ele>43.182</ele>
				<time>2015-07-03T21:49:17Z</time>
				<extensions>
				</extensions>
			</trkpt>
			<trkpt lat="-27.353672" lon="152.968121">
				<ele>42.047</ele>
				<time>2015-07-03T21:49:18Z</time>
				<extensions>
				</extensions>
			</trkpt>
			<trkpt lat="-27.353799" lon="152.968277">
				<ele>41.182</ele>
				<time>2015-07-03T21:49:19Z</time>
				<extensions>
				</extensions>
			</trkpt>
			<trkpt lat="-27.353924" lon="152.968430">
				<ele>40.058</ele>
				<time>2015-07-03T21:49:20Z</time>
				<extensions>
				</extensions>
			</trkpt>
			<trkpt lat="-27.354049" lon="152.968578">
				<ele>39.752</ele>
				<time>2015-07-03T21:49:21Z</time>
				<extensions>
				</extensions>
			</trkpt>
			<trkpt lat="-27.354311" lon="152.968828">
				<ele>40.001</ele>
				<time>2015-07-03T21:49:23Z</time>
				<extensions>
				</extensions>
			</trkpt>
			<trkpt lat="-27.354589" lon="152.969050">
				<ele>41.443</ele>
				<time>2015-07-03T21:49:25Z</time>
				<extensions>
				</extensions>
			</trkpt>
			<trkpt lat="-27.354875" lon="152.969238">
				<ele>42.808</ele>
				<time>2015-07-03T21:49:27Z</time>
				<extensions>
				</extensions>
			</trkpt>
			<trkpt lat="-27.355197" lon="152.969394">
				<ele>42.512</ele>
				<time>2015-07-03T21:49:29Z</time>
				<extensions>
				</extensions>
			</trkpt>
			<trkpt lat="-27.355522" lon="152.969485">
				<ele>41.440</ele>
				<time>2015-07-03T21:49:31Z</time>
				<extensions>
				</extensions>
			</trkpt>
			<trkpt lat="-27.355851" lon="152.969540">
				<ele>40.573</ele>
				<time>2015-07-03T21:49:33Z</time>
				<extensions>
				</extensions>
			</trkpt>
			<trkpt lat="-27.356206" lon="152.969556">
				<ele>38.990</ele>
				<time>2015-07-03T21:49:35Z</time>
				<extensions>
				</extensions>
			</trkpt>
			<trkpt lat="-27.356389" lon="152.969557">
				<ele>37.444</ele>
				<time>2015-07-03T21:49:36Z</time>
				<extensions>
				</extensions>
			</trkpt>
			<trkpt lat="-27.356572" lon="152.969561">
				<ele>36.976</ele>
				<time>2015-07-03T21:49:37Z</time>
				<extensions>
				</extensions>
			</trkpt>
			<trkpt lat="-27.356760" lon="152.969570">
				<ele>37.040</ele>
				<time>2015-07-03T21:49:38Z</time>
				<extensions>
				</extensions>
			</trkpt>
			<trkpt lat="-27.356949" lon="152.969584">
				<ele>35.443</ele>
				<time>2015-07-03T21:49:39Z</time>
				<extensions>
				</extensions>
			</trkpt>
			<trkpt lat="-27.357138" lon="152.969608">
				<ele>33.865</ele>
				<time>2015-07-03T21:49:40Z</time>
				<extensions>
				</extensions>
			</trkpt>
			<trkpt lat="-27.357317" lon="152.969656">
				<ele>34.945</ele>
				<time>2015-07-03T21:49:41Z</time>
				<extensions>
				</extensions>
			</trkpt>
			<trkpt lat="-27.357496" lon="152.969717">
				<ele>35.616</ele>
				<time>2015-07-03T21:49:42Z</time>
				<extensions>
				</extensions>
			</trkpt>
			<trkpt lat="-27.357680" lon="152.969784">
				<ele>35.616</ele>
				<time>2015-07-03T21:49:43Z</time>
				<extensions>
				</extensions>
			</trkpt>
			<trkpt lat="-27.358010" lon="152.969934">
				<ele>34.514</ele>
				<time>2015-07-03T21:49:45Z</time>
				<extensions>
				</extensions>
			</trkpt>
			<trkpt lat="-27.358170" lon="152.970028">
				<ele>33.545</ele>
				<time>2015-07-03T21:49:46Z</time>
				<extensions>
				</extensions>
			</trkpt>
			<trkpt lat="-27.358477" lon="152.970220">
				<ele>33.429</ele>
				<time>2015-07-03T21:49:48Z</time>
				<extensions>
				</extensions>
			</trkpt>
			<trkpt lat="-27.358759" lon="152.970388">
				<ele>32.234</ele>
				<time>2015-07-03T21:49:50Z</time>
				<extensions>
				</extensions>
			</trkpt>
			<trkpt lat="-27.359029" lon="152.970554">
				<ele>31.439</ele>
				<time>2015-07-03T21:49:52Z</time>
				<extensions>
				</extensions>
			</trkpt>
			<trkpt lat="-27.359250" lon="152.970706">
				<ele>31.095</ele>
				<time>2015-07-03T21:49:54Z</time>
				<extensions>
				</extensions>
			</trkpt>
			<trkpt lat="-27.359440" lon="152.970842">
				<ele>30.299</ele>
				<time>2015-07-03T21:49:56Z</time>
				<extensions>
				</extensions>
			</trkpt>
			<trkpt lat="-27.359604" lon="152.970947">
				<ele>30.849</ele>
				<time>2015-07-03T21:49:58Z</time>
				<extensions>
				</extensions>
			</trkpt>
			<trkpt lat="-27.359766" lon="152.971058">
				<ele>32.432</ele>
				<time>2015-07-03T21:50:00Z</time>
				<extensions>
				</extensions>
			</trkpt>
			<trkpt lat="-27.359968" lon="152.971204">
				<ele>33.551</ele>
				<time>2015-07-03T21:50:03Z</time>
				<extensions>
				</extensions>
			</trkpt>
			<trkpt lat="-27.360138" lon="152.971319">
				<ele>34.319</ele>
				<time>2015-07-03T21:50:07Z</time>
				<extensions>
				</extensions>
			</trkpt>
			<trkpt lat="-27.360343" lon="152.971447">
				<ele>36.757</ele>
				<time>2015-07-03T21:50:12Z</time>
				<extensions>
				</extensions>
			</trkpt>
			<trkpt lat="-27.360508" lon="152.971553">
				<ele>40.040</ele>
				<time>2015-07-03T21:50:14Z</time>
				<extensions>
				</extensions>
			</trkpt>
			<trkpt lat="-27.360706" lon="152.971685">
				<ele>42.141</ele>
				<time>2015-07-03T21:50:16Z</time>
				<extensions>
				</extensions>
			</trkpt>
			<trkpt lat="-27.360937" lon="152.971825">
				<ele>43.937</ele>
				<time>2015-07-03T21:50:18Z</time>
				<extensions>
				</extensions>
			</trkpt>
			<trkpt lat="-27.361175" lon="152.971974">
				<ele>46.450</ele>
				<time>2015-07-03T21:50:20Z</time>
				<extensions>
				</extensions>
			</trkpt>
			<trkpt lat="-27.361432" lon="152.972129">
				<ele>47.591</ele>
				<time>2015-07-03T21:50:22Z</time>
				<extensions>
				</extensions>
			</trkpt>
			<trkpt lat="-27.361663" lon="152.972258">
				<ele>48.153</ele>
				<time>2015-07-03T21:50:24Z</time>
				<extensions>
				</extensions>
			</trkpt>
			<trkpt lat="-27.361892" lon="152.972402">
				<ele>48.686</ele>
				<time>2015-07-03T21:50:26Z</time>
				<extensions>
				</extensions>
			</trkpt>
			<trkpt lat="-27.362113" lon="152.972555">
				<ele>50.348</ele>
				<time>2015-07-03T21:50:28Z</time>
				<extensions>
				</extensions>
			</trkpt>
			<trkpt lat="-27.362346" lon="152.972732">
				<ele>51.131</ele>
				<time>2015-07-03T21:50:30Z</time>
				<extensions>
				</extensions>
			</trkpt>
			<trkpt lat="-27.362575" lon="152.972937">
				<ele>52.056</ele>
				<time>2015-07-03T21:50:32Z</time>
				<extensions>
				</extensions>
			</trkpt>
			<trkpt lat="-27.362802" lon="152.973151">
				<ele>53.255</ele>
				<time>2015-07-03T21:50:34Z</time>
				<extensions>
				</extensions>
			</trkpt>
			<trkpt lat="-27.363022" lon="152.973347">
				<ele>53.655</ele>
				<time>2015-07-03T21:50:36Z</time>
				<extensions>
				</extensions>
			</trkpt>
			<trkpt lat="-27.363217" lon="152.973511">
				<ele>52.841</ele>
				<time>2015-07-03T21:50:38Z</time>
				<extensions>
				</extensions>
			</trkpt>
			<trkpt lat="-27.363403" lon="152.973645">
				<ele>52.515</ele>
				<time>2015-07-03T21:50:40Z</time>
				<extensions>
				</extensions>
			</trkpt>
			<trkpt lat="-27.363567" lon="152.973756">
				<ele>51.836</ele>
				<time>2015-07-03T21:50:42Z</time>
				<extensions>
				</extensions>
			</trkpt>
			<trkpt lat="-27.363752" lon="152.973869">
				<ele>51.185</ele>
				<time>2015-07-03T21:50:45Z</time>
				<extensions>
				</extensions>
			</trkpt>
			<trkpt lat="-27.363927" lon="152.973958">
				<ele>51.559</ele>
				<time>2015-07-03T21:51:10Z</time>
				<extensions>
				</extensions>
			</trkpt>
			<trkpt lat="-27.364102" lon="152.974057">
				<ele>53.708</ele>
				<time>2015-07-03T21:51:13Z</time>
				<extensions>
				</extensions>
			</trkpt>
			<trkpt lat="-27.364256" lon="152.974161">
				<ele>54.482</ele>
				<time>2015-07-03T21:51:15Z</time>
				<extensions>
				</extensions>
			</trkpt>
			<trkpt lat="-27.364448" lon="152.974281">
				<ele>54.366</ele>
				<time>2015-07-03T21:51:17Z</time>
				<extensions>
				</extensions>
			</trkpt>
			<trkpt lat="-27.364654" lon="152.974438">
				<ele>54.893</ele>
				<time>2015-07-03T21:51:19Z</time>
				<extensions>
				</extensions>
			</trkpt>
			<trkpt lat="-27.364839" lon="152.974611">
				<ele>54.345</ele>
				<time>2015-07-03T21:51:21Z</time>
				<extensions>
				</extensions>
			</trkpt>
			<trkpt lat="-27.365062" lon="152.974839">
				<ele>54.318</ele>
				<time>2015-07-03T21:51:23Z</time>
				<extensions>
				</extensions>
			</trkpt>
			<trkpt lat="-27.365275" lon="152.975081">
				<ele>52.931</ele>
				<time>2015-07-03T21:51:25Z</time>
				<extensions>
				</extensions>
			</trkpt>
			<trkpt lat="-27.365470" lon="152.975344">
				<ele>51.179</ele>
				<time>2015-07-03T21:51:27Z</time>
				<extensions>
				</extensions>
			</trkpt>
			<trkpt lat="-27.365679" lon="152.975624">
				<ele>49.702</ele>
				<time>2015-07-03T21:51:29Z</time>
				<extensions>
				</extensions>
			</trkpt>
			<trkpt lat="-27.365796" lon="152.975788">
				<ele>48.629</ele>
				<time>2015-07-03T21:51:30Z</time>
				<extensions>
				</extensions>
			</trkpt>
			<trkpt lat="-27.365910" lon="152.975958">
				<ele>48.011</ele>
				<time>2015-07-03T21:51:31Z</time>
				<extensions>
				</extensions>
			</trkpt>
			<trkpt lat="-27.366021" lon="152.976130">
				<ele>48.094</ele>
				<time>2015-07-03T21:51:32Z</time>
				<extensions>
				</extensions>
			</trkpt>
			<trkpt lat="-27.366132" lon="152.976301">
				<ele>47.246</ele>
				<time>2015-07-03T21:51:33Z</time>
				<extensions>
				</extensions>
			</trkpt>
			<trkpt lat="-27.366260" lon="152.976476">
				<ele>46.300</ele>
				<time>2015-07-03T21:51:34Z</time>
				<extensions>
				</extensions>
			</trkpt>
			<trkpt lat="-27.366487" lon="152.976810">
				<ele>45.475</ele>
				<time>2015-07-03T21:51:36Z</time>
				<extensions>
				</extensions>
			</trkpt>
			<trkpt lat="-27.366660" lon="152.977105">
				<ele>44.564</ele>
				<time>2015-07-03T21:51:38Z</time>
				<extensions>
				</extensions>
			</trkpt>
			<trkpt lat="-27.366841" lon="152.977415">
				<ele>45.456</ele>
				<time>2015-07-03T21:51:40Z</time>
				<extensions>
				</extensions>
			</trkpt>
			<trkpt lat="-27.367042" lon="152.977709">
				<ele>46.904</ele>
				<time>2015-07-03T21:51:42Z</time>
				<extensions>
				</extensions>
			</trkpt>
			<trkpt lat="-27.367161" lon="152.977863">
				<ele>47.982</ele>
				<time>2015-07-03T21:51:43Z</time>
				<extensions>
				</extensions>
			</trkpt>
			<trkpt lat="-27.367408" lon="152.978168">
				<ele>49.224</ele>
				<time>2015-07-03T21:51:45Z</time>
				<extensions>
				</extensions>
			</trkpt>
			<trkpt lat="-27.367537" lon="152.978330">
				<ele>48.941</ele>
				<time>2015-07-03T21:51:46Z</time>
				<extensions>
				</extensions>
			</trkpt>
			<trkpt lat="-27.367666" lon="152.978477">
				<ele>49.745</ele>
				<time>2015-07-03T21:51:47Z</time>
				<extensions>
				</extensions>
			</trkpt>
			<trkpt lat="-27.367803" lon="152.978617">
				<ele>48.692</ele>
				<time>2015-07-03T21:51:48Z</time>
				<extensions>
				</extensions>
			</trkpt>
			<trkpt lat="-27.368076" lon="152.978838">
				<ele>47.490</ele>
				<time>2015-07-03T21:51:50Z</time>
				<extensions>
				</extensions>
			</trkpt>
			<trkpt lat="-27.368308" lon="152.978987">
				<ele>47.352</ele>
				<time>2015-07-03T21:51:51Z</time>
				<extensions>
				</extensions>
			</trkpt>
			<trkpt lat="-27.368627" lon="152.979169">
				<ele>45.312</ele>
				<time>2015-07-03T21:51:53Z</time>
				<extensions>
				</extensions>
			</trkpt>
			<trkpt lat="-27.368806" lon="152.979262">
				<ele>45.219</ele>
				<time>2015-07-03T21:51:54Z</time>
				<extensions>
				</extensions>
			</trkpt>
			<trkpt lat="-27.368982" lon="152.979325">
				<ele>44.532</ele>
				<time>2015-07-03T21:51:55Z</time>
				<extensions>
				</extensions>
			</trkpt>
			<trkpt lat="-27.369164" lon="152.979391">
				<ele>45.231</ele>
				<time>2015-07-03T21:51:56Z</time>
				<extensions>
				</extensions>
			</trkpt>
			<trkpt lat="-27.369347" lon="152.979458">
				<ele>44.291</ele>
				<time>2015-07-03T21:51:57Z</time>
				<extensions>
				</extensions>
			</trkpt>
			<trkpt lat="-27.369711" lon="152.979589">
				<ele>44.952</ele>
				<time>2015-07-03T21:51:59Z</time>
				<extensions>
				</extensions>
			</trkpt>
			<trkpt lat="-27.369927" lon="152.979715">
				<ele>45.846</ele>
				<time>2015-07-03T21:52:00Z</time>
				<extensions>
				</extensions>
			</trkpt>
			<trkpt lat="-27.370105" lon="152.979819">
				<ele>46.860</ele>
				<time>2015-07-03T21:52:01Z</time>
				<extensions>
				</extensions>
			</trkpt>
			<trkpt lat="-27.370286" lon="152.979907">
				<ele>48.217</ele>
				<time>2015-07-03T21:52:02Z</time>
				<extensions>
				</extensions>
			</trkpt>
			<trkpt lat="-27.370464" lon="152.979987">
				<ele>48.385</ele>
				<time>2015-07-03T21:52:03Z</time>
				<extensions>
				</extensions>
			</trkpt>
			<trkpt lat="-27.370647" lon="152.980061">
				<ele>50.223</ele>
				<time>2015-07-03T21:52:04Z</time>
				<extensions>
				</extensions>
			</trkpt>
			<trkpt lat="-27.370825" lon="152.980124">
				<ele>50.281</ele>
				<time>2015-07-03T21:52:05Z</time>
				<extensions>
				</extensions>
			</trkpt>
			<trkpt lat="-27.371002" lon="152.980188">
				<ele>52.513</ele>
				<time>2015-07-03T21:52:06Z</time>
				<extensions>
				</extensions>
			</trkpt>
			<trkpt lat="-27.371179" lon="152.980240">
				<ele>52.470</ele>
				<time>2015-07-03T21:52:07Z</time>
				<extensions>
				</extensions>
			</trkpt>
			<trkpt lat="-27.371511" lon="152.980323">
				<ele>54.627</ele>
				<time>2015-07-03T21:52:09Z</time>
				<extensions>
				</extensions>
			</trkpt>
			<trkpt lat="-27.371856" lon="152.980386">
				<ele>56.297</ele>
				<time>2015-07-03T21:52:11Z</time>
				<extensions>
				</extensions>
			</trkpt>
			<trkpt lat="-27.372205" lon="152.980426">
				<ele>56.769</ele>
				<time>2015-07-03T21:52:13Z</time>
				<extensions>
				</extensions>
			</trkpt>
			<trkpt lat="-27.372571" lon="152.980418">
				<ele>57.856</ele>
				<time>2015-07-03T21:52:15Z</time>
				<extensions>
				</extensions>
			</trkpt>
			<trkpt lat="-27.372752" lon="152.980417">
				<ele>59.098</ele>
				<time>2015-07-03T21:52:16Z</time>
				<extensions>
				</extensions>
			</trkpt>
			<trkpt lat="-27.372935" lon="152.980415">
				<ele>59.304</ele>
				<time>2015-07-03T21:52:17Z</time>
				<extensions>
				</extensions>
			</trkpt>
			<trkpt lat="-27.373119" lon="152.980409">
				<ele>59.217</ele>
				<time>2015-07-03T21:52:18Z</time>
				<extensions>
				</extensions>
			</trkpt>
			<trkpt lat="-27.373476" lon="152.980408">
				<ele>57.995</ele>
				<time>2015-07-03T21:52:20Z</time>
				<extensions>
				</extensions>
			</trkpt>
			<trkpt lat="-27.373661" lon="152.980400">
				<ele>57.626</ele>
				<time>2015-07-03T21:52:21Z</time>
				<extensions>
				</extensions>
			</trkpt>
			<trkpt lat="-27.374009" lon="152.980388">
				<ele>56.598</ele>
				<time>2015-07-03T21:52:23Z</time>
				<extensions>
				</extensions>
			</trkpt>
			<trkpt lat="-27.374190" lon="152.980378">
				<ele>56.067</ele>
				<time>2015-07-03T21:52:24Z</time>
				<extensions>
				</extensions>
			</trkpt>
			<trkpt lat="-27.374542" lon="152.980374">
				<ele>54.724</ele>
				<time>2015-07-03T21:52:26Z</time>
				<extensions>
				</extensions>
			</trkpt>
			<trkpt lat="-27.374725" lon="152.980369">
				<ele>54.260</ele>
				<time>2015-07-03T21:52:27Z</time>
				<extensions>
				</extensions>
			</trkpt>
			<trkpt lat="-27.375077" lon="152.980381">
				<ele>54.796</ele>
				<time>2015-07-03T21:52:29Z</time>
				<extensions>
				</extensions>
			</trkpt>
			<trkpt lat="-27.375415" lon="152.980399">
				<ele>55.791</ele>
				<time>2015-07-03T21:52:31Z</time>
				<extensions>
				</extensions>
			</trkpt>
			<trkpt lat="-27.375746" lon="152.980419">
				<ele>57.577</ele>
				<time>2015-07-03T21:52:33Z</time>
				<extensions>
				</extensions>
			</trkpt>
			<trkpt lat="-27.376087" lon="152.980440">
				<ele>59.860</ele>
				<time>2015-07-03T21:52:35Z</time>
				<extensions>
				</extensions>
			</trkpt>
			<trkpt lat="-27.376397" lon="152.980461">
				<ele>59.291</ele>
				<time>2015-07-03T21:52:37Z</time>
				<extensions>
				</extensions>
			</trkpt>
			<trkpt lat="-27.376658" lon="152.980501">
				<ele>59.161</ele>
				<time>2015-07-03T21:52:39Z</time>
				<extensions>
				</extensions>
			</trkpt>
			<trkpt lat="-27.376902" lon="152.980529">
				<ele>59.030</ele>
				<time>2015-07-03T21:52:41Z</time>
				<extensions>
				</extensions>
			</trkpt>
			<trkpt lat="-27.377087" lon="152.980551">
				<ele>56.969</ele>
				<time>2015-07-03T21:52:43Z</time>
				<extensions>
				</extensions>
			</trkpt>
			<trkpt lat="-27.377303" lon="152.980564">
				<ele>55.998</ele>
				<time>2015-07-03T21:52:46Z</time>
				<extensions>
				</extensions>
			</trkpt>
			<trkpt lat="-27.377530" lon="152.980584">
				<ele>55.783</ele>
				<time>2015-07-03T21:52:50Z</time>
				<extensions>
				</extensions>
			</trkpt>
			<trkpt lat="-27.377726" lon="152.980602">
				<ele>55.706</ele>
				<time>2015-07-03T21:52:54Z</time>
				<extensions>
				</extensions>
			</trkpt>
			<trkpt lat="-27.377963" lon="152.980645">
				<ele>56.275</ele>
				<time>2015-07-03T21:52:58Z</time>
				<extensions>
				</extensions>
			</trkpt>
			<trkpt lat="-27.378227" lon="152.980692">
				<ele>56.628</ele>
				<time>2015-07-03T21:53:01Z</time>
				<extensions>
				</extensions>
			</trkpt>
			<trkpt lat="-27.378411" lon="152.980731">
				<ele>57.340</ele>
				<time>2015-07-03T21:53:03Z</time>
				<extensions>
				</extensions>
			</trkpt>
			<trkpt lat="-27.378693" lon="152.980787">
				<ele>56.448</ele>
				<time>2015-07-03T21:53:05Z</time>
				<extensions>
				</extensions>
			</trkpt>
			<trkpt lat="-27.378962" lon="152.980820">
				<ele>55.310</ele>
				<time>2015-07-03T21:53:07Z</time>
				<extensions>
				</extensions>
			</trkpt>
			<trkpt lat="-27.379235" lon="152.980866">
				<ele>52.842</ele>
				<time>2015-07-03T21:53:09Z</time>
				<extensions>
				</extensions>
			</trkpt>
			<trkpt lat="-27.379507" lon="152.980934">
				<ele>51.238</ele>
				<time>2015-07-03T21:53:11Z</time>
				<extensions>
				</extensions>
			</trkpt>
			<trkpt lat="-27.379780" lon="152.981026">
				<ele>49.809</ele>
				<time>2015-07-03T21:53:13Z</time>
				<extensions>
				</extensions>
			</trkpt>
			<trkpt lat="-27.380054" lon="152.981145">
				<ele>47.789</ele>
				<time>2015-07-03T21:53:15Z</time>
				<extensions>
				</extensions>
			</trkpt>
			<trkpt lat="-27.380317" lon="152.981303">
				<ele>46.114</ele>
				<time>2015-07-03T21:53:17Z</time>
				<extensions>
				</extensions>
			</trkpt>
			<trkpt lat="-27.380579" lon="152.981496">
				<ele>45.522</ele>
				<time>2015-07-03T21:53:19Z</time>
				<extensions>
				</extensions>
			</trkpt>
			<trkpt lat="-27.380847" lon="152.981713">
				<ele>44.941</ele>
				<time>2015-07-03T21:53:21Z</time>
				<extensions>
				</extensions>
			</trkpt>
			<trkpt lat="-27.381081" lon="152.981950">
				<ele>44.754</ele>
				<time>2015-07-03T21:53:23Z</time>
				<extensions>
				</extensions>
			</trkpt>
			<trkpt lat="-27.381316" lon="152.982195">
				<ele>44.128</ele>
				<time>2015-07-03T21:53:25Z</time>
				<extensions>
				</extensions>
			</trkpt>
			<trkpt lat="-27.381535" lon="152.982434">
				<ele>44.062</ele>
				<time>2015-07-03T21:53:27Z</time>
				<extensions>
				</extensions>
			</trkpt>
			<trkpt lat="-27.381756" lon="152.982661">
				<ele>44.601</ele>
				<time>2015-07-03T21:53:29Z</time>
				<extensions>
				</extensions>
			</trkpt>
			<trkpt lat="-27.381979" lon="152.982850">
				<ele>44.957</ele>
				<time>2015-07-03T21:53:31Z</time>
				<extensions>
				</extensions>
			</trkpt>
			<trkpt lat="-27.382200" lon="152.982989">
				<ele>44.946</ele>
				<time>2015-07-03T21:53:33Z</time>
				<extensions>
				</extensions>
			</trkpt>
			<trkpt lat="-27.382392" lon="152.983097">
				<ele>45.845</ele>
				<time>2015-07-03T21:53:35Z</time>
				<extensions>
				</extensions>
			</trkpt>
			<trkpt lat="-27.382590" lon="152.983185">
				<ele>44.761</ele>
				<time>2015-07-03T21:53:39Z</time>
				<extensions>
				</extensions>
			</trkpt>
			<trkpt lat="-27.382797" lon="152.983251">
				<ele>47.532</ele>
				<time>2015-07-03T21:53:56Z</time>
				<extensions>
				</extensions>
			</trkpt>
			<trkpt lat="-27.382978" lon="152.983299">
				<ele>50.265</ele>
				<time>2015-07-03T21:53:58Z</time>
				<extensions>
				</extensions>
			</trkpt>
			<trkpt lat="-27.383154" lon="152.983353">
				<ele>51.070</ele>
				<time>2015-07-03T21:54:00Z</time>
				<extensions>
				</extensions>
			</trkpt>
			<trkpt lat="-27.383362" lon="152.983424">
				<ele>51.754</ele>
				<time>2015-07-03T21:54:03Z</time>
				<extensions>
				</extensions>
			</trkpt>
			<trkpt lat="-27.383591" lon="152.983504">
				<ele>54.362</ele>
				<time>2015-07-03T21:54:06Z</time>
				<extensions>
				</extensions>
			</trkpt>
			<trkpt lat="-27.383852" lon="152.983602">
				<ele>56.385</ele>
				<time>2015-07-03T21:54:09Z</time>
				<extensions>
				</extensions>
			</trkpt>
			<trkpt lat="-27.384032" lon="152.983658">
				<ele>58.443</ele>
				<time>2015-07-03T21:54:11Z</time>
				<extensions>
				</extensions>
			</trkpt>
			<trkpt lat="-27.384240" lon="152.983730">
				<ele>61.116</ele>
				<time>2015-07-03T21:54:13Z</time>
				<extensions>
				</extensions>
			</trkpt>
			<trkpt lat="-27.384457" lon="152.983814">
				<ele>62.843</ele>
				<time>2015-07-03T21:54:15Z</time>
				<extensions>
				</extensions>
			</trkpt>
			<trkpt lat="-27.384635" lon="152.983889">
				<ele>62.903</ele>
				<time>2015-07-03T21:54:17Z</time>
				<extensions>
				</extensions>
			</trkpt>
			<trkpt lat="-27.384815" lon="152.983999">
				<ele>62.920</ele>
				<time>2015-07-03T21:54:19Z</time>
				<extensions>
				</extensions>
			</trkpt>
			<trkpt lat="-27.384988" lon="152.984114">
				<ele>61.879</ele>
				<time>2015-07-03T21:54:21Z</time>
				<extensions>
				</extensions>
			</trkpt>
			<trkpt lat="-27.385151" lon="152.984243">
				<ele>60.478</ele>
				<time>2015-07-03T21:54:23Z</time>
				<extensions>
				</extensions>
			</trkpt>
			<trkpt lat="-27.385298" lon="152.984371">
				<ele>57.850</ele>
				<time>2015-07-03T21:54:25Z</time>
				<extensions>
				</extensions>
			</trkpt>
			<trkpt lat="-27.385450" lon="152.984515">
				<ele>54.922</ele>
				<time>2015-07-03T21:54:28Z</time>
				<extensions>
				</extensions>
			</trkpt>
			<trkpt lat="-27.385567" lon="152.984676">
				<ele>53.997</ele>
				<time>2015-07-03T21:54:31Z</time>
				<extensions>
				</extensions>
			</trkpt>
			<trkpt lat="-27.385629" lon="152.984910">
				<ele>53.450</ele>
				<time>2015-07-03T21:54:34Z</time>
				<extensions>
				</extensions>
			</trkpt>
			<trkpt lat="-27.385664" lon="152.985130">
				<ele>52.554</ele>
				<time>2015-07-03T21:54:37Z</time>
				<extensions>
				</extensions>
			</trkpt>
			<trkpt lat="-27.385863" lon="152.985288">
				<ele>54.490</ele>
				<time>2015-07-03T21:54:40Z</time>
				<extensions>
				</extensions>
			</trkpt>
			<trkpt lat="-27.386086" lon="152.985417">
				<ele>55.931</ele>
				<time>2015-07-03T21:54:42Z</time>
				<extensions>
				</extensions>
			</trkpt>
			<trkpt lat="-27.386313" lon="152.985620">
				<ele>58.380</ele>
				<time>2015-07-03T21:54:44Z</time>
				<extensions>
				</extensions>
			</trkpt>
			<trkpt lat="-27.386517" lon="152.985872">
				<ele>60.692</ele>
				<time>2015-07-03T21:54:46Z</time>
				<extensions>
				</extensions>
			</trkpt>
			<trkpt lat="-27.386708" lon="152.986149">
				<ele>62.934</ele>
				<time>2015-07-03T21:54:48Z</time>
				<extensions>
				</extensions>
			</trkpt>
			<trkpt lat="-27.386890" lon="152.986415">
				<ele>64.442</ele>
				<time>2015-07-03T21:54:50Z</time>
				<extensions>
				</extensions>
			</trkpt>
			<trkpt lat="-27.387046" lon="152.986631">
				<ele>64.013</ele>
				<time>2015-07-03T21:54:52Z</time>
				<extensions>
				</extensions>
			</trkpt>
			<trkpt lat="-27.387201" lon="152.986871">
				<ele>63.667</ele>
				<time>2015-07-03T21:54:54Z</time>
				<extensions>
				</extensions>
			</trkpt>
			<trkpt lat="-27.387335" lon="152.987088">
				<ele>62.692</ele>
				<time>2015-07-03T21:54:56Z</time>
				<extensions>
				</extensions>
			</trkpt>
			<trkpt lat="-27.387440" lon="152.987318">
				<ele>61.975</ele>
				<time>2015-07-03T21:54:58Z</time>
				<extensions>
				</extensions>
			</trkpt>
			<trkpt lat="-27.387536" lon="152.987598">
				<ele>60.022</ele>
				<time>2015-07-03T21:55:00Z</time>
				<extensions>
				</extensions>
			</trkpt>
			<trkpt lat="-27.387588" lon="152.987913">
				<ele>57.633</ele>
				<time>2015-07-03T21:55:02Z</time>
				<extensions>
				</extensions>
			</trkpt>
			<trkpt lat="-27.387626" lon="152.988243">
				<ele>55.191</ele>
				<time>2015-07-03T21:55:04Z</time>
				<extensions>
				</extensions>
			</trkpt>
			<trkpt lat="-27.387652" lon="152.988561">
				<ele>54.377</ele>
				<time>2015-07-03T21:55:06Z</time>
				<extensions>
				</extensions>
			</trkpt>
			<trkpt lat="-27.387687" lon="152.988834">
				<ele>54.097</ele>
				<time>2015-07-03T21:55:08Z</time>
				<extensions>
				</extensions>
			</trkpt>
			<trkpt lat="-27.387734" lon="152.989050">
				<ele>55.023</ele>
				<time>2015-07-03T21:55:10Z</time>
				<extensions>
				</extensions>
			</trkpt>
			<trkpt lat="-27.387768" lon="152.989296">
				<ele>55.853</ele>
				<time>2015-07-03T21:55:13Z</time>
				<extensions>
				</extensions>
			</trkpt>
			<trkpt lat="-27.387802" lon="152.989549">
				<ele>57.333</ele>
				<time>2015-07-03T21:55:30Z</time>
				<extensions>
				</extensions>
			</trkpt>
			<trkpt lat="-27.387847" lon="152.989852">
				<ele>60.874</ele>
				<time>2015-07-03T21:55:33Z</time>
				<extensions>
				</extensions>
			</trkpt>
			<trkpt lat="-27.387872" lon="152.990105">
				<ele>61.788</ele>
				<time>2015-07-03T21:55:35Z</time>
				<extensions>
				</extensions>
			</trkpt>
			<trkpt lat="-27.387933" lon="152.990390">
				<ele>60.372</ele>
				<time>2015-07-03T21:55:37Z</time>
				<extensions>
				</extensions>
			</trkpt>
			<trkpt lat="-27.387979" lon="152.990659">
				<ele>57.337</ele>
				<time>2015-07-03T21:55:39Z</time>
				<extensions>
				</extensions>
			</trkpt>
			<trkpt lat="-27.388022" lon="152.990925">
				<ele>55.090</ele>
				<time>2015-07-03T21:55:41Z</time>
				<extensions>
				</extensions>
			</trkpt>
			<trkpt lat="-27.388062" lon="152.991205">
				<ele>51.774</ele>
				<time>2015-07-03T21:55:43Z</time>
				<extensions>
				</extensions>
			</trkpt>
			<trkpt lat="-27.388105" lon="152.991473">
				<ele>51.102</ele>
				<time>2015-07-03T21:55:45Z</time>
				<extensions>
				</extensions>
			</trkpt>
			<trkpt lat="-27.388160" lon="152.991738">
				<ele>51.660</ele>
				<time>2015-07-03T21:55:47Z</time>
				<extensions>
				</extensions>
			</trkpt>
			<trkpt lat="-27.388202" lon="152.992004">
				<ele>53.511</ele>
				<time>2015-07-03T21:55:49Z</time>
				<extensions>
				</extensions>
			</trkpt>
			<trkpt lat="-27.388241" lon="152.992270">
				<ele>56.674</ele>
				<time>2015-07-03T21:55:51Z</time>
				<extensions>
				</extensions>
			</trkpt>
			<trkpt lat="-27.388279" lon="152.992523">
				<ele>58.910</ele>
				<time>2015-07-03T21:55:53Z</time>
				<extensions>
				</extensions>
			</trkpt>
			<trkpt lat="-27.388312" lon="152.992866">
				<ele>62.603</ele>
				<time>2015-07-03T21:55:55Z</time>
				<extensions>
				</extensions>
			</trkpt>
			<trkpt lat="-27.388345" lon="152.993091">
				<ele>63.906</ele>
				<time>2015-07-03T21:55:57Z</time>
				<extensions>
				</extensions>
			</trkpt>
			<trkpt lat="-27.388364" lon="152.993222">
				<ele>63.615</ele>
				<time>2015-07-03T21:55:58Z</time>
				<extensions>
				</extensions>
			</trkpt>
			<trkpt lat="-27.388402" lon="152.993482">
				<ele>64.149</ele>
				<time>2015-07-03T21:56:00Z</time>
				<extensions>
				</extensions>
			</trkpt>
			<trkpt lat="-27.388442" lon="152.993728">
				<ele>64.041</ele>
				<time>2015-07-03T21:56:02Z</time>
				<extensions>
				</extensions>
			</trkpt>
			<trkpt lat="-27.388487" lon="152.993986">
				<ele>64.332</ele>
				<time>2015-07-03T21:56:04Z</time>
				<extensions>
				</extensions>
			</trkpt>
			<trkpt lat="-27.388533" lon="152.994255">
				<ele>64.284</ele>
				<time>2015-07-03T21:56:06Z</time>
				<extensions>
				</extensions>
			</trkpt>
			<trkpt lat="-27.388603" lon="152.994564">
				<ele>63.376</ele>
				<time>2015-07-03T21:56:08Z</time>
				<extensions>
				</extensions>
			</trkpt>
			<trkpt lat="-27.388632" lon="152.994815">
				<ele>62.054</ele>
				<time>2015-07-03T21:56:10Z</time>
				<extensions>
				</extensions>
			</trkpt>
			<trkpt lat="-27.388686" lon="152.995012">
				<ele>57.307</ele>
				<time>2015-07-03T21:56:12Z</time>
				<extensions>
				</extensions>
			</trkpt>
			<trkpt lat="-27.388718" lon="152.995241">
				<ele>53.199</ele>
				<time>2015-07-03T21:56:15Z</time>
				<extensions>
				</extensions>
			</trkpt>
			<trkpt lat="-27.388763" lon="152.995462">
				<ele>50.734</ele>
				<time>2015-07-03T21:56:20Z</time>
				<extensions>
				</extensions>
			</trkpt>
			<trkpt lat="-27.388774" lon="152.995743">
				<ele>52.708</ele>
				<time>2015-07-03T21:56:32Z</time>
				<extensions>
				</extensions>
			</trkpt>
			<trkpt lat="-27.388790" lon="152.996013">
				<ele>53.741</ele>
				<time>2015-07-03T21:56:34Z</time>
				<extensions>
				</extensions>
			</trkpt>
			<trkpt lat="-27.388816" lon="152.996342">
				<ele>55.850</ele>
				<time>2015-07-03T21:56:36Z</time>
				<extensions>
				</extensions>
			</trkpt>
			<trkpt lat="-27.388857" lon="152.996667">
				<ele>55.517</ele>
				<time>2015-07-03T21:56:38Z</time>
				<extensions>
				</extensions>
			</trkpt>
			<trkpt lat="-27.388899" lon="152.996962">
				<ele>56.481</ele>
				<time>2015-07-03T21:56:40Z</time>
				<extensions>
				</extensions>
			</trkpt>
			<trkpt lat="-27.388977" lon="152.997248">
				<ele>56.904</ele>
				<time>2015-07-03T21:56:42Z</time>
				<extensions>
				</extensions>
			</trkpt>
			<trkpt lat="-27.389030" lon="152.997555">
				<ele>58.643</ele>
				<time>2015-07-03T21:56:44Z</time>
				<extensions>
				</extensions>
			</trkpt>
			<trkpt lat="-27.389080" lon="152.997852">
				<ele>58.421</ele>
				<time>2015-07-03T21:56:46Z</time>
				<extensions>
				</extensions>
			</trkpt>
			<trkpt lat="-27.389115" lon="152.998115">
				<ele>59.069</ele>
				<time>2015-07-03T21:56:48Z</time>
				<extensions>
				</extensions>
			</trkpt>
			<trkpt lat="-27.389158" lon="152.998381">
				<ele>61.596</ele>
				<time>2015-07-03T21:56:50Z</time>
				<extensions>
				</extensions>
			</trkpt>
			<trkpt lat="-27.389202" lon="152.998671">
				<ele>63.258</ele>
				<time>2015-07-03T21:56:52Z</time>
				<extensions>
				</extensions>
			</trkpt>
			<trkpt lat="-27.389296" lon="152.998938">
				<ele>64.716</ele>
				<time>2015-07-03T21:56:54Z</time>
				<extensions>
				</extensions>
			</trkpt>
			<trkpt lat="-27.389395" lon="152.999175">
				<ele>64.235</ele>
				<time>2015-07-03T21:56:56Z</time>
				<extensions>
				</extensions>
			</trkpt>
			<trkpt lat="-27.389456" lon="152.999417">
				<ele>62.879</ele>
				<time>2015-07-03T21:56:58Z</time>
				<extensions>
				</extensions>
			</trkpt>
			<trkpt lat="-27.389406" lon="152.999699">
				<ele>61.704</ele>
				<time>2015-07-03T21:57:00Z</time>
				<extensions>
				</extensions>
			</trkpt>
			<trkpt lat="-27.389414" lon="152.999824">
				<ele>61.389</ele>
				<time>2015-07-03T21:57:01Z</time>
				<extensions>
				</extensions>
			</trkpt>
			<trkpt lat="-27.389469" lon="153.000034">
				<ele>60.578</ele>
				<time>2015-07-03T21:57:03Z</time>
				<extensions>
				</extensions>
			</trkpt>
			<trkpt lat="-27.389490" lon="153.000246">
				<ele>60.291</ele>
				<time>2015-07-03T21:57:05Z</time>
				<extensions>
				</extensions>
			</trkpt>
			<trkpt lat="-27.389522" lon="153.000513">
				<ele>59.488</ele>
				<time>2015-07-03T21:57:08Z</time>
				<extensions>
				</extensions>
			</trkpt>
			<trkpt lat="-27.389625" lon="153.000714">
				<ele>59.293</ele>
				<time>2015-07-03T21:57:11Z</time>
				<extensions>
				</extensions>
			</trkpt>
			<trkpt lat="-27.389661" lon="153.000919">
				<ele>57.729</ele>
				<time>2015-07-03T21:57:14Z</time>
				<extensions>
				</extensions>
			</trkpt>
			<trkpt lat="-27.389697" lon="153.001134">
				<ele>56.192</ele>
				<time>2015-07-03T21:57:18Z</time>
				<extensions>
				</extensions>
			</trkpt>
			<trkpt lat="-27.389839" lon="153.001275">
				<ele>55.223</ele>
				<time>2015-07-03T21:57:21Z</time>
				<extensions>
				</extensions>
			</trkpt>
			<trkpt lat="-27.390015" lon="153.001190">
				<ele>55.521</ele>
				<time>2015-07-03T21:57:23Z</time>
				<extensions>
				</extensions>
			</trkpt>
			<trkpt lat="-27.390202" lon="153.001182">
				<ele>56.019</ele>
				<time>2015-07-03T21:57:25Z</time>
				<extensions>
				</extensions>
			</trkpt>
			<trkpt lat="-27.390416" lon="153.001233">
				<ele>55.637</ele>
				<time>2015-07-03T21:57:27Z</time>
				<extensions>
				</extensions>
			</trkpt>
			<trkpt lat="-27.390645" lon="153.001265">
				<ele>55.726</ele>
				<time>2015-07-03T21:57:29Z</time>
				<extensions>
				</extensions>
			</trkpt>
			<trkpt lat="-27.390882" lon="153.001248">
				<ele>53.572</ele>
				<time>2015-07-03T21:57:31Z</time>
				<extensions>
				</extensions>
			</trkpt>
			<trkpt lat="-27.391120" lon="153.001167">
				<ele>51.580</ele>
				<time>2015-07-03T21:57:33Z</time>
				<extensions>
				</extensions>
			</trkpt>
			<trkpt lat="-27.391349" lon="153.001044">
				<ele>49.099</ele>
				<time>2015-07-03T21:57:35Z</time>
				<extensions>
				</extensions>
			</trkpt>
			<trkpt lat="-27.391582" lon="153.000918">
				<ele>46.754</ele>
				<time>2015-07-03T21:57:37Z</time>
				<extensions>
				</extensions>
			</trkpt>
			<trkpt lat="-27.391838" lon="153.000773">
				<ele>45.165</ele>
				<time>2015-07-03T21:57:39Z</time>
				<extensions>
				</extensions>
			</trkpt>
			<trkpt lat="-27.392097" lon="153.000638">
				<ele>42.178</ele>
				<time>2015-07-03T21:57:41Z</time>
				<extensions>
				</extensions>
			</trkpt>
			<trkpt lat="-27.392340" lon="153.000487">
				<ele>40.127</ele>
				<time>2015-07-03T21:57:43Z</time>
				<extensions>
				</extensions>
			</trkpt>
			<trkpt lat="-27.392565" lon="153.000297">
				<ele>38.235</ele>
				<time>2015-07-03T21:57:45Z</time>
				<extensions>
				</extensions>
			</trkpt>
			<trkpt lat="-27.392786" lon="153.000088">
				<ele>38.172</ele>
				<time>2015-07-03T21:57:47Z</time>
				<extensions>
				</extensions>
			</trkpt>
			<trkpt lat="-27.393005" lon="152.999866">
				<ele>38.412</ele>
				<time>2015-07-03T21:57:49Z</time>
				<extensions>
				</extensions>
			</trkpt>
			<trkpt lat="-27.393213" lon="152.999658">
				<ele>38.426</ele>
				<time>2015-07-03T21:57:51Z</time>
				<extensions>
				</extensions>
			</trkpt>
			<trkpt lat="-27.393411" lon="152.999460">
				<ele>38.775</ele>
				<time>2015-07-03T21:57:53Z</time>
				<extensions>
				</extensions>
			</trkpt>
			<trkpt lat="-27.393609" lon="152.999269">
				<ele>41.278</ele>
				<time>2015-07-03T21:57:55Z</time>
				<extensions>
				</extensions>
			</trkpt>
			<trkpt lat="-27.393813" lon="152.999106">
				<ele>43.299</ele>
				<time>2015-07-03T21:57:57Z</time>
				<extensions>
				</extensions>
			</trkpt>
			<trkpt lat="-27.394020" lon="152.998976">
				<ele>46.724</ele>
				<time>2015-07-03T21:57:59Z</time>
				<extensions>
				</extensions>
			</trkpt>
			<trkpt lat="-27.394250" lon="152.998895">
				<ele>49.627</ele>
				<time>2015-07-03T21:58:01Z</time>
				<extensions>
				</extensions>
			</trkpt>
			<trkpt lat="-27.394514" lon="152.998838">
				<ele>52.096</ele>
				<time>2015-07-03T21:58:03Z</time>
				<extensions>
				</extensions>
			</trkpt>
			<trkpt lat="-27.394771" lon="152.998796">
				<ele>53.687</ele>
				<time>2015-07-03T21:58:05Z</time>
				<extensions>
				</extensions>
			</trkpt>
			<trkpt lat="-27.394997" lon="152.998751">
				<ele>53.952</ele>
				<time>2015-07-03T21:58:07Z</time>
				<extensions>
				</extensions>
			</trkpt>
			<trkpt lat="-27.395245" lon="152.998704">
				<ele>53.607</ele>
				<time>2015-07-03T21:58:10Z</time>
				<extensions>
				</extensions>
			</trkpt>
			<trkpt lat="-27.395437" lon="152.998667">
				<ele>53.164</ele>
				<time>2015-07-03T21:58:13Z</time>
				<extensions>
				</extensions>
			</trkpt>
			<trkpt lat="-27.395691" lon="152.998662">
				<ele>51.447</ele>
				<time>2015-07-03T21:58:17Z</time>
				<extensions>
				</extensions>
			</trkpt>
			<trkpt lat="-27.395962" lon="152.998569">
				<ele>52.650</ele>
				<time>2015-07-03T21:58:20Z</time>
				<extensions>
				</extensions>
			</trkpt>
			<trkpt lat="-27.396200" lon="152.998461">
				<ele>52.500</ele>
				<time>2015-07-03T21:58:22Z</time>
				<extensions>
				</extensions>
			</trkpt>
			<trkpt lat="-27.396451" lon="152.998343">
				<ele>49.755</ele>
				<time>2015-07-03T21:58:24Z</time>
				<extensions>
				</extensions>
			</trkpt>
			<trkpt lat="-27.396795" lon="152.998383">
				<ele>48.592</ele>
				<time>2015-07-03T21:58:26Z</time>
				<extensions>
				</extensions>
			</trkpt>
			<trkpt lat="-27.396942" lon="152.998370">
				<ele>47.267</ele>
				<time>2015-07-03T21:58:27Z</time>
				<extensions>
				</extensions>
			</trkpt>
			<trkpt lat="-27.397216" lon="152.998318">
				<ele>45.869</ele>
				<time>2015-07-03T21:58:29Z</time>
				<extensions>
				</extensions>
			</trkpt>
			<trkpt lat="-27.397473" lon="152.998265">
				<ele>44.956</ele>
				<time>2015-07-03T21:58:31Z</time>
				<extensions>
				</extensions>
			</trkpt>
			<trkpt lat="-27.397742" lon="152.998217">
				<ele>43.896</ele>
				<time>2015-07-03T21:58:33Z</time>
				<extensions>
				</extensions>
			</trkpt>
			<trkpt lat="-27.398004" lon="152.998167">
				<ele>42.351</ele>
				<time>2015-07-03T21:58:35Z</time>
				<extensions>
				</extensions>
			</trkpt>
			<trkpt lat="-27.398258" lon="152.998129">
				<ele>40.337</ele>
				<time>2015-07-03T21:58:37Z</time>
				<extensions>
				</extensions>
			</trkpt>
			<trkpt lat="-27.398500" lon="152.998080">
				<ele>40.409</ele>
				<time>2015-07-03T21:58:39Z</time>
				<extensions>
				</extensions>
			</trkpt>
			<trkpt lat="-27.398745" lon="152.998037">
				<ele>41.713</ele>
				<time>2015-07-03T21:58:41Z</time>
				<extensions>
				</extensions>
			</trkpt>
			<trkpt lat="-27.398984" lon="152.997999">
				<ele>45.033</ele>
				<time>2015-07-03T21:58:43Z</time>
				<extensions>
				</extensions>
			</trkpt>
			<trkpt lat="-27.399253" lon="152.997950">
				<ele>50.029</ele>
				<time>2015-07-03T21:58:45Z</time>
				<extensions>
				</extensions>
			</trkpt>
			<trkpt lat="-27.399535" lon="152.997902">
				<ele>53.576</ele>
				<time>2015-07-03T21:58:47Z</time>
				<extensions>
				</extensions>
			</trkpt>
			<trkpt lat="-27.399825" lon="152.997856">
				<ele>55.284</ele>
				<time>2015-07-03T21:58:49Z</time>
				<extensions>
				</extensions>
			</trkpt>
			<trkpt lat="-27.400112" lon="152.997808">
				<ele>57.789</ele>
				<time>2015-07-03T21:58:51Z</time>
				<extensions>
				</extensions>
			</trkpt>
			<trkpt lat="-27.400381" lon="152.997747">
				<ele>58.698</ele>
				<time>2015-07-03T21:58:53Z</time>
				<extensions>
				</extensions>
			</trkpt>
			<trkpt lat="-27.400632" lon="152.997687">
				<ele>58.675</ele>
				<time>2015-07-03T21:58:55Z</time>
				<extensions>
				</extensions>
			</trkpt>
			<trkpt lat="-27.400854" lon="152.997666">
				<ele>58.714</ele>
				<time>2015-07-03T21:58:57Z</time>
				<extensions>
				</extensions>
			</trkpt>
			<trkpt lat="-27.401107" lon="152.997665">
				<ele>56.957</ele>
				<time>2015-07-03T21:59:00Z</time>
				<extensions>
				</extensions>
			</trkpt>
			<trkpt lat="-27.401287" lon="152.997594">
				<ele>58.032</ele>
				<time>2015-07-03T21:59:02Z</time>
				<extensions>
				</extensions>
			</trkpt>
			<trkpt lat="-27.401539" lon="152.997518">
				<ele>60.432</ele>
				<time>2015-07-03T21:59:04Z</time>
				<extensions>
				</extensions>
			</trkpt>
			<trkpt lat="-27.401803" lon="152.997457">
				<ele>62.321</ele>
				<time>2015-07-03T21:59:06Z</time>
				<extensions>
				</extensions>
			</trkpt>
			<trkpt lat="-27.402084" lon="152.997405">
				<ele>60.637</ele>
				<time>2015-07-03T21:59:08Z</time>
				<extensions>
				</extensions>
			</trkpt>
			<trkpt lat="-27.402352" lon="152.997348">
				<ele>59.425</ele>
				<time>2015-07-03T21:59:10Z</time>
				<extensions>
				</extensions>
			</trkpt>
			<trkpt lat="-27.402613" lon="152.997318">
				<ele>58.383</ele>
				<time>2015-07-03T21:59:12Z</time>
				<extensions>
				</extensions>
			</trkpt>
			<trkpt lat="-27.402846" lon="152.997346">
				<ele>57.728</ele>
				<time>2015-07-03T21:59:14Z</time>
				<extensions>
				</extensions>
			</trkpt>
			<trkpt lat="-27.403054" lon="152.997420">
				<ele>57.375</ele>
				<time>2015-07-03T21:59:16Z</time>
				<extensions>
				</extensions>
			</trkpt>
			<trkpt lat="-27.403284" lon="152.997560">
				<ele>58.359</ele>
				<time>2015-07-03T21:59:18Z</time>
				<extensions>
				</extensions>
			</trkpt>
			<trkpt lat="-27.403492" lon="152.997707">
				<ele>57.430</ele>
				<time>2015-07-03T21:59:20Z</time>
				<extensions>
				</extensions>
			</trkpt>
			<trkpt lat="-27.403687" lon="152.997843">
				<ele>56.363</ele>
				<time>2015-07-03T21:59:22Z</time>
				<extensions>
				</extensions>
			</trkpt>
			<trkpt lat="-27.403876" lon="152.997975">
				<ele>54.821</ele>
				<time>2015-07-03T21:59:24Z</time>
				<extensions>
				</extensions>
			</trkpt>
			<trkpt lat="-27.404074" lon="152.998105">
				<ele>52.667</ele>
				<time>2015-07-03T21:59:26Z</time>
				<extensions>
				</extensions>
			</trkpt>
			<trkpt lat="-27.404308" lon="152.998214">
				<ele>51.262</ele>
				<time>2015-07-03T21:59:28Z</time>
				<extensions>
				</extensions>
			</trkpt>
			<trkpt lat="-27.404570" lon="152.998254">
				<ele>49.964</ele>
				<time>2015-07-03T21:59:30Z</time>
				<extensions>
				</extensions>
			</trkpt>
			<trkpt lat="-27.404844" lon="152.998247">
				<ele>49.087</ele>
				<time>2015-07-03T21:59:32Z</time>
				<extensions>
				</extensions>
			</trkpt>
			<trkpt lat="-27.405095" lon="152.998257">
				<ele>46.668</ele>
				<time>2015-07-03T21:59:34Z</time>
				<extensions>
				</extensions>
			</trkpt>
			<trkpt lat="-27.405327" lon="152.998279">
				<ele>44.709</ele>
				<time>2015-07-03T21:59:36Z</time>
				<extensions>
				</extensions>
			</trkpt>
			<trkpt lat="-27.405541" lon="152.998306">
				<ele>42.845</ele>
				<time>2015-07-03T21:59:38Z</time>
				<extensions>
				</extensions>
			</trkpt>
			<trkpt lat="-27.405783" lon="152.998343">
				<ele>40.216</ele>
				<time>2015-07-03T21:59:41Z</time>
				<extensions>
				</extensions>
			</trkpt>
			<trkpt lat="-27.405992" lon="152.998358">
				<ele>39.417</ele>
				<time>2015-07-03T21:59:44Z</time>
				<extensions>
				</extensions>
			</trkpt>
			<trkpt lat="-27.406187" lon="152.998366">
				<ele>37.909</ele>
				<time>2015-07-03T21:59:49Z</time>
				<extensions>
				</extensions>
			</trkpt>
			<trkpt lat="-27.406377" lon="152.998329">
				<ele>46.956</ele>
				<time>2015-07-03T22:23:34Z</time>
				<extensions>
				</extensions>
			</trkpt>
			<trkpt lat="-27.406564" lon="152.998342">
				<ele>48.077</ele>
				<time>2015-07-03T22:23:36Z</time>
				<extensions>
				</extensions>
			</trkpt>
			<trkpt lat="-27.406776" lon="152.998360">
				<ele>46.882</ele>
				<time>2015-07-03T22:23:39Z</time>
				<extensions>
				</extensions>
			</trkpt>
			<trkpt lat="-27.406991" lon="152.998386">
				<ele>47.279</ele>
				<time>2015-07-03T22:24:11Z</time>
				<extensions>
				</extensions>
			</trkpt>
			<trkpt lat="-27.407161" lon="152.998466">
				<ele>48.502</ele>
				<time>2015-07-03T22:24:14Z</time>
				<extensions>
				</extensions>
			</trkpt>
			<trkpt lat="-27.407259" lon="152.998638">
				<ele>49.775</ele>
				<time>2015-07-03T22:24:16Z</time>
				<extensions>
				</extensions>
			</trkpt>
			<trkpt lat="-27.407377" lon="152.998861">
				<ele>51.259</ele>
				<time>2015-07-03T22:24:18Z</time>
				<extensions>
				</extensions>
			</trkpt>
			<trkpt lat="-27.407505" lon="152.999100">
				<ele>52.643</ele>
				<time>2015-07-03T22:24:20Z</time>
				<extensions>
				</extensions>
			</trkpt>
			<trkpt lat="-27.407653" lon="152.999319">
				<ele>52.675</ele>
				<time>2015-07-03T22:24:22Z</time>
				<extensions>
				</extensions>
			</trkpt>
			<trkpt lat="-27.407748" lon="152.999567">
				<ele>53.330</ele>
				<time>2015-07-03T22:24:24Z</time>
				<extensions>
				</extensions>
			</trkpt>
			<trkpt lat="-27.407864" lon="152.999818">
				<ele>55.085</ele>
				<time>2015-07-03T22:24:26Z</time>
				<extensions>
				</extensions>
			</trkpt>
			<trkpt lat="-27.407981" lon="153.000129">
				<ele>55.315</ele>
				<time>2015-07-03T22:24:28Z</time>
				<extensions>
				</extensions>
			</trkpt>
			<trkpt lat="-27.408098" lon="153.000418">
				<ele>54.553</ele>
				<time>2015-07-03T22:24:30Z</time>
				<extensions>
				</extensions>
			</trkpt>
			<trkpt lat="-27.408188" lon="153.000710">
				<ele>53.314</ele>
				<time>2015-07-03T22:24:33Z</time>
				<extensions>
				</extensions>
			</trkpt>
			<trkpt lat="-27.408229" lon="153.000997">
				<ele>52.629</ele>
				<time>2015-07-03T22:24:35Z</time>
				<extensions>
				</extensions>
			</trkpt>
			<trkpt lat="-27.408272" lon="153.001310">
				<ele>52.718</ele>
				<time>2015-07-03T22:24:37Z</time>
				<extensions>
				</extensions>
			</trkpt>
			<trkpt lat="-27.408327" lon="153.001628">
				<ele>51.169</ele>
				<time>2015-07-03T22:24:39Z</time>
				<extensions>
				</extensions>
			</trkpt>
			<trkpt lat="-27.408375" lon="153.001949">
				<ele>50.747</ele>
				<time>2015-07-03T22:24:41Z</time>
				<extensions>
				</extensions>
			</trkpt>
			<trkpt lat="-27.408416" lon="153.002286">
				<ele>48.369</ele>
				<time>2015-07-03T22:24:43Z</time>
				<extensions>
				</extensions>
			</trkpt>
			<trkpt lat="-27.408454" lon="153.002599">
				<ele>46.635</ele>
				<time>2015-07-03T22:24:45Z</time>
				<extensions>
				</extensions>
			</trkpt>
			<trkpt lat="-27.408517" lon="153.002921">
				<ele>45.430</ele>
				<time>2015-07-03T22:24:47Z</time>
				<extensions>
				</extensions>
			</trkpt>
			<trkpt lat="-27.408568" lon="153.003259">
				<ele>43.606</ele>
				<time>2015-07-03T22:24:49Z</time>
				<extensions>
				</extensions>
			</trkpt>
			<trkpt lat="-27.408618" lon="153.003603">
				<ele>42.776</ele>
				<time>2015-07-03T22:24:51Z</time>
				<extensions>
				</extensions>
			</trkpt>
			<trkpt lat="-27.408665" lon="153.003931">
				<ele>40.640</ele>
				<time>2015-07-03T22:24:53Z</time>
				<extensions>
				</extensions>
			</trkpt>
			<trkpt lat="-27.408695" lon="153.004204">
				<ele>39.611</ele>
				<time>2015-07-03T22:24:55Z</time>
				<extensions>
				</extensions>
			</trkpt>
			<trkpt lat="-27.408744" lon="153.004495">
				<ele>38.434</ele>
				<time>2015-07-03T22:24:57Z</time>
				<extensions>
				</extensions>
			</trkpt>
			<trkpt lat="-27.408784" lon="153.004794">
				<ele>37.420</ele>
				<time>2015-07-03T22:24:59Z</time>
				<extensions>
				</extensions>
			</trkpt>
			<trkpt lat="-27.408826" lon="153.005084">
				<ele>37.506</ele>
				<time>2015-07-03T22:25:01Z</time>
				<extensions>
				</extensions>
			</trkpt>
			<trkpt lat="-27.408876" lon="153.005411">
				<ele>39.064</ele>
				<time>2015-07-03T22:25:03Z</time>
				<extensions>
				</extensions>
			</trkpt>
			<trkpt lat="-27.408935" lon="153.005752">
				<ele>37.368</ele>
				<time>2015-07-03T22:25:05Z</time>
				<extensions>
				</extensions>
			</trkpt>
			<trkpt lat="-27.408975" lon="153.006060">
				<ele>35.227</ele>
				<time>2015-07-03T22:25:07Z</time>
				<extensions>
				</extensions>
			</trkpt>
			<trkpt lat="-27.409026" lon="153.006347">
				<ele>32.376</ele>
				<time>2015-07-03T22:25:09Z</time>
				<extensions>
				</extensions>
			</trkpt>
			<trkpt lat="-27.409070" lon="153.006621">
				<ele>30.943</ele>
				<time>2015-07-03T22:25:11Z</time>
				<extensions>
				</extensions>
			</trkpt>
			<trkpt lat="-27.409101" lon="153.006833">
				<ele>29.657</ele>
				<time>2015-07-03T22:25:13Z</time>
				<extensions>
				</extensions>
			</trkpt>
			<trkpt lat="-27.409167" lon="153.007112">
				<ele>28.224</ele>
				<time>2015-07-03T22:25:16Z</time>
				<extensions>
				</extensions>
			</trkpt>
			<trkpt lat="-27.409213" lon="153.007339">
				<ele>27.231</ele>
				<time>2015-07-03T22:25:19Z</time>
				<extensions>
				</extensions>
			</trkpt>
			<trkpt lat="-27.409210" lon="153.007556">
				<ele>26.714</ele>
				<time>2015-07-03T22:25:32Z</time>
				<extensions>
				</extensions>
			</trkpt>
			<trkpt lat="-27.409345" lon="153.007733">
				<ele>26.541</ele>
				<time>2015-07-03T22:25:36Z</time>
				<extensions>
				</extensions>
			</trkpt>
			<trkpt lat="-27.409547" lon="153.007697">
				<ele>27.518</ele>
				<time>2015-07-03T22:25:39Z</time>
				<extensions>
				</extensions>
			</trkpt>
			<trkpt lat="-27.409758" lon="153.007654">
				<ele>29.484</ele>
				<time>2015-07-03T22:25:41Z</time>
				<extensions>
				</extensions>
			</trkpt>
			<trkpt lat="-27.409995" lon="153.007594">
				<ele>32.402</ele>
				<time>2015-07-03T22:25:43Z</time>
				<extensions>
				</extensions>
			</trkpt>
			<trkpt lat="-27.410209" lon="153.007540">
				<ele>33.411</ele>
				<time>2015-07-03T22:25:45Z</time>
				<extensions>
				</extensions>
			</trkpt>
			<trkpt lat="-27.410425" lon="153.007500">
				<ele>34.935</ele>
				<time>2015-07-03T22:25:47Z</time>
				<extensions>
				</extensions>
			</trkpt>
			<trkpt lat="-27.410658" lon="153.007454">
				<ele>35.333</ele>
				<time>2015-07-03T22:25:49Z</time>
				<extensions>
				</extensions>
			</trkpt>
			<trkpt lat="-27.410890" lon="153.007412">
				<ele>35.767</ele>
				<time>2015-07-03T22:25:51Z</time>
				<extensions>
				</extensions>
			</trkpt>
			<trkpt lat="-27.411117" lon="153.007375">
				<ele>35.562</ele>
				<time>2015-07-03T22:25:53Z</time>
				<extensions>
				</extensions>
			</trkpt>
			<trkpt lat="-27.411327" lon="153.007342">
				<ele>34.623</ele>
				<time>2015-07-03T22:25:55Z</time>
				<extensions>
				</extensions>
			</trkpt>
			<trkpt lat="-27.411546" lon="153.007310">
				<ele>33.517</ele>
				<time>2015-07-03T22:25:57Z</time>
				<extensions>
				</extensions>
			</trkpt>
			<trkpt lat="-27.411763" lon="153.007286">
				<ele>32.896</ele>
				<time>2015-07-03T22:25:59Z</time>
				<extensions>
				</extensions>
			</trkpt>
			<trkpt lat="-27.412006" lon="153.007246">
				<ele>33.071</ele>
				<time>2015-07-03T22:26:01Z</time>
				<extensions>
				</extensions>
			</trkpt>
			<trkpt lat="-27.412244" lon="153.007183">
				<ele>32.255</ele>
				<time>2015-07-03T22:26:03Z</time>
				<extensions>
				</extensions>
			</trkpt>
			<trkpt lat="-27.412477" lon="153.007105">
				<ele>30.960</ele>
				<time>2015-07-03T22:26:05Z</time>
				<extensions>
				</extensions>
			</trkpt>
			<trkpt lat="-27.412701" lon="153.006976">
				<ele>31.165</ele>
				<time>2015-07-03T22:26:07Z</time>
				<extensions>
				</extensions>
			</trkpt>
			<trkpt lat="-27.412925" lon="153.006793">
				<ele>31.387</ele>
				<time>2015-07-03T22:26:09Z</time>
				<extensions>
				</extensions>
			</trkpt>
			<trkpt lat="-27.413127" lon="153.006593">
				<ele>30.870</ele>
				<time>2015-07-03T22:26:11Z</time>
				<extensions>
				</extensions>
			</trkpt>
			<trkpt lat="-27.413302" lon="153.006373">
				<ele>30.265</ele>
				<time>2015-07-03T22:26:13Z</time>
				<extensions>
				</extensions>
			</trkpt>
			<trkpt lat="-27.413448" lon="153.006127">
				<ele>30.302</ele>
				<time>2015-07-03T22:26:15Z</time>
				<extensions>
				</extensions>
			</trkpt>
			<trkpt lat="-27.413540" lon="153.005851">
				<ele>31.244</ele>
				<time>2015-07-03T22:26:17Z</time>
				<extensions>
				</extensions>
			</trkpt>
			<trkpt lat="-27.413611" lon="153.005564">
				<ele>32.943</ele>
				<time>2015-07-03T22:26:19Z</time>
				<extensions>
				</extensions>
			</trkpt>
			<trkpt lat="-27.413622" lon="153.005272">
				<ele>33.603</ele>
				<time>2015-07-03T22:26:21Z</time>
				<extensions>
				</extensions>
			</trkpt>
			<trkpt lat="-27.413619" lon="153.004956">
				<ele>33.098</ele>
				<time>2015-07-03T22:26:23Z</time>
				<extensions>
				</extensions>
			</trkpt>
			<trkpt lat="-27.413603" lon="153.004654">
				<ele>33.541</ele>
				<time>2015-07-03T22:26:25Z</time>
				<extensions>
				</extensions>
			</trkpt>
			<trkpt lat="-27.413575" lon="153.004359">
				<ele>33.604</ele>
				<time>2015-07-03T22:26:27Z</time>
				<extensions>
				</extensions>
			</trkpt>
			<trkpt lat="-27.413572" lon="153.004069">
				<ele>33.986</ele>
				<time>2015-07-03T22:26:29Z</time>
				<extensions>
				</extensions>
			</trkpt>
			<trkpt lat="-27.413602" lon="153.003771">
				<ele>35.008</ele>
				<time>2015-07-03T22:26:31Z</time>
				<extensions>
				</extensions>
			</trkpt>
			<trkpt lat="-27.413685" lon="153.003458">
				<ele>37.541</ele>
				<time>2015-07-03T22:26:33Z</time>
				<extensions>
				</extensions>
			</trkpt>
			<trkpt lat="-27.413810" lon="153.003161">
				<ele>38.832</ele>
				<time>2015-07-03T22:26:35Z</time>
				<extensions>
				</extensions>
			</trkpt>
			<trkpt lat="-27.413984" lon="153.002888">
				<ele>38.617</ele>
				<time>2015-07-03T22:26:37Z</time>
				<extensions>
				</extensions>
			</trkpt>
			<trkpt lat="-27.414190" lon="153.002644">
				<ele>38.408</ele>
				<time>2015-07-03T22:26:39Z</time>
				<extensions>
				</extensions>
			</trkpt>
			<trkpt lat="-27.414411" lon="153.002399">
				<ele>37.824</ele>
				<time>2015-07-03T22:26:41Z</time>
				<extensions>
				</extensions>
			</trkpt>
			<trkpt lat="-27.414622" lon="153.002169">
				<ele>37.970</ele>
				<time>2015-07-03T22:26:43Z</time>
				<extensions>
				</extensions>
			</trkpt>
			<trkpt lat="-27.414828" lon="153.001945">
				<ele>36.583</ele>
				<time>2015-07-03T22:26:45Z</time>
				<extensions>
				</extensions>
			</trkpt>
			<trkpt lat="-27.415036" lon="153.001717">
				<ele>35.834</ele>
				<time>2015-07-03T22:26:47Z</time>
				<extensions>
				</extensions>
			</trkpt>
			<trkpt lat="-27.415255" lon="153.001482">
				<ele>34.555</ele>
				<time>2015-07-03T22:26:49Z</time>
				<extensions>
				</extensions>
			</trkpt>
			<trkpt lat="-27.415462" lon="153.001254">
				<ele>33.959</ele>
				<time>2015-07-03T22:26:51Z</time>
				<extensions>
				</extensions>
			</trkpt>
			<trkpt lat="-27.415677" lon="153.001015">
				<ele>32.785</ele>
				<time>2015-07-03T22:26:53Z</time>
				<extensions>
				</extensions>
			</trkpt>
			<trkpt lat="-27.415900" lon="153.000800">
				<ele>31.630</ele>
				<time>2015-07-03T22:26:55Z</time>
				<extensions>
				</extensions>
			</trkpt>
			<trkpt lat="-27.416138" lon="153.000602">
				<ele>29.928</ele>
				<time>2015-07-03T22:26:57Z</time>
				<extensions>
				</extensions>
			</trkpt>
			<trkpt lat="-27.416379" lon="153.000426">
				<ele>29.954</ele>
				<time>2015-07-03T22:26:59Z</time>
				<extensions>
				</extensions>
			</trkpt>
			<trkpt lat="-27.416632" lon="153.000279">
				<ele>29.392</ele>
				<time>2015-07-03T22:27:01Z</time>
				<extensions>
				</extensions>
			</trkpt>
			<trkpt lat="-27.416894" lon="153.000159">
				<ele>28.812</ele>
				<time>2015-07-03T22:27:03Z</time>
				<extensions>
				</extensions>
			</trkpt>
			<trkpt lat="-27.417144" lon="153.000076">
				<ele>28.387</ele>
				<time>2015-07-03T22:27:05Z</time>
				<extensions>
				</extensions>
			</trkpt>
			<trkpt lat="-27.417388" lon="153.000019">
				<ele>28.146</ele>
				<time>2015-07-03T22:27:07Z</time>
				<extensions>
				</extensions>
			</trkpt>
			<trkpt lat="-27.417601" lon="152.999971">
				<ele>27.910</ele>
				<time>2015-07-03T22:27:09Z</time>
				<extensions>
				</extensions>
			</trkpt>
			<trkpt lat="-27.417851" lon="152.999919">
				<ele>25.684</ele>
				<time>2015-07-03T22:27:12Z</time>
				<extensions>
				</extensions>
			</trkpt>
			<trkpt lat="-27.418069" lon="152.999861">
				<ele>23.975</ele>
				<time>2015-07-03T22:27:16Z</time>
				<extensions>
				</extensions>
			</trkpt>
			<trkpt lat="-27.418257" lon="152.999817">
				<ele>25.241</ele>
				<time>2015-07-03T22:27:19Z</time>
				<extensions>
				</extensions>
			</trkpt>
			<trkpt lat="-27.418452" lon="152.999785">
				<ele>26.731</ele>
				<time>2015-07-03T22:27:21Z</time>
				<extensions>
				</extensions>
			</trkpt>
			<trkpt lat="-27.418690" lon="152.999745">
				<ele>28.270</ele>
				<time>2015-07-03T22:27:23Z</time>
				<extensions>
				</extensions>
			</trkpt>
			<trkpt lat="-27.418935" lon="152.999706">
				<ele>28.893</ele>
				<time>2015-07-03T22:27:25Z</time>
				<extensions>
				</extensions>
			</trkpt>
			<trkpt lat="-27.419162" lon="152.999670">
				<ele>28.654</ele>
				<time>2015-07-03T22:27:27Z</time>
				<extensions>
				</extensions>
			</trkpt>
			<trkpt lat="-27.419361" lon="152.999639">
				<ele>27.559</ele>
				<time>2015-07-03T22:27:29Z</time>
				<extensions>
				</extensions>
			</trkpt>
			<trkpt lat="-27.419609" lon="152.999591">
				<ele>25.976</ele>
				<time>2015-07-03T22:27:32Z</time>
				<extensions>
				</extensions>
			</trkpt>
			<trkpt lat="-27.419820" lon="152.999535">
				<ele>24.270</ele>
				<time>2015-07-03T22:27:36Z</time>
				<extensions>
				</extensions>
			</trkpt>
			<trkpt lat="-27.420028" lon="152.999505">
				<ele>26.709</ele>
				<time>2015-07-03T22:27:39Z</time>
				<extensions>
				</extensions>
			</trkpt>
			<trkpt lat="-27.420241" lon="152.999505">
				<ele>28.305</ele>
				<time>2015-07-03T22:27:41Z</time>
				<extensions>
				</extensions>
			</trkpt>
			<trkpt lat="-27.420501" lon="152.999517">
				<ele>30.887</ele>
				<time>2015-07-03T22:27:43Z</time>
				<extensions>
				</extensions>
			</trkpt>
			<trkpt lat="-27.420797" lon="152.999550">
				<ele>31.856</ele>
				<time>2015-07-03T22:27:45Z</time>
				<extensions>
				</extensions>
			</trkpt>
			<trkpt lat="-27.421080" lon="152.999588">
				<ele>30.266</ele>
				<time>2015-07-03T22:27:47Z</time>
				<extensions>
				</extensions>
			</trkpt>
			<trkpt lat="-27.421362" lon="152.999608">
				<ele>29.356</ele>
				<time>2015-07-03T22:27:49Z</time>
				<extensions>
				</extensions>
			</trkpt>
			<trkpt lat="-27.421649" lon="152.999634">
				<ele>32.174</ele>
				<time>2015-07-03T22:27:51Z</time>
				<extensions>
				</extensions>
			</trkpt>
			<trkpt lat="-27.421926" lon="152.999652">
				<ele>31.972</ele>
				<time>2015-07-03T22:27:53Z</time>
				<extensions>
				</extensions>
			</trkpt>
			<trkpt lat="-27.422190" lon="152.999652">
				<ele>31.738</ele>
				<time>2015-07-03T22:27:55Z</time>
				<extensions>
				</extensions>
			</trkpt>
			<trkpt lat="-27.422433" lon="152.999664">
				<ele>32.064</ele>
				<time>2015-07-03T22:27:57Z</time>
				<extensions>
				</extensions>
			</trkpt>
			<trkpt lat="-27.422690" lon="152.999745">
				<ele>33.676</ele>
				<time>2015-07-03T22:27:59Z</time>
				<extensions>
				</extensions>
			</trkpt>
			<trkpt lat="-27.422936" lon="152.999858">
				<ele>33.493</ele>
				<time>2015-07-03T22:28:01Z</time>
				<extensions>
				</extensions>
			</trkpt>
			<trkpt lat="-27.423167" lon="152.999966">
				<ele>33.696</ele>
				<time>2015-07-03T22:28:03Z</time>
				<extensions>
				</extensions>
			</trkpt>
			<trkpt lat="-27.423404" lon="153.000080">
				<ele>36.153</ele>
				<time>2015-07-03T22:28:05Z</time>
				<extensions>
				</extensions>
			</trkpt>
			<trkpt lat="-27.423663" lon="153.000200">
				<ele>36.978</ele>
				<time>2015-07-03T22:28:07Z</time>
				<extensions>
				</extensions>
			</trkpt>
			<trkpt lat="-27.423915" lon="153.000325">
				<ele>37.469</ele>
				<time>2015-07-03T22:28:09Z</time>
				<extensions>
				</extensions>
			</trkpt>
			<trkpt lat="-27.424161" lon="153.000430">
				<ele>38.148</ele>
				<time>2015-07-03T22:28:11Z</time>
				<extensions>
				</extensions>
			</trkpt>
			<trkpt lat="-27.424385" lon="153.000540">
				<ele>38.325</ele>
				<time>2015-07-03T22:28:13Z</time>
				<extensions>
				</extensions>
			</trkpt>
			<trkpt lat="-27.424611" lon="153.000642">
				<ele>40.358</ele>
				<time>2015-07-03T22:28:15Z</time>
				<extensions>
				</extensions>
			</trkpt>
			<trkpt lat="-27.424853" lon="153.000766">
				<ele>41.556</ele>
				<time>2015-07-03T22:28:17Z</time>
				<extensions>
				</extensions>
			</trkpt>
			<trkpt lat="-27.425107" lon="153.000920">
				<ele>41.672</ele>
				<time>2015-07-03T22:28:19Z</time>
				<extensions>
				</extensions>
			</trkpt>
			<trkpt lat="-27.425348" lon="153.001111">
				<ele>41.902</ele>
				<time>2015-07-03T22:28:21Z</time>
				<extensions>
				</extensions>
			</trkpt>
			<trkpt lat="-27.425590" lon="153.001301">
				<ele>41.088</ele>
				<time>2015-07-03T22:28:23Z</time>
				<extensions>
				</extensions>
			</trkpt>
			<trkpt lat="-27.425838" lon="153.001477">
				<ele>40.251</ele>
				<time>2015-07-03T22:28:25Z</time>
				<extensions>
				</extensions>
			</trkpt>
			<trkpt lat="-27.426077" lon="153.001645">
				<ele>36.814</ele>
				<time>2015-07-03T22:28:27Z</time>
				<extensions>
				</extensions>
			</trkpt>
			<trkpt lat="-27.426321" lon="153.001801">
				<ele>33.945</ele>
				<time>2015-07-03T22:28:29Z</time>
				<extensions>
				</extensions>
			</trkpt>
			<trkpt lat="-27.426570" lon="153.001965">
				<ele>32.260</ele>
				<time>2015-07-03T22:28:31Z</time>
				<extensions>
				</extensions>
			</trkpt>
			<trkpt lat="-27.426807" lon="153.002120">
				<ele>31.318</ele>
				<time>2015-07-03T22:28:33Z</time>
				<extensions>
				</extensions>
			</trkpt>
			<trkpt lat="-27.427076" lon="153.002288">
				<ele>30.850</ele>
				<time>2015-07-03T22:28:35Z</time>
				<extensions>
				</extensions>
			</trkpt>
			<trkpt lat="-27.427355" lon="153.002462">
				<ele>29.845</ele>
				<time>2015-07-03T22:28:37Z</time>
				<extensions>
				</extensions>
			</trkpt>
			<trkpt lat="-27.427621" lon="153.002632">
				<ele>29.662</ele>
				<time>2015-07-03T22:28:39Z</time>
				<extensions>
				</extensions>
			</trkpt>
			<trkpt lat="-27.427876" lon="153.002840">
				<ele>28.657</ele>
				<time>2015-07-03T22:28:41Z</time>
				<extensions>
				</extensions>
			</trkpt>
			<trkpt lat="-27.428123" lon="153.003044">
				<ele>27.776</ele>
				<time>2015-07-03T22:28:43Z</time>
				<extensions>
				</extensions>
			</trkpt>
			<trkpt lat="-27.428350" lon="153.003248">
				<ele>27.214</ele>
				<time>2015-07-03T22:28:45Z</time>
				<extensions>
				</extensions>
			</trkpt>
			<trkpt lat="-27.428558" lon="153.003456">
				<ele>26.936</ele>
				<time>2015-07-03T22:28:47Z</time>
				<extensions>
				</extensions>
			</trkpt>
			<trkpt lat="-27.428747" lon="153.003692">
				<ele>27.210</ele>
				<time>2015-07-03T22:28:49Z</time>
				<extensions>
				</extensions>
			</trkpt>
			<trkpt lat="-27.428934" lon="153.003945">
				<ele>26.118</ele>
				<time>2015-07-03T22:28:51Z</time>
				<extensions>
				</extensions>
			</trkpt>
			<trkpt lat="-27.429129" lon="153.004202">
				<ele>25.118</ele>
				<time>2015-07-03T22:28:53Z</time>
				<extensions>
				</extensions>
			</trkpt>
			<trkpt lat="-27.429307" lon="153.004466">
				<ele>24.451</ele>
				<time>2015-07-03T22:28:55Z</time>
				<extensions>
				</extensions>
			</trkpt>
			<trkpt lat="-27.429501" lon="153.004725">
				<ele>23.458</ele>
				<time>2015-07-03T22:28:57Z</time>
				<extensions>
				</extensions>
			</trkpt>
			<trkpt lat="-27.429684" lon="153.004959">
				<ele>24.377</ele>
				<time>2015-07-03T22:28:59Z</time>
				<extensions>
				</extensions>
			</trkpt>
			<trkpt lat="-27.429815" lon="153.005104">
				<ele>19.141</ele>
				<time>2015-07-03T22:29:01Z</time>
				<extensions>
				</extensions>
			</trkpt>
			<trkpt lat="-27.429986" lon="153.005270">
				<ele>19.949</ele>
				<time>2015-07-03T22:29:20Z</time>
				<extensions>
				</extensions>
			</trkpt>
			<trkpt lat="-27.430173" lon="153.005341">
				<ele>23.507</ele>
				<time>2015-07-03T22:29:22Z</time>
				<extensions>
				</extensions>
			</trkpt>
			<trkpt lat="-27.430434" lon="153.005360">
				<ele>26.215</ele>
				<time>2015-07-03T22:29:24Z</time>
				<extensions>
				</extensions>
			</trkpt>
			<trkpt lat="-27.430689" lon="153.005293">
				<ele>27.392</ele>
				<time>2015-07-03T22:29:26Z</time>
				<extensions>
				</extensions>
			</trkpt>
			<trkpt lat="-27.430911" lon="153.005217">
				<ele>28.335</ele>
				<time>2015-07-03T22:29:28Z</time>
				<extensions>
				</extensions>
			</trkpt>
			<trkpt lat="-27.431123" lon="153.005147">
				<ele>29.365</ele>
				<time>2015-07-03T22:29:30Z</time>
				<extensions>
				</extensions>
			</trkpt>
			<trkpt lat="-27.431349" lon="153.005103">
				<ele>30.430</ele>
				<time>2015-07-03T22:29:32Z</time>
				<extensions>
				</extensions>
			</trkpt>
			<trkpt lat="-27.431605" lon="153.005092">
				<ele>33.367</ele>
				<time>2015-07-03T22:29:34Z</time>
				<extensions>
				</extensions>
			</trkpt>
			<trkpt lat="-27.431889" lon="153.005100">
				<ele>35.742</ele>
				<time>2015-07-03T22:29:36Z</time>
				<extensions>
				</extensions>
			</trkpt>
			<trkpt lat="-27.432183" lon="153.005109">
				<ele>36.268</ele>
				<time>2015-07-03T22:29:38Z</time>
				<extensions>
				</extensions>
			</trkpt>
			<trkpt lat="-27.432466" lon="153.005129">
				<ele>36.613</ele>
				<time>2015-07-03T22:29:40Z</time>
				<extensions>
				</extensions>
			</trkpt>
			<trkpt lat="-27.432743" lon="153.005190">
				<ele>34.683</ele>
				<time>2015-07-03T22:29:42Z</time>
				<extensions>
				</extensions>
			</trkpt>
			<trkpt lat="-27.432996" lon="153.005318">
				<ele>35.318</ele>
				<time>2015-07-03T22:29:44Z</time>
				<extensions>
				</extensions>
			</trkpt>
			<trkpt lat="-27.433256" lon="153.005459">
				<ele>35.986</ele>
				<time>2015-07-03T22:29:46Z</time>
				<extensions>
				</extensions>
			</trkpt>
			<trkpt lat="-27.433515" lon="153.005579">
				<ele>34.789</ele>
				<time>2015-07-03T22:29:48Z</time>
				<extensions>
				</extensions>
			</trkpt>
			<trkpt lat="-27.433793" lon="153.005692">
				<ele>36.102</ele>
				<time>2015-07-03T22:29:50Z</time>
				<extensions>
				</extensions>
			</trkpt>
			<trkpt lat="-27.434074" lon="153.005801">
				<ele>35.939</ele>
				<time>2015-07-03T22:29:52Z</time>
				<extensions>
				</extensions>
			</trkpt>
			<trkpt lat="-27.434357" lon="153.005912">
				<ele>33.588</ele>
				<time>2015-07-03T22:29:54Z</time>
				<extensions>
				</extensions>
			</trkpt>
			<trkpt lat="-27.434632" lon="153.006017">
				<ele>32.416</ele>
				<time>2015-07-03T22:29:56Z</time>
				<extensions>
				</extensions>
			</trkpt>
			<trkpt lat="-27.434912" lon="153.006107">
				<ele>31.103</ele>
				<time>2015-07-03T22:29:58Z</time>
				<extensions>
				</extensions>
			</trkpt>
			<trkpt lat="-27.435207" lon="153.006197">
				<ele>30.528</ele>
				<time>2015-07-03T22:30:00Z</time>
				<extensions>
				</extensions>
			</trkpt>
			<trkpt lat="-27.435513" lon="153.006271">
				<ele>28.654</ele>
				<time>2015-07-03T22:30:02Z</time>
				<extensions>
				</extensions>
			</trkpt>
			<trkpt lat="-27.435804" lon="153.006333">
				<ele>26.739</ele>
				<time>2015-07-03T22:30:04Z</time>
				<extensions>
				</extensions>
			</trkpt>
			<trkpt lat="-27.436071" lon="153.006420">
				<ele>24.734</ele>
				<time>2015-07-03T22:30:06Z</time>
				<extensions>
				</extensions>
			</trkpt>
			<trkpt lat="-27.436290" lon="153.006521">
				<ele>23.044</ele>
				<time>2015-07-03T22:30:08Z</time>
				<extensions>
				</extensions>
			</trkpt>
			<trkpt lat="-27.436473" lon="153.006613">
				<ele>20.767</ele>
				<time>2015-07-03T22:30:10Z</time>
				<extensions>
				</extensions>
			</trkpt>
			<trkpt lat="-27.436671" lon="153.006719">
				<ele>18.910</ele>
				<time>2015-07-03T22:30:13Z</time>
				<extensions>
				</extensions>
			</trkpt>
			<trkpt lat="-27.436848" lon="153.006829">
				<ele>18.396</ele>
				<time>2015-07-03T22:30:16Z</time>
				<extensions>
				</extensions>
			</trkpt>
			<trkpt lat="-27.437096" lon="153.006935">
				<ele>19.630</ele>
				<time>2015-07-03T22:30:19Z</time>
				<extensions>
				</extensions>
			</trkpt>
			<trkpt lat="-27.437296" lon="153.006987">
				<ele>18.938</ele>
				<time>2015-07-03T22:30:21Z</time>
				<extensions>
				</extensions>
			</trkpt>
			<trkpt lat="-27.437484" lon="153.007003">
				<ele>18.239</ele>
				<time>2015-07-03T22:30:23Z</time>
				<extensions>
				</extensions>
			</trkpt>
			<trkpt lat="-27.437710" lon="153.007112">
				<ele>15.931</ele>
				<time>2015-07-03T22:30:26Z</time>
				<extensions>
				</extensions>
			</trkpt>
			<trkpt lat="-27.437902" lon="153.007157">
				<ele>13.782</ele>
				<time>2015-07-03T22:30:30Z</time>
				<extensions>
				</extensions>
			</trkpt>
			<trkpt lat="-27.438094" lon="153.007219">
				<ele>14.527</ele>
				<time>2015-07-03T22:30:34Z</time>
				<extensions>
				</extensions>
			</trkpt>
			<trkpt lat="-27.438377" lon="153.007284">
				<ele>16.026</ele>
				<time>2015-07-03T22:30:37Z</time>
				<extensions>
				</extensions>
			</trkpt>
			<trkpt lat="-27.438615" lon="153.007299">
				<ele>16.322</ele>
				<time>2015-07-03T22:30:39Z</time>
				<extensions>
				</extensions>
			</trkpt>
			<trkpt lat="-27.438867" lon="153.007250">
				<ele>16.940</ele>
				<time>2015-07-03T22:30:41Z</time>
				<extensions>
				</extensions>
			</trkpt>
			<trkpt lat="-27.439139" lon="153.007193">
				<ele>16.856</ele>
				<time>2015-07-03T22:30:43Z</time>
				<extensions>
				</extensions>
			</trkpt>
			<trkpt lat="-27.439413" lon="153.007124">
				<ele>17.643</ele>
				<time>2015-07-03T22:30:45Z</time>
				<extensions>
				</extensions>
			</trkpt>
			<trkpt lat="-27.439690" lon="153.007065">
				<ele>18.851</ele>
				<time>2015-07-03T22:30:47Z</time>
				<extensions>
				</extensions>
			</trkpt>
			<trkpt lat="-27.440004" lon="153.007020">
				<ele>20.141</ele>
				<time>2015-07-03T22:30:49Z</time>
				<extensions>
				</extensions>
			</trkpt>
			<trkpt lat="-27.440251" lon="153.007006">
				<ele>20.639</ele>
				<time>2015-07-03T22:30:51Z</time>
				<extensions>
				</extensions>
			</trkpt>
			<trkpt lat="-27.440500" lon="153.007009">
				<ele>20.848</ele>
				<time>2015-07-03T22:30:53Z</time>
				<extensions>
				</extensions>
			</trkpt>
			<trkpt lat="-27.440716" lon="153.007001">
				<ele>19.736</ele>
				<time>2015-07-03T22:30:55Z</time>
				<extensions>
				</extensions>
			</trkpt>
			<trkpt lat="-27.441002" lon="153.006967">
				<ele>19.450</ele>
				<time>2015-07-03T22:30:57Z</time>
				<extensions>
				</extensions>
			</trkpt>
			<trkpt lat="-27.441291" lon="153.006963">
				<ele>18.140</ele>
				<time>2015-07-03T22:30:58Z</time>
				<extensions>
				</extensions>
			</trkpt>
			<trkpt lat="-27.441584" lon="153.006928">
				<ele>16.401</ele>
				<time>2015-07-03T22:31:00Z</time>
				<extensions>
				</extensions>
			</trkpt>
			<trkpt lat="-27.441864" lon="153.006915">
				<ele>14.451</ele>
				<time>2015-07-03T22:31:02Z</time>
				<extensions>
				</extensions>
			</trkpt>
			<trkpt lat="-27.442151" lon="153.006898">
				<ele>12.642</ele>
				<time>2015-07-03T22:31:04Z</time>
				<extensions>
				</extensions>
			</trkpt>
			<trkpt lat="-27.442435" lon="153.006890">
				<ele>11.297</ele>
				<time>2015-07-03T22:31:06Z</time>
				<extensions>
				</extensions>
			</trkpt>
			<trkpt lat="-27.442729" lon="153.006918">
				<ele>9.881</ele>
				<time>2015-07-03T22:31:08Z</time>
				<extensions>
				</extensions>
			</trkpt>
			<trkpt lat="-27.443017" lon="153.006992">
				<ele>9.589</ele>
				<time>2015-07-03T22:31:10Z</time>
				<extensions>
				</extensions>
			</trkpt>
			<trkpt lat="-27.443303" lon="153.007083">
				<ele>10.118</ele>
				<time>2015-07-03T22:31:12Z</time>
				<extensions>
				</extensions>
			</trkpt>
			<trkpt lat="-27.443582" lon="153.007193">
				<ele>9.088</ele>
				<time>2015-07-03T22:31:14Z</time>
				<extensions>
				</extensions>
			</trkpt>
			<trkpt lat="-27.443867" lon="153.007321">
				<ele>9.742</ele>
				<time>2015-07-03T22:31:16Z</time>
				<extensions>
				</extensions>
			</trkpt>
			<trkpt lat="-27.444136" lon="153.007454">
				<ele>11.054</ele>
				<time>2015-07-03T22:31:18Z</time>
				<extensions>
				</extensions>
			</trkpt>
			<trkpt lat="-27.444388" lon="153.007564">
				<ele>10.928</ele>
				<time>2015-07-03T22:31:20Z</time>
				<extensions>
				</extensions>
			</trkpt>
			<trkpt lat="-27.444638" lon="153.007683">
				<ele>12.247</ele>
				<time>2015-07-03T22:31:22Z</time>
				<extensions>
				</extensions>
			</trkpt>
			<trkpt lat="-27.444877" lon="153.007842">
				<ele>13.838</ele>
				<time>2015-07-03T22:31:24Z</time>
				<extensions>
				</extensions>
			</trkpt>
			<trkpt lat="-27.445132" lon="153.008000">
				<ele>12.971</ele>
				<time>2015-07-03T22:31:26Z</time>
				<extensions>
				</extensions>
			</trkpt>
			<trkpt lat="-27.445374" lon="153.008162">
				<ele>12.857</ele>
				<time>2015-07-03T22:31:28Z</time>
				<extensions>
				</extensions>
			</trkpt>
			<trkpt lat="-27.445608" lon="153.008353">
				<ele>11.981</ele>
				<time>2015-07-03T22:31:30Z</time>
				<extensions>
				</extensions>
			</trkpt>
			<trkpt lat="-27.445815" lon="153.008592">
				<ele>10.999</ele>
				<time>2015-07-03T22:31:32Z</time>
				<extensions>
				</extensions>
			</trkpt>
			<trkpt lat="-27.446023" lon="153.008853">
				<ele>10.818</ele>
				<time>2015-07-03T22:31:34Z</time>
				<extensions>
				</extensions>
			</trkpt>
			<trkpt lat="-27.446245" lon="153.009097">
				<ele>10.896</ele>
				<time>2015-07-03T22:31:36Z</time>
				<extensions>
				</extensions>
			</trkpt>
			<trkpt lat="-27.446487" lon="153.009311">
				<ele>12.820</ele>
				<time>2015-07-03T22:31:38Z</time>
				<extensions>
				</extensions>
			</trkpt>
			<trkpt lat="-27.446736" lon="153.009482">
				<ele>14.059</ele>
				<time>2015-07-03T22:31:40Z</time>
				<extensions>
				</extensions>
			</trkpt>
			<trkpt lat="-27.447000" lon="153.009668">
				<ele>16.234</ele>
				<time>2015-07-03T22:31:42Z</time>
				<extensions>
				</extensions>
			</trkpt>
			<trkpt lat="-27.447248" lon="153.009805">
				<ele>17.637</ele>
				<time>2015-07-03T22:31:44Z</time>
				<extensions>
				</extensions>
			</trkpt>
			<trkpt lat="-27.447495" lon="153.009953">
				<ele>20.390</ele>
				<time>2015-07-03T22:31:46Z</time>
				<extensions>
				</extensions>
			</trkpt>
			<trkpt lat="-27.447751" lon="153.010090">
				<ele>22.010</ele>
				<time>2015-07-03T22:31:48Z</time>
				<extensions>
				</extensions>
			</trkpt>
			<trkpt lat="-27.448025" lon="153.010222">
				<ele>25.382</ele>
				<time>2015-07-03T22:31:50Z</time>
				<extensions>
				</extensions>
			</trkpt>
			<trkpt lat="-27.448311" lon="153.010338">
				<ele>26.673</ele>
				<time>2015-07-03T22:31:52Z</time>
				<extensions>
				</extensions>
			</trkpt>
			<trkpt lat="-27.448536" lon="153.010519">
				<ele>29.119</ele>
				<time>2015-07-03T22:31:54Z</time>
				<extensions>
				</extensions>
			</trkpt>
			<trkpt lat="-27.448728" lon="153.010707">
				<ele>31.145</ele>
				<time>2015-07-03T22:31:56Z</time>
				<extensions>
				</extensions>
			</trkpt>
			<trkpt lat="-27.448926" lon="153.010894">
				<ele>34.032</ele>
				<time>2015-07-03T22:31:58Z</time>
				<extensions>
				</extensions>
			</trkpt>
			<trkpt lat="-27.449198" lon="153.010960">
				<ele>36.966</ele>
				<time>2015-07-03T22:32:00Z</time>
				<extensions>
				</extensions>
			</trkpt>
			<trkpt lat="-27.449462" lon="153.011064">
				<ele>40.897</ele>
				<time>2015-07-03T22:32:02Z</time>
				<extensions>
				</extensions>
			</trkpt>
			<trkpt lat="-27.449705" lon="153.011189">
				<ele>41.582</ele>
				<time>2015-07-03T22:32:04Z</time>
				<extensions>
				</extensions>
			</trkpt>
			<trkpt lat="-27.449918" lon="153.011238">
				<ele>42.653</ele>
				<time>2015-07-03T22:32:06Z</time>
				<extensions>
				</extensions>
			</trkpt>
			<trkpt lat="-27.450200" lon="153.011119">
				<ele>43.326</ele>
				<time>2015-07-03T22:32:08Z</time>
				<extensions>
				</extensions>
			</trkpt>
			<trkpt lat="-27.450438" lon="153.011086">
				<ele>44.237</ele>
				<time>2015-07-03T22:32:10Z</time>
				<extensions>
				</extensions>
			</trkpt>
			<trkpt lat="-27.450686" lon="153.011046">
				<ele>46.181</ele>
				<time>2015-07-03T22:32:12Z</time>
				<extensions>
				</extensions>
			</trkpt>
			<trkpt lat="-27.450935" lon="153.011015">
				<ele>47.796</ele>
				<time>2015-07-03T22:32:14Z</time>
				<extensions>
				</extensions>
			</trkpt>
			<trkpt lat="-27.451181" lon="153.010984">
				<ele>48.676</ele>
				<time>2015-07-03T22:32:16Z</time>
				<extensions>
				</extensions>
			</trkpt>
			<trkpt lat="-27.451442" lon="153.010963">
				<ele>51.137</ele>
				<time>2015-07-03T22:32:18Z</time>
				<extensions>
				</extensions>
			</trkpt>
			<trkpt lat="-27.451712" lon="153.011002">
				<ele>50.012</ele>
				<time>2015-07-03T22:32:20Z</time>
				<extensions>
				</extensions>
			</trkpt>
			<trkpt lat="-27.451968" lon="153.011088">
				<ele>50.148</ele>
				<time>2015-07-03T22:32:22Z</time>
				<extensions>
				</extensions>
			</trkpt>
			<trkpt lat="-27.452235" lon="153.011178">
				<ele>48.831</ele>
				<time>2015-07-03T22:32:24Z</time>
				<extensions>
				</extensions>
			</trkpt>
			<trkpt lat="-27.452489" lon="153.011258">
				<ele>48.319</ele>
				<time>2015-07-03T22:32:26Z</time>
				<extensions>
				</extensions>
			</trkpt>
			<trkpt lat="-27.452721" lon="153.011354">
				<ele>47.933</ele>
				<time>2015-07-03T22:32:28Z</time>
				<extensions>
				</extensions>
			</trkpt>
			<trkpt lat="-27.452987" lon="153.011457">
				<ele>47.738</ele>
				<time>2015-07-03T22:32:30Z</time>
				<extensions>
				</extensions>
			</trkpt>
			<trkpt lat="-27.453255" lon="153.011590">
				<ele>45.191</ele>
				<time>2015-07-03T22:32:32Z</time>
				<extensions>
				</extensions>
			</trkpt>
			<trkpt lat="-27.453512" lon="153.011725">
				<ele>43.483</ele>
				<time>2015-07-03T22:32:34Z</time>
				<extensions>
				</extensions>
			</trkpt>
			<trkpt lat="-27.453763" lon="153.011848">
				<ele>41.772</ele>
				<time>2015-07-03T22:32:36Z</time>
				<extensions>
				</extensions>
			</trkpt>
			<trkpt lat="-27.454024" lon="153.011949">
				<ele>40.565</ele>
				<time>2015-07-03T22:32:38Z</time>
				<extensions>
				</extensions>
			</trkpt>
			<trkpt lat="-27.454267" lon="153.012039">
				<ele>40.178</ele>
				<time>2015-07-03T22:32:40Z</time>
				<extensions>
				</extensions>
			</trkpt>
			<trkpt lat="-27.454480" lon="153.012089">
				<ele>40.478</ele>
				<time>2015-07-03T22:32:42Z</time>
				<extensions>
				</extensions>
			</trkpt>
			<trkpt lat="-27.454687" lon="153.012169">
				<ele>39.791</ele>
				<time>2015-07-03T22:32:44Z</time>
				<extensions>
				</extensions>
			</trkpt>
			<trkpt lat="-27.454897" lon="153.012281">
				<ele>39.106</ele>
				<time>2015-07-03T22:32:47Z</time>
				<extensions>
				</extensions>
			</trkpt>
			<trkpt lat="-27.455086" lon="153.012374">
				<ele>39.168</ele>
				<time>2015-07-03T22:32:51Z</time>
				<extensions>
				</extensions>
			</trkpt>
			<trkpt lat="-27.455269" lon="153.012459">
				<ele>41.633</ele>
				<time>2015-07-03T22:32:56Z</time>
				<extensions>
				</extensions>
			</trkpt>
			<trkpt lat="-27.455436" lon="153.012554">
				<ele>44.274</ele>
				<time>2015-07-03T22:33:08Z</time>
				<extensions>
				</extensions>
			</trkpt>
			<trkpt lat="-27.455594" lon="153.012660">
				<ele>46.912</ele>
				<time>2015-07-03T22:33:12Z</time>
				<extensions>
				</extensions>
			</trkpt>
			<trkpt lat="-27.455854" lon="153.012774">
				<ele>48.901</ele>
				<time>2015-07-03T22:33:15Z</time>
				<extensions>
				</extensions>
			</trkpt>
			<trkpt lat="-27.456054" lon="153.012878">
				<ele>50.165</ele>
				<time>2015-07-03T22:33:17Z</time>
				<extensions>
				</extensions>
			</trkpt>
			<trkpt lat="-27.456270" lon="153.013003">
				<ele>51.399</ele>
				<time>2015-07-03T22:33:19Z</time>
				<extensions>
				</extensions>
			</trkpt>
			<trkpt lat="-27.456507" lon="153.013130">
				<ele>49.450</ele>
				<time>2015-07-03T22:33:21Z</time>
				<extensions>
				</extensions>
			</trkpt>
			<trkpt lat="-27.456751" lon="153.013265">
				<ele>47.029</ele>
				<time>2015-07-03T22:33:23Z</time>
				<extensions>
				</extensions>
			</trkpt>
			<trkpt lat="-27.456997" lon="153.013404">
				<ele>45.835</ele>
				<time>2015-07-03T22:33:25Z</time>
				<extensions>
				</extensions>
			</trkpt>
			<trkpt lat="-27.457251" lon="153.013547">
				<ele>43.479</ele>
				<time>2015-07-03T22:33:27Z</time>
				<extensions>
				</extensions>
			</trkpt>
			<trkpt lat="-27.457484" lon="153.013684">
				<ele>41.887</ele>
				<time>2015-07-03T22:33:29Z</time>
				<extensions>
				</extensions>
			</trkpt>
			<trkpt lat="-27.457717" lon="153.013805">
				<ele>39.241</ele>
				<time>2015-07-03T22:33:31Z</time>
				<extensions>
				</extensions>
			</trkpt>
			<trkpt lat="-27.457929" lon="153.013916">
				<ele>35.677</ele>
				<time>2015-07-03T22:33:34Z</time>
				<extensions>
				</extensions>
			</trkpt>
			<trkpt lat="-27.458090" lon="153.014022">
				<ele>33.849</ele>
				<time>2015-07-03T22:33:37Z</time>
				<extensions>
				</extensions>
			</trkpt>
			<trkpt lat="-27.458277" lon="153.014183">
				<ele>33.591</ele>
				<time>2015-07-03T22:33:58Z</time>
				<extensions>
				</extensions>
			</trkpt>
			<trkpt lat="-27.458460" lon="153.014292">
				<ele>34.271</ele>
				<time>2015-07-03T22:34:01Z</time>
				<extensions>
				</extensions>
			</trkpt>
			<trkpt lat="-27.458632" lon="153.014390">
				<ele>35.562</ele>
				<time>2015-07-03T22:34:03Z</time>
				<extensions>
				</extensions>
			</trkpt>
			<trkpt lat="-27.458813" lon="153.014502">
				<ele>35.272</ele>
				<time>2015-07-03T22:34:05Z</time>
				<extensions>
				</extensions>
			</trkpt>
			<trkpt lat="-27.458973" lon="153.014599">
				<ele>36.096</ele>
				<time>2015-07-03T22:34:07Z</time>
				<extensions>
				</extensions>
			</trkpt>
			<trkpt lat="-27.459189" lon="153.014660">
				<ele>37.907</ele>
				<time>2015-07-03T22:34:09Z</time>
				<extensions>
				</extensions>
			</trkpt>
			<trkpt lat="-27.459466" lon="153.014676">
				<ele>36.752</ele>
				<time>2015-07-03T22:34:11Z</time>
				<extensions>
				</extensions>
			</trkpt>
			<trkpt lat="-27.459723" lon="153.014674">
				<ele>35.251</ele>
				<time>2015-07-03T22:34:13Z</time>
				<extensions>
				</extensions>
			</trkpt>
			<trkpt lat="-27.459961" lon="153.014657">
				<ele>33.160</ele>
				<time>2015-07-03T22:34:15Z</time>
				<extensions>
				</extensions>
			</trkpt>
			<trkpt lat="-27.460199" lon="153.014686">
				<ele>34.090</ele>
				<time>2015-07-03T22:34:17Z</time>
				<extensions>
				</extensions>
			</trkpt>
			<trkpt lat="-27.460428" lon="153.014672">
				<ele>34.333</ele>
				<time>2015-07-03T22:34:19Z</time>
				<extensions>
				</extensions>
			</trkpt>
			<trkpt lat="-27.460674" lon="153.014695">
				<ele>35.268</ele>
				<time>2015-07-03T22:34:21Z</time>
				<extensions>
				</extensions>
			</trkpt>
			<trkpt lat="-27.460932" lon="153.014760">
				<ele>35.284</ele>
				<time>2015-07-03T22:34:23Z</time>
				<extensions>
				</extensions>
			</trkpt>
			<trkpt lat="-27.461201" lon="153.014827">
				<ele>34.160</ele>
				<time>2015-07-03T22:34:25Z</time>
				<extensions>
				</extensions>
			</trkpt>
			<trkpt lat="-27.461498" lon="153.014925">
				<ele>33.940</ele>
				<time>2015-07-03T22:34:27Z</time>
				<extensions>
				</extensions>
			</trkpt>
			<trkpt lat="-27.461785" lon="153.015023">
				<ele>33.390</ele>
				<time>2015-07-03T22:34:29Z</time>
				<extensions>
				</extensions>
			</trkpt>
			<trkpt lat="-27.462061" lon="153.015114">
				<ele>31.765</ele>
				<time>2015-07-03T22:34:31Z</time>
				<extensions>
				</extensions>
			</trkpt>
			<trkpt lat="-27.462325" lon="153.015191">
				<ele>29.887</ele>
				<time>2015-07-03T22:34:33Z</time>
				<extensions>
				</extensions>
			</trkpt>
			<trkpt lat="-27.462575" lon="153.015251">
				<ele>28.075</ele>
				<time>2015-07-03T22:34:35Z</time>
				<extensions>
				</extensions>
			</trkpt>
			<trkpt lat="-27.462770" lon="153.015282">
				<ele>25.674</ele>
				<time>2015-07-03T22:34:37Z</time>
				<extensions>
				</extensions>
			</trkpt>
			<trkpt lat="-27.462985" lon="153.015346">
				<ele>22.319</ele>
				<time>2015-07-03T22:34:40Z</time>
				<extensions>
				</extensions>
			</trkpt>
			<trkpt lat="-27.463172" lon="153.015371">
				<ele>20.445</ele>
				<time>2015-07-03T22:34:45Z</time>
				<extensions>
				</extensions>
			</trkpt>
			<trkpt lat="-27.463405" lon="153.015450">
				<ele>22.106</ele>
				<time>2015-07-03T22:35:09Z</time>
				<extensions>
				</extensions>
			</trkpt>
			<trkpt lat="-27.463631" lon="153.015470">
				<ele>21.368</ele>
				<time>2015-07-03T22:35:12Z</time>
				<extensions>
				</extensions>
			</trkpt>
			<trkpt lat="-27.463820" lon="153.015468">
				<ele>21.488</ele>
				<time>2015-07-03T22:35:14Z</time>
				<extensions>
				</extensions>
			</trkpt>
			<trkpt lat="-27.464012" lon="153.015578">
				<ele>22.971</ele>
				<time>2015-07-03T22:35:17Z</time>
				<extensions>
				</extensions>
			</trkpt>
			<trkpt lat="-27.464267" lon="153.015634">
				<ele>20.934</ele>
				<time>2015-07-03T22:35:20Z</time>
				<extensions>
				</extensions>
			</trkpt>
			<trkpt lat="-27.464455" lon="153.015679">
				<ele>20.618</ele>
				<time>2015-07-03T22:35:22Z</time>
				<extensions>
				</extensions>
			</trkpt>
			<trkpt lat="-27.464769" lon="153.015741">
				<ele>18.347</ele>
				<time>2015-07-03T22:35:24Z</time>
				<extensions>
				</extensions>
			</trkpt>
			<trkpt lat="-27.465026" lon="153.015787">
				<ele>17.105</ele>
				<time>2015-07-03T22:35:26Z</time>
				<extensions>
				</extensions>
			</trkpt>
			<trkpt lat="-27.465301" lon="153.015857">
				<ele>16.841</ele>
				<time>2015-07-03T22:35:28Z</time>
				<extensions>
				</extensions>
			</trkpt>
			<trkpt lat="-27.465535" lon="153.015916">
				<ele>15.332</ele>
				<time>2015-07-03T22:35:30Z</time>
				<extensions>
				</extensions>
			</trkpt>
			<trkpt lat="-27.465723" lon="153.015959">
				<ele>15.782</ele>
				<time>2015-07-03T22:35:32Z</time>
				<extensions>
				</extensions>
			</trkpt>
			<trkpt lat="-27.465933" lon="153.016029">
				<ele>15.048</ele>
				<time>2015-07-03T22:35:34Z</time>
				<extensions>
				</extensions>
			</trkpt>
			<trkpt lat="-27.466141" lon="153.016032">
				<ele>15.069</ele>
				<time>2015-07-03T22:35:36Z</time>
				<extensions>
				</extensions>
			</trkpt>
			<trkpt lat="-27.466343" lon="153.015967">
				<ele>15.158</ele>
				<time>2015-07-03T22:35:38Z</time>
				<extensions>
				</extensions>
			</trkpt>
			<trkpt lat="-27.466532" lon="153.015781">
				<ele>15.591</ele>
				<time>2015-07-03T22:35:41Z</time>
				<extensions>
				</extensions>
			</trkpt>
			<trkpt lat="-27.466694" lon="153.015533">
				<ele>15.229</ele>
				<time>2015-07-03T22:35:44Z</time>
				<extensions>
				</extensions>
			</trkpt>
			<trkpt lat="-27.467004" lon="153.015410">
				<ele>16.129</ele>
				<time>2015-07-03T22:35:49Z</time>
				<extensions>
				</extensions>
			</trkpt>
			<trkpt lat="-27.467144" lon="153.015617">
				<ele>17.306</ele>
				<time>2015-07-03T22:35:53Z</time>
				<extensions>
				</extensions>
			</trkpt>
			<trkpt lat="-27.467216" lon="153.016050">
				<ele>17.542</ele>
				<time>2015-07-03T22:35:56Z</time>
				<extensions>
				</extensions>
			</trkpt>
			<trkpt lat="-27.467275" lon="153.016348">
				<ele>19.124</ele>
				<time>2015-07-03T22:35:58Z</time>
				<extensions>
				</extensions>
			</trkpt>
			<trkpt lat="-27.467303" lon="153.016609">
				<ele>39.701</ele>
				<time>2015-07-03T22:36:00Z</time>
				<extensions>
				</extensions>
			</trkpt>
			<trkpt lat="-27.467332" lon="153.016902">
				<ele>40.585</ele>
				<time>2015-07-03T22:36:02Z</time>
				<extensions>
				</extensions>
			</trkpt>
			<trkpt lat="-27.467340" lon="153.017204">
				<ele>37.504</ele>
				<time>2015-07-03T22:36:04Z</time>
				<extensions>
				</extensions>
			</trkpt>
			<trkpt lat="-27.467332" lon="153.017520">
				<ele>34.813</ele>
				<time>2015-07-03T22:36:06Z</time>
				<extensions>
				</extensions>
			</trkpt>
			<trkpt lat="-27.467430" lon="153.017702">
				<ele>19.813</ele>
				<time>2015-07-03T22:36:09Z</time>
				<extensions>
				</extensions>
			</trkpt>
			<trkpt lat="-27.467595" lon="153.017752">
				<ele>15.071</ele>
				<time>2015-07-03T22:36:11Z</time>
				<extensions>
				</extensions>
			</trkpt>
			<trkpt lat="-27.467758" lon="153.017931">
				<ele>19.370</ele>
				<time>2015-07-03T22:36:14Z</time>
				<extensions>
				</extensions>
			</trkpt>
			<trkpt lat="-27.467908" lon="153.018065">
				<ele>17.186</ele>
				<time>2015-07-03T22:36:17Z</time>
				<extensions>
				</extensions>
			</trkpt>
			<trkpt lat="-27.468084" lon="153.018252">
				<ele>16.868</ele>
				<time>2015-07-03T22:36:20Z</time>
				<extensions>
				</extensions>
			</trkpt>
			<trkpt lat="-27.468252" lon="153.018388">
				<ele>14.574</ele>
				<time>2015-07-03T22:36:24Z</time>
				<extensions>
				</extensions>
			</trkpt>
			<trkpt lat="-27.468391" lon="153.018593">
				<ele>18.744</ele>
				<time>2015-07-03T22:36:55Z</time>
				<extensions>
				</extensions>
			</trkpt>
			<trkpt lat="-27.468570" lon="153.018755">
				<ele>19.892</ele>
				<time>2015-07-03T22:36:57Z</time>
				<extensions>
				</extensions>
			</trkpt>
			<trkpt lat="-27.468744" lon="153.018950">
				<ele>19.549</ele>
				<time>2015-07-03T22:36:59Z</time>
				<extensions>
				</extensions>
			</trkpt>
			<trkpt lat="-27.468929" lon="153.019118">
				<ele>17.867</ele>
				<time>2015-07-03T22:37:01Z</time>
				<extensions>
				</extensions>
			</trkpt>
			<trkpt lat="-27.469179" lon="153.019351">
				<ele>19.330</ele>
				<time>2015-07-03T22:37:03Z</time>
				<extensions>
				</extensions>
			</trkpt>
			<trkpt lat="-27.469311" lon="153.019491">
				<ele>19.179</ele>
				<time>2015-07-03T22:37:04Z</time>
				<extensions>
				</extensions>
			</trkpt>
			<trkpt lat="-27.469414" lon="153.019657">
				<ele>19.784</ele>
				<time>2015-07-03T22:37:05Z</time>
				<extensions>
				</extensions>
			</trkpt>
			<trkpt lat="-27.469636" lon="153.019953">
				<ele>18.737</ele>
				<time>2015-07-03T22:37:07Z</time>
				<extensions>
				</extensions>
			</trkpt>
			<trkpt lat="-27.469836" lon="153.020232">
				<ele>16.445</ele>
				<time>2015-07-03T22:37:09Z</time>
				<extensions>
				</extensions>
			</trkpt>
			<trkpt lat="-27.470042" lon="153.020510">
				<ele>16.252</ele>
				<time>2015-07-03T22:37:11Z</time>
				<extensions>
				</extensions>
			</trkpt>
			<trkpt lat="-27.470272" lon="153.020789">
				<ele>15.736</ele>
				<time>2015-07-03T22:37:13Z</time>
				<extensions>
				</extensions>
			</trkpt>
			<trkpt lat="-27.470485" lon="153.021064">
				<ele>14.017</ele>
				<time>2015-07-03T22:37:15Z</time>
				<extensions>
				</extensions>
			</trkpt>
			<trkpt lat="-27.470707" lon="153.021320">
				<ele>13.877</ele>
				<time>2015-07-03T22:37:17Z</time>
				<extensions>
				</extensions>
			</trkpt>
			<trkpt lat="-27.470944" lon="153.021587">
				<ele>14.460</ele>
				<time>2015-07-03T22:37:19Z</time>
				<extensions>
				</extensions>
			</trkpt>
			<trkpt lat="-27.471178" lon="153.021831">
				<ele>12.639</ele>
				<time>2015-07-03T22:37:21Z</time>
				<extensions>
				</extensions>
			</trkpt>
			<trkpt lat="-27.471425" lon="153.022070">
				<ele>12.266</ele>
				<time>2015-07-03T22:37:23Z</time>
				<extensions>
				</extensions>
			</trkpt>
			<trkpt lat="-27.471682" lon="153.022310">
				<ele>11.034</ele>
				<time>2015-07-03T22:37:25Z</time>
				<extensions>
				</extensions>
			</trkpt>
			<trkpt lat="-27.471930" lon="153.022519">
				<ele>12.405</ele>
				<time>2015-07-03T22:37:27Z</time>
				<extensions>
				</extensions>
			</trkpt>
			<trkpt lat="-27.472203" lon="153.022733">
				<ele>11.148</ele>
				<time>2015-07-03T22:37:29Z</time>
				<extensions>
				</extensions>
			</trkpt>
			<trkpt lat="-27.472459" lon="153.022946">
				<ele>11.650</ele>
				<time>2015-07-03T22:37:31Z</time>
				<extensions>
				</extensions>
			</trkpt>
			<trkpt lat="-27.472725" lon="153.023153">
				<ele>12.225</ele>
				<time>2015-07-03T22:37:33Z</time>
				<extensions>
				</extensions>
			</trkpt>
			<trkpt lat="-27.472992" lon="153.023357">
				<ele>12.228</ele>
				<time>2015-07-03T22:37:35Z</time>
				<extensions>
				</extensions>
			</trkpt>
			<trkpt lat="-27.473248" lon="153.023562">
				<ele>11.587</ele>
				<time>2015-07-03T22:37:37Z</time>
				<extensions>
				</extensions>
			</trkpt>
			<trkpt lat="-27.473495" lon="153.023749">
				<ele>11.922</ele>
				<time>2015-07-03T22:37:39Z</time>
				<extensions>
				</extensions>
			</trkpt>
			<trkpt lat="-27.473749" lon="153.023959">
				<ele>12.999</ele>
				<time>2015-07-03T22:37:41Z</time>
				<extensions>
				</extensions>
			</trkpt>
			<trkpt lat="-27.474012" lon="153.024157">
				<ele>14.553</ele>
				<time>2015-07-03T22:37:43Z</time>
				<extensions>
				</extensions>
			</trkpt>
			<trkpt lat="-27.474262" lon="153.024373">
				<ele>16.391</ele>
				<time>2015-07-03T22:37:45Z</time>
				<extensions>
				</extensions>
			</trkpt>
			<trkpt lat="-27.474444" lon="153.024517">
				<ele>15.701</ele>
				<time>2015-07-03T22:37:46Z</time>
				<extensions>
				</extensions>
			</trkpt>
			<trkpt lat="-27.474708" lon="153.024723">
				<ele>-5.433</ele>
				<time>2015-07-03T22:37:48Z</time>
				<extensions>
				</extensions>
			</trkpt>
			<trkpt lat="-27.474998" lon="153.024941">
				<ele>-4.323</ele>
				<time>2015-07-03T22:37:50Z</time>
				<extensions>
				</extensions>
			</trkpt>
			<trkpt lat="-27.475291" lon="153.025155">
				<ele>-1.616</ele>
				<time>2015-07-03T22:37:52Z</time>
				<extensions>
				</extensions>
			</trkpt>
			<trkpt lat="-27.475579" lon="153.025379">
				<ele>-2.004</ele>
				<time>2015-07-03T22:37:54Z</time>
				<extensions>
				</extensions>
			</trkpt>
			<trkpt lat="-27.475882" lon="153.025599">
				<ele>-3.212</ele>
				<time>2015-07-03T22:37:56Z</time>
				<extensions>
				</extensions>
			</trkpt>
			<trkpt lat="-27.476044" lon="153.025701">
				<ele>-3.104</ele>
				<time>2015-07-03T22:37:57Z</time>
				<extensions>
				</extensions>
			</trkpt>
			<trkpt lat="-27.476209" lon="153.025808">
				<ele>-3.327</ele>
				<time>2015-07-03T22:37:58Z</time>
				<extensions>
				</extensions>
			</trkpt>
			<trkpt lat="-27.476390" lon="153.025955">
				<ele>-2.769</ele>
				<time>2015-07-03T22:37:59Z</time>
				<extensions>
				</extensions>
			</trkpt>
			<trkpt lat="-27.476559" lon="153.026080">
				<ele>-2.427</ele>
				<time>2015-07-03T22:38:00Z</time>
				<extensions>
				</extensions>
			</trkpt>
			<trkpt lat="-27.476734" lon="153.026197">
				<ele>-2.100</ele>
				<time>2015-07-03T22:38:01Z</time>
				<extensions>
				</extensions>
			</trkpt>
			<trkpt lat="-27.476917" lon="153.026312">
				<ele>-2.028</ele>
				<time>2015-07-03T22:38:02Z</time>
				<extensions>
				</extensions>
			</trkpt>
			<trkpt lat="-27.477093" lon="153.026429">
				<ele>9.360</ele>
				<time>2015-07-03T22:38:03Z</time>
				<extensions>
				</extensions>
			</trkpt>
			<trkpt lat="-27.477263" lon="153.026543">
				<ele>9.019</ele>
				<time>2015-07-03T22:38:04Z</time>
				<extensions>
				</extensions>
			</trkpt>
			<trkpt lat="-27.477432" lon="153.026664">
				<ele>9.932</ele>
				<time>2015-07-03T22:38:05Z</time>
				<extensions>
				</extensions>
			</trkpt>
			<trkpt lat="-27.477588" lon="153.026782">
				<ele>8.801</ele>
				<time>2015-07-03T22:38:06Z</time>
				<extensions>
				</extensions>
			</trkpt>
			<trkpt lat="-27.477745" lon="153.026905">
				<ele>7.680</ele>
				<time>2015-07-03T22:38:07Z</time>
				<extensions>
				</extensions>
			</trkpt>
			<trkpt lat="-27.477915" lon="153.027030">
				<ele>7.798</ele>
				<time>2015-07-03T22:38:08Z</time>
				<extensions>
				</extensions>
			</trkpt>
			<trkpt lat="-27.478080" lon="153.027151">
				<ele>8.438</ele>
				<time>2015-07-03T22:38:09Z</time>
				<extensions>
				</extensions>
			</trkpt>
			<trkpt lat="-27.478237" lon="153.027274">
				<ele>7.856</ele>
				<time>2015-07-03T22:38:10Z</time>
				<extensions>
				</extensions>
			</trkpt>
			<trkpt lat="-27.478397" lon="153.027422">
				<ele>6.977</ele>
				<time>2015-07-03T22:38:11Z</time>
				<extensions>
				</extensions>
			</trkpt>
			<trkpt lat="-27.478674" lon="153.027673">
				<ele>7.149</ele>
				<time>2015-07-03T22:38:13Z</time>
				<extensions>
				</extensions>
			</trkpt>
			<trkpt lat="-27.478953" lon="153.027888">
				<ele>10.253</ele>
				<time>2015-07-03T22:38:15Z</time>
				<extensions>
				</extensions>
			</trkpt>
			<trkpt lat="-27.479252" lon="153.028121">
				<ele>12.336</ele>
				<time>2015-07-03T22:38:17Z</time>
				<extensions>
				</extensions>
			</trkpt>
			<trkpt lat="-27.479536" lon="153.028339">
				<ele>9.631</ele>
				<time>2015-07-03T22:38:19Z</time>
				<extensions>
				</extensions>
			</trkpt>
			<trkpt lat="-27.479820" lon="153.028551">
				<ele>10.967</ele>
				<time>2015-07-03T22:38:21Z</time>
				<extensions>
				</extensions>
			</trkpt>
			<trkpt lat="-27.479969" lon="153.028667">
				<ele>11.913</ele>
				<time>2015-07-03T22:38:22Z</time>
				<extensions>
				</extensions>
			</trkpt>
			<trkpt lat="-27.480131" lon="153.028791">
				<ele>13.832</ele>
				<time>2015-07-03T22:38:23Z</time>
				<extensions>
				</extensions>
			</trkpt>
			<trkpt lat="-27.480290" lon="153.028920">
				<ele>15.065</ele>
				<time>2015-07-03T22:38:24Z</time>
				<extensions>
				</extensions>
			</trkpt>
			<trkpt lat="-27.480445" lon="153.029052">
				<ele>15.919</ele>
				<time>2015-07-03T22:38:25Z</time>
				<extensions>
				</extensions>
			</trkpt>
			<trkpt lat="-27.480603" lon="153.029189">
				<ele>14.880</ele>
				<time>2015-07-03T22:38:26Z</time>
				<extensions>
				</extensions>
			</trkpt>
			<trkpt lat="-27.480761" lon="153.029315">
				<ele>15.068</ele>
				<time>2015-07-03T22:38:27Z</time>
				<extensions>
				</extensions>
			</trkpt>
			<trkpt lat="-27.480920" lon="153.029438">
				<ele>15.539</ele>
				<time>2015-07-03T22:38:28Z</time>
				<extensions>
				</extensions>
			</trkpt>
			<trkpt lat="-27.481092" lon="153.029562">
				<ele>15.652</ele>
				<time>2015-07-03T22:38:29Z</time>
				<extensions>
				</extensions>
			</trkpt>
			<trkpt lat="-27.481266" lon="153.029673">
				<ele>15.583</ele>
				<time>2015-07-03T22:38:30Z</time>
				<extensions>
				</extensions>
			</trkpt>
			<trkpt lat="-27.481449" lon="153.029791">
				<ele>16.257</ele>
				<time>2015-07-03T22:38:31Z</time>
				<extensions>
				</extensions>
			</trkpt>
			<trkpt lat="-27.481628" lon="153.029907">
				<ele>16.380</ele>
				<time>2015-07-03T22:38:32Z</time>
				<extensions>
				</extensions>
			</trkpt>
			<trkpt lat="-27.481808" lon="153.030024">
				<ele>17.095</ele>
				<time>2015-07-03T22:38:33Z</time>
				<extensions>
				</extensions>
			</trkpt>
			<trkpt lat="-27.481999" lon="153.030153">
				<ele>15.795</ele>
				<time>2015-07-03T22:38:34Z</time>
				<extensions>
				</extensions>
			</trkpt>
			<trkpt lat="-27.482158" lon="153.030305">
				<ele>15.000</ele>
				<time>2015-07-03T22:38:35Z</time>
				<extensions>
				</extensions>
			</trkpt>
			<trkpt lat="-27.482317" lon="153.030457">
				<ele>15.734</ele>
				<time>2015-07-03T22:38:36Z</time>
				<extensions>
				</extensions>
			</trkpt>
			<trkpt lat="-27.482489" lon="153.030609">
				<ele>14.625</ele>
				<time>2015-07-03T22:38:37Z</time>
				<extensions>
				</extensions>
			</trkpt>
			<trkpt lat="-27.482662" lon="153.030747">
				<ele>14.527</ele>
				<time>2015-07-03T22:38:38Z</time>
				<extensions>
				</extensions>
			</trkpt>
			<trkpt lat="-27.482847" lon="153.030884">
				<ele>14.371</ele>
				<time>2015-07-03T22:38:39Z</time>
				<extensions>
				</extensions>
			</trkpt>
			<trkpt lat="-27.483023" lon="153.030994">
				<ele>15.935</ele>
				<time>2015-07-03T22:38:40Z</time>
				<extensions>
				</extensions>
			</trkpt>
			<trkpt lat="-27.483214" lon="153.031098">
				<ele>15.985</ele>
				<time>2015-07-03T22:38:41Z</time>
				<extensions>
				</extensions>
			</trkpt>
			<trkpt lat="-27.483398" lon="153.031188">
				<ele>15.985</ele>
				<time>2015-07-03T22:38:42Z</time>
				<extensions>
				</extensions>
			</trkpt>
			<trkpt lat="-27.483594" lon="153.031278">
				<ele>15.431</ele>
				<time>2015-07-03T22:38:43Z</time>
				<extensions>
				</extensions>
			</trkpt>
			<trkpt lat="-27.483802" lon="153.031348">
				<ele>15.041</ele>
				<time>2015-07-03T22:38:44Z</time>
				<extensions>
				</extensions>
			</trkpt>
			<trkpt lat="-27.484011" lon="153.031416">
				<ele>14.906</ele>
				<time>2015-07-03T22:38:45Z</time>
				<extensions>
				</extensions>
			</trkpt>
			<trkpt lat="-27.484215" lon="153.031482">
				<ele>15.859</ele>
				<time>2015-07-03T22:38:46Z</time>
				<extensions>
				</extensions>
			</trkpt>
			<trkpt lat="-27.484420" lon="153.031543">
				<ele>15.885</ele>
				<time>2015-07-03T22:38:47Z</time>
				<extensions>
				</extensions>
			</trkpt>
			<trkpt lat="-27.484615" lon="153.031606">
				<ele>14.957</ele>
				<time>2015-07-03T22:38:48Z</time>
				<extensions>
				</extensions>
			</trkpt>
			<trkpt lat="-27.484803" lon="153.031662">
				<ele>14.803</ele>
				<time>2015-07-03T22:38:49Z</time>
				<extensions>
				</extensions>
			</trkpt>
			<trkpt lat="-27.484980" lon="153.031723">
				<ele>14.143</ele>
				<time>2015-07-03T22:38:50Z</time>
				<extensions>
				</extensions>
			</trkpt>
			<trkpt lat="-27.485161" lon="153.031784">
				<ele>14.807</ele>
				<time>2015-07-03T22:38:51Z</time>
				<extensions>
				</extensions>
			</trkpt>
			<trkpt lat="-27.485352" lon="153.031839">
				<ele>15.200</ele>
				<time>2015-07-03T22:38:52Z</time>
				<extensions>
				</extensions>
			</trkpt>
			<trkpt lat="-27.485546" lon="153.031897">
				<ele>16.371</ele>
				<time>2015-07-03T22:38:53Z</time>
				<extensions>
				</extensions>
			</trkpt>
			<trkpt lat="-27.485741" lon="153.031960">
				<ele>18.037</ele>
				<time>2015-07-03T22:38:54Z</time>
				<extensions>
				</extensions>
			</trkpt>
			<trkpt lat="-27.485935" lon="153.032014">
				<ele>18.931</ele>
				<time>2015-07-03T22:38:55Z</time>
				<extensions>
				</extensions>
			</trkpt>
			<trkpt lat="-27.486134" lon="153.032073">
				<ele>18.737</ele>
				<time>2015-07-03T22:38:56Z</time>
				<extensions>
				</extensions>
			</trkpt>
			<trkpt lat="-27.486342" lon="153.032141">
				<ele>19.913</ele>
				<time>2015-07-03T22:38:57Z</time>
				<extensions>
				</extensions>
			</trkpt>
			<trkpt lat="-27.486550" lon="153.032201">
				<ele>19.685</ele>
				<time>2015-07-03T22:38:58Z</time>
				<extensions>
				</extensions>
			</trkpt>
			<trkpt lat="-27.486763" lon="153.032271">
				<ele>19.703</ele>
				<time>2015-07-03T22:38:59Z</time>
				<extensions>
				</extensions>
			</trkpt>
			<trkpt lat="-27.486973" lon="153.032337">
				<ele>21.292</ele>
				<time>2015-07-03T22:39:00Z</time>
				<extensions>
				</extensions>
			</trkpt>
			<trkpt lat="-27.487187" lon="153.032402">
				<ele>20.832</ele>
				<time>2015-07-03T22:39:01Z</time>
				<extensions>
				</extensions>
			</trkpt>
			<trkpt lat="-27.487399" lon="153.032468">
				<ele>21.641</ele>
				<time>2015-07-03T22:39:02Z</time>
				<extensions>
				</extensions>
			</trkpt>
			<trkpt lat="-27.487605" lon="153.032538">
				<ele>21.216</ele>
				<time>2015-07-03T22:39:03Z</time>
				<extensions>
				</extensions>
			</trkpt>
			<trkpt lat="-27.487812" lon="153.032601">
				<ele>22.666</ele>
				<time>2015-07-03T22:39:04Z</time>
				<extensions>
				</extensions>
			</trkpt>
			<trkpt lat="-27.488016" lon="153.032672">
				<ele>21.013</ele>
				<time>2015-07-03T22:39:05Z</time>
				<extensions>
				</extensions>
			</trkpt>
			<trkpt lat="-27.488219" lon="153.032738">
				<ele>19.610</ele>
				<time>2015-07-03T22:39:06Z</time>
				<extensions>
				</extensions>
			</trkpt>
			<trkpt lat="-27.488424" lon="153.032802">
				<ele>19.951</ele>
				<time>2015-07-03T22:39:07Z</time>
				<extensions>
				</extensions>
			</trkpt>
			<trkpt lat="-27.488634" lon="153.032870">
				<ele>20.857</ele>
				<time>2015-07-03T22:39:08Z</time>
				<extensions>
				</extensions>
			</trkpt>
			<trkpt lat="-27.488836" lon="153.032931">
				<ele>22.066</ele>
				<time>2015-07-03T22:39:09Z</time>
				<extensions>
				</extensions>
			</trkpt>
			<trkpt lat="-27.489049" lon="153.032995">
				<ele>23.543</ele>
				<time>2015-07-03T22:39:10Z</time>
				<extensions>
				</extensions>
			</trkpt>
			<trkpt lat="-27.489251" lon="153.033053">
				<ele>23.311</ele>
				<time>2015-07-03T22:39:11Z</time>
				<extensions>
				</extensions>
			</trkpt>
			<trkpt lat="-27.489455" lon="153.033117">
				<ele>21.007</ele>
				<time>2015-07-03T22:39:12Z</time>
				<extensions>
				</extensions>
			</trkpt>
			<trkpt lat="-27.489665" lon="153.033176">
				<ele>20.507</ele>
				<time>2015-07-03T22:39:13Z</time>
				<extensions>
				</extensions>
			</trkpt>
			<trkpt lat="-27.489868" lon="153.033235">
				<ele>19.536</ele>
				<time>2015-07-03T22:39:14Z</time>
				<extensions>
				</extensions>
			</trkpt>
			<trkpt lat="-27.490081" lon="153.033288">
				<ele>18.514</ele>
				<time>2015-07-03T22:39:15Z</time>
				<extensions>
				</extensions>
			</trkpt>
			<trkpt lat="-27.490279" lon="153.033360">
				<ele>19.697</ele>
				<time>2015-07-03T22:39:16Z</time>
				<extensions>
				</extensions>
			</trkpt>
			<trkpt lat="-27.490474" lon="153.033421">
				<ele>17.061</ele>
				<time>2015-07-03T22:39:17Z</time>
				<extensions>
				</extensions>
			</trkpt>
			<trkpt lat="-27.490671" lon="153.033484">
				<ele>17.105</ele>
				<time>2015-07-03T22:39:18Z</time>
				<extensions>
				</extensions>
			</trkpt>
			<trkpt lat="-27.490866" lon="153.033561">
				<ele>15.818</ele>
				<time>2015-07-03T22:39:19Z</time>
				<extensions>
				</extensions>
			</trkpt>
			<trkpt lat="-27.491062" lon="153.033641">
				<ele>15.802</ele>
				<time>2015-07-03T22:39:20Z</time>
				<extensions>
				</extensions>
			</trkpt>
			<trkpt lat="-27.491244" lon="153.033728">
				<ele>15.890</ele>
				<time>2015-07-03T22:39:21Z</time>
				<extensions>
				</extensions>
			</trkpt>
			<trkpt lat="-27.491423" lon="153.033821">
				<ele>15.322</ele>
				<time>2015-07-03T22:39:22Z</time>
				<extensions>
				</extensions>
			</trkpt>
			<trkpt lat="-27.491604" lon="153.033939">
				<ele>15.702</ele>
				<time>2015-07-03T22:39:23Z</time>
				<extensions>
				</extensions>
			</trkpt>
			<trkpt lat="-27.491775" lon="153.034064">
				<ele>15.049</ele>
				<time>2015-07-03T22:39:24Z</time>
				<extensions>
				</extensions>
			</trkpt>
			<trkpt lat="-27.491934" lon="153.034205">
				<ele>14.036</ele>
				<time>2015-07-03T22:39:25Z</time>
				<extensions>
				</extensions>
			</trkpt>
			<trkpt lat="-27.492085" lon="153.034353">
				<ele>13.883</ele>
				<time>2015-07-03T22:39:26Z</time>
				<extensions>
				</extensions>
			</trkpt>
			<trkpt lat="-27.492237" lon="153.034524">
				<ele>13.649</ele>
				<time>2015-07-03T22:39:27Z</time>
				<extensions>
				</extensions>
			</trkpt>
			<trkpt lat="-27.492374" lon="153.034702">
				<ele>12.822</ele>
				<time>2015-07-03T22:39:28Z</time>
				<extensions>
				</extensions>
			</trkpt>
			<trkpt lat="-27.492506" lon="153.034878">
				<ele>11.966</ele>
				<time>2015-07-03T22:39:29Z</time>
				<extensions>
				</extensions>
			</trkpt>
			<trkpt lat="-27.492640" lon="153.035070">
				<ele>11.892</ele>
				<time>2015-07-03T22:39:30Z</time>
				<extensions>
				</extensions>
			</trkpt>
			<trkpt lat="-27.492780" lon="153.035256">
				<ele>12.826</ele>
				<time>2015-07-03T22:39:31Z</time>
				<extensions>
				</extensions>
			</trkpt>
			<trkpt lat="-27.492922" lon="153.035443">
				<ele>12.134</ele>
				<time>2015-07-03T22:39:32Z</time>
				<extensions>
				</extensions>
			</trkpt>
			<trkpt lat="-27.493069" lon="153.035633">
				<ele>11.465</ele>
				<time>2015-07-03T22:39:33Z</time>
				<extensions>
				</extensions>
			</trkpt>
			<trkpt lat="-27.493214" lon="153.035824">
				<ele>11.413</ele>
				<time>2015-07-03T22:39:34Z</time>
				<extensions>
				</extensions>
			</trkpt>
			<trkpt lat="-27.493375" lon="153.035999">
				<ele>10.578</ele>
				<time>2015-07-03T22:39:35Z</time>
				<extensions>
				</extensions>
			</trkpt>
			<trkpt lat="-27.493553" lon="153.036185">
				<ele>11.429</ele>
				<time>2015-07-03T22:39:36Z</time>
				<extensions>
				</extensions>
			</trkpt>
			<trkpt lat="-27.493730" lon="153.036360">
				<ele>12.328</ele>
				<time>2015-07-03T22:39:37Z</time>
				<extensions>
				</extensions>
			</trkpt>
			<trkpt lat="-27.493919" lon="153.036524">
				<ele>11.340</ele>
				<time>2015-07-03T22:39:38Z</time>
				<extensions>
				</extensions>
			</trkpt>
			<trkpt lat="-27.494103" lon="153.036682">
				<ele>12.034</ele>
				<time>2015-07-03T22:39:39Z</time>
				<extensions>
				</extensions>
			</trkpt>
			<trkpt lat="-27.494292" lon="153.036835">
				<ele>12.307</ele>
				<time>2015-07-03T22:39:40Z</time>
				<extensions>
				</extensions>
			</trkpt>
			<trkpt lat="-27.494482" lon="153.036976">
				<ele>12.612</ele>
				<time>2015-07-03T22:39:41Z</time>
				<extensions>
				</extensions>
			</trkpt>
			<trkpt lat="-27.494674" lon="153.037119">
				<ele>13.900</ele>
				<time>2015-07-03T22:39:42Z</time>
				<extensions>
				</extensions>
			</trkpt>
			<trkpt lat="-27.494867" lon="153.037261">
				<ele>13.822</ele>
				<time>2015-07-03T22:39:43Z</time>
				<extensions>
				</extensions>
			</trkpt>
			<trkpt lat="-27.495053" lon="153.037400">
				<ele>15.292</ele>
				<time>2015-07-03T22:39:44Z</time>
				<extensions>
				</extensions>
			</trkpt>
			<trkpt lat="-27.495240" lon="153.037538">
				<ele>16.018</ele>
				<time>2015-07-03T22:39:45Z</time>
				<extensions>
				</extensions>
			</trkpt>
			<trkpt lat="-27.495421" lon="153.037671">
				<ele>16.314</ele>
				<time>2015-07-03T22:39:46Z</time>
				<extensions>
				</extensions>
			</trkpt>
			<trkpt lat="-27.495607" lon="153.037808">
				<ele>17.155</ele>
				<time>2015-07-03T22:39:47Z</time>
				<extensions>
				</extensions>
			</trkpt>
			<trkpt lat="-27.495800" lon="153.037947">
				<ele>17.822</ele>
				<time>2015-07-03T22:39:48Z</time>
				<extensions>
				</extensions>
			</trkpt>
			<trkpt lat="-27.495981" lon="153.038072">
				<ele>19.820</ele>
				<time>2015-07-03T22:39:49Z</time>
				<extensions>
				</extensions>
			</trkpt>
			<trkpt lat="-27.496161" lon="153.038214">
				<ele>19.820</ele>
				<time>2015-07-03T22:39:50Z</time>
				<extensions>
				</extensions>
			</trkpt>
			<trkpt lat="-27.496340" lon="153.038337">
				<ele>20.164</ele>
				<time>2015-07-03T22:39:51Z</time>
				<extensions>
				</extensions>
			</trkpt>
			<trkpt lat="-27.496524" lon="153.038469">
				<ele>21.377</ele>
				<time>2015-07-03T22:39:52Z</time>
				<extensions>
				</extensions>
			</trkpt>
			<trkpt lat="-27.496706" lon="153.038602">
				<ele>20.819</ele>
				<time>2015-07-03T22:39:53Z</time>
				<extensions>
				</extensions>
			</trkpt>
			<trkpt lat="-27.496883" lon="153.038739">
				<ele>20.329</ele>
				<time>2015-07-03T22:39:54Z</time>
				<extensions>
				</extensions>
			</trkpt>
			<trkpt lat="-27.497066" lon="153.038870">
				<ele>20.467</ele>
				<time>2015-07-03T22:39:55Z</time>
				<extensions>
				</extensions>
			</trkpt>
			<trkpt lat="-27.497254" lon="153.039005">
				<ele>22.311</ele>
				<time>2015-07-03T22:39:56Z</time>
				<extensions>
				</extensions>
			</trkpt>
			<trkpt lat="-27.497438" lon="153.039130">
				<ele>23.429</ele>
				<time>2015-07-03T22:39:57Z</time>
				<extensions>
				</extensions>
			</trkpt>
			<trkpt lat="-27.497631" lon="153.039248">
				<ele>22.666</ele>
				<time>2015-07-03T22:39:58Z</time>
				<extensions>
				</extensions>
			</trkpt>
			<trkpt lat="-27.497828" lon="153.039358">
				<ele>22.930</ele>
				<time>2015-07-03T22:39:59Z</time>
				<extensions>
				</extensions>
			</trkpt>
			<trkpt lat="-27.498035" lon="153.039464">
				<ele>23.396</ele>
				<time>2015-07-03T22:40:00Z</time>
				<extensions>
				</extensions>
			</trkpt>
			<trkpt lat="-27.498238" lon="153.039560">
				<ele>24.455</ele>
				<time>2015-07-03T22:40:01Z</time>
				<extensions>
				</extensions>
			</trkpt>
			<trkpt lat="-27.498451" lon="153.039640">
				<ele>22.096</ele>
				<time>2015-07-03T22:40:02Z</time>
				<extensions>
				</extensions>
			</trkpt>
			<trkpt lat="-27.498668" lon="153.039712">
				<ele>20.187</ele>
				<time>2015-07-03T22:40:03Z</time>
				<extensions>
				</extensions>
			</trkpt>
			<trkpt lat="-27.498886" lon="153.039772">
				<ele>21.608</ele>
				<time>2015-07-03T22:40:04Z</time>
				<extensions>
				</extensions>
			</trkpt>
			<trkpt lat="-27.499101" lon="153.039832">
				<ele>21.983</ele>
				<time>2015-07-03T22:40:05Z</time>
				<extensions>
				</extensions>
			</trkpt>
			<trkpt lat="-27.499315" lon="153.039884">
				<ele>20.967</ele>
				<time>2015-07-03T22:40:06Z</time>
				<extensions>
				</extensions>
			</trkpt>
			<trkpt lat="-27.499525" lon="153.039927">
				<ele>18.751</ele>
				<time>2015-07-03T22:40:07Z</time>
				<extensions>
				</extensions>
			</trkpt>
			<trkpt lat="-27.499744" lon="153.039953">
				<ele>17.841</ele>
				<time>2015-07-03T22:40:08Z</time>
				<extensions>
				</extensions>
			</trkpt>
			<trkpt lat="-27.499972" lon="153.039967">
				<ele>16.549</ele>
				<time>2015-07-03T22:40:09Z</time>
				<extensions>
				</extensions>
			</trkpt>
			<trkpt lat="-27.500189" lon="153.039969">
				<ele>15.577</ele>
				<time>2015-07-03T22:40:10Z</time>
				<extensions>
				</extensions>
			</trkpt>
			<trkpt lat="-27.500399" lon="153.039957">
				<ele>14.814</ele>
				<time>2015-07-03T22:40:11Z</time>
				<extensions>
				</extensions>
			</trkpt>
			<trkpt lat="-27.500621" lon="153.039938">
				<ele>15.937</ele>
				<time>2015-07-03T22:40:12Z</time>
				<extensions>
				</extensions>
			</trkpt>
			<trkpt lat="-27.500845" lon="153.039902">
				<ele>13.825</ele>
				<time>2015-07-03T22:40:13Z</time>
				<extensions>
				</extensions>
			</trkpt>
			<trkpt lat="-27.501063" lon="153.039860">
				<ele>15.402</ele>
				<time>2015-07-03T22:40:14Z</time>
				<extensions>
				</extensions>
			</trkpt>
			<trkpt lat="-27.501280" lon="153.039824">
				<ele>14.433</ele>
				<time>2015-07-03T22:40:15Z</time>
				<extensions>
				</extensions>
			</trkpt>
			<trkpt lat="-27.501498" lon="153.039778">
				<ele>13.275</ele>
				<time>2015-07-03T22:40:16Z</time>
				<extensions>
				</extensions>
			</trkpt>
			<trkpt lat="-27.501705" lon="153.039749">
				<ele>14.023</ele>
				<time>2015-07-03T22:40:17Z</time>
				<extensions>
				</extensions>
			</trkpt>
			<trkpt lat="-27.501919" lon="153.039712">
				<ele>14.264</ele>
				<time>2015-07-03T22:40:18Z</time>
				<extensions>
				</extensions>
			</trkpt>
			<trkpt lat="-27.502130" lon="153.039671">
				<ele>15.055</ele>
				<time>2015-07-03T22:40:19Z</time>
				<extensions>
				</extensions>
			</trkpt>
			<trkpt lat="-27.502343" lon="153.039631">
				<ele>14.146</ele>
				<time>2015-07-03T22:40:20Z</time>
				<extensions>
				</extensions>
			</trkpt>
			<trkpt lat="-27.502545" lon="153.039597">
				<ele>13.950</ele>
				<time>2015-07-03T22:40:21Z</time>
				<extensions>
				</extensions>
			</trkpt>
			<trkpt lat="-27.502750" lon="153.039565">
				<ele>13.076</ele>
				<time>2015-07-03T22:40:22Z</time>
				<extensions>
				</extensions>
			</trkpt>
			<trkpt lat="-27.502966" lon="153.039529">
				<ele>14.352</ele>
				<time>2015-07-03T22:40:23Z</time>
				<extensions>
				</extensions>
			</trkpt>
			<trkpt lat="-27.503183" lon="153.039496">
				<ele>13.377</ele>
				<time>2015-07-03T22:40:24Z</time>
				<extensions>
				</extensions>
			</trkpt>
			<trkpt lat="-27.503382" lon="153.039471">
				<ele>14.603</ele>
				<time>2015-07-03T22:40:25Z</time>
				<extensions>
				</extensions>
			</trkpt>
			<trkpt lat="-27.503589" lon="153.039444">
				<ele>14.103</ele>
				<time>2015-07-03T22:40:26Z</time>
				<extensions>
				</extensions>
			</trkpt>
			<trkpt lat="-27.503803" lon="153.039406">
				<ele>14.543</ele>
				<time>2015-07-03T22:40:27Z</time>
				<extensions>
				</extensions>
			</trkpt>
			<trkpt lat="-27.503998" lon="153.039371">
				<ele>11.896</ele>
				<time>2015-07-03T22:40:28Z</time>
				<extensions>
				</extensions>
			</trkpt>
			<trkpt lat="-27.504182" lon="153.039337">
				<ele>12.264</ele>
				<time>2015-07-03T22:40:29Z</time>
				<extensions>
				</extensions>
			</trkpt>
			<trkpt lat="-27.504371" lon="153.039301">
				<ele>12.244</ele>
				<time>2015-07-03T22:40:30Z</time>
				<extensions>
				</extensions>
			</trkpt>
			<trkpt lat="-27.504565" lon="153.039263">
				<ele>12.181</ele>
				<time>2015-07-03T22:40:31Z</time>
				<extensions>
				</extensions>
			</trkpt>
			<trkpt lat="-27.504762" lon="153.039226">
				<ele>13.239</ele>
				<time>2015-07-03T22:40:32Z</time>
				<extensions>
				</extensions>
			</trkpt>
			<trkpt lat="-27.504962" lon="153.039186">
				<ele>12.993</ele>
				<time>2015-07-03T22:40:33Z</time>
				<extensions>
				</extensions>
			</trkpt>
			<trkpt lat="-27.505177" lon="153.039147">
				<ele>14.732</ele>
				<time>2015-07-03T22:40:34Z</time>
				<extensions>
				</extensions>
			</trkpt>
			<trkpt lat="-27.505383" lon="153.039110">
				<ele>16.531</ele>
				<time>2015-07-03T22:40:35Z</time>
				<extensions>
				</extensions>
			</trkpt>
			<trkpt lat="-27.505590" lon="153.039073">
				<ele>16.432</ele>
				<time>2015-07-03T22:40:36Z</time>
				<extensions>
				</extensions>
			</trkpt>
			<trkpt lat="-27.505798" lon="153.039040">
				<ele>15.358</ele>
				<time>2015-07-03T22:40:37Z</time>
				<extensions>
				</extensions>
			</trkpt>
			<trkpt lat="-27.506005" lon="153.038998">
				<ele>14.119</ele>
				<time>2015-07-03T22:40:38Z</time>
				<extensions>
				</extensions>
			</trkpt>
			<trkpt lat="-27.506214" lon="153.038959">
				<ele>14.993</ele>
				<time>2015-07-03T22:40:39Z</time>
				<extensions>
				</extensions>
			</trkpt>
			<trkpt lat="-27.506431" lon="153.038916">
				<ele>17.682</ele>
				<time>2015-07-03T22:40:40Z</time>
				<extensions>
				</extensions>
			</trkpt>
			<trkpt lat="-27.506653" lon="153.038877">
				<ele>16.966</ele>
				<time>2015-07-03T22:40:41Z</time>
				<extensions>
				</extensions>
			</trkpt>
			<trkpt lat="-27.506869" lon="153.038832">
				<ele>19.666</ele>
				<time>2015-07-03T22:40:42Z</time>
				<extensions>
				</extensions>
			</trkpt>
			<trkpt lat="-27.507083" lon="153.038789">
				<ele>17.479</ele>
				<time>2015-07-03T22:40:43Z</time>
				<extensions>
				</extensions>
			</trkpt>
			<trkpt lat="-27.507296" lon="153.038760">
				<ele>15.918</ele>
				<time>2015-07-03T22:40:44Z</time>
				<extensions>
				</extensions>
			</trkpt>
			<trkpt lat="-27.507498" lon="153.038739">
				<ele>12.819</ele>
				<time>2015-07-03T22:40:45Z</time>
				<extensions>
				</extensions>
			</trkpt>
			<trkpt lat="-27.507695" lon="153.038734">
				<ele>14.013</ele>
				<time>2015-07-03T22:40:46Z</time>
				<extensions>
				</extensions>
			</trkpt>
			<trkpt lat="-27.507890" lon="153.038739">
				<ele>12.877</ele>
				<time>2015-07-03T22:40:47Z</time>
				<extensions>
				</extensions>
			</trkpt>
			<trkpt lat="-27.508090" lon="153.038747">
				<ele>12.616</ele>
				<time>2015-07-03T22:40:48Z</time>
				<extensions>
				</extensions>
			</trkpt>
			<trkpt lat="-27.508270" lon="153.038770">
				<ele>12.159</ele>
				<time>2015-07-03T22:40:49Z</time>
				<extensions>
				</extensions>
			</trkpt>
			<trkpt lat="-27.508450" lon="153.038799">
				<ele>12.003</ele>
				<time>2015-07-03T22:40:50Z</time>
				<extensions>
				</extensions>
			</trkpt>
			<trkpt lat="-27.508636" lon="153.038838">
				<ele>11.828</ele>
				<time>2015-07-03T22:40:51Z</time>
				<extensions>
				</extensions>
			</trkpt>
			<trkpt lat="-27.508816" lon="153.038881">
				<ele>13.533</ele>
				<time>2015-07-03T22:40:52Z</time>
				<extensions>
				</extensions>
			</trkpt>
			<trkpt lat="-27.509164" lon="153.038997">
				<ele>12.269</ele>
				<time>2015-07-03T22:40:54Z</time>
				<extensions>
				</extensions>
			</trkpt>
			<trkpt lat="-27.509345" lon="153.039059">
				<ele>12.713</ele>
				<time>2015-07-03T22:40:55Z</time>
				<extensions>
				</extensions>
			</trkpt>
			<trkpt lat="-27.509519" lon="153.039136">
				<ele>11.953</ele>
				<time>2015-07-03T22:40:56Z</time>
				<extensions>
				</extensions>
			</trkpt>
			<trkpt lat="-27.509695" lon="153.039225">
				<ele>12.083</ele>
				<time>2015-07-03T22:40:57Z</time>
				<extensions>
				</extensions>
			</trkpt>
			<trkpt lat="-27.509864" lon="153.039317">
				<ele>13.177</ele>
				<time>2015-07-03T22:40:58Z</time>
				<extensions>
				</extensions>
			</trkpt>
			<trkpt lat="-27.510041" lon="153.039408">
				<ele>13.177</ele>
				<time>2015-07-03T22:40:59Z</time>
				<extensions>
				</extensions>
			</trkpt>
			<trkpt lat="-27.510242" lon="153.039511">
				<ele>14.638</ele>
				<time>2015-07-03T22:41:00Z</time>
				<extensions>
				</extensions>
			</trkpt>
			<trkpt lat="-27.510440" lon="153.039605">
				<ele>15.803</ele>
				<time>2015-07-03T22:41:01Z</time>
				<extensions>
				</extensions>
			</trkpt>
			<trkpt lat="-27.510651" lon="153.039715">
				<ele>18.786</ele>
				<time>2015-07-03T22:41:02Z</time>
				<extensions>
				</extensions>
			</trkpt>
			<trkpt lat="-27.510872" lon="153.039833">
				<ele>19.057</ele>
				<time>2015-07-03T22:41:03Z</time>
				<extensions>
				</extensions>
			</trkpt>
			<trkpt lat="-27.511095" lon="153.039945">
				<ele>20.153</ele>
				<time>2015-07-03T22:41:04Z</time>
				<extensions>
				</extensions>
			</trkpt>
			<trkpt lat="-27.511312" lon="153.040056">
				<ele>19.064</ele>
				<time>2015-07-03T22:41:05Z</time>
				<extensions>
				</extensions>
			</trkpt>
			<trkpt lat="-27.511529" lon="153.040175">
				<ele>18.073</ele>
				<time>2015-07-03T22:41:06Z</time>
				<extensions>
				</extensions>
			</trkpt>
			<trkpt lat="-27.511733" lon="153.040285">
				<ele>16.549</ele>
				<time>2015-07-03T22:41:07Z</time>
				<extensions>
				</extensions>
			</trkpt>
			<trkpt lat="-27.511937" lon="153.040401">
				<ele>15.597</ele>
				<time>2015-07-03T22:41:08Z</time>
				<extensions>
				</extensions>
			</trkpt>
			<trkpt lat="-27.512136" lon="153.040522">
				<ele>16.361</ele>
				<time>2015-07-03T22:41:09Z</time>
				<extensions>
				</extensions>
			</trkpt>
			<trkpt lat="-27.512333" lon="153.040649">
				<ele>14.461</ele>
				<time>2015-07-03T22:41:10Z</time>
				<extensions>
				</extensions>
			</trkpt>
			<trkpt lat="-27.512519" lon="153.040782">
				<ele>15.118</ele>
				<time>2015-07-03T22:41:11Z</time>
				<extensions>
				</extensions>
			</trkpt>
			<trkpt lat="-27.512700" lon="153.040922">
				<ele>14.843</ele>
				<time>2015-07-03T22:41:12Z</time>
				<extensions>
				</extensions>
			</trkpt>
			<trkpt lat="-27.512870" lon="153.041089">
				<ele>14.705</ele>
				<time>2015-07-03T22:41:13Z</time>
				<extensions>
				</extensions>
			</trkpt>
			<trkpt lat="-27.513042" lon="153.041255">
				<ele>16.079</ele>
				<time>2015-07-03T22:41:14Z</time>
				<extensions>
				</extensions>
			</trkpt>
			<trkpt lat="-27.513207" lon="153.041431">
				<ele>14.863</ele>
				<time>2015-07-03T22:41:15Z</time>
				<extensions>
				</extensions>
			</trkpt>
			<trkpt lat="-27.513356" lon="153.041607">
				<ele>15.066</ele>
				<time>2015-07-03T22:41:16Z</time>
				<extensions>
				</extensions>
			</trkpt>
			<trkpt lat="-27.513508" lon="153.041800">
				<ele>13.756</ele>
				<time>2015-07-03T22:41:17Z</time>
				<extensions>
				</extensions>
			</trkpt>
			<trkpt lat="-27.513646" lon="153.041997">
				<ele>13.377</ele>
				<time>2015-07-03T22:41:18Z</time>
				<extensions>
				</extensions>
			</trkpt>
			<trkpt lat="-27.513771" lon="153.042199">
				<ele>16.410</ele>
				<time>2015-07-03T22:41:19Z</time>
				<extensions>
				</extensions>
			</trkpt>
			<trkpt lat="-27.513911" lon="153.042416">
				<ele>15.693</ele>
				<time>2015-07-03T22:41:20Z</time>
				<extensions>
				</extensions>
			</trkpt>
			<trkpt lat="-27.514036" lon="153.042648">
				<ele>15.640</ele>
				<time>2015-07-03T22:41:21Z</time>
				<extensions>
				</extensions>
			</trkpt>
			<trkpt lat="-27.514153" lon="153.042881">
				<ele>14.894</ele>
				<time>2015-07-03T22:41:22Z</time>
				<extensions>
				</extensions>
			</trkpt>
			<trkpt lat="-27.514270" lon="153.043118">
				<ele>15.040</ele>
				<time>2015-07-03T22:41:23Z</time>
				<extensions>
				</extensions>
			</trkpt>
			<trkpt lat="-27.514386" lon="153.043351">
				<ele>15.890</ele>
				<time>2015-07-03T22:41:24Z</time>
				<extensions>
				</extensions>
			</trkpt>
			<trkpt lat="-27.514498" lon="153.043583">
				<ele>16.031</ele>
				<time>2015-07-03T22:41:25Z</time>
				<extensions>
				</extensions>
			</trkpt>
			<trkpt lat="-27.514612" lon="153.043808">
				<ele>13.795</ele>
				<time>2015-07-03T22:41:26Z</time>
				<extensions>
				</extensions>
			</trkpt>
			<trkpt lat="-27.514726" lon="153.044039">
				<ele>15.312</ele>
				<time>2015-07-03T22:41:27Z</time>
				<extensions>
				</extensions>
			</trkpt>
			<trkpt lat="-27.514842" lon="153.044276">
				<ele>14.035</ele>
				<time>2015-07-03T22:41:28Z</time>
				<extensions>
				</extensions>
			</trkpt>
			<trkpt lat="-27.514962" lon="153.044510">
				<ele>14.703</ele>
				<time>2015-07-03T22:41:29Z</time>
				<extensions>
				</extensions>
			</trkpt>
			<trkpt lat="-27.515082" lon="153.044748">
				<ele>14.409</ele>
				<time>2015-07-03T22:41:30Z</time>
				<extensions>
				</extensions>
			</trkpt>
			<trkpt lat="-27.515202" lon="153.044992">
				<ele>14.375</ele>
				<time>2015-07-03T22:41:31Z</time>
				<extensions>
				</extensions>
			</trkpt>
			<trkpt lat="-27.515322" lon="153.045229">
				<ele>14.178</ele>
				<time>2015-07-03T22:41:32Z</time>
				<extensions>
				</extensions>
			</trkpt>
			<trkpt lat="-27.515437" lon="153.045468">
				<ele>14.808</ele>
				<time>2015-07-03T22:41:33Z</time>
				<extensions>
				</extensions>
			</trkpt>
			<trkpt lat="-27.515550" lon="153.045698">
				<ele>14.314</ele>
				<time>2015-07-03T22:41:34Z</time>
				<extensions>
				</extensions>
			</trkpt>
			<trkpt lat="-27.515660" lon="153.045934">
				<ele>13.283</ele>
				<time>2015-07-03T22:41:35Z</time>
				<extensions>
				</extensions>
			</trkpt>
			<trkpt lat="-27.515774" lon="153.046165">
				<ele>13.910</ele>
				<time>2015-07-03T22:41:36Z</time>
				<extensions>
				</extensions>
			</trkpt>
			<trkpt lat="-27.515882" lon="153.046393">
				<ele>13.731</ele>
				<time>2015-07-03T22:41:37Z</time>
				<extensions>
				</extensions>
			</trkpt>
			<trkpt lat="-27.515995" lon="153.046628">
				<ele>13.697</ele>
				<time>2015-07-03T22:41:38Z</time>
				<extensions>
				</extensions>
			</trkpt>
			<trkpt lat="-27.516114" lon="153.046862">
				<ele>14.228</ele>
				<time>2015-07-03T22:41:39Z</time>
				<extensions>
				</extensions>
			</trkpt>
			<trkpt lat="-27.516222" lon="153.047097">
				<ele>13.032</ele>
				<time>2015-07-03T22:41:40Z</time>
				<extensions>
				</extensions>
			</trkpt>
			<trkpt lat="-27.516335" lon="153.047340">
				<ele>13.808</ele>
				<time>2015-07-03T22:41:41Z</time>
				<extensions>
				</extensions>
			</trkpt>
			<trkpt lat="-27.516448" lon="153.047585">
				<ele>15.116</ele>
				<time>2015-07-03T22:41:42Z</time>
				<extensions>
				</extensions>
			</trkpt>
			<trkpt lat="-27.516565" lon="153.047824">
				<ele>16.285</ele>
				<time>2015-07-03T22:41:43Z</time>
				<extensions>
				</extensions>
			</trkpt>
			<trkpt lat="-27.516684" lon="153.048060">
				<ele>16.284</ele>
				<time>2015-07-03T22:41:44Z</time>
				<extensions>
				</extensions>
			</trkpt>
			<trkpt lat="-27.516802" lon="153.048296">
				<ele>15.551</ele>
				<time>2015-07-03T22:41:45Z</time>
				<extensions>
				</extensions>
			</trkpt>
			<trkpt lat="-27.516936" lon="153.048529">
				<ele>15.820</ele>
				<time>2015-07-03T22:41:46Z</time>
				<extensions>
				</extensions>
			</trkpt>
			<trkpt lat="-27.517066" lon="153.048749">
				<ele>17.107</ele>
				<time>2015-07-03T22:41:47Z</time>
				<extensions>
				</extensions>
			</trkpt>
			<trkpt lat="-27.517199" lon="153.048980">
				<ele>17.177</ele>
				<time>2015-07-03T22:41:48Z</time>
				<extensions>
				</extensions>
			</trkpt>
			<trkpt lat="-27.517331" lon="153.049199">
				<ele>16.793</ele>
				<time>2015-07-03T22:41:49Z</time>
				<extensions>
				</extensions>
			</trkpt>
			<trkpt lat="-27.517473" lon="153.049417">
				<ele>18.278</ele>
				<time>2015-07-03T22:41:50Z</time>
				<extensions>
				</extensions>
			</trkpt>
			<trkpt lat="-27.517626" lon="153.049631">
				<ele>17.904</ele>
				<time>2015-07-03T22:41:51Z</time>
				<extensions>
				</extensions>
			</trkpt>
			<trkpt lat="-27.517781" lon="153.049836">
				<ele>18.006</ele>
				<time>2015-07-03T22:41:52Z</time>
				<extensions>
				</extensions>
			</trkpt>
			<trkpt lat="-27.517947" lon="153.050031">
				<ele>18.621</ele>
				<time>2015-07-03T22:41:53Z</time>
				<extensions>
				</extensions>
			</trkpt>
			<trkpt lat="-27.518110" lon="153.050227">
				<ele>20.239</ele>
				<time>2015-07-03T22:41:54Z</time>
				<extensions>
				</extensions>
			</trkpt>
			<trkpt lat="-27.518278" lon="153.050415">
				<ele>20.595</ele>
				<time>2015-07-03T22:41:55Z</time>
				<extensions>
				</extensions>
			</trkpt>
			<trkpt lat="-27.518442" lon="153.050592">
				<ele>20.666</ele>
				<time>2015-07-03T22:41:56Z</time>
				<extensions>
				</extensions>
			</trkpt>
			<trkpt lat="-27.518614" lon="153.050773">
				<ele>21.593</ele>
				<time>2015-07-03T22:41:57Z</time>
				<extensions>
				</extensions>
			</trkpt>
			<trkpt lat="-27.518790" lon="153.050947">
				<ele>22.050</ele>
				<time>2015-07-03T22:41:58Z</time>
				<extensions>
				</extensions>
			</trkpt>
			<trkpt lat="-27.518969" lon="153.051108">
				<ele>20.153</ele>
				<time>2015-07-03T22:41:59Z</time>
				<extensions>
				</extensions>
			</trkpt>
			<trkpt lat="-27.519146" lon="153.051263">
				<ele>19.787</ele>
				<time>2015-07-03T22:42:00Z</time>
				<extensions>
				</extensions>
			</trkpt>
			<trkpt lat="-27.519329" lon="153.051410">
				<ele>20.246</ele>
				<time>2015-07-03T22:42:01Z</time>
				<extensions>
				</extensions>
			</trkpt>
			<trkpt lat="-27.519517" lon="153.051563">
				<ele>19.216</ele>
				<time>2015-07-03T22:42:02Z</time>
				<extensions>
				</extensions>
			</trkpt>
			<trkpt lat="-27.519694" lon="153.051714">
				<ele>21.521</ele>
				<time>2015-07-03T22:42:03Z</time>
				<extensions>
				</extensions>
			</trkpt>
			<trkpt lat="-27.519882" lon="153.051862">
				<ele>21.521</ele>
				<time>2015-07-03T22:42:04Z</time>
				<extensions>
				</extensions>
			</trkpt>
			<trkpt lat="-27.520073" lon="153.052011">
				<ele>21.572</ele>
				<time>2015-07-03T22:42:05Z</time>
				<extensions>
				</extensions>
			</trkpt>
			<trkpt lat="-27.520260" lon="153.052160">
				<ele>19.456</ele>
				<time>2015-07-03T22:42:06Z</time>
				<extensions>
				</extensions>
			</trkpt>
			<trkpt lat="-27.520440" lon="153.052302">
				<ele>22.608</ele>
				<time>2015-07-03T22:42:07Z</time>
				<extensions>
				</extensions>
			</trkpt>
			<trkpt lat="-27.520622" lon="153.052448">
				<ele>21.362</ele>
				<time>2015-07-03T22:42:08Z</time>
				<extensions>
				</extensions>
			</trkpt>
			<trkpt lat="-27.520809" lon="153.052601">
				<ele>21.600</ele>
				<time>2015-07-03T22:42:09Z</time>
				<extensions>
				</extensions>
			</trkpt>
			<trkpt lat="-27.520999" lon="153.052754">
				<ele>22.019</ele>
				<time>2015-07-03T22:42:10Z</time>
				<extensions>
				</extensions>
			</trkpt>
			<trkpt lat="-27.521190" lon="153.052902">
				<ele>21.696</ele>
				<time>2015-07-03T22:42:11Z</time>
				<extensions>
				</extensions>
			</trkpt>
			<trkpt lat="-27.521374" lon="153.053053">
				<ele>21.569</ele>
				<time>2015-07-03T22:42:12Z</time>
				<extensions>
				</extensions>
			</trkpt>
			<trkpt lat="-27.521557" lon="153.053204">
				<ele>22.556</ele>
				<time>2015-07-03T22:42:13Z</time>
				<extensions>
				</extensions>
			</trkpt>
			<trkpt lat="-27.521743" lon="153.053360">
				<ele>24.612</ele>
				<time>2015-07-03T22:42:14Z</time>
				<extensions>
				</extensions>
			</trkpt>
			<trkpt lat="-27.521924" lon="153.053510">
				<ele>24.646</ele>
				<time>2015-07-03T22:42:15Z</time>
				<extensions>
				</extensions>
			</trkpt>
			<trkpt lat="-27.522112" lon="153.053667">
				<ele>24.198</ele>
				<time>2015-07-03T22:42:16Z</time>
				<extensions>
				</extensions>
			</trkpt>
			<trkpt lat="-27.522296" lon="153.053823">
				<ele>25.327</ele>
				<time>2015-07-03T22:42:17Z</time>
				<extensions>
				</extensions>
			</trkpt>
			<trkpt lat="-27.522472" lon="153.053966">
				<ele>24.813</ele>
				<time>2015-07-03T22:42:18Z</time>
				<extensions>
				</extensions>
			</trkpt>
			<trkpt lat="-27.522649" lon="153.054112">
				<ele>23.813</ele>
				<time>2015-07-03T22:42:19Z</time>
				<extensions>
				</extensions>
			</trkpt>
			<trkpt lat="-27.522814" lon="153.054255">
				<ele>23.528</ele>
				<time>2015-07-03T22:42:20Z</time>
				<extensions>
				</extensions>
			</trkpt>
			<trkpt lat="-27.522991" lon="153.054392">
				<ele>26.197</ele>
				<time>2015-07-03T22:42:21Z</time>
				<extensions>
				</extensions>
			</trkpt>
			<trkpt lat="-27.523164" lon="153.054537">
				<ele>24.373</ele>
				<time>2015-07-03T22:42:22Z</time>
				<extensions>
				</extensions>
			</trkpt>
			<trkpt lat="-27.523341" lon="153.054673">
				<ele>24.521</ele>
				<time>2015-07-03T22:42:23Z</time>
				<extensions>
				</extensions>
			</trkpt>
			<trkpt lat="-27.523528" lon="153.054804">
				<ele>23.487</ele>
				<time>2015-07-03T22:42:24Z</time>
				<extensions>
				</extensions>
			</trkpt>
			<trkpt lat="-27.523722" lon="153.054936">
				<ele>25.023</ele>
				<time>2015-07-03T22:42:25Z</time>
				<extensions>
				</extensions>
			</trkpt>
			<trkpt lat="-27.523912" lon="153.055048">
				<ele>26.294</ele>
				<time>2015-07-03T22:42:26Z</time>
				<extensions>
				</extensions>
			</trkpt>
			<trkpt lat="-27.524105" lon="153.055178">
				<ele>27.834</ele>
				<time>2015-07-03T22:42:27Z</time>
				<extensions>
				</extensions>
			</trkpt>
			<trkpt lat="-27.524303" lon="153.055303">
				<ele>29.013</ele>
				<time>2015-07-03T22:42:28Z</time>
				<extensions>
				</extensions>
			</trkpt>
			<trkpt lat="-27.524506" lon="153.055424">
				<ele>27.780</ele>
				<time>2015-07-03T22:42:29Z</time>
				<extensions>
				</extensions>
			</trkpt>
			<trkpt lat="-27.524711" lon="153.055540">
				<ele>27.154</ele>
				<time>2015-07-03T22:42:30Z</time>
				<extensions>
				</extensions>
			</trkpt>
			<trkpt lat="-27.524918" lon="153.055646">
				<ele>27.305</ele>
				<time>2015-07-03T22:42:31Z</time>
				<extensions>
				</extensions>
			</trkpt>
			<trkpt lat="-27.525131" lon="153.055759">
				<ele>29.000</ele>
				<time>2015-07-03T22:42:32Z</time>
				<extensions>
				</extensions>
			</trkpt>
			<trkpt lat="-27.525349" lon="153.055866">
				<ele>32.308</ele>
				<time>2015-07-03T22:42:33Z</time>
				<extensions>
				</extensions>
			</trkpt>
			<trkpt lat="-27.525569" lon="153.055968">
				<ele>31.674</ele>
				<time>2015-07-03T22:42:34Z</time>
				<extensions>
				</extensions>
			</trkpt>
			<trkpt lat="-27.525792" lon="153.056072">
				<ele>30.524</ele>
				<time>2015-07-03T22:42:35Z</time>
				<extensions>
				</extensions>
			</trkpt>
			<trkpt lat="-27.526013" lon="153.056166">
				<ele>30.346</ele>
				<time>2015-07-03T22:42:36Z</time>
				<extensions>
				</extensions>
			</trkpt>
			<trkpt lat="-27.526240" lon="153.056259">
				<ele>30.917</ele>
				<time>2015-07-03T22:42:37Z</time>
				<extensions>
				</extensions>
			</trkpt>
			<trkpt lat="-27.526464" lon="153.056348">
				<ele>29.828</ele>
				<time>2015-07-03T22:42:38Z</time>
				<extensions>
				</extensions>
			</trkpt>
			<trkpt lat="-27.526690" lon="153.056434">
				<ele>31.015</ele>
				<time>2015-07-03T22:42:39Z</time>
				<extensions>
				</extensions>
			</trkpt>
			<trkpt lat="-27.526911" lon="153.056517">
				<ele>28.558</ele>
				<time>2015-07-03T22:42:40Z</time>
				<extensions>
				</extensions>
			</trkpt>
			<trkpt lat="-27.527138" lon="153.056593">
				<ele>28.227</ele>
				<time>2015-07-03T22:42:41Z</time>
				<extensions>
				</extensions>
			</trkpt>
			<trkpt lat="-27.527363" lon="153.056668">
				<ele>30.330</ele>
				<time>2015-07-03T22:42:42Z</time>
				<extensions>
				</extensions>
			</trkpt>
			<trkpt lat="-27.527588" lon="153.056741">
				<ele>28.437</ele>
				<time>2015-07-03T22:42:43Z</time>
				<extensions>
				</extensions>
			</trkpt>
			<trkpt lat="-27.527817" lon="153.056810">
				<ele>29.988</ele>
				<time>2015-07-03T22:42:44Z</time>
				<extensions>
				</extensions>
			</trkpt>
			<trkpt lat="-27.528044" lon="153.056874">
				<ele>30.214</ele>
				<time>2015-07-03T22:42:45Z</time>
				<extensions>
				</extensions>
			</trkpt>
			<trkpt lat="-27.528268" lon="153.056936">
				<ele>27.110</ele>
				<time>2015-07-03T22:42:46Z</time>
				<extensions>
				</extensions>
			</trkpt>
			<trkpt lat="-27.528485" lon="153.057000">
				<ele>28.073</ele>
				<time>2015-07-03T22:42:47Z</time>
				<extensions>
				</extensions>
			</trkpt>
			<trkpt lat="-27.528708" lon="153.057052">
				<ele>26.867</ele>
				<time>2015-07-03T22:42:48Z</time>
				<extensions>
				</extensions>
			</trkpt>
			<trkpt lat="-27.528929" lon="153.057102">
				<ele>28.481</ele>
				<time>2015-07-03T22:42:49Z</time>
				<extensions>
				</extensions>
			</trkpt>
			<trkpt lat="-27.529152" lon="153.057148">
				<ele>30.443</ele>
				<time>2015-07-03T22:42:50Z</time>
				<extensions>
				</extensions>
			</trkpt>
			<trkpt lat="-27.529371" lon="153.057202">
				<ele>30.120</ele>
				<time>2015-07-03T22:42:51Z</time>
				<extensions>
				</extensions>
			</trkpt>
			<trkpt lat="-27.529601" lon="153.057247">
				<ele>29.924</ele>
				<time>2015-07-03T22:42:52Z</time>
				<extensions>
				</extensions>
			</trkpt>
			<trkpt lat="-27.529823" lon="153.057294">
				<ele>29.600</ele>
				<time>2015-07-03T22:42:53Z</time>
				<extensions>
				</extensions>
			</trkpt>
			<trkpt lat="-27.530049" lon="153.057342">
				<ele>31.650</ele>
				<time>2015-07-03T22:42:54Z</time>
				<extensions>
				</extensions>
			</trkpt>
			<trkpt lat="-27.530272" lon="153.057389">
				<ele>29.407</ele>
				<time>2015-07-03T22:42:55Z</time>
				<extensions>
				</extensions>
			</trkpt>
			<trkpt lat="-27.530502" lon="153.057433">
				<ele>28.839</ele>
				<time>2015-07-03T22:42:56Z</time>
				<extensions>
				</extensions>
			</trkpt>
			<trkpt lat="-27.530725" lon="153.057477">
				<ele>29.096</ele>
				<time>2015-07-03T22:42:57Z</time>
				<extensions>
				</extensions>
			</trkpt>
			<trkpt lat="-27.530959" lon="153.057528">
				<ele>30.870</ele>
				<time>2015-07-03T22:42:58Z</time>
				<extensions>
				</extensions>
			</trkpt>
			<trkpt lat="-27.531200" lon="153.057568">
				<ele>32.284</ele>
				<time>2015-07-03T22:42:59Z</time>
				<extensions>
				</extensions>
			</trkpt>
			<trkpt lat="-27.531429" lon="153.057618">
				<ele>32.352</ele>
				<time>2015-07-03T22:43:00Z</time>
				<extensions>
				</extensions>
			</trkpt>
			<trkpt lat="-27.531665" lon="153.057669">
				<ele>33.252</ele>
				<time>2015-07-03T22:43:01Z</time>
				<extensions>
				</extensions>
			</trkpt>
			<trkpt lat="-27.531897" lon="153.057721">
				<ele>32.028</ele>
				<time>2015-07-03T22:43:02Z</time>
				<extensions>
				</extensions>
			</trkpt>
			<trkpt lat="-27.532138" lon="153.057771">
				<ele>32.859</ele>
				<time>2015-07-03T22:43:03Z</time>
				<extensions>
				</extensions>
			</trkpt>
			<trkpt lat="-27.532374" lon="153.057827">
				<ele>32.859</ele>
				<time>2015-07-03T22:43:04Z</time>
				<extensions>
				</extensions>
			</trkpt>
			<trkpt lat="-27.532608" lon="153.057880">
				<ele>35.036</ele>
				<time>2015-07-03T22:43:05Z</time>
				<extensions>
				</extensions>
			</trkpt>
			<trkpt lat="-27.532847" lon="153.057932">
				<ele>35.379</ele>
				<time>2015-07-03T22:43:06Z</time>
				<extensions>
				</extensions>
			</trkpt>
			<trkpt lat="-27.533085" lon="153.057981">
				<ele>34.522</ele>
				<time>2015-07-03T22:43:07Z</time>
				<extensions>
				</extensions>
			</trkpt>
			<trkpt lat="-27.533321" lon="153.058041">
				<ele>33.905</ele>
				<time>2015-07-03T22:43:08Z</time>
				<extensions>
				</extensions>
			</trkpt>
			<trkpt lat="-27.533556" lon="153.058090">
				<ele>35.615</ele>
				<time>2015-07-03T22:43:09Z</time>
				<extensions>
				</extensions>
			</trkpt>
			<trkpt lat="-27.533793" lon="153.058139">
				<ele>35.985</ele>
				<time>2015-07-03T22:43:10Z</time>
				<extensions>
				</extensions>
			</trkpt>
			<trkpt lat="-27.534021" lon="153.058195">
				<ele>36.113</ele>
				<time>2015-07-03T22:43:11Z</time>
				<extensions>
				</extensions>
			</trkpt>
			<trkpt lat="-27.534263" lon="153.058243">
				<ele>39.254</ele>
				<time>2015-07-03T22:43:12Z</time>
				<extensions>
				</extensions>
			</trkpt>
			<trkpt lat="-27.534510" lon="153.058297">
				<ele>40.438</ele>
				<time>2015-07-03T22:43:13Z</time>
				<extensions>
				</extensions>
			</trkpt>
			<trkpt lat="-27.534747" lon="153.058352">
				<ele>40.517</ele>
				<time>2015-07-03T22:43:14Z</time>
				<extensions>
				</extensions>
			</trkpt>
			<trkpt lat="-27.534991" lon="153.058411">
				<ele>41.059</ele>
				<time>2015-07-03T22:43:15Z</time>
				<extensions>
				</extensions>
			</trkpt>
			<trkpt lat="-27.535229" lon="153.058456">
				<ele>41.200</ele>
				<time>2015-07-03T22:43:16Z</time>
				<extensions>
				</extensions>
			</trkpt>
			<trkpt lat="-27.535468" lon="153.058501">
				<ele>41.944</ele>
				<time>2015-07-03T22:43:17Z</time>
				<extensions>
				</extensions>
			</trkpt>
			<trkpt lat="-27.535706" lon="153.058548">
				<ele>41.340</ele>
				<time>2015-07-03T22:43:18Z</time>
				<extensions>
				</extensions>
			</trkpt>
			<trkpt lat="-27.535947" lon="153.058587">
				<ele>42.792</ele>
				<time>2015-07-03T22:43:19Z</time>
				<extensions>
				</extensions>
			</trkpt>
			<trkpt lat="-27.536188" lon="153.058641">
				<ele>44.533</ele>
				<time>2015-07-03T22:43:20Z</time>
				<extensions>
				</extensions>
			</trkpt>
			<trkpt lat="-27.536426" lon="153.058695">
				<ele>44.958</ele>
				<time>2015-07-03T22:43:21Z</time>
				<extensions>
				</extensions>
			</trkpt>
			<trkpt lat="-27.536668" lon="153.058743">
				<ele>45.897</ele>
				<time>2015-07-03T22:43:22Z</time>
				<extensions>
				</extensions>
			</trkpt>
			<trkpt lat="-27.536910" lon="153.058799">
				<ele>47.906</ele>
				<time>2015-07-03T22:43:23Z</time>
				<extensions>
				</extensions>
			</trkpt>
			<trkpt lat="-27.537144" lon="153.058851">
				<ele>47.439</ele>
				<time>2015-07-03T22:43:24Z</time>
				<extensions>
				</extensions>
			</trkpt>
			<trkpt lat="-27.537382" lon="153.058902">
				<ele>47.331</ele>
				<time>2015-07-03T22:43:25Z</time>
				<extensions>
				</extensions>
			</trkpt>
			<trkpt lat="-27.537626" lon="153.058954">
				<ele>50.625</ele>
				<time>2015-07-03T22:43:26Z</time>
				<extensions>
				</extensions>
			</trkpt>
			<trkpt lat="-27.537867" lon="153.059006">
				<ele>52.442</ele>
				<time>2015-07-03T22:43:27Z</time>
				<extensions>
				</extensions>
			</trkpt>
			<trkpt lat="-27.538116" lon="153.059052">
				<ele>51.667</ele>
				<time>2015-07-03T22:43:28Z</time>
				<extensions>
				</extensions>
			</trkpt>
			<trkpt lat="-27.538358" lon="153.059107">
				<ele>52.598</ele>
				<time>2015-07-03T22:43:29Z</time>
				<extensions>
				</extensions>
			</trkpt>
			<trkpt lat="-27.538591" lon="153.059162">
				<ele>53.738</ele>
				<time>2015-07-03T22:43:30Z</time>
				<extensions>
				</extensions>
			</trkpt>
			<trkpt lat="-27.538814" lon="153.059220">
				<ele>54.060</ele>
				<time>2015-07-03T22:43:31Z</time>
				<extensions>
				</extensions>
			</trkpt>
			<trkpt lat="-27.539038" lon="153.059282">
				<ele>53.530</ele>
				<time>2015-07-03T22:43:32Z</time>
				<extensions>
				</extensions>
			</trkpt>
			<trkpt lat="-27.539258" lon="153.059343">
				<ele>54.464</ele>
				<time>2015-07-03T22:43:33Z</time>
				<extensions>
				</extensions>
			</trkpt>
			<trkpt lat="-27.539475" lon="153.059419">
				<ele>54.382</ele>
				<time>2015-07-03T22:43:34Z</time>
				<extensions>
				</extensions>
			</trkpt>
			<trkpt lat="-27.539692" lon="153.059486">
				<ele>56.309</ele>
				<time>2015-07-03T22:43:35Z</time>
				<extensions>
				</extensions>
			</trkpt>
			<trkpt lat="-27.539907" lon="153.059551">
				<ele>58.990</ele>
				<time>2015-07-03T22:43:36Z</time>
				<extensions>
				</extensions>
			</trkpt>
			<trkpt lat="-27.540125" lon="153.059627">
				<ele>62.911</ele>
				<time>2015-07-03T22:43:37Z</time>
				<extensions>
				</extensions>
			</trkpt>
			<trkpt lat="-27.540335" lon="153.059706">
				<ele>62.031</ele>
				<time>2015-07-03T22:43:38Z</time>
				<extensions>
				</extensions>
			</trkpt>
			<trkpt lat="-27.540544" lon="153.059778">
				<ele>60.713</ele>
				<time>2015-07-03T22:43:39Z</time>
				<extensions>
				</extensions>
			</trkpt>
			<trkpt lat="-27.540746" lon="153.059868">
				<ele>59.625</ele>
				<time>2015-07-03T22:43:40Z</time>
				<extensions>
				</extensions>
			</trkpt>
			<trkpt lat="-27.540956" lon="153.059956">
				<ele>62.241</ele>
				<time>2015-07-03T22:43:41Z</time>
				<extensions>
				</extensions>
			</trkpt>
			<trkpt lat="-27.541152" lon="153.060047">
				<ele>63.018</ele>
				<time>2015-07-03T22:43:42Z</time>
				<extensions>
				</extensions>
			</trkpt>
			<trkpt lat="-27.541355" lon="153.060142">
				<ele>64.074</ele>
				<time>2015-07-03T22:43:43Z</time>
				<extensions>
				</extensions>
			</trkpt>
			<trkpt lat="-27.541557" lon="153.060242">
				<ele>65.028</ele>
				<time>2015-07-03T22:43:44Z</time>
				<extensions>
				</extensions>
			</trkpt>
			<trkpt lat="-27.541750" lon="153.060332">
				<ele>65.421</ele>
				<time>2015-07-03T22:43:45Z</time>
				<extensions>
				</extensions>
			</trkpt>
			<trkpt lat="-27.541951" lon="153.060435">
				<ele>67.231</ele>
				<time>2015-07-03T22:43:46Z</time>
				<extensions>
				</extensions>
			</trkpt>
			<trkpt lat="-27.542150" lon="153.060541">
				<ele>68.014</ele>
				<time>2015-07-03T22:43:47Z</time>
				<extensions>
				</extensions>
			</trkpt>
			<trkpt lat="-27.542354" lon="153.060656">
				<ele>68.644</ele>
				<time>2015-07-03T22:43:48Z</time>
				<extensions>
				</extensions>
			</trkpt>
			<trkpt lat="-27.542558" lon="153.060776">
				<ele>71.432</ele>
				<time>2015-07-03T22:43:49Z</time>
				<extensions>
				</extensions>
			</trkpt>
			<trkpt lat="-27.542774" lon="153.060894">
				<ele>76.208</ele>
				<time>2015-07-03T22:43:50Z</time>
				<extensions>
				</extensions>
			</trkpt>
			<trkpt lat="-27.542996" lon="153.061019">
				<ele>78.543</ele>
				<time>2015-07-03T22:43:51Z</time>
				<extensions>
				</extensions>
			</trkpt>
			<trkpt lat="-27.543217" lon="153.061151">
				<ele>80.132</ele>
				<time>2015-07-03T22:43:52Z</time>
				<extensions>
				</extensions>
			</trkpt>
			<trkpt lat="-27.543436" lon="153.061287">
				<ele>80.247</ele>
				<time>2015-07-03T22:43:53Z</time>
				<extensions>
				</extensions>
			</trkpt>
			<trkpt lat="-27.543641" lon="153.061425">
				<ele>80.309</ele>
				<time>2015-07-03T22:43:54Z</time>
				<extensions>
				</extensions>
			</trkpt>
			<trkpt lat="-27.543842" lon="153.061567">
				<ele>81.416</ele>
				<time>2015-07-03T22:43:55Z</time>
				<extensions>
				</extensions>
			</trkpt>
			<trkpt lat="-27.544039" lon="153.061707">
				<ele>79.813</ele>
				<time>2015-07-03T22:43:56Z</time>
				<extensions>
				</extensions>
			</trkpt>
			<trkpt lat="-27.544235" lon="153.061859">
				<ele>78.814</ele>
				<time>2015-07-03T22:43:57Z</time>
				<extensions>
				</extensions>
			</trkpt>
			<trkpt lat="-27.544435" lon="153.062008">
				<ele>79.290</ele>
				<time>2015-07-03T22:43:58Z</time>
				<extensions>
				</extensions>
			</trkpt>
			<trkpt lat="-27.544630" lon="153.062166">
				<ele>83.652</ele>
				<time>2015-07-03T22:43:59Z</time>
				<extensions>
				</extensions>
			</trkpt>
			<trkpt lat="-27.544825" lon="153.062325">
				<ele>81.276</ele>
				<time>2015-07-03T22:44:00Z</time>
				<extensions>
				</extensions>
			</trkpt>
			<trkpt lat="-27.545018" lon="153.062489">
				<ele>82.847</ele>
				<time>2015-07-03T22:44:01Z</time>
				<extensions>
				</extensions>
			</trkpt>
			<trkpt lat="-27.545209" lon="153.062650">
				<ele>82.229</ele>
				<time>2015-07-03T22:44:02Z</time>
				<extensions>
				</extensions>
			</trkpt>
			<trkpt lat="-27.545401" lon="153.062811">
				<ele>83.284</ele>
				<time>2015-07-03T22:44:03Z</time>
				<extensions>
				</extensions>
			</trkpt>
			<trkpt lat="-27.545592" lon="153.062969">
				<ele>84.012</ele>
				<time>2015-07-03T22:44:04Z</time>
				<extensions>
				</extensions>
			</trkpt>
			<trkpt lat="-27.545779" lon="153.063135">
				<ele>85.860</ele>
				<time>2015-07-03T22:44:05Z</time>
				<extensions>
				</extensions>
			</trkpt>
			<trkpt lat="-27.545968" lon="153.063296">
				<ele>84.274</ele>
				<time>2015-07-03T22:44:06Z</time>
				<extensions>
				</extensions>
			</trkpt>
			<trkpt lat="-27.546160" lon="153.063466">
				<ele>82.743</ele>
				<time>2015-07-03T22:44:07Z</time>
				<extensions>
				</extensions>
			</trkpt>
			<trkpt lat="-27.546352" lon="153.063624">
				<ele>82.743</ele>
				<time>2015-07-03T22:44:08Z</time>
				<extensions>
				</extensions>
			</trkpt>
			<trkpt lat="-27.546539" lon="153.063783">
				<ele>82.174</ele>
				<time>2015-07-03T22:44:09Z</time>
				<extensions>
				</extensions>
			</trkpt>
			<trkpt lat="-27.546727" lon="153.063946">
				<ele>80.166</ele>
				<time>2015-07-03T22:44:10Z</time>
				<extensions>
				</extensions>
			</trkpt>
			<trkpt lat="-27.546914" lon="153.064117">
				<ele>79.654</ele>
				<time>2015-07-03T22:44:11Z</time>
				<extensions>
				</extensions>
			</trkpt>
			<trkpt lat="-27.547104" lon="153.064276">
				<ele>80.568</ele>
				<time>2015-07-03T22:44:12Z</time>
				<extensions>
				</extensions>
			</trkpt>
			<trkpt lat="-27.547296" lon="153.064445">
				<ele>78.713</ele>
				<time>2015-07-03T22:44:13Z</time>
				<extensions>
				</extensions>
			</trkpt>
			<trkpt lat="-27.547494" lon="153.064621">
				<ele>79.451</ele>
				<time>2015-07-03T22:44:14Z</time>
				<extensions>
				</extensions>
			</trkpt>
			<trkpt lat="-27.547682" lon="153.064802">
				<ele>77.637</ele>
				<time>2015-07-03T22:44:15Z</time>
				<extensions>
				</extensions>
			</trkpt>
			<trkpt lat="-27.547874" lon="153.064988">
				<ele>76.991</ele>
				<time>2015-07-03T22:44:16Z</time>
				<extensions>
				</extensions>
			</trkpt>
			<trkpt lat="-27.548058" lon="153.065163">
				<ele>75.445</ele>
				<time>2015-07-03T22:44:17Z</time>
				<extensions>
				</extensions>
			</trkpt>
			<trkpt lat="-27.548240" lon="153.065321">
				<ele>74.681</ele>
				<time>2015-07-03T22:44:18Z</time>
				<extensions>
				</extensions>
			</trkpt>
			<trkpt lat="-27.548437" lon="153.065496">
				<ele>73.811</ele>
				<time>2015-07-03T22:44:19Z</time>
				<extensions>
				</extensions>
			</trkpt>
			<trkpt lat="-27.548631" lon="153.065664">
				<ele>74.059</ele>
				<time>2015-07-03T22:44:20Z</time>
				<extensions>
				</extensions>
			</trkpt>
			<trkpt lat="-27.548823" lon="153.065834">
				<ele>73.726</ele>
				<time>2015-07-03T22:44:21Z</time>
				<extensions>
				</extensions>
			</trkpt>
			<trkpt lat="-27.549020" lon="153.066009">
				<ele>73.291</ele>
				<time>2015-07-03T22:44:22Z</time>
				<extensions>
				</extensions>
			</trkpt>
			<trkpt lat="-27.549212" lon="153.066171">
				<ele>71.967</ele>
				<time>2015-07-03T22:44:23Z</time>
				<extensions>
				</extensions>
			</trkpt>
			<trkpt lat="-27.549406" lon="153.066337">
				<ele>70.837</ele>
				<time>2015-07-03T22:44:24Z</time>
				<extensions>
				</extensions>
			</trkpt>
			<trkpt lat="-27.549583" lon="153.066500">
				<ele>70.164</ele>
				<time>2015-07-03T22:44:25Z</time>
				<extensions>
				</extensions>
			</trkpt>
			<trkpt lat="-27.549774" lon="153.066666">
				<ele>69.077</ele>
				<time>2015-07-03T22:44:26Z</time>
				<extensions>
				</extensions>
			</trkpt>
			<trkpt lat="-27.549966" lon="153.066834">
				<ele>67.242</ele>
				<time>2015-07-03T22:44:27Z</time>
				<extensions>
				</extensions>
			</trkpt>
			<trkpt lat="-27.550159" lon="153.066997">
				<ele>66.330</ele>
				<time>2015-07-03T22:44:28Z</time>
				<extensions>
				</extensions>
			</trkpt>
			<trkpt lat="-27.550358" lon="153.067152">
				<ele>68.220</ele>
				<time>2015-07-03T22:44:29Z</time>
				<extensions>
				</extensions>
			</trkpt>
			<trkpt lat="-27.550550" lon="153.067314">
				<ele>68.044</ele>
				<time>2015-07-03T22:44:30Z</time>
				<extensions>
				</extensions>
			</trkpt>
			<trkpt lat="-27.550744" lon="153.067479">
				<ele>66.611</ele>
				<time>2015-07-03T22:44:31Z</time>
				<extensions>
				</extensions>
			</trkpt>
			<trkpt lat="-27.550945" lon="153.067649">
				<ele>67.777</ele>
				<time>2015-07-03T22:44:32Z</time>
				<extensions>
				</extensions>
			</trkpt>
			<trkpt lat="-27.551143" lon="153.067811">
				<ele>67.356</ele>
				<time>2015-07-03T22:44:33Z</time>
				<extensions>
				</extensions>
			</trkpt>
			<trkpt lat="-27.551350" lon="153.067986">
				<ele>68.564</ele>
				<time>2015-07-03T22:44:34Z</time>
				<extensions>
				</extensions>
			</trkpt>
			<trkpt lat="-27.551555" lon="153.068154">
				<ele>69.231</ele>
				<time>2015-07-03T22:44:35Z</time>
				<extensions>
				</extensions>
			</trkpt>
			<trkpt lat="-27.551759" lon="153.068325">
				<ele>69.850</ele>
				<time>2015-07-03T22:44:36Z</time>
				<extensions>
				</extensions>
			</trkpt>
			<trkpt lat="-27.551966" lon="153.068493">
				<ele>67.455</ele>
				<time>2015-07-03T22:44:37Z</time>
				<extensions>
				</extensions>
			</trkpt>
			<trkpt lat="-27.552166" lon="153.068657">
				<ele>67.725</ele>
				<time>2015-07-03T22:44:38Z</time>
				<extensions>
				</extensions>
			</trkpt>
			<trkpt lat="-27.552366" lon="153.068829">
				<ele>65.707</ele>
				<time>2015-07-03T22:44:39Z</time>
				<extensions>
				</extensions>
			</trkpt>
			<trkpt lat="-27.552557" lon="153.068996">
				<ele>64.485</ele>
				<time>2015-07-03T22:44:40Z</time>
				<extensions>
				</extensions>
			</trkpt>
			<trkpt lat="-27.552755" lon="153.069160">
				<ele>63.420</ele>
				<time>2015-07-03T22:44:41Z</time>
				<extensions>
				</extensions>
			</trkpt>
			<trkpt lat="-27.552950" lon="153.069322">
				<ele>63.122</ele>
				<time>2015-07-03T22:44:42Z</time>
				<extensions>
				</extensions>
			</trkpt>
			<trkpt lat="-27.553143" lon="153.069481">
				<ele>62.084</ele>
				<time>2015-07-03T22:44:43Z</time>
				<extensions>
				</extensions>
			</trkpt>
			<trkpt lat="-27.553337" lon="153.069638">
				<ele>60.799</ele>
				<time>2015-07-03T22:44:44Z</time>
				<extensions>
				</extensions>
			</trkpt>
			<trkpt lat="-27.553531" lon="153.069799">
				<ele>62.007</ele>
				<time>2015-07-03T22:44:45Z</time>
				<extensions>
				</extensions>
			</trkpt>
			<trkpt lat="-27.553719" lon="153.069952">
				<ele>61.652</ele>
				<time>2015-07-03T22:44:46Z</time>
				<extensions>
				</extensions>
			</trkpt>
			<trkpt lat="-27.553903" lon="153.070103">
				<ele>60.971</ele>
				<time>2015-07-03T22:44:47Z</time>
				<extensions>
				</extensions>
			</trkpt>
			<trkpt lat="-27.554094" lon="153.070262">
				<ele>60.476</ele>
				<time>2015-07-03T22:44:48Z</time>
				<extensions>
				</extensions>
			</trkpt>
			<trkpt lat="-27.554291" lon="153.070426">
				<ele>60.852</ele>
				<time>2015-07-03T22:44:49Z</time>
				<extensions>
				</extensions>
			</trkpt>
			<trkpt lat="-27.554485" lon="153.070596">
				<ele>61.175</ele>
				<time>2015-07-03T22:44:50Z</time>
				<extensions>
				</extensions>
			</trkpt>
			<trkpt lat="-27.554678" lon="153.070760">
				<ele>61.261</ele>
				<time>2015-07-03T22:44:51Z</time>
				<extensions>
				</extensions>
			</trkpt>
			<trkpt lat="-27.554872" lon="153.070925">
				<ele>60.116</ele>
				<time>2015-07-03T22:44:52Z</time>
				<extensions>
				</extensions>
			</trkpt>
			<trkpt lat="-27.555056" lon="153.071084">
				<ele>60.161</ele>
				<time>2015-07-03T22:44:53Z</time>
				<extensions>
				</extensions>
			</trkpt>
			<trkpt lat="-27.555247" lon="153.071244">
				<ele>58.045</ele>
				<time>2015-07-03T22:44:54Z</time>
				<extensions>
				</extensions>
			</trkpt>
			<trkpt lat="-27.555436" lon="153.071400">
				<ele>57.491</ele>
				<time>2015-07-03T22:44:55Z</time>
				<extensions>
				</extensions>
			</trkpt>
			<trkpt lat="-27.555625" lon="153.071561">
				<ele>57.068</ele>
				<time>2015-07-03T22:44:56Z</time>
				<extensions>
				</extensions>
			</trkpt>
			<trkpt lat="-27.555816" lon="153.071723">
				<ele>56.781</ele>
				<time>2015-07-03T22:44:57Z</time>
				<extensions>
				</extensions>
			</trkpt>
			<trkpt lat="-27.556002" lon="153.071888">
				<ele>54.672</ele>
				<time>2015-07-03T22:44:58Z</time>
				<extensions>
				</extensions>
			</trkpt>
			<trkpt lat="-27.556198" lon="153.072052">
				<ele>55.244</ele>
				<time>2015-07-03T22:44:59Z</time>
				<extensions>
				</extensions>
			</trkpt>
			<trkpt lat="-27.556393" lon="153.072216">
				<ele>55.758</ele>
				<time>2015-07-03T22:45:00Z</time>
				<extensions>
				</extensions>
			</trkpt>
			<trkpt lat="-27.556597" lon="153.072377">
				<ele>54.560</ele>
				<time>2015-07-03T22:45:01Z</time>
				<extensions>
				</extensions>
			</trkpt>
			<trkpt lat="-27.556792" lon="153.072544">
				<ele>53.326</ele>
				<time>2015-07-03T22:45:02Z</time>
				<extensions>
				</extensions>
			</trkpt>
			<trkpt lat="-27.556997" lon="153.072713">
				<ele>51.752</ele>
				<time>2015-07-03T22:45:03Z</time>
				<extensions>
				</extensions>
			</trkpt>
			<trkpt lat="-27.557194" lon="153.072879">
				<ele>53.546</ele>
				<time>2015-07-03T22:45:04Z</time>
				<extensions>
				</extensions>
			</trkpt>
			<trkpt lat="-27.557385" lon="153.073036">
				<ele>52.088</ele>
				<time>2015-07-03T22:45:05Z</time>
				<extensions>
				</extensions>
			</trkpt>
			<trkpt lat="-27.557587" lon="153.073205">
				<ele>52.093</ele>
				<time>2015-07-03T22:45:06Z</time>
				<extensions>
				</extensions>
			</trkpt>
			<trkpt lat="-27.557787" lon="153.073376">
				<ele>52.598</ele>
				<time>2015-07-03T22:45:07Z</time>
				<extensions>
				</extensions>
			</trkpt>
			<trkpt lat="-27.557981" lon="153.073550">
				<ele>52.598</ele>
				<time>2015-07-03T22:45:08Z</time>
				<extensions>
				</extensions>
			</trkpt>
			<trkpt lat="-27.558180" lon="153.073718">
				<ele>51.687</ele>
				<time>2015-07-03T22:45:09Z</time>
				<extensions>
				</extensions>
			</trkpt>
			<trkpt lat="-27.558376" lon="153.073890">
				<ele>50.209</ele>
				<time>2015-07-03T22:45:10Z</time>
				<extensions>
				</extensions>
			</trkpt>
			<trkpt lat="-27.558570" lon="153.074067">
				<ele>48.522</ele>
				<time>2015-07-03T22:45:11Z</time>
				<extensions>
				</extensions>
			</trkpt>
			<trkpt lat="-27.558755" lon="153.074238">
				<ele>48.025</ele>
				<time>2015-07-03T22:45:12Z</time>
				<extensions>
				</extensions>
			</trkpt>
			<trkpt lat="-27.558947" lon="153.074411">
				<ele>46.705</ele>
				<time>2015-07-03T22:45:13Z</time>
				<extensions>
				</extensions>
			</trkpt>
			<trkpt lat="-27.559133" lon="153.074587">
				<ele>47.888</ele>
				<time>2015-07-03T22:45:14Z</time>
				<extensions>
				</extensions>
			</trkpt>
			<trkpt lat="-27.559325" lon="153.074763">
				<ele>48.400</ele>
				<time>2015-07-03T22:45:15Z</time>
				<extensions>
				</extensions>
			</trkpt>
			<trkpt lat="-27.559512" lon="153.074946">
				<ele>46.778</ele>
				<time>2015-07-03T22:45:16Z</time>
				<extensions>
				</extensions>
			</trkpt>
			<trkpt lat="-27.559699" lon="153.075126">
				<ele>46.458</ele>
				<time>2015-07-03T22:45:17Z</time>
				<extensions>
				</extensions>
			</trkpt>
			<trkpt lat="-27.559879" lon="153.075305">
				<ele>46.523</ele>
				<time>2015-07-03T22:45:18Z</time>
				<extensions>
				</extensions>
			</trkpt>
			<trkpt lat="-27.560057" lon="153.075485">
				<ele>47.094</ele>
				<time>2015-07-03T22:45:19Z</time>
				<extensions>
				</extensions>
			</trkpt>
			<trkpt lat="-27.560227" lon="153.075660">
				<ele>45.516</ele>
				<time>2015-07-03T22:45:20Z</time>
				<extensions>
				</extensions>
			</trkpt>
			<trkpt lat="-27.560394" lon="153.075836">
				<ele>45.771</ele>
				<time>2015-07-03T22:45:21Z</time>
				<extensions>
				</extensions>
			</trkpt>
			<trkpt lat="-27.560561" lon="153.076013">
				<ele>44.811</ele>
				<time>2015-07-03T22:45:22Z</time>
				<extensions>
				</extensions>
			</trkpt>
			<trkpt lat="-27.560731" lon="153.076190">
				<ele>44.407</ele>
				<time>2015-07-03T22:45:23Z</time>
				<extensions>
				</extensions>
			</trkpt>
			<trkpt lat="-27.560893" lon="153.076369">
				<ele>46.279</ele>
				<time>2015-07-03T22:45:24Z</time>
				<extensions>
				</extensions>
			</trkpt>
			<trkpt lat="-27.561059" lon="153.076546">
				<ele>48.289</ele>
				<time>2015-07-03T22:45:25Z</time>
				<extensions>
				</extensions>
			</trkpt>
			<trkpt lat="-27.561221" lon="153.076727">
				<ele>45.498</ele>
				<time>2015-07-03T22:45:26Z</time>
				<extensions>
				</extensions>
			</trkpt>
			<trkpt lat="-27.561388" lon="153.076919">
				<ele>44.379</ele>
				<time>2015-07-03T22:45:27Z</time>
				<extensions>
				</extensions>
			</trkpt>
			<trkpt lat="-27.561540" lon="153.077110">
				<ele>44.868</ele>
				<time>2015-07-03T22:45:28Z</time>
				<extensions>
				</extensions>
			</trkpt>
			<trkpt lat="-27.561695" lon="153.077300">
				<ele>46.017</ele>
				<time>2015-07-03T22:45:29Z</time>
				<extensions>
				</extensions>
			</trkpt>
			<trkpt lat="-27.561857" lon="153.077495">
				<ele>48.731</ele>
				<time>2015-07-03T22:45:30Z</time>
				<extensions>
				</extensions>
			</trkpt>
			<trkpt lat="-27.562018" lon="153.077693">
				<ele>48.281</ele>
				<time>2015-07-03T22:45:31Z</time>
				<extensions>
				</extensions>
			</trkpt>
			<trkpt lat="-27.562179" lon="153.077892">
				<ele>49.189</ele>
				<time>2015-07-03T22:45:32Z</time>
				<extensions>
				</extensions>
			</trkpt>
			<trkpt lat="-27.562333" lon="153.078094">
				<ele>49.948</ele>
				<time>2015-07-03T22:45:33Z</time>
				<extensions>
				</extensions>
			</trkpt>
			<trkpt lat="-27.562488" lon="153.078298">
				<ele>51.441</ele>
				<time>2015-07-03T22:45:34Z</time>
				<extensions>
				</extensions>
			</trkpt>
			<trkpt lat="-27.562640" lon="153.078499">
				<ele>51.657</ele>
				<time>2015-07-03T22:45:35Z</time>
				<extensions>
				</extensions>
			</trkpt>
			<trkpt lat="-27.562787" lon="153.078698">
				<ele>52.453</ele>
				<time>2015-07-03T22:45:36Z</time>
				<extensions>
				</extensions>
			</trkpt>
			<trkpt lat="-27.562931" lon="153.078897">
				<ele>53.214</ele>
				<time>2015-07-03T22:45:37Z</time>
				<extensions>
				</extensions>
			</trkpt>
			<trkpt lat="-27.563075" lon="153.079098">
				<ele>53.175</ele>
				<time>2015-07-03T22:45:38Z</time>
				<extensions>
				</extensions>
			</trkpt>
			<trkpt lat="-27.563221" lon="153.079302">
				<ele>56.012</ele>
				<time>2015-07-03T22:45:39Z</time>
				<extensions>
				</extensions>
			</trkpt>
			<trkpt lat="-27.563359" lon="153.079509">
				<ele>57.257</ele>
				<time>2015-07-03T22:45:40Z</time>
				<extensions>
				</extensions>
			</trkpt>
			<trkpt lat="-27.563499" lon="153.079716">
				<ele>56.869</ele>
				<time>2015-07-03T22:45:41Z</time>
				<extensions>
				</extensions>
			</trkpt>
			<trkpt lat="-27.563635" lon="153.079921">
				<ele>56.110</ele>
				<time>2015-07-03T22:45:42Z</time>
				<extensions>
				</extensions>
			</trkpt>
			<trkpt lat="-27.563771" lon="153.080131">
				<ele>55.468</ele>
				<time>2015-07-03T22:45:43Z</time>
				<extensions>
				</extensions>
			</trkpt>
			<trkpt lat="-27.563908" lon="153.080342">
				<ele>56.142</ele>
				<time>2015-07-03T22:45:44Z</time>
				<extensions>
				</extensions>
			</trkpt>
			<trkpt lat="-27.564043" lon="153.080557">
				<ele>57.388</ele>
				<time>2015-07-03T22:45:45Z</time>
				<extensions>
				</extensions>
			</trkpt>
			<trkpt lat="-27.564185" lon="153.080776">
				<ele>59.704</ele>
				<time>2015-07-03T22:45:46Z</time>
				<extensions>
				</extensions>
			</trkpt>
			<trkpt lat="-27.564322" lon="153.080991">
				<ele>58.361</ele>
				<time>2015-07-03T22:45:47Z</time>
				<extensions>
				</extensions>
			</trkpt>
			<trkpt lat="-27.564456" lon="153.081208">
				<ele>56.282</ele>
				<time>2015-07-03T22:45:48Z</time>
				<extensions>
				</extensions>
			</trkpt>
			<trkpt lat="-27.564590" lon="153.081420">
				<ele>56.416</ele>
				<time>2015-07-03T22:45:49Z</time>
				<extensions>
				</extensions>
			</trkpt>
			<trkpt lat="-27.564726" lon="153.081634">
				<ele>55.900</ele>
				<time>2015-07-03T22:45:50Z</time>
				<extensions>
				</extensions>
			</trkpt>
			<trkpt lat="-27.564865" lon="153.081845">
				<ele>54.115</ele>
				<time>2015-07-03T22:45:51Z</time>
				<extensions>
				</extensions>
			</trkpt>
			<trkpt lat="-27.565003" lon="153.082060">
				<ele>53.244</ele>
				<time>2015-07-03T22:45:52Z</time>
				<extensions>
				</extensions>
			</trkpt>
			<trkpt lat="-27.565139" lon="153.082274">
				<ele>52.487</ele>
				<time>2015-07-03T22:45:53Z</time>
				<extensions>
				</extensions>
			</trkpt>
			<trkpt lat="-27.565275" lon="153.082491">
				<ele>51.385</ele>
				<time>2015-07-03T22:45:54Z</time>
				<extensions>
				</extensions>
			</trkpt>
			<trkpt lat="-27.565408" lon="153.082709">
				<ele>51.122</ele>
				<time>2015-07-03T22:45:55Z</time>
				<extensions>
				</extensions>
			</trkpt>
			<trkpt lat="-27.565544" lon="153.082922">
				<ele>50.057</ele>
				<time>2015-07-03T22:45:56Z</time>
				<extensions>
				</extensions>
			</trkpt>
			<trkpt lat="-27.565683" lon="153.083140">
				<ele>50.517</ele>
				<time>2015-07-03T22:45:57Z</time>
				<extensions>
				</extensions>
			</trkpt>
			<trkpt lat="-27.565818" lon="153.083355">
				<ele>50.122</ele>
				<time>2015-07-03T22:45:58Z</time>
				<extensions>
				</extensions>
			</trkpt>
			<trkpt lat="-27.565960" lon="153.083577">
				<ele>48.819</ele>
				<time>2015-07-03T22:45:59Z</time>
				<extensions>
				</extensions>
			</trkpt>
			<trkpt lat="-27.566103" lon="153.083802">
				<ele>47.653</ele>
				<time>2015-07-03T22:46:00Z</time>
				<extensions>
				</extensions>
			</trkpt>
			<trkpt lat="-27.566243" lon="153.084022">
				<ele>46.412</ele>
				<time>2015-07-03T22:46:01Z</time>
				<extensions>
				</extensions>
			</trkpt>
			<trkpt lat="-27.566382" lon="153.084230">
				<ele>45.459</ele>
				<time>2015-07-03T22:46:02Z</time>
				<extensions>
				</extensions>
			</trkpt>
			<trkpt lat="-27.566526" lon="153.084457">
				<ele>44.632</ele>
				<time>2015-07-03T22:46:03Z</time>
				<extensions>
				</extensions>
			</trkpt>
			<trkpt lat="-27.566666" lon="153.084669">
				<ele>43.721</ele>
				<time>2015-07-03T22:46:04Z</time>
				<extensions>
				</extensions>
			</trkpt>
			<trkpt lat="-27.566809" lon="153.084890">
				<ele>42.611</ele>
				<time>2015-07-03T22:46:05Z</time>
				<extensions>
				</extensions>
			</trkpt>
			<trkpt lat="-27.566951" lon="153.085109">
				<ele>42.610</ele>
				<time>2015-07-03T22:46:06Z</time>
				<extensions>
				</extensions>
			</trkpt>
			<trkpt lat="-27.567099" lon="153.085332">
				<ele>41.129</ele>
				<time>2015-07-03T22:46:07Z</time>
				<extensions>
				</extensions>
			</trkpt>
			<trkpt lat="-27.567246" lon="153.085561">
				<ele>39.139</ele>
				<time>2015-07-03T22:46:08Z</time>
				<extensions>
				</extensions>
			</trkpt>
			<trkpt lat="-27.567390" lon="153.085792">
				<ele>39.139</ele>
				<time>2015-07-03T22:46:09Z</time>
				<extensions>
				</extensions>
			</trkpt>
			<trkpt lat="-27.567530" lon="153.086020">
				<ele>38.200</ele>
				<time>2015-07-03T22:46:10Z</time>
				<extensions>
				</extensions>
			</trkpt>
			<trkpt lat="-27.567673" lon="153.086242">
				<ele>37.473</ele>
				<time>2015-07-03T22:46:11Z</time>
				<extensions>
				</extensions>
			</trkpt>
			<trkpt lat="-27.567804" lon="153.086464">
				<ele>36.657</ele>
				<time>2015-07-03T22:46:12Z</time>
				<extensions>
				</extensions>
			</trkpt>
			<trkpt lat="-27.567938" lon="153.086688">
				<ele>35.708</ele>
				<time>2015-07-03T22:46:13Z</time>
				<extensions>
				</extensions>
			</trkpt>
			<trkpt lat="-27.568069" lon="153.086919">
				<ele>35.527</ele>
				<time>2015-07-03T22:46:14Z</time>
				<extensions>
				</extensions>
			</trkpt>
			<trkpt lat="-27.568204" lon="153.087150">
				<ele>34.728</ele>
				<time>2015-07-03T22:46:15Z</time>
				<extensions>
				</extensions>
			</trkpt>
			<trkpt lat="-27.568333" lon="153.087363">
				<ele>33.686</ele>
				<time>2015-07-03T22:46:16Z</time>
				<extensions>
				</extensions>
			</trkpt>
			<trkpt lat="-27.568454" lon="153.087593">
				<ele>33.260</ele>
				<time>2015-07-03T22:46:17Z</time>
				<extensions>
				</extensions>
			</trkpt>
			<trkpt lat="-27.568572" lon="153.087819">
				<ele>33.994</ele>
				<time>2015-07-03T22:46:18Z</time>
				<extensions>
				</extensions>
			</trkpt>
			<trkpt lat="-27.568701" lon="153.088036">
				<ele>34.484</ele>
				<time>2015-07-03T22:46:19Z</time>
				<extensions>
				</extensions>
			</trkpt>
			<trkpt lat="-27.568817" lon="153.088264">
				<ele>33.978</ele>
				<time>2015-07-03T22:46:20Z</time>
				<extensions>
				</extensions>
			</trkpt>
			<trkpt lat="-27.568940" lon="153.088496">
				<ele>34.451</ele>
				<time>2015-07-03T22:46:21Z</time>
				<extensions>
				</extensions>
			</trkpt>
			<trkpt lat="-27.569069" lon="153.088735">
				<ele>35.888</ele>
				<time>2015-07-03T22:46:22Z</time>
				<extensions>
				</extensions>
			</trkpt>
			<trkpt lat="-27.569196" lon="153.088961">
				<ele>39.126</ele>
				<time>2015-07-03T22:46:23Z</time>
				<extensions>
				</extensions>
			</trkpt>
			<trkpt lat="-27.569320" lon="153.089198">
				<ele>40.063</ele>
				<time>2015-07-03T22:46:24Z</time>
				<extensions>
				</extensions>
			</trkpt>
			<trkpt lat="-27.569447" lon="153.089436">
				<ele>38.921</ele>
				<time>2015-07-03T22:46:25Z</time>
				<extensions>
				</extensions>
			</trkpt>
			<trkpt lat="-27.569570" lon="153.089668">
				<ele>38.087</ele>
				<time>2015-07-03T22:46:26Z</time>
				<extensions>
				</extensions>
			</trkpt>
			<trkpt lat="-27.569692" lon="153.089889">
				<ele>41.420</ele>
				<time>2015-07-03T22:46:27Z</time>
				<extensions>
				</extensions>
			</trkpt>
			<trkpt lat="-27.569814" lon="153.090120">
				<ele>41.980</ele>
				<time>2015-07-03T22:46:28Z</time>
				<extensions>
				</extensions>
			</trkpt>
			<trkpt lat="-27.569936" lon="153.090351">
				<ele>42.392</ele>
				<time>2015-07-03T22:46:29Z</time>
				<extensions>
				</extensions>
			</trkpt>
			<trkpt lat="-27.570060" lon="153.090575">
				<ele>42.157</ele>
				<time>2015-07-03T22:46:30Z</time>
				<extensions>
				</extensions>
			</trkpt>
			<trkpt lat="-27.570176" lon="153.090794">
				<ele>42.736</ele>
				<time>2015-07-03T22:46:31Z</time>
				<extensions>
				</extensions>
			</trkpt>
			<trkpt lat="-27.570297" lon="153.091014">
				<ele>41.990</ele>
				<time>2015-07-03T22:46:32Z</time>
				<extensions>
				</extensions>
			</trkpt>
			<trkpt lat="-27.570421" lon="153.091242">
				<ele>41.905</ele>
				<time>2015-07-03T22:46:33Z</time>
				<extensions>
				</extensions>
			</trkpt>
			<trkpt lat="-27.570547" lon="153.091471">
				<ele>44.091</ele>
				<time>2015-07-03T22:46:34Z</time>
				<extensions>
				</extensions>
			</trkpt>
			<trkpt lat="-27.570673" lon="153.091699">
				<ele>43.107</ele>
				<time>2015-07-03T22:46:35Z</time>
				<extensions>
				</extensions>
			</trkpt>
			<trkpt lat="-27.570796" lon="153.091929">
				<ele>43.649</ele>
				<time>2015-07-03T22:46:36Z</time>
				<extensions>
				</extensions>
			</trkpt>
			<trkpt lat="-27.570919" lon="153.092160">
				<ele>43.592</ele>
				<time>2015-07-03T22:46:37Z</time>
				<extensions>
				</extensions>
			</trkpt>
			<trkpt lat="-27.571047" lon="153.092387">
				<ele>42.844</ele>
				<time>2015-07-03T22:46:38Z</time>
				<extensions>
				</extensions>
			</trkpt>
			<trkpt lat="-27.571179" lon="153.092621">
				<ele>42.735</ele>
				<time>2015-07-03T22:46:39Z</time>
				<extensions>
				</extensions>
			</trkpt>
			<trkpt lat="-27.571304" lon="153.092850">
				<ele>42.130</ele>
				<time>2015-07-03T22:46:40Z</time>
				<extensions>
				</extensions>
			</trkpt>
			<trkpt lat="-27.571428" lon="153.093079">
				<ele>41.986</ele>
				<time>2015-07-03T22:46:41Z</time>
				<extensions>
				</extensions>
			</trkpt>
			<trkpt lat="-27.571554" lon="153.093307">
				<ele>40.934</ele>
				<time>2015-07-03T22:46:42Z</time>
				<extensions>
				</extensions>
			</trkpt>
			<trkpt lat="-27.571678" lon="153.093525">
				<ele>40.257</ele>
				<time>2015-07-03T22:46:43Z</time>
				<extensions>
				</extensions>
			</trkpt>
			<trkpt lat="-27.571804" lon="153.093754">
				<ele>40.705</ele>
				<time>2015-07-03T22:46:44Z</time>
				<extensions>
				</extensions>
			</trkpt>
			<trkpt lat="-27.571931" lon="153.093982">
				<ele>41.236</ele>
				<time>2015-07-03T22:46:45Z</time>
				<extensions>
				</extensions>
			</trkpt>
			<trkpt lat="-27.572060" lon="153.094206">
				<ele>40.229</ele>
				<time>2015-07-03T22:46:46Z</time>
				<extensions>
				</extensions>
			</trkpt>
			<trkpt lat="-27.572184" lon="153.094433">
				<ele>40.324</ele>
				<time>2015-07-03T22:46:47Z</time>
				<extensions>
				</extensions>
			</trkpt>
			<trkpt lat="-27.572304" lon="153.094652">
				<ele>40.701</ele>
				<time>2015-07-03T22:46:48Z</time>
				<extensions>
				</extensions>
			</trkpt>
			<trkpt lat="-27.572420" lon="153.094877">
				<ele>39.117</ele>
				<time>2015-07-03T22:46:49Z</time>
				<extensions>
				</extensions>
			</trkpt>
			<trkpt lat="-27.572540" lon="153.095103">
				<ele>38.027</ele>
				<time>2015-07-03T22:46:50Z</time>
				<extensions>
				</extensions>
			</trkpt>
			<trkpt lat="-27.572655" lon="153.095324">
				<ele>38.818</ele>
				<time>2015-07-03T22:46:51Z</time>
				<extensions>
				</extensions>
			</trkpt>
			<trkpt lat="-27.572773" lon="153.095537">
				<ele>38.952</ele>
				<time>2015-07-03T22:46:52Z</time>
				<extensions>
				</extensions>
			</trkpt>
			<trkpt lat="-27.572896" lon="153.095752">
				<ele>38.727</ele>
				<time>2015-07-03T22:46:53Z</time>
				<extensions>
				</extensions>
			</trkpt>
			<trkpt lat="-27.573017" lon="153.095970">
				<ele>37.123</ele>
				<time>2015-07-03T22:46:54Z</time>
				<extensions>
				</extensions>
			</trkpt>
			<trkpt lat="-27.573138" lon="153.096179">
				<ele>39.271</ele>
				<time>2015-07-03T22:46:55Z</time>
				<extensions>
				</extensions>
			</trkpt>
			<trkpt lat="-27.573267" lon="153.096384">
				<ele>38.887</ele>
				<time>2015-07-03T22:46:56Z</time>
				<extensions>
				</extensions>
			</trkpt>
			<trkpt lat="-27.573389" lon="153.096591">
				<ele>39.959</ele>
				<time>2015-07-03T22:46:57Z</time>
				<extensions>
				</extensions>
			</trkpt>
			<trkpt lat="-27.573515" lon="153.096792">
				<ele>41.592</ele>
				<time>2015-07-03T22:46:58Z</time>
				<extensions>
				</extensions>
			</trkpt>
			<trkpt lat="-27.573647" lon="153.096998">
				<ele>42.029</ele>
				<time>2015-07-03T22:46:59Z</time>
				<extensions>
				</extensions>
			</trkpt>
			<trkpt lat="-27.573792" lon="153.097205">
				<ele>43.832</ele>
				<time>2015-07-03T22:47:00Z</time>
				<extensions>
				</extensions>
			</trkpt>
			<trkpt lat="-27.573934" lon="153.097410">
				<ele>44.518</ele>
				<time>2015-07-03T22:47:01Z</time>
				<extensions>
				</extensions>
			</trkpt>
			<trkpt lat="-27.574085" lon="153.097614">
				<ele>44.582</ele>
				<time>2015-07-03T22:47:02Z</time>
				<extensions>
				</extensions>
			</trkpt>
			<trkpt lat="-27.574242" lon="153.097812">
				<ele>43.066</ele>
				<time>2015-07-03T22:47:03Z</time>
				<extensions>
				</extensions>
			</trkpt>
			<trkpt lat="-27.574401" lon="153.098002">
				<ele>44.015</ele>
				<time>2015-07-03T22:47:04Z</time>
				<extensions>
				</extensions>
			</trkpt>
			<trkpt lat="-27.574558" lon="153.098190">
				<ele>44.579</ele>
				<time>2015-07-03T22:47:05Z</time>
				<extensions>
				</extensions>
			</trkpt>
			<trkpt lat="-27.574713" lon="153.098376">
				<ele>45.507</ele>
				<time>2015-07-03T22:47:06Z</time>
				<extensions>
				</extensions>
			</trkpt>
			<trkpt lat="-27.574877" lon="153.098557">
				<ele>45.730</ele>
				<time>2015-07-03T22:47:07Z</time>
				<extensions>
				</extensions>
			</trkpt>
			<trkpt lat="-27.575040" lon="153.098734">
				<ele>44.585</ele>
				<time>2015-07-03T22:47:08Z</time>
				<extensions>
				</extensions>
			</trkpt>
			<trkpt lat="-27.575211" lon="153.098913">
				<ele>45.732</ele>
				<time>2015-07-03T22:47:09Z</time>
				<extensions>
				</extensions>
			</trkpt>
			<trkpt lat="-27.575381" lon="153.099086">
				<ele>43.814</ele>
				<time>2015-07-03T22:47:10Z</time>
				<extensions>
				</extensions>
			</trkpt>
			<trkpt lat="-27.575561" lon="153.099258">
				<ele>44.626</ele>
				<time>2015-07-03T22:47:11Z</time>
				<extensions>
				</extensions>
			</trkpt>
			<trkpt lat="-27.575740" lon="153.099431">
				<ele>44.626</ele>
				<time>2015-07-03T22:47:12Z</time>
				<extensions>
				</extensions>
			</trkpt>
			<trkpt lat="-27.575931" lon="153.099603">
				<ele>45.372</ele>
				<time>2015-07-03T22:47:13Z</time>
				<extensions>
				</extensions>
			</trkpt>
			<trkpt lat="-27.576127" lon="153.099766">
				<ele>44.875</ele>
				<time>2015-07-03T22:47:14Z</time>
				<extensions>
				</extensions>
			</trkpt>
			<trkpt lat="-27.576326" lon="153.099926">
				<ele>44.710</ele>
				<time>2015-07-03T22:47:15Z</time>
				<extensions>
				</extensions>
			</trkpt>
			<trkpt lat="-27.576521" lon="153.100088">
				<ele>44.168</ele>
				<time>2015-07-03T22:47:16Z</time>
				<extensions>
				</extensions>
			</trkpt>
			<trkpt lat="-27.576724" lon="153.100247">
				<ele>43.096</ele>
				<time>2015-07-03T22:47:17Z</time>
				<extensions>
				</extensions>
			</trkpt>
			<trkpt lat="-27.576934" lon="153.100398">
				<ele>42.394</ele>
				<time>2015-07-03T22:47:18Z</time>
				<extensions>
				</extensions>
			</trkpt>
			<trkpt lat="-27.577146" lon="153.100545">
				<ele>41.427</ele>
				<time>2015-07-03T22:47:19Z</time>
				<extensions>
				</extensions>
			</trkpt>
			<trkpt lat="-27.577346" lon="153.100680">
				<ele>40.246</ele>
				<time>2015-07-03T22:47:20Z</time>
				<extensions>
				</extensions>
			</trkpt>
			<trkpt lat="-27.577551" lon="153.100803">
				<ele>40.350</ele>
				<time>2015-07-03T22:47:21Z</time>
				<extensions>
				</extensions>
			</trkpt>
			<trkpt lat="-27.577759" lon="153.100939">
				<ele>39.147</ele>
				<time>2015-07-03T22:47:22Z</time>
				<extensions>
				</extensions>
			</trkpt>
			<trkpt lat="-27.577976" lon="153.101073">
				<ele>39.460</ele>
				<time>2015-07-03T22:47:23Z</time>
				<extensions>
				</extensions>
			</trkpt>
			<trkpt lat="-27.578199" lon="153.101208">
				<ele>38.820</ele>
				<time>2015-07-03T22:47:24Z</time>
				<extensions>
				</extensions>
			</trkpt>
			<trkpt lat="-27.578414" lon="153.101343">
				<ele>38.538</ele>
				<time>2015-07-03T22:47:25Z</time>
				<extensions>
				</extensions>
			</trkpt>
			<trkpt lat="-27.578629" lon="153.101478">
				<ele>37.073</ele>
				<time>2015-07-03T22:47:26Z</time>
				<extensions>
				</extensions>
			</trkpt>
			<trkpt lat="-27.578841" lon="153.101611">
				<ele>35.299</ele>
				<time>2015-07-03T22:47:27Z</time>
				<extensions>
				</extensions>
			</trkpt>
			<trkpt lat="-27.579046" lon="153.101758">
				<ele>33.571</ele>
				<time>2015-07-03T22:47:28Z</time>
				<extensions>
				</extensions>
			</trkpt>
			<trkpt lat="-27.579241" lon="153.101888">
				<ele>32.529</ele>
				<time>2015-07-03T22:47:29Z</time>
				<extensions>
				</extensions>
			</trkpt>
			<trkpt lat="-27.579430" lon="153.102011">
				<ele>30.385</ele>
				<time>2015-07-03T22:47:30Z</time>
				<extensions>
				</extensions>
			</trkpt>
			<trkpt lat="-27.579611" lon="153.102129">
				<ele>29.118</ele>
				<time>2015-07-03T22:47:31Z</time>
				<extensions>
				</extensions>
			</trkpt>
			<trkpt lat="-27.579797" lon="153.102245">
				<ele>28.455</ele>
				<time>2015-07-03T22:47:32Z</time>
				<extensions>
				</extensions>
			</trkpt>
			<trkpt lat="-27.579985" lon="153.102363">
				<ele>29.424</ele>
				<time>2015-07-03T22:47:33Z</time>
				<extensions>
				</extensions>
			</trkpt>
			<trkpt lat="-27.580174" lon="153.102491">
				<ele>29.776</ele>
				<time>2015-07-03T22:47:34Z</time>
				<extensions>
				</extensions>
			</trkpt>
			<trkpt lat="-27.580370" lon="153.102616">
				<ele>29.537</ele>
				<time>2015-07-03T22:47:35Z</time>
				<extensions>
				</extensions>
			</trkpt>
			<trkpt lat="-27.580574" lon="153.102746">
				<ele>30.829</ele>
				<time>2015-07-03T22:47:36Z</time>
				<extensions>
				</extensions>
			</trkpt>
			<trkpt lat="-27.580779" lon="153.102877">
				<ele>31.870</ele>
				<time>2015-07-03T22:47:37Z</time>
				<extensions>
				</extensions>
			</trkpt>
			<trkpt lat="-27.580985" lon="153.103012">
				<ele>33.896</ele>
				<time>2015-07-03T22:47:38Z</time>
				<extensions>
				</extensions>
			</trkpt>
			<trkpt lat="-27.581193" lon="153.103146">
				<ele>33.029</ele>
				<time>2015-07-03T22:47:39Z</time>
				<extensions>
				</extensions>
			</trkpt>
			<trkpt lat="-27.581406" lon="153.103284">
				<ele>31.958</ele>
				<time>2015-07-03T22:47:40Z</time>
				<extensions>
				</extensions>
			</trkpt>
			<trkpt lat="-27.581617" lon="153.103422">
				<ele>32.184</ele>
				<time>2015-07-03T22:47:41Z</time>
				<extensions>
				</extensions>
			</trkpt>
			<trkpt lat="-27.581825" lon="153.103561">
				<ele>31.827</ele>
				<time>2015-07-03T22:47:42Z</time>
				<extensions>
				</extensions>
			</trkpt>
			<trkpt lat="-27.582028" lon="153.103696">
				<ele>31.864</ele>
				<time>2015-07-03T22:47:43Z</time>
				<extensions>
				</extensions>
			</trkpt>
			<trkpt lat="-27.582233" lon="153.103824">
				<ele>31.560</ele>
				<time>2015-07-03T22:47:44Z</time>
				<extensions>
				</extensions>
			</trkpt>
			<trkpt lat="-27.582438" lon="153.103959">
				<ele>31.723</ele>
				<time>2015-07-03T22:47:45Z</time>
				<extensions>
				</extensions>
			</trkpt>
			<trkpt lat="-27.582648" lon="153.104090">
				<ele>32.128</ele>
				<time>2015-07-03T22:47:46Z</time>
				<extensions>
				</extensions>
			</trkpt>
			<trkpt lat="-27.582859" lon="153.104226">
				<ele>33.036</ele>
				<time>2015-07-03T22:47:47Z</time>
				<extensions>
				</extensions>
			</trkpt>
			<trkpt lat="-27.583067" lon="153.104354">
				<ele>32.832</ele>
				<time>2015-07-03T22:47:48Z</time>
				<extensions>
				</extensions>
			</trkpt>
			<trkpt lat="-27.583279" lon="153.104485">
				<ele>33.022</ele>
				<time>2015-07-03T22:47:49Z</time>
				<extensions>
				</extensions>
			</trkpt>
			<trkpt lat="-27.583486" lon="153.104615">
				<ele>33.177</ele>
				<time>2015-07-03T22:47:50Z</time>
				<extensions>
				</extensions>
			</trkpt>
			<trkpt lat="-27.583693" lon="153.104752">
				<ele>34.090</ele>
				<time>2015-07-03T22:47:51Z</time>
				<extensions>
				</extensions>
			</trkpt>
			<trkpt lat="-27.583905" lon="153.104882">
				<ele>35.747</ele>
				<time>2015-07-03T22:47:52Z</time>
				<extensions>
				</extensions>
			</trkpt>
			<trkpt lat="-27.584110" lon="153.105010">
				<ele>34.332</ele>
				<time>2015-07-03T22:47:53Z</time>
				<extensions>
				</extensions>
			</trkpt>
			<trkpt lat="-27.584315" lon="153.105144">
				<ele>33.859</ele>
				<time>2015-07-03T22:47:54Z</time>
				<extensions>
				</extensions>
			</trkpt>
			<trkpt lat="-27.584519" lon="153.105275">
				<ele>35.676</ele>
				<time>2015-07-03T22:47:55Z</time>
				<extensions>
				</extensions>
			</trkpt>
			<trkpt lat="-27.584733" lon="153.105411">
				<ele>35.070</ele>
				<time>2015-07-03T22:47:56Z</time>
				<extensions>
				</extensions>
			</trkpt>
			<trkpt lat="-27.584942" lon="153.105544">
				<ele>36.028</ele>
				<time>2015-07-03T22:47:57Z</time>
				<extensions>
				</extensions>
			</trkpt>
			<trkpt lat="-27.585144" lon="153.105677">
				<ele>34.354</ele>
				<time>2015-07-03T22:47:58Z</time>
				<extensions>
				</extensions>
			</trkpt>
			<trkpt lat="-27.585351" lon="153.105809">
				<ele>34.365</ele>
				<time>2015-07-03T22:47:59Z</time>
				<extensions>
				</extensions>
			</trkpt>
			<trkpt lat="-27.585553" lon="153.105944">
				<ele>34.950</ele>
				<time>2015-07-03T22:48:00Z</time>
				<extensions>
				</extensions>
			</trkpt>
			<trkpt lat="-27.585760" lon="153.106080">
				<ele>36.050</ele>
				<time>2015-07-03T22:48:01Z</time>
				<extensions>
				</extensions>
			</trkpt>
			<trkpt lat="-27.585967" lon="153.106212">
				<ele>36.274</ele>
				<time>2015-07-03T22:48:02Z</time>
				<extensions>
				</extensions>
			</trkpt>
			<trkpt lat="-27.586171" lon="153.106348">
				<ele>37.194</ele>
				<time>2015-07-03T22:48:03Z</time>
				<extensions>
				</extensions>
			</trkpt>
			<trkpt lat="-27.586374" lon="153.106489">
				<ele>37.581</ele>
				<time>2015-07-03T22:48:04Z</time>
				<extensions>
				</extensions>
			</trkpt>
			<trkpt lat="-27.586585" lon="153.106621">
				<ele>35.218</ele>
				<time>2015-07-03T22:48:05Z</time>
				<extensions>
				</extensions>
			</trkpt>
			<trkpt lat="-27.586802" lon="153.106757">
				<ele>37.013</ele>
				<time>2015-07-03T22:48:06Z</time>
				<extensions>
				</extensions>
			</trkpt>
			<trkpt lat="-27.587015" lon="153.106891">
				<ele>37.241</ele>
				<time>2015-07-03T22:48:07Z</time>
				<extensions>
				</extensions>
			</trkpt>
			<trkpt lat="-27.587228" lon="153.107033">
				<ele>38.377</ele>
				<time>2015-07-03T22:48:08Z</time>
				<extensions>
				</extensions>
			</trkpt>
			<trkpt lat="-27.587444" lon="153.107173">
				<ele>37.607</ele>
				<time>2015-07-03T22:48:09Z</time>
				<extensions>
				</extensions>
			</trkpt>
			<trkpt lat="-27.587658" lon="153.107309">
				<ele>36.478</ele>
				<time>2015-07-03T22:48:10Z</time>
				<extensions>
				</extensions>
			</trkpt>
			<trkpt lat="-27.587865" lon="153.107442">
				<ele>37.374</ele>
				<time>2015-07-03T22:48:11Z</time>
				<extensions>
				</extensions>
			</trkpt>
			<trkpt lat="-27.588079" lon="153.107576">
				<ele>37.711</ele>
				<time>2015-07-03T22:48:12Z</time>
				<extensions>
				</extensions>
			</trkpt>
			<trkpt lat="-27.588275" lon="153.107706">
				<ele>37.711</ele>
				<time>2015-07-03T22:48:13Z</time>
				<extensions>
				</extensions>
			</trkpt>
			<trkpt lat="-27.588481" lon="153.107836">
				<ele>37.980</ele>
				<time>2015-07-03T22:48:14Z</time>
				<extensions>
				</extensions>
			</trkpt>
			<trkpt lat="-27.588689" lon="153.107972">
				<ele>36.584</ele>
				<time>2015-07-03T22:48:15Z</time>
				<extensions>
				</extensions>
			</trkpt>
			<trkpt lat="-27.588893" lon="153.108104">
				<ele>38.919</ele>
				<time>2015-07-03T22:48:16Z</time>
				<extensions>
				</extensions>
			</trkpt>
			<trkpt lat="-27.589096" lon="153.108235">
				<ele>40.162</ele>
				<time>2015-07-03T22:48:17Z</time>
				<extensions>
				</extensions>
			</trkpt>
			<trkpt lat="-27.589306" lon="153.108369">
				<ele>40.257</ele>
				<time>2015-07-03T22:48:18Z</time>
				<extensions>
				</extensions>
			</trkpt>
			<trkpt lat="-27.589515" lon="153.108503">
				<ele>39.706</ele>
				<time>2015-07-03T22:48:19Z</time>
				<extensions>
				</extensions>
			</trkpt>
			<trkpt lat="-27.589715" lon="153.108636">
				<ele>41.790</ele>
				<time>2015-07-03T22:48:20Z</time>
				<extensions>
				</extensions>
			</trkpt>
			<trkpt lat="-27.589914" lon="153.108768">
				<ele>39.860</ele>
				<time>2015-07-03T22:48:21Z</time>
				<extensions>
				</extensions>
			</trkpt>
			<trkpt lat="-27.590124" lon="153.108905">
				<ele>42.420</ele>
				<time>2015-07-03T22:48:22Z</time>
				<extensions>
				</extensions>
			</trkpt>
			<trkpt lat="-27.590331" lon="153.109037">
				<ele>41.595</ele>
				<time>2015-07-03T22:48:23Z</time>
				<extensions>
				</extensions>
			</trkpt>
			<trkpt lat="-27.590536" lon="153.109166">
				<ele>41.704</ele>
				<time>2015-07-03T22:48:24Z</time>
				<extensions>
				</extensions>
			</trkpt>
			<trkpt lat="-27.590735" lon="153.109286">
				<ele>42.850</ele>
				<time>2015-07-03T22:48:25Z</time>
				<extensions>
				</extensions>
			</trkpt>
			<trkpt lat="-27.590930" lon="153.109402">
				<ele>43.593</ele>
				<time>2015-07-03T22:48:26Z</time>
				<extensions>
				</extensions>
			</trkpt>
			<trkpt lat="-27.591134" lon="153.109529">
				<ele>42.065</ele>
				<time>2015-07-03T22:48:27Z</time>
				<extensions>
				</extensions>
			</trkpt>
			<trkpt lat="-27.591340" lon="153.109651">
				<ele>43.747</ele>
				<time>2015-07-03T22:48:28Z</time>
				<extensions>
				</extensions>
			</trkpt>
			<trkpt lat="-27.591544" lon="153.109784">
				<ele>43.497</ele>
				<time>2015-07-03T22:48:29Z</time>
				<extensions>
				</extensions>
			</trkpt>
			<trkpt lat="-27.591749" lon="153.109915">
				<ele>45.959</ele>
				<time>2015-07-03T22:48:30Z</time>
				<extensions>
				</extensions>
			</trkpt>
			<trkpt lat="-27.591955" lon="153.110041">
				<ele>45.872</ele>
				<time>2015-07-03T22:48:31Z</time>
				<extensions>
				</extensions>
			</trkpt>
			<trkpt lat="-27.592163" lon="153.110173">
				<ele>46.265</ele>
				<time>2015-07-03T22:48:32Z</time>
				<extensions>
				</extensions>
			</trkpt>
			<trkpt lat="-27.592366" lon="153.110306">
				<ele>45.858</ele>
				<time>2015-07-03T22:48:33Z</time>
				<extensions>
				</extensions>
			</trkpt>
			<trkpt lat="-27.592580" lon="153.110443">
				<ele>46.058</ele>
				<time>2015-07-03T22:48:34Z</time>
				<extensions>
				</extensions>
			</trkpt>
			<trkpt lat="-27.592789" lon="153.110580">
				<ele>46.237</ele>
				<time>2015-07-03T22:48:35Z</time>
				<extensions>
				</extensions>
			</trkpt>
			<trkpt lat="-27.593006" lon="153.110724">
				<ele>46.084</ele>
				<time>2015-07-03T22:48:36Z</time>
				<extensions>
				</extensions>
			</trkpt>
			<trkpt lat="-27.593217" lon="153.110862">
				<ele>46.493</ele>
				<time>2015-07-03T22:48:37Z</time>
				<extensions>
				</extensions>
			</trkpt>
			<trkpt lat="-27.593430" lon="153.110999">
				<ele>49.236</ele>
				<time>2015-07-03T22:48:38Z</time>
				<extensions>
				</extensions>
			</trkpt>
			<trkpt lat="-27.593637" lon="153.111133">
				<ele>48.470</ele>
				<time>2015-07-03T22:48:39Z</time>
				<extensions>
				</extensions>
			</trkpt>
			<trkpt lat="-27.593846" lon="153.111266">
				<ele>49.231</ele>
				<time>2015-07-03T22:48:40Z</time>
				<extensions>
				</extensions>
			</trkpt>
			<trkpt lat="-27.594053" lon="153.111401">
				<ele>48.803</ele>
				<time>2015-07-03T22:48:41Z</time>
				<extensions>
				</extensions>
			</trkpt>
			<trkpt lat="-27.594258" lon="153.111547">
				<ele>50.428</ele>
				<time>2015-07-03T22:48:42Z</time>
				<extensions>
				</extensions>
			</trkpt>
			<trkpt lat="-27.594473" lon="153.111679">
				<ele>50.060</ele>
				<time>2015-07-03T22:48:43Z</time>
				<extensions>
				</extensions>
			</trkpt>
			<trkpt lat="-27.594683" lon="153.111805">
				<ele>49.760</ele>
				<time>2015-07-03T22:48:44Z</time>
				<extensions>
				</extensions>
			</trkpt>
			<trkpt lat="-27.594900" lon="153.111940">
				<ele>51.211</ele>
				<time>2015-07-03T22:48:45Z</time>
				<extensions>
				</extensions>
			</trkpt>
			<trkpt lat="-27.595108" lon="153.112072">
				<ele>54.166</ele>
				<time>2015-07-03T22:48:46Z</time>
				<extensions>
				</extensions>
			</trkpt>
			<trkpt lat="-27.595323" lon="153.112197">
				<ele>54.140</ele>
				<time>2015-07-03T22:48:47Z</time>
				<extensions>
				</extensions>
			</trkpt>
			<trkpt lat="-27.595533" lon="153.112329">
				<ele>53.507</ele>
				<time>2015-07-03T22:48:48Z</time>
				<extensions>
				</extensions>
			</trkpt>
			<trkpt lat="-27.595747" lon="153.112468">
				<ele>54.849</ele>
				<time>2015-07-03T22:48:49Z</time>
				<extensions>
				</extensions>
			</trkpt>
			<trkpt lat="-27.595963" lon="153.112608">
				<ele>54.468</ele>
				<time>2015-07-03T22:48:50Z</time>
				<extensions>
				</extensions>
			</trkpt>
			<trkpt lat="-27.596172" lon="153.112746">
				<ele>54.646</ele>
				<time>2015-07-03T22:48:51Z</time>
				<extensions>
				</extensions>
			</trkpt>
			<trkpt lat="-27.596383" lon="153.112881">
				<ele>56.368</ele>
				<time>2015-07-03T22:48:52Z</time>
				<extensions>
				</extensions>
			</trkpt>
			<trkpt lat="-27.596600" lon="153.113013">
				<ele>56.470</ele>
				<time>2015-07-03T22:48:53Z</time>
				<extensions>
				</extensions>
			</trkpt>
			<trkpt lat="-27.596816" lon="153.113154">
				<ele>56.294</ele>
				<time>2015-07-03T22:48:54Z</time>
				<extensions>
				</extensions>
			</trkpt>
			<trkpt lat="-27.597035" lon="153.113296">
				<ele>54.361</ele>
				<time>2015-07-03T22:48:55Z</time>
				<extensions>
				</extensions>
			</trkpt>
			<trkpt lat="-27.597243" lon="153.113434">
				<ele>54.254</ele>
				<time>2015-07-03T22:48:56Z</time>
				<extensions>
				</extensions>
			</trkpt>
			<trkpt lat="-27.597447" lon="153.113573">
				<ele>54.782</ele>
				<time>2015-07-03T22:48:57Z</time>
				<extensions>
				</extensions>
			</trkpt>
			<trkpt lat="-27.597657" lon="153.113709">
				<ele>52.910</ele>
				<time>2015-07-03T22:48:58Z</time>
				<extensions>
				</extensions>
			</trkpt>
			<trkpt lat="-27.597869" lon="153.113848">
				<ele>52.910</ele>
				<time>2015-07-03T22:48:59Z</time>
				<extensions>
				</extensions>
			</trkpt>
			<trkpt lat="-27.598081" lon="153.113987">
				<ele>51.906</ele>
				<time>2015-07-03T22:49:00Z</time>
				<extensions>
				</extensions>
			</trkpt>
			<trkpt lat="-27.598290" lon="153.114120">
				<ele>52.225</ele>
				<time>2015-07-03T22:49:01Z</time>
				<extensions>
				</extensions>
			</trkpt>
			<trkpt lat="-27.598493" lon="153.114254">
				<ele>50.602</ele>
				<time>2015-07-03T22:49:02Z</time>
				<extensions>
				</extensions>
			</trkpt>
			<trkpt lat="-27.598702" lon="153.114389">
				<ele>49.853</ele>
				<time>2015-07-03T22:49:03Z</time>
				<extensions>
				</extensions>
			</trkpt>
			<trkpt lat="-27.598908" lon="153.114515">
				<ele>51.020</ele>
				<time>2015-07-03T22:49:04Z</time>
				<extensions>
				</extensions>
			</trkpt>
			<trkpt lat="-27.599115" lon="153.114646">
				<ele>49.846</ele>
				<time>2015-07-03T22:49:05Z</time>
				<extensions>
				</extensions>
			</trkpt>
			<trkpt lat="-27.599326" lon="153.114781">
				<ele>50.210</ele>
				<time>2015-07-03T22:49:06Z</time>
				<extensions>
				</extensions>
			</trkpt>
			<trkpt lat="-27.599528" lon="153.114912">
				<ele>48.674</ele>
				<time>2015-07-03T22:49:07Z</time>
				<extensions>
				</extensions>
			</trkpt>
			<trkpt lat="-27.599730" lon="153.115035">
				<ele>47.372</ele>
				<time>2015-07-03T22:49:08Z</time>
				<extensions>
				</extensions>
			</trkpt>
			<trkpt lat="-27.599929" lon="153.115157">
				<ele>47.330</ele>
				<time>2015-07-03T22:49:09Z</time>
				<extensions>
				</extensions>
			</trkpt>
			<trkpt lat="-27.600123" lon="153.115282">
				<ele>47.589</ele>
				<time>2015-07-03T22:49:10Z</time>
				<extensions>
				</extensions>
			</trkpt>
			<trkpt lat="-27.600326" lon="153.115415">
				<ele>46.595</ele>
				<time>2015-07-03T22:49:11Z</time>
				<extensions>
				</extensions>
			</trkpt>
			<trkpt lat="-27.600532" lon="153.115551">
				<ele>46.391</ele>
				<time>2015-07-03T22:49:12Z</time>
				<extensions>
				</extensions>
			</trkpt>
			<trkpt lat="-27.600737" lon="153.115696">
				<ele>46.646</ele>
				<time>2015-07-03T22:49:13Z</time>
				<extensions>
				</extensions>
			</trkpt>
			<trkpt lat="-27.600953" lon="153.115832">
				<ele>44.778</ele>
				<time>2015-07-03T22:49:14Z</time>
				<extensions>
				</extensions>
			</trkpt>
			<trkpt lat="-27.601171" lon="153.115969">
				<ele>45.506</ele>
				<time>2015-07-03T22:49:15Z</time>
				<extensions>
				</extensions>
			</trkpt>
			<trkpt lat="-27.601393" lon="153.116112">
				<ele>45.506</ele>
				<time>2015-07-03T22:49:16Z</time>
				<extensions>
				</extensions>
			</trkpt>
			<trkpt lat="-27.601611" lon="153.116249">
				<ele>44.308</ele>
				<time>2015-07-03T22:49:17Z</time>
				<extensions>
				</extensions>
			</trkpt>
			<trkpt lat="-27.601827" lon="153.116383">
				<ele>45.379</ele>
				<time>2015-07-03T22:49:18Z</time>
				<extensions>
				</extensions>
			</trkpt>
			<trkpt lat="-27.602044" lon="153.116527">
				<ele>44.201</ele>
				<time>2015-07-03T22:49:19Z</time>
				<extensions>
				</extensions>
			</trkpt>
			<trkpt lat="-27.602257" lon="153.116670">
				<ele>44.299</ele>
				<time>2015-07-03T22:49:20Z</time>
				<extensions>
				</extensions>
			</trkpt>
			<trkpt lat="-27.602475" lon="153.116810">
				<ele>45.471</ele>
				<time>2015-07-03T22:49:21Z</time>
				<extensions>
				</extensions>
			</trkpt>
			<trkpt lat="-27.602694" lon="153.116950">
				<ele>43.874</ele>
				<time>2015-07-03T22:49:22Z</time>
				<extensions>
				</extensions>
			</trkpt>
			<trkpt lat="-27.602913" lon="153.117093">
				<ele>43.996</ele>
				<time>2015-07-03T22:49:23Z</time>
				<extensions>
				</extensions>
			</trkpt>
			<trkpt lat="-27.603122" lon="153.117222">
				<ele>42.815</ele>
				<time>2015-07-03T22:49:24Z</time>
				<extensions>
				</extensions>
			</trkpt>
			<trkpt lat="-27.603336" lon="153.117362">
				<ele>42.643</ele>
				<time>2015-07-03T22:49:25Z</time>
				<extensions>
				</extensions>
			</trkpt>
			<trkpt lat="-27.603542" lon="153.117488">
				<ele>42.197</ele>
				<time>2015-07-03T22:49:26Z</time>
				<extensions>
				</extensions>
			</trkpt>
			<trkpt lat="-27.603753" lon="153.117625">
				<ele>43.314</ele>
				<time>2015-07-03T22:49:27Z</time>
				<extensions>
				</extensions>
			</trkpt>
			<trkpt lat="-27.603966" lon="153.117757">
				<ele>44.077</ele>
				<time>2015-07-03T22:49:28Z</time>
				<extensions>
				</extensions>
			</trkpt>
			<trkpt lat="-27.604169" lon="153.117885">
				<ele>42.630</ele>
				<time>2015-07-03T22:49:29Z</time>
				<extensions>
				</extensions>
			</trkpt>
			<trkpt lat="-27.604371" lon="153.118015">
				<ele>42.632</ele>
				<time>2015-07-03T22:49:30Z</time>
				<extensions>
				</extensions>
			</trkpt>
			<trkpt lat="-27.604574" lon="153.118146">
				<ele>42.986</ele>
				<time>2015-07-03T22:49:31Z</time>
				<extensions>
				</extensions>
			</trkpt>
			<trkpt lat="-27.604784" lon="153.118283">
				<ele>42.531</ele>
				<time>2015-07-03T22:49:32Z</time>
				<extensions>
				</extensions>
			</trkpt>
			<trkpt lat="-27.604993" lon="153.118422">
				<ele>43.985</ele>
				<time>2015-07-03T22:49:33Z</time>
				<extensions>
				</extensions>
			</trkpt>
			<trkpt lat="-27.605202" lon="153.118563">
				<ele>44.310</ele>
				<time>2015-07-03T22:49:34Z</time>
				<extensions>
				</extensions>
			</trkpt>
			<trkpt lat="-27.605411" lon="153.118699">
				<ele>44.183</ele>
				<time>2015-07-03T22:49:35Z</time>
				<extensions>
				</extensions>
			</trkpt>
			<trkpt lat="-27.605622" lon="153.118833">
				<ele>44.426</ele>
				<time>2015-07-03T22:49:36Z</time>
				<extensions>
				</extensions>
			</trkpt>
			<trkpt lat="-27.605824" lon="153.118967">
				<ele>45.042</ele>
				<time>2015-07-03T22:49:37Z</time>
				<extensions>
				</extensions>
			</trkpt>
			<trkpt lat="-27.606031" lon="153.119103">
				<ele>45.090</ele>
				<time>2015-07-03T22:49:38Z</time>
				<extensions>
				</extensions>
			</trkpt>
			<trkpt lat="-27.606233" lon="153.119232">
				<ele>46.199</ele>
				<time>2015-07-03T22:49:39Z</time>
				<extensions>
				</extensions>
			</trkpt>
			<trkpt lat="-27.606425" lon="153.119360">
				<ele>45.108</ele>
				<time>2015-07-03T22:49:40Z</time>
				<extensions>
				</extensions>
			</trkpt>
			<trkpt lat="-27.606628" lon="153.119484">
				<ele>44.560</ele>
				<time>2015-07-03T22:49:41Z</time>
				<extensions>
				</extensions>
			</trkpt>
			<trkpt lat="-27.606826" lon="153.119617">
				<ele>44.730</ele>
				<time>2015-07-03T22:49:42Z</time>
				<extensions>
				</extensions>
			</trkpt>
			<trkpt lat="-27.607031" lon="153.119751">
				<ele>47.484</ele>
				<time>2015-07-03T22:49:43Z</time>
				<extensions>
				</extensions>
			</trkpt>
			<trkpt lat="-27.607236" lon="153.119876">
				<ele>45.589</ele>
				<time>2015-07-03T22:49:44Z</time>
				<extensions>
				</extensions>
			</trkpt>
			<trkpt lat="-27.607451" lon="153.120000">
				<ele>45.423</ele>
				<time>2015-07-03T22:49:45Z</time>
				<extensions>
				</extensions>
			</trkpt>
			<trkpt lat="-27.607652" lon="153.120122">
				<ele>46.152</ele>
				<time>2015-07-03T22:49:46Z</time>
				<extensions>
				</extensions>
			</trkpt>
			<trkpt lat="-27.607860" lon="153.120253">
				<ele>45.716</ele>
				<time>2015-07-03T22:49:47Z</time>
				<extensions>
				</extensions>
			</trkpt>
			<trkpt lat="-27.608069" lon="153.120387">
				<ele>46.859</ele>
				<time>2015-07-03T22:49:48Z</time>
				<extensions>
				</extensions>
			</trkpt>
			<trkpt lat="-27.608280" lon="153.120524">
				<ele>44.338</ele>
				<time>2015-07-03T22:49:49Z</time>
				<extensions>
				</extensions>
			</trkpt>
			<trkpt lat="-27.608481" lon="153.120668">
				<ele>44.407</ele>
				<time>2015-07-03T22:49:50Z</time>
				<extensions>
				</extensions>
			</trkpt>
			<trkpt lat="-27.608698" lon="153.120806">
				<ele>43.829</ele>
				<time>2015-07-03T22:49:51Z</time>
				<extensions>
				</extensions>
			</trkpt>
			<trkpt lat="-27.608916" lon="153.120945">
				<ele>44.197</ele>
				<time>2015-07-03T22:49:52Z</time>
				<extensions>
				</extensions>
			</trkpt>
			<trkpt lat="-27.609134" lon="153.121086">
				<ele>42.000</ele>
				<time>2015-07-03T22:49:53Z</time>
				<extensions>
				</extensions>
			</trkpt>
			<trkpt lat="-27.609340" lon="153.121227">
				<ele>39.500</ele>
				<time>2015-07-03T22:49:54Z</time>
				<extensions>
				</extensions>
			</trkpt>
			<trkpt lat="-27.609543" lon="153.121357">
				<ele>39.439</ele>
				<time>2015-07-03T22:49:55Z</time>
				<extensions>
				</extensions>
			</trkpt>
			<trkpt lat="-27.609738" lon="153.121492">
				<ele>38.275</ele>
				<time>2015-07-03T22:49:56Z</time>
				<extensions>
				</extensions>
			</trkpt>
			<trkpt lat="-27.609940" lon="153.121629">
				<ele>37.804</ele>
				<time>2015-07-03T22:49:57Z</time>
				<extensions>
				</extensions>
			</trkpt>
			<trkpt lat="-27.610141" lon="153.121746">
				<ele>36.953</ele>
				<time>2015-07-03T22:49:58Z</time>
				<extensions>
				</extensions>
			</trkpt>
			<trkpt lat="-27.610339" lon="153.121874">
				<ele>36.005</ele>
				<time>2015-07-03T22:49:59Z</time>
				<extensions>
				</extensions>
			</trkpt>
			<trkpt lat="-27.610541" lon="153.122007">
				<ele>35.239</ele>
				<time>2015-07-03T22:50:00Z</time>
				<extensions>
				</extensions>
			</trkpt>
			<trkpt lat="-27.610746" lon="153.122139">
				<ele>34.229</ele>
				<time>2015-07-03T22:50:01Z</time>
				<extensions>
				</extensions>
			</trkpt>
			<trkpt lat="-27.610953" lon="153.122265">
				<ele>33.739</ele>
				<time>2015-07-03T22:50:02Z</time>
				<extensions>
				</extensions>
			</trkpt>
			<trkpt lat="-27.611156" lon="153.122387">
				<ele>32.708</ele>
				<time>2015-07-03T22:50:03Z</time>
				<extensions>
				</extensions>
			</trkpt>
			<trkpt lat="-27.611368" lon="153.122502">
				<ele>32.284</ele>
				<time>2015-07-03T22:50:04Z</time>
				<extensions>
				</extensions>
			</trkpt>
			<trkpt lat="-27.611580" lon="153.122618">
				<ele>32.298</ele>
				<time>2015-07-03T22:50:05Z</time>
				<extensions>
				</extensions>
			</trkpt>
			<trkpt lat="-27.611795" lon="153.122736">
				<ele>30.885</ele>
				<time>2015-07-03T22:50:06Z</time>
				<extensions>
				</extensions>
			</trkpt>
			<trkpt lat="-27.612009" lon="153.122847">
				<ele>30.730</ele>
				<time>2015-07-03T22:50:07Z</time>
				<extensions>
				</extensions>
			</trkpt>
			<trkpt lat="-27.612229" lon="153.122953">
				<ele>31.177</ele>
				<time>2015-07-03T22:50:08Z</time>
				<extensions>
				</extensions>
			</trkpt>
			<trkpt lat="-27.612450" lon="153.123059">
				<ele>29.495</ele>
				<time>2015-07-03T22:50:09Z</time>
				<extensions>
				</extensions>
			</trkpt>
			<trkpt lat="-27.612678" lon="153.123159">
				<ele>30.060</ele>
				<time>2015-07-03T22:50:10Z</time>
				<extensions>
				</extensions>
			</trkpt>
			<trkpt lat="-27.612905" lon="153.123243">
				<ele>29.856</ele>
				<time>2015-07-03T22:50:11Z</time>
				<extensions>
				</extensions>
			</trkpt>
			<trkpt lat="-27.613132" lon="153.123328">
				<ele>29.855</ele>
				<time>2015-07-03T22:50:12Z</time>
				<extensions>
				</extensions>
			</trkpt>
			<trkpt lat="-27.613368" lon="153.123407">
				<ele>30.639</ele>
				<time>2015-07-03T22:50:13Z</time>
				<extensions>
				</extensions>
			</trkpt>
			<trkpt lat="-27.613597" lon="153.123474">
				<ele>31.425</ele>
				<time>2015-07-03T22:50:14Z</time>
				<extensions>
				</extensions>
			</trkpt>
			<trkpt lat="-27.613823" lon="153.123534">
				<ele>29.997</ele>
				<time>2015-07-03T22:50:15Z</time>
				<extensions>
				</extensions>
			</trkpt>
			<trkpt lat="-27.614053" lon="153.123601">
				<ele>31.303</ele>
				<time>2015-07-03T22:50:16Z</time>
				<extensions>
				</extensions>
			</trkpt>
			<trkpt lat="-27.614279" lon="153.123676">
				<ele>30.868</ele>
				<time>2015-07-03T22:50:17Z</time>
				<extensions>
				</extensions>
			</trkpt>
			<trkpt lat="-27.614515" lon="153.123752">
				<ele>30.868</ele>
				<time>2015-07-03T22:50:18Z</time>
				<extensions>
				</extensions>
			</trkpt>
			<trkpt lat="-27.614749" lon="153.123827">
				<ele>30.453</ele>
				<time>2015-07-03T22:50:19Z</time>
				<extensions>
				</extensions>
			</trkpt>
			<trkpt lat="-27.614976" lon="153.123909">
				<ele>29.683</ele>
				<time>2015-07-03T22:50:20Z</time>
				<extensions>
				</extensions>
			</trkpt>
			<trkpt lat="-27.615205" lon="153.123995">
				<ele>28.575</ele>
				<time>2015-07-03T22:50:21Z</time>
				<extensions>
				</extensions>
			</trkpt>
			<trkpt lat="-27.615427" lon="153.124079">
				<ele>28.462</ele>
				<time>2015-07-03T22:50:22Z</time>
				<extensions>
				</extensions>
			</trkpt>
			<trkpt lat="-27.615641" lon="153.124172">
				<ele>27.991</ele>
				<time>2015-07-03T22:50:23Z</time>
				<extensions>
				</extensions>
			</trkpt>
			<trkpt lat="-27.615850" lon="153.124274">
				<ele>29.148</ele>
				<time>2015-07-03T22:50:24Z</time>
				<extensions>
				</extensions>
			</trkpt>
			<trkpt lat="-27.616055" lon="153.124379">
				<ele>27.155</ele>
				<time>2015-07-03T22:50:25Z</time>
				<extensions>
				</extensions>
			</trkpt>
			<trkpt lat="-27.616254" lon="153.124493">
				<ele>28.263</ele>
				<time>2015-07-03T22:50:26Z</time>
				<extensions>
				</extensions>
			</trkpt>
			<trkpt lat="-27.616443" lon="153.124602">
				<ele>26.813</ele>
				<time>2015-07-03T22:50:27Z</time>
				<extensions>
				</extensions>
			</trkpt>
			<trkpt lat="-27.616632" lon="153.124720">
				<ele>24.938</ele>
				<time>2015-07-03T22:50:28Z</time>
				<extensions>
				</extensions>
			</trkpt>
			<trkpt lat="-27.616822" lon="153.124841">
				<ele>25.236</ele>
				<time>2015-07-03T22:50:29Z</time>
				<extensions>
				</extensions>
			</trkpt>
			<trkpt lat="-27.617003" lon="153.124958">
				<ele>25.186</ele>
				<time>2015-07-03T22:50:30Z</time>
				<extensions>
				</extensions>
			</trkpt>
			<trkpt lat="-27.617191" lon="153.125077">
				<ele>24.131</ele>
				<time>2015-07-03T22:50:31Z</time>
				<extensions>
				</extensions>
			</trkpt>
			<trkpt lat="-27.617373" lon="153.125194">
				<ele>23.476</ele>
				<time>2015-07-03T22:50:32Z</time>
				<extensions>
				</extensions>
			</trkpt>
			<trkpt lat="-27.617563" lon="153.125306">
				<ele>23.273</ele>
				<time>2015-07-03T22:50:33Z</time>
				<extensions>
				</extensions>
			</trkpt>
			<trkpt lat="-27.617742" lon="153.125416">
				<ele>24.922</ele>
				<time>2015-07-03T22:50:34Z</time>
				<extensions>
				</extensions>
			</trkpt>
			<trkpt lat="-27.617926" lon="153.125524">
				<ele>22.983</ele>
				<time>2015-07-03T22:50:35Z</time>
				<extensions>
				</extensions>
			</trkpt>
			<trkpt lat="-27.618113" lon="153.125625">
				<ele>22.278</ele>
				<time>2015-07-03T22:50:36Z</time>
				<extensions>
				</extensions>
			</trkpt>
			<trkpt lat="-27.618305" lon="153.125725">
				<ele>21.712</ele>
				<time>2015-07-03T22:50:37Z</time>
				<extensions>
				</extensions>
			</trkpt>
			<trkpt lat="-27.618501" lon="153.125817">
				<ele>20.517</ele>
				<time>2015-07-03T22:50:38Z</time>
				<extensions>
				</extensions>
			</trkpt>
			<trkpt lat="-27.618697" lon="153.125915">
				<ele>19.632</ele>
				<time>2015-07-03T22:50:39Z</time>
				<extensions>
				</extensions>
			</trkpt>
			<trkpt lat="-27.618896" lon="153.126012">
				<ele>19.186</ele>
				<time>2015-07-03T22:50:40Z</time>
				<extensions>
				</extensions>
			</trkpt>
			<trkpt lat="-27.619093" lon="153.126099">
				<ele>20.584</ele>
				<time>2015-07-03T22:50:41Z</time>
				<extensions>
				</extensions>
			</trkpt>
			<trkpt lat="-27.619304" lon="153.126200">
				<ele>19.453</ele>
				<time>2015-07-03T22:50:42Z</time>
				<extensions>
				</extensions>
			</trkpt>
			<trkpt lat="-27.619510" lon="153.126292">
				<ele>19.097</ele>
				<time>2015-07-03T22:50:43Z</time>
				<extensions>
				</extensions>
			</trkpt>
			<trkpt lat="-27.619715" lon="153.126383">
				<ele>17.494</ele>
				<time>2015-07-03T22:50:44Z</time>
				<extensions>
				</extensions>
			</trkpt>
			<trkpt lat="-27.619921" lon="153.126484">
				<ele>19.189</ele>
				<time>2015-07-03T22:50:45Z</time>
				<extensions>
				</extensions>
			</trkpt>
			<trkpt lat="-27.620143" lon="153.126585">
				<ele>18.579</ele>
				<time>2015-07-03T22:50:46Z</time>
				<extensions>
				</extensions>
			</trkpt>
			<trkpt lat="-27.620344" lon="153.126680">
				<ele>20.113</ele>
				<time>2015-07-03T22:50:47Z</time>
				<extensions>
				</extensions>
			</trkpt>
			<trkpt lat="-27.620551" lon="153.126770">
				<ele>21.964</ele>
				<time>2015-07-03T22:50:48Z</time>
				<extensions>
				</extensions>
			</trkpt>
			<trkpt lat="-27.620753" lon="153.126861">
				<ele>20.498</ele>
				<time>2015-07-03T22:50:49Z</time>
				<extensions>
				</extensions>
			</trkpt>
			<trkpt lat="-27.620967" lon="153.126945">
				<ele>17.945</ele>
				<time>2015-07-03T22:50:50Z</time>
				<extensions>
				</extensions>
			</trkpt>
			<trkpt lat="-27.621191" lon="153.127035">
				<ele>18.440</ele>
				<time>2015-07-03T22:50:51Z</time>
				<extensions>
				</extensions>
			</trkpt>
			<trkpt lat="-27.621425" lon="153.127134">
				<ele>20.368</ele>
				<time>2015-07-03T22:50:52Z</time>
				<extensions>
				</extensions>
			</trkpt>
			<trkpt lat="-27.621651" lon="153.127220">
				<ele>19.266</ele>
				<time>2015-07-03T22:50:53Z</time>
				<extensions>
				</extensions>
			</trkpt>
			<trkpt lat="-27.621877" lon="153.127315">
				<ele>19.337</ele>
				<time>2015-07-03T22:50:54Z</time>
				<extensions>
				</extensions>
			</trkpt>
			<trkpt lat="-27.622082" lon="153.127407">
				<ele>18.773</ele>
				<time>2015-07-03T22:50:55Z</time>
				<extensions>
				</extensions>
			</trkpt>
			<trkpt lat="-27.622292" lon="153.127503">
				<ele>19.488</ele>
				<time>2015-07-03T22:50:56Z</time>
				<extensions>
				</extensions>
			</trkpt>
			<trkpt lat="-27.622511" lon="153.127603">
				<ele>20.880</ele>
				<time>2015-07-03T22:50:57Z</time>
				<extensions>
				</extensions>
			</trkpt>
			<trkpt lat="-27.622730" lon="153.127703">
				<ele>20.486</ele>
				<time>2015-07-03T22:50:58Z</time>
				<extensions>
				</extensions>
			</trkpt>
			<trkpt lat="-27.622942" lon="153.127805">
				<ele>20.888</ele>
				<time>2015-07-03T22:50:59Z</time>
				<extensions>
				</extensions>
			</trkpt>
			<trkpt lat="-27.623163" lon="153.127907">
				<ele>23.297</ele>
				<time>2015-07-03T22:51:00Z</time>
				<extensions>
				</extensions>
			</trkpt>
			<trkpt lat="-27.623379" lon="153.128009">
				<ele>21.575</ele>
				<time>2015-07-03T22:51:01Z</time>
				<extensions>
				</extensions>
			</trkpt>
			<trkpt lat="-27.623596" lon="153.128106">
				<ele>21.460</ele>
				<time>2015-07-03T22:51:02Z</time>
				<extensions>
				</extensions>
			</trkpt>
			<trkpt lat="-27.623807" lon="153.128210">
				<ele>22.584</ele>
				<time>2015-07-03T22:51:03Z</time>
				<extensions>
				</extensions>
			</trkpt>
			<trkpt lat="-27.624011" lon="153.128309">
				<ele>20.318</ele>
				<time>2015-07-03T22:51:04Z</time>
				<extensions>
				</extensions>
			</trkpt>
			<trkpt lat="-27.624226" lon="153.128407">
				<ele>21.079</ele>
				<time>2015-07-03T22:51:05Z</time>
				<extensions>
				</extensions>
			</trkpt>
			<trkpt lat="-27.624440" lon="153.128505">
				<ele>20.039</ele>
				<time>2015-07-03T22:51:06Z</time>
				<extensions>
				</extensions>
			</trkpt>
			<trkpt lat="-27.624658" lon="153.128606">
				<ele>18.799</ele>
				<time>2015-07-03T22:51:07Z</time>
				<extensions>
				</extensions>
			</trkpt>
			<trkpt lat="-27.624865" lon="153.128701">
				<ele>21.704</ele>
				<time>2015-07-03T22:51:08Z</time>
				<extensions>
				</extensions>
			</trkpt>
			<trkpt lat="-27.625110" lon="153.128796">
				<ele>22.278</ele>
				<time>2015-07-03T22:51:09Z</time>
				<extensions>
				</extensions>
			</trkpt>
			<trkpt lat="-27.625352" lon="153.128889">
				<ele>26.099</ele>
				<time>2015-07-03T22:51:10Z</time>
				<extensions>
				</extensions>
			</trkpt>
			<trkpt lat="-27.625591" lon="153.128981">
				<ele>25.028</ele>
				<time>2015-07-03T22:51:11Z</time>
				<extensions>
				</extensions>
			</trkpt>
			<trkpt lat="-27.625826" lon="153.129073">
				<ele>24.780</ele>
				<time>2015-07-03T22:51:12Z</time>
				<extensions>
				</extensions>
			</trkpt>
			<trkpt lat="-27.626063" lon="153.129171">
				<ele>24.004</ele>
				<time>2015-07-03T22:51:13Z</time>
				<extensions>
				</extensions>
			</trkpt>
			<trkpt lat="-27.626305" lon="153.129270">
				<ele>24.500</ele>
				<time>2015-07-03T22:51:14Z</time>
				<extensions>
				</extensions>
			</trkpt>
			<trkpt lat="-27.626539" lon="153.129367">
				<ele>24.771</ele>
				<time>2015-07-03T22:51:15Z</time>
				<extensions>
				</extensions>
			</trkpt>
			<trkpt lat="-27.626780" lon="153.129458">
				<ele>24.999</ele>
				<time>2015-07-03T22:51:16Z</time>
				<extensions>
				</extensions>
			</trkpt>
			<trkpt lat="-27.627019" lon="153.129554">
				<ele>22.574</ele>
				<time>2015-07-03T22:51:17Z</time>
				<extensions>
				</extensions>
			</trkpt>
			<trkpt lat="-27.627265" lon="153.129662">
				<ele>24.632</ele>
				<time>2015-07-03T22:51:18Z</time>
				<extensions>
				</extensions>
			</trkpt>
			<trkpt lat="-27.627511" lon="153.129756">
				<ele>23.584</ele>
				<time>2015-07-03T22:51:19Z</time>
				<extensions>
				</extensions>
			</trkpt>
			<trkpt lat="-27.627757" lon="153.129851">
				<ele>23.531</ele>
				<time>2015-07-03T22:51:20Z</time>
				<extensions>
				</extensions>
			</trkpt>
			<trkpt lat="-27.628004" lon="153.129959">
				<ele>23.531</ele>
				<time>2015-07-03T22:51:21Z</time>
				<extensions>
				</extensions>
			</trkpt>
			<trkpt lat="-27.628237" lon="153.130060">
				<ele>24.439</ele>
				<time>2015-07-03T22:51:22Z</time>
				<extensions>
				</extensions>
			</trkpt>
			<trkpt lat="-27.628468" lon="153.130167">
				<ele>22.465</ele>
				<time>2015-07-03T22:51:23Z</time>
				<extensions>
				</extensions>
			</trkpt>
			<trkpt lat="-27.628684" lon="153.130260">
				<ele>24.213</ele>
				<time>2015-07-03T22:51:24Z</time>
				<extensions>
				</extensions>
			</trkpt>
			<trkpt lat="-27.628899" lon="153.130353">
				<ele>24.313</ele>
				<time>2015-07-03T22:51:25Z</time>
				<extensions>
				</extensions>
			</trkpt>
			<trkpt lat="-27.629121" lon="153.130442">
				<ele>23.912</ele>
				<time>2015-07-03T22:51:26Z</time>
				<extensions>
				</extensions>
			</trkpt>
			<trkpt lat="-27.629338" lon="153.130533">
				<ele>23.567</ele>
				<time>2015-07-03T22:51:27Z</time>
				<extensions>
				</extensions>
			</trkpt>
			<trkpt lat="-27.629549" lon="153.130629">
				<ele>24.287</ele>
				<time>2015-07-03T22:51:28Z</time>
				<extensions>
				</extensions>
			</trkpt>
			<trkpt lat="-27.629767" lon="153.130716">
				<ele>24.844</ele>
				<time>2015-07-03T22:51:29Z</time>
				<extensions>
				</extensions>
			</trkpt>
			<trkpt lat="-27.629977" lon="153.130809">
				<ele>26.124</ele>
				<time>2015-07-03T22:51:30Z</time>
				<extensions>
				</extensions>
			</trkpt>
			<trkpt lat="-27.630193" lon="153.130899">
				<ele>26.268</ele>
				<time>2015-07-03T22:51:31Z</time>
				<extensions>
				</extensions>
			</trkpt>
			<trkpt lat="-27.630412" lon="153.130998">
				<ele>26.922</ele>
				<time>2015-07-03T22:51:32Z</time>
				<extensions>
				</extensions>
			</trkpt>
			<trkpt lat="-27.630619" lon="153.131105">
				<ele>26.727</ele>
				<time>2015-07-03T22:51:33Z</time>
				<extensions>
				</extensions>
			</trkpt>
			<trkpt lat="-27.630828" lon="153.131207">
				<ele>27.565</ele>
				<time>2015-07-03T22:51:34Z</time>
				<extensions>
				</extensions>
			</trkpt>
			<trkpt lat="-27.631030" lon="153.131318">
				<ele>27.810</ele>
				<time>2015-07-03T22:51:35Z</time>
				<extensions>
				</extensions>
			</trkpt>
			<trkpt lat="-27.631234" lon="153.131441">
				<ele>28.713</ele>
				<time>2015-07-03T22:51:36Z</time>
				<extensions>
				</extensions>
			</trkpt>
			<trkpt lat="-27.631434" lon="153.131583">
				<ele>29.971</ele>
				<time>2015-07-03T22:51:37Z</time>
				<extensions>
				</extensions>
			</trkpt>
			<trkpt lat="-27.631639" lon="153.131723">
				<ele>30.070</ele>
				<time>2015-07-03T22:51:38Z</time>
				<extensions>
				</extensions>
			</trkpt>
			<trkpt lat="-27.631833" lon="153.131867">
				<ele>31.650</ele>
				<time>2015-07-03T22:51:39Z</time>
				<extensions>
				</extensions>
			</trkpt>
			<trkpt lat="-27.632019" lon="153.132011">
				<ele>30.149</ele>
				<time>2015-07-03T22:51:40Z</time>
				<extensions>
				</extensions>
			</trkpt>
			<trkpt lat="-27.632220" lon="153.132184">
				<ele>30.820</ele>
				<time>2015-07-03T22:51:41Z</time>
				<extensions>
				</extensions>
			</trkpt>
			<trkpt lat="-27.632415" lon="153.132348">
				<ele>28.070</ele>
				<time>2015-07-03T22:51:42Z</time>
				<extensions>
				</extensions>
			</trkpt>
			<trkpt lat="-27.632586" lon="153.132517">
				<ele>26.323</ele>
				<time>2015-07-03T22:51:43Z</time>
				<extensions>
				</extensions>
			</trkpt>
			<trkpt lat="-27.632769" lon="153.132696">
				<ele>24.941</ele>
				<time>2015-07-03T22:51:44Z</time>
				<extensions>
				</extensions>
			</trkpt>
			<trkpt lat="-27.632942" lon="153.132874">
				<ele>25.701</ele>
				<time>2015-07-03T22:51:45Z</time>
				<extensions>
				</extensions>
			</trkpt>
			<trkpt lat="-27.633119" lon="153.133060">
				<ele>24.941</ele>
				<time>2015-07-03T22:51:46Z</time>
				<extensions>
				</extensions>
			</trkpt>
			<trkpt lat="-27.633306" lon="153.133248">
				<ele>25.170</ele>
				<time>2015-07-03T22:51:47Z</time>
				<extensions>
				</extensions>
			</trkpt>
			<trkpt lat="-27.633477" lon="153.133430">
				<ele>22.925</ele>
				<time>2015-07-03T22:51:48Z</time>
				<extensions>
				</extensions>
			</trkpt>
			<trkpt lat="-27.633652" lon="153.133614">
				<ele>22.903</ele>
				<time>2015-07-03T22:51:49Z</time>
				<extensions>
				</extensions>
			</trkpt>
			<trkpt lat="-27.633830" lon="153.133798">
				<ele>23.026</ele>
				<time>2015-07-03T22:51:50Z</time>
				<extensions>
				</extensions>
			</trkpt>
			<trkpt lat="-27.634012" lon="153.133991">
				<ele>24.572</ele>
				<time>2015-07-03T22:51:51Z</time>
				<extensions>
				</extensions>
			</trkpt>
			<trkpt lat="-27.634189" lon="153.134173">
				<ele>22.465</ele>
				<time>2015-07-03T22:51:52Z</time>
				<extensions>
				</extensions>
			</trkpt>
			<trkpt lat="-27.634357" lon="153.134355">
				<ele>23.091</ele>
				<time>2015-07-03T22:51:53Z</time>
				<extensions>
				</extensions>
			</trkpt>
			<trkpt lat="-27.634541" lon="153.134555">
				<ele>22.991</ele>
				<time>2015-07-03T22:51:54Z</time>
				<extensions>
				</extensions>
			</trkpt>
			<trkpt lat="-27.634729" lon="153.134751">
				<ele>22.229</ele>
				<time>2015-07-03T22:51:55Z</time>
				<extensions>
				</extensions>
			</trkpt>
			<trkpt lat="-27.634905" lon="153.134932">
				<ele>23.707</ele>
				<time>2015-07-03T22:51:56Z</time>
				<extensions>
				</extensions>
			</trkpt>
			<trkpt lat="-27.635084" lon="153.135120">
				<ele>20.900</ele>
				<time>2015-07-03T22:51:57Z</time>
				<extensions>
				</extensions>
			</trkpt>
			<trkpt lat="-27.635261" lon="153.135309">
				<ele>19.850</ele>
				<time>2015-07-03T22:51:58Z</time>
				<extensions>
				</extensions>
			</trkpt>
			<trkpt lat="-27.635426" lon="153.135498">
				<ele>18.808</ele>
				<time>2015-07-03T22:51:59Z</time>
				<extensions>
				</extensions>
			</trkpt>
			<trkpt lat="-27.635602" lon="153.135680">
				<ele>17.148</ele>
				<time>2015-07-03T22:52:00Z</time>
				<extensions>
				</extensions>
			</trkpt>
			<trkpt lat="-27.635781" lon="153.135869">
				<ele>17.334</ele>
				<time>2015-07-03T22:52:01Z</time>
				<extensions>
				</extensions>
			</trkpt>
			<trkpt lat="-27.635956" lon="153.136057">
				<ele>16.193</ele>
				<time>2015-07-03T22:52:02Z</time>
				<extensions>
				</extensions>
			</trkpt>
			<trkpt lat="-27.636125" lon="153.136257">
				<ele>15.763</ele>
				<time>2015-07-03T22:52:03Z</time>
				<extensions>
				</extensions>
			</trkpt>
			<trkpt lat="-27.636304" lon="153.136446">
				<ele>14.563</ele>
				<time>2015-07-03T22:52:04Z</time>
				<extensions>
				</extensions>
			</trkpt>
			<trkpt lat="-27.636481" lon="153.136629">
				<ele>14.846</ele>
				<time>2015-07-03T22:52:05Z</time>
				<extensions>
				</extensions>
			</trkpt>
			<trkpt lat="-27.636665" lon="153.136824">
				<ele>14.905</ele>
				<time>2015-07-03T22:52:06Z</time>
				<extensions>
				</extensions>
			</trkpt>
			<trkpt lat="-27.636842" lon="153.137025">
				<ele>14.750</ele>
				<time>2015-07-03T22:52:07Z</time>
				<extensions>
				</extensions>
			</trkpt>
			<trkpt lat="-27.637018" lon="153.137218">
				<ele>11.566</ele>
				<time>2015-07-03T22:52:08Z</time>
				<extensions>
				</extensions>
			</trkpt>
			<trkpt lat="-27.637188" lon="153.137414">
				<ele>12.167</ele>
				<time>2015-07-03T22:52:09Z</time>
				<extensions>
				</extensions>
			</trkpt>
			<trkpt lat="-27.637355" lon="153.137603">
				<ele>11.671</ele>
				<time>2015-07-03T22:52:10Z</time>
				<extensions>
				</extensions>
			</trkpt>
			<trkpt lat="-27.637529" lon="153.137784">
				<ele>10.699</ele>
				<time>2015-07-03T22:52:11Z</time>
				<extensions>
				</extensions>
			</trkpt>
			<trkpt lat="-27.637689" lon="153.137965">
				<ele>10.846</ele>
				<time>2015-07-03T22:52:12Z</time>
				<extensions>
				</extensions>
			</trkpt>
			<trkpt lat="-27.637854" lon="153.138151">
				<ele>10.340</ele>
				<time>2015-07-03T22:52:13Z</time>
				<extensions>
				</extensions>
			</trkpt>
			<trkpt lat="-27.638021" lon="153.138334">
				<ele>11.268</ele>
				<time>2015-07-03T22:52:14Z</time>
				<extensions>
				</extensions>
			</trkpt>
			<trkpt lat="-27.638182" lon="153.138517">
				<ele>10.530</ele>
				<time>2015-07-03T22:52:15Z</time>
				<extensions>
				</extensions>
			</trkpt>
			<trkpt lat="-27.638349" lon="153.138700">
				<ele>9.506</ele>
				<time>2015-07-03T22:52:16Z</time>
				<extensions>
				</extensions>
			</trkpt>
			<trkpt lat="-27.638520" lon="153.138884">
				<ele>10.032</ele>
				<time>2015-07-03T22:52:17Z</time>
				<extensions>
				</extensions>
			</trkpt>
			<trkpt lat="-27.638685" lon="153.139068">
				<ele>9.770</ele>
				<time>2015-07-03T22:52:18Z</time>
				<extensions>
				</extensions>
			</trkpt>
			<trkpt lat="-27.638863" lon="153.139266">
				<ele>9.922</ele>
				<time>2015-07-03T22:52:19Z</time>
				<extensions>
				</extensions>
			</trkpt>
			<trkpt lat="-27.639043" lon="153.139469">
				<ele>11.364</ele>
				<time>2015-07-03T22:52:20Z</time>
				<extensions>
				</extensions>
			</trkpt>
			<trkpt lat="-27.639227" lon="153.139667">
				<ele>9.835</ele>
				<time>2015-07-03T22:52:21Z</time>
				<extensions>
				</extensions>
			</trkpt>
			<trkpt lat="-27.639410" lon="153.139859">
				<ele>8.695</ele>
				<time>2015-07-03T22:52:22Z</time>
				<extensions>
				</extensions>
			</trkpt>
			<trkpt lat="-27.639594" lon="153.140057">
				<ele>9.771</ele>
				<time>2015-07-03T22:52:23Z</time>
				<extensions>
				</extensions>
			</trkpt>
			<trkpt lat="-27.639772" lon="153.140258">
				<ele>8.091</ele>
				<time>2015-07-03T22:52:24Z</time>
				<extensions>
				</extensions>
			</trkpt>
			<trkpt lat="-27.639947" lon="153.140449">
				<ele>8.091</ele>
				<time>2015-07-03T22:52:25Z</time>
				<extensions>
				</extensions>
			</trkpt>
			<trkpt lat="-27.640124" lon="153.140657">
				<ele>8.030</ele>
				<time>2015-07-03T22:52:26Z</time>
				<extensions>
				</extensions>
			</trkpt>
			<trkpt lat="-27.640292" lon="153.140851">
				<ele>7.598</ele>
				<time>2015-07-03T22:52:27Z</time>
				<extensions>
				</extensions>
			</trkpt>
			<trkpt lat="-27.640462" lon="153.141056">
				<ele>7.496</ele>
				<time>2015-07-03T22:52:28Z</time>
				<extensions>
				</extensions>
			</trkpt>
			<trkpt lat="-27.640641" lon="153.141256">
				<ele>7.703</ele>
				<time>2015-07-03T22:52:29Z</time>
				<extensions>
				</extensions>
			</trkpt>
			<trkpt lat="-27.640805" lon="153.141455">
				<ele>7.834</ele>
				<time>2015-07-03T22:52:30Z</time>
				<extensions>
				</extensions>
			</trkpt>
			<trkpt lat="-27.640969" lon="153.141663">
				<ele>9.176</ele>
				<time>2015-07-03T22:52:31Z</time>
				<extensions>
				</extensions>
			</trkpt>
			<trkpt lat="-27.641142" lon="153.141883">
				<ele>9.306</ele>
				<time>2015-07-03T22:52:32Z</time>
				<extensions>
				</extensions>
			</trkpt>
			<trkpt lat="-27.641296" lon="153.142089">
				<ele>8.317</ele>
				<time>2015-07-03T22:52:33Z</time>
				<extensions>
				</extensions>
			</trkpt>
			<trkpt lat="-27.641455" lon="153.142310">
				<ele>10.242</ele>
				<time>2015-07-03T22:52:34Z</time>
				<extensions>
				</extensions>
			</trkpt>
			<trkpt lat="-27.641616" lon="153.142538">
				<ele>12.098</ele>
				<time>2015-07-03T22:52:35Z</time>
				<extensions>
				</extensions>
			</trkpt>
			<trkpt lat="-27.641780" lon="153.142769">
				<ele>14.945</ele>
				<time>2015-07-03T22:52:36Z</time>
				<extensions>
				</extensions>
			</trkpt>
			<trkpt lat="-27.641942" lon="153.142995">
				<ele>15.956</ele>
				<time>2015-07-03T22:52:37Z</time>
				<extensions>
				</extensions>
			</trkpt>
			<trkpt lat="-27.642102" lon="153.143206">
				<ele>18.251</ele>
				<time>2015-07-03T22:52:38Z</time>
				<extensions>
				</extensions>
			</trkpt>
			<trkpt lat="-27.642256" lon="153.143422">
				<ele>17.244</ele>
				<time>2015-07-03T22:52:39Z</time>
				<extensions>
				</extensions>
			</trkpt>
			<trkpt lat="-27.642408" lon="153.143639">
				<ele>15.310</ele>
				<time>2015-07-03T22:52:40Z</time>
				<extensions>
				</extensions>
			</trkpt>
			<trkpt lat="-27.642554" lon="153.143851">
				<ele>18.173</ele>
				<time>2015-07-03T22:52:41Z</time>
				<extensions>
				</extensions>
			</trkpt>
			<trkpt lat="-27.642702" lon="153.144062">
				<ele>18.842</ele>
				<time>2015-07-03T22:52:42Z</time>
				<extensions>
				</extensions>
			</trkpt>
			<trkpt lat="-27.642849" lon="153.144269">
				<ele>19.146</ele>
				<time>2015-07-03T22:52:43Z</time>
				<extensions>
				</extensions>
			</trkpt>
			<trkpt lat="-27.642989" lon="153.144474">
				<ele>20.318</ele>
				<time>2015-07-03T22:52:44Z</time>
				<extensions>
				</extensions>
			</trkpt>
			<trkpt lat="-27.643128" lon="153.144678">
				<ele>21.055</ele>
				<time>2015-07-03T22:52:45Z</time>
				<extensions>
				</extensions>
			</trkpt>
			<trkpt lat="-27.643280" lon="153.144885">
				<ele>20.660</ele>
				<time>2015-07-03T22:52:46Z</time>
				<extensions>
				</extensions>
			</trkpt>
			<trkpt lat="-27.643436" lon="153.145098">
				<ele>21.281</ele>
				<time>2015-07-03T22:52:47Z</time>
				<extensions>
				</extensions>
			</trkpt>
			<trkpt lat="-27.643583" lon="153.145308">
				<ele>23.505</ele>
				<time>2015-07-03T22:52:48Z</time>
				<extensions>
				</extensions>
			</trkpt>
			<trkpt lat="-27.643734" lon="153.145529">
				<ele>22.089</ele>
				<time>2015-07-03T22:52:49Z</time>
				<extensions>
				</extensions>
			</trkpt>
			<trkpt lat="-27.643885" lon="153.145746">
				<ele>20.454</ele>
				<time>2015-07-03T22:52:50Z</time>
				<extensions>
				</extensions>
			</trkpt>
			<trkpt lat="-27.644036" lon="153.145965">
				<ele>19.227</ele>
				<time>2015-07-03T22:52:51Z</time>
				<extensions>
				</extensions>
			</trkpt>
			<trkpt lat="-27.644192" lon="153.146177">
				<ele>18.581</ele>
				<time>2015-07-03T22:52:52Z</time>
				<extensions>
				</extensions>
			</trkpt>
			<trkpt lat="-27.644340" lon="153.146393">
				<ele>19.454</ele>
				<time>2015-07-03T22:52:53Z</time>
				<extensions>
				</extensions>
			</trkpt>
			<trkpt lat="-27.644496" lon="153.146619">
				<ele>18.916</ele>
				<time>2015-07-03T22:52:54Z</time>
				<extensions>
				</extensions>
			</trkpt>
			<trkpt lat="-27.644653" lon="153.146847">
				<ele>16.988</ele>
				<time>2015-07-03T22:52:55Z</time>
				<extensions>
				</extensions>
			</trkpt>
			<trkpt lat="-27.644810" lon="153.147067">
				<ele>17.932</ele>
				<time>2015-07-03T22:52:56Z</time>
				<extensions>
				</extensions>
			</trkpt>
			<trkpt lat="-27.644966" lon="153.147285">
				<ele>17.042</ele>
				<time>2015-07-03T22:52:57Z</time>
				<extensions>
				</extensions>
			</trkpt>
			<trkpt lat="-27.645127" lon="153.147512">
				<ele>17.468</ele>
				<time>2015-07-03T22:52:58Z</time>
				<extensions>
				</extensions>
			</trkpt>
			<trkpt lat="-27.645282" lon="153.147740">
				<ele>17.509</ele>
				<time>2015-07-03T22:52:59Z</time>
				<extensions>
				</extensions>
			</trkpt>
			<trkpt lat="-27.645426" lon="153.147965">
				<ele>16.416</ele>
				<time>2015-07-03T22:53:00Z</time>
				<extensions>
				</extensions>
			</trkpt>
			<trkpt lat="-27.645563" lon="153.148197">
				<ele>16.292</ele>
				<time>2015-07-03T22:53:01Z</time>
				<extensions>
				</extensions>
			</trkpt>
			<trkpt lat="-27.645699" lon="153.148435">
				<ele>14.262</ele>
				<time>2015-07-03T22:53:02Z</time>
				<extensions>
				</extensions>
			</trkpt>
			<trkpt lat="-27.645836" lon="153.148678">
				<ele>14.331</ele>
				<time>2015-07-03T22:53:03Z</time>
				<extensions>
				</extensions>
			</trkpt>
			<trkpt lat="-27.645956" lon="153.148906">
				<ele>12.414</ele>
				<time>2015-07-03T22:53:04Z</time>
				<extensions>
				</extensions>
			</trkpt>
			<trkpt lat="-27.646079" lon="153.149139">
				<ele>11.422</ele>
				<time>2015-07-03T22:53:05Z</time>
				<extensions>
				</extensions>
			</trkpt>
			<trkpt lat="-27.646196" lon="153.149381">
				<ele>11.160</ele>
				<time>2015-07-03T22:53:06Z</time>
				<extensions>
				</extensions>
			</trkpt>
			<trkpt lat="-27.646307" lon="153.149617">
				<ele>11.730</ele>
				<time>2015-07-03T22:53:07Z</time>
				<extensions>
				</extensions>
			</trkpt>
			<trkpt lat="-27.646407" lon="153.149859">
				<ele>12.051</ele>
				<time>2015-07-03T22:53:08Z</time>
				<extensions>
				</extensions>
			</trkpt>
			<trkpt lat="-27.646512" lon="153.150110">
				<ele>10.648</ele>
				<time>2015-07-03T22:53:09Z</time>
				<extensions>
				</extensions>
			</trkpt>
			<trkpt lat="-27.646606" lon="153.150364">
				<ele>11.128</ele>
				<time>2015-07-03T22:53:10Z</time>
				<extensions>
				</extensions>
			</trkpt>
			<trkpt lat="-27.646689" lon="153.150621">
				<ele>11.091</ele>
				<time>2015-07-03T22:53:11Z</time>
				<extensions>
				</extensions>
			</trkpt>
			<trkpt lat="-27.646779" lon="153.150857">
				<ele>9.922</ele>
				<time>2015-07-03T22:53:12Z</time>
				<extensions>
				</extensions>
			</trkpt>
			<trkpt lat="-27.646852" lon="153.151114">
				<ele>10.022</ele>
				<time>2015-07-03T22:53:13Z</time>
				<extensions>
				</extensions>
			</trkpt>
			<trkpt lat="-27.646922" lon="153.151366">
				<ele>10.036</ele>
				<time>2015-07-03T22:53:14Z</time>
				<extensions>
				</extensions>
			</trkpt>
			<trkpt lat="-27.647000" lon="153.151621">
				<ele>7.775</ele>
				<time>2015-07-03T22:53:15Z</time>
				<extensions>
				</extensions>
			</trkpt>
			<trkpt lat="-27.647079" lon="153.151869">
				<ele>10.652</ele>
				<time>2015-07-03T22:53:16Z</time>
				<extensions>
				</extensions>
			</trkpt>
			<trkpt lat="-27.647154" lon="153.152118">
				<ele>8.986</ele>
				<time>2015-07-03T22:53:17Z</time>
				<extensions>
				</extensions>
			</trkpt>
			<trkpt lat="-27.647232" lon="153.152390">
				<ele>9.740</ele>
				<time>2015-07-03T22:53:18Z</time>
				<extensions>
				</extensions>
			</trkpt>
			<trkpt lat="-27.647314" lon="153.152655">
				<ele>9.259</ele>
				<time>2015-07-03T22:53:19Z</time>
				<extensions>
				</extensions>
			</trkpt>
			<trkpt lat="-27.647387" lon="153.152897">
				<ele>8.944</ele>
				<time>2015-07-03T22:53:20Z</time>
				<extensions>
				</extensions>
			</trkpt>
			<trkpt lat="-27.647459" lon="153.153156">
				<ele>9.877</ele>
				<time>2015-07-03T22:53:21Z</time>
				<extensions>
				</extensions>
			</trkpt>
			<trkpt lat="-27.647536" lon="153.153424">
				<ele>9.407</ele>
				<time>2015-07-03T22:53:22Z</time>
				<extensions>
				</extensions>
			</trkpt>
			<trkpt lat="-27.647613" lon="153.153695">
				<ele>11.533</ele>
				<time>2015-07-03T22:53:23Z</time>
				<extensions>
				</extensions>
			</trkpt>
			<trkpt lat="-27.647689" lon="153.153959">
				<ele>8.222</ele>
				<time>2015-07-03T22:53:24Z</time>
				<extensions>
				</extensions>
			</trkpt>
			<trkpt lat="-27.647760" lon="153.154203">
				<ele>7.472</ele>
				<time>2015-07-03T22:53:25Z</time>
				<extensions>
				</extensions>
			</trkpt>
			<trkpt lat="-27.647843" lon="153.154461">
				<ele>8.382</ele>
				<time>2015-07-03T22:53:26Z</time>
				<extensions>
				</extensions>
			</trkpt>
			<trkpt lat="-27.647919" lon="153.154714">
				<ele>8.382</ele>
				<time>2015-07-03T22:53:27Z</time>
				<extensions>
				</extensions>
			</trkpt>
			<trkpt lat="-27.647996" lon="153.154966">
				<ele>6.770</ele>
				<time>2015-07-03T22:53:28Z</time>
				<extensions>
				</extensions>
			</trkpt>
			<trkpt lat="-27.648082" lon="153.155219">
				<ele>6.975</ele>
				<time>2015-07-03T22:53:29Z</time>
				<extensions>
				</extensions>
			</trkpt>
			<trkpt lat="-27.648177" lon="153.155462">
				<ele>7.580</ele>
				<time>2015-07-03T22:53:30Z</time>
				<extensions>
				</extensions>
			</trkpt>
			<trkpt lat="-27.648281" lon="153.155711">
				<ele>8.287</ele>
				<time>2015-07-03T22:53:31Z</time>
				<extensions>
				</extensions>
			</trkpt>
			<trkpt lat="-27.648398" lon="153.155956">
				<ele>7.242</ele>
				<time>2015-07-03T22:53:32Z</time>
				<extensions>
				</extensions>
			</trkpt>
			<trkpt lat="-27.648524" lon="153.156181">
				<ele>7.316</ele>
				<time>2015-07-03T22:53:33Z</time>
				<extensions>
				</extensions>
			</trkpt>
			<trkpt lat="-27.648650" lon="153.156408">
				<ele>8.591</ele>
				<time>2015-07-03T22:53:34Z</time>
				<extensions>
				</extensions>
			</trkpt>
			<trkpt lat="-27.648784" lon="153.156623">
				<ele>8.305</ele>
				<time>2015-07-03T22:53:35Z</time>
				<extensions>
				</extensions>
			</trkpt>
			<trkpt lat="-27.648922" lon="153.156841">
				<ele>9.700</ele>
				<time>2015-07-03T22:53:36Z</time>
				<extensions>
				</extensions>
			</trkpt>
			<trkpt lat="-27.649073" lon="153.157046">
				<ele>7.860</ele>
				<time>2015-07-03T22:53:37Z</time>
				<extensions>
				</extensions>
			</trkpt>
			<trkpt lat="-27.649228" lon="153.157249">
				<ele>7.230</ele>
				<time>2015-07-03T22:53:38Z</time>
				<extensions>
				</extensions>
			</trkpt>
			<trkpt lat="-27.649392" lon="153.157462">
				<ele>9.414</ele>
				<time>2015-07-03T22:53:39Z</time>
				<extensions>
				</extensions>
			</trkpt>
			<trkpt lat="-27.649563" lon="153.157663">
				<ele>9.806</ele>
				<time>2015-07-03T22:53:40Z</time>
				<extensions>
				</extensions>
			</trkpt>
			<trkpt lat="-27.649729" lon="153.157860">
				<ele>9.475</ele>
				<time>2015-07-03T22:53:41Z</time>
				<extensions>
				</extensions>
			</trkpt>
			<trkpt lat="-27.649897" lon="153.158050">
				<ele>9.487</ele>
				<time>2015-07-03T22:53:42Z</time>
				<extensions>
				</extensions>
			</trkpt>
			<trkpt lat="-27.650065" lon="153.158241">
				<ele>9.466</ele>
				<time>2015-07-03T22:53:43Z</time>
				<extensions>
				</extensions>
			</trkpt>
			<trkpt lat="-27.650231" lon="153.158438">
				<ele>11.253</ele>
				<time>2015-07-03T22:53:44Z</time>
				<extensions>
				</extensions>
			</trkpt>
			<trkpt lat="-27.650397" lon="153.158631">
				<ele>11.443</ele>
				<time>2015-07-03T22:53:45Z</time>
				<extensions>
				</extensions>
			</trkpt>
			<trkpt lat="-27.650567" lon="153.158831">
				<ele>11.228</ele>
				<time>2015-07-03T22:53:46Z</time>
				<extensions>
				</extensions>
			</trkpt>
			<trkpt lat="-27.650731" lon="153.159034">
				<ele>10.606</ele>
				<time>2015-07-03T22:53:47Z</time>
				<extensions>
				</extensions>
			</trkpt>
			<trkpt lat="-27.650896" lon="153.159233">
				<ele>11.862</ele>
				<time>2015-07-03T22:53:48Z</time>
				<extensions>
				</extensions>
			</trkpt>
			<trkpt lat="-27.651062" lon="153.159417">
				<ele>10.400</ele>
				<time>2015-07-03T22:53:49Z</time>
				<extensions>
				</extensions>
			</trkpt>
			<trkpt lat="-27.651224" lon="153.159602">
				<ele>10.874</ele>
				<time>2015-07-03T22:53:50Z</time>
				<extensions>
				</extensions>
			</trkpt>
			<trkpt lat="-27.651395" lon="153.159799">
				<ele>12.196</ele>
				<time>2015-07-03T22:53:51Z</time>
				<extensions>
				</extensions>
			</trkpt>
			<trkpt lat="-27.651561" lon="153.159990">
				<ele>12.354</ele>
				<time>2015-07-03T22:53:52Z</time>
				<extensions>
				</extensions>
			</trkpt>
			<trkpt lat="-27.651722" lon="153.160180">
				<ele>10.977</ele>
				<time>2015-07-03T22:53:53Z</time>
				<extensions>
				</extensions>
			</trkpt>
			<trkpt lat="-27.651886" lon="153.160372">
				<ele>10.808</ele>
				<time>2015-07-03T22:53:54Z</time>
				<extensions>
				</extensions>
			</trkpt>
			<trkpt lat="-27.652053" lon="153.160556">
				<ele>10.004</ele>
				<time>2015-07-03T22:53:55Z</time>
				<extensions>
				</extensions>
			</trkpt>
			<trkpt lat="-27.652214" lon="153.160741">
				<ele>11.277</ele>
				<time>2015-07-03T22:53:56Z</time>
				<extensions>
				</extensions>
			</trkpt>
			<trkpt lat="-27.652379" lon="153.160935">
				<ele>10.022</ele>
				<time>2015-07-03T22:53:57Z</time>
				<extensions>
				</extensions>
			</trkpt>
			<trkpt lat="-27.652540" lon="153.161125">
				<ele>12.216</ele>
				<time>2015-07-03T22:53:58Z</time>
				<extensions>
				</extensions>
			</trkpt>
			<trkpt lat="-27.652702" lon="153.161312">
				<ele>15.566</ele>
				<time>2015-07-03T22:53:59Z</time>
				<extensions>
				</extensions>
			</trkpt>
			<trkpt lat="-27.652863" lon="153.161512">
				<ele>14.493</ele>
				<time>2015-07-03T22:54:00Z</time>
				<extensions>
				</extensions>
			</trkpt>
			<trkpt lat="-27.653030" lon="153.161705">
				<ele>15.290</ele>
				<time>2015-07-03T22:54:01Z</time>
				<extensions>
				</extensions>
			</trkpt>
			<trkpt lat="-27.653201" lon="153.161897">
				<ele>12.684</ele>
				<time>2015-07-03T22:54:02Z</time>
				<extensions>
				</extensions>
			</trkpt>
			<trkpt lat="-27.653366" lon="153.162083">
				<ele>11.445</ele>
				<time>2015-07-03T22:54:03Z</time>
				<extensions>
				</extensions>
			</trkpt>
			<trkpt lat="-27.653524" lon="153.162271">
				<ele>10.901</ele>
				<time>2015-07-03T22:54:04Z</time>
				<extensions>
				</extensions>
			</trkpt>
			<trkpt lat="-27.653683" lon="153.162459">
				<ele>12.625</ele>
				<time>2015-07-03T22:54:05Z</time>
				<extensions>
				</extensions>
			</trkpt>
			<trkpt lat="-27.653836" lon="153.162636">
				<ele>12.693</ele>
				<time>2015-07-03T22:54:06Z</time>
				<extensions>
				</extensions>
			</trkpt>
			<trkpt lat="-27.653989" lon="153.162805">
				<ele>10.253</ele>
				<time>2015-07-03T22:54:07Z</time>
				<extensions>
				</extensions>
			</trkpt>
			<trkpt lat="-27.654137" lon="153.162981">
				<ele>10.371</ele>
				<time>2015-07-03T22:54:08Z</time>
				<extensions>
				</extensions>
			</trkpt>
			<trkpt lat="-27.654279" lon="153.163165">
				<ele>12.245</ele>
				<time>2015-07-03T22:54:09Z</time>
				<extensions>
				</extensions>
			</trkpt>
			<trkpt lat="-27.654431" lon="153.163338">
				<ele>10.219</ele>
				<time>2015-07-03T22:54:10Z</time>
				<extensions>
				</extensions>
			</trkpt>
			<trkpt lat="-27.654577" lon="153.163519">
				<ele>8.995</ele>
				<time>2015-07-03T22:54:11Z</time>
				<extensions>
				</extensions>
			</trkpt>
			<trkpt lat="-27.654726" lon="153.163698">
				<ele>8.424</ele>
				<time>2015-07-03T22:54:12Z</time>
				<extensions>
				</extensions>
			</trkpt>
			<trkpt lat="-27.654888" lon="153.163876">
				<ele>8.461</ele>
				<time>2015-07-03T22:54:13Z</time>
				<extensions>
				</extensions>
			</trkpt>
			<trkpt lat="-27.655051" lon="153.164055">
				<ele>7.329</ele>
				<time>2015-07-03T22:54:14Z</time>
				<extensions>
				</extensions>
			</trkpt>
			<trkpt lat="-27.655215" lon="153.164241">
				<ele>8.748</ele>
				<time>2015-07-03T22:54:15Z</time>
				<extensions>
				</extensions>
			</trkpt>
			<trkpt lat="-27.655387" lon="153.164429">
				<ele>9.403</ele>
				<time>2015-07-03T22:54:16Z</time>
				<extensions>
				</extensions>
			</trkpt>
			<trkpt lat="-27.655564" lon="153.164618">
				<ele>9.106</ele>
				<time>2015-07-03T22:54:17Z</time>
				<extensions>
				</extensions>
			</trkpt>
			<trkpt lat="-27.655743" lon="153.164804">
				<ele>8.294</ele>
				<time>2015-07-03T22:54:18Z</time>
				<extensions>
				</extensions>
			</trkpt>
			<trkpt lat="-27.655920" lon="153.164988">
				<ele>9.986</ele>
				<time>2015-07-03T22:54:19Z</time>
				<extensions>
				</extensions>
			</trkpt>
			<trkpt lat="-27.656096" lon="153.165172">
				<ele>6.499</ele>
				<time>2015-07-03T22:54:20Z</time>
				<extensions>
				</extensions>
			</trkpt>
			<trkpt lat="-27.656270" lon="153.165353">
				<ele>8.327</ele>
				<time>2015-07-03T22:54:21Z</time>
				<extensions>
				</extensions>
			</trkpt>
			<trkpt lat="-27.656449" lon="153.165526">
				<ele>10.165</ele>
				<time>2015-07-03T22:54:22Z</time>
				<extensions>
				</extensions>
			</trkpt>
			<trkpt lat="-27.656624" lon="153.165698">
				<ele>6.593</ele>
				<time>2015-07-03T22:54:23Z</time>
				<extensions>
				</extensions>
			</trkpt>
			<trkpt lat="-27.656794" lon="153.165862">
				<ele>7.847</ele>
				<time>2015-07-03T22:54:24Z</time>
				<extensions>
				</extensions>
			</trkpt>
			<trkpt lat="-27.656969" lon="153.166029">
				<ele>7.331</ele>
				<time>2015-07-03T22:54:25Z</time>
				<extensions>
				</extensions>
			</trkpt>
			<trkpt lat="-27.657141" lon="153.166191">
				<ele>7.390</ele>
				<time>2015-07-03T22:54:26Z</time>
				<extensions>
				</extensions>
			</trkpt>
			<trkpt lat="-27.657328" lon="153.166352">
				<ele>8.086</ele>
				<time>2015-07-03T22:54:27Z</time>
				<extensions>
				</extensions>
			</trkpt>
			<trkpt lat="-27.657523" lon="153.166515">
				<ele>8.300</ele>
				<time>2015-07-03T22:54:28Z</time>
				<extensions>
				</extensions>
			</trkpt>
			<trkpt lat="-27.657714" lon="153.166672">
				<ele>10.835</ele>
				<time>2015-07-03T22:54:29Z</time>
				<extensions>
				</extensions>
			</trkpt>
			<trkpt lat="-27.657906" lon="153.166834">
				<ele>10.835</ele>
				<time>2015-07-03T22:54:30Z</time>
				<extensions>
				</extensions>
			</trkpt>
			<trkpt lat="-27.658086" lon="153.166992">
				<ele>9.303</ele>
				<time>2015-07-03T22:54:31Z</time>
				<extensions>
				</extensions>
			</trkpt>
			<trkpt lat="-27.658275" lon="153.167145">
				<ele>9.134</ele>
				<time>2015-07-03T22:54:32Z</time>
				<extensions>
				</extensions>
			</trkpt>
			<trkpt lat="-27.658461" lon="153.167305">
				<ele>9.228</ele>
				<time>2015-07-03T22:54:33Z</time>
				<extensions>
				</extensions>
			</trkpt>
			<trkpt lat="-27.658644" lon="153.167457">
				<ele>8.726</ele>
				<time>2015-07-03T22:54:34Z</time>
				<extensions>
				</extensions>
			</trkpt>
			<trkpt lat="-27.658828" lon="153.167612">
				<ele>9.307</ele>
				<time>2015-07-03T22:54:35Z</time>
				<extensions>
				</extensions>
			</trkpt>
			<trkpt lat="-27.659008" lon="153.167767">
				<ele>8.780</ele>
				<time>2015-07-03T22:54:36Z</time>
				<extensions>
				</extensions>
			</trkpt>
			<trkpt lat="-27.659184" lon="153.167906">
				<ele>8.988</ele>
				<time>2015-07-03T22:54:37Z</time>
				<extensions>
				</extensions>
			</trkpt>
			<trkpt lat="-27.659375" lon="153.168062">
				<ele>9.382</ele>
				<time>2015-07-03T22:54:38Z</time>
				<extensions>
				</extensions>
			</trkpt>
			<trkpt lat="-27.659563" lon="153.168213">
				<ele>9.803</ele>
				<time>2015-07-03T22:54:39Z</time>
				<extensions>
				</extensions>
			</trkpt>
			<trkpt lat="-27.659755" lon="153.168368">
				<ele>10.219</ele>
				<time>2015-07-03T22:54:40Z</time>
				<extensions>
				</extensions>
			</trkpt>
			<trkpt lat="-27.659940" lon="153.168526">
				<ele>9.853</ele>
				<time>2015-07-03T22:54:41Z</time>
				<extensions>
				</extensions>
			</trkpt>
			<trkpt lat="-27.660125" lon="153.168679">
				<ele>10.675</ele>
				<time>2015-07-03T22:54:42Z</time>
				<extensions>
				</extensions>
			</trkpt>
			<trkpt lat="-27.660311" lon="153.168833">
				<ele>11.080</ele>
				<time>2015-07-03T22:54:43Z</time>
				<extensions>
				</extensions>
			</trkpt>
			<trkpt lat="-27.660495" lon="153.168991">
				<ele>11.451</ele>
				<time>2015-07-03T22:54:44Z</time>
				<extensions>
				</extensions>
			</trkpt>
			<trkpt lat="-27.660677" lon="153.169150">
				<ele>13.005</ele>
				<time>2015-07-03T22:54:45Z</time>
				<extensions>
				</extensions>
			</trkpt>
			<trkpt lat="-27.660860" lon="153.169312">
				<ele>13.869</ele>
				<time>2015-07-03T22:54:46Z</time>
				<extensions>
				</extensions>
			</trkpt>
			<trkpt lat="-27.661039" lon="153.169482">
				<ele>15.255</ele>
				<time>2015-07-03T22:54:47Z</time>
				<extensions>
				</extensions>
			</trkpt>
			<trkpt lat="-27.661226" lon="153.169644">
				<ele>16.983</ele>
				<time>2015-07-03T22:54:48Z</time>
				<extensions>
				</extensions>
			</trkpt>
			<trkpt lat="-27.661406" lon="153.169816">
				<ele>17.433</ele>
				<time>2015-07-03T22:54:49Z</time>
				<extensions>
				</extensions>
			</trkpt>
			<trkpt lat="-27.661581" lon="153.169979">
				<ele>20.083</ele>
				<time>2015-07-03T22:54:50Z</time>
				<extensions>
				</extensions>
			</trkpt>
			<trkpt lat="-27.661752" lon="153.170141">
				<ele>18.662</ele>
				<time>2015-07-03T22:54:51Z</time>
				<extensions>
				</extensions>
			</trkpt>
			<trkpt lat="-27.661921" lon="153.170311">
				<ele>17.972</ele>
				<time>2015-07-03T22:54:52Z</time>
				<extensions>
				</extensions>
			</trkpt>
			<trkpt lat="-27.662087" lon="153.170476">
				<ele>19.454</ele>
				<time>2015-07-03T22:54:53Z</time>
				<extensions>
				</extensions>
			</trkpt>
			<trkpt lat="-27.662265" lon="153.170641">
				<ele>19.405</ele>
				<time>2015-07-03T22:54:54Z</time>
				<extensions>
				</extensions>
			</trkpt>
			<trkpt lat="-27.662434" lon="153.170822">
				<ele>20.662</ele>
				<time>2015-07-03T22:54:55Z</time>
				<extensions>
				</extensions>
			</trkpt>
			<trkpt lat="-27.662610" lon="153.171004">
				<ele>21.835</ele>
				<time>2015-07-03T22:54:56Z</time>
				<extensions>
				</extensions>
			</trkpt>
			<trkpt lat="-27.662794" lon="153.171192">
				<ele>22.357</ele>
				<time>2015-07-03T22:54:57Z</time>
				<extensions>
				</extensions>
			</trkpt>
			<trkpt lat="-27.662981" lon="153.171379">
				<ele>23.778</ele>
				<time>2015-07-03T22:54:58Z</time>
				<extensions>
				</extensions>
			</trkpt>
			<trkpt lat="-27.663170" lon="153.171575">
				<ele>22.878</ele>
				<time>2015-07-03T22:54:59Z</time>
				<extensions>
				</extensions>
			</trkpt>
			<trkpt lat="-27.663358" lon="153.171771">
				<ele>24.226</ele>
				<time>2015-07-03T22:55:00Z</time>
				<extensions>
				</extensions>
			</trkpt>
			<trkpt lat="-27.663542" lon="153.171956">
				<ele>23.663</ele>
				<time>2015-07-03T22:55:01Z</time>
				<extensions>
				</extensions>
			</trkpt>
			<trkpt lat="-27.663727" lon="153.172147">
				<ele>23.124</ele>
				<time>2015-07-03T22:55:02Z</time>
				<extensions>
				</extensions>
			</trkpt>
			<trkpt lat="-27.663906" lon="153.172333">
				<ele>22.642</ele>
				<time>2015-07-03T22:55:03Z</time>
				<extensions>
				</extensions>
			</trkpt>
			<trkpt lat="-27.664089" lon="153.172523">
				<ele>23.669</ele>
				<time>2015-07-03T22:55:04Z</time>
				<extensions>
				</extensions>
			</trkpt>
			<trkpt lat="-27.664273" lon="153.172713">
				<ele>23.585</ele>
				<time>2015-07-03T22:55:05Z</time>
				<extensions>
				</extensions>
			</trkpt>
			<trkpt lat="-27.664465" lon="153.172914">
				<ele>22.016</ele>
				<time>2015-07-03T22:55:06Z</time>
				<extensions>
				</extensions>
			</trkpt>
			<trkpt lat="-27.664652" lon="153.173107">
				<ele>22.657</ele>
				<time>2015-07-03T22:55:07Z</time>
				<extensions>
				</extensions>
			</trkpt>
			<trkpt lat="-27.664843" lon="153.173295">
				<ele>23.896</ele>
				<time>2015-07-03T22:55:08Z</time>
				<extensions>
				</extensions>
			</trkpt>
			<trkpt lat="-27.665024" lon="153.173481">
				<ele>21.442</ele>
				<time>2015-07-03T22:55:09Z</time>
				<extensions>
				</extensions>
			</trkpt>
			<trkpt lat="-27.665210" lon="153.173672">
				<ele>21.106</ele>
				<time>2015-07-03T22:55:10Z</time>
				<extensions>
				</extensions>
			</trkpt>
			<trkpt lat="-27.665406" lon="153.173875">
				<ele>21.450</ele>
				<time>2015-07-03T22:55:11Z</time>
				<extensions>
				</extensions>
			</trkpt>
			<trkpt lat="-27.665595" lon="153.174080">
				<ele>19.359</ele>
				<time>2015-07-03T22:55:12Z</time>
				<extensions>
				</extensions>
			</trkpt>
			<trkpt lat="-27.665783" lon="153.174278">
				<ele>17.554</ele>
				<time>2015-07-03T22:55:13Z</time>
				<extensions>
				</extensions>
			</trkpt>
			<trkpt lat="-27.665971" lon="153.174474">
				<ele>16.405</ele>
				<time>2015-07-03T22:55:14Z</time>
				<extensions>
				</extensions>
			</trkpt>
			<trkpt lat="-27.666159" lon="153.174670">
				<ele>15.798</ele>
				<time>2015-07-03T22:55:15Z</time>
				<extensions>
				</extensions>
			</trkpt>
			<trkpt lat="-27.666353" lon="153.174869">
				<ele>14.411</ele>
				<time>2015-07-03T22:55:16Z</time>
				<extensions>
				</extensions>
			</trkpt>
			<trkpt lat="-27.666539" lon="153.175060">
				<ele>12.301</ele>
				<time>2015-07-03T22:55:17Z</time>
				<extensions>
				</extensions>
			</trkpt>
			<trkpt lat="-27.666723" lon="153.175252">
				<ele>12.688</ele>
				<time>2015-07-03T22:55:18Z</time>
				<extensions>
				</extensions>
			</trkpt>
			<trkpt lat="-27.666910" lon="153.175445">
				<ele>12.804</ele>
				<time>2015-07-03T22:55:19Z</time>
				<extensions>
				</extensions>
			</trkpt>
			<trkpt lat="-27.667099" lon="153.175639">
				<ele>13.206</ele>
				<time>2015-07-03T22:55:20Z</time>
				<extensions>
				</extensions>
			</trkpt>
			<trkpt lat="-27.667282" lon="153.175822">
				<ele>14.724</ele>
				<time>2015-07-03T22:55:21Z</time>
				<extensions>
				</extensions>
			</trkpt>
			<trkpt lat="-27.667473" lon="153.176012">
				<ele>14.633</ele>
				<time>2015-07-03T22:55:22Z</time>
				<extensions>
				</extensions>
			</trkpt>
			<trkpt lat="-27.667669" lon="153.176205">
				<ele>15.946</ele>
				<time>2015-07-03T22:55:23Z</time>
				<extensions>
				</extensions>
			</trkpt>
			<trkpt lat="-27.667872" lon="153.176391">
				<ele>15.510</ele>
				<time>2015-07-03T22:55:24Z</time>
				<extensions>
				</extensions>
			</trkpt>
			<trkpt lat="-27.668058" lon="153.176582">
				<ele>16.486</ele>
				<time>2015-07-03T22:55:25Z</time>
				<extensions>
				</extensions>
			</trkpt>
			<trkpt lat="-27.668243" lon="153.176763">
				<ele>14.348</ele>
				<time>2015-07-03T22:55:26Z</time>
				<extensions>
				</extensions>
			</trkpt>
			<trkpt lat="-27.668423" lon="153.176945">
				<ele>13.327</ele>
				<time>2015-07-03T22:55:27Z</time>
				<extensions>
				</extensions>
			</trkpt>
			<trkpt lat="-27.668601" lon="153.177128">
				<ele>14.761</ele>
				<time>2015-07-03T22:55:28Z</time>
				<extensions>
				</extensions>
			</trkpt>
			<trkpt lat="-27.668779" lon="153.177312">
				<ele>13.833</ele>
				<time>2015-07-03T22:55:29Z</time>
				<extensions>
				</extensions>
			</trkpt>
			<trkpt lat="-27.668955" lon="153.177491">
				<ele>12.093</ele>
				<time>2015-07-03T22:55:30Z</time>
				<extensions>
				</extensions>
			</trkpt>
			<trkpt lat="-27.669131" lon="153.177677">
				<ele>12.093</ele>
				<time>2015-07-03T22:55:31Z</time>
				<extensions>
				</extensions>
			</trkpt>
			<trkpt lat="-27.669319" lon="153.177866">
				<ele>14.480</ele>
				<time>2015-07-03T22:55:32Z</time>
				<extensions>
				</extensions>
			</trkpt>
			<trkpt lat="-27.669510" lon="153.178052">
				<ele>13.339</ele>
				<time>2015-07-03T22:55:33Z</time>
				<extensions>
				</extensions>
			</trkpt>
			<trkpt lat="-27.669700" lon="153.178241">
				<ele>13.167</ele>
				<time>2015-07-03T22:55:34Z</time>
				<extensions>
				</extensions>
			</trkpt>
			<trkpt lat="-27.669891" lon="153.178433">
				<ele>12.439</ele>
				<time>2015-07-03T22:55:35Z</time>
				<extensions>
				</extensions>
			</trkpt>
			<trkpt lat="-27.670078" lon="153.178630">
				<ele>11.331</ele>
				<time>2015-07-03T22:55:36Z</time>
				<extensions>
				</extensions>
			</trkpt>
			<trkpt lat="-27.670251" lon="153.178830">
				<ele>12.305</ele>
				<time>2015-07-03T22:55:37Z</time>
				<extensions>
				</extensions>
			</trkpt>
			<trkpt lat="-27.670446" lon="153.179026">
				<ele>15.302</ele>
				<time>2015-07-03T22:55:38Z</time>
				<extensions>
				</extensions>
			</trkpt>
			<trkpt lat="-27.670644" lon="153.179226">
				<ele>15.713</ele>
				<time>2015-07-03T22:55:39Z</time>
				<extensions>
				</extensions>
			</trkpt>
			<trkpt lat="-27.670840" lon="153.179420">
				<ele>14.751</ele>
				<time>2015-07-03T22:55:40Z</time>
				<extensions>
				</extensions>
			</trkpt>
			<trkpt lat="-27.671033" lon="153.179615">
				<ele>14.341</ele>
				<time>2015-07-03T22:55:41Z</time>
				<extensions>
				</extensions>
			</trkpt>
			<trkpt lat="-27.671217" lon="153.179799">
				<ele>16.151</ele>
				<time>2015-07-03T22:55:42Z</time>
				<extensions>
				</extensions>
			</trkpt>
			<trkpt lat="-27.671410" lon="153.179994">
				<ele>14.281</ele>
				<time>2015-07-03T22:55:43Z</time>
				<extensions>
				</extensions>
			</trkpt>
			<trkpt lat="-27.671606" lon="153.180190">
				<ele>13.615</ele>
				<time>2015-07-03T22:55:44Z</time>
				<extensions>
				</extensions>
			</trkpt>
			<trkpt lat="-27.671794" lon="153.180380">
				<ele>14.284</ele>
				<time>2015-07-03T22:55:45Z</time>
				<extensions>
				</extensions>
			</trkpt>
			<trkpt lat="-27.671981" lon="153.180569">
				<ele>12.954</ele>
				<time>2015-07-03T22:55:46Z</time>
				<extensions>
				</extensions>
			</trkpt>
			<trkpt lat="-27.672172" lon="153.180757">
				<ele>13.013</ele>
				<time>2015-07-03T22:55:47Z</time>
				<extensions>
				</extensions>
			</trkpt>
			<trkpt lat="-27.672362" lon="153.180948">
				<ele>12.669</ele>
				<time>2015-07-03T22:55:48Z</time>
				<extensions>
				</extensions>
			</trkpt>
			<trkpt lat="-27.672554" lon="153.181135">
				<ele>12.807</ele>
				<time>2015-07-03T22:55:49Z</time>
				<extensions>
				</extensions>
			</trkpt>
			<trkpt lat="-27.672750" lon="153.181324">
				<ele>13.169</ele>
				<time>2015-07-03T22:55:50Z</time>
				<extensions>
				</extensions>
			</trkpt>
			<trkpt lat="-27.672943" lon="153.181520">
				<ele>13.333</ele>
				<time>2015-07-03T22:55:51Z</time>
				<extensions>
				</extensions>
			</trkpt>
			<trkpt lat="-27.673129" lon="153.181712">
				<ele>12.623</ele>
				<time>2015-07-03T22:55:52Z</time>
				<extensions>
				</extensions>
			</trkpt>
			<trkpt lat="-27.673315" lon="153.181900">
				<ele>12.405</ele>
				<time>2015-07-03T22:55:53Z</time>
				<extensions>
				</extensions>
			</trkpt>
			<trkpt lat="-27.673504" lon="153.182102">
				<ele>13.234</ele>
				<time>2015-07-03T22:55:54Z</time>
				<extensions>
				</extensions>
			</trkpt>
			<trkpt lat="-27.673692" lon="153.182306">
				<ele>12.157</ele>
				<time>2015-07-03T22:55:55Z</time>
				<extensions>
				</extensions>
			</trkpt>
			<trkpt lat="-27.673883" lon="153.182500">
				<ele>11.739</ele>
				<time>2015-07-03T22:55:56Z</time>
				<extensions>
				</extensions>
			</trkpt>
			<trkpt lat="-27.674073" lon="153.182694">
				<ele>10.579</ele>
				<time>2015-07-03T22:55:57Z</time>
				<extensions>
				</extensions>
			</trkpt>
			<trkpt lat="-27.674270" lon="153.182880">
				<ele>10.273</ele>
				<time>2015-07-03T22:55:58Z</time>
				<extensions>
				</extensions>
			</trkpt>
			<trkpt lat="-27.674447" lon="153.183069">
				<ele>9.056</ele>
				<time>2015-07-03T22:55:59Z</time>
				<extensions>
				</extensions>
			</trkpt>
			<trkpt lat="-27.674631" lon="153.183238">
				<ele>11.859</ele>
				<time>2015-07-03T22:56:00Z</time>
				<extensions>
				</extensions>
			</trkpt>
			<trkpt lat="-27.674823" lon="153.183407">
				<ele>12.144</ele>
				<time>2015-07-03T22:56:01Z</time>
				<extensions>
				</extensions>
			</trkpt>
			<trkpt lat="-27.675012" lon="153.183577">
				<ele>13.575</ele>
				<time>2015-07-03T22:56:02Z</time>
				<extensions>
				</extensions>
			</trkpt>
			<trkpt lat="-27.675205" lon="153.183737">
				<ele>14.635</ele>
				<time>2015-07-03T22:56:03Z</time>
				<extensions>
				</extensions>
			</trkpt>
			<trkpt lat="-27.675400" lon="153.183894">
				<ele>15.149</ele>
				<time>2015-07-03T22:56:04Z</time>
				<extensions>
				</extensions>
			</trkpt>
			<trkpt lat="-27.675596" lon="153.184050">
				<ele>15.614</ele>
				<time>2015-07-03T22:56:05Z</time>
				<extensions>
				</extensions>
			</trkpt>
			<trkpt lat="-27.675806" lon="153.184213">
				<ele>18.868</ele>
				<time>2015-07-03T22:56:06Z</time>
				<extensions>
				</extensions>
			</trkpt>
			<trkpt lat="-27.676011" lon="153.184362">
				<ele>18.631</ele>
				<time>2015-07-03T22:56:07Z</time>
				<extensions>
				</extensions>
			</trkpt>
			<trkpt lat="-27.676221" lon="153.184504">
				<ele>19.078</ele>
				<time>2015-07-03T22:56:08Z</time>
				<extensions>
				</extensions>
			</trkpt>
			<trkpt lat="-27.676421" lon="153.184645">
				<ele>18.521</ele>
				<time>2015-07-03T22:56:09Z</time>
				<extensions>
				</extensions>
			</trkpt>
			<trkpt lat="-27.676626" lon="153.184779">
				<ele>18.475</ele>
				<time>2015-07-03T22:56:10Z</time>
				<extensions>
				</extensions>
			</trkpt>
			<trkpt lat="-27.676841" lon="153.184920">
				<ele>19.022</ele>
				<time>2015-07-03T22:56:11Z</time>
				<extensions>
				</extensions>
			</trkpt>
			<trkpt lat="-27.677059" lon="153.185061">
				<ele>18.405</ele>
				<time>2015-07-03T22:56:12Z</time>
				<extensions>
				</extensions>
			</trkpt>
			<trkpt lat="-27.677286" lon="153.185189">
				<ele>20.863</ele>
				<time>2015-07-03T22:56:13Z</time>
				<extensions>
				</extensions>
			</trkpt>
			<trkpt lat="-27.677514" lon="153.185320">
				<ele>20.300</ele>
				<time>2015-07-03T22:56:14Z</time>
				<extensions>
				</extensions>
			</trkpt>
			<trkpt lat="-27.677746" lon="153.185451">
				<ele>20.776</ele>
				<time>2015-07-03T22:56:15Z</time>
				<extensions>
				</extensions>
			</trkpt>
			<trkpt lat="-27.677969" lon="153.185578">
				<ele>20.600</ele>
				<time>2015-07-03T22:56:16Z</time>
				<extensions>
				</extensions>
			</trkpt>
			<trkpt lat="-27.678197" lon="153.185696">
				<ele>21.108</ele>
				<time>2015-07-03T22:56:17Z</time>
				<extensions>
				</extensions>
			</trkpt>
			<trkpt lat="-27.678427" lon="153.185818">
				<ele>18.932</ele>
				<time>2015-07-03T22:56:18Z</time>
				<extensions>
				</extensions>
			</trkpt>
			<trkpt lat="-27.678654" lon="153.185942">
				<ele>18.396</ele>
				<time>2015-07-03T22:56:19Z</time>
				<extensions>
				</extensions>
			</trkpt>
			<trkpt lat="-27.678881" lon="153.186060">
				<ele>18.563</ele>
				<time>2015-07-03T22:56:20Z</time>
				<extensions>
				</extensions>
			</trkpt>
			<trkpt lat="-27.679105" lon="153.186176">
				<ele>15.379</ele>
				<time>2015-07-03T22:56:21Z</time>
				<extensions>
				</extensions>
			</trkpt>
			<trkpt lat="-27.679325" lon="153.186291">
				<ele>13.289</ele>
				<time>2015-07-03T22:56:22Z</time>
				<extensions>
				</extensions>
			</trkpt>
			<trkpt lat="-27.679551" lon="153.186404">
				<ele>12.948</ele>
				<time>2015-07-03T22:56:23Z</time>
				<extensions>
				</extensions>
			</trkpt>
			<trkpt lat="-27.679779" lon="153.186531">
				<ele>10.580</ele>
				<time>2015-07-03T22:56:24Z</time>
				<extensions>
				</extensions>
			</trkpt>
			<trkpt lat="-27.680007" lon="153.186653">
				<ele>9.291</ele>
				<time>2015-07-03T22:56:25Z</time>
				<extensions>
				</extensions>
			</trkpt>
			<trkpt lat="-27.680230" lon="153.186763">
				<ele>7.698</ele>
				<time>2015-07-03T22:56:26Z</time>
				<extensions>
				</extensions>
			</trkpt>
			<trkpt lat="-27.680452" lon="153.186880">
				<ele>8.763</ele>
				<time>2015-07-03T22:56:27Z</time>
				<extensions>
				</extensions>
			</trkpt>
			<trkpt lat="-27.680662" lon="153.186996">
				<ele>8.508</ele>
				<time>2015-07-03T22:56:28Z</time>
				<extensions>
				</extensions>
			</trkpt>
			<trkpt lat="-27.680875" lon="153.187103">
				<ele>6.874</ele>
				<time>2015-07-03T22:56:29Z</time>
				<extensions>
				</extensions>
			</trkpt>
			<trkpt lat="-27.681087" lon="153.187220">
				<ele>8.161</ele>
				<time>2015-07-03T22:56:30Z</time>
				<extensions>
				</extensions>
			</trkpt>
			<trkpt lat="-27.681298" lon="153.187343">
				<ele>10.207</ele>
				<time>2015-07-03T22:56:31Z</time>
				<extensions>
				</extensions>
			</trkpt>
			<trkpt lat="-27.681521" lon="153.187458">
				<ele>8.726</ele>
				<time>2015-07-03T22:56:32Z</time>
				<extensions>
				</extensions>
			</trkpt>
			<trkpt lat="-27.681741" lon="153.187570">
				<ele>10.618</ele>
				<time>2015-07-03T22:56:33Z</time>
				<extensions>
				</extensions>
			</trkpt>
			<trkpt lat="-27.681963" lon="153.187680">
				<ele>10.618</ele>
				<time>2015-07-03T22:56:34Z</time>
				<extensions>
				</extensions>
			</trkpt>
			<trkpt lat="-27.682183" lon="153.187796">
				<ele>10.372</ele>
				<time>2015-07-03T22:56:35Z</time>
				<extensions>
				</extensions>
			</trkpt>
			<trkpt lat="-27.682406" lon="153.187905">
				<ele>8.037</ele>
				<time>2015-07-03T22:56:36Z</time>
				<extensions>
				</extensions>
			</trkpt>
			<trkpt lat="-27.682624" lon="153.188009">
				<ele>10.463</ele>
				<time>2015-07-03T22:56:37Z</time>
				<extensions>
				</extensions>
			</trkpt>
			<trkpt lat="-27.682845" lon="153.188115">
				<ele>8.099</ele>
				<time>2015-07-03T22:56:38Z</time>
				<extensions>
				</extensions>
			</trkpt>
			<trkpt lat="-27.683082" lon="153.188226">
				<ele>9.060</ele>
				<time>2015-07-03T22:56:39Z</time>
				<extensions>
				</extensions>
			</trkpt>
			<trkpt lat="-27.683306" lon="153.188330">
				<ele>9.452</ele>
				<time>2015-07-03T22:56:40Z</time>
				<extensions>
				</extensions>
			</trkpt>
			<trkpt lat="-27.683518" lon="153.188438">
				<ele>9.400</ele>
				<time>2015-07-03T22:56:41Z</time>
				<extensions>
				</extensions>
			</trkpt>
			<trkpt lat="-27.683742" lon="153.188539">
				<ele>7.969</ele>
				<time>2015-07-03T22:56:42Z</time>
				<extensions>
				</extensions>
			</trkpt>
			<trkpt lat="-27.683970" lon="153.188644">
				<ele>8.547</ele>
				<time>2015-07-03T22:56:43Z</time>
				<extensions>
				</extensions>
			</trkpt>
			<trkpt lat="-27.684189" lon="153.188753">
				<ele>10.473</ele>
				<time>2015-07-03T22:56:44Z</time>
				<extensions>
				</extensions>
			</trkpt>
			<trkpt lat="-27.684405" lon="153.188875">
				<ele>8.643</ele>
				<time>2015-07-03T22:56:45Z</time>
				<extensions>
				</extensions>
			</trkpt>
			<trkpt lat="-27.684632" lon="153.188996">
				<ele>8.944</ele>
				<time>2015-07-03T22:56:46Z</time>
				<extensions>
				</extensions>
			</trkpt>
			<trkpt lat="-27.684862" lon="153.189118">
				<ele>10.183</ele>
				<time>2015-07-03T22:56:47Z</time>
				<extensions>
				</extensions>
			</trkpt>
			<trkpt lat="-27.685096" lon="153.189244">
				<ele>9.397</ele>
				<time>2015-07-03T22:56:48Z</time>
				<extensions>
				</extensions>
			</trkpt>
			<trkpt lat="-27.685320" lon="153.189365">
				<ele>10.663</ele>
				<time>2015-07-03T22:56:49Z</time>
				<extensions>
				</extensions>
			</trkpt>
			<trkpt lat="-27.685549" lon="153.189487">
				<ele>10.428</ele>
				<time>2015-07-03T22:56:50Z</time>
				<extensions>
				</extensions>
			</trkpt>
			<trkpt lat="-27.685775" lon="153.189606">
				<ele>10.112</ele>
				<time>2015-07-03T22:56:51Z</time>
				<extensions>
				</extensions>
			</trkpt>
			<trkpt lat="-27.686006" lon="153.189728">
				<ele>9.511</ele>
				<time>2015-07-03T22:56:52Z</time>
				<extensions>
				</extensions>
			</trkpt>
			<trkpt lat="-27.686236" lon="153.189853">
				<ele>9.929</ele>
				<time>2015-07-03T22:56:53Z</time>
				<extensions>
				</extensions>
			</trkpt>
			<trkpt lat="-27.686457" lon="153.189968">
				<ele>11.286</ele>
				<time>2015-07-03T22:56:54Z</time>
				<extensions>
				</extensions>
			</trkpt>
			<trkpt lat="-27.686674" lon="153.190091">
				<ele>10.842</ele>
				<time>2015-07-03T22:56:55Z</time>
				<extensions>
				</extensions>
			</trkpt>
			<trkpt lat="-27.686906" lon="153.190201">
				<ele>10.318</ele>
				<time>2015-07-03T22:56:56Z</time>
				<extensions>
				</extensions>
			</trkpt>
			<trkpt lat="-27.687136" lon="153.190319">
				<ele>8.395</ele>
				<time>2015-07-03T22:56:57Z</time>
				<extensions>
				</extensions>
			</trkpt>
			<trkpt lat="-27.687362" lon="153.190439">
				<ele>7.823</ele>
				<time>2015-07-03T22:56:58Z</time>
				<extensions>
				</extensions>
			</trkpt>
			<trkpt lat="-27.687580" lon="153.190554">
				<ele>10.633</ele>
				<time>2015-07-03T22:56:59Z</time>
				<extensions>
				</extensions>
			</trkpt>
			<trkpt lat="-27.687808" lon="153.190678">
				<ele>10.247</ele>
				<time>2015-07-03T22:57:00Z</time>
				<extensions>
				</extensions>
			</trkpt>
			<trkpt lat="-27.688032" lon="153.190794">
				<ele>12.646</ele>
				<time>2015-07-03T22:57:01Z</time>
				<extensions>
				</extensions>
			</trkpt>
			<trkpt lat="-27.688263" lon="153.190913">
				<ele>12.340</ele>
				<time>2015-07-03T22:57:02Z</time>
				<extensions>
				</extensions>
			</trkpt>
			<trkpt lat="-27.688476" lon="153.191029">
				<ele>12.735</ele>
				<time>2015-07-03T22:57:03Z</time>
				<extensions>
				</extensions>
			</trkpt>
			<trkpt lat="-27.688699" lon="153.191149">
				<ele>9.786</ele>
				<time>2015-07-03T22:57:04Z</time>
				<extensions>
				</extensions>
			</trkpt>
			<trkpt lat="-27.688923" lon="153.191270">
				<ele>8.703</ele>
				<time>2015-07-03T22:57:05Z</time>
				<extensions>
				</extensions>
			</trkpt>
			<trkpt lat="-27.689141" lon="153.191385">
				<ele>10.923</ele>
				<time>2015-07-03T22:57:06Z</time>
				<extensions>
				</extensions>
			</trkpt>
			<trkpt lat="-27.689360" lon="153.191504">
				<ele>10.147</ele>
				<time>2015-07-03T22:57:07Z</time>
				<extensions>
				</extensions>
			</trkpt>
			<trkpt lat="-27.689587" lon="153.191620">
				<ele>9.939</ele>
				<time>2015-07-03T22:57:08Z</time>
				<extensions>
				</extensions>
			</trkpt>
			<trkpt lat="-27.689803" lon="153.191736">
				<ele>7.288</ele>
				<time>2015-07-03T22:57:09Z</time>
				<extensions>
				</extensions>
			</trkpt>
			<trkpt lat="-27.690022" lon="153.191855">
				<ele>8.125</ele>
				<time>2015-07-03T22:57:10Z</time>
				<extensions>
				</extensions>
			</trkpt>
			<trkpt lat="-27.690237" lon="153.191973">
				<ele>9.361</ele>
				<time>2015-07-03T22:57:11Z</time>
				<extensions>
				</extensions>
			</trkpt>
			<trkpt lat="-27.690473" lon="153.192086">
				<ele>7.867</ele>
				<time>2015-07-03T22:57:12Z</time>
				<extensions>
				</extensions>
			</trkpt>
			<trkpt lat="-27.690695" lon="153.192209">
				<ele>7.843</ele>
				<time>2015-07-03T22:57:13Z</time>
				<extensions>
				</extensions>
			</trkpt>
			<trkpt lat="-27.690923" lon="153.192335">
				<ele>8.902</ele>
				<time>2015-07-03T22:57:14Z</time>
				<extensions>
				</extensions>
			</trkpt>
			<trkpt lat="-27.691148" lon="153.192469">
				<ele>10.569</ele>
				<time>2015-07-03T22:57:15Z</time>
				<extensions>
				</extensions>
			</trkpt>
			<trkpt lat="-27.691370" lon="153.192606">
				<ele>9.062</ele>
				<time>2015-07-03T22:57:16Z</time>
				<extensions>
				</extensions>
			</trkpt>
			<trkpt lat="-27.691586" lon="153.192747">
				<ele>7.546</ele>
				<time>2015-07-03T22:57:17Z</time>
				<extensions>
				</extensions>
			</trkpt>
			<trkpt lat="-27.691805" lon="153.192889">
				<ele>8.737</ele>
				<time>2015-07-03T22:57:18Z</time>
				<extensions>
				</extensions>
			</trkpt>
			<trkpt lat="-27.692017" lon="153.193019">
				<ele>8.178</ele>
				<time>2015-07-03T22:57:19Z</time>
				<extensions>
				</extensions>
			</trkpt>
			<trkpt lat="-27.692233" lon="153.193151">
				<ele>6.698</ele>
				<time>2015-07-03T22:57:20Z</time>
				<extensions>
				</extensions>
			</trkpt>
			<trkpt lat="-27.692449" lon="153.193286">
				<ele>7.845</ele>
				<time>2015-07-03T22:57:21Z</time>
				<extensions>
				</extensions>
			</trkpt>
			<trkpt lat="-27.692653" lon="153.193407">
				<ele>5.740</ele>
				<time>2015-07-03T22:57:22Z</time>
				<extensions>
				</extensions>
			</trkpt>
			<trkpt lat="-27.692859" lon="153.193529">
				<ele>4.133</ele>
				<time>2015-07-03T22:57:23Z</time>
				<extensions>
				</extensions>
			</trkpt>
			<trkpt lat="-27.693066" lon="153.193656">
				<ele>4.747</ele>
				<time>2015-07-03T22:57:24Z</time>
				<extensions>
				</extensions>
			</trkpt>
			<trkpt lat="-27.693267" lon="153.193775">
				<ele>3.306</ele>
				<time>2015-07-03T22:57:25Z</time>
				<extensions>
				</extensions>
			</trkpt>
			<trkpt lat="-27.693467" lon="153.193897">
				<ele>3.715</ele>
				<time>2015-07-03T22:57:26Z</time>
				<extensions>
				</extensions>
			</trkpt>
			<trkpt lat="-27.693674" lon="153.194009">
				<ele>3.354</ele>
				<time>2015-07-03T22:57:27Z</time>
				<extensions>
				</extensions>
			</trkpt>
			<trkpt lat="-27.693878" lon="153.194119">
				<ele>2.810</ele>
				<time>2015-07-03T22:57:28Z</time>
				<extensions>
				</extensions>
			</trkpt>
			<trkpt lat="-27.694080" lon="153.194225">
				<ele>3.340</ele>
				<time>2015-07-03T22:57:29Z</time>
				<extensions>
				</extensions>
			</trkpt>
			<trkpt lat="-27.694293" lon="153.194323">
				<ele>3.083</ele>
				<time>2015-07-03T22:57:30Z</time>
				<extensions>
				</extensions>
			</trkpt>
			<trkpt lat="-27.694508" lon="153.194429">
				<ele>3.751</ele>
				<time>2015-07-03T22:57:31Z</time>
				<extensions>
				</extensions>
			</trkpt>
			<trkpt lat="-27.694728" lon="153.194531">
				<ele>4.360</ele>
				<time>2015-07-03T22:57:32Z</time>
				<extensions>
				</extensions>
			</trkpt>
			<trkpt lat="-27.694956" lon="153.194635">
				<ele>7.336</ele>
				<time>2015-07-03T22:57:33Z</time>
				<extensions>
				</extensions>
			</trkpt>
			<trkpt lat="-27.695182" lon="153.194737">
				<ele>7.446</ele>
				<time>2015-07-03T22:57:34Z</time>
				<extensions>
				</extensions>
			</trkpt>
			<trkpt lat="-27.695414" lon="153.194842">
				<ele>8.973</ele>
				<time>2015-07-03T22:57:35Z</time>
				<extensions>
				</extensions>
			</trkpt>
			<trkpt lat="-27.695637" lon="153.194948">
				<ele>9.061</ele>
				<time>2015-07-03T22:57:36Z</time>
				<extensions>
				</extensions>
			</trkpt>
			<trkpt lat="-27.695863" lon="153.195042">
				<ele>9.454</ele>
				<time>2015-07-03T22:57:37Z</time>
				<extensions>
				</extensions>
			</trkpt>
			<trkpt lat="-27.696079" lon="153.195140">
				<ele>9.454</ele>
				<time>2015-07-03T22:57:38Z</time>
				<extensions>
				</extensions>
			</trkpt>
			<trkpt lat="-27.696303" lon="153.195244">
				<ele>10.462</ele>
				<time>2015-07-03T22:57:39Z</time>
				<extensions>
				</extensions>
			</trkpt>
			<trkpt lat="-27.696526" lon="153.195347">
				<ele>8.956</ele>
				<time>2015-07-03T22:57:40Z</time>
				<extensions>
				</extensions>
			</trkpt>
			<trkpt lat="-27.696753" lon="153.195448">
				<ele>8.401</ele>
				<time>2015-07-03T22:57:41Z</time>
				<extensions>
				</extensions>
			</trkpt>
			<trkpt lat="-27.696990" lon="153.195550">
				<ele>9.999</ele>
				<time>2015-07-03T22:57:42Z</time>
				<extensions>
				</extensions>
			</trkpt>
			<trkpt lat="-27.697217" lon="153.195642">
				<ele>9.769</ele>
				<time>2015-07-03T22:57:43Z</time>
				<extensions>
				</extensions>
			</trkpt>
			<trkpt lat="-27.697439" lon="153.195742">
				<ele>8.188</ele>
				<time>2015-07-03T22:57:44Z</time>
				<extensions>
				</extensions>
			</trkpt>
			<trkpt lat="-27.697661" lon="153.195843">
				<ele>8.342</ele>
				<time>2015-07-03T22:57:45Z</time>
				<extensions>
				</extensions>
			</trkpt>
			<trkpt lat="-27.697884" lon="153.195946">
				<ele>8.664</ele>
				<time>2015-07-03T22:57:46Z</time>
				<extensions>
				</extensions>
			</trkpt>
			<trkpt lat="-27.698104" lon="153.196042">
				<ele>5.729</ele>
				<time>2015-07-03T22:57:47Z</time>
				<extensions>
				</extensions>
			</trkpt>
			<trkpt lat="-27.698318" lon="153.196140">
				<ele>6.357</ele>
				<time>2015-07-03T22:57:48Z</time>
				<extensions>
				</extensions>
			</trkpt>
			<trkpt lat="-27.698536" lon="153.196242">
				<ele>5.203</ele>
				<time>2015-07-03T22:57:49Z</time>
				<extensions>
				</extensions>
			</trkpt>
			<trkpt lat="-27.698758" lon="153.196361">
				<ele>6.522</ele>
				<time>2015-07-03T22:57:50Z</time>
				<extensions>
				</extensions>
			</trkpt>
			<trkpt lat="-27.698994" lon="153.196487">
				<ele>8.488</ele>
				<time>2015-07-03T22:57:51Z</time>
				<extensions>
				</extensions>
			</trkpt>
			<trkpt lat="-27.699234" lon="153.196625">
				<ele>9.295</ele>
				<time>2015-07-03T22:57:52Z</time>
				<extensions>
				</extensions>
			</trkpt>
			<trkpt lat="-27.699473" lon="153.196773">
				<ele>8.141</ele>
				<time>2015-07-03T22:57:53Z</time>
				<extensions>
				</extensions>
			</trkpt>
			<trkpt lat="-27.699709" lon="153.196937">
				<ele>11.456</ele>
				<time>2015-07-03T22:57:54Z</time>
				<extensions>
				</extensions>
			</trkpt>
			<trkpt lat="-27.699943" lon="153.197103">
				<ele>11.359</ele>
				<time>2015-07-03T22:57:55Z</time>
				<extensions>
				</extensions>
			</trkpt>
			<trkpt lat="-27.700164" lon="153.197269">
				<ele>11.731</ele>
				<time>2015-07-03T22:57:56Z</time>
				<extensions>
				</extensions>
			</trkpt>
			<trkpt lat="-27.700371" lon="153.197444">
				<ele>10.414</ele>
				<time>2015-07-03T22:57:57Z</time>
				<extensions>
				</extensions>
			</trkpt>
			<trkpt lat="-27.700576" lon="153.197629">
				<ele>11.680</ele>
				<time>2015-07-03T22:57:58Z</time>
				<extensions>
				</extensions>
			</trkpt>
			<trkpt lat="-27.700774" lon="153.197822">
				<ele>12.427</ele>
				<time>2015-07-03T22:57:59Z</time>
				<extensions>
				</extensions>
			</trkpt>
			<trkpt lat="-27.700972" lon="153.198018">
				<ele>11.294</ele>
				<time>2015-07-03T22:58:00Z</time>
				<extensions>
				</extensions>
			</trkpt>
			<trkpt lat="-27.701152" lon="153.198218">
				<ele>12.070</ele>
				<time>2015-07-03T22:58:01Z</time>
				<extensions>
				</extensions>
			</trkpt>
			<trkpt lat="-27.701331" lon="153.198421">
				<ele>12.572</ele>
				<time>2015-07-03T22:58:02Z</time>
				<extensions>
				</extensions>
			</trkpt>
			<trkpt lat="-27.701505" lon="153.198631">
				<ele>13.501</ele>
				<time>2015-07-03T22:58:03Z</time>
				<extensions>
				</extensions>
			</trkpt>
			<trkpt lat="-27.701671" lon="153.198827">
				<ele>14.602</ele>
				<time>2015-07-03T22:58:04Z</time>
				<extensions>
				</extensions>
			</trkpt>
			<trkpt lat="-27.701847" lon="153.199033">
				<ele>15.169</ele>
				<time>2015-07-03T22:58:05Z</time>
				<extensions>
				</extensions>
			</trkpt>
			<trkpt lat="-27.702030" lon="153.199239">
				<ele>16.022</ele>
				<time>2015-07-03T22:58:06Z</time>
				<extensions>
				</extensions>
			</trkpt>
			<trkpt lat="-27.702232" lon="153.199451">
				<ele>17.267</ele>
				<time>2015-07-03T22:58:07Z</time>
				<extensions>
				</extensions>
			</trkpt>
			<trkpt lat="-27.702431" lon="153.199664">
				<ele>19.637</ele>
				<time>2015-07-03T22:58:08Z</time>
				<extensions>
				</extensions>
			</trkpt>
			<trkpt lat="-27.702630" lon="153.199884">
				<ele>22.641</ele>
				<time>2015-07-03T22:58:09Z</time>
				<extensions>
				</extensions>
			</trkpt>
			<trkpt lat="-27.702830" lon="153.200112">
				<ele>24.442</ele>
				<time>2015-07-03T22:58:10Z</time>
				<extensions>
				</extensions>
			</trkpt>
			<trkpt lat="-27.703031" lon="153.200336">
				<ele>25.358</ele>
				<time>2015-07-03T22:58:11Z</time>
				<extensions>
				</extensions>
			</trkpt>
			<trkpt lat="-27.703217" lon="153.200559">
				<ele>26.469</ele>
				<time>2015-07-03T22:58:12Z</time>
				<extensions>
				</extensions>
			</trkpt>
			<trkpt lat="-27.703410" lon="153.200777">
				<ele>25.841</ele>
				<time>2015-07-03T22:58:13Z</time>
				<extensions>
				</extensions>
			</trkpt>
			<trkpt lat="-27.703596" lon="153.200995">
				<ele>26.804</ele>
				<time>2015-07-03T22:58:14Z</time>
				<extensions>
				</extensions>
			</trkpt>
			<trkpt lat="-27.703780" lon="153.201211">
				<ele>29.154</ele>
				<time>2015-07-03T22:58:15Z</time>
				<extensions>
				</extensions>
			</trkpt>
			<trkpt lat="-27.703969" lon="153.201430">
				<ele>28.498</ele>
				<time>2015-07-03T22:58:16Z</time>
				<extensions>
				</extensions>
			</trkpt>
			<trkpt lat="-27.704157" lon="153.201649">
				<ele>29.476</ele>
				<time>2015-07-03T22:58:17Z</time>
				<extensions>
				</extensions>
			</trkpt>
			<trkpt lat="-27.704347" lon="153.201876">
				<ele>29.310</ele>
				<time>2015-07-03T22:58:18Z</time>
				<extensions>
				</extensions>
			</trkpt>
			<trkpt lat="-27.704538" lon="153.202103">
				<ele>30.316</ele>
				<time>2015-07-03T22:58:19Z</time>
				<extensions>
				</extensions>
			</trkpt>
			<trkpt lat="-27.704715" lon="153.202328">
				<ele>29.529</ele>
				<time>2015-07-03T22:58:20Z</time>
				<extensions>
				</extensions>
			</trkpt>
			<trkpt lat="-27.704895" lon="153.202541">
				<ele>27.174</ele>
				<time>2015-07-03T22:58:21Z</time>
				<extensions>
				</extensions>
			</trkpt>
			<trkpt lat="-27.705075" lon="153.202752">
				<ele>25.490</ele>
				<time>2015-07-03T22:58:22Z</time>
				<extensions>
				</extensions>
			</trkpt>
			<trkpt lat="-27.705249" lon="153.202953">
				<ele>24.683</ele>
				<time>2015-07-03T22:58:23Z</time>
				<extensions>
				</extensions>
			</trkpt>
			<trkpt lat="-27.705426" lon="153.203145">
				<ele>26.976</ele>
				<time>2015-07-03T22:58:24Z</time>
				<extensions>
				</extensions>
			</trkpt>
			<trkpt lat="-27.705611" lon="153.203328">
				<ele>25.838</ele>
				<time>2015-07-03T22:58:25Z</time>
				<extensions>
				</extensions>
			</trkpt>
			<trkpt lat="-27.705802" lon="153.203509">
				<ele>28.426</ele>
				<time>2015-07-03T22:58:26Z</time>
				<extensions>
				</extensions>
			</trkpt>
			<trkpt lat="-27.705992" lon="153.203687">
				<ele>29.114</ele>
				<time>2015-07-03T22:58:27Z</time>
				<extensions>
				</extensions>
			</trkpt>
			<trkpt lat="-27.706198" lon="153.203864">
				<ele>27.886</ele>
				<time>2015-07-03T22:58:28Z</time>
				<extensions>
				</extensions>
			</trkpt>
			<trkpt lat="-27.706403" lon="153.204036">
				<ele>28.622</ele>
				<time>2015-07-03T22:58:29Z</time>
				<extensions>
				</extensions>
			</trkpt>
			<trkpt lat="-27.706621" lon="153.204206">
				<ele>27.816</ele>
				<time>2015-07-03T22:58:30Z</time>
				<extensions>
				</extensions>
			</trkpt>
			<trkpt lat="-27.706842" lon="153.204368">
				<ele>29.666</ele>
				<time>2015-07-03T22:58:31Z</time>
				<extensions>
				</extensions>
			</trkpt>
			<trkpt lat="-27.707065" lon="153.204526">
				<ele>27.711</ele>
				<time>2015-07-03T22:58:32Z</time>
				<extensions>
				</extensions>
			</trkpt>
			<trkpt lat="-27.707292" lon="153.204674">
				<ele>27.111</ele>
				<time>2015-07-03T22:58:33Z</time>
				<extensions>
				</extensions>
			</trkpt>
			<trkpt lat="-27.707517" lon="153.204826">
				<ele>28.265</ele>
				<time>2015-07-03T22:58:34Z</time>
				<extensions>
				</extensions>
			</trkpt>
			<trkpt lat="-27.707743" lon="153.204967">
				<ele>28.260</ele>
				<time>2015-07-03T22:58:35Z</time>
				<extensions>
				</extensions>
			</trkpt>
			<trkpt lat="-27.707971" lon="153.205109">
				<ele>27.244</ele>
				<time>2015-07-03T22:58:36Z</time>
				<extensions>
				</extensions>
			</trkpt>
			<trkpt lat="-27.708202" lon="153.205260">
				<ele>26.770</ele>
				<time>2015-07-03T22:58:37Z</time>
				<extensions>
				</extensions>
			</trkpt>
			<trkpt lat="-27.708432" lon="153.205401">
				<ele>25.972</ele>
				<time>2015-07-03T22:58:38Z</time>
				<extensions>
				</extensions>
			</trkpt>
			<trkpt lat="-27.708658" lon="153.205542">
				<ele>24.565</ele>
				<time>2015-07-03T22:58:39Z</time>
				<extensions>
				</extensions>
			</trkpt>
			<trkpt lat="-27.708887" lon="153.205691">
				<ele>24.565</ele>
				<time>2015-07-03T22:58:40Z</time>
				<extensions>
				</extensions>
			</trkpt>
			<trkpt lat="-27.709113" lon="153.205837">
				<ele>23.588</ele>
				<time>2015-07-03T22:58:41Z</time>
				<extensions>
				</extensions>
			</trkpt>
			<trkpt lat="-27.709340" lon="153.205977">
				<ele>23.720</ele>
				<time>2015-07-03T22:58:42Z</time>
				<extensions>
				</extensions>
			</trkpt>
			<trkpt lat="-27.709573" lon="153.206117">
				<ele>22.690</ele>
				<time>2015-07-03T22:58:43Z</time>
				<extensions>
				</extensions>
			</trkpt>
			<trkpt lat="-27.709805" lon="153.206255">
				<ele>22.490</ele>
				<time>2015-07-03T22:58:44Z</time>
				<extensions>
				</extensions>
			</trkpt>
			<trkpt lat="-27.710038" lon="153.206388">
				<ele>21.041</ele>
				<time>2015-07-03T22:58:45Z</time>
				<extensions>
				</extensions>
			</trkpt>
			<trkpt lat="-27.710276" lon="153.206520">
				<ele>21.955</ele>
				<time>2015-07-03T22:58:46Z</time>
				<extensions>
				</extensions>
			</trkpt>
			<trkpt lat="-27.710515" lon="153.206659">
				<ele>22.329</ele>
				<time>2015-07-03T22:58:47Z</time>
				<extensions>
				</extensions>
			</trkpt>
			<trkpt lat="-27.710751" lon="153.206797">
				<ele>20.753</ele>
				<time>2015-07-03T22:58:48Z</time>
				<extensions>
				</extensions>
			</trkpt>
			<trkpt lat="-27.710982" lon="153.206947">
				<ele>19.929</ele>
				<time>2015-07-03T22:58:49Z</time>
				<extensions>
				</extensions>
			</trkpt>
			<trkpt lat="-27.711213" lon="153.207077">
				<ele>17.299</ele>
				<time>2015-07-03T22:58:50Z</time>
				<extensions>
				</extensions>
			</trkpt>
			<trkpt lat="-27.711443" lon="153.207206">
				<ele>17.123</ele>
				<time>2015-07-03T22:58:51Z</time>
				<extensions>
				</extensions>
			</trkpt>
			<trkpt lat="-27.711670" lon="153.207338">
				<ele>14.785</ele>
				<time>2015-07-03T22:58:52Z</time>
				<extensions>
				</extensions>
			</trkpt>
			<trkpt lat="-27.711899" lon="153.207463">
				<ele>15.941</ele>
				<time>2015-07-03T22:58:53Z</time>
				<extensions>
				</extensions>
			</trkpt>
			<trkpt lat="-27.712128" lon="153.207597">
				<ele>15.645</ele>
				<time>2015-07-03T22:58:54Z</time>
				<extensions>
				</extensions>
			</trkpt>
			<trkpt lat="-27.712362" lon="153.207723">
				<ele>14.103</ele>
				<time>2015-07-03T22:58:55Z</time>
				<extensions>
				</extensions>
			</trkpt>
			<trkpt lat="-27.712606" lon="153.207863">
				<ele>15.112</ele>
				<time>2015-07-03T22:58:56Z</time>
				<extensions>
				</extensions>
			</trkpt>
			<trkpt lat="-27.712866" lon="153.208007">
				<ele>15.301</ele>
				<time>2015-07-03T22:58:57Z</time>
				<extensions>
				</extensions>
			</trkpt>
			<trkpt lat="-27.713134" lon="153.208156">
				<ele>16.093</ele>
				<time>2015-07-03T22:58:58Z</time>
				<extensions>
				</extensions>
			</trkpt>
			<trkpt lat="-27.713399" lon="153.208297">
				<ele>16.797</ele>
				<time>2015-07-03T22:58:59Z</time>
				<extensions>
				</extensions>
			</trkpt>
			<trkpt lat="-27.713654" lon="153.208438">
				<ele>14.538</ele>
				<time>2015-07-03T22:59:00Z</time>
				<extensions>
				</extensions>
			</trkpt>
			<trkpt lat="-27.713897" lon="153.208581">
				<ele>15.323</ele>
				<time>2015-07-03T22:59:01Z</time>
				<extensions>
				</extensions>
			</trkpt>
			<trkpt lat="-27.714143" lon="153.208720">
				<ele>11.331</ele>
				<time>2015-07-03T22:59:02Z</time>
				<extensions>
				</extensions>
			</trkpt>
			<trkpt lat="-27.714379" lon="153.208853">
				<ele>7.962</ele>
				<time>2015-07-03T22:59:03Z</time>
				<extensions>
				</extensions>
			</trkpt>
			<trkpt lat="-27.714616" lon="153.208986">
				<ele>8.442</ele>
				<time>2015-07-03T22:59:04Z</time>
				<extensions>
				</extensions>
			</trkpt>
			<trkpt lat="-27.714851" lon="153.209124">
				<ele>8.733</ele>
				<time>2015-07-03T22:59:05Z</time>
				<extensions>
				</extensions>
			</trkpt>
			<trkpt lat="-27.715082" lon="153.209260">
				<ele>9.243</ele>
				<time>2015-07-03T22:59:06Z</time>
				<extensions>
				</extensions>
			</trkpt>
			<trkpt lat="-27.715308" lon="153.209396">
				<ele>7.010</ele>
				<time>2015-07-03T22:59:07Z</time>
				<extensions>
				</extensions>
			</trkpt>
			<trkpt lat="-27.715533" lon="153.209541">
				<ele>6.521</ele>
				<time>2015-07-03T22:59:08Z</time>
				<extensions>
				</extensions>
			</trkpt>
			<trkpt lat="-27.715754" lon="153.209686">
				<ele>6.120</ele>
				<time>2015-07-03T22:59:09Z</time>
				<extensions>
				</extensions>
			</trkpt>
			<trkpt lat="-27.715981" lon="153.209828">
				<ele>6.247</ele>
				<time>2015-07-03T22:59:10Z</time>
				<extensions>
				</extensions>
			</trkpt>
			<trkpt lat="-27.716200" lon="153.209987">
				<ele>7.114</ele>
				<time>2015-07-03T22:59:11Z</time>
				<extensions>
				</extensions>
			</trkpt>
			<trkpt lat="-27.716420" lon="153.210147">
				<ele>9.844</ele>
				<time>2015-07-03T22:59:12Z</time>
				<extensions>
				</extensions>
			</trkpt>
			<trkpt lat="-27.716640" lon="153.210313">
				<ele>9.535</ele>
				<time>2015-07-03T22:59:13Z</time>
				<extensions>
				</extensions>
			</trkpt>
			<trkpt lat="-27.716855" lon="153.210481">
				<ele>9.395</ele>
				<time>2015-07-03T22:59:14Z</time>
				<extensions>
				</extensions>
			</trkpt>
			<trkpt lat="-27.717074" lon="153.210651">
				<ele>7.914</ele>
				<time>2015-07-03T22:59:15Z</time>
				<extensions>
				</extensions>
			</trkpt>
			<trkpt lat="-27.717285" lon="153.210833">
				<ele>7.025</ele>
				<time>2015-07-03T22:59:16Z</time>
				<extensions>
				</extensions>
			</trkpt>
			<trkpt lat="-27.717493" lon="153.211012">
				<ele>6.394</ele>
				<time>2015-07-03T22:59:17Z</time>
				<extensions>
				</extensions>
			</trkpt>
			<trkpt lat="-27.717717" lon="153.211190">
				<ele>6.037</ele>
				<time>2015-07-03T22:59:18Z</time>
				<extensions>
				</extensions>
			</trkpt>
			<trkpt lat="-27.717926" lon="153.211376">
				<ele>7.639</ele>
				<time>2015-07-03T22:59:19Z</time>
				<extensions>
				</extensions>
			</trkpt>
			<trkpt lat="-27.718126" lon="153.211565">
				<ele>7.942</ele>
				<time>2015-07-03T22:59:20Z</time>
				<extensions>
				</extensions>
			</trkpt>
			<trkpt lat="-27.718334" lon="153.211750">
				<ele>8.247</ele>
				<time>2015-07-03T22:59:21Z</time>
				<extensions>
				</extensions>
			</trkpt>
			<trkpt lat="-27.718537" lon="153.211945">
				<ele>8.735</ele>
				<time>2015-07-03T22:59:22Z</time>
				<extensions>
				</extensions>
			</trkpt>
			<trkpt lat="-27.718732" lon="153.212150">
				<ele>6.834</ele>
				<time>2015-07-03T22:59:23Z</time>
				<extensions>
				</extensions>
			</trkpt>
			<trkpt lat="-27.718925" lon="153.212350">
				<ele>7.220</ele>
				<time>2015-07-03T22:59:24Z</time>
				<extensions>
				</extensions>
			</trkpt>
			<trkpt lat="-27.719103" lon="153.212552">
				<ele>6.356</ele>
				<time>2015-07-03T22:59:25Z</time>
				<extensions>
				</extensions>
			</trkpt>
			<trkpt lat="-27.719282" lon="153.212756">
				<ele>6.630</ele>
				<time>2015-07-03T22:59:26Z</time>
				<extensions>
				</extensions>
			</trkpt>
			<trkpt lat="-27.719463" lon="153.212976">
				<ele>4.112</ele>
				<time>2015-07-03T22:59:27Z</time>
				<extensions>
				</extensions>
			</trkpt>
			<trkpt lat="-27.719636" lon="153.213191">
				<ele>5.619</ele>
				<time>2015-07-03T22:59:28Z</time>
				<extensions>
				</extensions>
			</trkpt>
			<trkpt lat="-27.719793" lon="153.213401">
				<ele>4.336</ele>
				<time>2015-07-03T22:59:29Z</time>
				<extensions>
				</extensions>
			</trkpt>
			<trkpt lat="-27.719966" lon="153.213614">
				<ele>6.145</ele>
				<time>2015-07-03T22:59:30Z</time>
				<extensions>
				</extensions>
			</trkpt>
			<trkpt lat="-27.720130" lon="153.213828">
				<ele>6.290</ele>
				<time>2015-07-03T22:59:31Z</time>
				<extensions>
				</extensions>
			</trkpt>
			<trkpt lat="-27.720289" lon="153.214037">
				<ele>4.874</ele>
				<time>2015-07-03T22:59:32Z</time>
				<extensions>
				</extensions>
			</trkpt>
			<trkpt lat="-27.720450" lon="153.214256">
				<ele>3.264</ele>
				<time>2015-07-03T22:59:33Z</time>
				<extensions>
				</extensions>
			</trkpt>
			<trkpt lat="-27.720600" lon="153.214467">
				<ele>4.335</ele>
				<time>2015-07-03T22:59:34Z</time>
				<extensions>
				</extensions>
			</trkpt>
			<trkpt lat="-27.720747" lon="153.214675">
				<ele>4.338</ele>
				<time>2015-07-03T22:59:35Z</time>
				<extensions>
				</extensions>
			</trkpt>
			<trkpt lat="-27.720901" lon="153.214888">
				<ele>4.340</ele>
				<time>2015-07-03T22:59:36Z</time>
				<extensions>
				</extensions>
			</trkpt>
			<trkpt lat="-27.721051" lon="153.215099">
				<ele>3.811</ele>
				<time>2015-07-03T22:59:37Z</time>
				<extensions>
				</extensions>
			</trkpt>
			<trkpt lat="-27.721201" lon="153.215312">
				<ele>4.834</ele>
				<time>2015-07-03T22:59:38Z</time>
				<extensions>
				</extensions>
			</trkpt>
			<trkpt lat="-27.721362" lon="153.215532">
				<ele>6.071</ele>
				<time>2015-07-03T22:59:39Z</time>
				<extensions>
				</extensions>
			</trkpt>
			<trkpt lat="-27.721523" lon="153.215747">
				<ele>6.808</ele>
				<time>2015-07-03T22:59:40Z</time>
				<extensions>
				</extensions>
			</trkpt>
			<trkpt lat="-27.721674" lon="153.215966">
				<ele>6.916</ele>
				<time>2015-07-03T22:59:41Z</time>
				<extensions>
				</extensions>
			</trkpt>
			<trkpt lat="-27.721831" lon="153.216187">
				<ele>8.298</ele>
				<time>2015-07-03T22:59:42Z</time>
				<extensions>
				</extensions>
			</trkpt>
			<trkpt lat="-27.721994" lon="153.216422">
				<ele>8.298</ele>
				<time>2015-07-03T22:59:43Z</time>
				<extensions>
				</extensions>
			</trkpt>
			<trkpt lat="-27.722152" lon="153.216647">
				<ele>8.395</ele>
				<time>2015-07-03T22:59:44Z</time>
				<extensions>
				</extensions>
			</trkpt>
			<trkpt lat="-27.722303" lon="153.216872">
				<ele>7.692</ele>
				<time>2015-07-03T22:59:45Z</time>
				<extensions>
				</extensions>
			</trkpt>
			<trkpt lat="-27.722462" lon="153.217082">
				<ele>7.727</ele>
				<time>2015-07-03T22:59:46Z</time>
				<extensions>
				</extensions>
			</trkpt>
			<trkpt lat="-27.722620" lon="153.217300">
				<ele>7.843</ele>
				<time>2015-07-03T22:59:47Z</time>
				<extensions>
				</extensions>
			</trkpt>
			<trkpt lat="-27.722771" lon="153.217512">
				<ele>7.925</ele>
				<time>2015-07-03T22:59:48Z</time>
				<extensions>
				</extensions>
			</trkpt>
			<trkpt lat="-27.722925" lon="153.217719">
				<ele>8.002</ele>
				<time>2015-07-03T22:59:49Z</time>
				<extensions>
				</extensions>
			</trkpt>
			<trkpt lat="-27.723071" lon="153.217936">
				<ele>7.065</ele>
				<time>2015-07-03T22:59:50Z</time>
				<extensions>
				</extensions>
			</trkpt>
			<trkpt lat="-27.723235" lon="153.218143">
				<ele>7.103</ele>
				<time>2015-07-03T22:59:51Z</time>
				<extensions>
				</extensions>
			</trkpt>
			<trkpt lat="-27.723400" lon="153.218343">
				<ele>8.422</ele>
				<time>2015-07-03T22:59:52Z</time>
				<extensions>
				</extensions>
			</trkpt>
			<trkpt lat="-27.723576" lon="153.218548">
				<ele>8.061</ele>
				<time>2015-07-03T22:59:53Z</time>
				<extensions>
				</extensions>
			</trkpt>
			<trkpt lat="-27.723756" lon="153.218756">
				<ele>8.831</ele>
				<time>2015-07-03T22:59:54Z</time>
				<extensions>
				</extensions>
			</trkpt>
			<trkpt lat="-27.723940" lon="153.218974">
				<ele>10.491</ele>
				<time>2015-07-03T22:59:55Z</time>
				<extensions>
				</extensions>
			</trkpt>
			<trkpt lat="-27.724123" lon="153.219185">
				<ele>9.905</ele>
				<time>2015-07-03T22:59:56Z</time>
				<extensions>
				</extensions>
			</trkpt>
			<trkpt lat="-27.724306" lon="153.219387">
				<ele>9.920</ele>
				<time>2015-07-03T22:59:57Z</time>
				<extensions>
				</extensions>
			</trkpt>
			<trkpt lat="-27.724486" lon="153.219572">
				<ele>9.283</ele>
				<time>2015-07-03T22:59:58Z</time>
				<extensions>
				</extensions>
			</trkpt>
			<trkpt lat="-27.724674" lon="153.219762">
				<ele>9.076</ele>
				<time>2015-07-03T22:59:59Z</time>
				<extensions>
				</extensions>
			</trkpt>
			<trkpt lat="-27.724864" lon="153.219952">
				<ele>11.650</ele>
				<time>2015-07-03T23:00:00Z</time>
				<extensions>
				</extensions>
			</trkpt>
			<trkpt lat="-27.725061" lon="153.220149">
				<ele>11.402</ele>
				<time>2015-07-03T23:00:01Z</time>
				<extensions>
				</extensions>
			</trkpt>
			<trkpt lat="-27.725256" lon="153.220341">
				<ele>12.080</ele>
				<time>2015-07-03T23:00:02Z</time>
				<extensions>
				</extensions>
			</trkpt>
			<trkpt lat="-27.725451" lon="153.220533">
				<ele>10.343</ele>
				<time>2015-07-03T23:00:03Z</time>
				<extensions>
				</extensions>
			</trkpt>
			<trkpt lat="-27.725641" lon="153.220720">
				<ele>9.081</ele>
				<time>2015-07-03T23:00:04Z</time>
				<extensions>
				</extensions>
			</trkpt>
			<trkpt lat="-27.725837" lon="153.220911">
				<ele>9.020</ele>
				<time>2015-07-03T23:00:05Z</time>
				<extensions>
				</extensions>
			</trkpt>
			<trkpt lat="-27.726032" lon="153.221094">
				<ele>9.935</ele>
				<time>2015-07-03T23:00:06Z</time>
				<extensions>
				</extensions>
			</trkpt>
			<trkpt lat="-27.726222" lon="153.221274">
				<ele>9.674</ele>
				<time>2015-07-03T23:00:07Z</time>
				<extensions>
				</extensions>
			</trkpt>
			<trkpt lat="-27.726416" lon="153.221450">
				<ele>9.673</ele>
				<time>2015-07-03T23:00:08Z</time>
				<extensions>
				</extensions>
			</trkpt>
			<trkpt lat="-27.726604" lon="153.221616">
				<ele>6.850</ele>
				<time>2015-07-03T23:00:09Z</time>
				<extensions>
				</extensions>
			</trkpt>
			<trkpt lat="-27.726807" lon="153.221789">
				<ele>6.502</ele>
				<time>2015-07-03T23:00:10Z</time>
				<extensions>
				</extensions>
			</trkpt>
			<trkpt lat="-27.726999" lon="153.221960">
				<ele>8.939</ele>
				<time>2015-07-03T23:00:11Z</time>
				<extensions>
				</extensions>
			</trkpt>
			<trkpt lat="-27.727186" lon="153.222132">
				<ele>8.282</ele>
				<time>2015-07-03T23:00:12Z</time>
				<extensions>
				</extensions>
			</trkpt>
			<trkpt lat="-27.727380" lon="153.222304">
				<ele>9.183</ele>
				<time>2015-07-03T23:00:13Z</time>
				<extensions>
				</extensions>
			</trkpt>
			<trkpt lat="-27.727576" lon="153.222467">
				<ele>7.458</ele>
				<time>2015-07-03T23:00:14Z</time>
				<extensions>
				</extensions>
			</trkpt>
			<trkpt lat="-27.727776" lon="153.222631">
				<ele>7.883</ele>
				<time>2015-07-03T23:00:15Z</time>
				<extensions>
				</extensions>
			</trkpt>
			<trkpt lat="-27.727975" lon="153.222792">
				<ele>7.774</ele>
				<time>2015-07-03T23:00:16Z</time>
				<extensions>
				</extensions>
			</trkpt>
			<trkpt lat="-27.728175" lon="153.222951">
				<ele>9.896</ele>
				<time>2015-07-03T23:00:17Z</time>
				<extensions>
				</extensions>
			</trkpt>
			<trkpt lat="-27.728379" lon="153.223116">
				<ele>10.308</ele>
				<time>2015-07-03T23:00:18Z</time>
				<extensions>
				</extensions>
			</trkpt>
			<trkpt lat="-27.728593" lon="153.223275">
				<ele>9.776</ele>
				<time>2015-07-03T23:00:19Z</time>
				<extensions>
				</extensions>
			</trkpt>
			<trkpt lat="-27.728801" lon="153.223436">
				<ele>9.979</ele>
				<time>2015-07-03T23:00:20Z</time>
				<extensions>
				</extensions>
			</trkpt>
			<trkpt lat="-27.729011" lon="153.223598">
				<ele>8.707</ele>
				<time>2015-07-03T23:00:21Z</time>
				<extensions>
				</extensions>
			</trkpt>
			<trkpt lat="-27.729210" lon="153.223748">
				<ele>9.884</ele>
				<time>2015-07-03T23:00:22Z</time>
				<extensions>
				</extensions>
			</trkpt>
			<trkpt lat="-27.729401" lon="153.223897">
				<ele>7.548</ele>
				<time>2015-07-03T23:00:23Z</time>
				<extensions>
				</extensions>
			</trkpt>
			<trkpt lat="-27.729590" lon="153.224038">
				<ele>6.433</ele>
				<time>2015-07-03T23:00:24Z</time>
				<extensions>
				</extensions>
			</trkpt>
			<trkpt lat="-27.729771" lon="153.224182">
				<ele>4.971</ele>
				<time>2015-07-03T23:00:25Z</time>
				<extensions>
				</extensions>
			</trkpt>
			<trkpt lat="-27.729960" lon="153.224319">
				<ele>4.692</ele>
				<time>2015-07-03T23:00:26Z</time>
				<extensions>
				</extensions>
			</trkpt>
			<trkpt lat="-27.730136" lon="153.224451">
				<ele>3.038</ele>
				<time>2015-07-03T23:00:27Z</time>
				<extensions>
				</extensions>
			</trkpt>
			<trkpt lat="-27.730303" lon="153.224591">
				<ele>4.129</ele>
				<time>2015-07-03T23:00:28Z</time>
				<extensions>
				</extensions>
			</trkpt>
			<trkpt lat="-27.730476" lon="153.224735">
				<ele>4.541</ele>
				<time>2015-07-03T23:00:29Z</time>
				<extensions>
				</extensions>
			</trkpt>
			<trkpt lat="-27.730651" lon="153.224874">
				<ele>2.838</ele>
				<time>2015-07-03T23:00:30Z</time>
				<extensions>
				</extensions>
			</trkpt>
			<trkpt lat="-27.730829" lon="153.225015">
				<ele>2.557</ele>
				<time>2015-07-03T23:00:31Z</time>
				<extensions>
				</extensions>
			</trkpt>
			<trkpt lat="-27.731011" lon="153.225156">
				<ele>4.173</ele>
				<time>2015-07-03T23:00:32Z</time>
				<extensions>
				</extensions>
			</trkpt>
			<trkpt lat="-27.731196" lon="153.225304">
				<ele>3.940</ele>
				<time>2015-07-03T23:00:33Z</time>
				<extensions>
				</extensions>
			</trkpt>
			<trkpt lat="-27.731380" lon="153.225445">
				<ele>4.185</ele>
				<time>2015-07-03T23:00:34Z</time>
				<extensions>
				</extensions>
			</trkpt>
			<trkpt lat="-27.731570" lon="153.225577">
				<ele>4.368</ele>
				<time>2015-07-03T23:00:35Z</time>
				<extensions>
				</extensions>
			</trkpt>
			<trkpt lat="-27.731758" lon="153.225717">
				<ele>3.807</ele>
				<time>2015-07-03T23:00:36Z</time>
				<extensions>
				</extensions>
			</trkpt>
			<trkpt lat="-27.731948" lon="153.225856">
				<ele>3.909</ele>
				<time>2015-07-03T23:00:37Z</time>
				<extensions>
				</extensions>
			</trkpt>
			<trkpt lat="-27.732134" lon="153.225991">
				<ele>3.367</ele>
				<time>2015-07-03T23:00:38Z</time>
				<extensions>
				</extensions>
			</trkpt>
			<trkpt lat="-27.732298" lon="153.226127">
				<ele>2.235</ele>
				<time>2015-07-03T23:00:39Z</time>
				<extensions>
				</extensions>
			</trkpt>
			<trkpt lat="-27.732458" lon="153.226256">
				<ele>2.602</ele>
				<time>2015-07-03T23:00:40Z</time>
				<extensions>
				</extensions>
			</trkpt>
			<trkpt lat="-27.732613" lon="153.226387">
				<ele>1.122</ele>
				<time>2015-07-03T23:00:41Z</time>
				<extensions>
				</extensions>
			</trkpt>
			<trkpt lat="-27.732771" lon="153.226524">
				<ele>1.457</ele>
				<time>2015-07-03T23:00:42Z</time>
				<extensions>
				</extensions>
			</trkpt>
			<trkpt lat="-27.732925" lon="153.226652">
				<ele>1.109</ele>
				<time>2015-07-03T23:00:43Z</time>
				<extensions>
				</extensions>
			</trkpt>
			<trkpt lat="-27.733076" lon="153.226796">
				<ele>2.509</ele>
				<time>2015-07-03T23:00:44Z</time>
				<extensions>
				</extensions>
			</trkpt>
			<trkpt lat="-27.733217" lon="153.226939">
				<ele>1.208</ele>
				<time>2015-07-03T23:00:45Z</time>
				<extensions>
				</extensions>
			</trkpt>
			<trkpt lat="-27.733491" lon="153.227190">
				<ele>1.178</ele>
				<time>2015-07-03T23:00:47Z</time>
				<extensions>
				</extensions>
			</trkpt>
			<trkpt lat="-27.733734" lon="153.227417">
				<ele>-0.082</ele>
				<time>2015-07-03T23:00:49Z</time>
				<extensions>
				</extensions>
			</trkpt>
			<trkpt lat="-27.733959" lon="153.227636">
				<ele>-1.795</ele>
				<time>2015-07-03T23:00:51Z</time>
				<extensions>
				</extensions>
			</trkpt>
			<trkpt lat="-27.734161" lon="153.227849">
				<ele>-1.607</ele>
				<time>2015-07-03T23:00:53Z</time>
				<extensions>
				</extensions>
			</trkpt>
			<trkpt lat="-27.734378" lon="153.228034">
				<ele>-1.809</ele>
				<time>2015-07-03T23:00:55Z</time>
				<extensions>
				</extensions>
			</trkpt>
			<trkpt lat="-27.734598" lon="153.228155">
				<ele>-2.674</ele>
				<time>2015-07-03T23:00:57Z</time>
				<extensions>
				</extensions>
			</trkpt>
			<trkpt lat="-27.734761" lon="153.228291">
				<ele>-4.626</ele>
				<time>2015-07-03T23:00:59Z</time>
				<extensions>
				</extensions>
			</trkpt>
			<trkpt lat="-27.734791" lon="153.228495">
				<ele>-4.940</ele>
				<time>2015-07-03T23:01:01Z</time>
				<extensions>
				</extensions>
			</trkpt>
			<trkpt lat="-27.734695" lon="153.228714">
				<ele>-6.301</ele>
				<time>2015-07-03T23:01:04Z</time>
				<extensions>
				</extensions>
			</trkpt>
			<trkpt lat="-27.734493" lon="153.228808">
				<ele>-5.911</ele>
				<time>2015-07-03T23:01:07Z</time>
				<extensions>
				</extensions>
			</trkpt>
			<trkpt lat="-27.734288" lon="153.228685">
				<ele>-4.127</ele>
				<time>2015-07-03T23:01:10Z</time>
				<extensions>
				</extensions>
			</trkpt>
			<trkpt lat="-27.734182" lon="153.228494">
				<ele>-3.239</ele>
				<time>2015-07-03T23:01:12Z</time>
				<extensions>
				</extensions>
			</trkpt>
			<trkpt lat="-27.734092" lon="153.228274">
				<ele>-2.899</ele>
				<time>2015-07-03T23:01:14Z</time>
				<extensions>
				</extensions>
			</trkpt>
			<trkpt lat="-27.733970" lon="153.228033">
				<ele>-4.545</ele>
				<time>2015-07-03T23:01:17Z</time>
				<extensions>
				</extensions>
			</trkpt>
			<trkpt lat="-27.733847" lon="153.227856">
				<ele>-4.088</ele>
				<time>2015-07-03T23:01:20Z</time>
				<extensions>
				</extensions>
			</trkpt>
			<trkpt lat="-27.733668" lon="153.227647">
				<ele>-2.514</ele>
				<time>2015-07-03T23:01:23Z</time>
				<extensions>
				</extensions>
			</trkpt>
			<trkpt lat="-27.733498" lon="153.227503">
				<ele>-1.788</ele>
				<time>2015-07-03T23:01:25Z</time>
				<extensions>
				</extensions>
			</trkpt>
			<trkpt lat="-27.733346" lon="153.227387">
				<ele>-1.992</ele>
				<time>2015-07-03T23:01:27Z</time>
				<extensions>
				</extensions>
			</trkpt>
			<trkpt lat="-27.733184" lon="153.227282">
				<ele>-3.785</ele>
				<time>2015-07-03T23:01:30Z</time>
				<extensions>
				</extensions>
			</trkpt>
			<trkpt lat="-27.733000" lon="153.227369">
				<ele>-3.292</ele>
				<time>2015-07-03T23:01:36Z</time>
				<extensions>
				</extensions>
			</trkpt>
			<trkpt lat="-27.732945" lon="153.227579">
				<ele>-0.448</ele>
				<time>2015-07-03T23:01:44Z</time>
				<extensions>
				</extensions>
			</trkpt>
			<trkpt lat="-27.732830" lon="153.227757">
				<ele>1.629</ele>
				<time>2015-07-03T23:01:52Z</time>
				<extensions>
				</extensions>
			</trkpt>
			<trkpt lat="-27.732806" lon="153.227980">
				<ele>3.145</ele>
				<time>2015-07-03T23:01:59Z</time>
				<extensions>
				</extensions>
			</trkpt>
			<trkpt lat="-27.732632" lon="153.228085">
				<ele>3.065</ele>
				<time>2015-07-03T23:15:58Z</time>
				<extensions>
				</extensions>
			</trkpt>
			<trkpt lat="-27.732452" lon="153.228135">
				<ele>8.081</ele>
				<time>2015-07-03T23:16:46Z</time>
				<extensions>
				</extensions>
			</trkpt>
			<trkpt lat="-27.732247" lon="153.228162">
				<ele>8.504</ele>
				<time>2015-07-03T23:16:59Z</time>
				<extensions>
				</extensions>
			</trkpt>
			<trkpt lat="-27.732114" lon="153.228331">
				<ele>9.126</ele>
				<time>2015-07-03T23:17:05Z</time>
				<extensions>
				</extensions>
			</trkpt>
			<trkpt lat="-27.732150" lon="153.228536">
				<ele>9.419</ele>
				<time>2015-07-03T23:17:09Z</time>
				<extensions>
				</extensions>
			</trkpt>
			<trkpt lat="-27.732204" lon="153.228735">
				<ele>8.957</ele>
				<time>2015-07-03T23:17:14Z</time>
				<extensions>
				</extensions>
			</trkpt>
			<trkpt lat="-27.732370" lon="153.228827">
				<ele>9.339</ele>
				<time>2015-07-03T23:17:19Z</time>
				<extensions>
				</extensions>
			</trkpt>
			<trkpt lat="-27.732554" lon="153.228869">
				<ele>8.924</ele>
				<time>2015-07-03T23:17:22Z</time>
				<extensions>
				</extensions>
			</trkpt>
			<trkpt lat="-27.732694" lon="153.229018">
				<ele>8.243</ele>
				<time>2015-07-03T23:17:27Z</time>
				<extensions>
				</extensions>
			</trkpt>
			<trkpt lat="-27.732860" lon="153.229101">
				<ele>8.296</ele>
				<time>2015-07-03T23:17:32Z</time>
				<extensions>
				</extensions>
			</trkpt>
			<trkpt lat="-27.733036" lon="153.229174">
				<ele>8.238</ele>
				<time>2015-07-03T23:17:36Z</time>
				<extensions>
				</extensions>
			</trkpt>
			<trkpt lat="-27.733237" lon="153.229151">
				<ele>8.758</ele>
				<time>2015-07-03T23:17:43Z</time>
				<extensions>
				</extensions>
			</trkpt>
			<trkpt lat="-27.733428" lon="153.229043">
				<ele>8.973</ele>
				<time>2015-07-03T23:17:50Z</time>
				<extensions>
				</extensions>
			</trkpt>
			<trkpt lat="-27.733521" lon="153.228841">
				<ele>8.619</ele>
				<time>2015-07-03T23:17:55Z</time>
				<extensions>
				</extensions>
			</trkpt>
			<trkpt lat="-27.733604" lon="153.228652">
				<ele>8.604</ele>
				<time>2015-07-03T23:17:59Z</time>
				<extensions>
				</extensions>
			</trkpt>
			<trkpt lat="-27.733685" lon="153.228455">
				<ele>8.145</ele>
				<time>2015-07-03T23:18:03Z</time>
				<extensions>
				</extensions>
			</trkpt>
			<trkpt lat="-27.733741" lon="153.228236">
				<ele>7.369</ele>
				<time>2015-07-03T23:18:07Z</time>
				<extensions>
				</extensions>
			</trkpt>
			<trkpt lat="-27.733701" lon="153.228032">
				<ele>5.927</ele>
				<time>2015-07-03T23:18:11Z</time>
				<extensions>
				</extensions>
			</trkpt>
			<trkpt lat="-27.733912" lon="153.228048">
				<ele>5.922</ele>
				<time>2015-07-03T23:18:17Z</time>
				<extensions>
				</extensions>
			</trkpt>
			<trkpt lat="-27.734043" lon="153.228326">
				<ele>7.065</ele>
				<time>2015-07-03T23:18:20Z</time>
				<extensions>
				</extensions>
			</trkpt>
			<trkpt lat="-27.734132" lon="153.228512">
				<ele>6.813</ele>
				<time>2015-07-03T23:18:22Z</time>
				<extensions>
				</extensions>
			</trkpt>
			<trkpt lat="-27.734240" lon="153.228722">
				<ele>5.168</ele>
				<time>2015-07-03T23:18:25Z</time>
				<extensions>
				</extensions>
			</trkpt>
			<trkpt lat="-27.734384" lon="153.228859">
				<ele>5.270</ele>
				<time>2015-07-03T23:18:29Z</time>
				<extensions>
				</extensions>
			</trkpt>
			<trkpt lat="-27.734508" lon="153.229052">
				<ele>5.629</ele>
				<time>2015-07-03T23:18:33Z</time>
				<extensions>
				</extensions>
			</trkpt>
			<trkpt lat="-27.734622" lon="153.229316">
				<ele>6.254</ele>
				<time>2015-07-03T23:18:36Z</time>
				<extensions>
				</extensions>
			</trkpt>
			<trkpt lat="-27.734764" lon="153.229446">
				<ele>6.151</ele>
				<time>2015-07-03T23:18:38Z</time>
				<extensions>
				</extensions>
			</trkpt>
			<trkpt lat="-27.735035" lon="153.229437">
				<ele>7.459</ele>
				<time>2015-07-03T23:18:41Z</time>
				<extensions>
				</extensions>
			</trkpt>
			<trkpt lat="-27.735179" lon="153.229293">
				<ele>7.281</ele>
				<time>2015-07-03T23:18:43Z</time>
				<extensions>
				</extensions>
			</trkpt>
			<trkpt lat="-27.735236" lon="153.229071">
				<ele>8.155</ele>
				<time>2015-07-03T23:18:45Z</time>
				<extensions>
				</extensions>
			</trkpt>
			<trkpt lat="-27.735297" lon="153.228814">
				<ele>8.765</ele>
				<time>2015-07-03T23:18:47Z</time>
				<extensions>
				</extensions>
			</trkpt>
			<trkpt lat="-27.735390" lon="153.228560">
				<ele>9.409</ele>
				<time>2015-07-03T23:18:49Z</time>
				<extensions>
				</extensions>
			</trkpt>
			<trkpt lat="-27.735502" lon="153.228301">
				<ele>9.771</ele>
				<time>2015-07-03T23:18:51Z</time>
				<extensions>
				</extensions>
			</trkpt>
			<trkpt lat="-27.735588" lon="153.228093">
				<ele>10.878</ele>
				<time>2015-07-03T23:18:53Z</time>
				<extensions>
				</extensions>
			</trkpt>
			<trkpt lat="-27.735678" lon="153.227902">
				<ele>7.457</ele>
				<time>2015-07-03T23:18:55Z</time>
				<extensions>
				</extensions>
			</trkpt>
			<trkpt lat="-27.735788" lon="153.227736">
				<ele>6.768</ele>
				<time>2015-07-03T23:18:57Z</time>
				<extensions>
				</extensions>
			</trkpt>
			<trkpt lat="-27.735964" lon="153.227657">
				<ele>7.671</ele>
				<time>2015-07-03T23:19:00Z</time>
				<extensions>
				</extensions>
			</trkpt>
			<trkpt lat="-27.736175" lon="153.227502">
				<ele>8.228</ele>
				<time>2015-07-03T23:19:03Z</time>
				<extensions>
				</extensions>
			</trkpt>
			<trkpt lat="-27.736264" lon="153.227309">
				<ele>9.201</ele>
				<time>2015-07-03T23:19:05Z</time>
				<extensions>
				</extensions>
			</trkpt>
			<trkpt lat="-27.736392" lon="153.227100">
				<ele>10.626</ele>
				<time>2015-07-03T23:19:07Z</time>
				<extensions>
				</extensions>
			</trkpt>
			<trkpt lat="-27.736552" lon="153.226960">
				<ele>10.725</ele>
				<time>2015-07-03T23:19:09Z</time>
				<extensions>
				</extensions>
			</trkpt>
			<trkpt lat="-27.736734" lon="153.226837">
				<ele>8.797</ele>
				<time>2015-07-03T23:19:11Z</time>
				<extensions>
				</extensions>
			</trkpt>
			<trkpt lat="-27.736927" lon="153.226699">
				<ele>8.870</ele>
				<time>2015-07-03T23:19:13Z</time>
				<extensions>
				</extensions>
			</trkpt>
			<trkpt lat="-27.737112" lon="153.226561">
				<ele>9.194</ele>
				<time>2015-07-03T23:19:15Z</time>
				<extensions>
				</extensions>
			</trkpt>
			<trkpt lat="-27.737324" lon="153.226427">
				<ele>9.082</ele>
				<time>2015-07-03T23:19:17Z</time>
				<extensions>
				</extensions>
			</trkpt>
			<trkpt lat="-27.737545" lon="153.226352">
				<ele>8.267</ele>
				<time>2015-07-03T23:19:19Z</time>
				<extensions>
				</extensions>
			</trkpt>
			<trkpt lat="-27.737726" lon="153.226377">
				<ele>7.720</ele>
				<time>2015-07-03T23:19:21Z</time>
				<extensions>
				</extensions>
			</trkpt>
			<trkpt lat="-27.737930" lon="153.226515">
				<ele>7.154</ele>
				<time>2015-07-03T23:19:24Z</time>
				<extensions>
				</extensions>
			</trkpt>
			<trkpt lat="-27.738056" lon="153.226704">
				<ele>7.947</ele>
				<time>2015-07-03T23:19:26Z</time>
				<extensions>
				</extensions>
			</trkpt>
			<trkpt lat="-27.738273" lon="153.226753">
				<ele>8.351</ele>
				<time>2015-07-03T23:19:29Z</time>
				<extensions>
				</extensions>
			</trkpt>
			<trkpt lat="-27.738523" lon="153.226580">
				<ele>12.427</ele>
				<time>2015-07-03T23:19:32Z</time>
				<extensions>
				</extensions>
			</trkpt>
			<trkpt lat="-27.738755" lon="153.226445">
				<ele>12.915</ele>
				<time>2015-07-03T23:19:34Z</time>
				<extensions>
				</extensions>
			</trkpt>
			<trkpt lat="-27.739000" lon="153.226311">
				<ele>12.537</ele>
				<time>2015-07-03T23:19:36Z</time>
				<extensions>
				</extensions>
			</trkpt>
			<trkpt lat="-27.739247" lon="153.226095">
				<ele>13.876</ele>
				<time>2015-07-03T23:19:38Z</time>
				<extensions>
				</extensions>
			</trkpt>
			<trkpt lat="-27.739486" lon="153.225837">
				<ele>17.665</ele>
				<time>2015-07-03T23:19:40Z</time>
				<extensions>
				</extensions>
			</trkpt>
			<trkpt lat="-27.739746" lon="153.225558">
				<ele>18.354</ele>
				<time>2015-07-03T23:19:42Z</time>
				<extensions>
				</extensions>
			</trkpt>
			<trkpt lat="-27.739878" lon="153.225411">
				<ele>19.631</ele>
				<time>2015-07-03T23:19:43Z</time>
				<extensions>
				</extensions>
			</trkpt>
			<trkpt lat="-27.740017" lon="153.225252">
				<ele>21.170</ele>
				<time>2015-07-03T23:19:44Z</time>
				<extensions>
				</extensions>
			</trkpt>
			<trkpt lat="-27.740161" lon="153.225090">
				<ele>21.522</ele>
				<time>2015-07-03T23:19:45Z</time>
				<extensions>
				</extensions>
			</trkpt>
			<trkpt lat="-27.740300" lon="153.224932">
				<ele>21.553</ele>
				<time>2015-07-03T23:19:46Z</time>
				<extensions>
				</extensions>
			</trkpt>
			<trkpt lat="-27.740435" lon="153.224785">
				<ele>20.753</ele>
				<time>2015-07-03T23:19:47Z</time>
				<extensions>
				</extensions>
			</trkpt>
			<trkpt lat="-27.740574" lon="153.224633">
				<ele>18.731</ele>
				<time>2015-07-03T23:19:48Z</time>
				<extensions>
				</extensions>
			</trkpt>
			<trkpt lat="-27.740705" lon="153.224491">
				<ele>19.261</ele>
				<time>2015-07-03T23:19:49Z</time>
				<extensions>
				</extensions>
			</trkpt>
			<trkpt lat="-27.740829" lon="153.224339">
				<ele>18.912</ele>
				<time>2015-07-03T23:19:50Z</time>
				<extensions>
				</extensions>
			</trkpt>
			<trkpt lat="-27.740952" lon="153.224185">
				<ele>19.025</ele>
				<time>2015-07-03T23:19:51Z</time>
				<extensions>
				</extensions>
			</trkpt>
			<trkpt lat="-27.741158" lon="153.223870">
				<ele>23.147</ele>
				<time>2015-07-03T23:19:53Z</time>
				<extensions>
				</extensions>
			</trkpt>
			<trkpt lat="-27.741266" lon="153.223708">
				<ele>24.591</ele>
				<time>2015-07-03T23:19:54Z</time>
				<extensions>
				</extensions>
			</trkpt>
			<trkpt lat="-27.741476" lon="153.223364">
				<ele>25.909</ele>
				<time>2015-07-03T23:19:56Z</time>
				<extensions>
				</extensions>
			</trkpt>
			<trkpt lat="-27.741586" lon="153.223192">
				<ele>26.997</ele>
				<time>2015-07-03T23:19:57Z</time>
				<extensions>
				</extensions>
			</trkpt>
			<trkpt lat="-27.741708" lon="153.223020">
				<ele>27.961</ele>
				<time>2015-07-03T23:19:58Z</time>
				<extensions>
				</extensions>
			</trkpt>
			<trkpt lat="-27.741825" lon="153.222846">
				<ele>29.230</ele>
				<time>2015-07-03T23:19:59Z</time>
				<extensions>
				</extensions>
			</trkpt>
			<trkpt lat="-27.741935" lon="153.222682">
				<ele>26.699</ele>
				<time>2015-07-03T23:20:00Z</time>
				<extensions>
				</extensions>
			</trkpt>
			<trkpt lat="-27.742145" lon="153.222353">
				<ele>29.258</ele>
				<time>2015-07-03T23:20:02Z</time>
				<extensions>
				</extensions>
			</trkpt>
			<trkpt lat="-27.742372" lon="153.222042">
				<ele>28.506</ele>
				<time>2015-07-03T23:20:04Z</time>
				<extensions>
				</extensions>
			</trkpt>
			<trkpt lat="-27.742624" lon="153.221760">
				<ele>28.700</ele>
				<time>2015-07-03T23:20:06Z</time>
				<extensions>
				</extensions>
			</trkpt>
			<trkpt lat="-27.742766" lon="153.221627">
				<ele>29.702</ele>
				<time>2015-07-03T23:20:07Z</time>
				<extensions>
				</extensions>
			</trkpt>
			<trkpt lat="-27.742921" lon="153.221506">
				<ele>30.060</ele>
				<time>2015-07-03T23:20:08Z</time>
				<extensions>
				</extensions>
			</trkpt>
			<trkpt lat="-27.743087" lon="153.221402">
				<ele>30.432</ele>
				<time>2015-07-03T23:20:09Z</time>
				<extensions>
				</extensions>
			</trkpt>
			<trkpt lat="-27.743263" lon="153.221310">
				<ele>28.628</ele>
				<time>2015-07-03T23:20:10Z</time>
				<extensions>
				</extensions>
			</trkpt>
			<trkpt lat="-27.743441" lon="153.221231">
				<ele>28.370</ele>
				<time>2015-07-03T23:20:11Z</time>
				<extensions>
				</extensions>
			</trkpt>
			<trkpt lat="-27.743627" lon="153.221174">
				<ele>26.736</ele>
				<time>2015-07-03T23:20:12Z</time>
				<extensions>
				</extensions>
			</trkpt>
			<trkpt lat="-27.743816" lon="153.221133">
				<ele>25.234</ele>
				<time>2015-07-03T23:20:13Z</time>
				<extensions>
				</extensions>
			</trkpt>
			<trkpt lat="-27.744023" lon="153.221090">
				<ele>24.396</ele>
				<time>2015-07-03T23:20:14Z</time>
				<extensions>
				</extensions>
			</trkpt>
			<trkpt lat="-27.744229" lon="153.221043">
				<ele>24.734</ele>
				<time>2015-07-03T23:20:15Z</time>
				<extensions>
				</extensions>
			</trkpt>
			<trkpt lat="-27.744441" lon="153.220990">
				<ele>25.744</ele>
				<time>2015-07-03T23:20:16Z</time>
				<extensions>
				</extensions>
			</trkpt>
			<trkpt lat="-27.744652" lon="153.220944">
				<ele>24.656</ele>
				<time>2015-07-03T23:20:17Z</time>
				<extensions>
				</extensions>
			</trkpt>
			<trkpt lat="-27.744865" lon="153.220896">
				<ele>22.956</ele>
				<time>2015-07-03T23:20:18Z</time>
				<extensions>
				</extensions>
			</trkpt>
			<trkpt lat="-27.745075" lon="153.220856">
				<ele>22.956</ele>
				<time>2015-07-03T23:20:19Z</time>
				<extensions>
				</extensions>
			</trkpt>
			<trkpt lat="-27.745284" lon="153.220812">
				<ele>22.955</ele>
				<time>2015-07-03T23:20:20Z</time>
				<extensions>
				</extensions>
			</trkpt>
			<trkpt lat="-27.745488" lon="153.220768">
				<ele>22.268</ele>
				<time>2015-07-03T23:20:21Z</time>
				<extensions>
				</extensions>
			</trkpt>
			<trkpt lat="-27.745699" lon="153.220722">
				<ele>22.206</ele>
				<time>2015-07-03T23:20:22Z</time>
				<extensions>
				</extensions>
			</trkpt>
			<trkpt lat="-27.745911" lon="153.220687">
				<ele>21.131</ele>
				<time>2015-07-03T23:20:23Z</time>
				<extensions>
				</extensions>
			</trkpt>
			<trkpt lat="-27.746124" lon="153.220663">
				<ele>19.934</ele>
				<time>2015-07-03T23:20:24Z</time>
				<extensions>
				</extensions>
			</trkpt>
			<trkpt lat="-27.746335" lon="153.220643">
				<ele>20.418</ele>
				<time>2015-07-03T23:20:25Z</time>
				<extensions>
				</extensions>
			</trkpt>
			<trkpt lat="-27.746545" lon="153.220631">
				<ele>18.767</ele>
				<time>2015-07-03T23:20:26Z</time>
				<extensions>
				</extensions>
			</trkpt>
			<trkpt lat="-27.746750" lon="153.220627">
				<ele>16.679</ele>
				<time>2015-07-03T23:20:27Z</time>
				<extensions>
				</extensions>
			</trkpt>
			<trkpt lat="-27.746971" lon="153.220614">
				<ele>14.235</ele>
				<time>2015-07-03T23:20:28Z</time>
				<extensions>
				</extensions>
			</trkpt>
			<trkpt lat="-27.747192" lon="153.220596">
				<ele>15.858</ele>
				<time>2015-07-03T23:20:29Z</time>
				<extensions>
				</extensions>
			</trkpt>
			<trkpt lat="-27.747408" lon="153.220571">
				<ele>16.659</ele>
				<time>2015-07-03T23:20:30Z</time>
				<extensions>
				</extensions>
			</trkpt>
			<trkpt lat="-27.747619" lon="153.220531">
				<ele>15.730</ele>
				<time>2015-07-03T23:20:31Z</time>
				<extensions>
				</extensions>
			</trkpt>
			<trkpt lat="-27.747819" lon="153.220471">
				<ele>14.072</ele>
				<time>2015-07-03T23:20:32Z</time>
				<extensions>
				</extensions>
			</trkpt>
			<trkpt lat="-27.748016" lon="153.220393">
				<ele>13.573</ele>
				<time>2015-07-03T23:20:33Z</time>
				<extensions>
				</extensions>
			</trkpt>
			<trkpt lat="-27.748205" lon="153.220299">
				<ele>12.425</ele>
				<time>2015-07-03T23:20:34Z</time>
				<extensions>
				</extensions>
			</trkpt>
			<trkpt lat="-27.748384" lon="153.220191">
				<ele>11.813</ele>
				<time>2015-07-03T23:20:35Z</time>
				<extensions>
				</extensions>
			</trkpt>
			<trkpt lat="-27.748542" lon="153.220079">
				<ele>10.355</ele>
				<time>2015-07-03T23:20:36Z</time>
				<extensions>
				</extensions>
			</trkpt>
			<trkpt lat="-27.748696" lon="153.219944">
				<ele>9.710</ele>
				<time>2015-07-03T23:20:37Z</time>
				<extensions>
				</extensions>
			</trkpt>
			<trkpt lat="-27.748843" lon="153.219801">
				<ele>11.648</ele>
				<time>2015-07-03T23:20:38Z</time>
				<extensions>
				</extensions>
			</trkpt>
			<trkpt lat="-27.748998" lon="153.219633">
				<ele>14.198</ele>
				<time>2015-07-03T23:20:39Z</time>
				<extensions>
				</extensions>
			</trkpt>
			<trkpt lat="-27.749118" lon="153.219477">
				<ele>15.726</ele>
				<time>2015-07-03T23:20:40Z</time>
				<extensions>
				</extensions>
			</trkpt>
			<trkpt lat="-27.749366" lon="153.219173">
				<ele>12.563</ele>
				<time>2015-07-03T23:20:42Z</time>
				<extensions>
				</extensions>
			</trkpt>
			<trkpt lat="-27.749497" lon="153.219017">
				<ele>11.764</ele>
				<time>2015-07-03T23:20:43Z</time>
				<extensions>
				</extensions>
			</trkpt>
			<trkpt lat="-27.749630" lon="153.218854">
				<ele>13.071</ele>
				<time>2015-07-03T23:20:44Z</time>
				<extensions>
				</extensions>
			</trkpt>
			<trkpt lat="-27.749754" lon="153.218686">
				<ele>14.287</ele>
				<time>2015-07-03T23:20:45Z</time>
				<extensions>
				</extensions>
			</trkpt>
			<trkpt lat="-27.749890" lon="153.218550">
				<ele>14.740</ele>
				<time>2015-07-03T23:20:46Z</time>
				<extensions>
				</extensions>
			</trkpt>
			<trkpt lat="-27.750141" lon="153.218310">
				<ele>10.685</ele>
				<time>2015-07-03T23:20:48Z</time>
				<extensions>
				</extensions>
			</trkpt>
			<trkpt lat="-27.750297" lon="153.218088">
				<ele>6.483</ele>
				<time>2015-07-03T23:20:50Z</time>
				<extensions>
				</extensions>
			</trkpt>
			<trkpt lat="-27.750419" lon="153.217899">
				<ele>6.397</ele>
				<time>2015-07-03T23:20:52Z</time>
				<extensions>
				</extensions>
			</trkpt>
			<trkpt lat="-27.750609" lon="153.217740">
				<ele>5.208</ele>
				<time>2015-07-03T23:20:55Z</time>
				<extensions>
				</extensions>
			</trkpt>
			<trkpt lat="-27.750793" lon="153.217722">
				<ele>6.597</ele>
				<time>2015-07-03T23:20:57Z</time>
				<extensions>
				</extensions>
			</trkpt>
			<trkpt lat="-27.751025" lon="153.217552">
				<ele>7.692</ele>
				<time>2015-07-03T23:21:00Z</time>
				<extensions>
				</extensions>
			</trkpt>
			<trkpt lat="-27.751113" lon="153.217316">
				<ele>10.646</ele>
				<time>2015-07-03T23:21:02Z</time>
				<extensions>
				</extensions>
			</trkpt>
			<trkpt lat="-27.751251" lon="153.217040">
				<ele>16.031</ele>
				<time>2015-07-03T23:21:04Z</time>
				<extensions>
				</extensions>
			</trkpt>
			<trkpt lat="-27.751481" lon="153.216746">
				<ele>19.264</ele>
				<time>2015-07-03T23:21:06Z</time>
				<extensions>
				</extensions>
			</trkpt>
			<trkpt lat="-27.751613" lon="153.216592">
				<ele>23.198</ele>
				<time>2015-07-03T23:21:07Z</time>
				<extensions>
				</extensions>
			</trkpt>
			<trkpt lat="-27.751747" lon="153.216435">
				<ele>23.304</ele>
				<time>2015-07-03T23:21:08Z</time>
				<extensions>
				</extensions>
			</trkpt>
			<trkpt lat="-27.751977" lon="153.216163">
				<ele>19.304</ele>
				<time>2015-07-03T23:21:10Z</time>
				<extensions>
				</extensions>
			</trkpt>
			<trkpt lat="-27.752177" lon="153.215937">
				<ele>18.783</ele>
				<time>2015-07-03T23:21:12Z</time>
				<extensions>
				</extensions>
			</trkpt>
			<trkpt lat="-27.752378" lon="153.215717">
				<ele>21.654</ele>
				<time>2015-07-03T23:21:14Z</time>
				<extensions>
				</extensions>
			</trkpt>
			<trkpt lat="-27.752578" lon="153.215476">
				<ele>22.350</ele>
				<time>2015-07-03T23:21:16Z</time>
				<extensions>
				</extensions>
			</trkpt>
			<trkpt lat="-27.752797" lon="153.215229">
				<ele>23.862</ele>
				<time>2015-07-03T23:21:18Z</time>
				<extensions>
				</extensions>
			</trkpt>
			<trkpt lat="-27.753046" lon="153.214962">
				<ele>28.137</ele>
				<time>2015-07-03T23:21:20Z</time>
				<extensions>
				</extensions>
			</trkpt>
			<trkpt lat="-27.753309" lon="153.214686">
				<ele>27.704</ele>
				<time>2015-07-03T23:21:22Z</time>
				<extensions>
				</extensions>
			</trkpt>
			<trkpt lat="-27.753579" lon="153.214417">
				<ele>31.099</ele>
				<time>2015-07-03T23:21:24Z</time>
				<extensions>
				</extensions>
			</trkpt>
			<trkpt lat="-27.753729" lon="153.214289">
				<ele>31.955</ele>
				<time>2015-07-03T23:21:25Z</time>
				<extensions>
				</extensions>
			</trkpt>
			<trkpt lat="-27.753887" lon="153.214169">
				<ele>31.990</ele>
				<time>2015-07-03T23:21:26Z</time>
				<extensions>
				</extensions>
			</trkpt>
			<trkpt lat="-27.754041" lon="153.214051">
				<ele>31.117</ele>
				<time>2015-07-03T23:21:27Z</time>
				<extensions>
				</extensions>
			</trkpt>
			<trkpt lat="-27.754200" lon="153.213936">
				<ele>31.224</ele>
				<time>2015-07-03T23:21:28Z</time>
				<extensions>
				</extensions>
			</trkpt>
			<trkpt lat="-27.754356" lon="153.213824">
				<ele>31.263</ele>
				<time>2015-07-03T23:21:29Z</time>
				<extensions>
				</extensions>
			</trkpt>
			<trkpt lat="-27.754679" lon="153.213637">
				<ele>30.169</ele>
				<time>2015-07-03T23:21:31Z</time>
				<extensions>
				</extensions>
			</trkpt>
			<trkpt lat="-27.755005" lon="153.213452">
				<ele>32.070</ele>
				<time>2015-07-03T23:21:33Z</time>
				<extensions>
				</extensions>
			</trkpt>
			<trkpt lat="-27.755175" lon="153.213368">
				<ele>31.304</ele>
				<time>2015-07-03T23:21:34Z</time>
				<extensions>
				</extensions>
			</trkpt>
			<trkpt lat="-27.755344" lon="153.213296">
				<ele>27.239</ele>
				<time>2015-07-03T23:21:35Z</time>
				<extensions>
				</extensions>
			</trkpt>
			<trkpt lat="-27.755537" lon="153.213204">
				<ele>18.739</ele>
				<time>2015-07-03T23:21:37Z</time>
				<extensions>
				</extensions>
			</trkpt>
			<trkpt lat="-27.755713" lon="153.213128">
				<ele>19.355</ele>
				<time>2015-07-03T23:21:57Z</time>
				<extensions>
				</extensions>
			</trkpt>
			<trkpt lat="-27.755911" lon="153.213048">
				<ele>23.342</ele>
				<time>2015-07-03T23:21:59Z</time>
				<extensions>
				</extensions>
			</trkpt>
			<trkpt lat="-27.756196" lon="153.212952">
				<ele>28.298</ele>
				<time>2015-07-03T23:22:01Z</time>
				<extensions>
				</extensions>
			</trkpt>
			<trkpt lat="-27.756537" lon="153.212860">
				<ele>28.110</ele>
				<time>2015-07-03T23:22:03Z</time>
				<extensions>
				</extensions>
			</trkpt>
			<trkpt lat="-27.756720" lon="153.212823">
				<ele>27.556</ele>
				<time>2015-07-03T23:22:04Z</time>
				<extensions>
				</extensions>
			</trkpt>
			<trkpt lat="-27.756910" lon="153.212788">
				<ele>27.030</ele>
				<time>2015-07-03T23:22:05Z</time>
				<extensions>
				</extensions>
			</trkpt>
			<trkpt lat="-27.757098" lon="153.212760">
				<ele>26.005</ele>
				<time>2015-07-03T23:22:06Z</time>
				<extensions>
				</extensions>
			</trkpt>
			<trkpt lat="-27.757452" lon="153.212714">
				<ele>21.370</ele>
				<time>2015-07-03T23:22:08Z</time>
				<extensions>
				</extensions>
			</trkpt>
			<trkpt lat="-27.757807" lon="153.212679">
				<ele>23.878</ele>
				<time>2015-07-03T23:22:10Z</time>
				<extensions>
				</extensions>
			</trkpt>
			<trkpt lat="-27.757992" lon="153.212659">
				<ele>22.430</ele>
				<time>2015-07-03T23:22:11Z</time>
				<extensions>
				</extensions>
			</trkpt>
			<trkpt lat="-27.758337" lon="153.212630">
				<ele>21.100</ele>
				<time>2015-07-03T23:22:13Z</time>
				<extensions>
				</extensions>
			</trkpt>
			<trkpt lat="-27.758654" lon="153.212638">
				<ele>22.899</ele>
				<time>2015-07-03T23:22:15Z</time>
				<extensions>
				</extensions>
			</trkpt>
			<trkpt lat="-27.758948" lon="153.212619">
				<ele>20.842</ele>
				<time>2015-07-03T23:22:17Z</time>
				<extensions>
				</extensions>
			</trkpt>
			<trkpt lat="-27.759198" lon="153.212542">
				<ele>20.346</ele>
				<time>2015-07-03T23:22:19Z</time>
				<extensions>
				</extensions>
			</trkpt>
			<trkpt lat="-27.759400" lon="153.212503">
				<ele>19.439</ele>
				<time>2015-07-03T23:22:21Z</time>
				<extensions>
				</extensions>
			</trkpt>
			<trkpt lat="-27.759659" lon="153.212585">
				<ele>18.782</ele>
				<time>2015-07-03T23:22:24Z</time>
				<extensions>
				</extensions>
			</trkpt>
			<trkpt lat="-27.759856" lon="153.212558">
				<ele>19.831</ele>
				<time>2015-07-03T23:22:26Z</time>
				<extensions>
				</extensions>
			</trkpt>
			<trkpt lat="-27.760037" lon="153.212409">
				<ele>21.681</ele>
				<time>2015-07-03T23:22:28Z</time>
				<extensions>
				</extensions>
			</trkpt>
			<trkpt lat="-27.760303" lon="153.212280">
				<ele>26.034</ele>
				<time>2015-07-03T23:22:30Z</time>
				<extensions>
				</extensions>
			</trkpt>
			<trkpt lat="-27.760609" lon="153.212152">
				<ele>29.222</ele>
				<time>2015-07-03T23:22:32Z</time>
				<extensions>
				</extensions>
			</trkpt>
			<trkpt lat="-27.760941" lon="153.211972">
				<ele>34.546</ele>
				<time>2015-07-03T23:22:34Z</time>
				<extensions>
				</extensions>
			</trkpt>
			<trkpt lat="-27.761106" lon="153.211868">
				<ele>34.655</ele>
				<time>2015-07-03T23:22:35Z</time>
				<extensions>
				</extensions>
			</trkpt>
			<trkpt lat="-27.761270" lon="153.211750">
				<ele>35.140</ele>
				<time>2015-07-03T23:22:36Z</time>
				<extensions>
				</extensions>
			</trkpt>
			<trkpt lat="-27.761425" lon="153.211621">
				<ele>35.220</ele>
				<time>2015-07-03T23:22:37Z</time>
				<extensions>
				</extensions>
			</trkpt>
			<trkpt lat="-27.761580" lon="153.211493">
				<ele>34.851</ele>
				<time>2015-07-03T23:22:38Z</time>
				<extensions>
				</extensions>
			</trkpt>
			<trkpt lat="-27.761740" lon="153.211378">
				<ele>35.109</ele>
				<time>2015-07-03T23:22:39Z</time>
				<extensions>
				</extensions>
			</trkpt>
			<trkpt lat="-27.761906" lon="153.211265">
				<ele>34.085</ele>
				<time>2015-07-03T23:22:40Z</time>
				<extensions>
				</extensions>
			</trkpt>
			<trkpt lat="-27.762094" lon="153.211158">
				<ele>37.041</ele>
				<time>2015-07-03T23:22:41Z</time>
				<extensions>
				</extensions>
			</trkpt>
			<trkpt lat="-27.762284" lon="153.211055">
				<ele>39.350</ele>
				<time>2015-07-03T23:22:42Z</time>
				<extensions>
				</extensions>
			</trkpt>
			<trkpt lat="-27.762477" lon="153.210954">
				<ele>40.213</ele>
				<time>2015-07-03T23:22:43Z</time>
				<extensions>
				</extensions>
			</trkpt>
			<trkpt lat="-27.762680" lon="153.210847">
				<ele>42.057</ele>
				<time>2015-07-03T23:22:44Z</time>
				<extensions>
				</extensions>
			</trkpt>
			<trkpt lat="-27.762868" lon="153.210749">
				<ele>42.701</ele>
				<time>2015-07-03T23:22:45Z</time>
				<extensions>
				</extensions>
			</trkpt>
			<trkpt lat="-27.763062" lon="153.210655">
				<ele>41.153</ele>
				<time>2015-07-03T23:22:46Z</time>
				<extensions>
				</extensions>
			</trkpt>
			<trkpt lat="-27.763244" lon="153.210567">
				<ele>41.874</ele>
				<time>2015-07-03T23:22:47Z</time>
				<extensions>
				</extensions>
			</trkpt>
			<trkpt lat="-27.763420" lon="153.210477">
				<ele>43.845</ele>
				<time>2015-07-03T23:22:48Z</time>
				<extensions>
				</extensions>
			</trkpt>
			<trkpt lat="-27.763748" lon="153.210323">
				<ele>46.605</ele>
				<time>2015-07-03T23:22:50Z</time>
				<extensions>
				</extensions>
			</trkpt>
			<trkpt lat="-27.763913" lon="153.210239">
				<ele>48.028</ele>
				<time>2015-07-03T23:22:51Z</time>
				<extensions>
				</extensions>
			</trkpt>
			<trkpt lat="-27.764245" lon="153.210083">
				<ele>44.331</ele>
				<time>2015-07-03T23:22:53Z</time>
				<extensions>
				</extensions>
			</trkpt>
			<trkpt lat="-27.764564" lon="153.209927">
				<ele>41.548</ele>
				<time>2015-07-03T23:22:55Z</time>
				<extensions>
				</extensions>
			</trkpt>
			<trkpt lat="-27.764895" lon="153.209790">
				<ele>39.145</ele>
				<time>2015-07-03T23:22:57Z</time>
				<extensions>
				</extensions>
			</trkpt>
			<trkpt lat="-27.765084" lon="153.209715">
				<ele>37.938</ele>
				<time>2015-07-03T23:22:58Z</time>
				<extensions>
				</extensions>
			</trkpt>
			<trkpt lat="-27.765268" lon="153.209667">
				<ele>36.406</ele>
				<time>2015-07-03T23:22:59Z</time>
				<extensions>
				</extensions>
			</trkpt>
			<trkpt lat="-27.765461" lon="153.209620">
				<ele>34.850</ele>
				<time>2015-07-03T23:23:00Z</time>
				<extensions>
				</extensions>
			</trkpt>
			<trkpt lat="-27.765658" lon="153.209579">
				<ele>33.199</ele>
				<time>2015-07-03T23:23:01Z</time>
				<extensions>
				</extensions>
			</trkpt>
			<trkpt lat="-27.765859" lon="153.209541">
				<ele>31.283</ele>
				<time>2015-07-03T23:23:02Z</time>
				<extensions>
				</extensions>
			</trkpt>
			<trkpt lat="-27.766047" lon="153.209508">
				<ele>29.047</ele>
				<time>2015-07-03T23:23:03Z</time>
				<extensions>
				</extensions>
			</trkpt>
			<trkpt lat="-27.766246" lon="153.209466">
				<ele>25.753</ele>
				<time>2015-07-03T23:23:04Z</time>
				<extensions>
				</extensions>
			</trkpt>
			<trkpt lat="-27.766618" lon="153.209403">
				<ele>23.450</ele>
				<time>2015-07-03T23:23:06Z</time>
				<extensions>
				</extensions>
			</trkpt>
			<trkpt lat="-27.766825" lon="153.209365">
				<ele>21.791</ele>
				<time>2015-07-03T23:23:07Z</time>
				<extensions>
				</extensions>
			</trkpt>
			<trkpt lat="-27.767031" lon="153.209336">
				<ele>22.155</ele>
				<time>2015-07-03T23:23:08Z</time>
				<extensions>
				</extensions>
			</trkpt>
			<trkpt lat="-27.767239" lon="153.209310">
				<ele>21.605</ele>
				<time>2015-07-03T23:23:09Z</time>
				<extensions>
				</extensions>
			</trkpt>
			<trkpt lat="-27.767438" lon="153.209289">
				<ele>20.306</ele>
				<time>2015-07-03T23:23:10Z</time>
				<extensions>
				</extensions>
			</trkpt>
			<trkpt lat="-27.767629" lon="153.209266">
				<ele>19.443</ele>
				<time>2015-07-03T23:23:11Z</time>
				<extensions>
				</extensions>
			</trkpt>
			<trkpt lat="-27.767820" lon="153.209242">
				<ele>17.700</ele>
				<time>2015-07-03T23:23:12Z</time>
				<extensions>
				</extensions>
			</trkpt>
			<trkpt lat="-27.768021" lon="153.209219">
				<ele>16.627</ele>
				<time>2015-07-03T23:23:13Z</time>
				<extensions>
				</extensions>
			</trkpt>
			<trkpt lat="-27.768217" lon="153.209204">
				<ele>16.501</ele>
				<time>2015-07-03T23:23:14Z</time>
				<extensions>
				</extensions>
			</trkpt>
			<trkpt lat="-27.768410" lon="153.209188">
				<ele>17.618</ele>
				<time>2015-07-03T23:23:15Z</time>
				<extensions>
				</extensions>
			</trkpt>
			<trkpt lat="-27.768613" lon="153.209167">
				<ele>17.285</ele>
				<time>2015-07-03T23:23:16Z</time>
				<extensions>
				</extensions>
			</trkpt>
			<trkpt lat="-27.768811" lon="153.209139">
				<ele>17.905</ele>
				<time>2015-07-03T23:23:17Z</time>
				<extensions>
				</extensions>
			</trkpt>
			<trkpt lat="-27.769004" lon="153.209109">
				<ele>17.721</ele>
				<time>2015-07-03T23:23:18Z</time>
				<extensions>
				</extensions>
			</trkpt>
			<trkpt lat="-27.769189" lon="153.209077">
				<ele>17.541</ele>
				<time>2015-07-03T23:23:19Z</time>
				<extensions>
				</extensions>
			</trkpt>
			<trkpt lat="-27.769382" lon="153.209043">
				<ele>17.076</ele>
				<time>2015-07-03T23:23:20Z</time>
				<extensions>
				</extensions>
			</trkpt>
			<trkpt lat="-27.769560" lon="153.209003">
				<ele>16.298</ele>
				<time>2015-07-03T23:23:21Z</time>
				<extensions>
				</extensions>
			</trkpt>
			<trkpt lat="-27.769741" lon="153.208960">
				<ele>16.251</ele>
				<time>2015-07-03T23:23:22Z</time>
				<extensions>
				</extensions>
			</trkpt>
			<trkpt lat="-27.769926" lon="153.208897">
				<ele>16.556</ele>
				<time>2015-07-03T23:23:23Z</time>
				<extensions>
				</extensions>
			</trkpt>
			<trkpt lat="-27.770107" lon="153.208819">
				<ele>18.921</ele>
				<time>2015-07-03T23:23:24Z</time>
				<extensions>
				</extensions>
			</trkpt>
			<trkpt lat="-27.770293" lon="153.208722">
				<ele>20.404</ele>
				<time>2015-07-03T23:23:25Z</time>
				<extensions>
				</extensions>
			</trkpt>
			<trkpt lat="-27.770477" lon="153.208610">
				<ele>23.369</ele>
				<time>2015-07-03T23:23:26Z</time>
				<extensions>
				</extensions>
			</trkpt>
			<trkpt lat="-27.770655" lon="153.208484">
				<ele>22.639</ele>
				<time>2015-07-03T23:23:27Z</time>
				<extensions>
				</extensions>
			</trkpt>
			<trkpt lat="-27.770810" lon="153.208343">
				<ele>23.473</ele>
				<time>2015-07-03T23:23:28Z</time>
				<extensions>
				</extensions>
			</trkpt>
			<trkpt lat="-27.770962" lon="153.208185">
				<ele>23.695</ele>
				<time>2015-07-03T23:23:29Z</time>
				<extensions>
				</extensions>
			</trkpt>
			<trkpt lat="-27.771110" lon="153.208020">
				<ele>24.583</ele>
				<time>2015-07-03T23:23:30Z</time>
				<extensions>
				</extensions>
			</trkpt>
			<trkpt lat="-27.771250" lon="153.207833">
				<ele>26.830</ele>
				<time>2015-07-03T23:23:31Z</time>
				<extensions>
				</extensions>
			</trkpt>
			<trkpt lat="-27.771374" lon="153.207645">
				<ele>26.362</ele>
				<time>2015-07-03T23:23:32Z</time>
				<extensions>
				</extensions>
			</trkpt>
			<trkpt lat="-27.771482" lon="153.207456">
				<ele>27.024</ele>
				<time>2015-07-03T23:23:33Z</time>
				<extensions>
				</extensions>
			</trkpt>
			<trkpt lat="-27.771568" lon="153.207259">
				<ele>28.606</ele>
				<time>2015-07-03T23:23:34Z</time>
				<extensions>
				</extensions>
			</trkpt>
			<trkpt lat="-27.771648" lon="153.207048">
				<ele>30.271</ele>
				<time>2015-07-03T23:23:35Z</time>
				<extensions>
				</extensions>
			</trkpt>
			<trkpt lat="-27.771718" lon="153.206829">
				<ele>30.404</ele>
				<time>2015-07-03T23:23:36Z</time>
				<extensions>
				</extensions>
			</trkpt>
			<trkpt lat="-27.771764" lon="153.206611">
				<ele>29.316</ele>
				<time>2015-07-03T23:23:37Z</time>
				<extensions>
				</extensions>
			</trkpt>
			<trkpt lat="-27.771797" lon="153.206384">
				<ele>29.147</ele>
				<time>2015-07-03T23:23:38Z</time>
				<extensions>
				</extensions>
			</trkpt>
			<trkpt lat="-27.771813" lon="153.206154">
				<ele>27.812</ele>
				<time>2015-07-03T23:23:39Z</time>
				<extensions>
				</extensions>
			</trkpt>
			<trkpt lat="-27.771820" lon="153.205916">
				<ele>27.507</ele>
				<time>2015-07-03T23:23:40Z</time>
				<extensions>
				</extensions>
			</trkpt>
			<trkpt lat="-27.771811" lon="153.205687">
				<ele>26.603</ele>
				<time>2015-07-03T23:23:41Z</time>
				<extensions>
				</extensions>
			</trkpt>
			<trkpt lat="-27.771785" lon="153.205445">
				<ele>26.382</ele>
				<time>2015-07-03T23:23:42Z</time>
				<extensions>
				</extensions>
			</trkpt>
			<trkpt lat="-27.771753" lon="153.205206">
				<ele>25.763</ele>
				<time>2015-07-03T23:23:43Z</time>
				<extensions>
				</extensions>
			</trkpt>
			<trkpt lat="-27.771728" lon="153.204972">
				<ele>24.964</ele>
				<time>2015-07-03T23:23:44Z</time>
				<extensions>
				</extensions>
			</trkpt>
			<trkpt lat="-27.771716" lon="153.204715">
				<ele>23.190</ele>
				<time>2015-07-03T23:23:45Z</time>
				<extensions>
				</extensions>
			</trkpt>
			<trkpt lat="-27.771708" lon="153.204473">
				<ele>22.432</ele>
				<time>2015-07-03T23:23:46Z</time>
				<extensions>
				</extensions>
			</trkpt>
			<trkpt lat="-27.771717" lon="153.204228">
				<ele>20.730</ele>
				<time>2015-07-03T23:23:47Z</time>
				<extensions>
				</extensions>
			</trkpt>
			<trkpt lat="-27.771748" lon="153.203994">
				<ele>20.043</ele>
				<time>2015-07-03T23:23:48Z</time>
				<extensions>
				</extensions>
			</trkpt>
			<trkpt lat="-27.771788" lon="153.203765">
				<ele>18.860</ele>
				<time>2015-07-03T23:23:49Z</time>
				<extensions>
				</extensions>
			</trkpt>
			<trkpt lat="-27.771846" lon="153.203535">
				<ele>19.429</ele>
				<time>2015-07-03T23:23:50Z</time>
				<extensions>
				</extensions>
			</trkpt>
			<trkpt lat="-27.771915" lon="153.203326">
				<ele>18.364</ele>
				<time>2015-07-03T23:23:51Z</time>
				<extensions>
				</extensions>
			</trkpt>
			<trkpt lat="-27.771998" lon="153.203113">
				<ele>18.550</ele>
				<time>2015-07-03T23:23:52Z</time>
				<extensions>
				</extensions>
			</trkpt>
			<trkpt lat="-27.772095" lon="153.202921">
				<ele>19.455</ele>
				<time>2015-07-03T23:23:53Z</time>
				<extensions>
				</extensions>
			</trkpt>
			<trkpt lat="-27.772210" lon="153.202732">
				<ele>20.426</ele>
				<time>2015-07-03T23:23:54Z</time>
				<extensions>
				</extensions>
			</trkpt>
			<trkpt lat="-27.772338" lon="153.202542">
				<ele>21.519</ele>
				<time>2015-07-03T23:23:55Z</time>
				<extensions>
				</extensions>
			</trkpt>
			<trkpt lat="-27.772477" lon="153.202362">
				<ele>23.212</ele>
				<time>2015-07-03T23:23:56Z</time>
				<extensions>
				</extensions>
			</trkpt>
			<trkpt lat="-27.772606" lon="153.202180">
				<ele>24.346</ele>
				<time>2015-07-03T23:23:57Z</time>
				<extensions>
				</extensions>
			</trkpt>
			<trkpt lat="-27.772731" lon="153.201999">
				<ele>24.553</ele>
				<time>2015-07-03T23:23:58Z</time>
				<extensions>
				</extensions>
			</trkpt>
			<trkpt lat="-27.772858" lon="153.201829">
				<ele>25.546</ele>
				<time>2015-07-03T23:23:59Z</time>
				<extensions>
				</extensions>
			</trkpt>
			<trkpt lat="-27.772982" lon="153.201657">
				<ele>27.571</ele>
				<time>2015-07-03T23:24:00Z</time>
				<extensions>
				</extensions>
			</trkpt>
			<trkpt lat="-27.773103" lon="153.201490">
				<ele>28.282</ele>
				<time>2015-07-03T23:24:01Z</time>
				<extensions>
				</extensions>
			</trkpt>
			<trkpt lat="-27.773221" lon="153.201330">
				<ele>27.718</ele>
				<time>2015-07-03T23:24:02Z</time>
				<extensions>
				</extensions>
			</trkpt>
			<trkpt lat="-27.773427" lon="153.201003">
				<ele>28.154</ele>
				<time>2015-07-03T23:24:04Z</time>
				<extensions>
				</extensions>
			</trkpt>
			<trkpt lat="-27.773521" lon="153.200823">
				<ele>29.418</ele>
				<time>2015-07-03T23:24:05Z</time>
				<extensions>
				</extensions>
			</trkpt>
			<trkpt lat="-27.773605" lon="153.200637">
				<ele>30.116</ele>
				<time>2015-07-03T23:24:06Z</time>
				<extensions>
				</extensions>
			</trkpt>
			<trkpt lat="-27.773691" lon="153.200446">
				<ele>29.298</ele>
				<time>2015-07-03T23:24:07Z</time>
				<extensions>
				</extensions>
			</trkpt>
			<trkpt lat="-27.773761" lon="153.200245">
				<ele>28.564</ele>
				<time>2015-07-03T23:24:08Z</time>
				<extensions>
				</extensions>
			</trkpt>
			<trkpt lat="-27.773820" lon="153.200041">
				<ele>28.845</ele>
				<time>2015-07-03T23:24:09Z</time>
				<extensions>
				</extensions>
			</trkpt>
			<trkpt lat="-27.773872" lon="153.199831">
				<ele>28.370</ele>
				<time>2015-07-03T23:24:10Z</time>
				<extensions>
				</extensions>
			</trkpt>
			<trkpt lat="-27.773905" lon="153.199616">
				<ele>28.466</ele>
				<time>2015-07-03T23:24:11Z</time>
				<extensions>
				</extensions>
			</trkpt>
			<trkpt lat="-27.773916" lon="153.199401">
				<ele>29.381</ele>
				<time>2015-07-03T23:24:12Z</time>
				<extensions>
				</extensions>
			</trkpt>
			<trkpt lat="-27.773928" lon="153.199177">
				<ele>28.183</ele>
				<time>2015-07-03T23:24:13Z</time>
				<extensions>
				</extensions>
			</trkpt>
			<trkpt lat="-27.773935" lon="153.198959">
				<ele>28.152</ele>
				<time>2015-07-03T23:24:14Z</time>
				<extensions>
				</extensions>
			</trkpt>
			<trkpt lat="-27.773934" lon="153.198748">
				<ele>28.152</ele>
				<time>2015-07-03T23:24:15Z</time>
				<extensions>
				</extensions>
			</trkpt>
			<trkpt lat="-27.773937" lon="153.198536">
				<ele>29.637</ele>
				<time>2015-07-03T23:24:16Z</time>
				<extensions>
				</extensions>
			</trkpt>
			<trkpt lat="-27.773928" lon="153.198307">
				<ele>29.250</ele>
				<time>2015-07-03T23:24:17Z</time>
				<extensions>
				</extensions>
			</trkpt>
			<trkpt lat="-27.773910" lon="153.198103">
				<ele>29.883</ele>
				<time>2015-07-03T23:24:18Z</time>
				<extensions>
				</extensions>
			</trkpt>
			<trkpt lat="-27.773883" lon="153.197896">
				<ele>30.139</ele>
				<time>2015-07-03T23:24:19Z</time>
				<extensions>
				</extensions>
			</trkpt>
			<trkpt lat="-27.773853" lon="153.197682">
				<ele>31.647</ele>
				<time>2015-07-03T23:24:20Z</time>
				<extensions>
				</extensions>
			</trkpt>
			<trkpt lat="-27.773824" lon="153.197460">
				<ele>30.310</ele>
				<time>2015-07-03T23:24:21Z</time>
				<extensions>
				</extensions>
			</trkpt>
			<trkpt lat="-27.773787" lon="153.197244">
				<ele>30.345</ele>
				<time>2015-07-03T23:24:22Z</time>
				<extensions>
				</extensions>
			</trkpt>
			<trkpt lat="-27.773758" lon="153.197020">
				<ele>29.682</ele>
				<time>2015-07-03T23:24:23Z</time>
				<extensions>
				</extensions>
			</trkpt>
			<trkpt lat="-27.773724" lon="153.196807">
				<ele>29.267</ele>
				<time>2015-07-03T23:24:24Z</time>
				<extensions>
				</extensions>
			</trkpt>
			<trkpt lat="-27.773695" lon="153.196593">
				<ele>28.539</ele>
				<time>2015-07-03T23:24:25Z</time>
				<extensions>
				</extensions>
			</trkpt>
			<trkpt lat="-27.773665" lon="153.196388">
				<ele>27.312</ele>
				<time>2015-07-03T23:24:26Z</time>
				<extensions>
				</extensions>
			</trkpt>
			<trkpt lat="-27.773633" lon="153.196175">
				<ele>25.359</ele>
				<time>2015-07-03T23:24:27Z</time>
				<extensions>
				</extensions>
			</trkpt>
			<trkpt lat="-27.773598" lon="153.195954">
				<ele>22.967</ele>
				<time>2015-07-03T23:24:28Z</time>
				<extensions>
				</extensions>
			</trkpt>
			<trkpt lat="-27.773545" lon="153.195563">
				<ele>20.151</ele>
				<time>2015-07-03T23:24:30Z</time>
				<extensions>
				</extensions>
			</trkpt>
			<trkpt lat="-27.773476" lon="153.195200">
				<ele>16.910</ele>
				<time>2015-07-03T23:24:32Z</time>
				<extensions>
				</extensions>
			</trkpt>
			<trkpt lat="-27.773426" lon="153.194886">
				<ele>13.070</ele>
				<time>2015-07-03T23:24:34Z</time>
				<extensions>
				</extensions>
			</trkpt>
			<trkpt lat="-27.773432" lon="153.194614">
				<ele>11.640</ele>
				<time>2015-07-03T23:24:36Z</time>
				<extensions>
				</extensions>
			</trkpt>
			<trkpt lat="-27.773565" lon="153.194409">
				<ele>10.559</ele>
				<time>2015-07-03T23:24:38Z</time>
				<extensions>
				</extensions>
			</trkpt>
			<trkpt lat="-27.773820" lon="153.194271">
				<ele>25.296</ele>
				<time>2015-07-03T23:24:40Z</time>
				<extensions>
				</extensions>
			</trkpt>
			<trkpt lat="-27.774144" lon="153.194171">
				<ele>13.436</ele>
				<time>2015-07-03T23:24:42Z</time>
				<extensions>
				</extensions>
			</trkpt>
			<trkpt lat="-27.774453" lon="153.194058">
				<ele>9.308</ele>
				<time>2015-07-03T23:24:44Z</time>
				<extensions>
				</extensions>
			</trkpt>
			<trkpt lat="-27.774724" lon="153.193844">
				<ele>6.300</ele>
				<time>2015-07-03T23:24:46Z</time>
				<extensions>
				</extensions>
			</trkpt>
			<trkpt lat="-27.774891" lon="153.193531">
				<ele>9.509</ele>
				<time>2015-07-03T23:24:48Z</time>
				<extensions>
				</extensions>
			</trkpt>
			<trkpt lat="-27.775037" lon="153.193166">
				<ele>15.522</ele>
				<time>2015-07-03T23:24:50Z</time>
				<extensions>
				</extensions>
			</trkpt>
			<trkpt lat="-27.775127" lon="153.192984">
				<ele>16.187</ele>
				<time>2015-07-03T23:24:51Z</time>
				<extensions>
				</extensions>
			</trkpt>
			<trkpt lat="-27.775255" lon="153.192636">
				<ele>16.809</ele>
				<time>2015-07-03T23:24:53Z</time>
				<extensions>
				</extensions>
			</trkpt>
			<trkpt lat="-27.775334" lon="153.192234">
				<ele>16.702</ele>
				<time>2015-07-03T23:24:55Z</time>
				<extensions>
				</extensions>
			</trkpt>
			<trkpt lat="-27.775376" lon="153.192005">
				<ele>16.192</ele>
				<time>2015-07-03T23:24:56Z</time>
				<extensions>
				</extensions>
			</trkpt>
			<trkpt lat="-27.775413" lon="153.191784">
				<ele>16.609</ele>
				<time>2015-07-03T23:24:57Z</time>
				<extensions>
				</extensions>
			</trkpt>
			<trkpt lat="-27.775453" lon="153.191559">
				<ele>16.113</ele>
				<time>2015-07-03T23:24:58Z</time>
				<extensions>
				</extensions>
			</trkpt>
			<trkpt lat="-27.775485" lon="153.191350">
				<ele>15.227</ele>
				<time>2015-07-03T23:24:59Z</time>
				<extensions>
				</extensions>
			</trkpt>
			<trkpt lat="-27.775520" lon="153.191135">
				<ele>14.364</ele>
				<time>2015-07-03T23:25:00Z</time>
				<extensions>
				</extensions>
			</trkpt>
			<trkpt lat="-27.775547" lon="153.190916">
				<ele>14.367</ele>
				<time>2015-07-03T23:25:01Z</time>
				<extensions>
				</extensions>
			</trkpt>
			<trkpt lat="-27.775552" lon="153.190704">
				<ele>13.955</ele>
				<time>2015-07-03T23:25:02Z</time>
				<extensions>
				</extensions>
			</trkpt>
			<trkpt lat="-27.775541" lon="153.190492">
				<ele>13.926</ele>
				<time>2015-07-03T23:25:03Z</time>
				<extensions>
				</extensions>
			</trkpt>
			<trkpt lat="-27.775516" lon="153.190283">
				<ele>15.150</ele>
				<time>2015-07-03T23:25:04Z</time>
				<extensions>
				</extensions>
			</trkpt>
			<trkpt lat="-27.775480" lon="153.190062">
				<ele>15.631</ele>
				<time>2015-07-03T23:25:05Z</time>
				<extensions>
				</extensions>
			</trkpt>
			<trkpt lat="-27.775452" lon="153.189841">
				<ele>15.596</ele>
				<time>2015-07-03T23:25:06Z</time>
				<extensions>
				</extensions>
			</trkpt>
			<trkpt lat="-27.775422" lon="153.189615">
				<ele>15.503</ele>
				<time>2015-07-03T23:25:07Z</time>
				<extensions>
				</extensions>
			</trkpt>
			<trkpt lat="-27.775396" lon="153.189393">
				<ele>16.949</ele>
				<time>2015-07-03T23:25:08Z</time>
				<extensions>
				</extensions>
			</trkpt>
			<trkpt lat="-27.775366" lon="153.189163">
				<ele>15.813</ele>
				<time>2015-07-03T23:25:09Z</time>
				<extensions>
				</extensions>
			</trkpt>
			<trkpt lat="-27.775334" lon="153.188945">
				<ele>15.097</ele>
				<time>2015-07-03T23:25:10Z</time>
				<extensions>
				</extensions>
			</trkpt>
			<trkpt lat="-27.775303" lon="153.188736">
				<ele>12.785</ele>
				<time>2015-07-03T23:25:11Z</time>
				<extensions>
				</extensions>
			</trkpt>
			<trkpt lat="-27.775268" lon="153.188521">
				<ele>11.591</ele>
				<time>2015-07-03T23:25:12Z</time>
				<extensions>
				</extensions>
			</trkpt>
			<trkpt lat="-27.775213" lon="153.188124">
				<ele>12.145</ele>
				<time>2015-07-03T23:25:14Z</time>
				<extensions>
				</extensions>
			</trkpt>
			<trkpt lat="-27.775132" lon="153.187724">
				<ele>13.084</ele>
				<time>2015-07-03T23:25:16Z</time>
				<extensions>
				</extensions>
			</trkpt>
			<trkpt lat="-27.775085" lon="153.187525">
				<ele>12.356</ele>
				<time>2015-07-03T23:25:17Z</time>
				<extensions>
				</extensions>
			</trkpt>
			<trkpt lat="-27.775009" lon="153.187326">
				<ele>13.305</ele>
				<time>2015-07-03T23:25:18Z</time>
				<extensions>
				</extensions>
			</trkpt>
			<trkpt lat="-27.774926" lon="153.187137">
				<ele>14.025</ele>
				<time>2015-07-03T23:25:19Z</time>
				<extensions>
				</extensions>
			</trkpt>
			<trkpt lat="-27.774833" lon="153.186951">
				<ele>14.003</ele>
				<time>2015-07-03T23:25:20Z</time>
				<extensions>
				</extensions>
			</trkpt>
			<trkpt lat="-27.774749" lon="153.186771">
				<ele>12.351</ele>
				<time>2015-07-03T23:25:21Z</time>
				<extensions>
				</extensions>
			</trkpt>
			<trkpt lat="-27.774600" lon="153.186482">
				<ele>7.989</ele>
				<time>2015-07-03T23:25:23Z</time>
				<extensions>
				</extensions>
			</trkpt>
			<trkpt lat="-27.774485" lon="153.186250">
				<ele>5.667</ele>
				<time>2015-07-03T23:25:25Z</time>
				<extensions>
				</extensions>
			</trkpt>
			<trkpt lat="-27.774449" lon="153.186014">
				<ele>2.760</ele>
				<time>2015-07-03T23:25:28Z</time>
				<extensions>
				</extensions>
			</trkpt>
			<trkpt lat="-27.774627" lon="153.185864">
				<ele>4.845</ele>
				<time>2015-07-03T23:25:31Z</time>
				<extensions>
				</extensions>
			</trkpt>
			<trkpt lat="-27.774896" lon="153.185817">
				<ele>8.456</ele>
				<time>2015-07-03T23:25:33Z</time>
				<extensions>
				</extensions>
			</trkpt>
			<trkpt lat="-27.775224" lon="153.185767">
				<ele>10.975</ele>
				<time>2015-07-03T23:25:35Z</time>
				<extensions>
				</extensions>
			</trkpt>
			<trkpt lat="-27.775561" lon="153.185702">
				<ele>11.419</ele>
				<time>2015-07-03T23:25:37Z</time>
				<extensions>
				</extensions>
			</trkpt>
			<trkpt lat="-27.775848" lon="153.185637">
				<ele>9.440</ele>
				<time>2015-07-03T23:25:39Z</time>
				<extensions>
				</extensions>
			</trkpt>
			<trkpt lat="-27.776092" lon="153.185588">
				<ele>7.096</ele>
				<time>2015-07-03T23:25:41Z</time>
				<extensions>
				</extensions>
			</trkpt>
			<trkpt lat="-27.776330" lon="153.185536">
				<ele>6.944</ele>
				<time>2015-07-03T23:25:43Z</time>
				<extensions>
				</extensions>
			</trkpt>
			<trkpt lat="-27.776580" lon="153.185473">
				<ele>7.660</ele>
				<time>2015-07-03T23:25:45Z</time>
				<extensions>
				</extensions>
			</trkpt>
			<trkpt lat="-27.776874" lon="153.185461">
				<ele>8.329</ele>
				<time>2015-07-03T23:25:47Z</time>
				<extensions>
				</extensions>
			</trkpt>
			<trkpt lat="-27.777194" lon="153.185549">
				<ele>9.495</ele>
				<time>2015-07-03T23:25:49Z</time>
				<extensions>
				</extensions>
			</trkpt>
			<trkpt lat="-27.777517" lon="153.185731">
				<ele>14.185</ele>
				<time>2015-07-03T23:25:51Z</time>
				<extensions>
				</extensions>
			</trkpt>
			<trkpt lat="-27.777672" lon="153.185853">
				<ele>17.221</ele>
				<time>2015-07-03T23:25:52Z</time>
				<extensions>
				</extensions>
			</trkpt>
			<trkpt lat="-27.777825" lon="153.185996">
				<ele>18.803</ele>
				<time>2015-07-03T23:25:53Z</time>
				<extensions>
				</extensions>
			</trkpt>
			<trkpt lat="-27.777975" lon="153.186140">
				<ele>20.493</ele>
				<time>2015-07-03T23:25:54Z</time>
				<extensions>
				</extensions>
			</trkpt>
			<trkpt lat="-27.778131" lon="153.186290">
				<ele>22.192</ele>
				<time>2015-07-03T23:25:55Z</time>
				<extensions>
				</extensions>
			</trkpt>
			<trkpt lat="-27.778276" lon="153.186461">
				<ele>24.590</ele>
				<time>2015-07-03T23:25:56Z</time>
				<extensions>
				</extensions>
			</trkpt>
			<trkpt lat="-27.778440" lon="153.186609">
				<ele>27.819</ele>
				<time>2015-07-03T23:25:57Z</time>
				<extensions>
				</extensions>
			</trkpt>
			<trkpt lat="-27.778603" lon="153.186755">
				<ele>27.294</ele>
				<time>2015-07-03T23:25:58Z</time>
				<extensions>
				</extensions>
			</trkpt>
			<trkpt lat="-27.778793" lon="153.186882">
				<ele>26.623</ele>
				<time>2015-07-03T23:25:59Z</time>
				<extensions>
				</extensions>
			</trkpt>
			<trkpt lat="-27.778975" lon="153.186979">
				<ele>26.301</ele>
				<time>2015-07-03T23:26:00Z</time>
				<extensions>
				</extensions>
			</trkpt>
			<trkpt lat="-27.779171" lon="153.187059">
				<ele>27.045</ele>
				<time>2015-07-03T23:26:01Z</time>
				<extensions>
				</extensions>
			</trkpt>
			<trkpt lat="-27.779363" lon="153.187133">
				<ele>27.912</ele>
				<time>2015-07-03T23:26:02Z</time>
				<extensions>
				</extensions>
			</trkpt>
			<trkpt lat="-27.779569" lon="153.187200">
				<ele>28.659</ele>
				<time>2015-07-03T23:26:03Z</time>
				<extensions>
				</extensions>
			</trkpt>
			<trkpt lat="-27.779777" lon="153.187267">
				<ele>28.144</ele>
				<time>2015-07-03T23:26:04Z</time>
				<extensions>
				</extensions>
			</trkpt>
			<trkpt lat="-27.779977" lon="153.187313">
				<ele>27.863</ele>
				<time>2015-07-03T23:26:05Z</time>
				<extensions>
				</extensions>
			</trkpt>
			<trkpt lat="-27.780172" lon="153.187360">
				<ele>28.791</ele>
				<time>2015-07-03T23:26:06Z</time>
				<extensions>
				</extensions>
			</trkpt>
			<trkpt lat="-27.780388" lon="153.187385">
				<ele>29.521</ele>
				<time>2015-07-03T23:26:07Z</time>
				<extensions>
				</extensions>
			</trkpt>
			<trkpt lat="-27.780590" lon="153.187402">
				<ele>30.718</ele>
				<time>2015-07-03T23:26:08Z</time>
				<extensions>
				</extensions>
			</trkpt>
			<trkpt lat="-27.780795" lon="153.187432">
				<ele>29.746</ele>
				<time>2015-07-03T23:26:09Z</time>
				<extensions>
				</extensions>
			</trkpt>
			<trkpt lat="-27.780994" lon="153.187456">
				<ele>28.366</ele>
				<time>2015-07-03T23:26:10Z</time>
				<extensions>
				</extensions>
			</trkpt>
			<trkpt lat="-27.781200" lon="153.187478">
				<ele>26.473</ele>
				<time>2015-07-03T23:26:11Z</time>
				<extensions>
				</extensions>
			</trkpt>
			<trkpt lat="-27.781555" lon="153.187524">
				<ele>25.470</ele>
				<time>2015-07-03T23:26:13Z</time>
				<extensions>
				</extensions>
			</trkpt>
			<trkpt lat="-27.781894" lon="153.187545">
				<ele>23.629</ele>
				<time>2015-07-03T23:26:15Z</time>
				<extensions>
				</extensions>
			</trkpt>
			<trkpt lat="-27.782192" lon="153.187505">
				<ele>20.670</ele>
				<time>2015-07-03T23:26:17Z</time>
				<extensions>
				</extensions>
			</trkpt>
			<trkpt lat="-27.782542" lon="153.187397">
				<ele>21.008</ele>
				<time>2015-07-03T23:26:19Z</time>
				<extensions>
				</extensions>
			</trkpt>
			<trkpt lat="-27.782740" lon="153.187325">
				<ele>22.996</ele>
				<time>2015-07-03T23:26:20Z</time>
				<extensions>
				</extensions>
			</trkpt>
			<trkpt lat="-27.782917" lon="153.187249">
				<ele>22.523</ele>
				<time>2015-07-03T23:26:21Z</time>
				<extensions>
				</extensions>
			</trkpt>
			<trkpt lat="-27.783100" lon="153.187165">
				<ele>20.515</ele>
				<time>2015-07-03T23:26:22Z</time>
				<extensions>
				</extensions>
			</trkpt>
			<trkpt lat="-27.783274" lon="153.187076">
				<ele>18.706</ele>
				<time>2015-07-03T23:26:23Z</time>
				<extensions>
				</extensions>
			</trkpt>
			<trkpt lat="-27.783594" lon="153.186887">
				<ele>15.724</ele>
				<time>2015-07-03T23:26:25Z</time>
				<extensions>
				</extensions>
			</trkpt>
			<trkpt lat="-27.783872" lon="153.186640">
				<ele>17.128</ele>
				<time>2015-07-03T23:26:27Z</time>
				<extensions>
				</extensions>
			</trkpt>
			<trkpt lat="-27.784091" lon="153.186302">
				<ele>23.378</ele>
				<time>2015-07-03T23:26:29Z</time>
				<extensions>
				</extensions>
			</trkpt>
			<trkpt lat="-27.784201" lon="153.186116">
				<ele>24.052</ele>
				<time>2015-07-03T23:26:30Z</time>
				<extensions>
				</extensions>
			</trkpt>
			<trkpt lat="-27.784311" lon="153.185932">
				<ele>22.528</ele>
				<time>2015-07-03T23:26:31Z</time>
				<extensions>
				</extensions>
			</trkpt>
			<trkpt lat="-27.784435" lon="153.185762">
				<ele>22.461</ele>
				<time>2015-07-03T23:26:32Z</time>
				<extensions>
				</extensions>
			</trkpt>
			<trkpt lat="-27.784570" lon="153.185602">
				<ele>21.616</ele>
				<time>2015-07-03T23:26:33Z</time>
				<extensions>
				</extensions>
			</trkpt>
			<trkpt lat="-27.784705" lon="153.185454">
				<ele>22.182</ele>
				<time>2015-07-03T23:26:34Z</time>
				<extensions>
				</extensions>
			</trkpt>
			<trkpt lat="-27.784854" lon="153.185312">
				<ele>20.055</ele>
				<time>2015-07-03T23:26:35Z</time>
				<extensions>
				</extensions>
			</trkpt>
			<trkpt lat="-27.785015" lon="153.185162">
				<ele>19.510</ele>
				<time>2015-07-03T23:26:36Z</time>
				<extensions>
				</extensions>
			</trkpt>
			<trkpt lat="-27.785167" lon="153.185015">
				<ele>18.188</ele>
				<time>2015-07-03T23:26:37Z</time>
				<extensions>
				</extensions>
			</trkpt>
			<trkpt lat="-27.785321" lon="153.184852">
				<ele>17.906</ele>
				<time>2015-07-03T23:26:38Z</time>
				<extensions>
				</extensions>
			</trkpt>
			<trkpt lat="-27.785485" lon="153.184702">
				<ele>17.503</ele>
				<time>2015-07-03T23:26:39Z</time>
				<extensions>
				</extensions>
			</trkpt>
			<trkpt lat="-27.785763" lon="153.184438">
				<ele>13.197</ele>
				<time>2015-07-03T23:26:41Z</time>
				<extensions>
				</extensions>
			</trkpt>
			<trkpt lat="-27.785908" lon="153.184302">
				<ele>13.232</ele>
				<time>2015-07-03T23:26:42Z</time>
				<extensions>
				</extensions>
			</trkpt>
			<trkpt lat="-27.786181" lon="153.184052">
				<ele>14.354</ele>
				<time>2015-07-03T23:26:44Z</time>
				<extensions>
				</extensions>
			</trkpt>
			<trkpt lat="-27.786342" lon="153.183925">
				<ele>15.423</ele>
				<time>2015-07-03T23:26:45Z</time>
				<extensions>
				</extensions>
			</trkpt>
			<trkpt lat="-27.786519" lon="153.183785">
				<ele>16.737</ele>
				<time>2015-07-03T23:26:46Z</time>
				<extensions>
				</extensions>
			</trkpt>
			<trkpt lat="-27.786657" lon="153.183654">
				<ele>17.774</ele>
				<time>2015-07-03T23:26:47Z</time>
				<extensions>
				</extensions>
			</trkpt>
			<trkpt lat="-27.786813" lon="153.183516">
				<ele>18.124</ele>
				<time>2015-07-03T23:26:48Z</time>
				<extensions>
				</extensions>
			</trkpt>
			<trkpt lat="-27.786989" lon="153.183375">
				<ele>20.142</ele>
				<time>2015-07-03T23:26:49Z</time>
				<extensions>
				</extensions>
			</trkpt>
			<trkpt lat="-27.787130" lon="153.183236">
				<ele>21.403</ele>
				<time>2015-07-03T23:26:50Z</time>
				<extensions>
				</extensions>
			</trkpt>
			<trkpt lat="-27.787378" lon="153.182933">
				<ele>20.497</ele>
				<time>2015-07-03T23:26:52Z</time>
				<extensions>
				</extensions>
			</trkpt>
			<trkpt lat="-27.787496" lon="153.182768">
				<ele>21.356</ele>
				<time>2015-07-03T23:26:53Z</time>
				<extensions>
				</extensions>
			</trkpt>
			<trkpt lat="-27.787612" lon="153.182604">
				<ele>22.111</ele>
				<time>2015-07-03T23:26:54Z</time>
				<extensions>
				</extensions>
			</trkpt>
			<trkpt lat="-27.787742" lon="153.182419">
				<ele>21.925</ele>
				<time>2015-07-03T23:26:55Z</time>
				<extensions>
				</extensions>
			</trkpt>
			<trkpt lat="-27.787875" lon="153.182245">
				<ele>21.925</ele>
				<time>2015-07-03T23:26:56Z</time>
				<extensions>
				</extensions>
			</trkpt>
			<trkpt lat="-27.788001" lon="153.182074">
				<ele>21.170</ele>
				<time>2015-07-03T23:26:57Z</time>
				<extensions>
				</extensions>
			</trkpt>
			<trkpt lat="-27.788230" lon="153.181771">
				<ele>17.367</ele>
				<time>2015-07-03T23:26:59Z</time>
				<extensions>
				</extensions>
			</trkpt>
			<trkpt lat="-27.788360" lon="153.181613">
				<ele>16.964</ele>
				<time>2015-07-03T23:27:00Z</time>
				<extensions>
				</extensions>
			</trkpt>
			<trkpt lat="-27.788632" lon="153.181338">
				<ele>18.817</ele>
				<time>2015-07-03T23:27:02Z</time>
				<extensions>
				</extensions>
			</trkpt>
			<trkpt lat="-27.788796" lon="153.181218">
				<ele>19.381</ele>
				<time>2015-07-03T23:27:03Z</time>
				<extensions>
				</extensions>
			</trkpt>
			<trkpt lat="-27.788965" lon="153.181123">
				<ele>20.465</ele>
				<time>2015-07-03T23:27:04Z</time>
				<extensions>
				</extensions>
			</trkpt>
			<trkpt lat="-27.789156" lon="153.181029">
				<ele>21.395</ele>
				<time>2015-07-03T23:27:05Z</time>
				<extensions>
				</extensions>
			</trkpt>
			<trkpt lat="-27.789372" lon="153.180942">
				<ele>22.850</ele>
				<time>2015-07-03T23:27:06Z</time>
				<extensions>
				</extensions>
			</trkpt>
			<trkpt lat="-27.789577" lon="153.180852">
				<ele>23.251</ele>
				<time>2015-07-03T23:27:07Z</time>
				<extensions>
				</extensions>
			</trkpt>
			<trkpt lat="-27.789761" lon="153.180754">
				<ele>22.921</ele>
				<time>2015-07-03T23:27:08Z</time>
				<extensions>
				</extensions>
			</trkpt>
			<trkpt lat="-27.789968" lon="153.180659">
				<ele>21.916</ele>
				<time>2015-07-03T23:27:09Z</time>
				<extensions>
				</extensions>
			</trkpt>
			<trkpt lat="-27.790163" lon="153.180572">
				<ele>20.102</ele>
				<time>2015-07-03T23:27:10Z</time>
				<extensions>
				</extensions>
			</trkpt>
			<trkpt lat="-27.790344" lon="153.180488">
				<ele>19.512</ele>
				<time>2015-07-03T23:27:11Z</time>
				<extensions>
				</extensions>
			</trkpt>
			<trkpt lat="-27.790528" lon="153.180393">
				<ele>19.246</ele>
				<time>2015-07-03T23:27:12Z</time>
				<extensions>
				</extensions>
			</trkpt>
			<trkpt lat="-27.790715" lon="153.180296">
				<ele>18.268</ele>
				<time>2015-07-03T23:27:13Z</time>
				<extensions>
				</extensions>
			</trkpt>
			<trkpt lat="-27.790901" lon="153.180203">
				<ele>19.302</ele>
				<time>2015-07-03T23:27:14Z</time>
				<extensions>
				</extensions>
			</trkpt>
			<trkpt lat="-27.791084" lon="153.180098">
				<ele>18.279</ele>
				<time>2015-07-03T23:27:15Z</time>
				<extensions>
				</extensions>
			</trkpt>
			<trkpt lat="-27.791252" lon="153.179986">
				<ele>18.359</ele>
				<time>2015-07-03T23:27:16Z</time>
				<extensions>
				</extensions>
			</trkpt>
			<trkpt lat="-27.791423" lon="153.179863">
				<ele>18.519</ele>
				<time>2015-07-03T23:27:28Z</time>
				<extensions>
				</extensions>
			</trkpt>
			<trkpt lat="-27.791588" lon="153.179730">
				<ele>18.625</ele>
				<time>2015-07-03T23:27:28Z</time>
				<extensions>
				</extensions>
			</trkpt>
			<trkpt lat="-27.791741" lon="153.179580">
				<ele>19.935</ele>
				<time>2015-07-03T23:27:28Z</time>
				<extensions>
				</extensions>
			</trkpt>
			<trkpt lat="-27.791880" lon="153.179417">
				<ele>20.229</ele>
				<time>2015-07-03T23:27:28Z</time>
				<extensions>
				</extensions>
			</trkpt>
			<trkpt lat="-27.792024" lon="153.179230">
				<ele>22.109</ele>
				<time>2015-07-03T23:27:28Z</time>
				<extensions>
				</extensions>
			</trkpt>
			<trkpt lat="-27.792161" lon="153.179047">
				<ele>24.279</ele>
				<time>2015-07-03T23:27:28Z</time>
				<extensions>
				</extensions>
			</trkpt>
			<trkpt lat="-27.792287" lon="153.178862">
				<ele>23.883</ele>
				<time>2015-07-03T23:27:28Z</time>
				<extensions>
				</extensions>
			</trkpt>
			<trkpt lat="-27.792420" lon="153.178678">
				<ele>25.406</ele>
				<time>2015-07-03T23:27:28Z</time>
				<extensions>
				</extensions>
			</trkpt>
			<trkpt lat="-27.792551" lon="153.178498">
				<ele>26.522</ele>
				<time>2015-07-03T23:27:28Z</time>
				<extensions>
				</extensions>
			</trkpt>
			<trkpt lat="-27.792686" lon="153.178323">
				<ele>25.947</ele>
				<time>2015-07-03T23:27:28Z</time>
				<extensions>
				</extensions>
			</trkpt>
			<trkpt lat="-27.792825" lon="153.178146">
				<ele>25.926</ele>
				<time>2015-07-03T23:27:28Z</time>
				<extensions>
				</extensions>
			</trkpt>
			<trkpt lat="-27.792963" lon="153.177981">
				<ele>25.311</ele>
				<time>2015-07-03T23:27:28Z</time>
				<extensions>
				</extensions>
			</trkpt>
			<trkpt lat="-27.793114" lon="153.177830">
				<ele>24.253</ele>
				<time>2015-07-03T23:27:29Z</time>
				<extensions>
				</extensions>
			</trkpt>
			<trkpt lat="-27.793261" lon="153.177683">
				<ele>23.067</ele>
				<time>2015-07-03T23:27:30Z</time>
				<extensions>
				</extensions>
			</trkpt>
			<trkpt lat="-27.793457" lon="153.177561">
				<ele>21.891</ele>
				<time>2015-07-03T23:27:31Z</time>
				<extensions>
				</extensions>
			</trkpt>
			<trkpt lat="-27.793646" lon="153.177451">
				<ele>19.069</ele>
				<time>2015-07-03T23:27:32Z</time>
				<extensions>
				</extensions>
			</trkpt>
			<trkpt lat="-27.793846" lon="153.177356">
				<ele>16.982</ele>
				<time>2015-07-03T23:27:33Z</time>
				<extensions>
				</extensions>
			</trkpt>
			<trkpt lat="-27.794031" lon="153.177264">
				<ele>18.331</ele>
				<time>2015-07-03T23:27:34Z</time>
				<extensions>
				</extensions>
			</trkpt>
			<trkpt lat="-27.794227" lon="153.177194">
				<ele>15.999</ele>
				<time>2015-07-03T23:27:35Z</time>
				<extensions>
				</extensions>
			</trkpt>
			<trkpt lat="-27.794407" lon="153.177140">
				<ele>13.901</ele>
				<time>2015-07-03T23:27:36Z</time>
				<extensions>
				</extensions>
			</trkpt>
			<trkpt lat="-27.794604" lon="153.177104">
				<ele>14.126</ele>
				<time>2015-07-03T23:27:37Z</time>
				<extensions>
				</extensions>
			</trkpt>
			<trkpt lat="-27.794817" lon="153.177076">
				<ele>14.272</ele>
				<time>2015-07-03T23:27:38Z</time>
				<extensions>
				</extensions>
			</trkpt>
			<trkpt lat="-27.795030" lon="153.177067">
				<ele>14.728</ele>
				<time>2015-07-03T23:27:39Z</time>
				<extensions>
				</extensions>
			</trkpt>
			<trkpt lat="-27.795243" lon="153.177088">
				<ele>15.385</ele>
				<time>2015-07-03T23:27:40Z</time>
				<extensions>
				</extensions>
			</trkpt>
			<trkpt lat="-27.795455" lon="153.177105">
				<ele>13.189</ele>
				<time>2015-07-03T23:27:41Z</time>
				<extensions>
				</extensions>
			</trkpt>
			<trkpt lat="-27.795665" lon="153.177133">
				<ele>13.370</ele>
				<time>2015-07-03T23:27:42Z</time>
				<extensions>
				</extensions>
			</trkpt>
			<trkpt lat="-27.795879" lon="153.177163">
				<ele>14.353</ele>
				<time>2015-07-03T23:27:43Z</time>
				<extensions>
				</extensions>
			</trkpt>
			<trkpt lat="-27.796092" lon="153.177194">
				<ele>14.605</ele>
				<time>2015-07-03T23:27:44Z</time>
				<extensions>
				</extensions>
			</trkpt>
			<trkpt lat="-27.796319" lon="153.177227">
				<ele>14.009</ele>
				<time>2015-07-03T23:27:45Z</time>
				<extensions>
				</extensions>
			</trkpt>
			<trkpt lat="-27.796527" lon="153.177259">
				<ele>13.952</ele>
				<time>2015-07-03T23:27:46Z</time>
				<extensions>
				</extensions>
			</trkpt>
			<trkpt lat="-27.796751" lon="153.177285">
				<ele>13.705</ele>
				<time>2015-07-03T23:27:47Z</time>
				<extensions>
				</extensions>
			</trkpt>
			<trkpt lat="-27.796964" lon="153.177322">
				<ele>12.727</ele>
				<time>2015-07-03T23:27:48Z</time>
				<extensions>
				</extensions>
			</trkpt>
			<trkpt lat="-27.797165" lon="153.177344">
				<ele>11.781</ele>
				<time>2015-07-03T23:27:49Z</time>
				<extensions>
				</extensions>
			</trkpt>
			<trkpt lat="-27.797359" lon="153.177365">
				<ele>11.829</ele>
				<time>2015-07-03T23:27:50Z</time>
				<extensions>
				</extensions>
			</trkpt>
			<trkpt lat="-27.797550" lon="153.177364">
				<ele>11.371</ele>
				<time>2015-07-03T23:27:51Z</time>
				<extensions>
				</extensions>
			</trkpt>
			<trkpt lat="-27.797732" lon="153.177344">
				<ele>12.785</ele>
				<time>2015-07-03T23:27:52Z</time>
				<extensions>
				</extensions>
			</trkpt>
			<trkpt lat="-27.797937" lon="153.177303">
				<ele>13.974</ele>
				<time>2015-07-03T23:27:53Z</time>
				<extensions>
				</extensions>
			</trkpt>
			<trkpt lat="-27.798133" lon="153.177255">
				<ele>16.543</ele>
				<time>2015-07-03T23:27:54Z</time>
				<extensions>
				</extensions>
			</trkpt>
			<trkpt lat="-27.798340" lon="153.177200">
				<ele>18.472</ele>
				<time>2015-07-03T23:27:55Z</time>
				<extensions>
				</extensions>
			</trkpt>
			<trkpt lat="-27.798523" lon="153.177142">
				<ele>19.765</ele>
				<time>2015-07-03T23:27:56Z</time>
				<extensions>
				</extensions>
			</trkpt>
			<trkpt lat="-27.798702" lon="153.177082">
				<ele>19.594</ele>
				<time>2015-07-03T23:27:57Z</time>
				<extensions>
				</extensions>
			</trkpt>
			<trkpt lat="-27.798884" lon="153.177026">
				<ele>19.524</ele>
				<time>2015-07-03T23:27:58Z</time>
				<extensions>
				</extensions>
			</trkpt>
			<trkpt lat="-27.799070" lon="153.176982">
				<ele>20.014</ele>
				<time>2015-07-03T23:27:59Z</time>
				<extensions>
				</extensions>
			</trkpt>
			<trkpt lat="-27.799445" lon="153.176903">
				<ele>21.820</ele>
				<time>2015-07-03T23:28:01Z</time>
				<extensions>
				</extensions>
			</trkpt>
			<trkpt lat="-27.799655" lon="153.176871">
				<ele>23.336</ele>
				<time>2015-07-03T23:28:02Z</time>
				<extensions>
				</extensions>
			</trkpt>
			<trkpt lat="-27.799850" lon="153.176846">
				<ele>25.486</ele>
				<time>2015-07-03T23:28:03Z</time>
				<extensions>
				</extensions>
			</trkpt>
			<trkpt lat="-27.800066" lon="153.176812">
				<ele>27.147</ele>
				<time>2015-07-03T23:28:04Z</time>
				<extensions>
				</extensions>
			</trkpt>
			<trkpt lat="-27.800259" lon="153.176803">
				<ele>27.628</ele>
				<time>2015-07-03T23:28:05Z</time>
				<extensions>
				</extensions>
			</trkpt>
			<trkpt lat="-27.800480" lon="153.176793">
				<ele>28.326</ele>
				<time>2015-07-03T23:28:06Z</time>
				<extensions>
				</extensions>
			</trkpt>
			<trkpt lat="-27.800691" lon="153.176788">
				<ele>28.242</ele>
				<time>2015-07-03T23:28:07Z</time>
				<extensions>
				</extensions>
			</trkpt>
			<trkpt lat="-27.800903" lon="153.176792">
				<ele>28.441</ele>
				<time>2015-07-03T23:28:08Z</time>
				<extensions>
				</extensions>
			</trkpt>
			<trkpt lat="-27.801112" lon="153.176804">
				<ele>27.383</ele>
				<time>2015-07-03T23:28:09Z</time>
				<extensions>
				</extensions>
			</trkpt>
			<trkpt lat="-27.801320" lon="153.176819">
				<ele>26.870</ele>
				<time>2015-07-03T23:28:10Z</time>
				<extensions>
				</extensions>
			</trkpt>
			<trkpt lat="-27.801526" lon="153.176839">
				<ele>27.591</ele>
				<time>2015-07-03T23:28:11Z</time>
				<extensions>
				</extensions>
			</trkpt>
			<trkpt lat="-27.801732" lon="153.176855">
				<ele>27.353</ele>
				<time>2015-07-03T23:28:12Z</time>
				<extensions>
				</extensions>
			</trkpt>
			<trkpt lat="-27.801937" lon="153.176883">
				<ele>26.201</ele>
				<time>2015-07-03T23:28:13Z</time>
				<extensions>
				</extensions>
			</trkpt>
			<trkpt lat="-27.802139" lon="153.176898">
				<ele>25.390</ele>
				<time>2015-07-03T23:28:14Z</time>
				<extensions>
				</extensions>
			</trkpt>
			<trkpt lat="-27.802322" lon="153.176910">
				<ele>25.390</ele>
				<time>2015-07-03T23:28:15Z</time>
				<extensions>
				</extensions>
			</trkpt>
			<trkpt lat="-27.802511" lon="153.176930">
				<ele>25.429</ele>
				<time>2015-07-03T23:28:16Z</time>
				<extensions>
				</extensions>
			</trkpt>
			<trkpt lat="-27.802867" lon="153.176971">
				<ele>26.320</ele>
				<time>2015-07-03T23:28:18Z</time>
				<extensions>
				</extensions>
			</trkpt>
			<trkpt lat="-27.803050" lon="153.176987">
				<ele>27.970</ele>
				<time>2015-07-03T23:28:19Z</time>
				<extensions>
				</extensions>
			</trkpt>
			<trkpt lat="-27.803231" lon="153.177010">
				<ele>29.247</ele>
				<time>2015-07-03T23:28:20Z</time>
				<extensions>
				</extensions>
			</trkpt>
			<trkpt lat="-27.803412" lon="153.177036">
				<ele>30.098</ele>
				<time>2015-07-03T23:28:21Z</time>
				<extensions>
				</extensions>
			</trkpt>
			<trkpt lat="-27.803601" lon="153.177057">
				<ele>31.572</ele>
				<time>2015-07-03T23:28:22Z</time>
				<extensions>
				</extensions>
			</trkpt>
			<trkpt lat="-27.803803" lon="153.177076">
				<ele>33.310</ele>
				<time>2015-07-03T23:28:23Z</time>
				<extensions>
				</extensions>
			</trkpt>
			<trkpt lat="-27.804009" lon="153.177100">
				<ele>35.020</ele>
				<time>2015-07-03T23:28:24Z</time>
				<extensions>
				</extensions>
			</trkpt>
			<trkpt lat="-27.804220" lon="153.177119">
				<ele>37.689</ele>
				<time>2015-07-03T23:28:25Z</time>
				<extensions>
				</extensions>
			</trkpt>
			<trkpt lat="-27.804595" lon="153.177170">
				<ele>38.579</ele>
				<time>2015-07-03T23:28:27Z</time>
				<extensions>
				</extensions>
			</trkpt>
			<trkpt lat="-27.804791" lon="153.177176">
				<ele>37.165</ele>
				<time>2015-07-03T23:28:28Z</time>
				<extensions>
				</extensions>
			</trkpt>
			<trkpt lat="-27.804982" lon="153.177196">
				<ele>34.940</ele>
				<time>2015-07-03T23:28:29Z</time>
				<extensions>
				</extensions>
			</trkpt>
			<trkpt lat="-27.805175" lon="153.177213">
				<ele>32.556</ele>
				<time>2015-07-03T23:28:30Z</time>
				<extensions>
				</extensions>
			</trkpt>
			<trkpt lat="-27.805363" lon="153.177237">
				<ele>31.205</ele>
				<time>2015-07-03T23:28:31Z</time>
				<extensions>
				</extensions>
			</trkpt>
			<trkpt lat="-27.805551" lon="153.177252">
				<ele>29.797</ele>
				<time>2015-07-03T23:28:32Z</time>
				<extensions>
				</extensions>
			</trkpt>
			<trkpt lat="-27.805907" lon="153.177291">
				<ele>29.840</ele>
				<time>2015-07-03T23:28:34Z</time>
				<extensions>
				</extensions>
			</trkpt>
			<trkpt lat="-27.806099" lon="153.177331">
				<ele>29.560</ele>
				<time>2015-07-03T23:28:35Z</time>
				<extensions>
				</extensions>
			</trkpt>
			<trkpt lat="-27.806397" lon="153.177410">
				<ele>27.009</ele>
				<time>2015-07-03T23:28:37Z</time>
				<extensions>
				</extensions>
			</trkpt>
			<trkpt lat="-27.806642" lon="153.177568">
				<ele>27.214</ele>
				<time>2015-07-03T23:28:39Z</time>
				<extensions>
				</extensions>
			</trkpt>
			<trkpt lat="-27.806874" lon="153.177791">
				<ele>27.437</ele>
				<time>2015-07-03T23:28:41Z</time>
				<extensions>
				</extensions>
			</trkpt>
			<trkpt lat="-27.807098" lon="153.178082">
				<ele>26.686</ele>
				<time>2015-07-03T23:28:43Z</time>
				<extensions>
				</extensions>
			</trkpt>
			<trkpt lat="-27.807201" lon="153.178255">
				<ele>25.727</ele>
				<time>2015-07-03T23:28:44Z</time>
				<extensions>
				</extensions>
			</trkpt>
			<trkpt lat="-27.807305" lon="153.178426">
				<ele>24.072</ele>
				<time>2015-07-03T23:28:45Z</time>
				<extensions>
				</extensions>
			</trkpt>
			<trkpt lat="-27.807406" lon="153.178597">
				<ele>22.543</ele>
				<time>2015-07-03T23:28:46Z</time>
				<extensions>
				</extensions>
			</trkpt>
			<trkpt lat="-27.807591" lon="153.178929">
				<ele>21.988</ele>
				<time>2015-07-03T23:28:48Z</time>
				<extensions>
				</extensions>
			</trkpt>
			<trkpt lat="-27.807772" lon="153.179253">
				<ele>19.920</ele>
				<time>2015-07-03T23:28:50Z</time>
				<extensions>
				</extensions>
			</trkpt>
			<trkpt lat="-27.807945" lon="153.179545">
				<ele>16.548</ele>
				<time>2015-07-03T23:28:52Z</time>
				<extensions>
				</extensions>
			</trkpt>
			<trkpt lat="-27.808100" lon="153.179831">
				<ele>14.173</ele>
				<time>2015-07-03T23:28:54Z</time>
				<extensions>
				</extensions>
			</trkpt>
			<trkpt lat="-27.808257" lon="153.180099">
				<ele>13.750</ele>
				<time>2015-07-03T23:28:56Z</time>
				<extensions>
				</extensions>
			</trkpt>
			<trkpt lat="-27.808402" lon="153.180336">
				<ele>13.514</ele>
				<time>2015-07-03T23:28:58Z</time>
				<extensions>
				</extensions>
			</trkpt>
			<trkpt lat="-27.808593" lon="153.180558">
				<ele>12.965</ele>
				<time>2015-07-03T23:29:00Z</time>
				<extensions>
				</extensions>
			</trkpt>
			<trkpt lat="-27.808852" lon="153.180716">
				<ele>13.645</ele>
				<time>2015-07-03T23:29:02Z</time>
				<extensions>
				</extensions>
			</trkpt>
			<trkpt lat="-27.809159" lon="153.180795">
				<ele>14.472</ele>
				<time>2015-07-03T23:29:04Z</time>
				<extensions>
				</extensions>
			</trkpt>
			<trkpt lat="-27.809486" lon="153.180811">
				<ele>14.807</ele>
				<time>2015-07-03T23:29:06Z</time>
				<extensions>
				</extensions>
			</trkpt>
			<trkpt lat="-27.809828" lon="153.180750">
				<ele>15.527</ele>
				<time>2015-07-03T23:29:08Z</time>
				<extensions>
				</extensions>
			</trkpt>
			<trkpt lat="-27.810007" lon="153.180708">
				<ele>17.646</ele>
				<time>2015-07-03T23:29:09Z</time>
				<extensions>
				</extensions>
			</trkpt>
			<trkpt lat="-27.810198" lon="153.180666">
				<ele>18.189</ele>
				<time>2015-07-03T23:29:10Z</time>
				<extensions>
				</extensions>
			</trkpt>
			<trkpt lat="-27.810385" lon="153.180626">
				<ele>19.700</ele>
				<time>2015-07-03T23:29:11Z</time>
				<extensions>
				</extensions>
			</trkpt>
			<trkpt lat="-27.810565" lon="153.180601">
				<ele>21.385</ele>
				<time>2015-07-03T23:29:12Z</time>
				<extensions>
				</extensions>
			</trkpt>
			<trkpt lat="-27.810756" lon="153.180579">
				<ele>23.156</ele>
				<time>2015-07-03T23:29:13Z</time>
				<extensions>
				</extensions>
			</trkpt>
			<trkpt lat="-27.810937" lon="153.180559">
				<ele>25.185</ele>
				<time>2015-07-03T23:29:14Z</time>
				<extensions>
				</extensions>
			</trkpt>
			<trkpt lat="-27.811118" lon="153.180545">
				<ele>26.035</ele>
				<time>2015-07-03T23:29:15Z</time>
				<extensions>
				</extensions>
			</trkpt>
			<trkpt lat="-27.811297" lon="153.180523">
				<ele>26.484</ele>
				<time>2015-07-03T23:29:16Z</time>
				<extensions>
				</extensions>
			</trkpt>
			<trkpt lat="-27.811656" lon="153.180492">
				<ele>25.865</ele>
				<time>2015-07-03T23:29:18Z</time>
				<extensions>
				</extensions>
			</trkpt>
			<trkpt lat="-27.812006" lon="153.180459">
				<ele>25.530</ele>
				<time>2015-07-03T23:29:20Z</time>
				<extensions>
				</extensions>
			</trkpt>
			<trkpt lat="-27.812365" lon="153.180432">
				<ele>25.271</ele>
				<time>2015-07-03T23:29:22Z</time>
				<extensions>
				</extensions>
			</trkpt>
			<trkpt lat="-27.812550" lon="153.180418">
				<ele>25.093</ele>
				<time>2015-07-03T23:29:23Z</time>
				<extensions>
				</extensions>
			</trkpt>
			<trkpt lat="-27.812750" lon="153.180416">
				<ele>22.586</ele>
				<time>2015-07-03T23:29:24Z</time>
				<extensions>
				</extensions>
			</trkpt>
			<trkpt lat="-27.812939" lon="153.180419">
				<ele>21.694</ele>
				<time>2015-07-03T23:29:25Z</time>
				<extensions>
				</extensions>
			</trkpt>
			<trkpt lat="-27.813288" lon="153.180438">
				<ele>19.531</ele>
				<time>2015-07-03T23:29:27Z</time>
				<extensions>
				</extensions>
			</trkpt>
			<trkpt lat="-27.813605" lon="153.180496">
				<ele>19.159</ele>
				<time>2015-07-03T23:29:29Z</time>
				<extensions>
				</extensions>
			</trkpt>
			<trkpt lat="-27.813912" lon="153.180603">
				<ele>18.681</ele>
				<time>2015-07-03T23:29:31Z</time>
				<extensions>
				</extensions>
			</trkpt>
			<trkpt lat="-27.814225" lon="153.180735">
				<ele>18.489</ele>
				<time>2015-07-03T23:29:33Z</time>
				<extensions>
				</extensions>
			</trkpt>
			<trkpt lat="-27.814546" lon="153.180891">
				<ele>18.067</ele>
				<time>2015-07-03T23:29:35Z</time>
				<extensions>
				</extensions>
			</trkpt>
			<trkpt lat="-27.814866" lon="153.181080">
				<ele>18.755</ele>
				<time>2015-07-03T23:29:37Z</time>
				<extensions>
				</extensions>
			</trkpt>
			<trkpt lat="-27.815031" lon="153.181184">
				<ele>18.306</ele>
				<time>2015-07-03T23:29:38Z</time>
				<extensions>
				</extensions>
			</trkpt>
			<trkpt lat="-27.815198" lon="153.181305">
				<ele>18.518</ele>
				<time>2015-07-03T23:29:39Z</time>
				<extensions>
				</extensions>
			</trkpt>
			<trkpt lat="-27.815375" lon="153.181408">
				<ele>19.323</ele>
				<time>2015-07-03T23:29:40Z</time>
				<extensions>
				</extensions>
			</trkpt>
			<trkpt lat="-27.815561" lon="153.181519">
				<ele>20.878</ele>
				<time>2015-07-03T23:29:41Z</time>
				<extensions>
				</extensions>
			</trkpt>
			<trkpt lat="-27.815739" lon="153.181630">
				<ele>20.276</ele>
				<time>2015-07-03T23:29:42Z</time>
				<extensions>
				</extensions>
			</trkpt>
			<trkpt lat="-27.815906" lon="153.181751">
				<ele>20.043</ele>
				<time>2015-07-03T23:29:43Z</time>
				<extensions>
				</extensions>
			</trkpt>
			<trkpt lat="-27.816062" lon="153.181887">
				<ele>20.222</ele>
				<time>2015-07-03T23:29:44Z</time>
				<extensions>
				</extensions>
			</trkpt>
			<trkpt lat="-27.816211" lon="153.182035">
				<ele>19.816</ele>
				<time>2015-07-03T23:29:45Z</time>
				<extensions>
				</extensions>
			</trkpt>
			<trkpt lat="-27.816349" lon="153.182188">
				<ele>21.775</ele>
				<time>2015-07-03T23:29:46Z</time>
				<extensions>
				</extensions>
			</trkpt>
			<trkpt lat="-27.816473" lon="153.182337">
				<ele>21.653</ele>
				<time>2015-07-03T23:29:47Z</time>
				<extensions>
				</extensions>
			</trkpt>
			<trkpt lat="-27.816599" lon="153.182490">
				<ele>22.552</ele>
				<time>2015-07-03T23:29:48Z</time>
				<extensions>
				</extensions>
			</trkpt>
			<trkpt lat="-27.816722" lon="153.182638">
				<ele>23.408</ele>
				<time>2015-07-03T23:29:49Z</time>
				<extensions>
				</extensions>
			</trkpt>
			<trkpt lat="-27.816956" lon="153.182911">
				<ele>22.009</ele>
				<time>2015-07-03T23:29:51Z</time>
				<extensions>
				</extensions>
			</trkpt>
			<trkpt lat="-27.817204" lon="153.183185">
				<ele>20.687</ele>
				<time>2015-07-03T23:29:53Z</time>
				<extensions>
				</extensions>
			</trkpt>
			<trkpt lat="-27.817497" lon="153.183421">
				<ele>19.595</ele>
				<time>2015-07-03T23:29:55Z</time>
				<extensions>
				</extensions>
			</trkpt>
			<trkpt lat="-27.817662" lon="153.183511">
				<ele>18.451</ele>
				<time>2015-07-03T23:29:56Z</time>
				<extensions>
				</extensions>
			</trkpt>
			<trkpt lat="-27.818014" lon="153.183605">
				<ele>19.322</ele>
				<time>2015-07-03T23:29:58Z</time>
				<extensions>
				</extensions>
			</trkpt>
			<trkpt lat="-27.818199" lon="153.183636">
				<ele>20.356</ele>
				<time>2015-07-03T23:29:59Z</time>
				<extensions>
				</extensions>
			</trkpt>
			<trkpt lat="-27.818393" lon="153.183665">
				<ele>23.049</ele>
				<time>2015-07-03T23:30:00Z</time>
				<extensions>
				</extensions>
			</trkpt>
			<trkpt lat="-27.818589" lon="153.183700">
				<ele>25.083</ele>
				<time>2015-07-03T23:30:01Z</time>
				<extensions>
				</extensions>
			</trkpt>
			<trkpt lat="-27.818781" lon="153.183737">
				<ele>26.296</ele>
				<time>2015-07-03T23:30:02Z</time>
				<extensions>
				</extensions>
			</trkpt>
			<trkpt lat="-27.818974" lon="153.183772">
				<ele>25.591</ele>
				<time>2015-07-03T23:30:03Z</time>
				<extensions>
				</extensions>
			</trkpt>
			<trkpt lat="-27.819323" lon="153.183833">
				<ele>24.699</ele>
				<time>2015-07-03T23:30:05Z</time>
				<extensions>
				</extensions>
			</trkpt>
			<trkpt lat="-27.819507" lon="153.183848">
				<ele>24.657</ele>
				<time>2015-07-03T23:30:06Z</time>
				<extensions>
				</extensions>
			</trkpt>
			<trkpt lat="-27.819704" lon="153.183853">
				<ele>24.115</ele>
				<time>2015-07-03T23:30:07Z</time>
				<extensions>
				</extensions>
			</trkpt>
			<trkpt lat="-27.819895" lon="153.183830">
				<ele>24.071</ele>
				<time>2015-07-03T23:30:08Z</time>
				<extensions>
				</extensions>
			</trkpt>
			<trkpt lat="-27.820091" lon="153.183783">
				<ele>25.234</ele>
				<time>2015-07-03T23:30:09Z</time>
				<extensions>
				</extensions>
			</trkpt>
			<trkpt lat="-27.820294" lon="153.183721">
				<ele>28.008</ele>
				<time>2015-07-03T23:30:10Z</time>
				<extensions>
				</extensions>
			</trkpt>
			<trkpt lat="-27.820494" lon="153.183641">
				<ele>28.410</ele>
				<time>2015-07-03T23:30:11Z</time>
				<extensions>
				</extensions>
			</trkpt>
			<trkpt lat="-27.820695" lon="153.183563">
				<ele>28.168</ele>
				<time>2015-07-03T23:30:12Z</time>
				<extensions>
				</extensions>
			</trkpt>
			<trkpt lat="-27.820898" lon="153.183434">
				<ele>28.541</ele>
				<time>2015-07-03T23:30:13Z</time>
				<extensions>
				</extensions>
			</trkpt>
			<trkpt lat="-27.821123" lon="153.183340">
				<ele>26.624</ele>
				<time>2015-07-03T23:30:14Z</time>
				<extensions>
				</extensions>
			</trkpt>
			<trkpt lat="-27.821341" lon="153.183240">
				<ele>24.667</ele>
				<time>2015-07-03T23:30:15Z</time>
				<extensions>
				</extensions>
			</trkpt>
			<trkpt lat="-27.821586" lon="153.183140">
				<ele>24.045</ele>
				<time>2015-07-03T23:30:16Z</time>
				<extensions>
				</extensions>
			</trkpt>
			<trkpt lat="-27.821808" lon="153.183047">
				<ele>23.100</ele>
				<time>2015-07-03T23:30:17Z</time>
				<extensions>
				</extensions>
			</trkpt>
			<trkpt lat="-27.822011" lon="153.182965">
				<ele>22.586</ele>
				<time>2015-07-03T23:30:18Z</time>
				<extensions>
				</extensions>
			</trkpt>
			<trkpt lat="-27.822359" lon="153.182828">
				<ele>20.350</ele>
				<time>2015-07-03T23:30:20Z</time>
				<extensions>
				</extensions>
			</trkpt>
			<trkpt lat="-27.822537" lon="153.182744">
				<ele>20.853</ele>
				<time>2015-07-03T23:30:21Z</time>
				<extensions>
				</extensions>
			</trkpt>
			<trkpt lat="-27.822722" lon="153.182676">
				<ele>22.347</ele>
				<time>2015-07-03T23:30:22Z</time>
				<extensions>
				</extensions>
			</trkpt>
			<trkpt lat="-27.822911" lon="153.182618">
				<ele>23.728</ele>
				<time>2015-07-03T23:30:23Z</time>
				<extensions>
				</extensions>
			</trkpt>
			<trkpt lat="-27.823092" lon="153.182566">
				<ele>24.279</ele>
				<time>2015-07-03T23:30:24Z</time>
				<extensions>
				</extensions>
			</trkpt>
			<trkpt lat="-27.823289" lon="153.182516">
				<ele>25.107</ele>
				<time>2015-07-03T23:30:25Z</time>
				<extensions>
				</extensions>
			</trkpt>
			<trkpt lat="-27.823506" lon="153.182473">
				<ele>25.669</ele>
				<time>2015-07-03T23:30:26Z</time>
				<extensions>
				</extensions>
			</trkpt>
			<trkpt lat="-27.823709" lon="153.182441">
				<ele>25.454</ele>
				<time>2015-07-03T23:30:27Z</time>
				<extensions>
				</extensions>
			</trkpt>
			<trkpt lat="-27.823903" lon="153.182417">
				<ele>26.488</ele>
				<time>2015-07-03T23:30:28Z</time>
				<extensions>
				</extensions>
			</trkpt>
			<trkpt lat="-27.824104" lon="153.182390">
				<ele>26.813</ele>
				<time>2015-07-03T23:30:29Z</time>
				<extensions>
				</extensions>
			</trkpt>
			<trkpt lat="-27.824301" lon="153.182344">
				<ele>25.437</ele>
				<time>2015-07-03T23:30:30Z</time>
				<extensions>
				</extensions>
			</trkpt>
			<trkpt lat="-27.824489" lon="153.182289">
				<ele>23.507</ele>
				<time>2015-07-03T23:30:31Z</time>
				<extensions>
				</extensions>
			</trkpt>
			<trkpt lat="-27.824667" lon="153.182223">
				<ele>24.450</ele>
				<time>2015-07-03T23:30:32Z</time>
				<extensions>
				</extensions>
			</trkpt>
			<trkpt lat="-27.824848" lon="153.182135">
				<ele>23.901</ele>
				<time>2015-07-03T23:30:33Z</time>
				<extensions>
				</extensions>
			</trkpt>
			<trkpt lat="-27.825021" lon="153.182036">
				<ele>23.234</ele>
				<time>2015-07-03T23:30:34Z</time>
				<extensions>
				</extensions>
			</trkpt>
			<trkpt lat="-27.825180" lon="153.181929">
				<ele>23.184</ele>
				<time>2015-07-03T23:30:35Z</time>
				<extensions>
				</extensions>
			</trkpt>
			<trkpt lat="-27.825347" lon="153.181793">
				<ele>23.744</ele>
				<time>2015-07-03T23:30:36Z</time>
				<extensions>
				</extensions>
			</trkpt>
			<trkpt lat="-27.825509" lon="153.181636">
				<ele>25.184</ele>
				<time>2015-07-03T23:30:37Z</time>
				<extensions>
				</extensions>
			</trkpt>
			<trkpt lat="-27.825680" lon="153.181459">
				<ele>24.941</ele>
				<time>2015-07-03T23:30:38Z</time>
				<extensions>
				</extensions>
			</trkpt>
			<trkpt lat="-27.825829" lon="153.181288">
				<ele>25.020</ele>
				<time>2015-07-03T23:30:39Z</time>
				<extensions>
				</extensions>
			</trkpt>
			<trkpt lat="-27.825992" lon="153.181116">
				<ele>25.763</ele>
				<time>2015-07-03T23:30:40Z</time>
				<extensions>
				</extensions>
			</trkpt>
			<trkpt lat="-27.826126" lon="153.180959">
				<ele>24.973</ele>
				<time>2015-07-03T23:30:41Z</time>
				<extensions>
				</extensions>
			</trkpt>
			<trkpt lat="-27.826275" lon="153.180801">
				<ele>26.180</ele>
				<time>2015-07-03T23:30:42Z</time>
				<extensions>
				</extensions>
			</trkpt>
			<trkpt lat="-27.826439" lon="153.180652">
				<ele>26.511</ele>
				<time>2015-07-03T23:30:43Z</time>
				<extensions>
				</extensions>
			</trkpt>
			<trkpt lat="-27.826598" lon="153.180515">
				<ele>27.285</ele>
				<time>2015-07-03T23:30:44Z</time>
				<extensions>
				</extensions>
			</trkpt>
			<trkpt lat="-27.826765" lon="153.180388">
				<ele>28.778</ele>
				<time>2015-07-03T23:30:45Z</time>
				<extensions>
				</extensions>
			</trkpt>
			<trkpt lat="-27.826949" lon="153.180280">
				<ele>29.932</ele>
				<time>2015-07-03T23:30:46Z</time>
				<extensions>
				</extensions>
			</trkpt>
			<trkpt lat="-27.827146" lon="153.180187">
				<ele>31.968</ele>
				<time>2015-07-03T23:30:47Z</time>
				<extensions>
				</extensions>
			</trkpt>
			<trkpt lat="-27.827338" lon="153.180095">
				<ele>31.154</ele>
				<time>2015-07-03T23:30:48Z</time>
				<extensions>
				</extensions>
			</trkpt>
			<trkpt lat="-27.827526" lon="153.180016">
				<ele>31.887</ele>
				<time>2015-07-03T23:30:49Z</time>
				<extensions>
				</extensions>
			</trkpt>
			<trkpt lat="-27.827717" lon="153.179946">
				<ele>32.876</ele>
				<time>2015-07-03T23:30:50Z</time>
				<extensions>
				</extensions>
			</trkpt>
			<trkpt lat="-27.827906" lon="153.179894">
				<ele>32.586</ele>
				<time>2015-07-03T23:30:51Z</time>
				<extensions>
				</extensions>
			</trkpt>
			<trkpt lat="-27.828095" lon="153.179855">
				<ele>33.789</ele>
				<time>2015-07-03T23:30:52Z</time>
				<extensions>
				</extensions>
			</trkpt>
			<trkpt lat="-27.828292" lon="153.179830">
				<ele>35.383</ele>
				<time>2015-07-03T23:30:53Z</time>
				<extensions>
				</extensions>
			</trkpt>
			<trkpt lat="-27.828479" lon="153.179824">
				<ele>35.383</ele>
				<time>2015-07-03T23:30:54Z</time>
				<extensions>
				</extensions>
			</trkpt>
			<trkpt lat="-27.828669" lon="153.179823">
				<ele>37.811</ele>
				<time>2015-07-03T23:30:55Z</time>
				<extensions>
				</extensions>
			</trkpt>
			<trkpt lat="-27.828874" lon="153.179838">
				<ele>39.623</ele>
				<time>2015-07-03T23:30:56Z</time>
				<extensions>
				</extensions>
			</trkpt>
			<trkpt lat="-27.829074" lon="153.179871">
				<ele>41.542</ele>
				<time>2015-07-03T23:30:57Z</time>
				<extensions>
				</extensions>
			</trkpt>
			<trkpt lat="-27.829273" lon="153.179910">
				<ele>42.290</ele>
				<time>2015-07-03T23:30:58Z</time>
				<extensions>
				</extensions>
			</trkpt>
			<trkpt lat="-27.829473" lon="153.179945">
				<ele>42.446</ele>
				<time>2015-07-03T23:30:59Z</time>
				<extensions>
				</extensions>
			</trkpt>
			<trkpt lat="-27.829670" lon="153.179989">
				<ele>45.805</ele>
				<time>2015-07-03T23:31:00Z</time>
				<extensions>
				</extensions>
			</trkpt>
			<trkpt lat="-27.829872" lon="153.180030">
				<ele>46.738</ele>
				<time>2015-07-03T23:31:01Z</time>
				<extensions>
				</extensions>
			</trkpt>
			<trkpt lat="-27.830067" lon="153.180051">
				<ele>48.075</ele>
				<time>2015-07-03T23:31:02Z</time>
				<extensions>
				</extensions>
			</trkpt>
			<trkpt lat="-27.830263" lon="153.180070">
				<ele>50.804</ele>
				<time>2015-07-03T23:31:03Z</time>
				<extensions>
				</extensions>
			</trkpt>
			<trkpt lat="-27.830474" lon="153.180097">
				<ele>51.296</ele>
				<time>2015-07-03T23:31:04Z</time>
				<extensions>
				</extensions>
			</trkpt>
			<trkpt lat="-27.830681" lon="153.180112">
				<ele>53.527</ele>
				<time>2015-07-03T23:31:05Z</time>
				<extensions>
				</extensions>
			</trkpt>
			<trkpt lat="-27.830876" lon="153.180129">
				<ele>55.127</ele>
				<time>2015-07-03T23:31:06Z</time>
				<extensions>
				</extensions>
			</trkpt>
			<trkpt lat="-27.831084" lon="153.180134">
				<ele>54.947</ele>
				<time>2015-07-03T23:31:07Z</time>
				<extensions>
				</extensions>
			</trkpt>
			<trkpt lat="-27.831291" lon="153.180133">
				<ele>57.467</ele>
				<time>2015-07-03T23:31:08Z</time>
				<extensions>
				</extensions>
			</trkpt>
			<trkpt lat="-27.831494" lon="153.180113">
				<ele>59.112</ele>
				<time>2015-07-03T23:31:09Z</time>
				<extensions>
				</extensions>
			</trkpt>
			<trkpt lat="-27.831697" lon="153.180094">
				<ele>60.627</ele>
				<time>2015-07-03T23:31:10Z</time>
				<extensions>
				</extensions>
			</trkpt>
			<trkpt lat="-27.831895" lon="153.180058">
				<ele>61.342</ele>
				<time>2015-07-03T23:31:11Z</time>
				<extensions>
				</extensions>
			</trkpt>
			<trkpt lat="-27.832096" lon="153.180028">
				<ele>60.889</ele>
				<time>2015-07-03T23:31:12Z</time>
				<extensions>
				</extensions>
			</trkpt>
			<trkpt lat="-27.832300" lon="153.179984">
				<ele>60.809</ele>
				<time>2015-07-03T23:31:13Z</time>
				<extensions>
				</extensions>
			</trkpt>
			<trkpt lat="-27.832517" lon="153.179946">
				<ele>61.269</ele>
				<time>2015-07-03T23:31:14Z</time>
				<extensions>
				</extensions>
			</trkpt>
			<trkpt lat="-27.832719" lon="153.179894">
				<ele>61.155</ele>
				<time>2015-07-03T23:31:15Z</time>
				<extensions>
				</extensions>
			</trkpt>
			<trkpt lat="-27.832913" lon="153.179846">
				<ele>59.846</ele>
				<time>2015-07-03T23:31:16Z</time>
				<extensions>
				</extensions>
			</trkpt>
			<trkpt lat="-27.833114" lon="153.179791">
				<ele>58.756</ele>
				<time>2015-07-03T23:31:17Z</time>
				<extensions>
				</extensions>
			</trkpt>
			<trkpt lat="-27.833309" lon="153.179738">
				<ele>58.654</ele>
				<time>2015-07-03T23:31:18Z</time>
				<extensions>
				</extensions>
			</trkpt>
			<trkpt lat="-27.833507" lon="153.179682">
				<ele>57.051</ele>
				<time>2015-07-03T23:31:19Z</time>
				<extensions>
				</extensions>
			</trkpt>
			<trkpt lat="-27.833700" lon="153.179618">
				<ele>54.950</ele>
				<time>2015-07-03T23:31:20Z</time>
				<extensions>
				</extensions>
			</trkpt>
			<trkpt lat="-27.833884" lon="153.179560">
				<ele>54.358</ele>
				<time>2015-07-03T23:31:21Z</time>
				<extensions>
				</extensions>
			</trkpt>
			<trkpt lat="-27.834080" lon="153.179509">
				<ele>53.043</ele>
				<time>2015-07-03T23:31:22Z</time>
				<extensions>
				</extensions>
			</trkpt>
			<trkpt lat="-27.834279" lon="153.179447">
				<ele>52.088</ele>
				<time>2015-07-03T23:31:23Z</time>
				<extensions>
				</extensions>
			</trkpt>
			<trkpt lat="-27.834477" lon="153.179382">
				<ele>49.249</ele>
				<time>2015-07-03T23:31:24Z</time>
				<extensions>
				</extensions>
			</trkpt>
			<trkpt lat="-27.834667" lon="153.179328">
				<ele>47.416</ele>
				<time>2015-07-03T23:31:25Z</time>
				<extensions>
				</extensions>
			</trkpt>
			<trkpt lat="-27.834859" lon="153.179270">
				<ele>45.401</ele>
				<time>2015-07-03T23:31:26Z</time>
				<extensions>
				</extensions>
			</trkpt>
			<trkpt lat="-27.835056" lon="153.179220">
				<ele>43.583</ele>
				<time>2015-07-03T23:31:27Z</time>
				<extensions>
				</extensions>
			</trkpt>
			<trkpt lat="-27.835246" lon="153.179167">
				<ele>41.854</ele>
				<time>2015-07-03T23:31:28Z</time>
				<extensions>
				</extensions>
			</trkpt>
			<trkpt lat="-27.835436" lon="153.179111">
				<ele>40.776</ele>
				<time>2015-07-03T23:31:29Z</time>
				<extensions>
				</extensions>
			</trkpt>
			<trkpt lat="-27.835619" lon="153.179061">
				<ele>39.415</ele>
				<time>2015-07-03T23:31:30Z</time>
				<extensions>
				</extensions>
			</trkpt>
			<trkpt lat="-27.835804" lon="153.179032">
				<ele>37.654</ele>
				<time>2015-07-03T23:31:31Z</time>
				<extensions>
				</extensions>
			</trkpt>
			<trkpt lat="-27.835985" lon="153.179010">
				<ele>36.404</ele>
				<time>2015-07-03T23:31:32Z</time>
				<extensions>
				</extensions>
			</trkpt>
			<trkpt lat="-27.836353" lon="153.179009">
				<ele>36.393</ele>
				<time>2015-07-03T23:31:34Z</time>
				<extensions>
				</extensions>
			</trkpt>
			<trkpt lat="-27.836533" lon="153.179031">
				<ele>35.885</ele>
				<time>2015-07-03T23:31:35Z</time>
				<extensions>
				</extensions>
			</trkpt>
			<trkpt lat="-27.836717" lon="153.179069">
				<ele>36.324</ele>
				<time>2015-07-03T23:31:36Z</time>
				<extensions>
				</extensions>
			</trkpt>
			<trkpt lat="-27.836909" lon="153.179119">
				<ele>35.822</ele>
				<time>2015-07-03T23:31:37Z</time>
				<extensions>
				</extensions>
			</trkpt>
			<trkpt lat="-27.837097" lon="153.179191">
				<ele>36.377</ele>
				<time>2015-07-03T23:31:38Z</time>
				<extensions>
				</extensions>
			</trkpt>
			<trkpt lat="-27.837293" lon="153.179269">
				<ele>35.385</ele>
				<time>2015-07-03T23:31:39Z</time>
				<extensions>
				</extensions>
			</trkpt>
			<trkpt lat="-27.837482" lon="153.179338">
				<ele>33.898</ele>
				<time>2015-07-03T23:31:40Z</time>
				<extensions>
				</extensions>
			</trkpt>
			<trkpt lat="-27.837675" lon="153.179403">
				<ele>31.531</ele>
				<time>2015-07-03T23:31:41Z</time>
				<extensions>
				</extensions>
			</trkpt>
			<trkpt lat="-27.837867" lon="153.179461">
				<ele>30.408</ele>
				<time>2015-07-03T23:31:42Z</time>
				<extensions>
				</extensions>
			</trkpt>
			<trkpt lat="-27.838073" lon="153.179501">
				<ele>29.985</ele>
				<time>2015-07-03T23:31:43Z</time>
				<extensions>
				</extensions>
			</trkpt>
			<trkpt lat="-27.838275" lon="153.179534">
				<ele>30.585</ele>
				<time>2015-07-03T23:31:44Z</time>
				<extensions>
				</extensions>
			</trkpt>
			<trkpt lat="-27.838482" lon="153.179547">
				<ele>30.518</ele>
				<time>2015-07-03T23:31:45Z</time>
				<extensions>
				</extensions>
			</trkpt>
			<trkpt lat="-27.838677" lon="153.179542">
				<ele>30.679</ele>
				<time>2015-07-03T23:31:46Z</time>
				<extensions>
				</extensions>
			</trkpt>
			<trkpt lat="-27.838871" lon="153.179531">
				<ele>30.218</ele>
				<time>2015-07-03T23:31:47Z</time>
				<extensions>
				</extensions>
			</trkpt>
			<trkpt lat="-27.839066" lon="153.179489">
				<ele>29.541</ele>
				<time>2015-07-03T23:31:48Z</time>
				<extensions>
				</extensions>
			</trkpt>
			<trkpt lat="-27.839257" lon="153.179434">
				<ele>29.924</ele>
				<time>2015-07-03T23:31:49Z</time>
				<extensions>
				</extensions>
			</trkpt>
			<trkpt lat="-27.839455" lon="153.179369">
				<ele>30.358</ele>
				<time>2015-07-03T23:31:50Z</time>
				<extensions>
				</extensions>
			</trkpt>
			<trkpt lat="-27.839657" lon="153.179293">
				<ele>30.077</ele>
				<time>2015-07-03T23:31:51Z</time>
				<extensions>
				</extensions>
			</trkpt>
			<trkpt lat="-27.839857" lon="153.179225">
				<ele>29.678</ele>
				<time>2015-07-03T23:31:52Z</time>
				<extensions>
				</extensions>
			</trkpt>
			<trkpt lat="-27.840062" lon="153.179165">
				<ele>28.253</ele>
				<time>2015-07-03T23:31:53Z</time>
				<extensions>
				</extensions>
			</trkpt>
			<trkpt lat="-27.840261" lon="153.179102">
				<ele>27.134</ele>
				<time>2015-07-03T23:31:54Z</time>
				<extensions>
				</extensions>
			</trkpt>
			<trkpt lat="-27.840461" lon="153.179037">
				<ele>27.342</ele>
				<time>2015-07-03T23:31:55Z</time>
				<extensions>
				</extensions>
			</trkpt>
			<trkpt lat="-27.840669" lon="153.178972">
				<ele>27.420</ele>
				<time>2015-07-03T23:31:56Z</time>
				<extensions>
				</extensions>
			</trkpt>
			<trkpt lat="-27.840867" lon="153.178910">
				<ele>26.772</ele>
				<time>2015-07-03T23:31:57Z</time>
				<extensions>
				</extensions>
			</trkpt>
			<trkpt lat="-27.841054" lon="153.178842">
				<ele>25.808</ele>
				<time>2015-07-03T23:31:58Z</time>
				<extensions>
				</extensions>
			</trkpt>
			<trkpt lat="-27.841254" lon="153.178781">
				<ele>25.221</ele>
				<time>2015-07-03T23:31:59Z</time>
				<extensions>
				</extensions>
			</trkpt>
			<trkpt lat="-27.841451" lon="153.178719">
				<ele>25.219</ele>
				<time>2015-07-03T23:32:00Z</time>
				<extensions>
				</extensions>
			</trkpt>
			<trkpt lat="-27.841639" lon="153.178659">
				<ele>25.631</ele>
				<time>2015-07-03T23:32:01Z</time>
				<extensions>
				</extensions>
			</trkpt>
			<trkpt lat="-27.841838" lon="153.178594">
				<ele>26.026</ele>
				<time>2015-07-03T23:32:02Z</time>
				<extensions>
				</extensions>
			</trkpt>
			<trkpt lat="-27.842035" lon="153.178525">
				<ele>26.077</ele>
				<time>2015-07-03T23:32:03Z</time>
				<extensions>
				</extensions>
			</trkpt>
			<trkpt lat="-27.842223" lon="153.178460">
				<ele>25.306</ele>
				<time>2015-07-03T23:32:04Z</time>
				<extensions>
				</extensions>
			</trkpt>
			<trkpt lat="-27.842415" lon="153.178393">
				<ele>25.017</ele>
				<time>2015-07-03T23:32:05Z</time>
				<extensions>
				</extensions>
			</trkpt>
			<trkpt lat="-27.842600" lon="153.178311">
				<ele>24.928</ele>
				<time>2015-07-03T23:32:06Z</time>
				<extensions>
				</extensions>
			</trkpt>
			<trkpt lat="-27.842778" lon="153.178219">
				<ele>25.686</ele>
				<time>2015-07-03T23:32:07Z</time>
				<extensions>
				</extensions>
			</trkpt>
			<trkpt lat="-27.842938" lon="153.178113">
				<ele>25.051</ele>
				<time>2015-07-03T23:32:08Z</time>
				<extensions>
				</extensions>
			</trkpt>
			<trkpt lat="-27.843106" lon="153.177986">
				<ele>24.921</ele>
				<time>2015-07-03T23:32:09Z</time>
				<extensions>
				</extensions>
			</trkpt>
			<trkpt lat="-27.843266" lon="153.177847">
				<ele>26.313</ele>
				<time>2015-07-03T23:32:10Z</time>
				<extensions>
				</extensions>
			</trkpt>
			<trkpt lat="-27.843418" lon="153.177685">
				<ele>26.313</ele>
				<time>2015-07-03T23:32:11Z</time>
				<extensions>
				</extensions>
			</trkpt>
			<trkpt lat="-27.843557" lon="153.177513">
				<ele>28.271</ele>
				<time>2015-07-03T23:32:12Z</time>
				<extensions>
				</extensions>
			</trkpt>
			<trkpt lat="-27.843684" lon="153.177324">
				<ele>28.271</ele>
				<time>2015-07-03T23:32:13Z</time>
				<extensions>
				</extensions>
			</trkpt>
			<trkpt lat="-27.843812" lon="153.177130">
				<ele>29.241</ele>
				<time>2015-07-03T23:32:14Z</time>
				<extensions>
				</extensions>
			</trkpt>
			<trkpt lat="-27.843937" lon="153.176930">
				<ele>31.553</ele>
				<time>2015-07-03T23:32:15Z</time>
				<extensions>
				</extensions>
			</trkpt>
			<trkpt lat="-27.844066" lon="153.176736">
				<ele>31.933</ele>
				<time>2015-07-03T23:32:16Z</time>
				<extensions>
				</extensions>
			</trkpt>
			<trkpt lat="-27.844193" lon="153.176555">
				<ele>32.369</ele>
				<time>2015-07-03T23:32:17Z</time>
				<extensions>
				</extensions>
			</trkpt>
			<trkpt lat="-27.844335" lon="153.176377">
				<ele>33.649</ele>
				<time>2015-07-03T23:32:18Z</time>
				<extensions>
				</extensions>
			</trkpt>
			<trkpt lat="-27.844466" lon="153.176229">
				<ele>33.303</ele>
				<time>2015-07-03T23:32:19Z</time>
				<extensions>
				</extensions>
			</trkpt>
			<trkpt lat="-27.844610" lon="153.176083">
				<ele>33.867</ele>
				<time>2015-07-03T23:32:20Z</time>
				<extensions>
				</extensions>
			</trkpt>
			<trkpt lat="-27.844767" lon="153.175940">
				<ele>34.534</ele>
				<time>2015-07-03T23:32:21Z</time>
				<extensions>
				</extensions>
			</trkpt>
			<trkpt lat="-27.844910" lon="153.175806">
				<ele>36.341</ele>
				<time>2015-07-03T23:32:22Z</time>
				<extensions>
				</extensions>
			</trkpt>
			<trkpt lat="-27.845230" lon="153.175569">
				<ele>35.299</ele>
				<time>2015-07-03T23:32:24Z</time>
				<extensions>
				</extensions>
			</trkpt>
			<trkpt lat="-27.845555" lon="153.175369">
				<ele>37.510</ele>
				<time>2015-07-03T23:32:26Z</time>
				<extensions>
				</extensions>
			</trkpt>
			<trkpt lat="-27.845738" lon="153.175273">
				<ele>37.744</ele>
				<time>2015-07-03T23:32:27Z</time>
				<extensions>
				</extensions>
			</trkpt>
			<trkpt lat="-27.845921" lon="153.175182">
				<ele>40.419</ele>
				<time>2015-07-03T23:32:28Z</time>
				<extensions>
				</extensions>
			</trkpt>
			<trkpt lat="-27.846112" lon="153.175102">
				<ele>42.276</ele>
				<time>2015-07-03T23:32:29Z</time>
				<extensions>
				</extensions>
			</trkpt>
			<trkpt lat="-27.846313" lon="153.175024">
				<ele>44.536</ele>
				<time>2015-07-03T23:32:30Z</time>
				<extensions>
				</extensions>
			</trkpt>
			<trkpt lat="-27.846529" lon="153.174950">
				<ele>45.368</ele>
				<time>2015-07-03T23:32:31Z</time>
				<extensions>
				</extensions>
			</trkpt>
			<trkpt lat="-27.846746" lon="153.174890">
				<ele>48.082</ele>
				<time>2015-07-03T23:32:32Z</time>
				<extensions>
				</extensions>
			</trkpt>
			<trkpt lat="-27.846965" lon="153.174826">
				<ele>49.251</ele>
				<time>2015-07-03T23:32:33Z</time>
				<extensions>
				</extensions>
			</trkpt>
			<trkpt lat="-27.847190" lon="153.174767">
				<ele>49.566</ele>
				<time>2015-07-03T23:32:34Z</time>
				<extensions>
				</extensions>
			</trkpt>
			<trkpt lat="-27.847399" lon="153.174703">
				<ele>50.943</ele>
				<time>2015-07-03T23:32:35Z</time>
				<extensions>
				</extensions>
			</trkpt>
			<trkpt lat="-27.847613" lon="153.174635">
				<ele>51.633</ele>
				<time>2015-07-03T23:32:36Z</time>
				<extensions>
				</extensions>
			</trkpt>
			<trkpt lat="-27.847817" lon="153.174569">
				<ele>51.792</ele>
				<time>2015-07-03T23:32:37Z</time>
				<extensions>
				</extensions>
			</trkpt>
			<trkpt lat="-27.848017" lon="153.174508">
				<ele>50.316</ele>
				<time>2015-07-03T23:32:38Z</time>
				<extensions>
				</extensions>
			</trkpt>
			<trkpt lat="-27.848221" lon="153.174443">
				<ele>50.390</ele>
				<time>2015-07-03T23:32:39Z</time>
				<extensions>
				</extensions>
			</trkpt>
			<trkpt lat="-27.848420" lon="153.174374">
				<ele>50.504</ele>
				<time>2015-07-03T23:32:40Z</time>
				<extensions>
				</extensions>
			</trkpt>
			<trkpt lat="-27.848607" lon="153.174311">
				<ele>50.081</ele>
				<time>2015-07-03T23:32:41Z</time>
				<extensions>
				</extensions>
			</trkpt>
			<trkpt lat="-27.848802" lon="153.174244">
				<ele>49.635</ele>
				<time>2015-07-03T23:32:42Z</time>
				<extensions>
				</extensions>
			</trkpt>
			<trkpt lat="-27.849004" lon="153.174180">
				<ele>49.370</ele>
				<time>2015-07-03T23:32:43Z</time>
				<extensions>
				</extensions>
			</trkpt>
			<trkpt lat="-27.849195" lon="153.174119">
				<ele>49.963</ele>
				<time>2015-07-03T23:32:44Z</time>
				<extensions>
				</extensions>
			</trkpt>
			<trkpt lat="-27.849386" lon="153.174054">
				<ele>50.130</ele>
				<time>2015-07-03T23:32:45Z</time>
				<extensions>
				</extensions>
			</trkpt>
			<trkpt lat="-27.849571" lon="153.173996">
				<ele>49.811</ele>
				<time>2015-07-03T23:32:46Z</time>
				<extensions>
				</extensions>
			</trkpt>
			<trkpt lat="-27.849765" lon="153.173941">
				<ele>48.501</ele>
				<time>2015-07-03T23:32:47Z</time>
				<extensions>
				</extensions>
			</trkpt>
			<trkpt lat="-27.849961" lon="153.173877">
				<ele>48.036</ele>
				<time>2015-07-03T23:32:48Z</time>
				<extensions>
				</extensions>
			</trkpt>
			<trkpt lat="-27.850172" lon="153.173808">
				<ele>46.462</ele>
				<time>2015-07-03T23:32:49Z</time>
				<extensions>
				</extensions>
			</trkpt>
			<trkpt lat="-27.850379" lon="153.173748">
				<ele>46.047</ele>
				<time>2015-07-03T23:32:50Z</time>
				<extensions>
				</extensions>
			</trkpt>
			<trkpt lat="-27.850580" lon="153.173681">
				<ele>43.857</ele>
				<time>2015-07-03T23:32:51Z</time>
				<extensions>
				</extensions>
			</trkpt>
			<trkpt lat="-27.850790" lon="153.173615">
				<ele>40.733</ele>
				<time>2015-07-03T23:32:52Z</time>
				<extensions>
				</extensions>
			</trkpt>
			<trkpt lat="-27.850997" lon="153.173545">
				<ele>39.202</ele>
				<time>2015-07-03T23:32:53Z</time>
				<extensions>
				</extensions>
			</trkpt>
			<trkpt lat="-27.851203" lon="153.173456">
				<ele>37.952</ele>
				<time>2015-07-03T23:32:54Z</time>
				<extensions>
				</extensions>
			</trkpt>
			<trkpt lat="-27.851408" lon="153.173354">
				<ele>35.622</ele>
				<time>2015-07-03T23:32:55Z</time>
				<extensions>
				</extensions>
			</trkpt>
			<trkpt lat="-27.851594" lon="153.173240">
				<ele>35.302</ele>
				<time>2015-07-03T23:32:56Z</time>
				<extensions>
				</extensions>
			</trkpt>
			<trkpt lat="-27.851773" lon="153.173118">
				<ele>36.641</ele>
				<time>2015-07-03T23:32:57Z</time>
				<extensions>
				</extensions>
			</trkpt>
			<trkpt lat="-27.851946" lon="153.172975">
				<ele>39.101</ele>
				<time>2015-07-03T23:32:58Z</time>
				<extensions>
				</extensions>
			</trkpt>
			<trkpt lat="-27.852119" lon="153.172818">
				<ele>41.943</ele>
				<time>2015-07-03T23:32:59Z</time>
				<extensions>
				</extensions>
			</trkpt>
			<trkpt lat="-27.852299" lon="153.172654">
				<ele>44.563</ele>
				<time>2015-07-03T23:33:00Z</time>
				<extensions>
				</extensions>
			</trkpt>
			<trkpt lat="-27.852485" lon="153.172487">
				<ele>46.878</ele>
				<time>2015-07-03T23:33:01Z</time>
				<extensions>
				</extensions>
			</trkpt>
			<trkpt lat="-27.852672" lon="153.172312">
				<ele>49.272</ele>
				<time>2015-07-03T23:33:02Z</time>
				<extensions>
				</extensions>
			</trkpt>
			<trkpt lat="-27.852854" lon="153.172143">
				<ele>50.271</ele>
				<time>2015-07-03T23:33:03Z</time>
				<extensions>
				</extensions>
			</trkpt>
			<trkpt lat="-27.853032" lon="153.171976">
				<ele>50.992</ele>
				<time>2015-07-03T23:33:04Z</time>
				<extensions>
				</extensions>
			</trkpt>
			<trkpt lat="-27.853213" lon="153.171803">
				<ele>51.390</ele>
				<time>2015-07-03T23:33:05Z</time>
				<extensions>
				</extensions>
			</trkpt>
			<trkpt lat="-27.853404" lon="153.171626">
				<ele>52.692</ele>
				<time>2015-07-03T23:33:06Z</time>
				<extensions>
				</extensions>
			</trkpt>
			<trkpt lat="-27.853599" lon="153.171452">
				<ele>52.860</ele>
				<time>2015-07-03T23:33:07Z</time>
				<extensions>
				</extensions>
			</trkpt>
			<trkpt lat="-27.853804" lon="153.171288">
				<ele>53.031</ele>
				<time>2015-07-03T23:33:08Z</time>
				<extensions>
				</extensions>
			</trkpt>
			<trkpt lat="-27.854001" lon="153.171113">
				<ele>52.471</ele>
				<time>2015-07-03T23:33:09Z</time>
				<extensions>
				</extensions>
			</trkpt>
			<trkpt lat="-27.854190" lon="153.170941">
				<ele>51.956</ele>
				<time>2015-07-03T23:33:10Z</time>
				<extensions>
				</extensions>
			</trkpt>
			<trkpt lat="-27.854379" lon="153.170779">
				<ele>51.835</ele>
				<time>2015-07-03T23:33:11Z</time>
				<extensions>
				</extensions>
			</trkpt>
			<trkpt lat="-27.854557" lon="153.170618">
				<ele>51.586</ele>
				<time>2015-07-03T23:33:12Z</time>
				<extensions>
				</extensions>
			</trkpt>
			<trkpt lat="-27.854749" lon="153.170452">
				<ele>53.144</ele>
				<time>2015-07-03T23:33:13Z</time>
				<extensions>
				</extensions>
			</trkpt>
			<trkpt lat="-27.854943" lon="153.170285">
				<ele>53.509</ele>
				<time>2015-07-03T23:33:14Z</time>
				<extensions>
				</extensions>
			</trkpt>
			<trkpt lat="-27.855126" lon="153.170124">
				<ele>51.192</ele>
				<time>2015-07-03T23:33:15Z</time>
				<extensions>
				</extensions>
			</trkpt>
			<trkpt lat="-27.855295" lon="153.169961">
				<ele>50.598</ele>
				<time>2015-07-03T23:33:16Z</time>
				<extensions>
				</extensions>
			</trkpt>
			<trkpt lat="-27.855469" lon="153.169783">
				<ele>49.534</ele>
				<time>2015-07-03T23:33:17Z</time>
				<extensions>
				</extensions>
			</trkpt>
			<trkpt lat="-27.855628" lon="153.169612">
				<ele>48.581</ele>
				<time>2015-07-03T23:33:18Z</time>
				<extensions>
				</extensions>
			</trkpt>
			<trkpt lat="-27.855768" lon="153.169439">
				<ele>47.497</ele>
				<time>2015-07-03T23:33:19Z</time>
				<extensions>
				</extensions>
			</trkpt>
			<trkpt lat="-27.855896" lon="153.169256">
				<ele>46.640</ele>
				<time>2015-07-03T23:33:20Z</time>
				<extensions>
				</extensions>
			</trkpt>
			<trkpt lat="-27.856017" lon="153.169058">
				<ele>46.504</ele>
				<time>2015-07-03T23:33:21Z</time>
				<extensions>
				</extensions>
			</trkpt>
			<trkpt lat="-27.856133" lon="153.168858">
				<ele>46.476</ele>
				<time>2015-07-03T23:33:22Z</time>
				<extensions>
				</extensions>
			</trkpt>
			<trkpt lat="-27.856233" lon="153.168654">
				<ele>45.925</ele>
				<time>2015-07-03T23:33:23Z</time>
				<extensions>
				</extensions>
			</trkpt>
			<trkpt lat="-27.856332" lon="153.168441">
				<ele>45.925</ele>
				<time>2015-07-03T23:33:24Z</time>
				<extensions>
				</extensions>
			</trkpt>
			<trkpt lat="-27.856423" lon="153.168218">
				<ele>46.394</ele>
				<time>2015-07-03T23:33:25Z</time>
				<extensions>
				</extensions>
			</trkpt>
			<trkpt lat="-27.856518" lon="153.167991">
				<ele>45.761</ele>
				<time>2015-07-03T23:33:26Z</time>
				<extensions>
				</extensions>
			</trkpt>
			<trkpt lat="-27.856609" lon="153.167769">
				<ele>44.610</ele>
				<time>2015-07-03T23:33:27Z</time>
				<extensions>
				</extensions>
			</trkpt>
			<trkpt lat="-27.856695" lon="153.167543">
				<ele>43.387</ele>
				<time>2015-07-03T23:33:28Z</time>
				<extensions>
				</extensions>
			</trkpt>
			<trkpt lat="-27.856775" lon="153.167321">
				<ele>40.985</ele>
				<time>2015-07-03T23:33:29Z</time>
				<extensions>
				</extensions>
			</trkpt>
			<trkpt lat="-27.856863" lon="153.167100">
				<ele>38.850</ele>
				<time>2015-07-03T23:33:30Z</time>
				<extensions>
				</extensions>
			</trkpt>
			<trkpt lat="-27.856950" lon="153.166881">
				<ele>36.798</ele>
				<time>2015-07-03T23:33:31Z</time>
				<extensions>
				</extensions>
			</trkpt>
			<trkpt lat="-27.857041" lon="153.166659">
				<ele>34.786</ele>
				<time>2015-07-03T23:33:32Z</time>
				<extensions>
				</extensions>
			</trkpt>
			<trkpt lat="-27.857134" lon="153.166430">
				<ele>33.867</ele>
				<time>2015-07-03T23:33:33Z</time>
				<extensions>
				</extensions>
			</trkpt>
			<trkpt lat="-27.857218" lon="153.166205">
				<ele>31.834</ele>
				<time>2015-07-03T23:33:34Z</time>
				<extensions>
				</extensions>
			</trkpt>
			<trkpt lat="-27.857294" lon="153.165976">
				<ele>31.253</ele>
				<time>2015-07-03T23:33:35Z</time>
				<extensions>
				</extensions>
			</trkpt>
			<trkpt lat="-27.857386" lon="153.165752">
				<ele>30.610</ele>
				<time>2015-07-03T23:33:36Z</time>
				<extensions>
				</extensions>
			</trkpt>
			<trkpt lat="-27.857482" lon="153.165537">
				<ele>29.708</ele>
				<time>2015-07-03T23:33:37Z</time>
				<extensions>
				</extensions>
			</trkpt>
			<trkpt lat="-27.857579" lon="153.165325">
				<ele>30.457</ele>
				<time>2015-07-03T23:33:38Z</time>
				<extensions>
				</extensions>
			</trkpt>
			<trkpt lat="-27.857675" lon="153.165125">
				<ele>30.108</ele>
				<time>2015-07-03T23:33:39Z</time>
				<extensions>
				</extensions>
			</trkpt>
			<trkpt lat="-27.857778" lon="153.164937">
				<ele>31.216</ele>
				<time>2015-07-03T23:33:40Z</time>
				<extensions>
				</extensions>
			</trkpt>
			<trkpt lat="-27.857883" lon="153.164749">
				<ele>31.211</ele>
				<time>2015-07-03T23:33:41Z</time>
				<extensions>
				</extensions>
			</trkpt>
			<trkpt lat="-27.858001" lon="153.164576">
				<ele>32.566</ele>
				<time>2015-07-03T23:33:42Z</time>
				<extensions>
				</extensions>
			</trkpt>
			<trkpt lat="-27.858130" lon="153.164423">
				<ele>32.312</ele>
				<time>2015-07-03T23:33:43Z</time>
				<extensions>
				</extensions>
			</trkpt>
			<trkpt lat="-27.858258" lon="153.164264">
				<ele>32.677</ele>
				<time>2015-07-03T23:33:44Z</time>
				<extensions>
				</extensions>
			</trkpt>
			<trkpt lat="-27.858399" lon="153.164101">
				<ele>33.183</ele>
				<time>2015-07-03T23:33:45Z</time>
				<extensions>
				</extensions>
			</trkpt>
			<trkpt lat="-27.858534" lon="153.163942">
				<ele>34.608</ele>
				<time>2015-07-03T23:33:46Z</time>
				<extensions>
				</extensions>
			</trkpt>
			<trkpt lat="-27.858675" lon="153.163784">
				<ele>34.068</ele>
				<time>2015-07-03T23:33:47Z</time>
				<extensions>
				</extensions>
			</trkpt>
			<trkpt lat="-27.858806" lon="153.163620">
				<ele>33.490</ele>
				<time>2015-07-03T23:33:48Z</time>
				<extensions>
				</extensions>
			</trkpt>
			<trkpt lat="-27.858940" lon="153.163461">
				<ele>33.644</ele>
				<time>2015-07-03T23:33:49Z</time>
				<extensions>
				</extensions>
			</trkpt>
			<trkpt lat="-27.859073" lon="153.163306">
				<ele>33.102</ele>
				<time>2015-07-03T23:33:50Z</time>
				<extensions>
				</extensions>
			</trkpt>
			<trkpt lat="-27.859308" lon="153.163035">
				<ele>33.659</ele>
				<time>2015-07-03T23:33:52Z</time>
				<extensions>
				</extensions>
			</trkpt>
			<trkpt lat="-27.859545" lon="153.162785">
				<ele>34.920</ele>
				<time>2015-07-03T23:33:54Z</time>
				<extensions>
				</extensions>
			</trkpt>
			<trkpt lat="-27.859772" lon="153.162516">
				<ele>37.135</ele>
				<time>2015-07-03T23:33:56Z</time>
				<extensions>
				</extensions>
			</trkpt>
			<trkpt lat="-27.860000" lon="153.162244">
				<ele>39.561</ele>
				<time>2015-07-03T23:33:58Z</time>
				<extensions>
				</extensions>
			</trkpt>
			<trkpt lat="-27.860231" lon="153.161969">
				<ele>39.292</ele>
				<time>2015-07-03T23:34:00Z</time>
				<extensions>
				</extensions>
			</trkpt>
			<trkpt lat="-27.860465" lon="153.161737">
				<ele>38.021</ele>
				<time>2015-07-03T23:34:02Z</time>
				<extensions>
				</extensions>
			</trkpt>
			<trkpt lat="-27.860724" lon="153.161512">
				<ele>36.508</ele>
				<time>2015-07-03T23:34:04Z</time>
				<extensions>
				</extensions>
			</trkpt>
			<trkpt lat="-27.861028" lon="153.161307">
				<ele>36.582</ele>
				<time>2015-07-03T23:34:06Z</time>
				<extensions>
				</extensions>
			</trkpt>
			<trkpt lat="-27.861230" lon="153.161204">
				<ele>37.761</ele>
				<time>2015-07-03T23:34:07Z</time>
				<extensions>
				</extensions>
			</trkpt>
			<trkpt lat="-27.861440" lon="153.161101">
				<ele>38.163</ele>
				<time>2015-07-03T23:34:08Z</time>
				<extensions>
				</extensions>
			</trkpt>
			<trkpt lat="-27.861650" lon="153.160976">
				<ele>41.520</ele>
				<time>2015-07-03T23:34:09Z</time>
				<extensions>
				</extensions>
			</trkpt>
			<trkpt lat="-27.861873" lon="153.160859">
				<ele>41.452</ele>
				<time>2015-07-03T23:34:10Z</time>
				<extensions>
				</extensions>
			</trkpt>
			<trkpt lat="-27.862137" lon="153.160718">
				<ele>44.281</ele>
				<time>2015-07-03T23:34:11Z</time>
				<extensions>
				</extensions>
			</trkpt>
			<trkpt lat="-27.862378" lon="153.160579">
				<ele>43.730</ele>
				<time>2015-07-03T23:34:12Z</time>
				<extensions>
				</extensions>
			</trkpt>
			<trkpt lat="-27.862632" lon="153.160439">
				<ele>41.879</ele>
				<time>2015-07-03T23:34:13Z</time>
				<extensions>
				</extensions>
			</trkpt>
			<trkpt lat="-27.862877" lon="153.160308">
				<ele>39.893</ele>
				<time>2015-07-03T23:34:14Z</time>
				<extensions>
				</extensions>
			</trkpt>
			<trkpt lat="-27.863123" lon="153.160197">
				<ele>37.486</ele>
				<time>2015-07-03T23:34:15Z</time>
				<extensions>
				</extensions>
			</trkpt>
			<trkpt lat="-27.863369" lon="153.160073">
				<ele>34.437</ele>
				<time>2015-07-03T23:34:16Z</time>
				<extensions>
				</extensions>
			</trkpt>
			<trkpt lat="-27.863595" lon="153.159954">
				<ele>32.234</ele>
				<time>2015-07-03T23:34:17Z</time>
				<extensions>
				</extensions>
			</trkpt>
			<trkpt lat="-27.863833" lon="153.159827">
				<ele>33.193</ele>
				<time>2015-07-03T23:34:18Z</time>
				<extensions>
				</extensions>
			</trkpt>
			<trkpt lat="-27.864057" lon="153.159707">
				<ele>33.419</ele>
				<time>2015-07-03T23:34:19Z</time>
				<extensions>
				</extensions>
			</trkpt>
			<trkpt lat="-27.864272" lon="153.159599">
				<ele>31.001</ele>
				<time>2015-07-03T23:34:20Z</time>
				<extensions>
				</extensions>
			</trkpt>
			<trkpt lat="-27.864481" lon="153.159496">
				<ele>29.636</ele>
				<time>2015-07-03T23:34:21Z</time>
				<extensions>
				</extensions>
			</trkpt>
			<trkpt lat="-27.864681" lon="153.159384">
				<ele>28.558</ele>
				<time>2015-07-03T23:34:22Z</time>
				<extensions>
				</extensions>
			</trkpt>
			<trkpt lat="-27.864872" lon="153.159280">
				<ele>27.052</ele>
				<time>2015-07-03T23:34:23Z</time>
				<extensions>
				</extensions>
			</trkpt>
			<trkpt lat="-27.865068" lon="153.159179">
				<ele>25.516</ele>
				<time>2015-07-03T23:34:24Z</time>
				<extensions>
				</extensions>
			</trkpt>
			<trkpt lat="-27.865254" lon="153.159074">
				<ele>26.646</ele>
				<time>2015-07-03T23:34:25Z</time>
				<extensions>
				</extensions>
			</trkpt>
			<trkpt lat="-27.865455" lon="153.158967">
				<ele>27.818</ele>
				<time>2015-07-03T23:34:26Z</time>
				<extensions>
				</extensions>
			</trkpt>
			<trkpt lat="-27.865649" lon="153.158862">
				<ele>26.588</ele>
				<time>2015-07-03T23:34:27Z</time>
				<extensions>
				</extensions>
			</trkpt>
			<trkpt lat="-27.865842" lon="153.158751">
				<ele>28.122</ele>
				<time>2015-07-03T23:34:28Z</time>
				<extensions>
				</extensions>
			</trkpt>
			<trkpt lat="-27.866040" lon="153.158645">
				<ele>30.484</ele>
				<time>2015-07-03T23:34:29Z</time>
				<extensions>
				</extensions>
			</trkpt>
			<trkpt lat="-27.866244" lon="153.158541">
				<ele>30.339</ele>
				<time>2015-07-03T23:34:30Z</time>
				<extensions>
				</extensions>
			</trkpt>
			<trkpt lat="-27.866438" lon="153.158436">
				<ele>27.384</ele>
				<time>2015-07-03T23:34:31Z</time>
				<extensions>
				</extensions>
			</trkpt>
			<trkpt lat="-27.866631" lon="153.158336">
				<ele>26.710</ele>
				<time>2015-07-03T23:34:32Z</time>
				<extensions>
				</extensions>
			</trkpt>
			<trkpt lat="-27.866820" lon="153.158226">
				<ele>25.833</ele>
				<time>2015-07-03T23:34:33Z</time>
				<extensions>
				</extensions>
			</trkpt>
			<trkpt lat="-27.867005" lon="153.158122">
				<ele>26.411</ele>
				<time>2015-07-03T23:34:34Z</time>
				<extensions>
				</extensions>
			</trkpt>
			<trkpt lat="-27.867194" lon="153.158013">
				<ele>26.411</ele>
				<time>2015-07-03T23:34:35Z</time>
				<extensions>
				</extensions>
			</trkpt>
			<trkpt lat="-27.867380" lon="153.157902">
				<ele>27.233</ele>
				<time>2015-07-03T23:34:36Z</time>
				<extensions>
				</extensions>
			</trkpt>
			<trkpt lat="-27.867566" lon="153.157769">
				<ele>27.433</ele>
				<time>2015-07-03T23:34:37Z</time>
				<extensions>
				</extensions>
			</trkpt>
			<trkpt lat="-27.867746" lon="153.157645">
				<ele>27.700</ele>
				<time>2015-07-03T23:34:38Z</time>
				<extensions>
				</extensions>
			</trkpt>
			<trkpt lat="-27.867917" lon="153.157507">
				<ele>27.716</ele>
				<time>2015-07-03T23:34:39Z</time>
				<extensions>
				</extensions>
			</trkpt>
			<trkpt lat="-27.868076" lon="153.157363">
				<ele>26.460</ele>
				<time>2015-07-03T23:34:40Z</time>
				<extensions>
				</extensions>
			</trkpt>
			<trkpt lat="-27.868228" lon="153.157210">
				<ele>26.729</ele>
				<time>2015-07-03T23:34:41Z</time>
				<extensions>
				</extensions>
			</trkpt>
			<trkpt lat="-27.868366" lon="153.157055">
				<ele>26.451</ele>
				<time>2015-07-03T23:34:42Z</time>
				<extensions>
				</extensions>
			</trkpt>
			<trkpt lat="-27.868510" lon="153.156886">
				<ele>26.586</ele>
				<time>2015-07-03T23:34:43Z</time>
				<extensions>
				</extensions>
			</trkpt>
			<trkpt lat="-27.868656" lon="153.156712">
				<ele>26.619</ele>
				<time>2015-07-03T23:34:44Z</time>
				<extensions>
				</extensions>
			</trkpt>
			<trkpt lat="-27.868794" lon="153.156547">
				<ele>27.813</ele>
				<time>2015-07-03T23:34:45Z</time>
				<extensions>
				</extensions>
			</trkpt>
			<trkpt lat="-27.868906" lon="153.156366">
				<ele>27.359</ele>
				<time>2015-07-03T23:34:46Z</time>
				<extensions>
				</extensions>
			</trkpt>
			<trkpt lat="-27.869014" lon="153.156182">
				<ele>26.521</ele>
				<time>2015-07-03T23:34:47Z</time>
				<extensions>
				</extensions>
			</trkpt>
			<trkpt lat="-27.869121" lon="153.156001">
				<ele>26.567</ele>
				<time>2015-07-03T23:34:48Z</time>
				<extensions>
				</extensions>
			</trkpt>
			<trkpt lat="-27.869223" lon="153.155809">
				<ele>26.741</ele>
				<time>2015-07-03T23:34:49Z</time>
				<extensions>
				</extensions>
			</trkpt>
			<trkpt lat="-27.869320" lon="153.155618">
				<ele>26.487</ele>
				<time>2015-07-03T23:34:50Z</time>
				<extensions>
				</extensions>
			</trkpt>
			<trkpt lat="-27.869413" lon="153.155425">
				<ele>26.915</ele>
				<time>2015-07-03T23:34:51Z</time>
				<extensions>
				</extensions>
			</trkpt>
			<trkpt lat="-27.869489" lon="153.155232">
				<ele>27.094</ele>
				<time>2015-07-03T23:34:52Z</time>
				<extensions>
				</extensions>
			</trkpt>
			<trkpt lat="-27.869563" lon="153.155029">
				<ele>28.662</ele>
				<time>2015-07-03T23:34:53Z</time>
				<extensions>
				</extensions>
			</trkpt>
			<trkpt lat="-27.869632" lon="153.154829">
				<ele>31.343</ele>
				<time>2015-07-03T23:34:54Z</time>
				<extensions>
				</extensions>
			</trkpt>
			<trkpt lat="-27.869702" lon="153.154617">
				<ele>33.210</ele>
				<time>2015-07-03T23:34:55Z</time>
				<extensions>
				</extensions>
			</trkpt>
			<trkpt lat="-27.869767" lon="153.154395">
				<ele>36.250</ele>
				<time>2015-07-03T23:34:56Z</time>
				<extensions>
				</extensions>
			</trkpt>
			<trkpt lat="-27.869842" lon="153.154168">
				<ele>37.471</ele>
				<time>2015-07-03T23:34:57Z</time>
				<extensions>
				</extensions>
			</trkpt>
			<trkpt lat="-27.869909" lon="153.153941">
				<ele>37.437</ele>
				<time>2015-07-03T23:34:58Z</time>
				<extensions>
				</extensions>
			</trkpt>
			<trkpt lat="-27.869976" lon="153.153716">
				<ele>39.015</ele>
				<time>2015-07-03T23:34:59Z</time>
				<extensions>
				</extensions>
			</trkpt>
			<trkpt lat="-27.870038" lon="153.153495">
				<ele>40.894</ele>
				<time>2015-07-03T23:35:00Z</time>
				<extensions>
				</extensions>
			</trkpt>
			<trkpt lat="-27.870097" lon="153.153281">
				<ele>42.286</ele>
				<time>2015-07-03T23:35:01Z</time>
				<extensions>
				</extensions>
			</trkpt>
			<trkpt lat="-27.870167" lon="153.153069">
				<ele>43.259</ele>
				<time>2015-07-03T23:35:02Z</time>
				<extensions>
				</extensions>
			</trkpt>
			<trkpt lat="-27.870225" lon="153.152858">
				<ele>44.171</ele>
				<time>2015-07-03T23:35:03Z</time>
				<extensions>
				</extensions>
			</trkpt>
			<trkpt lat="-27.870287" lon="153.152650">
				<ele>46.321</ele>
				<time>2015-07-03T23:35:04Z</time>
				<extensions>
				</extensions>
			</trkpt>
			<trkpt lat="-27.870353" lon="153.152438">
				<ele>47.894</ele>
				<time>2015-07-03T23:35:05Z</time>
				<extensions>
				</extensions>
			</trkpt>
			<trkpt lat="-27.870420" lon="153.152218">
				<ele>49.387</ele>
				<time>2015-07-03T23:35:06Z</time>
				<extensions>
				</extensions>
			</trkpt>
			<trkpt lat="-27.870496" lon="153.151995">
				<ele>50.657</ele>
				<time>2015-07-03T23:35:07Z</time>
				<extensions>
				</extensions>
			</trkpt>
			<trkpt lat="-27.870571" lon="153.151776">
				<ele>52.334</ele>
				<time>2015-07-03T23:35:08Z</time>
				<extensions>
				</extensions>
			</trkpt>
			<trkpt lat="-27.870643" lon="153.151557">
				<ele>52.304</ele>
				<time>2015-07-03T23:35:09Z</time>
				<extensions>
				</extensions>
			</trkpt>
			<trkpt lat="-27.870717" lon="153.151338">
				<ele>51.365</ele>
				<time>2015-07-03T23:35:10Z</time>
				<extensions>
				</extensions>
			</trkpt>
			<trkpt lat="-27.870785" lon="153.151125">
				<ele>49.554</ele>
				<time>2015-07-03T23:35:11Z</time>
				<extensions>
				</extensions>
			</trkpt>
			<trkpt lat="-27.870862" lon="153.150906">
				<ele>49.012</ele>
				<time>2015-07-03T23:35:12Z</time>
				<extensions>
				</extensions>
			</trkpt>
			<trkpt lat="-27.870941" lon="153.150685">
				<ele>48.799</ele>
				<time>2015-07-03T23:35:13Z</time>
				<extensions>
				</extensions>
			</trkpt>
			<trkpt lat="-27.871023" lon="153.150464">
				<ele>48.730</ele>
				<time>2015-07-03T23:35:14Z</time>
				<extensions>
				</extensions>
			</trkpt>
			<trkpt lat="-27.871099" lon="153.150228">
				<ele>47.869</ele>
				<time>2015-07-03T23:35:15Z</time>
				<extensions>
				</extensions>
			</trkpt>
			<trkpt lat="-27.871181" lon="153.150000">
				<ele>47.187</ele>
				<time>2015-07-03T23:35:16Z</time>
				<extensions>
				</extensions>
			</trkpt>
			<trkpt lat="-27.871261" lon="153.149768">
				<ele>47.036</ele>
				<time>2015-07-03T23:35:17Z</time>
				<extensions>
				</extensions>
			</trkpt>
			<trkpt lat="-27.871341" lon="153.149540">
				<ele>45.524</ele>
				<time>2015-07-03T23:35:18Z</time>
				<extensions>
				</extensions>
			</trkpt>
			<trkpt lat="-27.871430" lon="153.149312">
				<ele>44.868</ele>
				<time>2015-07-03T23:35:19Z</time>
				<extensions>
				</extensions>
			</trkpt>
			<trkpt lat="-27.871511" lon="153.149076">
				<ele>44.490</ele>
				<time>2015-07-03T23:35:20Z</time>
				<extensions>
				</extensions>
			</trkpt>
			<trkpt lat="-27.871585" lon="153.148852">
				<ele>43.031</ele>
				<time>2015-07-03T23:35:21Z</time>
				<extensions>
				</extensions>
			</trkpt>
			<trkpt lat="-27.871668" lon="153.148626">
				<ele>41.845</ele>
				<time>2015-07-03T23:35:22Z</time>
				<extensions>
				</extensions>
			</trkpt>
			<trkpt lat="-27.871741" lon="153.148398">
				<ele>40.910</ele>
				<time>2015-07-03T23:35:23Z</time>
				<extensions>
				</extensions>
			</trkpt>
			<trkpt lat="-27.871814" lon="153.148169">
				<ele>40.087</ele>
				<time>2015-07-03T23:35:24Z</time>
				<extensions>
				</extensions>
			</trkpt>
			<trkpt lat="-27.871893" lon="153.147943">
				<ele>37.624</ele>
				<time>2015-07-03T23:35:25Z</time>
				<extensions>
				</extensions>
			</trkpt>
			<trkpt lat="-27.871967" lon="153.147732">
				<ele>36.048</ele>
				<time>2015-07-03T23:35:26Z</time>
				<extensions>
				</extensions>
			</trkpt>
			<trkpt lat="-27.872040" lon="153.147519">
				<ele>34.612</ele>
				<time>2015-07-03T23:35:27Z</time>
				<extensions>
				</extensions>
			</trkpt>
			<trkpt lat="-27.872113" lon="153.147311">
				<ele>33.353</ele>
				<time>2015-07-03T23:35:28Z</time>
				<extensions>
				</extensions>
			</trkpt>
			<trkpt lat="-27.872206" lon="153.147107">
				<ele>31.874</ele>
				<time>2015-07-03T23:35:29Z</time>
				<extensions>
				</extensions>
			</trkpt>
			<trkpt lat="-27.872271" lon="153.146903">
				<ele>30.532</ele>
				<time>2015-07-03T23:35:30Z</time>
				<extensions>
				</extensions>
			</trkpt>
			<trkpt lat="-27.872333" lon="153.146705">
				<ele>29.346</ele>
				<time>2015-07-03T23:35:31Z</time>
				<extensions>
				</extensions>
			</trkpt>
			<trkpt lat="-27.872398" lon="153.146511">
				<ele>28.565</ele>
				<time>2015-07-03T23:35:32Z</time>
				<extensions>
				</extensions>
			</trkpt>
			<trkpt lat="-27.872474" lon="153.146319">
				<ele>28.754</ele>
				<time>2015-07-03T23:35:33Z</time>
				<extensions>
				</extensions>
			</trkpt>
			<trkpt lat="-27.872548" lon="153.146120">
				<ele>28.243</ele>
				<time>2015-07-03T23:35:34Z</time>
				<extensions>
				</extensions>
			</trkpt>
			<trkpt lat="-27.872621" lon="153.145915">
				<ele>28.330</ele>
				<time>2015-07-03T23:35:35Z</time>
				<extensions>
				</extensions>
			</trkpt>
			<trkpt lat="-27.872683" lon="153.145718">
				<ele>28.233</ele>
				<time>2015-07-03T23:35:36Z</time>
				<extensions>
				</extensions>
			</trkpt>
			<trkpt lat="-27.872740" lon="153.145521">
				<ele>27.494</ele>
				<time>2015-07-03T23:35:37Z</time>
				<extensions>
				</extensions>
			</trkpt>
			<trkpt lat="-27.872792" lon="153.145321">
				<ele>26.973</ele>
				<time>2015-07-03T23:35:38Z</time>
				<extensions>
				</extensions>
			</trkpt>
			<trkpt lat="-27.872828" lon="153.145120">
				<ele>28.196</ele>
				<time>2015-07-03T23:35:39Z</time>
				<extensions>
				</extensions>
			</trkpt>
			<trkpt lat="-27.872857" lon="153.144909">
				<ele>28.397</ele>
				<time>2015-07-03T23:35:40Z</time>
				<extensions>
				</extensions>
			</trkpt>
			<trkpt lat="-27.872877" lon="153.144684">
				<ele>30.136</ele>
				<time>2015-07-03T23:35:41Z</time>
				<extensions>
				</extensions>
			</trkpt>
			<trkpt lat="-27.872894" lon="153.144466">
				<ele>31.129</ele>
				<time>2015-07-03T23:35:42Z</time>
				<extensions>
				</extensions>
			</trkpt>
			<trkpt lat="-27.872899" lon="153.144240">
				<ele>30.524</ele>
				<time>2015-07-03T23:35:43Z</time>
				<extensions>
				</extensions>
			</trkpt>
			<trkpt lat="-27.872894" lon="153.144028">
				<ele>29.619</ele>
				<time>2015-07-03T23:35:44Z</time>
				<extensions>
				</extensions>
			</trkpt>
			<trkpt lat="-27.872877" lon="153.143814">
				<ele>30.189</ele>
				<time>2015-07-03T23:35:45Z</time>
				<extensions>
				</extensions>
			</trkpt>
			<trkpt lat="-27.872863" lon="153.143594">
				<ele>30.120</ele>
				<time>2015-07-03T23:35:46Z</time>
				<extensions>
				</extensions>
			</trkpt>
			<trkpt lat="-27.872842" lon="153.143202">
				<ele>27.553</ele>
				<time>2015-07-03T23:35:48Z</time>
				<extensions>
				</extensions>
			</trkpt>
			<trkpt lat="-27.872807" lon="153.143000">
				<ele>28.290</ele>
				<time>2015-07-03T23:35:49Z</time>
				<extensions>
				</extensions>
			</trkpt>
			<trkpt lat="-27.872759" lon="153.142608">
				<ele>30.088</ele>
				<time>2015-07-03T23:35:51Z</time>
				<extensions>
				</extensions>
			</trkpt>
			<trkpt lat="-27.872702" lon="153.142211">
				<ele>31.404</ele>
				<time>2015-07-03T23:35:53Z</time>
				<extensions>
				</extensions>
			</trkpt>
			<trkpt lat="-27.872642" lon="153.141819">
				<ele>33.168</ele>
				<time>2015-07-03T23:35:55Z</time>
				<extensions>
				</extensions>
			</trkpt>
			<trkpt lat="-27.872615" lon="153.141611">
				<ele>34.755</ele>
				<time>2015-07-03T23:35:56Z</time>
				<extensions>
				</extensions>
			</trkpt>
			<trkpt lat="-27.872561" lon="153.141216">
				<ele>35.342</ele>
				<time>2015-07-03T23:35:58Z</time>
				<extensions>
				</extensions>
			</trkpt>
			<trkpt lat="-27.872509" lon="153.140840">
				<ele>35.477</ele>
				<time>2015-07-03T23:36:00Z</time>
				<extensions>
				</extensions>
			</trkpt>
			<trkpt lat="-27.872462" lon="153.140461">
				<ele>33.622</ele>
				<time>2015-07-03T23:36:02Z</time>
				<extensions>
				</extensions>
			</trkpt>
			<trkpt lat="-27.872408" lon="153.140068">
				<ele>32.935</ele>
				<time>2015-07-03T23:36:04Z</time>
				<extensions>
				</extensions>
			</trkpt>
			<trkpt lat="-27.872348" lon="153.139672">
				<ele>32.915</ele>
				<time>2015-07-03T23:36:06Z</time>
				<extensions>
				</extensions>
			</trkpt>
			<trkpt lat="-27.872280" lon="153.139285">
				<ele>31.076</ele>
				<time>2015-07-03T23:36:08Z</time>
				<extensions>
				</extensions>
			</trkpt>
			<trkpt lat="-27.872225" lon="153.138903">
				<ele>30.495</ele>
				<time>2015-07-03T23:36:10Z</time>
				<extensions>
				</extensions>
			</trkpt>
			<trkpt lat="-27.872189" lon="153.138520">
				<ele>30.130</ele>
				<time>2015-07-03T23:36:12Z</time>
				<extensions>
				</extensions>
			</trkpt>
			<trkpt lat="-27.872177" lon="153.138315">
				<ele>30.762</ele>
				<time>2015-07-03T23:36:13Z</time>
				<extensions>
				</extensions>
			</trkpt>
			<trkpt lat="-27.872201" lon="153.137917">
				<ele>31.361</ele>
				<time>2015-07-03T23:36:15Z</time>
				<extensions>
				</extensions>
			</trkpt>
			<trkpt lat="-27.872242" lon="153.137715">
				<ele>31.615</ele>
				<time>2015-07-03T23:36:16Z</time>
				<extensions>
				</extensions>
			</trkpt>
			<trkpt lat="-27.872292" lon="153.137519">
				<ele>32.669</ele>
				<time>2015-07-03T23:36:17Z</time>
				<extensions>
				</extensions>
			</trkpt>
			<trkpt lat="-27.872444" lon="153.137144">
				<ele>33.630</ele>
				<time>2015-07-03T23:36:19Z</time>
				<extensions>
				</extensions>
			</trkpt>
			<trkpt lat="-27.872646" lon="153.136800">
				<ele>34.596</ele>
				<time>2015-07-03T23:36:21Z</time>
				<extensions>
				</extensions>
			</trkpt>
			<trkpt lat="-27.872766" lon="153.136641">
				<ele>34.116</ele>
				<time>2015-07-03T23:36:22Z</time>
				<extensions>
				</extensions>
			</trkpt>
			<trkpt lat="-27.873029" lon="153.136378">
				<ele>34.592</ele>
				<time>2015-07-03T23:36:24Z</time>
				<extensions>
				</extensions>
			</trkpt>
			<trkpt lat="-27.873333" lon="153.136140">
				<ele>35.663</ele>
				<time>2015-07-03T23:36:26Z</time>
				<extensions>
				</extensions>
			</trkpt>
			<trkpt lat="-27.873502" lon="153.136019">
				<ele>36.113</ele>
				<time>2015-07-03T23:36:27Z</time>
				<extensions>
				</extensions>
			</trkpt>
			<trkpt lat="-27.873669" lon="153.135900">
				<ele>38.496</ele>
				<time>2015-07-03T23:36:28Z</time>
				<extensions>
				</extensions>
			</trkpt>
			<trkpt lat="-27.873840" lon="153.135787">
				<ele>38.381</ele>
				<time>2015-07-03T23:36:29Z</time>
				<extensions>
				</extensions>
			</trkpt>
			<trkpt lat="-27.873992" lon="153.135671">
				<ele>39.501</ele>
				<time>2015-07-03T23:36:30Z</time>
				<extensions>
				</extensions>
			</trkpt>
			<trkpt lat="-27.874147" lon="153.135560">
				<ele>38.425</ele>
				<time>2015-07-03T23:36:31Z</time>
				<extensions>
				</extensions>
			</trkpt>
			<trkpt lat="-27.874313" lon="153.135459">
				<ele>38.653</ele>
				<time>2015-07-03T23:36:32Z</time>
				<extensions>
				</extensions>
			</trkpt>
			<trkpt lat="-27.874603" lon="153.135237">
				<ele>39.153</ele>
				<time>2015-07-03T23:36:34Z</time>
				<extensions>
				</extensions>
			</trkpt>
			<trkpt lat="-27.874847" lon="153.134968">
				<ele>41.385</ele>
				<time>2015-07-03T23:36:36Z</time>
				<extensions>
				</extensions>
			</trkpt>
			<trkpt lat="-27.875077" lon="153.134635">
				<ele>45.453</ele>
				<time>2015-07-03T23:36:38Z</time>
				<extensions>
				</extensions>
			</trkpt>
			<trkpt lat="-27.875185" lon="153.134454">
				<ele>47.304</ele>
				<time>2015-07-03T23:36:39Z</time>
				<extensions>
				</extensions>
			</trkpt>
			<trkpt lat="-27.875272" lon="153.134264">
				<ele>47.676</ele>
				<time>2015-07-03T23:36:40Z</time>
				<extensions>
				</extensions>
			</trkpt>
			<trkpt lat="-27.875433" lon="153.133880">
				<ele>47.988</ele>
				<time>2015-07-03T23:36:42Z</time>
				<extensions>
				</extensions>
			</trkpt>
			<trkpt lat="-27.875507" lon="153.133681">
				<ele>47.975</ele>
				<time>2015-07-03T23:36:43Z</time>
				<extensions>
				</extensions>
			</trkpt>
			<trkpt lat="-27.875586" lon="153.133489">
				<ele>49.097</ele>
				<time>2015-07-03T23:36:44Z</time>
				<extensions>
				</extensions>
			</trkpt>
			<trkpt lat="-27.875662" lon="153.133299">
				<ele>49.952</ele>
				<time>2015-07-03T23:36:45Z</time>
				<extensions>
				</extensions>
			</trkpt>
			<trkpt lat="-27.875744" lon="153.133118">
				<ele>50.478</ele>
				<time>2015-07-03T23:36:46Z</time>
				<extensions>
				</extensions>
			</trkpt>
			<trkpt lat="-27.875928" lon="153.132765">
				<ele>52.035</ele>
				<time>2015-07-03T23:36:48Z</time>
				<extensions>
				</extensions>
			</trkpt>
			<trkpt lat="-27.876039" lon="153.132599">
				<ele>52.241</ele>
				<time>2015-07-03T23:36:49Z</time>
				<extensions>
				</extensions>
			</trkpt>
			<trkpt lat="-27.876271" lon="153.132288">
				<ele>52.693</ele>
				<time>2015-07-03T23:36:51Z</time>
				<extensions>
				</extensions>
			</trkpt>
			<trkpt lat="-27.876525" lon="153.132013">
				<ele>52.587</ele>
				<time>2015-07-03T23:36:53Z</time>
				<extensions>
				</extensions>
			</trkpt>
			<trkpt lat="-27.876786" lon="153.131778">
				<ele>52.763</ele>
				<time>2015-07-03T23:36:55Z</time>
				<extensions>
				</extensions>
			</trkpt>
			<trkpt lat="-27.877036" lon="153.131582">
				<ele>51.557</ele>
				<time>2015-07-03T23:36:57Z</time>
				<extensions>
				</extensions>
			</trkpt>
			<trkpt lat="-27.877302" lon="153.131406">
				<ele>52.309</ele>
				<time>2015-07-03T23:36:59Z</time>
				<extensions>
				</extensions>
			</trkpt>
			<trkpt lat="-27.877572" lon="153.131244">
				<ele>51.806</ele>
				<time>2015-07-03T23:37:01Z</time>
				<extensions>
				</extensions>
			</trkpt>
			<trkpt lat="-27.877867" lon="153.131101">
				<ele>51.081</ele>
				<time>2015-07-03T23:37:03Z</time>
				<extensions>
				</extensions>
			</trkpt>
			<trkpt lat="-27.878160" lon="153.130965">
				<ele>49.604</ele>
				<time>2015-07-03T23:37:05Z</time>
				<extensions>
				</extensions>
			</trkpt>
			<trkpt lat="-27.878466" lon="153.130843">
				<ele>49.460</ele>
				<time>2015-07-03T23:37:07Z</time>
				<extensions>
				</extensions>
			</trkpt>
			<trkpt lat="-27.878768" lon="153.130757">
				<ele>48.049</ele>
				<time>2015-07-03T23:37:09Z</time>
				<extensions>
				</extensions>
			</trkpt>
			<trkpt lat="-27.879059" lon="153.130711">
				<ele>47.800</ele>
				<time>2015-07-03T23:37:11Z</time>
				<extensions>
				</extensions>
			</trkpt>
			<trkpt lat="-27.879318" lon="153.130684">
				<ele>46.658</ele>
				<time>2015-07-03T23:37:13Z</time>
				<extensions>
				</extensions>
			</trkpt>
			<trkpt lat="-27.879565" lon="153.130657">
				<ele>47.288</ele>
				<time>2015-07-03T23:37:15Z</time>
				<extensions>
				</extensions>
			</trkpt>
			<trkpt lat="-27.879797" lon="153.130632">
				<ele>47.768</ele>
				<time>2015-07-03T23:37:17Z</time>
				<extensions>
				</extensions>
			</trkpt>
			<trkpt lat="-27.880018" lon="153.130598">
				<ele>48.658</ele>
				<time>2015-07-03T23:37:19Z</time>
				<extensions>
				</extensions>
			</trkpt>
			<trkpt lat="-27.880212" lon="153.130532">
				<ele>50.104</ele>
				<time>2015-07-03T23:37:21Z</time>
				<extensions>
				</extensions>
			</trkpt>
			<trkpt lat="-27.880465" lon="153.130514">
				<ele>49.251</ele>
				<time>2015-07-03T23:37:24Z</time>
				<extensions>
				</extensions>
			</trkpt>
			<trkpt lat="-27.880711" lon="153.130512">
				<ele>48.685</ele>
				<time>2015-07-03T23:37:27Z</time>
				<extensions>
				</extensions>
			</trkpt>
			<trkpt lat="-27.880896" lon="153.130302">
				<ele>49.537</ele>
				<time>2015-07-03T23:37:30Z</time>
				<extensions>
				</extensions>
			</trkpt>
			<trkpt lat="-27.880995" lon="153.130123">
				<ele>50.371</ele>
				<time>2015-07-03T23:37:32Z</time>
				<extensions>
				</extensions>
			</trkpt>
			<trkpt lat="-27.881157" lon="153.129871">
				<ele>49.485</ele>
				<time>2015-07-03T23:37:35Z</time>
				<extensions>
				</extensions>
			</trkpt>
			<trkpt lat="-27.881336" lon="153.129624">
				<ele>48.539</ele>
				<time>2015-07-03T23:37:38Z</time>
				<extensions>
				</extensions>
			</trkpt>
			<trkpt lat="-27.881488" lon="153.129426">
				<ele>49.030</ele>
				<time>2015-07-03T23:37:40Z</time>
				<extensions>
				</extensions>
			</trkpt>
			<trkpt lat="-27.881684" lon="153.129204">
				<ele>50.326</ele>
				<time>2015-07-03T23:37:42Z</time>
				<extensions>
				</extensions>
			</trkpt>
			<trkpt lat="-27.881900" lon="153.128960">
				<ele>51.230</ele>
				<time>2015-07-03T23:37:44Z</time>
				<extensions>
				</extensions>
			</trkpt>
			<trkpt lat="-27.882120" lon="153.128702">
				<ele>52.507</ele>
				<time>2015-07-03T23:37:46Z</time>
				<extensions>
				</extensions>
			</trkpt>
			<trkpt lat="-27.882343" lon="153.128425">
				<ele>51.657</ele>
				<time>2015-07-03T23:37:48Z</time>
				<extensions>
				</extensions>
			</trkpt>
			<trkpt lat="-27.882563" lon="153.128160">
				<ele>51.269</ele>
				<time>2015-07-03T23:37:50Z</time>
				<extensions>
				</extensions>
			</trkpt>
			<trkpt lat="-27.882780" lon="153.127890">
				<ele>50.735</ele>
				<time>2015-07-03T23:37:52Z</time>
				<extensions>
				</extensions>
			</trkpt>
			<trkpt lat="-27.882981" lon="153.127598">
				<ele>51.410</ele>
				<time>2015-07-03T23:37:54Z</time>
				<extensions>
				</extensions>
			</trkpt>
			<trkpt lat="-27.883181" lon="153.127280">
				<ele>54.825</ele>
				<time>2015-07-03T23:37:56Z</time>
				<extensions>
				</extensions>
			</trkpt>
			<trkpt lat="-27.883286" lon="153.127106">
				<ele>55.468</ele>
				<time>2015-07-03T23:37:57Z</time>
				<extensions>
				</extensions>
			</trkpt>
			<trkpt lat="-27.883393" lon="153.126934">
				<ele>56.773</ele>
				<time>2015-07-03T23:37:58Z</time>
				<extensions>
				</extensions>
			</trkpt>
			<trkpt lat="-27.883498" lon="153.126762">
				<ele>58.050</ele>
				<time>2015-07-03T23:37:59Z</time>
				<extensions>
				</extensions>
			</trkpt>
			<trkpt lat="-27.883604" lon="153.126593">
				<ele>58.869</ele>
				<time>2015-07-03T23:38:00Z</time>
				<extensions>
				</extensions>
			</trkpt>
			<trkpt lat="-27.883711" lon="153.126427">
				<ele>57.964</ele>
				<time>2015-07-03T23:38:01Z</time>
				<extensions>
				</extensions>
			</trkpt>
			<trkpt lat="-27.883916" lon="153.126122">
				<ele>56.577</ele>
				<time>2015-07-03T23:38:03Z</time>
				<extensions>
				</extensions>
			</trkpt>
			<trkpt lat="-27.884130" lon="153.125825">
				<ele>56.932</ele>
				<time>2015-07-03T23:38:05Z</time>
				<extensions>
				</extensions>
			</trkpt>
			<trkpt lat="-27.884332" lon="153.125547">
				<ele>57.821</ele>
				<time>2015-07-03T23:38:07Z</time>
				<extensions>
				</extensions>
			</trkpt>
			<trkpt lat="-27.884535" lon="153.125270">
				<ele>56.331</ele>
				<time>2015-07-03T23:38:09Z</time>
				<extensions>
				</extensions>
			</trkpt>
			<trkpt lat="-27.884742" lon="153.125003">
				<ele>56.875</ele>
				<time>2015-07-03T23:38:11Z</time>
				<extensions>
				</extensions>
			</trkpt>
			<trkpt lat="-27.884952" lon="153.124720">
				<ele>58.498</ele>
				<time>2015-07-03T23:38:13Z</time>
				<extensions>
				</extensions>
			</trkpt>
			<trkpt lat="-27.885174" lon="153.124407">
				<ele>59.415</ele>
				<time>2015-07-03T23:38:15Z</time>
				<extensions>
				</extensions>
			</trkpt>
			<trkpt lat="-27.885289" lon="153.124249">
				<ele>61.332</ele>
				<time>2015-07-03T23:38:16Z</time>
				<extensions>
				</extensions>
			</trkpt>
			<trkpt lat="-27.885404" lon="153.124088">
				<ele>61.384</ele>
				<time>2015-07-03T23:38:17Z</time>
				<extensions>
				</extensions>
			</trkpt>
			<trkpt lat="-27.885625" lon="153.123780">
				<ele>60.568</ele>
				<time>2015-07-03T23:38:19Z</time>
				<extensions>
				</extensions>
			</trkpt>
			<trkpt lat="-27.885819" lon="153.123455">
				<ele>59.682</ele>
				<time>2015-07-03T23:38:21Z</time>
				<extensions>
				</extensions>
			</trkpt>
			<trkpt lat="-27.886005" lon="153.123110">
				<ele>59.887</ele>
				<time>2015-07-03T23:38:23Z</time>
				<extensions>
				</extensions>
			</trkpt>
			<trkpt lat="-27.886195" lon="153.122765">
				<ele>59.393</ele>
				<time>2015-07-03T23:38:25Z</time>
				<extensions>
				</extensions>
			</trkpt>
			<trkpt lat="-27.886397" lon="153.122432">
				<ele>59.700</ele>
				<time>2015-07-03T23:38:27Z</time>
				<extensions>
				</extensions>
			</trkpt>
			<trkpt lat="-27.886507" lon="153.122252">
				<ele>59.239</ele>
				<time>2015-07-03T23:38:28Z</time>
				<extensions>
				</extensions>
			</trkpt>
			<trkpt lat="-27.886702" lon="153.121914">
				<ele>58.547</ele>
				<time>2015-07-03T23:38:30Z</time>
				<extensions>
				</extensions>
			</trkpt>
			<trkpt lat="-27.886801" lon="153.121741">
				<ele>58.547</ele>
				<time>2015-07-03T23:38:31Z</time>
				<extensions>
				</extensions>
			</trkpt>
			<trkpt lat="-27.886909" lon="153.121573">
				<ele>58.310</ele>
				<time>2015-07-03T23:38:32Z</time>
				<extensions>
				</extensions>
			</trkpt>
			<trkpt lat="-27.887010" lon="153.121403">
				<ele>57.666</ele>
				<time>2015-07-03T23:38:33Z</time>
				<extensions>
				</extensions>
			</trkpt>
			<trkpt lat="-27.887205" lon="153.121083">
				<ele>54.415</ele>
				<time>2015-07-03T23:38:35Z</time>
				<extensions>
				</extensions>
			</trkpt>
			<trkpt lat="-27.887438" lon="153.120781">
				<ele>53.920</ele>
				<time>2015-07-03T23:38:37Z</time>
				<extensions>
				</extensions>
			</trkpt>
			<trkpt lat="-27.887691" lon="153.120491">
				<ele>53.680</ele>
				<time>2015-07-03T23:38:39Z</time>
				<extensions>
				</extensions>
			</trkpt>
			<trkpt lat="-27.887827" lon="153.120346">
				<ele>53.427</ele>
				<time>2015-07-03T23:38:40Z</time>
				<extensions>
				</extensions>
			</trkpt>
			<trkpt lat="-27.887962" lon="153.120204">
				<ele>53.203</ele>
				<time>2015-07-03T23:38:41Z</time>
				<extensions>
				</extensions>
			</trkpt>
			<trkpt lat="-27.888097" lon="153.120063">
				<ele>53.120</ele>
				<time>2015-07-03T23:38:42Z</time>
				<extensions>
				</extensions>
			</trkpt>
			<trkpt lat="-27.888229" lon="153.119921">
				<ele>52.323</ele>
				<time>2015-07-03T23:38:43Z</time>
				<extensions>
				</extensions>
			</trkpt>
			<trkpt lat="-27.888363" lon="153.119774">
				<ele>51.922</ele>
				<time>2015-07-03T23:38:44Z</time>
				<extensions>
				</extensions>
			</trkpt>
			<trkpt lat="-27.888492" lon="153.119630">
				<ele>51.088</ele>
				<time>2015-07-03T23:38:45Z</time>
				<extensions>
				</extensions>
			</trkpt>
			<trkpt lat="-27.888753" lon="153.119358">
				<ele>50.833</ele>
				<time>2015-07-03T23:38:47Z</time>
				<extensions>
				</extensions>
			</trkpt>
			<trkpt lat="-27.889014" lon="153.119081">
				<ele>49.033</ele>
				<time>2015-07-03T23:38:49Z</time>
				<extensions>
				</extensions>
			</trkpt>
			<trkpt lat="-27.889145" lon="153.118936">
				<ele>48.627</ele>
				<time>2015-07-03T23:38:50Z</time>
				<extensions>
				</extensions>
			</trkpt>
			<trkpt lat="-27.889288" lon="153.118792">
				<ele>49.127</ele>
				<time>2015-07-03T23:38:51Z</time>
				<extensions>
				</extensions>
			</trkpt>
			<trkpt lat="-27.889425" lon="153.118642">
				<ele>48.163</ele>
				<time>2015-07-03T23:38:52Z</time>
				<extensions>
				</extensions>
			</trkpt>
			<trkpt lat="-27.889560" lon="153.118503">
				<ele>46.630</ele>
				<time>2015-07-03T23:38:53Z</time>
				<extensions>
				</extensions>
			</trkpt>
			<trkpt lat="-27.889710" lon="153.118365">
				<ele>46.646</ele>
				<time>2015-07-03T23:38:54Z</time>
				<extensions>
				</extensions>
			</trkpt>
			<trkpt lat="-27.889862" lon="153.118239">
				<ele>46.062</ele>
				<time>2015-07-03T23:38:55Z</time>
				<extensions>
				</extensions>
			</trkpt>
			<trkpt lat="-27.890024" lon="153.118121">
				<ele>45.618</ele>
				<time>2015-07-03T23:38:56Z</time>
				<extensions>
				</extensions>
			</trkpt>
			<trkpt lat="-27.890180" lon="153.117997">
				<ele>45.741</ele>
				<time>2015-07-03T23:38:57Z</time>
				<extensions>
				</extensions>
			</trkpt>
			<trkpt lat="-27.890330" lon="153.117873">
				<ele>47.195</ele>
				<time>2015-07-03T23:38:58Z</time>
				<extensions>
				</extensions>
			</trkpt>
			<trkpt lat="-27.890500" lon="153.117740">
				<ele>46.944</ele>
				<time>2015-07-03T23:38:59Z</time>
				<extensions>
				</extensions>
			</trkpt>
			<trkpt lat="-27.890665" lon="153.117624">
				<ele>47.572</ele>
				<time>2015-07-03T23:39:00Z</time>
				<extensions>
				</extensions>
			</trkpt>
			<trkpt lat="-27.890835" lon="153.117506">
				<ele>45.375</ele>
				<time>2015-07-03T23:39:01Z</time>
				<extensions>
				</extensions>
			</trkpt>
			<trkpt lat="-27.891019" lon="153.117404">
				<ele>45.785</ele>
				<time>2015-07-03T23:39:02Z</time>
				<extensions>
				</extensions>
			</trkpt>
			<trkpt lat="-27.891194" lon="153.117305">
				<ele>46.572</ele>
				<time>2015-07-03T23:39:03Z</time>
				<extensions>
				</extensions>
			</trkpt>
			<trkpt lat="-27.891369" lon="153.117206">
				<ele>46.489</ele>
				<time>2015-07-03T23:39:04Z</time>
				<extensions>
				</extensions>
			</trkpt>
			<trkpt lat="-27.891543" lon="153.117115">
				<ele>47.011</ele>
				<time>2015-07-03T23:39:05Z</time>
				<extensions>
				</extensions>
			</trkpt>
			<trkpt lat="-27.891715" lon="153.117028">
				<ele>48.672</ele>
				<time>2015-07-03T23:39:06Z</time>
				<extensions>
				</extensions>
			</trkpt>
			<trkpt lat="-27.891905" lon="153.116945">
				<ele>50.279</ele>
				<time>2015-07-03T23:39:07Z</time>
				<extensions>
				</extensions>
			</trkpt>
			<trkpt lat="-27.892101" lon="153.116862">
				<ele>53.110</ele>
				<time>2015-07-03T23:39:08Z</time>
				<extensions>
				</extensions>
			</trkpt>
			<trkpt lat="-27.892305" lon="153.116780">
				<ele>53.544</ele>
				<time>2015-07-03T23:39:09Z</time>
				<extensions>
				</extensions>
			</trkpt>
			<trkpt lat="-27.892518" lon="153.116709">
				<ele>56.294</ele>
				<time>2015-07-03T23:39:10Z</time>
				<extensions>
				</extensions>
			</trkpt>
			<trkpt lat="-27.892719" lon="153.116642">
				<ele>57.548</ele>
				<time>2015-07-03T23:39:11Z</time>
				<extensions>
				</extensions>
			</trkpt>
			<trkpt lat="-27.892938" lon="153.116585">
				<ele>58.728</ele>
				<time>2015-07-03T23:39:12Z</time>
				<extensions>
				</extensions>
			</trkpt>
			<trkpt lat="-27.893153" lon="153.116530">
				<ele>61.087</ele>
				<time>2015-07-03T23:39:13Z</time>
				<extensions>
				</extensions>
			</trkpt>
			<trkpt lat="-27.893374" lon="153.116480">
				<ele>62.043</ele>
				<time>2015-07-03T23:39:14Z</time>
				<extensions>
				</extensions>
			</trkpt>
			<trkpt lat="-27.893603" lon="153.116433">
				<ele>61.899</ele>
				<time>2015-07-03T23:39:15Z</time>
				<extensions>
				</extensions>
			</trkpt>
			<trkpt lat="-27.893819" lon="153.116389">
				<ele>62.079</ele>
				<time>2015-07-03T23:39:16Z</time>
				<extensions>
				</extensions>
			</trkpt>
			<trkpt lat="-27.894038" lon="153.116350">
				<ele>62.568</ele>
				<time>2015-07-03T23:39:17Z</time>
				<extensions>
				</extensions>
			</trkpt>
			<trkpt lat="-27.894254" lon="153.116309">
				<ele>62.418</ele>
				<time>2015-07-03T23:39:18Z</time>
				<extensions>
				</extensions>
			</trkpt>
			<trkpt lat="-27.894463" lon="153.116273">
				<ele>63.376</ele>
				<time>2015-07-03T23:39:19Z</time>
				<extensions>
				</extensions>
			</trkpt>
			<trkpt lat="-27.894688" lon="153.116242">
				<ele>62.421</ele>
				<time>2015-07-03T23:39:20Z</time>
				<extensions>
				</extensions>
			</trkpt>
			<trkpt lat="-27.894897" lon="153.116200">
				<ele>62.103</ele>
				<time>2015-07-03T23:39:21Z</time>
				<extensions>
				</extensions>
			</trkpt>
			<trkpt lat="-27.895123" lon="153.116159">
				<ele>62.313</ele>
				<time>2015-07-03T23:39:22Z</time>
				<extensions>
				</extensions>
			</trkpt>
			<trkpt lat="-27.895344" lon="153.116116">
				<ele>62.342</ele>
				<time>2015-07-03T23:39:23Z</time>
				<extensions>
				</extensions>
			</trkpt>
			<trkpt lat="-27.895571" lon="153.116074">
				<ele>61.860</ele>
				<time>2015-07-03T23:39:24Z</time>
				<extensions>
				</extensions>
			</trkpt>
			<trkpt lat="-27.895799" lon="153.116033">
				<ele>61.505</ele>
				<time>2015-07-03T23:39:25Z</time>
				<extensions>
				</extensions>
			</trkpt>
			<trkpt lat="-27.896031" lon="153.115993">
				<ele>60.646</ele>
				<time>2015-07-03T23:39:26Z</time>
				<extensions>
				</extensions>
			</trkpt>
			<trkpt lat="-27.896266" lon="153.115950">
				<ele>60.010</ele>
				<time>2015-07-03T23:39:27Z</time>
				<extensions>
				</extensions>
			</trkpt>
			<trkpt lat="-27.896500" lon="153.115910">
				<ele>58.000</ele>
				<time>2015-07-03T23:39:28Z</time>
				<extensions>
				</extensions>
			</trkpt>
			<trkpt lat="-27.896732" lon="153.115869">
				<ele>56.989</ele>
				<time>2015-07-03T23:39:29Z</time>
				<extensions>
				</extensions>
			</trkpt>
			<trkpt lat="-27.896954" lon="153.115817">
				<ele>54.053</ele>
				<time>2015-07-03T23:39:30Z</time>
				<extensions>
				</extensions>
			</trkpt>
			<trkpt lat="-27.897181" lon="153.115774">
				<ele>53.179</ele>
				<time>2015-07-03T23:39:31Z</time>
				<extensions>
				</extensions>
			</trkpt>
			<trkpt lat="-27.897415" lon="153.115733">
				<ele>52.511</ele>
				<time>2015-07-03T23:39:32Z</time>
				<extensions>
				</extensions>
			</trkpt>
			<trkpt lat="-27.897651" lon="153.115692">
				<ele>52.764</ele>
				<time>2015-07-03T23:39:33Z</time>
				<extensions>
				</extensions>
			</trkpt>
			<trkpt lat="-27.897875" lon="153.115657">
				<ele>51.219</ele>
				<time>2015-07-03T23:39:34Z</time>
				<extensions>
				</extensions>
			</trkpt>
			<trkpt lat="-27.898111" lon="153.115609">
				<ele>50.363</ele>
				<time>2015-07-03T23:39:35Z</time>
				<extensions>
				</extensions>
			</trkpt>
			<trkpt lat="-27.898350" lon="153.115574">
				<ele>48.649</ele>
				<time>2015-07-03T23:39:36Z</time>
				<extensions>
				</extensions>
			</trkpt>
			<trkpt lat="-27.898565" lon="153.115527">
				<ele>48.673</ele>
				<time>2015-07-03T23:39:37Z</time>
				<extensions>
				</extensions>
			</trkpt>
			<trkpt lat="-27.898785" lon="153.115464">
				<ele>50.172</ele>
				<time>2015-07-03T23:39:38Z</time>
				<extensions>
				</extensions>
			</trkpt>
			<trkpt lat="-27.899001" lon="153.115394">
				<ele>50.413</ele>
				<time>2015-07-03T23:39:39Z</time>
				<extensions>
				</extensions>
			</trkpt>
			<trkpt lat="-27.899221" lon="153.115308">
				<ele>51.868</ele>
				<time>2015-07-03T23:39:40Z</time>
				<extensions>
				</extensions>
			</trkpt>
			<trkpt lat="-27.899430" lon="153.115205">
				<ele>53.143</ele>
				<time>2015-07-03T23:39:41Z</time>
				<extensions>
				</extensions>
			</trkpt>
			<trkpt lat="-27.899649" lon="153.115092">
				<ele>53.143</ele>
				<time>2015-07-03T23:39:42Z</time>
				<extensions>
				</extensions>
			</trkpt>
			<trkpt lat="-27.899860" lon="153.114965">
				<ele>55.636</ele>
				<time>2015-07-03T23:39:43Z</time>
				<extensions>
				</extensions>
			</trkpt>
			<trkpt lat="-27.900069" lon="153.114825">
				<ele>56.012</ele>
				<time>2015-07-03T23:39:44Z</time>
				<extensions>
				</extensions>
			</trkpt>
			<trkpt lat="-27.900267" lon="153.114679">
				<ele>56.846</ele>
				<time>2015-07-03T23:39:45Z</time>
				<extensions>
				</extensions>
			</trkpt>
			<trkpt lat="-27.900466" lon="153.114516">
				<ele>57.300</ele>
				<time>2015-07-03T23:39:46Z</time>
				<extensions>
				</extensions>
			</trkpt>
			<trkpt lat="-27.900659" lon="153.114354">
				<ele>59.190</ele>
				<time>2015-07-03T23:39:47Z</time>
				<extensions>
				</extensions>
			</trkpt>
			<trkpt lat="-27.900852" lon="153.114211">
				<ele>59.285</ele>
				<time>2015-07-03T23:39:48Z</time>
				<extensions>
				</extensions>
			</trkpt>
			<trkpt lat="-27.901043" lon="153.114060">
				<ele>59.605</ele>
				<time>2015-07-03T23:39:49Z</time>
				<extensions>
				</extensions>
			</trkpt>
			<trkpt lat="-27.901228" lon="153.113907">
				<ele>59.869</ele>
				<time>2015-07-03T23:39:50Z</time>
				<extensions>
				</extensions>
			</trkpt>
			<trkpt lat="-27.901406" lon="153.113749">
				<ele>61.480</ele>
				<time>2015-07-03T23:39:51Z</time>
				<extensions>
				</extensions>
			</trkpt>
			<trkpt lat="-27.901582" lon="153.113595">
				<ele>61.598</ele>
				<time>2015-07-03T23:39:52Z</time>
				<extensions>
				</extensions>
			</trkpt>
			<trkpt lat="-27.901766" lon="153.113435">
				<ele>61.087</ele>
				<time>2015-07-03T23:39:53Z</time>
				<extensions>
				</extensions>
			</trkpt>
			<trkpt lat="-27.901935" lon="153.113275">
				<ele>61.823</ele>
				<time>2015-07-03T23:39:54Z</time>
				<extensions>
				</extensions>
			</trkpt>
			<trkpt lat="-27.902100" lon="153.113106">
				<ele>60.914</ele>
				<time>2015-07-03T23:39:55Z</time>
				<extensions>
				</extensions>
			</trkpt>
			<trkpt lat="-27.902264" lon="153.112935">
				<ele>60.728</ele>
				<time>2015-07-03T23:39:56Z</time>
				<extensions>
				</extensions>
			</trkpt>
			<trkpt lat="-27.902421" lon="153.112757">
				<ele>60.251</ele>
				<time>2015-07-03T23:39:57Z</time>
				<extensions>
				</extensions>
			</trkpt>
			<trkpt lat="-27.902581" lon="153.112565">
				<ele>59.128</ele>
				<time>2015-07-03T23:39:58Z</time>
				<extensions>
				</extensions>
			</trkpt>
			<trkpt lat="-27.902735" lon="153.112373">
				<ele>57.444</ele>
				<time>2015-07-03T23:39:59Z</time>
				<extensions>
				</extensions>
			</trkpt>
			<trkpt lat="-27.902890" lon="153.112166">
				<ele>56.023</ele>
				<time>2015-07-03T23:40:00Z</time>
				<extensions>
				</extensions>
			</trkpt>
			<trkpt lat="-27.903039" lon="153.111952">
				<ele>55.404</ele>
				<time>2015-07-03T23:40:01Z</time>
				<extensions>
				</extensions>
			</trkpt>
			<trkpt lat="-27.903183" lon="153.111730">
				<ele>54.902</ele>
				<time>2015-07-03T23:40:02Z</time>
				<extensions>
				</extensions>
			</trkpt>
			<trkpt lat="-27.903323" lon="153.111496">
				<ele>55.067</ele>
				<time>2015-07-03T23:40:03Z</time>
				<extensions>
				</extensions>
			</trkpt>
			<trkpt lat="-27.903457" lon="153.111241">
				<ele>55.975</ele>
				<time>2015-07-03T23:40:04Z</time>
				<extensions>
				</extensions>
			</trkpt>
			<trkpt lat="-27.903589" lon="153.110985">
				<ele>55.463</ele>
				<time>2015-07-03T23:40:05Z</time>
				<extensions>
				</extensions>
			</trkpt>
			<trkpt lat="-27.903718" lon="153.110726">
				<ele>56.140</ele>
				<time>2015-07-03T23:40:06Z</time>
				<extensions>
				</extensions>
			</trkpt>
			<trkpt lat="-27.903830" lon="153.110488">
				<ele>55.307</ele>
				<time>2015-07-03T23:40:07Z</time>
				<extensions>
				</extensions>
			</trkpt>
			<trkpt lat="-27.903954" lon="153.110245">
				<ele>54.149</ele>
				<time>2015-07-03T23:40:08Z</time>
				<extensions>
				</extensions>
			</trkpt>
			<trkpt lat="-27.904081" lon="153.109999">
				<ele>53.427</ele>
				<time>2015-07-03T23:40:09Z</time>
				<extensions>
				</extensions>
			</trkpt>
			<trkpt lat="-27.904206" lon="153.109746">
				<ele>52.673</ele>
				<time>2015-07-03T23:40:10Z</time>
				<extensions>
				</extensions>
			</trkpt>
			<trkpt lat="-27.904331" lon="153.109499">
				<ele>53.713</ele>
				<time>2015-07-03T23:40:11Z</time>
				<extensions>
				</extensions>
			</trkpt>
			<trkpt lat="-27.904456" lon="153.109257">
				<ele>52.099</ele>
				<time>2015-07-03T23:40:12Z</time>
				<extensions>
				</extensions>
			</trkpt>
			<trkpt lat="-27.904571" lon="153.109028">
				<ele>49.436</ele>
				<time>2015-07-03T23:40:13Z</time>
				<extensions>
				</extensions>
			</trkpt>
			<trkpt lat="-27.904693" lon="153.108788">
				<ele>47.704</ele>
				<time>2015-07-03T23:40:14Z</time>
				<extensions>
				</extensions>
			</trkpt>
			<trkpt lat="-27.904814" lon="153.108559">
				<ele>46.458</ele>
				<time>2015-07-03T23:40:15Z</time>
				<extensions>
				</extensions>
			</trkpt>
			<trkpt lat="-27.904930" lon="153.108330">
				<ele>48.788</ele>
				<time>2015-07-03T23:40:16Z</time>
				<extensions>
				</extensions>
			</trkpt>
			<trkpt lat="-27.905042" lon="153.108096">
				<ele>48.752</ele>
				<time>2015-07-03T23:40:17Z</time>
				<extensions>
				</extensions>
			</trkpt>
			<trkpt lat="-27.905151" lon="153.107853">
				<ele>49.541</ele>
				<time>2015-07-03T23:40:18Z</time>
				<extensions>
				</extensions>
			</trkpt>
			<trkpt lat="-27.905270" lon="153.107622">
				<ele>48.484</ele>
				<time>2015-07-03T23:40:19Z</time>
				<extensions>
				</extensions>
			</trkpt>
			<trkpt lat="-27.905388" lon="153.107385">
				<ele>49.902</ele>
				<time>2015-07-03T23:40:20Z</time>
				<extensions>
				</extensions>
			</trkpt>
			<trkpt lat="-27.905512" lon="153.107138">
				<ele>47.954</ele>
				<time>2015-07-03T23:40:21Z</time>
				<extensions>
				</extensions>
			</trkpt>
			<trkpt lat="-27.905634" lon="153.106904">
				<ele>48.392</ele>
				<time>2015-07-03T23:40:22Z</time>
				<extensions>
				</extensions>
			</trkpt>
			<trkpt lat="-27.905752" lon="153.106664">
				<ele>49.154</ele>
				<time>2015-07-03T23:40:23Z</time>
				<extensions>
				</extensions>
			</trkpt>
			<trkpt lat="-27.905854" lon="153.106410">
				<ele>47.702</ele>
				<time>2015-07-03T23:40:24Z</time>
				<extensions>
				</extensions>
			</trkpt>
			<trkpt lat="-27.905962" lon="153.106171">
				<ele>48.381</ele>
				<time>2015-07-03T23:40:25Z</time>
				<extensions>
				</extensions>
			</trkpt>
			<trkpt lat="-27.906087" lon="153.105924">
				<ele>51.037</ele>
				<time>2015-07-03T23:40:26Z</time>
				<extensions>
				</extensions>
			</trkpt>
			<trkpt lat="-27.906220" lon="153.105668">
				<ele>52.710</ele>
				<time>2015-07-03T23:40:27Z</time>
				<extensions>
				</extensions>
			</trkpt>
			<trkpt lat="-27.906350" lon="153.105405">
				<ele>53.456</ele>
				<time>2015-07-03T23:40:28Z</time>
				<extensions>
				</extensions>
			</trkpt>
			<trkpt lat="-27.906479" lon="153.105141">
				<ele>53.502</ele>
				<time>2015-07-03T23:40:29Z</time>
				<extensions>
				</extensions>
			</trkpt>
			<trkpt lat="-27.906615" lon="153.104879">
				<ele>54.388</ele>
				<time>2015-07-03T23:40:30Z</time>
				<extensions>
				</extensions>
			</trkpt>
			<trkpt lat="-27.906744" lon="153.104612">
				<ele>53.439</ele>
				<time>2015-07-03T23:40:31Z</time>
				<extensions>
				</extensions>
			</trkpt>
			<trkpt lat="-27.906873" lon="153.104356">
				<ele>52.267</ele>
				<time>2015-07-03T23:40:32Z</time>
				<extensions>
				</extensions>
			</trkpt>
			<trkpt lat="-27.906994" lon="153.104108">
				<ele>51.833</ele>
				<time>2015-07-03T23:40:33Z</time>
				<extensions>
				</extensions>
			</trkpt>
			<trkpt lat="-27.907113" lon="153.103861">
				<ele>50.438</ele>
				<time>2015-07-03T23:40:34Z</time>
				<extensions>
				</extensions>
			</trkpt>
			<trkpt lat="-27.907230" lon="153.103623">
				<ele>52.133</ele>
				<time>2015-07-03T23:40:35Z</time>
				<extensions>
				</extensions>
			</trkpt>
			<trkpt lat="-27.907353" lon="153.103370">
				<ele>52.452</ele>
				<time>2015-07-03T23:40:36Z</time>
				<extensions>
				</extensions>
			</trkpt>
			<trkpt lat="-27.907473" lon="153.103121">
				<ele>50.852</ele>
				<time>2015-07-03T23:40:37Z</time>
				<extensions>
				</extensions>
			</trkpt>
			<trkpt lat="-27.907605" lon="153.102864">
				<ele>51.115</ele>
				<time>2015-07-03T23:40:38Z</time>
				<extensions>
				</extensions>
			</trkpt>
			<trkpt lat="-27.907732" lon="153.102609">
				<ele>50.742</ele>
				<time>2015-07-03T23:40:39Z</time>
				<extensions>
				</extensions>
			</trkpt>
			<trkpt lat="-27.907859" lon="153.102357">
				<ele>50.334</ele>
				<time>2015-07-03T23:40:40Z</time>
				<extensions>
				</extensions>
			</trkpt>
			<trkpt lat="-27.907984" lon="153.102097">
				<ele>50.508</ele>
				<time>2015-07-03T23:40:41Z</time>
				<extensions>
				</extensions>
			</trkpt>
			<trkpt lat="-27.908115" lon="153.101843">
				<ele>50.936</ele>
				<time>2015-07-03T23:40:42Z</time>
				<extensions>
				</extensions>
			</trkpt>
			<trkpt lat="-27.908240" lon="153.101585">
				<ele>50.825</ele>
				<time>2015-07-03T23:40:43Z</time>
				<extensions>
				</extensions>
			</trkpt>
			<trkpt lat="-27.908368" lon="153.101330">
				<ele>50.825</ele>
				<time>2015-07-03T23:40:44Z</time>
				<extensions>
				</extensions>
			</trkpt>
			<trkpt lat="-27.908496" lon="153.101073">
				<ele>51.789</ele>
				<time>2015-07-03T23:40:45Z</time>
				<extensions>
				</extensions>
			</trkpt>
			<trkpt lat="-27.908617" lon="153.100811">
				<ele>53.400</ele>
				<time>2015-07-03T23:40:46Z</time>
				<extensions>
				</extensions>
			</trkpt>
			<trkpt lat="-27.908743" lon="153.100562">
				<ele>49.938</ele>
				<time>2015-07-03T23:40:47Z</time>
				<extensions>
				</extensions>
			</trkpt>
			<trkpt lat="-27.908853" lon="153.100316">
				<ele>49.219</ele>
				<time>2015-07-03T23:40:48Z</time>
				<extensions>
				</extensions>
			</trkpt>
			<trkpt lat="-27.908973" lon="153.100081">
				<ele>48.946</ele>
				<time>2015-07-03T23:40:49Z</time>
				<extensions>
				</extensions>
			</trkpt>
			<trkpt lat="-27.909094" lon="153.099844">
				<ele>50.017</ele>
				<time>2015-07-03T23:40:50Z</time>
				<extensions>
				</extensions>
			</trkpt>
			<trkpt lat="-27.909209" lon="153.099609">
				<ele>50.483</ele>
				<time>2015-07-03T23:40:51Z</time>
				<extensions>
				</extensions>
			</trkpt>
			<trkpt lat="-27.909331" lon="153.099372">
				<ele>49.986</ele>
				<time>2015-07-03T23:40:52Z</time>
				<extensions>
				</extensions>
			</trkpt>
			<trkpt lat="-27.909453" lon="153.099145">
				<ele>50.163</ele>
				<time>2015-07-03T23:40:53Z</time>
				<extensions>
				</extensions>
			</trkpt>
			<trkpt lat="-27.909562" lon="153.098910">
				<ele>50.521</ele>
				<time>2015-07-03T23:40:54Z</time>
				<extensions>
				</extensions>
			</trkpt>
			<trkpt lat="-27.909670" lon="153.098685">
				<ele>50.496</ele>
				<time>2015-07-03T23:40:55Z</time>
				<extensions>
				</extensions>
			</trkpt>
			<trkpt lat="-27.909754" lon="153.098448">
				<ele>51.268</ele>
				<time>2015-07-03T23:40:56Z</time>
				<extensions>
				</extensions>
			</trkpt>
			<trkpt lat="-27.909826" lon="153.098198">
				<ele>51.695</ele>
				<time>2015-07-03T23:40:57Z</time>
				<extensions>
				</extensions>
			</trkpt>
			<trkpt lat="-27.909891" lon="153.097938">
				<ele>53.151</ele>
				<time>2015-07-03T23:40:58Z</time>
				<extensions>
				</extensions>
			</trkpt>
			<trkpt lat="-27.909940" lon="153.097673">
				<ele>53.233</ele>
				<time>2015-07-03T23:40:59Z</time>
				<extensions>
				</extensions>
			</trkpt>
			<trkpt lat="-27.909972" lon="153.097406">
				<ele>52.411</ele>
				<time>2015-07-03T23:41:00Z</time>
				<extensions>
				</extensions>
			</trkpt>
			<trkpt lat="-27.909986" lon="153.097134">
				<ele>53.518</ele>
				<time>2015-07-03T23:41:01Z</time>
				<extensions>
				</extensions>
			</trkpt>
			<trkpt lat="-27.909998" lon="153.096863">
				<ele>52.268</ele>
				<time>2015-07-03T23:41:02Z</time>
				<extensions>
				</extensions>
			</trkpt>
			<trkpt lat="-27.909998" lon="153.096588">
				<ele>51.380</ele>
				<time>2015-07-03T23:41:03Z</time>
				<extensions>
				</extensions>
			</trkpt>
			<trkpt lat="-27.909990" lon="153.096307">
				<ele>51.523</ele>
				<time>2015-07-03T23:41:04Z</time>
				<extensions>
				</extensions>
			</trkpt>
			<trkpt lat="-27.909981" lon="153.096021">
				<ele>49.927</ele>
				<time>2015-07-03T23:41:05Z</time>
				<extensions>
				</extensions>
			</trkpt>
			<trkpt lat="-27.909981" lon="153.095743">
				<ele>48.999</ele>
				<time>2015-07-03T23:41:06Z</time>
				<extensions>
				</extensions>
			</trkpt>
			<trkpt lat="-27.909980" lon="153.095469">
				<ele>49.362</ele>
				<time>2015-07-03T23:41:07Z</time>
				<extensions>
				</extensions>
			</trkpt>
			<trkpt lat="-27.909976" lon="153.095205">
				<ele>49.204</ele>
				<time>2015-07-03T23:41:08Z</time>
				<extensions>
				</extensions>
			</trkpt>
			<trkpt lat="-27.909983" lon="153.094942">
				<ele>49.851</ele>
				<time>2015-07-03T23:41:09Z</time>
				<extensions>
				</extensions>
			</trkpt>
			<trkpt lat="-27.909990" lon="153.094683">
				<ele>49.866</ele>
				<time>2015-07-03T23:41:10Z</time>
				<extensions>
				</extensions>
			</trkpt>
			<trkpt lat="-27.910017" lon="153.094420">
				<ele>51.725</ele>
				<time>2015-07-03T23:41:11Z</time>
				<extensions>
				</extensions>
			</trkpt>
			<trkpt lat="-27.910048" lon="153.094156">
				<ele>54.604</ele>
				<time>2015-07-03T23:41:12Z</time>
				<extensions>
				</extensions>
			</trkpt>
			<trkpt lat="-27.910087" lon="153.093894">
				<ele>55.923</ele>
				<time>2015-07-03T23:41:13Z</time>
				<extensions>
				</extensions>
			</trkpt>
			<trkpt lat="-27.910147" lon="153.093639">
				<ele>58.218</ele>
				<time>2015-07-03T23:41:14Z</time>
				<extensions>
				</extensions>
			</trkpt>
			<trkpt lat="-27.910227" lon="153.093387">
				<ele>58.802</ele>
				<time>2015-07-03T23:41:15Z</time>
				<extensions>
				</extensions>
			</trkpt>
			<trkpt lat="-27.910323" lon="153.093134">
				<ele>58.753</ele>
				<time>2015-07-03T23:41:16Z</time>
				<extensions>
				</extensions>
			</trkpt>
			<trkpt lat="-27.910417" lon="153.092879">
				<ele>58.862</ele>
				<time>2015-07-03T23:41:17Z</time>
				<extensions>
				</extensions>
			</trkpt>
			<trkpt lat="-27.910524" lon="153.092646">
				<ele>56.901</ele>
				<time>2015-07-03T23:41:18Z</time>
				<extensions>
				</extensions>
			</trkpt>
			<trkpt lat="-27.910637" lon="153.092418">
				<ele>56.219</ele>
				<time>2015-07-03T23:41:19Z</time>
				<extensions>
				</extensions>
			</trkpt>
			<trkpt lat="-27.910763" lon="153.092201">
				<ele>57.136</ele>
				<time>2015-07-03T23:41:20Z</time>
				<extensions>
				</extensions>
			</trkpt>
			<trkpt lat="-27.910888" lon="153.091991">
				<ele>56.793</ele>
				<time>2015-07-03T23:41:21Z</time>
				<extensions>
				</extensions>
			</trkpt>
			<trkpt lat="-27.911021" lon="153.091779">
				<ele>56.856</ele>
				<time>2015-07-03T23:41:22Z</time>
				<extensions>
				</extensions>
			</trkpt>
			<trkpt lat="-27.911144" lon="153.091570">
				<ele>54.880</ele>
				<time>2015-07-03T23:41:23Z</time>
				<extensions>
				</extensions>
			</trkpt>
			<trkpt lat="-27.911274" lon="153.091351">
				<ele>53.068</ele>
				<time>2015-07-03T23:41:24Z</time>
				<extensions>
				</extensions>
			</trkpt>
			<trkpt lat="-27.911408" lon="153.091125">
				<ele>55.923</ele>
				<time>2015-07-03T23:41:25Z</time>
				<extensions>
				</extensions>
			</trkpt>
			<trkpt lat="-27.911537" lon="153.090898">
				<ele>55.967</ele>
				<time>2015-07-03T23:41:26Z</time>
				<extensions>
				</extensions>
			</trkpt>
			<trkpt lat="-27.911654" lon="153.090679">
				<ele>56.911</ele>
				<time>2015-07-03T23:41:27Z</time>
				<extensions>
				</extensions>
			</trkpt>
			<trkpt lat="-27.911795" lon="153.090464">
				<ele>55.822</ele>
				<time>2015-07-03T23:41:28Z</time>
				<extensions>
				</extensions>
			</trkpt>
			<trkpt lat="-27.911912" lon="153.090262">
				<ele>56.122</ele>
				<time>2015-07-03T23:41:29Z</time>
				<extensions>
				</extensions>
			</trkpt>
			<trkpt lat="-27.912033" lon="153.090058">
				<ele>55.824</ele>
				<time>2015-07-03T23:41:30Z</time>
				<extensions>
				</extensions>
			</trkpt>
			<trkpt lat="-27.912157" lon="153.089869">
				<ele>57.157</ele>
				<time>2015-07-03T23:41:31Z</time>
				<extensions>
				</extensions>
			</trkpt>
			<trkpt lat="-27.912298" lon="153.089688">
				<ele>58.627</ele>
				<time>2015-07-03T23:41:32Z</time>
				<extensions>
				</extensions>
			</trkpt>
			<trkpt lat="-27.912452" lon="153.089511">
				<ele>59.709</ele>
				<time>2015-07-03T23:41:33Z</time>
				<extensions>
				</extensions>
			</trkpt>
			<trkpt lat="-27.912611" lon="153.089349">
				<ele>63.116</ele>
				<time>2015-07-03T23:41:34Z</time>
				<extensions>
				</extensions>
			</trkpt>
			<trkpt lat="-27.912777" lon="153.089188">
				<ele>63.648</ele>
				<time>2015-07-03T23:41:35Z</time>
				<extensions>
				</extensions>
			</trkpt>
			<trkpt lat="-27.912954" lon="153.089033">
				<ele>66.028</ele>
				<time>2015-07-03T23:41:36Z</time>
				<extensions>
				</extensions>
			</trkpt>
			<trkpt lat="-27.913142" lon="153.088888">
				<ele>64.717</ele>
				<time>2015-07-03T23:41:37Z</time>
				<extensions>
				</extensions>
			</trkpt>
			<trkpt lat="-27.913343" lon="153.088743">
				<ele>66.317</ele>
				<time>2015-07-03T23:41:38Z</time>
				<extensions>
				</extensions>
			</trkpt>
			<trkpt lat="-27.913556" lon="153.088607">
				<ele>66.422</ele>
				<time>2015-07-03T23:41:39Z</time>
				<extensions>
				</extensions>
			</trkpt>
			<trkpt lat="-27.913784" lon="153.088477">
				<ele>68.281</ele>
				<time>2015-07-03T23:41:40Z</time>
				<extensions>
				</extensions>
			</trkpt>
			<trkpt lat="-27.914028" lon="153.088347">
				<ele>69.033</ele>
				<time>2015-07-03T23:41:41Z</time>
				<extensions>
				</extensions>
			</trkpt>
			<trkpt lat="-27.914257" lon="153.088222">
				<ele>66.727</ele>
				<time>2015-07-03T23:41:42Z</time>
				<extensions>
				</extensions>
			</trkpt>
			<trkpt lat="-27.914484" lon="153.088091">
				<ele>64.752</ele>
				<time>2015-07-03T23:41:43Z</time>
				<extensions>
				</extensions>
			</trkpt>
			<trkpt lat="-27.914697" lon="153.087970">
				<ele>61.801</ele>
				<time>2015-07-03T23:41:44Z</time>
				<extensions>
				</extensions>
			</trkpt>
			<trkpt lat="-27.914907" lon="153.087862">
				<ele>60.721</ele>
				<time>2015-07-03T23:41:45Z</time>
				<extensions>
				</extensions>
			</trkpt>
			<trkpt lat="-27.915113" lon="153.087747">
				<ele>58.638</ele>
				<time>2015-07-03T23:41:46Z</time>
				<extensions>
				</extensions>
			</trkpt>
			<trkpt lat="-27.915306" lon="153.087644">
				<ele>58.638</ele>
				<time>2015-07-03T23:41:47Z</time>
				<extensions>
				</extensions>
			</trkpt>
			<trkpt lat="-27.915501" lon="153.087551">
				<ele>59.359</ele>
				<time>2015-07-03T23:41:48Z</time>
				<extensions>
				</extensions>
			</trkpt>
			<trkpt lat="-27.915692" lon="153.087454">
				<ele>57.445</ele>
				<time>2015-07-03T23:41:49Z</time>
				<extensions>
				</extensions>
			</trkpt>
			<trkpt lat="-27.915887" lon="153.087369">
				<ele>57.014</ele>
				<time>2015-07-03T23:41:50Z</time>
				<extensions>
				</extensions>
			</trkpt>
			<trkpt lat="-27.916088" lon="153.087302">
				<ele>55.080</ele>
				<time>2015-07-03T23:41:51Z</time>
				<extensions>
				</extensions>
			</trkpt>
			<trkpt lat="-27.916291" lon="153.087230">
				<ele>53.370</ele>
				<time>2015-07-03T23:41:52Z</time>
				<extensions>
				</extensions>
			</trkpt>
			<trkpt lat="-27.916489" lon="153.087161">
				<ele>50.534</ele>
				<time>2015-07-03T23:41:53Z</time>
				<extensions>
				</extensions>
			</trkpt>
			<trkpt lat="-27.916689" lon="153.087097">
				<ele>48.658</ele>
				<time>2015-07-03T23:41:54Z</time>
				<extensions>
				</extensions>
			</trkpt>
			<trkpt lat="-27.916892" lon="153.087033">
				<ele>48.676</ele>
				<time>2015-07-03T23:41:55Z</time>
				<extensions>
				</extensions>
			</trkpt>
			<trkpt lat="-27.917083" lon="153.086957">
				<ele>47.363</ele>
				<time>2015-07-03T23:41:56Z</time>
				<extensions>
				</extensions>
			</trkpt>
			<trkpt lat="-27.917281" lon="153.086888">
				<ele>48.218</ele>
				<time>2015-07-03T23:41:57Z</time>
				<extensions>
				</extensions>
			</trkpt>
			<trkpt lat="-27.917484" lon="153.086820">
				<ele>48.960</ele>
				<time>2015-07-03T23:41:58Z</time>
				<extensions>
				</extensions>
			</trkpt>
			<trkpt lat="-27.917705" lon="153.086744">
				<ele>51.539</ele>
				<time>2015-07-03T23:41:59Z</time>
				<extensions>
				</extensions>
			</trkpt>
			<trkpt lat="-27.917928" lon="153.086672">
				<ele>53.665</ele>
				<time>2015-07-03T23:42:00Z</time>
				<extensions>
				</extensions>
			</trkpt>
			<trkpt lat="-27.918154" lon="153.086591">
				<ele>53.207</ele>
				<time>2015-07-03T23:42:01Z</time>
				<extensions>
				</extensions>
			</trkpt>
			<trkpt lat="-27.918367" lon="153.086517">
				<ele>53.709</ele>
				<time>2015-07-03T23:42:02Z</time>
				<extensions>
				</extensions>
			</trkpt>
			<trkpt lat="-27.918590" lon="153.086448">
				<ele>54.220</ele>
				<time>2015-07-03T23:42:03Z</time>
				<extensions>
				</extensions>
			</trkpt>
			<trkpt lat="-27.918814" lon="153.086376">
				<ele>52.596</ele>
				<time>2015-07-03T23:42:04Z</time>
				<extensions>
				</extensions>
			</trkpt>
			<trkpt lat="-27.919023" lon="153.086302">
				<ele>52.514</ele>
				<time>2015-07-03T23:42:05Z</time>
				<extensions>
				</extensions>
			</trkpt>
			<trkpt lat="-27.919239" lon="153.086230">
				<ele>52.125</ele>
				<time>2015-07-03T23:42:06Z</time>
				<extensions>
				</extensions>
			</trkpt>
			<trkpt lat="-27.919440" lon="153.086153">
				<ele>50.636</ele>
				<time>2015-07-03T23:42:07Z</time>
				<extensions>
				</extensions>
			</trkpt>
			<trkpt lat="-27.919644" lon="153.086065">
				<ele>50.767</ele>
				<time>2015-07-03T23:42:08Z</time>
				<extensions>
				</extensions>
			</trkpt>
			<trkpt lat="-27.919836" lon="153.085962">
				<ele>50.370</ele>
				<time>2015-07-03T23:42:09Z</time>
				<extensions>
				</extensions>
			</trkpt>
			<trkpt lat="-27.920028" lon="153.085852">
				<ele>50.766</ele>
				<time>2015-07-03T23:42:10Z</time>
				<extensions>
				</extensions>
			</trkpt>
			<trkpt lat="-27.920205" lon="153.085720">
				<ele>50.620</ele>
				<time>2015-07-03T23:42:11Z</time>
				<extensions>
				</extensions>
			</trkpt>
			<trkpt lat="-27.920381" lon="153.085584">
				<ele>50.287</ele>
				<time>2015-07-03T23:42:12Z</time>
				<extensions>
				</extensions>
			</trkpt>
			<trkpt lat="-27.920551" lon="153.085423">
				<ele>50.375</ele>
				<time>2015-07-03T23:42:13Z</time>
				<extensions>
				</extensions>
			</trkpt>
			<trkpt lat="-27.920708" lon="153.085242">
				<ele>51.807</ele>
				<time>2015-07-03T23:42:14Z</time>
				<extensions>
				</extensions>
			</trkpt>
			<trkpt lat="-27.920866" lon="153.085049">
				<ele>52.098</ele>
				<time>2015-07-03T23:42:15Z</time>
				<extensions>
				</extensions>
			</trkpt>
			<trkpt lat="-27.921016" lon="153.084851">
				<ele>52.090</ele>
				<time>2015-07-03T23:42:16Z</time>
				<extensions>
				</extensions>
			</trkpt>
			<trkpt lat="-27.921173" lon="153.084642">
				<ele>53.276</ele>
				<time>2015-07-03T23:42:17Z</time>
				<extensions>
				</extensions>
			</trkpt>
			<trkpt lat="-27.921333" lon="153.084433">
				<ele>53.313</ele>
				<time>2015-07-03T23:42:18Z</time>
				<extensions>
				</extensions>
			</trkpt>
			<trkpt lat="-27.921492" lon="153.084224">
				<ele>53.654</ele>
				<time>2015-07-03T23:42:19Z</time>
				<extensions>
				</extensions>
			</trkpt>
			<trkpt lat="-27.921649" lon="153.084016">
				<ele>53.142</ele>
				<time>2015-07-03T23:42:20Z</time>
				<extensions>
				</extensions>
			</trkpt>
			<trkpt lat="-27.921805" lon="153.083816">
				<ele>53.277</ele>
				<time>2015-07-03T23:42:21Z</time>
				<extensions>
				</extensions>
			</trkpt>
			<trkpt lat="-27.921957" lon="153.083620">
				<ele>52.863</ele>
				<time>2015-07-03T23:42:22Z</time>
				<extensions>
				</extensions>
			</trkpt>
			<trkpt lat="-27.922092" lon="153.083427">
				<ele>54.108</ele>
				<time>2015-07-03T23:42:23Z</time>
				<extensions>
				</extensions>
			</trkpt>
			<trkpt lat="-27.922235" lon="153.083239">
				<ele>54.768</ele>
				<time>2015-07-03T23:42:24Z</time>
				<extensions>
				</extensions>
			</trkpt>
			<trkpt lat="-27.922386" lon="153.083044">
				<ele>57.486</ele>
				<time>2015-07-03T23:42:25Z</time>
				<extensions>
				</extensions>
			</trkpt>
			<trkpt lat="-27.922528" lon="153.082849">
				<ele>58.517</ele>
				<time>2015-07-03T23:42:26Z</time>
				<extensions>
				</extensions>
			</trkpt>
			<trkpt lat="-27.922660" lon="153.082665">
				<ele>57.844</ele>
				<time>2015-07-03T23:42:27Z</time>
				<extensions>
				</extensions>
			</trkpt>
			<trkpt lat="-27.922798" lon="153.082483">
				<ele>59.516</ele>
				<time>2015-07-03T23:42:28Z</time>
				<extensions>
				</extensions>
			</trkpt>
			<trkpt lat="-27.922936" lon="153.082302">
				<ele>59.174</ele>
				<time>2015-07-03T23:42:29Z</time>
				<extensions>
				</extensions>
			</trkpt>
			<trkpt lat="-27.923055" lon="153.082138">
				<ele>58.618</ele>
				<time>2015-07-03T23:42:30Z</time>
				<extensions>
				</extensions>
			</trkpt>
			<trkpt lat="-27.923182" lon="153.081971">
				<ele>57.559</ele>
				<time>2015-07-03T23:42:31Z</time>
				<extensions>
				</extensions>
			</trkpt>
			<trkpt lat="-27.923320" lon="153.081801">
				<ele>55.429</ele>
				<time>2015-07-03T23:42:32Z</time>
				<extensions>
				</extensions>
			</trkpt>
			<trkpt lat="-27.923464" lon="153.081626">
				<ele>55.567</ele>
				<time>2015-07-03T23:42:33Z</time>
				<extensions>
				</extensions>
			</trkpt>
			<trkpt lat="-27.923608" lon="153.081455">
				<ele>55.434</ele>
				<time>2015-07-03T23:42:34Z</time>
				<extensions>
				</extensions>
			</trkpt>
			<trkpt lat="-27.923776" lon="153.081302">
				<ele>53.973</ele>
				<time>2015-07-03T23:42:35Z</time>
				<extensions>
				</extensions>
			</trkpt>
			<trkpt lat="-27.923946" lon="153.081147">
				<ele>52.028</ele>
				<time>2015-07-03T23:42:36Z</time>
				<extensions>
				</extensions>
			</trkpt>
			<trkpt lat="-27.924135" lon="153.081006">
				<ele>50.990</ele>
				<time>2015-07-03T23:42:37Z</time>
				<extensions>
				</extensions>
			</trkpt>
			<trkpt lat="-27.924328" lon="153.080888">
				<ele>49.412</ele>
				<time>2015-07-03T23:42:38Z</time>
				<extensions>
				</extensions>
			</trkpt>
			<trkpt lat="-27.924521" lon="153.080786">
				<ele>49.099</ele>
				<time>2015-07-03T23:42:39Z</time>
				<extensions>
				</extensions>
			</trkpt>
			<trkpt lat="-27.924727" lon="153.080706">
				<ele>50.134</ele>
				<time>2015-07-03T23:42:40Z</time>
				<extensions>
				</extensions>
			</trkpt>
			<trkpt lat="-27.924945" lon="153.080633">
				<ele>48.693</ele>
				<time>2015-07-03T23:42:41Z</time>
				<extensions>
				</extensions>
			</trkpt>
			<trkpt lat="-27.925170" lon="153.080574">
				<ele>50.724</ele>
				<time>2015-07-03T23:42:42Z</time>
				<extensions>
				</extensions>
			</trkpt>
			<trkpt lat="-27.925420" lon="153.080531">
				<ele>50.338</ele>
				<time>2015-07-03T23:42:43Z</time>
				<extensions>
				</extensions>
			</trkpt>
			<trkpt lat="-27.925652" lon="153.080479">
				<ele>52.132</ele>
				<time>2015-07-03T23:42:44Z</time>
				<extensions>
				</extensions>
			</trkpt>
			<trkpt lat="-27.925885" lon="153.080426">
				<ele>53.187</ele>
				<time>2015-07-03T23:42:45Z</time>
				<extensions>
				</extensions>
			</trkpt>
			<trkpt lat="-27.926126" lon="153.080383">
				<ele>52.455</ele>
				<time>2015-07-03T23:42:46Z</time>
				<extensions>
				</extensions>
			</trkpt>
			<trkpt lat="-27.926351" lon="153.080344">
				<ele>52.287</ele>
				<time>2015-07-03T23:42:47Z</time>
				<extensions>
				</extensions>
			</trkpt>
			<trkpt lat="-27.926581" lon="153.080301">
				<ele>51.614</ele>
				<time>2015-07-03T23:42:48Z</time>
				<extensions>
				</extensions>
			</trkpt>
			<trkpt lat="-27.926806" lon="153.080262">
				<ele>51.366</ele>
				<time>2015-07-03T23:42:49Z</time>
				<extensions>
				</extensions>
			</trkpt>
			<trkpt lat="-27.927023" lon="153.080219">
				<ele>51.366</ele>
				<time>2015-07-03T23:42:50Z</time>
				<extensions>
				</extensions>
			</trkpt>
			<trkpt lat="-27.927243" lon="153.080181">
				<ele>49.476</ele>
				<time>2015-07-03T23:42:51Z</time>
				<extensions>
				</extensions>
			</trkpt>
			<trkpt lat="-27.927462" lon="153.080149">
				<ele>48.809</ele>
				<time>2015-07-03T23:42:52Z</time>
				<extensions>
				</extensions>
			</trkpt>
			<trkpt lat="-27.927682" lon="153.080117">
				<ele>47.802</ele>
				<time>2015-07-03T23:42:53Z</time>
				<extensions>
				</extensions>
			</trkpt>
			<trkpt lat="-27.927901" lon="153.080083">
				<ele>48.727</ele>
				<time>2015-07-03T23:42:54Z</time>
				<extensions>
				</extensions>
			</trkpt>
			<trkpt lat="-27.928121" lon="153.080047">
				<ele>48.683</ele>
				<time>2015-07-03T23:42:55Z</time>
				<extensions>
				</extensions>
			</trkpt>
			<trkpt lat="-27.928337" lon="153.080015">
				<ele>49.528</ele>
				<time>2015-07-03T23:42:56Z</time>
				<extensions>
				</extensions>
			</trkpt>
			<trkpt lat="-27.928556" lon="153.079981">
				<ele>49.551</ele>
				<time>2015-07-03T23:42:57Z</time>
				<extensions>
				</extensions>
			</trkpt>
			<trkpt lat="-27.928786" lon="153.079947">
				<ele>50.742</ele>
				<time>2015-07-03T23:42:58Z</time>
				<extensions>
				</extensions>
			</trkpt>
			<trkpt lat="-27.928998" lon="153.079909">
				<ele>50.601</ele>
				<time>2015-07-03T23:42:59Z</time>
				<extensions>
				</extensions>
			</trkpt>
			<trkpt lat="-27.929217" lon="153.079861">
				<ele>50.175</ele>
				<time>2015-07-03T23:43:00Z</time>
				<extensions>
				</extensions>
			</trkpt>
			<trkpt lat="-27.929442" lon="153.079822">
				<ele>50.060</ele>
				<time>2015-07-03T23:43:01Z</time>
				<extensions>
				</extensions>
			</trkpt>
			<trkpt lat="-27.929655" lon="153.079787">
				<ele>50.692</ele>
				<time>2015-07-03T23:43:02Z</time>
				<extensions>
				</extensions>
			</trkpt>
			<trkpt lat="-27.929876" lon="153.079751">
				<ele>51.831</ele>
				<time>2015-07-03T23:43:03Z</time>
				<extensions>
				</extensions>
			</trkpt>
			<trkpt lat="-27.930094" lon="153.079719">
				<ele>50.630</ele>
				<time>2015-07-03T23:43:04Z</time>
				<extensions>
				</extensions>
			</trkpt>
			<trkpt lat="-27.930316" lon="153.079699">
				<ele>51.313</ele>
				<time>2015-07-03T23:43:05Z</time>
				<extensions>
				</extensions>
			</trkpt>
			<trkpt lat="-27.930541" lon="153.079690">
				<ele>51.548</ele>
				<time>2015-07-03T23:43:06Z</time>
				<extensions>
				</extensions>
			</trkpt>
			<trkpt lat="-27.930768" lon="153.079704">
				<ele>52.573</ele>
				<time>2015-07-03T23:43:07Z</time>
				<extensions>
				</extensions>
			</trkpt>
			<trkpt lat="-27.931008" lon="153.079722">
				<ele>54.086</ele>
				<time>2015-07-03T23:43:08Z</time>
				<extensions>
				</extensions>
			</trkpt>
			<trkpt lat="-27.931252" lon="153.079753">
				<ele>55.893</ele>
				<time>2015-07-03T23:43:09Z</time>
				<extensions>
				</extensions>
			</trkpt>
			<trkpt lat="-27.931500" lon="153.079790">
				<ele>56.253</ele>
				<time>2015-07-03T23:43:10Z</time>
				<extensions>
				</extensions>
			</trkpt>
			<trkpt lat="-27.931749" lon="153.079827">
				<ele>56.568</ele>
				<time>2015-07-03T23:43:11Z</time>
				<extensions>
				</extensions>
			</trkpt>
			<trkpt lat="-27.931979" lon="153.079857">
				<ele>56.247</ele>
				<time>2015-07-03T23:43:12Z</time>
				<extensions>
				</extensions>
			</trkpt>
			<trkpt lat="-27.932210" lon="153.079883">
				<ele>55.791</ele>
				<time>2015-07-03T23:43:13Z</time>
				<extensions>
				</extensions>
			</trkpt>
			<trkpt lat="-27.932438" lon="153.079905">
				<ele>55.678</ele>
				<time>2015-07-03T23:43:14Z</time>
				<extensions>
				</extensions>
			</trkpt>
			<trkpt lat="-27.932659" lon="153.079910">
				<ele>54.615</ele>
				<time>2015-07-03T23:43:15Z</time>
				<extensions>
				</extensions>
			</trkpt>
			<trkpt lat="-27.932864" lon="153.079897">
				<ele>54.300</ele>
				<time>2015-07-03T23:43:16Z</time>
				<extensions>
				</extensions>
			</trkpt>
			<trkpt lat="-27.933068" lon="153.079891">
				<ele>52.975</ele>
				<time>2015-07-03T23:43:17Z</time>
				<extensions>
				</extensions>
			</trkpt>
			<trkpt lat="-27.933283" lon="153.079866">
				<ele>52.780</ele>
				<time>2015-07-03T23:43:18Z</time>
				<extensions>
				</extensions>
			</trkpt>
			<trkpt lat="-27.933506" lon="153.079830">
				<ele>53.160</ele>
				<time>2015-07-03T23:43:19Z</time>
				<extensions>
				</extensions>
			</trkpt>
			<trkpt lat="-27.933738" lon="153.079778">
				<ele>54.413</ele>
				<time>2015-07-03T23:43:20Z</time>
				<extensions>
				</extensions>
			</trkpt>
			<trkpt lat="-27.933963" lon="153.079716">
				<ele>54.763</ele>
				<time>2015-07-03T23:43:21Z</time>
				<extensions>
				</extensions>
			</trkpt>
			<trkpt lat="-27.934193" lon="153.079634">
				<ele>55.732</ele>
				<time>2015-07-03T23:43:22Z</time>
				<extensions>
				</extensions>
			</trkpt>
			<trkpt lat="-27.934427" lon="153.079534">
				<ele>57.260</ele>
				<time>2015-07-03T23:43:23Z</time>
				<extensions>
				</extensions>
			</trkpt>
			<trkpt lat="-27.934667" lon="153.079424">
				<ele>58.645</ele>
				<time>2015-07-03T23:43:24Z</time>
				<extensions>
				</extensions>
			</trkpt>
			<trkpt lat="-27.934896" lon="153.079317">
				<ele>59.255</ele>
				<time>2015-07-03T23:43:25Z</time>
				<extensions>
				</extensions>
			</trkpt>
			<trkpt lat="-27.935114" lon="153.079209">
				<ele>58.695</ele>
				<time>2015-07-03T23:43:26Z</time>
				<extensions>
				</extensions>
			</trkpt>
			<trkpt lat="-27.935335" lon="153.079107">
				<ele>58.094</ele>
				<time>2015-07-03T23:43:27Z</time>
				<extensions>
				</extensions>
			</trkpt>
			<trkpt lat="-27.935569" lon="153.079003">
				<ele>55.679</ele>
				<time>2015-07-03T23:43:28Z</time>
				<extensions>
				</extensions>
			</trkpt>
			<trkpt lat="-27.935786" lon="153.078905">
				<ele>54.675</ele>
				<time>2015-07-03T23:43:29Z</time>
				<extensions>
				</extensions>
			</trkpt>
			<trkpt lat="-27.936003" lon="153.078815">
				<ele>54.689</ele>
				<time>2015-07-03T23:43:30Z</time>
				<extensions>
				</extensions>
			</trkpt>
			<trkpt lat="-27.936231" lon="153.078727">
				<ele>55.787</ele>
				<time>2015-07-03T23:43:31Z</time>
				<extensions>
				</extensions>
			</trkpt>
			<trkpt lat="-27.936449" lon="153.078633">
				<ele>56.669</ele>
				<time>2015-07-03T23:43:32Z</time>
				<extensions>
				</extensions>
			</trkpt>
			<trkpt lat="-27.936668" lon="153.078527">
				<ele>56.455</ele>
				<time>2015-07-03T23:43:33Z</time>
				<extensions>
				</extensions>
			</trkpt>
			<trkpt lat="-27.936875" lon="153.078427">
				<ele>57.536</ele>
				<time>2015-07-03T23:43:34Z</time>
				<extensions>
				</extensions>
			</trkpt>
			<trkpt lat="-27.937104" lon="153.078340">
				<ele>58.222</ele>
				<time>2015-07-03T23:43:35Z</time>
				<extensions>
				</extensions>
			</trkpt>
			<trkpt lat="-27.937331" lon="153.078235">
				<ele>59.617</ele>
				<time>2015-07-03T23:43:36Z</time>
				<extensions>
				</extensions>
			</trkpt>
			<trkpt lat="-27.937550" lon="153.078135">
				<ele>60.669</ele>
				<time>2015-07-03T23:43:37Z</time>
				<extensions>
				</extensions>
			</trkpt>
			<trkpt lat="-27.937772" lon="153.078039">
				<ele>61.862</ele>
				<time>2015-07-03T23:43:38Z</time>
				<extensions>
				</extensions>
			</trkpt>
			<trkpt lat="-27.937984" lon="153.077939">
				<ele>61.470</ele>
				<time>2015-07-03T23:43:39Z</time>
				<extensions>
				</extensions>
			</trkpt>
			<trkpt lat="-27.938190" lon="153.077847">
				<ele>62.107</ele>
				<time>2015-07-03T23:43:40Z</time>
				<extensions>
				</extensions>
			</trkpt>
			<trkpt lat="-27.938396" lon="153.077753">
				<ele>62.466</ele>
				<time>2015-07-03T23:43:41Z</time>
				<extensions>
				</extensions>
			</trkpt>
			<trkpt lat="-27.938602" lon="153.077652">
				<ele>64.323</ele>
				<time>2015-07-03T23:43:42Z</time>
				<extensions>
				</extensions>
			</trkpt>
			<trkpt lat="-27.938804" lon="153.077557">
				<ele>65.814</ele>
				<time>2015-07-03T23:43:43Z</time>
				<extensions>
				</extensions>
			</trkpt>
			<trkpt lat="-27.938999" lon="153.077471">
				<ele>66.194</ele>
				<time>2015-07-03T23:43:44Z</time>
				<extensions>
				</extensions>
			</trkpt>
			<trkpt lat="-27.939191" lon="153.077381">
				<ele>66.819</ele>
				<time>2015-07-03T23:43:45Z</time>
				<extensions>
				</extensions>
			</trkpt>
			<trkpt lat="-27.939382" lon="153.077292">
				<ele>67.242</ele>
				<time>2015-07-03T23:43:46Z</time>
				<extensions>
				</extensions>
			</trkpt>
			<trkpt lat="-27.939575" lon="153.077206">
				<ele>67.704</ele>
				<time>2015-07-03T23:43:47Z</time>
				<extensions>
				</extensions>
			</trkpt>
			<trkpt lat="-27.939770" lon="153.077112">
				<ele>67.977</ele>
				<time>2015-07-03T23:43:48Z</time>
				<extensions>
				</extensions>
			</trkpt>
			<trkpt lat="-27.939967" lon="153.077021">
				<ele>68.742</ele>
				<time>2015-07-03T23:43:49Z</time>
				<extensions>
				</extensions>
			</trkpt>
			<trkpt lat="-27.940167" lon="153.076931">
				<ele>67.788</ele>
				<time>2015-07-03T23:43:50Z</time>
				<extensions>
				</extensions>
			</trkpt>
			<trkpt lat="-27.940381" lon="153.076834">
				<ele>68.563</ele>
				<time>2015-07-03T23:43:51Z</time>
				<extensions>
				</extensions>
			</trkpt>
			<trkpt lat="-27.940605" lon="153.076737">
				<ele>67.828</ele>
				<time>2015-07-03T23:43:52Z</time>
				<extensions>
				</extensions>
			</trkpt>
			<trkpt lat="-27.940832" lon="153.076639">
				<ele>68.734</ele>
				<time>2015-07-03T23:43:53Z</time>
				<extensions>
				</extensions>
			</trkpt>
			<trkpt lat="-27.941052" lon="153.076539">
				<ele>68.734</ele>
				<time>2015-07-03T23:43:54Z</time>
				<extensions>
				</extensions>
			</trkpt>
			<trkpt lat="-27.941274" lon="153.076441">
				<ele>66.925</ele>
				<time>2015-07-03T23:43:55Z</time>
				<extensions>
				</extensions>
			</trkpt>
			<trkpt lat="-27.941490" lon="153.076346">
				<ele>67.811</ele>
				<time>2015-07-03T23:43:56Z</time>
				<extensions>
				</extensions>
			</trkpt>
			<trkpt lat="-27.941703" lon="153.076252">
				<ele>67.155</ele>
				<time>2015-07-03T23:43:57Z</time>
				<extensions>
				</extensions>
			</trkpt>
			<trkpt lat="-27.941909" lon="153.076164">
				<ele>67.218</ele>
				<time>2015-07-03T23:43:58Z</time>
				<extensions>
				</extensions>
			</trkpt>
			<trkpt lat="-27.942106" lon="153.076079">
				<ele>68.374</ele>
				<time>2015-07-03T23:43:59Z</time>
				<extensions>
				</extensions>
			</trkpt>
			<trkpt lat="-27.942290" lon="153.075998">
				<ele>68.104</ele>
				<time>2015-07-03T23:44:00Z</time>
				<extensions>
				</extensions>
			</trkpt>
			<trkpt lat="-27.942474" lon="153.075917">
				<ele>66.943</ele>
				<time>2015-07-03T23:44:01Z</time>
				<extensions>
				</extensions>
			</trkpt>
			<trkpt lat="-27.942651" lon="153.075821">
				<ele>66.135</ele>
				<time>2015-07-03T23:44:02Z</time>
				<extensions>
				</extensions>
			</trkpt>
			<trkpt lat="-27.942836" lon="153.075729">
				<ele>68.505</ele>
				<time>2015-07-03T23:44:03Z</time>
				<extensions>
				</extensions>
			</trkpt>
			<trkpt lat="-27.943015" lon="153.075650">
				<ele>69.056</ele>
				<time>2015-07-03T23:44:04Z</time>
				<extensions>
				</extensions>
			</trkpt>
			<trkpt lat="-27.943200" lon="153.075572">
				<ele>70.129</ele>
				<time>2015-07-03T23:44:05Z</time>
				<extensions>
				</extensions>
			</trkpt>
			<trkpt lat="-27.943374" lon="153.075495">
				<ele>71.644</ele>
				<time>2015-07-03T23:44:06Z</time>
				<extensions>
				</extensions>
			</trkpt>
			<trkpt lat="-27.943565" lon="153.075417">
				<ele>72.353</ele>
				<time>2015-07-03T23:44:07Z</time>
				<extensions>
				</extensions>
			</trkpt>
			<trkpt lat="-27.943758" lon="153.075331">
				<ele>74.245</ele>
				<time>2015-07-03T23:44:08Z</time>
				<extensions>
				</extensions>
			</trkpt>
			<trkpt lat="-27.943956" lon="153.075241">
				<ele>77.587</ele>
				<time>2015-07-03T23:44:09Z</time>
				<extensions>
				</extensions>
			</trkpt>
			<trkpt lat="-27.944151" lon="153.075153">
				<ele>79.258</ele>
				<time>2015-07-03T23:44:10Z</time>
				<extensions>
				</extensions>
			</trkpt>
			<trkpt lat="-27.944351" lon="153.075065">
				<ele>84.128</ele>
				<time>2015-07-03T23:44:11Z</time>
				<extensions>
				</extensions>
			</trkpt>
			<trkpt lat="-27.944556" lon="153.074978">
				<ele>84.796</ele>
				<time>2015-07-03T23:44:12Z</time>
				<extensions>
				</extensions>
			</trkpt>
			<trkpt lat="-27.944753" lon="153.074885">
				<ele>85.321</ele>
				<time>2015-07-03T23:44:13Z</time>
				<extensions>
				</extensions>
			</trkpt>
			<trkpt lat="-27.944953" lon="153.074793">
				<ele>87.668</ele>
				<time>2015-07-03T23:44:14Z</time>
				<extensions>
				</extensions>
			</trkpt>
			<trkpt lat="-27.945149" lon="153.074702">
				<ele>90.814</ele>
				<time>2015-07-03T23:44:15Z</time>
				<extensions>
				</extensions>
			</trkpt>
			<trkpt lat="-27.945353" lon="153.074611">
				<ele>91.393</ele>
				<time>2015-07-03T23:44:16Z</time>
				<extensions>
				</extensions>
			</trkpt>
			<trkpt lat="-27.945572" lon="153.074522">
				<ele>92.252</ele>
				<time>2015-07-03T23:44:17Z</time>
				<extensions>
				</extensions>
			</trkpt>
			<trkpt lat="-27.945786" lon="153.074429">
				<ele>92.757</ele>
				<time>2015-07-03T23:44:18Z</time>
				<extensions>
				</extensions>
			</trkpt>
			<trkpt lat="-27.945994" lon="153.074337">
				<ele>92.725</ele>
				<time>2015-07-03T23:44:19Z</time>
				<extensions>
				</extensions>
			</trkpt>
			<trkpt lat="-27.946198" lon="153.074240">
				<ele>90.254</ele>
				<time>2015-07-03T23:44:20Z</time>
				<extensions>
				</extensions>
			</trkpt>
			<trkpt lat="-27.946405" lon="153.074158">
				<ele>88.687</ele>
				<time>2015-07-03T23:44:21Z</time>
				<extensions>
				</extensions>
			</trkpt>
			<trkpt lat="-27.946607" lon="153.074076">
				<ele>86.971</ele>
				<time>2015-07-03T23:44:22Z</time>
				<extensions>
				</extensions>
			</trkpt>
			<trkpt lat="-27.946810" lon="153.073991">
				<ele>86.297</ele>
				<time>2015-07-03T23:44:23Z</time>
				<extensions>
				</extensions>
			</trkpt>
			<trkpt lat="-27.947023" lon="153.073902">
				<ele>86.180</ele>
				<time>2015-07-03T23:44:24Z</time>
				<extensions>
				</extensions>
			</trkpt>
			<trkpt lat="-27.947233" lon="153.073812">
				<ele>86.682</ele>
				<time>2015-07-03T23:44:25Z</time>
				<extensions>
				</extensions>
			</trkpt>
			<trkpt lat="-27.947437" lon="153.073717">
				<ele>87.038</ele>
				<time>2015-07-03T23:44:26Z</time>
				<extensions>
				</extensions>
			</trkpt>
			<trkpt lat="-27.947639" lon="153.073621">
				<ele>86.680</ele>
				<time>2015-07-03T23:44:27Z</time>
				<extensions>
				</extensions>
			</trkpt>
			<trkpt lat="-27.947841" lon="153.073527">
				<ele>87.561</ele>
				<time>2015-07-03T23:44:28Z</time>
				<extensions>
				</extensions>
			</trkpt>
			<trkpt lat="-27.948045" lon="153.073439">
				<ele>88.162</ele>
				<time>2015-07-03T23:44:29Z</time>
				<extensions>
				</extensions>
			</trkpt>
			<trkpt lat="-27.948246" lon="153.073352">
				<ele>89.599</ele>
				<time>2015-07-03T23:44:30Z</time>
				<extensions>
				</extensions>
			</trkpt>
			<trkpt lat="-27.948445" lon="153.073256">
				<ele>92.269</ele>
				<time>2015-07-03T23:44:31Z</time>
				<extensions>
				</extensions>
			</trkpt>
			<trkpt lat="-27.948647" lon="153.073152">
				<ele>94.423</ele>
				<time>2015-07-03T23:44:32Z</time>
				<extensions>
				</extensions>
			</trkpt>
			<trkpt lat="-27.948827" lon="153.073052">
				<ele>94.286</ele>
				<time>2015-07-03T23:44:33Z</time>
				<extensions>
				</extensions>
			</trkpt>
			<trkpt lat="-27.948986" lon="153.072907">
				<ele>95.207</ele>
				<time>2015-07-03T23:44:34Z</time>
				<extensions>
				</extensions>
			</trkpt>
			<trkpt lat="-27.949173" lon="153.072773">
				<ele>96.285</ele>
				<time>2015-07-03T23:44:35Z</time>
				<extensions>
				</extensions>
			</trkpt>
			<trkpt lat="-27.949354" lon="153.072623">
				<ele>96.992</ele>
				<time>2015-07-03T23:44:36Z</time>
				<extensions>
				</extensions>
			</trkpt>
			<trkpt lat="-27.949528" lon="153.072474">
				<ele>97.707</ele>
				<time>2015-07-03T23:44:37Z</time>
				<extensions>
				</extensions>
			</trkpt>
			<trkpt lat="-27.949710" lon="153.072312">
				<ele>98.313</ele>
				<time>2015-07-03T23:44:38Z</time>
				<extensions>
				</extensions>
			</trkpt>
			<trkpt lat="-27.949904" lon="153.072170">
				<ele>98.502</ele>
				<time>2015-07-03T23:44:39Z</time>
				<extensions>
				</extensions>
			</trkpt>
			<trkpt lat="-27.950098" lon="153.072038">
				<ele>99.432</ele>
				<time>2015-07-03T23:44:40Z</time>
				<extensions>
				</extensions>
			</trkpt>
			<trkpt lat="-27.950294" lon="153.071926">
				<ele>98.470</ele>
				<time>2015-07-03T23:44:41Z</time>
				<extensions>
				</extensions>
			</trkpt>
			<trkpt lat="-27.950494" lon="153.071836">
				<ele>97.119</ele>
				<time>2015-07-03T23:44:42Z</time>
				<extensions>
				</extensions>
			</trkpt>
			<trkpt lat="-27.950695" lon="153.071744">
				<ele>96.062</ele>
				<time>2015-07-03T23:44:43Z</time>
				<extensions>
				</extensions>
			</trkpt>
			<trkpt lat="-27.950909" lon="153.071665">
				<ele>95.062</ele>
				<time>2015-07-03T23:44:44Z</time>
				<extensions>
				</extensions>
			</trkpt>
			<trkpt lat="-27.951118" lon="153.071581">
				<ele>95.229</ele>
				<time>2015-07-03T23:44:45Z</time>
				<extensions>
				</extensions>
			</trkpt>
			<trkpt lat="-27.951306" lon="153.071501">
				<ele>96.209</ele>
				<time>2015-07-03T23:44:46Z</time>
				<extensions>
				</extensions>
			</trkpt>
			<trkpt lat="-27.951504" lon="153.071441">
				<ele>96.088</ele>
				<time>2015-07-03T23:44:47Z</time>
				<extensions>
				</extensions>
			</trkpt>
			<trkpt lat="-27.951701" lon="153.071366">
				<ele>98.841</ele>
				<time>2015-07-03T23:44:48Z</time>
				<extensions>
				</extensions>
			</trkpt>
			<trkpt lat="-27.951887" lon="153.071296">
				<ele>99.278</ele>
				<time>2015-07-03T23:44:49Z</time>
				<extensions>
				</extensions>
			</trkpt>
			<trkpt lat="-27.952069" lon="153.071226">
				<ele>100.389</ele>
				<time>2015-07-03T23:44:50Z</time>
				<extensions>
				</extensions>
			</trkpt>
			<trkpt lat="-27.952246" lon="153.071155">
				<ele>100.815</ele>
				<time>2015-07-03T23:44:51Z</time>
				<extensions>
				</extensions>
			</trkpt>
			<trkpt lat="-27.952421" lon="153.071087">
				<ele>100.759</ele>
				<time>2015-07-03T23:44:52Z</time>
				<extensions>
				</extensions>
			</trkpt>
			<trkpt lat="-27.952734" lon="153.070957">
				<ele>99.183</ele>
				<time>2015-07-03T23:44:54Z</time>
				<extensions>
				</extensions>
			</trkpt>
			<trkpt lat="-27.952918" lon="153.070896">
				<ele>99.582</ele>
				<time>2015-07-03T23:44:55Z</time>
				<extensions>
				</extensions>
			</trkpt>
			<trkpt lat="-27.953098" lon="153.070827">
				<ele>99.510</ele>
				<time>2015-07-03T23:44:56Z</time>
				<extensions>
				</extensions>
			</trkpt>
			<trkpt lat="-27.953284" lon="153.070771">
				<ele>100.102</ele>
				<time>2015-07-03T23:44:57Z</time>
				<extensions>
				</extensions>
			</trkpt>
			<trkpt lat="-27.953473" lon="153.070725">
				<ele>100.942</ele>
				<time>2015-07-03T23:44:58Z</time>
				<extensions>
				</extensions>
			</trkpt>
			<trkpt lat="-27.953674" lon="153.070695">
				<ele>99.649</ele>
				<time>2015-07-03T23:44:59Z</time>
				<extensions>
				</extensions>
			</trkpt>
			<trkpt lat="-27.953864" lon="153.070687">
				<ele>99.649</ele>
				<time>2015-07-03T23:45:00Z</time>
				<extensions>
				</extensions>
			</trkpt>
			<trkpt lat="-27.954059" lon="153.070703">
				<ele>100.364</ele>
				<time>2015-07-03T23:45:01Z</time>
				<extensions>
				</extensions>
			</trkpt>
			<trkpt lat="-27.954270" lon="153.070724">
				<ele>100.364</ele>
				<time>2015-07-03T23:45:02Z</time>
				<extensions>
				</extensions>
			</trkpt>
			<trkpt lat="-27.954482" lon="153.070749">
				<ele>101.065</ele>
				<time>2015-07-03T23:45:03Z</time>
				<extensions>
				</extensions>
			</trkpt>
			<trkpt lat="-27.954679" lon="153.070795">
				<ele>100.929</ele>
				<time>2015-07-03T23:45:04Z</time>
				<extensions>
				</extensions>
			</trkpt>
			<trkpt lat="-27.954880" lon="153.070832">
				<ele>102.529</ele>
				<time>2015-07-03T23:45:05Z</time>
				<extensions>
				</extensions>
			</trkpt>
			<trkpt lat="-27.955067" lon="153.070864">
				<ele>102.170</ele>
				<time>2015-07-03T23:45:06Z</time>
				<extensions>
				</extensions>
			</trkpt>
			<trkpt lat="-27.955252" lon="153.070893">
				<ele>101.760</ele>
				<time>2015-07-03T23:45:07Z</time>
				<extensions>
				</extensions>
			</trkpt>
			<trkpt lat="-27.955436" lon="153.070902">
				<ele>102.844</ele>
				<time>2015-07-03T23:45:08Z</time>
				<extensions>
				</extensions>
			</trkpt>
			<trkpt lat="-27.955624" lon="153.070887">
				<ele>102.988</ele>
				<time>2015-07-03T23:45:09Z</time>
				<extensions>
				</extensions>
			</trkpt>
			<trkpt lat="-27.955978" lon="153.070805">
				<ele>103.157</ele>
				<time>2015-07-03T23:45:11Z</time>
				<extensions>
				</extensions>
			</trkpt>
			<trkpt lat="-27.956151" lon="153.070734">
				<ele>103.105</ele>
				<time>2015-07-03T23:45:12Z</time>
				<extensions>
				</extensions>
			</trkpt>
			<trkpt lat="-27.956473" lon="153.070536">
				<ele>102.934</ele>
				<time>2015-07-03T23:45:14Z</time>
				<extensions>
				</extensions>
			</trkpt>
			<trkpt lat="-27.956625" lon="153.070400">
				<ele>102.324</ele>
				<time>2015-07-03T23:45:15Z</time>
				<extensions>
				</extensions>
			</trkpt>
			<trkpt lat="-27.956769" lon="153.070243">
				<ele>101.025</ele>
				<time>2015-07-03T23:45:16Z</time>
				<extensions>
				</extensions>
			</trkpt>
			<trkpt lat="-27.956905" lon="153.070068">
				<ele>99.293</ele>
				<time>2015-07-03T23:45:17Z</time>
				<extensions>
				</extensions>
			</trkpt>
			<trkpt lat="-27.957035" lon="153.069883">
				<ele>99.337</ele>
				<time>2015-07-03T23:45:18Z</time>
				<extensions>
				</extensions>
			</trkpt>
			<trkpt lat="-27.957173" lon="153.069693">
				<ele>99.761</ele>
				<time>2015-07-03T23:45:19Z</time>
				<extensions>
				</extensions>
			</trkpt>
			<trkpt lat="-27.957327" lon="153.069505">
				<ele>98.014</ele>
				<time>2015-07-03T23:45:20Z</time>
				<extensions>
				</extensions>
			</trkpt>
			<trkpt lat="-27.957486" lon="153.069344">
				<ele>96.057</ele>
				<time>2015-07-03T23:45:21Z</time>
				<extensions>
				</extensions>
			</trkpt>
			<trkpt lat="-27.957671" lon="153.069201">
				<ele>94.246</ele>
				<time>2015-07-03T23:45:22Z</time>
				<extensions>
				</extensions>
			</trkpt>
			<trkpt lat="-27.957852" lon="153.069078">
				<ele>92.131</ele>
				<time>2015-07-03T23:45:23Z</time>
				<extensions>
				</extensions>
			</trkpt>
			<trkpt lat="-27.958052" lon="153.068970">
				<ele>92.299</ele>
				<time>2015-07-03T23:45:24Z</time>
				<extensions>
				</extensions>
			</trkpt>
			<trkpt lat="-27.958266" lon="153.068868">
				<ele>91.907</ele>
				<time>2015-07-03T23:45:25Z</time>
				<extensions>
				</extensions>
			</trkpt>
			<trkpt lat="-27.958475" lon="153.068782">
				<ele>89.468</ele>
				<time>2015-07-03T23:45:26Z</time>
				<extensions>
				</extensions>
			</trkpt>
			<trkpt lat="-27.958669" lon="153.068686">
				<ele>87.122</ele>
				<time>2015-07-03T23:45:27Z</time>
				<extensions>
				</extensions>
			</trkpt>
			<trkpt lat="-27.958874" lon="153.068594">
				<ele>85.803</ele>
				<time>2015-07-03T23:45:28Z</time>
				<extensions>
				</extensions>
			</trkpt>
			<trkpt lat="-27.959087" lon="153.068505">
				<ele>84.783</ele>
				<time>2015-07-03T23:45:29Z</time>
				<extensions>
				</extensions>
			</trkpt>
			<trkpt lat="-27.959298" lon="153.068409">
				<ele>83.926</ele>
				<time>2015-07-03T23:45:30Z</time>
				<extensions>
				</extensions>
			</trkpt>
			<trkpt lat="-27.959510" lon="153.068315">
				<ele>82.342</ele>
				<time>2015-07-03T23:45:31Z</time>
				<extensions>
				</extensions>
			</trkpt>
			<trkpt lat="-27.959723" lon="153.068211">
				<ele>80.209</ele>
				<time>2015-07-03T23:45:32Z</time>
				<extensions>
				</extensions>
			</trkpt>
			<trkpt lat="-27.959944" lon="153.068108">
				<ele>79.739</ele>
				<time>2015-07-03T23:45:33Z</time>
				<extensions>
				</extensions>
			</trkpt>
			<trkpt lat="-27.960153" lon="153.068022">
				<ele>77.797</ele>
				<time>2015-07-03T23:45:34Z</time>
				<extensions>
				</extensions>
			</trkpt>
			<trkpt lat="-27.960359" lon="153.067934">
				<ele>74.892</ele>
				<time>2015-07-03T23:45:35Z</time>
				<extensions>
				</extensions>
			</trkpt>
			<trkpt lat="-27.960565" lon="153.067846">
				<ele>73.628</ele>
				<time>2015-07-03T23:45:36Z</time>
				<extensions>
				</extensions>
			</trkpt>
			<trkpt lat="-27.960771" lon="153.067738">
				<ele>73.358</ele>
				<time>2015-07-03T23:45:37Z</time>
				<extensions>
				</extensions>
			</trkpt>
			<trkpt lat="-27.960967" lon="153.067622">
				<ele>72.346</ele>
				<time>2015-07-03T23:45:38Z</time>
				<extensions>
				</extensions>
			</trkpt>
			<trkpt lat="-27.961159" lon="153.067498">
				<ele>71.851</ele>
				<time>2015-07-03T23:45:39Z</time>
				<extensions>
				</extensions>
			</trkpt>
			<trkpt lat="-27.961345" lon="153.067357">
				<ele>71.940</ele>
				<time>2015-07-03T23:45:40Z</time>
				<extensions>
				</extensions>
			</trkpt>
			<trkpt lat="-27.961531" lon="153.067201">
				<ele>71.997</ele>
				<time>2015-07-03T23:45:41Z</time>
				<extensions>
				</extensions>
			</trkpt>
			<trkpt lat="-27.961711" lon="153.067041">
				<ele>72.186</ele>
				<time>2015-07-03T23:45:42Z</time>
				<extensions>
				</extensions>
			</trkpt>
			<trkpt lat="-27.961893" lon="153.066878">
				<ele>71.192</ele>
				<time>2015-07-03T23:45:43Z</time>
				<extensions>
				</extensions>
			</trkpt>
			<trkpt lat="-27.962072" lon="153.066713">
				<ele>71.100</ele>
				<time>2015-07-03T23:45:44Z</time>
				<extensions>
				</extensions>
			</trkpt>
			<trkpt lat="-27.962249" lon="153.066552">
				<ele>71.433</ele>
				<time>2015-07-03T23:45:45Z</time>
				<extensions>
				</extensions>
			</trkpt>
			<trkpt lat="-27.962428" lon="153.066385">
				<ele>71.310</ele>
				<time>2015-07-03T23:45:46Z</time>
				<extensions>
				</extensions>
			</trkpt>
			<trkpt lat="-27.962599" lon="153.066221">
				<ele>70.462</ele>
				<time>2015-07-03T23:45:47Z</time>
				<extensions>
				</extensions>
			</trkpt>
			<trkpt lat="-27.962769" lon="153.066065">
				<ele>70.699</ele>
				<time>2015-07-03T23:45:48Z</time>
				<extensions>
				</extensions>
			</trkpt>
			<trkpt lat="-27.962939" lon="153.065913">
				<ele>69.214</ele>
				<time>2015-07-03T23:45:49Z</time>
				<extensions>
				</extensions>
			</trkpt>
			<trkpt lat="-27.963107" lon="153.065758">
				<ele>68.494</ele>
				<time>2015-07-03T23:45:50Z</time>
				<extensions>
				</extensions>
			</trkpt>
			<trkpt lat="-27.963281" lon="153.065590">
				<ele>69.955</ele>
				<time>2015-07-03T23:45:51Z</time>
				<extensions>
				</extensions>
			</trkpt>
			<trkpt lat="-27.963459" lon="153.065432">
				<ele>70.397</ele>
				<time>2015-07-03T23:45:52Z</time>
				<extensions>
				</extensions>
			</trkpt>
			<trkpt lat="-27.963639" lon="153.065267">
				<ele>69.404</ele>
				<time>2015-07-03T23:45:53Z</time>
				<extensions>
				</extensions>
			</trkpt>
			<trkpt lat="-27.963814" lon="153.065103">
				<ele>71.040</ele>
				<time>2015-07-03T23:45:54Z</time>
				<extensions>
				</extensions>
			</trkpt>
			<trkpt lat="-27.963999" lon="153.064935">
				<ele>72.707</ele>
				<time>2015-07-03T23:45:55Z</time>
				<extensions>
				</extensions>
			</trkpt>
			<trkpt lat="-27.964173" lon="153.064775">
				<ele>74.257</ele>
				<time>2015-07-03T23:45:56Z</time>
				<extensions>
				</extensions>
			</trkpt>
			<trkpt lat="-27.964347" lon="153.064620">
				<ele>76.523</ele>
				<time>2015-07-03T23:45:57Z</time>
				<extensions>
				</extensions>
			</trkpt>
			<trkpt lat="-27.964520" lon="153.064462">
				<ele>78.374</ele>
				<time>2015-07-03T23:45:58Z</time>
				<extensions>
				</extensions>
			</trkpt>
			<trkpt lat="-27.964691" lon="153.064310">
				<ele>79.960</ele>
				<time>2015-07-03T23:45:59Z</time>
				<extensions>
				</extensions>
			</trkpt>
			<trkpt lat="-27.964853" lon="153.064170">
				<ele>79.843</ele>
				<time>2015-07-03T23:46:00Z</time>
				<extensions>
				</extensions>
			</trkpt>
			<trkpt lat="-27.965015" lon="153.064024">
				<ele>81.875</ele>
				<time>2015-07-03T23:46:01Z</time>
				<extensions>
				</extensions>
			</trkpt>
			<trkpt lat="-27.965178" lon="153.063874">
				<ele>80.314</ele>
				<time>2015-07-03T23:46:02Z</time>
				<extensions>
				</extensions>
			</trkpt>
			<trkpt lat="-27.965346" lon="153.063717">
				<ele>80.851</ele>
				<time>2015-07-03T23:46:03Z</time>
				<extensions>
				</extensions>
			</trkpt>
			<trkpt lat="-27.965520" lon="153.063557">
				<ele>82.397</ele>
				<time>2015-07-03T23:46:04Z</time>
				<extensions>
				</extensions>
			</trkpt>
			<trkpt lat="-27.965704" lon="153.063391">
				<ele>83.929</ele>
				<time>2015-07-03T23:46:05Z</time>
				<extensions>
				</extensions>
			</trkpt>
			<trkpt lat="-27.965901" lon="153.063219">
				<ele>82.900</ele>
				<time>2015-07-03T23:46:06Z</time>
				<extensions>
				</extensions>
			</trkpt>
			<trkpt lat="-27.966092" lon="153.063042">
				<ele>79.423</ele>
				<time>2015-07-03T23:46:07Z</time>
				<extensions>
				</extensions>
			</trkpt>
			<trkpt lat="-27.966286" lon="153.062859">
				<ele>78.013</ele>
				<time>2015-07-03T23:46:08Z</time>
				<extensions>
				</extensions>
			</trkpt>
			<trkpt lat="-27.966485" lon="153.062680">
				<ele>78.013</ele>
				<time>2015-07-03T23:46:09Z</time>
				<extensions>
				</extensions>
			</trkpt>
			<trkpt lat="-27.966687" lon="153.062501">
				<ele>75.132</ele>
				<time>2015-07-03T23:46:10Z</time>
				<extensions>
				</extensions>
			</trkpt>
			<trkpt lat="-27.966882" lon="153.062318">
				<ele>74.556</ele>
				<time>2015-07-03T23:46:11Z</time>
				<extensions>
				</extensions>
			</trkpt>
			<trkpt lat="-27.967079" lon="153.062143">
				<ele>73.477</ele>
				<time>2015-07-03T23:46:12Z</time>
				<extensions>
				</extensions>
			</trkpt>
			<trkpt lat="-27.967268" lon="153.061973">
				<ele>72.440</ele>
				<time>2015-07-03T23:46:13Z</time>
				<extensions>
				</extensions>
			</trkpt>
			<trkpt lat="-27.967472" lon="153.061823">
				<ele>71.405</ele>
				<time>2015-07-03T23:46:14Z</time>
				<extensions>
				</extensions>
			</trkpt>
			<trkpt lat="-27.967690" lon="153.061693">
				<ele>70.076</ele>
				<time>2015-07-03T23:46:15Z</time>
				<extensions>
				</extensions>
			</trkpt>
			<trkpt lat="-27.967914" lon="153.061583">
				<ele>70.034</ele>
				<time>2015-07-03T23:46:16Z</time>
				<extensions>
				</extensions>
			</trkpt>
			<trkpt lat="-27.968160" lon="153.061500">
				<ele>70.297</ele>
				<time>2015-07-03T23:46:17Z</time>
				<extensions>
				</extensions>
			</trkpt>
			<trkpt lat="-27.968404" lon="153.061441">
				<ele>70.706</ele>
				<time>2015-07-03T23:46:18Z</time>
				<extensions>
				</extensions>
			</trkpt>
			<trkpt lat="-27.968650" lon="153.061391">
				<ele>70.930</ele>
				<time>2015-07-03T23:46:19Z</time>
				<extensions>
				</extensions>
			</trkpt>
			<trkpt lat="-27.968891" lon="153.061340">
				<ele>71.297</ele>
				<time>2015-07-03T23:46:20Z</time>
				<extensions>
				</extensions>
			</trkpt>
			<trkpt lat="-27.969121" lon="153.061295">
				<ele>69.951</ele>
				<time>2015-07-03T23:46:21Z</time>
				<extensions>
				</extensions>
			</trkpt>
			<trkpt lat="-27.969344" lon="153.061246">
				<ele>67.803</ele>
				<time>2015-07-03T23:46:22Z</time>
				<extensions>
				</extensions>
			</trkpt>
			<trkpt lat="-27.969571" lon="153.061204">
				<ele>68.964</ele>
				<time>2015-07-03T23:46:23Z</time>
				<extensions>
				</extensions>
			</trkpt>
			<trkpt lat="-27.969791" lon="153.061158">
				<ele>70.353</ele>
				<time>2015-07-03T23:46:24Z</time>
				<extensions>
				</extensions>
			</trkpt>
			<trkpt lat="-27.970011" lon="153.061110">
				<ele>72.056</ele>
				<time>2015-07-03T23:46:25Z</time>
				<extensions>
				</extensions>
			</trkpt>
			<trkpt lat="-27.970231" lon="153.061055">
				<ele>71.613</ele>
				<time>2015-07-03T23:46:26Z</time>
				<extensions>
				</extensions>
			</trkpt>
			<trkpt lat="-27.970455" lon="153.061004">
				<ele>71.051</ele>
				<time>2015-07-03T23:46:27Z</time>
				<extensions>
				</extensions>
			</trkpt>
			<trkpt lat="-27.970674" lon="153.060964">
				<ele>71.574</ele>
				<time>2015-07-03T23:46:28Z</time>
				<extensions>
				</extensions>
			</trkpt>
			<trkpt lat="-27.970898" lon="153.060920">
				<ele>71.688</ele>
				<time>2015-07-03T23:46:29Z</time>
				<extensions>
				</extensions>
			</trkpt>
			<trkpt lat="-27.971128" lon="153.060879">
				<ele>72.267</ele>
				<time>2015-07-03T23:46:30Z</time>
				<extensions>
				</extensions>
			</trkpt>
			<trkpt lat="-27.971369" lon="153.060824">
				<ele>73.297</ele>
				<time>2015-07-03T23:46:31Z</time>
				<extensions>
				</extensions>
			</trkpt>
			<trkpt lat="-27.971596" lon="153.060782">
				<ele>74.050</ele>
				<time>2015-07-03T23:46:32Z</time>
				<extensions>
				</extensions>
			</trkpt>
			<trkpt lat="-27.971829" lon="153.060738">
				<ele>73.264</ele>
				<time>2015-07-03T23:46:33Z</time>
				<extensions>
				</extensions>
			</trkpt>
			<trkpt lat="-27.972063" lon="153.060689">
				<ele>71.486</ele>
				<time>2015-07-03T23:46:34Z</time>
				<extensions>
				</extensions>
			</trkpt>
			<trkpt lat="-27.972275" lon="153.060648">
				<ele>70.608</ele>
				<time>2015-07-03T23:46:35Z</time>
				<extensions>
				</extensions>
			</trkpt>
			<trkpt lat="-27.972508" lon="153.060614">
				<ele>70.279</ele>
				<time>2015-07-03T23:46:36Z</time>
				<extensions>
				</extensions>
			</trkpt>
			<trkpt lat="-27.972717" lon="153.060566">
				<ele>70.460</ele>
				<time>2015-07-03T23:46:37Z</time>
				<extensions>
				</extensions>
			</trkpt>
			<trkpt lat="-27.972912" lon="153.060532">
				<ele>70.946</ele>
				<time>2015-07-03T23:46:38Z</time>
				<extensions>
				</extensions>
			</trkpt>
			<trkpt lat="-27.973100" lon="153.060488">
				<ele>70.299</ele>
				<time>2015-07-03T23:46:39Z</time>
				<extensions>
				</extensions>
			</trkpt>
			<trkpt lat="-27.973291" lon="153.060445">
				<ele>71.328</ele>
				<time>2015-07-03T23:46:40Z</time>
				<extensions>
				</extensions>
			</trkpt>
			<trkpt lat="-27.973480" lon="153.060384">
				<ele>72.321</ele>
				<time>2015-07-03T23:46:41Z</time>
				<extensions>
				</extensions>
			</trkpt>
			<trkpt lat="-27.973674" lon="153.060292">
				<ele>73.627</ele>
				<time>2015-07-03T23:46:42Z</time>
				<extensions>
				</extensions>
			</trkpt>
			<trkpt lat="-27.973871" lon="153.060183">
				<ele>76.118</ele>
				<time>2015-07-03T23:46:43Z</time>
				<extensions>
				</extensions>
			</trkpt>
			<trkpt lat="-27.974070" lon="153.060060">
				<ele>78.790</ele>
				<time>2015-07-03T23:46:44Z</time>
				<extensions>
				</extensions>
			</trkpt>
			<trkpt lat="-27.974271" lon="153.059931">
				<ele>80.955</ele>
				<time>2015-07-03T23:46:45Z</time>
				<extensions>
				</extensions>
			</trkpt>
			<trkpt lat="-27.974470" lon="153.059800">
				<ele>81.549</ele>
				<time>2015-07-03T23:46:46Z</time>
				<extensions>
				</extensions>
			</trkpt>
			<trkpt lat="-27.974656" lon="153.059669">
				<ele>81.147</ele>
				<time>2015-07-03T23:46:47Z</time>
				<extensions>
				</extensions>
			</trkpt>
			<trkpt lat="-27.974849" lon="153.059548">
				<ele>80.697</ele>
				<time>2015-07-03T23:46:48Z</time>
				<extensions>
				</extensions>
			</trkpt>
			<trkpt lat="-27.975037" lon="153.059448">
				<ele>80.481</ele>
				<time>2015-07-03T23:46:49Z</time>
				<extensions>
				</extensions>
			</trkpt>
			<trkpt lat="-27.975249" lon="153.059362">
				<ele>80.230</ele>
				<time>2015-07-03T23:46:50Z</time>
				<extensions>
				</extensions>
			</trkpt>
			<trkpt lat="-27.975464" lon="153.059265">
				<ele>80.302</ele>
				<time>2015-07-03T23:46:51Z</time>
				<extensions>
				</extensions>
			</trkpt>
			<trkpt lat="-27.975679" lon="153.059165">
				<ele>79.756</ele>
				<time>2015-07-03T23:46:52Z</time>
				<extensions>
				</extensions>
			</trkpt>
			<trkpt lat="-27.975909" lon="153.059069">
				<ele>79.032</ele>
				<time>2015-07-03T23:46:53Z</time>
				<extensions>
				</extensions>
			</trkpt>
			<trkpt lat="-27.976152" lon="153.058977">
				<ele>78.451</ele>
				<time>2015-07-03T23:46:54Z</time>
				<extensions>
				</extensions>
			</trkpt>
			<trkpt lat="-27.976396" lon="153.058881">
				<ele>77.272</ele>
				<time>2015-07-03T23:46:55Z</time>
				<extensions>
				</extensions>
			</trkpt>
			<trkpt lat="-27.976639" lon="153.058774">
				<ele>75.479</ele>
				<time>2015-07-03T23:46:56Z</time>
				<extensions>
				</extensions>
			</trkpt>
			<trkpt lat="-27.976883" lon="153.058676">
				<ele>71.911</ele>
				<time>2015-07-03T23:46:57Z</time>
				<extensions>
				</extensions>
			</trkpt>
			<trkpt lat="-27.977110" lon="153.058590">
				<ele>70.472</ele>
				<time>2015-07-03T23:46:58Z</time>
				<extensions>
				</extensions>
			</trkpt>
			<trkpt lat="-27.977349" lon="153.058495">
				<ele>69.718</ele>
				<time>2015-07-03T23:46:59Z</time>
				<extensions>
				</extensions>
			</trkpt>
			<trkpt lat="-27.977588" lon="153.058401">
				<ele>69.141</ele>
				<time>2015-07-03T23:47:00Z</time>
				<extensions>
				</extensions>
			</trkpt>
			<trkpt lat="-27.977827" lon="153.058311">
				<ele>66.702</ele>
				<time>2015-07-03T23:47:01Z</time>
				<extensions>
				</extensions>
			</trkpt>
			<trkpt lat="-27.978050" lon="153.058222">
				<ele>68.247</ele>
				<time>2015-07-03T23:47:02Z</time>
				<extensions>
				</extensions>
			</trkpt>
			<trkpt lat="-27.978259" lon="153.058132">
				<ele>68.966</ele>
				<time>2015-07-03T23:47:03Z</time>
				<extensions>
				</extensions>
			</trkpt>
			<trkpt lat="-27.978485" lon="153.058040">
				<ele>68.881</ele>
				<time>2015-07-03T23:47:04Z</time>
				<extensions>
				</extensions>
			</trkpt>
			<trkpt lat="-27.978704" lon="153.057947">
				<ele>70.504</ele>
				<time>2015-07-03T23:47:05Z</time>
				<extensions>
				</extensions>
			</trkpt>
			<trkpt lat="-27.978927" lon="153.057852">
				<ele>69.218</ele>
				<time>2015-07-03T23:47:06Z</time>
				<extensions>
				</extensions>
			</trkpt>
			<trkpt lat="-27.979150" lon="153.057766">
				<ele>68.494</ele>
				<time>2015-07-03T23:47:07Z</time>
				<extensions>
				</extensions>
			</trkpt>
			<trkpt lat="-27.979385" lon="153.057678">
				<ele>67.531</ele>
				<time>2015-07-03T23:47:08Z</time>
				<extensions>
				</extensions>
			</trkpt>
			<trkpt lat="-27.979610" lon="153.057581">
				<ele>67.172</ele>
				<time>2015-07-03T23:47:09Z</time>
				<extensions>
				</extensions>
			</trkpt>
			<trkpt lat="-27.979835" lon="153.057490">
				<ele>68.310</ele>
				<time>2015-07-03T23:47:10Z</time>
				<extensions>
				</extensions>
			</trkpt>
			<trkpt lat="-27.980059" lon="153.057405">
				<ele>68.462</ele>
				<time>2015-07-03T23:47:11Z</time>
				<extensions>
				</extensions>
			</trkpt>
			<trkpt lat="-27.980287" lon="153.057317">
				<ele>68.462</ele>
				<time>2015-07-03T23:47:12Z</time>
				<extensions>
				</extensions>
			</trkpt>
			<trkpt lat="-27.980497" lon="153.057228">
				<ele>67.829</ele>
				<time>2015-07-03T23:47:13Z</time>
				<extensions>
				</extensions>
			</trkpt>
			<trkpt lat="-27.980715" lon="153.057140">
				<ele>65.770</ele>
				<time>2015-07-03T23:47:14Z</time>
				<extensions>
				</extensions>
			</trkpt>
			<trkpt lat="-27.980931" lon="153.057055">
				<ele>65.326</ele>
				<time>2015-07-03T23:47:15Z</time>
				<extensions>
				</extensions>
			</trkpt>
			<trkpt lat="-27.981156" lon="153.056970">
				<ele>65.676</ele>
				<time>2015-07-03T23:47:16Z</time>
				<extensions>
				</extensions>
			</trkpt>
			<trkpt lat="-27.981370" lon="153.056884">
				<ele>66.037</ele>
				<time>2015-07-03T23:47:17Z</time>
				<extensions>
				</extensions>
			</trkpt>
			<trkpt lat="-27.981583" lon="153.056793">
				<ele>67.935</ele>
				<time>2015-07-03T23:47:18Z</time>
				<extensions>
				</extensions>
			</trkpt>
			<trkpt lat="-27.981791" lon="153.056702">
				<ele>68.399</ele>
				<time>2015-07-03T23:47:19Z</time>
				<extensions>
				</extensions>
			</trkpt>
			<trkpt lat="-27.981999" lon="153.056614">
				<ele>67.872</ele>
				<time>2015-07-03T23:47:20Z</time>
				<extensions>
				</extensions>
			</trkpt>
			<trkpt lat="-27.982212" lon="153.056526">
				<ele>69.301</ele>
				<time>2015-07-03T23:47:21Z</time>
				<extensions>
				</extensions>
			</trkpt>
			<trkpt lat="-27.982419" lon="153.056441">
				<ele>71.297</ele>
				<time>2015-07-03T23:47:22Z</time>
				<extensions>
				</extensions>
			</trkpt>
			<trkpt lat="-27.982634" lon="153.056356">
				<ele>70.364</ele>
				<time>2015-07-03T23:47:23Z</time>
				<extensions>
				</extensions>
			</trkpt>
			<trkpt lat="-27.982843" lon="153.056280">
				<ele>69.458</ele>
				<time>2015-07-03T23:47:24Z</time>
				<extensions>
				</extensions>
			</trkpt>
			<trkpt lat="-27.983053" lon="153.056197">
				<ele>69.133</ele>
				<time>2015-07-03T23:47:25Z</time>
				<extensions>
				</extensions>
			</trkpt>
			<trkpt lat="-27.983262" lon="153.056103">
				<ele>68.985</ele>
				<time>2015-07-03T23:47:26Z</time>
				<extensions>
				</extensions>
			</trkpt>
			<trkpt lat="-27.983481" lon="153.056020">
				<ele>69.811</ele>
				<time>2015-07-03T23:47:27Z</time>
				<extensions>
				</extensions>
			</trkpt>
			<trkpt lat="-27.983697" lon="153.055926">
				<ele>69.938</ele>
				<time>2015-07-03T23:47:28Z</time>
				<extensions>
				</extensions>
			</trkpt>
			<trkpt lat="-27.983914" lon="153.055837">
				<ele>69.222</ele>
				<time>2015-07-03T23:47:29Z</time>
				<extensions>
				</extensions>
			</trkpt>
			<trkpt lat="-27.984129" lon="153.055747">
				<ele>68.337</ele>
				<time>2015-07-03T23:47:30Z</time>
				<extensions>
				</extensions>
			</trkpt>
			<trkpt lat="-27.984351" lon="153.055662">
				<ele>67.381</ele>
				<time>2015-07-03T23:47:31Z</time>
				<extensions>
				</extensions>
			</trkpt>
			<trkpt lat="-27.984573" lon="153.055572">
				<ele>67.193</ele>
				<time>2015-07-03T23:47:32Z</time>
				<extensions>
				</extensions>
			</trkpt>
			<trkpt lat="-27.984788" lon="153.055484">
				<ele>68.509</ele>
				<time>2015-07-03T23:47:33Z</time>
				<extensions>
				</extensions>
			</trkpt>
			<trkpt lat="-27.985008" lon="153.055395">
				<ele>68.255</ele>
				<time>2015-07-03T23:47:34Z</time>
				<extensions>
				</extensions>
			</trkpt>
			<trkpt lat="-27.985242" lon="153.055306">
				<ele>69.199</ele>
				<time>2015-07-03T23:47:35Z</time>
				<extensions>
				</extensions>
			</trkpt>
			<trkpt lat="-27.985460" lon="153.055218">
				<ele>69.012</ele>
				<time>2015-07-03T23:47:36Z</time>
				<extensions>
				</extensions>
			</trkpt>
			<trkpt lat="-27.985677" lon="153.055126">
				<ele>68.081</ele>
				<time>2015-07-03T23:47:37Z</time>
				<extensions>
				</extensions>
			</trkpt>
			<trkpt lat="-27.985895" lon="153.055043">
				<ele>69.144</ele>
				<time>2015-07-03T23:47:38Z</time>
				<extensions>
				</extensions>
			</trkpt>
			<trkpt lat="-27.986100" lon="153.054947">
				<ele>69.935</ele>
				<time>2015-07-03T23:47:39Z</time>
				<extensions>
				</extensions>
			</trkpt>
			<trkpt lat="-27.986313" lon="153.054850">
				<ele>68.980</ele>
				<time>2015-07-03T23:47:40Z</time>
				<extensions>
				</extensions>
			</trkpt>
			<trkpt lat="-27.986520" lon="153.054748">
				<ele>69.051</ele>
				<time>2015-07-03T23:47:41Z</time>
				<extensions>
				</extensions>
			</trkpt>
			<trkpt lat="-27.986721" lon="153.054634">
				<ele>68.972</ele>
				<time>2015-07-03T23:47:42Z</time>
				<extensions>
				</extensions>
			</trkpt>
			<trkpt lat="-27.986919" lon="153.054503">
				<ele>69.053</ele>
				<time>2015-07-03T23:47:43Z</time>
				<extensions>
				</extensions>
			</trkpt>
			<trkpt lat="-27.987111" lon="153.054377">
				<ele>69.305</ele>
				<time>2015-07-03T23:47:44Z</time>
				<extensions>
				</extensions>
			</trkpt>
			<trkpt lat="-27.987308" lon="153.054245">
				<ele>70.889</ele>
				<time>2015-07-03T23:47:45Z</time>
				<extensions>
				</extensions>
			</trkpt>
			<trkpt lat="-27.987498" lon="153.054096">
				<ele>69.971</ele>
				<time>2015-07-03T23:47:46Z</time>
				<extensions>
				</extensions>
			</trkpt>
			<trkpt lat="-27.987675" lon="153.053948">
				<ele>71.443</ele>
				<time>2015-07-03T23:47:47Z</time>
				<extensions>
				</extensions>
			</trkpt>
			<trkpt lat="-27.987845" lon="153.053784">
				<ele>70.795</ele>
				<time>2015-07-03T23:47:48Z</time>
				<extensions>
				</extensions>
			</trkpt>
			<trkpt lat="-27.988013" lon="153.053608">
				<ele>71.630</ele>
				<time>2015-07-03T23:47:49Z</time>
				<extensions>
				</extensions>
			</trkpt>
			<trkpt lat="-27.988169" lon="153.053424">
				<ele>72.344</ele>
				<time>2015-07-03T23:47:50Z</time>
				<extensions>
				</extensions>
			</trkpt>
			<trkpt lat="-27.988333" lon="153.053221">
				<ele>72.564</ele>
				<time>2015-07-03T23:47:51Z</time>
				<extensions>
				</extensions>
			</trkpt>
			<trkpt lat="-27.988489" lon="153.053027">
				<ele>74.221</ele>
				<time>2015-07-03T23:47:52Z</time>
				<extensions>
				</extensions>
			</trkpt>
			<trkpt lat="-27.988629" lon="153.052823">
				<ele>74.920</ele>
				<time>2015-07-03T23:47:53Z</time>
				<extensions>
				</extensions>
			</trkpt>
			<trkpt lat="-27.988769" lon="153.052611">
				<ele>74.338</ele>
				<time>2015-07-03T23:47:54Z</time>
				<extensions>
				</extensions>
			</trkpt>
			<trkpt lat="-27.988895" lon="153.052389">
				<ele>75.291</ele>
				<time>2015-07-03T23:47:55Z</time>
				<extensions>
				</extensions>
			</trkpt>
			<trkpt lat="-27.989017" lon="153.052165">
				<ele>75.629</ele>
				<time>2015-07-03T23:47:56Z</time>
				<extensions>
				</extensions>
			</trkpt>
			<trkpt lat="-27.989131" lon="153.051929">
				<ele>77.328</ele>
				<time>2015-07-03T23:47:57Z</time>
				<extensions>
				</extensions>
			</trkpt>
			<trkpt lat="-27.989230" lon="153.051692">
				<ele>75.989</ele>
				<time>2015-07-03T23:47:58Z</time>
				<extensions>
				</extensions>
			</trkpt>
			<trkpt lat="-27.989317" lon="153.051450">
				<ele>76.338</ele>
				<time>2015-07-03T23:47:59Z</time>
				<extensions>
				</extensions>
			</trkpt>
			<trkpt lat="-27.989398" lon="153.051211">
				<ele>76.580</ele>
				<time>2015-07-03T23:48:00Z</time>
				<extensions>
				</extensions>
			</trkpt>
			<trkpt lat="-27.989452" lon="153.050954">
				<ele>75.187</ele>
				<time>2015-07-03T23:48:01Z</time>
				<extensions>
				</extensions>
			</trkpt>
			<trkpt lat="-27.989526" lon="153.050705">
				<ele>75.397</ele>
				<time>2015-07-03T23:48:02Z</time>
				<extensions>
				</extensions>
			</trkpt>
			<trkpt lat="-27.989582" lon="153.050456">
				<ele>75.292</ele>
				<time>2015-07-03T23:48:03Z</time>
				<extensions>
				</extensions>
			</trkpt>
			<trkpt lat="-27.989647" lon="153.050203">
				<ele>75.024</ele>
				<time>2015-07-03T23:48:04Z</time>
				<extensions>
				</extensions>
			</trkpt>
			<trkpt lat="-27.989695" lon="153.049946">
				<ele>75.087</ele>
				<time>2015-07-03T23:48:05Z</time>
				<extensions>
				</extensions>
			</trkpt>
			<trkpt lat="-27.989730" lon="153.049691">
				<ele>73.763</ele>
				<time>2015-07-03T23:48:06Z</time>
				<extensions>
				</extensions>
			</trkpt>
			<trkpt lat="-27.989768" lon="153.049455">
				<ele>72.987</ele>
				<time>2015-07-03T23:48:07Z</time>
				<extensions>
				</extensions>
			</trkpt>
			<trkpt lat="-27.989814" lon="153.049224">
				<ele>72.697</ele>
				<time>2015-07-03T23:48:08Z</time>
				<extensions>
				</extensions>
			</trkpt>
			<trkpt lat="-27.989850" lon="153.048994">
				<ele>72.681</ele>
				<time>2015-07-03T23:48:09Z</time>
				<extensions>
				</extensions>
			</trkpt>
			<trkpt lat="-27.989907" lon="153.048760">
				<ele>72.520</ele>
				<time>2015-07-03T23:48:10Z</time>
				<extensions>
				</extensions>
			</trkpt>
			<trkpt lat="-27.989943" lon="153.048525">
				<ele>73.520</ele>
				<time>2015-07-03T23:48:11Z</time>
				<extensions>
				</extensions>
			</trkpt>
			<trkpt lat="-27.989994" lon="153.048294">
				<ele>73.501</ele>
				<time>2015-07-03T23:48:12Z</time>
				<extensions>
				</extensions>
			</trkpt>
			<trkpt lat="-27.990038" lon="153.048064">
				<ele>73.637</ele>
				<time>2015-07-03T23:48:13Z</time>
				<extensions>
				</extensions>
			</trkpt>
			<trkpt lat="-27.990078" lon="153.047839">
				<ele>74.708</ele>
				<time>2015-07-03T23:48:14Z</time>
				<extensions>
				</extensions>
			</trkpt>
			<trkpt lat="-27.990131" lon="153.047611">
				<ele>74.708</ele>
				<time>2015-07-03T23:48:15Z</time>
				<extensions>
				</extensions>
			</trkpt>
			<trkpt lat="-27.990169" lon="153.047371">
				<ele>74.423</ele>
				<time>2015-07-03T23:48:16Z</time>
				<extensions>
				</extensions>
			</trkpt>
			<trkpt lat="-27.990216" lon="153.047127">
				<ele>75.795</ele>
				<time>2015-07-03T23:48:17Z</time>
				<extensions>
				</extensions>
			</trkpt>
			<trkpt lat="-27.990247" lon="153.046889">
				<ele>76.346</ele>
				<time>2015-07-03T23:48:18Z</time>
				<extensions>
				</extensions>
			</trkpt>
			<trkpt lat="-27.990286" lon="153.046645">
				<ele>78.103</ele>
				<time>2015-07-03T23:48:19Z</time>
				<extensions>
				</extensions>
			</trkpt>
			<trkpt lat="-27.990332" lon="153.046402">
				<ele>78.775</ele>
				<time>2015-07-03T23:48:20Z</time>
				<extensions>
				</extensions>
			</trkpt>
			<trkpt lat="-27.990381" lon="153.046154">
				<ele>78.588</ele>
				<time>2015-07-03T23:48:21Z</time>
				<extensions>
				</extensions>
			</trkpt>
			<trkpt lat="-27.990417" lon="153.045917">
				<ele>79.348</ele>
				<time>2015-07-03T23:48:22Z</time>
				<extensions>
				</extensions>
			</trkpt>
			<trkpt lat="-27.990470" lon="153.045673">
				<ele>79.340</ele>
				<time>2015-07-03T23:48:23Z</time>
				<extensions>
				</extensions>
			</trkpt>
			<trkpt lat="-27.990514" lon="153.045430">
				<ele>78.148</ele>
				<time>2015-07-03T23:48:24Z</time>
				<extensions>
				</extensions>
			</trkpt>
			<trkpt lat="-27.990560" lon="153.045194">
				<ele>78.380</ele>
				<time>2015-07-03T23:48:25Z</time>
				<extensions>
				</extensions>
			</trkpt>
			<trkpt lat="-27.990601" lon="153.044952">
				<ele>80.190</ele>
				<time>2015-07-03T23:48:26Z</time>
				<extensions>
				</extensions>
			</trkpt>
			<trkpt lat="-27.990636" lon="153.044721">
				<ele>79.538</ele>
				<time>2015-07-03T23:48:27Z</time>
				<extensions>
				</extensions>
			</trkpt>
			<trkpt lat="-27.990666" lon="153.044491">
				<ele>79.580</ele>
				<time>2015-07-03T23:48:28Z</time>
				<extensions>
				</extensions>
			</trkpt>
			<trkpt lat="-27.990689" lon="153.044267">
				<ele>78.263</ele>
				<time>2015-07-03T23:48:29Z</time>
				<extensions>
				</extensions>
			</trkpt>
			<trkpt lat="-27.990692" lon="153.044032">
				<ele>77.982</ele>
				<time>2015-07-03T23:48:30Z</time>
				<extensions>
				</extensions>
			</trkpt>
			<trkpt lat="-27.990682" lon="153.043801">
				<ele>79.401</ele>
				<time>2015-07-03T23:48:31Z</time>
				<extensions>
				</extensions>
			</trkpt>
			<trkpt lat="-27.990681" lon="153.043571">
				<ele>79.548</ele>
				<time>2015-07-03T23:48:32Z</time>
				<extensions>
				</extensions>
			</trkpt>
			<trkpt lat="-27.990667" lon="153.043342">
				<ele>80.598</ele>
				<time>2015-07-03T23:48:33Z</time>
				<extensions>
				</extensions>
			</trkpt>
			<trkpt lat="-27.990637" lon="153.043106">
				<ele>82.828</ele>
				<time>2015-07-03T23:48:34Z</time>
				<extensions>
				</extensions>
			</trkpt>
			<trkpt lat="-27.990608" lon="153.042859">
				<ele>83.573</ele>
				<time>2015-07-03T23:48:35Z</time>
				<extensions>
				</extensions>
			</trkpt>
			<trkpt lat="-27.990571" lon="153.042618">
				<ele>83.928</ele>
				<time>2015-07-03T23:48:36Z</time>
				<extensions>
				</extensions>
			</trkpt>
			<trkpt lat="-27.990534" lon="153.042363">
				<ele>86.060</ele>
				<time>2015-07-03T23:48:37Z</time>
				<extensions>
				</extensions>
			</trkpt>
			<trkpt lat="-27.990500" lon="153.042114">
				<ele>85.692</ele>
				<time>2015-07-03T23:48:38Z</time>
				<extensions>
				</extensions>
			</trkpt>
			<trkpt lat="-27.990458" lon="153.041873">
				<ele>86.873</ele>
				<time>2015-07-03T23:48:39Z</time>
				<extensions>
				</extensions>
			</trkpt>
			<trkpt lat="-27.990417" lon="153.041626">
				<ele>87.911</ele>
				<time>2015-07-03T23:48:40Z</time>
				<extensions>
				</extensions>
			</trkpt>
			<trkpt lat="-27.990384" lon="153.041387">
				<ele>89.080</ele>
				<time>2015-07-03T23:48:41Z</time>
				<extensions>
				</extensions>
			</trkpt>
			<trkpt lat="-27.990349" lon="153.041149">
				<ele>87.824</ele>
				<time>2015-07-03T23:48:42Z</time>
				<extensions>
				</extensions>
			</trkpt>
			<trkpt lat="-27.990323" lon="153.040917">
				<ele>88.459</ele>
				<time>2015-07-03T23:48:43Z</time>
				<extensions>
				</extensions>
			</trkpt>
			<trkpt lat="-27.990304" lon="153.040681">
				<ele>88.046</ele>
				<time>2015-07-03T23:48:44Z</time>
				<extensions>
				</extensions>
			</trkpt>
			<trkpt lat="-27.990287" lon="153.040449">
				<ele>87.901</ele>
				<time>2015-07-03T23:48:45Z</time>
				<extensions>
				</extensions>
			</trkpt>
			<trkpt lat="-27.990288" lon="153.040225">
				<ele>89.157</ele>
				<time>2015-07-03T23:48:46Z</time>
				<extensions>
				</extensions>
			</trkpt>
			<trkpt lat="-27.990292" lon="153.039993">
				<ele>89.155</ele>
				<time>2015-07-03T23:48:47Z</time>
				<extensions>
				</extensions>
			</trkpt>
			<trkpt lat="-27.990303" lon="153.039754">
				<ele>89.847</ele>
				<time>2015-07-03T23:48:48Z</time>
				<extensions>
				</extensions>
			</trkpt>
			<trkpt lat="-27.990327" lon="153.039512">
				<ele>91.288</ele>
				<time>2015-07-03T23:48:49Z</time>
				<extensions>
				</extensions>
			</trkpt>
			<trkpt lat="-27.990360" lon="153.039274">
				<ele>91.130</ele>
				<time>2015-07-03T23:48:50Z</time>
				<extensions>
				</extensions>
			</trkpt>
			<trkpt lat="-27.990391" lon="153.039040">
				<ele>90.509</ele>
				<time>2015-07-03T23:48:51Z</time>
				<extensions>
				</extensions>
			</trkpt>
			<trkpt lat="-27.990435" lon="153.038813">
				<ele>92.756</ele>
				<time>2015-07-03T23:48:52Z</time>
				<extensions>
				</extensions>
			</trkpt>
			<trkpt lat="-27.990485" lon="153.038581">
				<ele>93.381</ele>
				<time>2015-07-03T23:48:53Z</time>
				<extensions>
				</extensions>
			</trkpt>
			<trkpt lat="-27.990562" lon="153.038362">
				<ele>93.565</ele>
				<time>2015-07-03T23:48:54Z</time>
				<extensions>
				</extensions>
			</trkpt>
			<trkpt lat="-27.990636" lon="153.038144">
				<ele>93.588</ele>
				<time>2015-07-03T23:48:55Z</time>
				<extensions>
				</extensions>
			</trkpt>
			<trkpt lat="-27.990716" lon="153.037922">
				<ele>94.655</ele>
				<time>2015-07-03T23:48:56Z</time>
				<extensions>
				</extensions>
			</trkpt>
			<trkpt lat="-27.990798" lon="153.037699">
				<ele>95.035</ele>
				<time>2015-07-03T23:48:57Z</time>
				<extensions>
				</extensions>
			</trkpt>
			<trkpt lat="-27.990878" lon="153.037475">
				<ele>95.291</ele>
				<time>2015-07-03T23:48:58Z</time>
				<extensions>
				</extensions>
			</trkpt>
			<trkpt lat="-27.990953" lon="153.037253">
				<ele>95.664</ele>
				<time>2015-07-03T23:48:59Z</time>
				<extensions>
				</extensions>
			</trkpt>
			<trkpt lat="-27.991025" lon="153.037021">
				<ele>96.538</ele>
				<time>2015-07-03T23:49:00Z</time>
				<extensions>
				</extensions>
			</trkpt>
			<trkpt lat="-27.991097" lon="153.036792">
				<ele>96.725</ele>
				<time>2015-07-03T23:49:01Z</time>
				<extensions>
				</extensions>
			</trkpt>
			<trkpt lat="-27.991163" lon="153.036559">
				<ele>98.271</ele>
				<time>2015-07-03T23:49:02Z</time>
				<extensions>
				</extensions>
			</trkpt>
			<trkpt lat="-27.991221" lon="153.036329">
				<ele>98.743</ele>
				<time>2015-07-03T23:49:03Z</time>
				<extensions>
				</extensions>
			</trkpt>
			<trkpt lat="-27.991287" lon="153.036107">
				<ele>98.599</ele>
				<time>2015-07-03T23:49:04Z</time>
				<extensions>
				</extensions>
			</trkpt>
			<trkpt lat="-27.991346" lon="153.035870">
				<ele>99.025</ele>
				<time>2015-07-03T23:49:05Z</time>
				<extensions>
				</extensions>
			</trkpt>
			<trkpt lat="-27.991397" lon="153.035637">
				<ele>99.240</ele>
				<time>2015-07-03T23:49:06Z</time>
				<extensions>
				</extensions>
			</trkpt>
			<trkpt lat="-27.991452" lon="153.035402">
				<ele>100.188</ele>
				<time>2015-07-03T23:49:07Z</time>
				<extensions>
				</extensions>
			</trkpt>
			<trkpt lat="-27.991504" lon="153.035166">
				<ele>101.241</ele>
				<time>2015-07-03T23:49:08Z</time>
				<extensions>
				</extensions>
			</trkpt>
			<trkpt lat="-27.991555" lon="153.034929">
				<ele>102.277</ele>
				<time>2015-07-03T23:49:09Z</time>
				<extensions>
				</extensions>
			</trkpt>
			<trkpt lat="-27.991610" lon="153.034694">
				<ele>104.667</ele>
				<time>2015-07-03T23:49:10Z</time>
				<extensions>
				</extensions>
			</trkpt>
			<trkpt lat="-27.991669" lon="153.034457">
				<ele>103.546</ele>
				<time>2015-07-03T23:49:11Z</time>
				<extensions>
				</extensions>
			</trkpt>
			<trkpt lat="-27.991726" lon="153.034230">
				<ele>105.410</ele>
				<time>2015-07-03T23:49:12Z</time>
				<extensions>
				</extensions>
			</trkpt>
			<trkpt lat="-27.991784" lon="153.033992">
				<ele>107.145</ele>
				<time>2015-07-03T23:49:13Z</time>
				<extensions>
				</extensions>
			</trkpt>
			<trkpt lat="-27.991847" lon="153.033758">
				<ele>106.946</ele>
				<time>2015-07-03T23:49:14Z</time>
				<extensions>
				</extensions>
			</trkpt>
			<trkpt lat="-27.991909" lon="153.033525">
				<ele>106.968</ele>
				<time>2015-07-03T23:49:15Z</time>
				<extensions>
				</extensions>
			</trkpt>
			<trkpt lat="-27.991961" lon="153.033288">
				<ele>107.703</ele>
				<time>2015-07-03T23:49:16Z</time>
				<extensions>
				</extensions>
			</trkpt>
			<trkpt lat="-27.992027" lon="153.033045">
				<ele>107.835</ele>
				<time>2015-07-03T23:49:17Z</time>
				<extensions>
				</extensions>
			</trkpt>
			<trkpt lat="-27.992084" lon="153.032813">
				<ele>108.793</ele>
				<time>2015-07-03T23:49:18Z</time>
				<extensions>
				</extensions>
			</trkpt>
			<trkpt lat="-27.992131" lon="153.032580">
				<ele>108.429</ele>
				<time>2015-07-03T23:49:19Z</time>
				<extensions>
				</extensions>
			</trkpt>
			<trkpt lat="-27.992172" lon="153.032366">
				<ele>109.358</ele>
				<time>2015-07-03T23:49:20Z</time>
				<extensions>
				</extensions>
			</trkpt>
			<trkpt lat="-27.992201" lon="153.032145">
				<ele>110.153</ele>
				<time>2015-07-03T23:49:21Z</time>
				<extensions>
				</extensions>
			</trkpt>
			<trkpt lat="-27.992227" lon="153.031919">
				<ele>110.092</ele>
				<time>2015-07-03T23:49:22Z</time>
				<extensions>
				</extensions>
			</trkpt>
			<trkpt lat="-27.992241" lon="153.031684">
				<ele>111.815</ele>
				<time>2015-07-03T23:49:23Z</time>
				<extensions>
				</extensions>
			</trkpt>
			<trkpt lat="-27.992276" lon="153.031413">
				<ele>111.815</ele>
				<time>2015-07-03T23:49:24Z</time>
				<extensions>
				</extensions>
			</trkpt>
			<trkpt lat="-27.992274" lon="153.031167">
				<ele>113.723</ele>
				<time>2015-07-03T23:49:25Z</time>
				<extensions>
				</extensions>
			</trkpt>
			<trkpt lat="-27.992268" lon="153.030926">
				<ele>117.283</ele>
				<time>2015-07-03T23:49:26Z</time>
				<extensions>
				</extensions>
			</trkpt>
			<trkpt lat="-27.992241" lon="153.030676">
				<ele>117.686</ele>
				<time>2015-07-03T23:49:27Z</time>
				<extensions>
				</extensions>
			</trkpt>
			<trkpt lat="-27.992232" lon="153.030436">
				<ele>118.987</ele>
				<time>2015-07-03T23:49:28Z</time>
				<extensions>
				</extensions>
			</trkpt>
			<trkpt lat="-27.992223" lon="153.030193">
				<ele>118.930</ele>
				<time>2015-07-03T23:49:29Z</time>
				<extensions>
				</extensions>
			</trkpt>
			<trkpt lat="-27.992204" lon="153.029955">
				<ele>119.472</ele>
				<time>2015-07-03T23:49:30Z</time>
				<extensions>
				</extensions>
			</trkpt>
			<trkpt lat="-27.992194" lon="153.029709">
				<ele>121.752</ele>
				<time>2015-07-03T23:49:31Z</time>
				<extensions>
				</extensions>
			</trkpt>
			<trkpt lat="-27.992184" lon="153.029467">
				<ele>122.449</ele>
				<time>2015-07-03T23:49:32Z</time>
				<extensions>
				</extensions>
			</trkpt>
			<trkpt lat="-27.992177" lon="153.029258">
				<ele>122.865</ele>
				<time>2015-07-03T23:49:33Z</time>
				<extensions>
				</extensions>
			</trkpt>
			<trkpt lat="-27.992158" lon="153.029024">
				<ele>123.734</ele>
				<time>2015-07-03T23:49:34Z</time>
				<extensions>
				</extensions>
			</trkpt>
			<trkpt lat="-27.992116" lon="153.028796">
				<ele>124.728</ele>
				<time>2015-07-03T23:49:35Z</time>
				<extensions>
				</extensions>
			</trkpt>
			<trkpt lat="-27.992076" lon="153.028569">
				<ele>125.576</ele>
				<time>2015-07-03T23:49:36Z</time>
				<extensions>
				</extensions>
			</trkpt>
			<trkpt lat="-27.992046" lon="153.028349">
				<ele>126.111</ele>
				<time>2015-07-03T23:49:37Z</time>
				<extensions>
				</extensions>
			</trkpt>
			<trkpt lat="-27.992007" lon="153.028133">
				<ele>126.241</ele>
				<time>2015-07-03T23:49:38Z</time>
				<extensions>
				</extensions>
			</trkpt>
			<trkpt lat="-27.991971" lon="153.027919">
				<ele>126.594</ele>
				<time>2015-07-03T23:49:39Z</time>
				<extensions>
				</extensions>
			</trkpt>
			<trkpt lat="-27.991929" lon="153.027715">
				<ele>127.245</ele>
				<time>2015-07-03T23:49:40Z</time>
				<extensions>
				</extensions>
			</trkpt>
			<trkpt lat="-27.991877" lon="153.027505">
				<ele>128.755</ele>
				<time>2015-07-03T23:49:41Z</time>
				<extensions>
				</extensions>
			</trkpt>
			<trkpt lat="-27.991833" lon="153.027304">
				<ele>131.723</ele>
				<time>2015-07-03T23:49:42Z</time>
				<extensions>
				</extensions>
			</trkpt>
			<trkpt lat="-27.991792" lon="153.027094">
				<ele>131.884</ele>
				<time>2015-07-03T23:49:43Z</time>
				<extensions>
				</extensions>
			</trkpt>
			<trkpt lat="-27.991717" lon="153.026698">
				<ele>131.257</ele>
				<time>2015-07-03T23:49:45Z</time>
				<extensions>
				</extensions>
			</trkpt>
			<trkpt lat="-27.991675" lon="153.026484">
				<ele>130.455</ele>
				<time>2015-07-03T23:49:46Z</time>
				<extensions>
				</extensions>
			</trkpt>
			<trkpt lat="-27.991644" lon="153.026265">
				<ele>130.167</ele>
				<time>2015-07-03T23:49:47Z</time>
				<extensions>
				</extensions>
			</trkpt>
			<trkpt lat="-27.991614" lon="153.026016">
				<ele>130.518</ele>
				<time>2015-07-03T23:49:48Z</time>
				<extensions>
				</extensions>
			</trkpt>
			<trkpt lat="-27.991611" lon="153.025780">
				<ele>130.424</ele>
				<time>2015-07-03T23:49:49Z</time>
				<extensions>
				</extensions>
			</trkpt>
			<trkpt lat="-27.991599" lon="153.025556">
				<ele>129.411</ele>
				<time>2015-07-03T23:49:50Z</time>
				<extensions>
				</extensions>
			</trkpt>
			<trkpt lat="-27.991601" lon="153.025319">
				<ele>127.693</ele>
				<time>2015-07-03T23:49:51Z</time>
				<extensions>
				</extensions>
			</trkpt>
			<trkpt lat="-27.991639" lon="153.025080">
				<ele>127.386</ele>
				<time>2015-07-03T23:49:52Z</time>
				<extensions>
				</extensions>
			</trkpt>
			<trkpt lat="-27.991657" lon="153.024851">
				<ele>127.793</ele>
				<time>2015-07-03T23:49:53Z</time>
				<extensions>
				</extensions>
			</trkpt>
			<trkpt lat="-27.991686" lon="153.024624">
				<ele>126.239</ele>
				<time>2015-07-03T23:49:54Z</time>
				<extensions>
				</extensions>
			</trkpt>
			<trkpt lat="-27.991709" lon="153.024387">
				<ele>124.509</ele>
				<time>2015-07-03T23:49:55Z</time>
				<extensions>
				</extensions>
			</trkpt>
			<trkpt lat="-27.991738" lon="153.024145">
				<ele>122.958</ele>
				<time>2015-07-03T23:49:56Z</time>
				<extensions>
				</extensions>
			</trkpt>
			<trkpt lat="-27.991763" lon="153.023904">
				<ele>121.764</ele>
				<time>2015-07-03T23:49:57Z</time>
				<extensions>
				</extensions>
			</trkpt>
			<trkpt lat="-27.991775" lon="153.023666">
				<ele>121.090</ele>
				<time>2015-07-03T23:49:58Z</time>
				<extensions>
				</extensions>
			</trkpt>
			<trkpt lat="-27.991804" lon="153.023421">
				<ele>119.202</ele>
				<time>2015-07-03T23:49:59Z</time>
				<extensions>
				</extensions>
			</trkpt>
			<trkpt lat="-27.991838" lon="153.023188">
				<ele>117.590</ele>
				<time>2015-07-03T23:50:00Z</time>
				<extensions>
				</extensions>
			</trkpt>
			<trkpt lat="-27.991869" lon="153.022955">
				<ele>115.675</ele>
				<time>2015-07-03T23:50:01Z</time>
				<extensions>
				</extensions>
			</trkpt>
			<trkpt lat="-27.991888" lon="153.022719">
				<ele>113.590</ele>
				<time>2015-07-03T23:50:02Z</time>
				<extensions>
				</extensions>
			</trkpt>
			<trkpt lat="-27.991921" lon="153.022483">
				<ele>111.906</ele>
				<time>2015-07-03T23:50:03Z</time>
				<extensions>
				</extensions>
			</trkpt>
			<trkpt lat="-27.991957" lon="153.022244">
				<ele>110.404</ele>
				<time>2015-07-03T23:50:04Z</time>
				<extensions>
				</extensions>
			</trkpt>
			<trkpt lat="-27.991996" lon="153.022009">
				<ele>108.640</ele>
				<time>2015-07-03T23:50:05Z</time>
				<extensions>
				</extensions>
			</trkpt>
			<trkpt lat="-27.992037" lon="153.021769">
				<ele>106.804</ele>
				<time>2015-07-03T23:50:06Z</time>
				<extensions>
				</extensions>
			</trkpt>
			<trkpt lat="-27.992106" lon="153.021531">
				<ele>104.210</ele>
				<time>2015-07-03T23:50:07Z</time>
				<extensions>
				</extensions>
			</trkpt>
			<trkpt lat="-27.992164" lon="153.021309">
				<ele>103.220</ele>
				<time>2015-07-03T23:50:08Z</time>
				<extensions>
				</extensions>
			</trkpt>
			<trkpt lat="-27.992232" lon="153.021091">
				<ele>102.054</ele>
				<time>2015-07-03T23:50:09Z</time>
				<extensions>
				</extensions>
			</trkpt>
			<trkpt lat="-27.992320" lon="153.020871">
				<ele>100.663</ele>
				<time>2015-07-03T23:50:10Z</time>
				<extensions>
				</extensions>
			</trkpt>
			<trkpt lat="-27.992418" lon="153.020648">
				<ele>100.816</ele>
				<time>2015-07-03T23:50:11Z</time>
				<extensions>
				</extensions>
			</trkpt>
			<trkpt lat="-27.992517" lon="153.020435">
				<ele>99.578</ele>
				<time>2015-07-03T23:50:12Z</time>
				<extensions>
				</extensions>
			</trkpt>
			<trkpt lat="-27.992618" lon="153.020226">
				<ele>100.813</ele>
				<time>2015-07-03T23:50:13Z</time>
				<extensions>
				</extensions>
			</trkpt>
			<trkpt lat="-27.992740" lon="153.020033">
				<ele>99.296</ele>
				<time>2015-07-03T23:50:14Z</time>
				<extensions>
				</extensions>
			</trkpt>
			<trkpt lat="-27.992870" lon="153.019853">
				<ele>96.767</ele>
				<time>2015-07-03T23:50:15Z</time>
				<extensions>
				</extensions>
			</trkpt>
			<trkpt lat="-27.992990" lon="153.019665">
				<ele>97.180</ele>
				<time>2015-07-03T23:50:16Z</time>
				<extensions>
				</extensions>
			</trkpt>
			<trkpt lat="-27.993214" lon="153.019323">
				<ele>95.812</ele>
				<time>2015-07-03T23:50:18Z</time>
				<extensions>
				</extensions>
			</trkpt>
			<trkpt lat="-27.993338" lon="153.019135">
				<ele>95.255</ele>
				<time>2015-07-03T23:50:19Z</time>
				<extensions>
				</extensions>
			</trkpt>
			<trkpt lat="-27.993436" lon="153.018963">
				<ele>94.764</ele>
				<time>2015-07-03T23:50:20Z</time>
				<extensions>
				</extensions>
			</trkpt>
			<trkpt lat="-27.993531" lon="153.018781">
				<ele>94.066</ele>
				<time>2015-07-03T23:50:21Z</time>
				<extensions>
				</extensions>
			</trkpt>
			<trkpt lat="-27.993680" lon="153.018421">
				<ele>92.775</ele>
				<time>2015-07-03T23:50:23Z</time>
				<extensions>
				</extensions>
			</trkpt>
			<trkpt lat="-27.993783" lon="153.018053">
				<ele>91.921</ele>
				<time>2015-07-03T23:50:25Z</time>
				<extensions>
				</extensions>
			</trkpt>
			<trkpt lat="-27.993838" lon="153.017670">
				<ele>93.409</ele>
				<time>2015-07-03T23:50:27Z</time>
				<extensions>
				</extensions>
			</trkpt>
			<trkpt lat="-27.993881" lon="153.017289">
				<ele>93.401</ele>
				<time>2015-07-03T23:50:29Z</time>
				<extensions>
				</extensions>
			</trkpt>
			<trkpt lat="-27.993902" lon="153.016926">
				<ele>93.326</ele>
				<time>2015-07-03T23:50:31Z</time>
				<extensions>
				</extensions>
			</trkpt>
			<trkpt lat="-27.993927" lon="153.016561">
				<ele>93.963</ele>
				<time>2015-07-03T23:50:33Z</time>
				<extensions>
				</extensions>
			</trkpt>
			<trkpt lat="-27.993963" lon="153.016191">
				<ele>94.852</ele>
				<time>2015-07-03T23:50:35Z</time>
				<extensions>
				</extensions>
			</trkpt>
			<trkpt lat="-27.993994" lon="153.015833">
				<ele>96.158</ele>
				<time>2015-07-03T23:50:37Z</time>
				<extensions>
				</extensions>
			</trkpt>
			<trkpt lat="-27.994028" lon="153.015457">
				<ele>98.112</ele>
				<time>2015-07-03T23:50:39Z</time>
				<extensions>
				</extensions>
			</trkpt>
			<trkpt lat="-27.994059" lon="153.015092">
				<ele>98.379</ele>
				<time>2015-07-03T23:50:41Z</time>
				<extensions>
				</extensions>
			</trkpt>
			<trkpt lat="-27.994088" lon="153.014707">
				<ele>98.566</ele>
				<time>2015-07-03T23:50:43Z</time>
				<extensions>
				</extensions>
			</trkpt>
			<trkpt lat="-27.994126" lon="153.014308">
				<ele>98.157</ele>
				<time>2015-07-03T23:50:45Z</time>
				<extensions>
				</extensions>
			</trkpt>
			<trkpt lat="-27.994168" lon="153.013917">
				<ele>98.179</ele>
				<time>2015-07-03T23:50:47Z</time>
				<extensions>
				</extensions>
			</trkpt>
			<trkpt lat="-27.994186" lon="153.013536">
				<ele>95.089</ele>
				<time>2015-07-03T23:50:49Z</time>
				<extensions>
				</extensions>
			</trkpt>
			<trkpt lat="-27.994217" lon="153.013158">
				<ele>91.958</ele>
				<time>2015-07-03T23:50:51Z</time>
				<extensions>
				</extensions>
			</trkpt>
			<trkpt lat="-27.994215" lon="153.012795">
				<ele>89.345</ele>
				<time>2015-07-03T23:50:53Z</time>
				<extensions>
				</extensions>
			</trkpt>
			<trkpt lat="-27.994191" lon="153.012423">
				<ele>86.429</ele>
				<time>2015-07-03T23:50:55Z</time>
				<extensions>
				</extensions>
			</trkpt>
			<trkpt lat="-27.994130" lon="153.012040">
				<ele>86.171</ele>
				<time>2015-07-03T23:50:57Z</time>
				<extensions>
				</extensions>
			</trkpt>
			<trkpt lat="-27.994030" lon="153.011660">
				<ele>82.663</ele>
				<time>2015-07-03T23:50:59Z</time>
				<extensions>
				</extensions>
			</trkpt>
			<trkpt lat="-27.993962" lon="153.011466">
				<ele>80.611</ele>
				<time>2015-07-03T23:51:00Z</time>
				<extensions>
				</extensions>
			</trkpt>
			<trkpt lat="-27.993879" lon="153.011285">
				<ele>79.951</ele>
				<time>2015-07-03T23:51:01Z</time>
				<extensions>
				</extensions>
			</trkpt>
			<trkpt lat="-27.993786" lon="153.011101">
				<ele>79.949</ele>
				<time>2015-07-03T23:51:02Z</time>
				<extensions>
				</extensions>
			</trkpt>
			<trkpt lat="-27.993692" lon="153.010921">
				<ele>80.066</ele>
				<time>2015-07-03T23:51:03Z</time>
				<extensions>
				</extensions>
			</trkpt>
			<trkpt lat="-27.993586" lon="153.010733">
				<ele>79.650</ele>
				<time>2015-07-03T23:51:04Z</time>
				<extensions>
				</extensions>
			</trkpt>
			<trkpt lat="-27.993487" lon="153.010549">
				<ele>78.960</ele>
				<time>2015-07-03T23:51:05Z</time>
				<extensions>
				</extensions>
			</trkpt>
			<trkpt lat="-27.993314" lon="153.010223">
				<ele>75.859</ele>
				<time>2015-07-03T23:51:07Z</time>
				<extensions>
				</extensions>
			</trkpt>
			<trkpt lat="-27.993142" lon="153.009915">
				<ele>72.349</ele>
				<time>2015-07-03T23:51:09Z</time>
				<extensions>
				</extensions>
			</trkpt>
			<trkpt lat="-27.992984" lon="153.009616">
				<ele>71.105</ele>
				<time>2015-07-03T23:51:11Z</time>
				<extensions>
				</extensions>
			</trkpt>
			<trkpt lat="-27.992834" lon="153.009298">
				<ele>70.922</ele>
				<time>2015-07-03T23:51:13Z</time>
				<extensions>
				</extensions>
			</trkpt>
			<trkpt lat="-27.992712" lon="153.008984">
				<ele>70.645</ele>
				<time>2015-07-03T23:51:15Z</time>
				<extensions>
				</extensions>
			</trkpt>
			<trkpt lat="-27.992615" lon="153.008667">
				<ele>70.179</ele>
				<time>2015-07-03T23:51:17Z</time>
				<extensions>
				</extensions>
			</trkpt>
			<trkpt lat="-27.992550" lon="153.008341">
				<ele>69.566</ele>
				<time>2015-07-03T23:51:19Z</time>
				<extensions>
				</extensions>
			</trkpt>
			<trkpt lat="-27.992504" lon="153.008005">
				<ele>70.218</ele>
				<time>2015-07-03T23:51:21Z</time>
				<extensions>
				</extensions>
			</trkpt>
			<trkpt lat="-27.992446" lon="153.007666">
				<ele>70.365</ele>
				<time>2015-07-03T23:51:23Z</time>
				<extensions>
				</extensions>
			</trkpt>
			<trkpt lat="-27.992391" lon="153.007330">
				<ele>70.656</ele>
				<time>2015-07-03T23:51:25Z</time>
				<extensions>
				</extensions>
			</trkpt>
			<trkpt lat="-27.992345" lon="153.007008">
				<ele>70.229</ele>
				<time>2015-07-03T23:51:27Z</time>
				<extensions>
				</extensions>
			</trkpt>
			<trkpt lat="-27.992307" lon="153.006694">
				<ele>70.316</ele>
				<time>2015-07-03T23:51:29Z</time>
				<extensions>
				</extensions>
			</trkpt>
			<trkpt lat="-27.992261" lon="153.006394">
				<ele>69.840</ele>
				<time>2015-07-03T23:51:31Z</time>
				<extensions>
				</extensions>
			</trkpt>
			<trkpt lat="-27.992209" lon="153.006109">
				<ele>70.155</ele>
				<time>2015-07-03T23:51:33Z</time>
				<extensions>
				</extensions>
			</trkpt>
			<trkpt lat="-27.992165" lon="153.005784">
				<ele>71.971</ele>
				<time>2015-07-03T23:51:35Z</time>
				<extensions>
				</extensions>
			</trkpt>
			<trkpt lat="-27.992105" lon="153.005454">
				<ele>72.455</ele>
				<time>2015-07-03T23:51:37Z</time>
				<extensions>
				</extensions>
			</trkpt>
			<trkpt lat="-27.992052" lon="153.005120">
				<ele>72.494</ele>
				<time>2015-07-03T23:51:39Z</time>
				<extensions>
				</extensions>
			</trkpt>
			<trkpt lat="-27.991991" lon="153.004776">
				<ele>72.461</ele>
				<time>2015-07-03T23:51:41Z</time>
				<extensions>
				</extensions>
			</trkpt>
			<trkpt lat="-27.991932" lon="153.004458">
				<ele>71.445</ele>
				<time>2015-07-03T23:51:43Z</time>
				<extensions>
				</extensions>
			</trkpt>
			<trkpt lat="-27.991873" lon="153.004145">
				<ele>70.302</ele>
				<time>2015-07-03T23:51:45Z</time>
				<extensions>
				</extensions>
			</trkpt>
			<trkpt lat="-27.991816" lon="153.003846">
				<ele>69.225</ele>
				<time>2015-07-03T23:51:47Z</time>
				<extensions>
				</extensions>
			</trkpt>
			<trkpt lat="-27.991771" lon="153.003555">
				<ele>69.226</ele>
				<time>2015-07-03T23:51:49Z</time>
				<extensions>
				</extensions>
			</trkpt>
			<trkpt lat="-27.991722" lon="153.003260">
				<ele>70.214</ele>
				<time>2015-07-03T23:51:51Z</time>
				<extensions>
				</extensions>
			</trkpt>
			<trkpt lat="-27.991662" lon="153.002937">
				<ele>69.516</ele>
				<time>2015-07-03T23:51:53Z</time>
				<extensions>
				</extensions>
			</trkpt>
			<trkpt lat="-27.991611" lon="153.002631">
				<ele>68.636</ele>
				<time>2015-07-03T23:51:55Z</time>
				<extensions>
				</extensions>
			</trkpt>
			<trkpt lat="-27.991560" lon="153.002318">
				<ele>68.211</ele>
				<time>2015-07-03T23:51:57Z</time>
				<extensions>
				</extensions>
			</trkpt>
			<trkpt lat="-27.991511" lon="153.002037">
				<ele>67.206</ele>
				<time>2015-07-03T23:51:59Z</time>
				<extensions>
				</extensions>
			</trkpt>
			<trkpt lat="-27.991460" lon="153.001751">
				<ele>66.719</ele>
				<time>2015-07-03T23:52:01Z</time>
				<extensions>
				</extensions>
			</trkpt>
			<trkpt lat="-27.991380" lon="153.001507">
				<ele>66.111</ele>
				<time>2015-07-03T23:52:03Z</time>
				<extensions>
				</extensions>
			</trkpt>
			<trkpt lat="-27.991272" lon="153.001262">
				<ele>66.051</ele>
				<time>2015-07-03T23:52:05Z</time>
				<extensions>
				</extensions>
			</trkpt>
			<trkpt lat="-27.991131" lon="153.001007">
				<ele>66.544</ele>
				<time>2015-07-03T23:52:07Z</time>
				<extensions>
				</extensions>
			</trkpt>
			<trkpt lat="-27.990987" lon="153.000751">
				<ele>67.427</ele>
				<time>2015-07-03T23:52:09Z</time>
				<extensions>
				</extensions>
			</trkpt>
			<trkpt lat="-27.990839" lon="153.000497">
				<ele>66.479</ele>
				<time>2015-07-03T23:52:11Z</time>
				<extensions>
				</extensions>
			</trkpt>
			<trkpt lat="-27.990714" lon="153.000266">
				<ele>65.228</ele>
				<time>2015-07-03T23:52:13Z</time>
				<extensions>
				</extensions>
			</trkpt>
			<trkpt lat="-27.990576" lon="153.000017">
				<ele>62.617</ele>
				<time>2015-07-03T23:52:15Z</time>
				<extensions>
				</extensions>
			</trkpt>
			<trkpt lat="-27.990437" lon="152.999779">
				<ele>61.277</ele>
				<time>2015-07-03T23:52:17Z</time>
				<extensions>
				</extensions>
			</trkpt>
			<trkpt lat="-27.990305" lon="152.999535">
				<ele>60.861</ele>
				<time>2015-07-03T23:52:19Z</time>
				<extensions>
				</extensions>
			</trkpt>
			<trkpt lat="-27.990165" lon="152.999294">
				<ele>60.628</ele>
				<time>2015-07-03T23:52:21Z</time>
				<extensions>
				</extensions>
			</trkpt>
			<trkpt lat="-27.990028" lon="152.999047">
				<ele>58.443</ele>
				<time>2015-07-03T23:52:23Z</time>
				<extensions>
				</extensions>
			</trkpt>
			<trkpt lat="-27.989900" lon="152.998808">
				<ele>57.299</ele>
				<time>2015-07-03T23:52:25Z</time>
				<extensions>
				</extensions>
			</trkpt>
			<trkpt lat="-27.989764" lon="152.998550">
				<ele>57.291</ele>
				<time>2015-07-03T23:52:27Z</time>
				<extensions>
				</extensions>
			</trkpt>
			<trkpt lat="-27.989630" lon="152.998297">
				<ele>55.855</ele>
				<time>2015-07-03T23:52:29Z</time>
				<extensions>
				</extensions>
			</trkpt>
			<trkpt lat="-27.989482" lon="152.998048">
				<ele>55.568</ele>
				<time>2015-07-03T23:52:31Z</time>
				<extensions>
				</extensions>
			</trkpt>
			<trkpt lat="-27.989332" lon="152.997790">
				<ele>54.664</ele>
				<time>2015-07-03T23:52:33Z</time>
				<extensions>
				</extensions>
			</trkpt>
			<trkpt lat="-27.989188" lon="152.997529">
				<ele>53.385</ele>
				<time>2015-07-03T23:52:35Z</time>
				<extensions>
				</extensions>
			</trkpt>
			<trkpt lat="-27.989052" lon="152.997288">
				<ele>53.494</ele>
				<time>2015-07-03T23:52:37Z</time>
				<extensions>
				</extensions>
			</trkpt>
			<trkpt lat="-27.988922" lon="152.997052">
				<ele>51.544</ele>
				<time>2015-07-03T23:52:39Z</time>
				<extensions>
				</extensions>
			</trkpt>
			<trkpt lat="-27.988798" lon="152.996841">
				<ele>50.308</ele>
				<time>2015-07-03T23:52:41Z</time>
				<extensions>
				</extensions>
			</trkpt>
			<trkpt lat="-27.988672" lon="152.996592">
				<ele>47.174</ele>
				<time>2015-07-03T23:52:44Z</time>
				<extensions>
				</extensions>
			</trkpt>
			<trkpt lat="-27.988581" lon="152.996391">
				<ele>45.522</ele>
				<time>2015-07-03T23:52:47Z</time>
				<extensions>
				</extensions>
			</trkpt>
			<trkpt lat="-27.988498" lon="152.996184">
				<ele>48.321</ele>
				<time>2015-07-03T23:54:36Z</time>
				<extensions>
				</extensions>
			</trkpt>
			<trkpt lat="-27.988402" lon="152.995939">
				<ele>48.537</ele>
				<time>2015-07-03T23:54:40Z</time>
				<extensions>
				</extensions>
			</trkpt>
			<trkpt lat="-27.988406" lon="152.995712">
				<ele>48.592</ele>
				<time>2015-07-03T23:54:43Z</time>
				<extensions>
				</extensions>
			</trkpt>
			<trkpt lat="-27.988512" lon="152.995546">
				<ele>48.348</ele>
				<time>2015-07-03T23:54:46Z</time>
				<extensions>
				</extensions>
			</trkpt>
			<trkpt lat="-27.988681" lon="152.995364">
				<ele>49.154</ele>
				<time>2015-07-03T23:54:49Z</time>
				<extensions>
				</extensions>
			</trkpt>
			<trkpt lat="-27.988813" lon="152.995205">
				<ele>49.835</ele>
				<time>2015-07-03T23:54:51Z</time>
				<extensions>
				</extensions>
			</trkpt>
			<trkpt lat="-27.988949" lon="152.995015">
				<ele>50.970</ele>
				<time>2015-07-03T23:54:53Z</time>
				<extensions>
				</extensions>
			</trkpt>
			<trkpt lat="-27.989128" lon="152.994819">
				<ele>52.137</ele>
				<time>2015-07-03T23:54:55Z</time>
				<extensions>
				</extensions>
			</trkpt>
			<trkpt lat="-27.989289" lon="152.994625">
				<ele>52.143</ele>
				<time>2015-07-03T23:54:57Z</time>
				<extensions>
				</extensions>
			</trkpt>
			<trkpt lat="-27.989445" lon="152.994440">
				<ele>50.618</ele>
				<time>2015-07-03T23:54:59Z</time>
				<extensions>
				</extensions>
			</trkpt>
			<trkpt lat="-27.989594" lon="152.994258">
				<ele>50.890</ele>
				<time>2015-07-03T23:55:01Z</time>
				<extensions>
				</extensions>
			</trkpt>
			<trkpt lat="-27.989788" lon="152.994062">
				<ele>51.726</ele>
				<time>2015-07-03T23:55:03Z</time>
				<extensions>
				</extensions>
			</trkpt>
			<trkpt lat="-27.989974" lon="152.993876">
				<ele>52.347</ele>
				<time>2015-07-03T23:55:05Z</time>
				<extensions>
				</extensions>
			</trkpt>
			<trkpt lat="-27.990170" lon="152.993709">
				<ele>51.012</ele>
				<time>2015-07-03T23:55:07Z</time>
				<extensions>
				</extensions>
			</trkpt>
			<trkpt lat="-27.990353" lon="152.993567">
				<ele>50.325</ele>
				<time>2015-07-03T23:55:09Z</time>
				<extensions>
				</extensions>
			</trkpt>
			<trkpt lat="-27.990526" lon="152.993423">
				<ele>50.186</ele>
				<time>2015-07-03T23:55:11Z</time>
				<extensions>
				</extensions>
			</trkpt>
			<trkpt lat="-27.990704" lon="152.993285">
				<ele>49.881</ele>
				<time>2015-07-03T23:55:13Z</time>
				<extensions>
				</extensions>
			</trkpt>
			<trkpt lat="-27.990884" lon="152.993108">
				<ele>50.466</ele>
				<time>2015-07-03T23:55:15Z</time>
				<extensions>
				</extensions>
			</trkpt>
			<trkpt lat="-27.991136" lon="152.992985">
				<ele>52.431</ele>
				<time>2015-07-03T23:55:17Z</time>
				<extensions>
				</extensions>
			</trkpt>
			<trkpt lat="-27.991405" lon="152.992807">
				<ele>54.437</ele>
				<time>2015-07-03T23:55:19Z</time>
				<extensions>
				</extensions>
			</trkpt>
			<trkpt lat="-27.991721" lon="152.992626">
				<ele>54.901</ele>
				<time>2015-07-03T23:55:21Z</time>
				<extensions>
				</extensions>
			</trkpt>
			<trkpt lat="-27.992002" lon="152.992466">
				<ele>54.564</ele>
				<time>2015-07-03T23:55:23Z</time>
				<extensions>
				</extensions>
			</trkpt>
			<trkpt lat="-27.992215" lon="152.992297">
				<ele>55.394</ele>
				<time>2015-07-03T23:55:25Z</time>
				<extensions>
				</extensions>
			</trkpt>
			<trkpt lat="-27.992468" lon="152.992114">
				<ele>57.800</ele>
				<time>2015-07-03T23:55:27Z</time>
				<extensions>
				</extensions>
			</trkpt>
			<trkpt lat="-27.992737" lon="152.991912">
				<ele>57.409</ele>
				<time>2015-07-03T23:55:29Z</time>
				<extensions>
				</extensions>
			</trkpt>
			<trkpt lat="-27.993046" lon="152.991709">
				<ele>58.552</ele>
				<time>2015-07-03T23:55:31Z</time>
				<extensions>
				</extensions>
			</trkpt>
			<trkpt lat="-27.993370" lon="152.991510">
				<ele>60.296</ele>
				<time>2015-07-03T23:55:33Z</time>
				<extensions>
				</extensions>
			</trkpt>
			<trkpt lat="-27.993613" lon="152.991316">
				<ele>58.862</ele>
				<time>2015-07-03T23:55:35Z</time>
				<extensions>
				</extensions>
			</trkpt>
			<trkpt lat="-27.993896" lon="152.991120">
				<ele>59.489</ele>
				<time>2015-07-03T23:55:37Z</time>
				<extensions>
				</extensions>
			</trkpt>
			<trkpt lat="-27.994179" lon="152.990920">
				<ele>59.517</ele>
				<time>2015-07-03T23:55:39Z</time>
				<extensions>
				</extensions>
			</trkpt>
			<trkpt lat="-27.994455" lon="152.990728">
				<ele>61.053</ele>
				<time>2015-07-03T23:55:41Z</time>
				<extensions>
				</extensions>
			</trkpt>
			<trkpt lat="-27.994724" lon="152.990544">
				<ele>59.480</ele>
				<time>2015-07-03T23:55:43Z</time>
				<extensions>
				</extensions>
			</trkpt>
			<trkpt lat="-27.994980" lon="152.990360">
				<ele>58.671</ele>
				<time>2015-07-03T23:55:45Z</time>
				<extensions>
				</extensions>
			</trkpt>
			<trkpt lat="-27.995202" lon="152.990169">
				<ele>59.249</ele>
				<time>2015-07-03T23:55:47Z</time>
				<extensions>
				</extensions>
			</trkpt>
			<trkpt lat="-27.995412" lon="152.989988">
				<ele>59.955</ele>
				<time>2015-07-03T23:55:49Z</time>
				<extensions>
				</extensions>
			</trkpt>
			<trkpt lat="-27.995798" lon="152.989799">
				<ele>57.512</ele>
				<time>2015-07-03T23:55:51Z</time>
				<extensions>
				</extensions>
			</trkpt>
			<trkpt lat="-27.996081" lon="152.989614">
				<ele>55.832</ele>
				<time>2015-07-03T23:55:53Z</time>
				<extensions>
				</extensions>
			</trkpt>
			<trkpt lat="-27.996368" lon="152.989419">
				<ele>54.838</ele>
				<time>2015-07-03T23:55:55Z</time>
				<extensions>
				</extensions>
			</trkpt>
			<trkpt lat="-27.996642" lon="152.989224">
				<ele>55.583</ele>
				<time>2015-07-03T23:55:57Z</time>
				<extensions>
				</extensions>
			</trkpt>
			<trkpt lat="-27.996922" lon="152.989028">
				<ele>56.072</ele>
				<time>2015-07-03T23:55:59Z</time>
				<extensions>
				</extensions>
			</trkpt>
			<trkpt lat="-27.997209" lon="152.988835">
				<ele>56.043</ele>
				<time>2015-07-03T23:56:01Z</time>
				<extensions>
				</extensions>
			</trkpt>
			<trkpt lat="-27.997503" lon="152.988655">
				<ele>54.414</ele>
				<time>2015-07-03T23:56:03Z</time>
				<extensions>
				</extensions>
			</trkpt>
			<trkpt lat="-27.997797" lon="152.988505">
				<ele>53.473</ele>
				<time>2015-07-03T23:56:05Z</time>
				<extensions>
				</extensions>
			</trkpt>
			<trkpt lat="-27.998051" lon="152.988298">
				<ele>53.481</ele>
				<time>2015-07-03T23:56:07Z</time>
				<extensions>
				</extensions>
			</trkpt>
			<trkpt lat="-27.998309" lon="152.988115">
				<ele>53.374</ele>
				<time>2015-07-03T23:56:09Z</time>
				<extensions>
				</extensions>
			</trkpt>
			<trkpt lat="-27.998547" lon="152.987938">
				<ele>54.045</ele>
				<time>2015-07-03T23:56:11Z</time>
				<extensions>
				</extensions>
			</trkpt>
			<trkpt lat="-27.998756" lon="152.987736">
				<ele>55.277</ele>
				<time>2015-07-03T23:56:13Z</time>
				<extensions>
				</extensions>
			</trkpt>
			<trkpt lat="-27.999218" lon="152.987511">
				<ele>58.375</ele>
				<time>2015-07-03T23:56:15Z</time>
				<extensions>
				</extensions>
			</trkpt>
			<trkpt lat="-27.999399" lon="152.987380">
				<ele>59.206</ele>
				<time>2015-07-03T23:56:16Z</time>
				<extensions>
				</extensions>
			</trkpt>
			<trkpt lat="-27.999596" lon="152.987244">
				<ele>58.501</ele>
				<time>2015-07-03T23:56:17Z</time>
				<extensions>
				</extensions>
			</trkpt>
			<trkpt lat="-27.999790" lon="152.987105">
				<ele>59.084</ele>
				<time>2015-07-03T23:56:18Z</time>
				<extensions>
				</extensions>
			</trkpt>
			<trkpt lat="-27.999966" lon="152.986972">
				<ele>57.938</ele>
				<time>2015-07-03T23:56:19Z</time>
				<extensions>
				</extensions>
			</trkpt>
			<trkpt lat="-28.000120" lon="152.986861">
				<ele>58.044</ele>
				<time>2015-07-03T23:56:20Z</time>
				<extensions>
				</extensions>
			</trkpt>
			<trkpt lat="-28.000226" lon="152.986785">
				<ele>57.536</ele>
				<time>2015-07-03T23:56:21Z</time>
				<extensions>
				</extensions>
			</trkpt>
			<trkpt lat="-28.000511" lon="152.986559">
				<ele>56.894</ele>
				<time>2015-07-03T23:56:23Z</time>
				<extensions>
				</extensions>
			</trkpt>
			<trkpt lat="-28.000770" lon="152.986332">
				<ele>60.474</ele>
				<time>2015-07-03T23:56:25Z</time>
				<extensions>
				</extensions>
			</trkpt>
			<trkpt lat="-28.000942" lon="152.986207">
				<ele>62.001</ele>
				<time>2015-07-03T23:56:26Z</time>
				<extensions>
				</extensions>
			</trkpt>
			<trkpt lat="-28.001135" lon="152.986075">
				<ele>63.360</ele>
				<time>2015-07-03T23:56:27Z</time>
				<extensions>
				</extensions>
			</trkpt>
			<trkpt lat="-28.001388" lon="152.985944">
				<ele>61.981</ele>
				<time>2015-07-03T23:56:28Z</time>
				<extensions>
				</extensions>
			</trkpt>
			<trkpt lat="-28.001609" lon="152.985819">
				<ele>60.309</ele>
				<time>2015-07-03T23:56:29Z</time>
				<extensions>
				</extensions>
			</trkpt>
			<trkpt lat="-28.001799" lon="152.985693">
				<ele>59.980</ele>
				<time>2015-07-03T23:56:30Z</time>
				<extensions>
				</extensions>
			</trkpt>
			<trkpt lat="-28.001996" lon="152.985559">
				<ele>61.775</ele>
				<time>2015-07-03T23:56:31Z</time>
				<extensions>
				</extensions>
			</trkpt>
			<trkpt lat="-28.002190" lon="152.985421">
				<ele>60.497</ele>
				<time>2015-07-03T23:56:32Z</time>
				<extensions>
				</extensions>
			</trkpt>
			<trkpt lat="-28.002381" lon="152.985286">
				<ele>60.480</ele>
				<time>2015-07-03T23:56:33Z</time>
				<extensions>
				</extensions>
			</trkpt>
			<trkpt lat="-28.002570" lon="152.985153">
				<ele>59.762</ele>
				<time>2015-07-03T23:56:34Z</time>
				<extensions>
				</extensions>
			</trkpt>
			<trkpt lat="-28.002768" lon="152.985017">
				<ele>60.283</ele>
				<time>2015-07-03T23:56:35Z</time>
				<extensions>
				</extensions>
			</trkpt>
			<trkpt lat="-28.002964" lon="152.984882">
				<ele>60.913</ele>
				<time>2015-07-03T23:56:36Z</time>
				<extensions>
				</extensions>
			</trkpt>
			<trkpt lat="-28.003173" lon="152.984740">
				<ele>60.701</ele>
				<time>2015-07-03T23:56:37Z</time>
				<extensions>
				</extensions>
			</trkpt>
			<trkpt lat="-28.003371" lon="152.984604">
				<ele>59.911</ele>
				<time>2015-07-03T23:56:38Z</time>
				<extensions>
				</extensions>
			</trkpt>
			<trkpt lat="-28.003569" lon="152.984465">
				<ele>60.624</ele>
				<time>2015-07-03T23:56:39Z</time>
				<extensions>
				</extensions>
			</trkpt>
			<trkpt lat="-28.003762" lon="152.984330">
				<ele>60.771</ele>
				<time>2015-07-03T23:56:40Z</time>
				<extensions>
				</extensions>
			</trkpt>
			<trkpt lat="-28.003960" lon="152.984192">
				<ele>59.398</ele>
				<time>2015-07-03T23:56:41Z</time>
				<extensions>
				</extensions>
			</trkpt>
			<trkpt lat="-28.004155" lon="152.984058">
				<ele>59.797</ele>
				<time>2015-07-03T23:56:42Z</time>
				<extensions>
				</extensions>
			</trkpt>
			<trkpt lat="-28.004354" lon="152.983925">
				<ele>61.451</ele>
				<time>2015-07-03T23:56:43Z</time>
				<extensions>
				</extensions>
			</trkpt>
			<trkpt lat="-28.004555" lon="152.983790">
				<ele>62.965</ele>
				<time>2015-07-03T23:56:44Z</time>
				<extensions>
				</extensions>
			</trkpt>
			<trkpt lat="-28.004757" lon="152.983658">
				<ele>62.066</ele>
				<time>2015-07-03T23:56:45Z</time>
				<extensions>
				</extensions>
			</trkpt>
			<trkpt lat="-28.004961" lon="152.983523">
				<ele>60.581</ele>
				<time>2015-07-03T23:56:46Z</time>
				<extensions>
				</extensions>
			</trkpt>
			<trkpt lat="-28.005173" lon="152.983388">
				<ele>60.365</ele>
				<time>2015-07-03T23:56:47Z</time>
				<extensions>
				</extensions>
			</trkpt>
			<trkpt lat="-28.005373" lon="152.983248">
				<ele>61.094</ele>
				<time>2015-07-03T23:56:48Z</time>
				<extensions>
				</extensions>
			</trkpt>
			<trkpt lat="-28.005574" lon="152.983110">
				<ele>60.733</ele>
				<time>2015-07-03T23:56:49Z</time>
				<extensions>
				</extensions>
			</trkpt>
			<trkpt lat="-28.005771" lon="152.982972">
				<ele>60.637</ele>
				<time>2015-07-03T23:56:50Z</time>
				<extensions>
				</extensions>
			</trkpt>
			<trkpt lat="-28.005960" lon="152.982840">
				<ele>58.404</ele>
				<time>2015-07-03T23:56:51Z</time>
				<extensions>
				</extensions>
			</trkpt>
			<trkpt lat="-28.006142" lon="152.982713">
				<ele>57.423</ele>
				<time>2015-07-03T23:56:52Z</time>
				<extensions>
				</extensions>
			</trkpt>
			<trkpt lat="-28.006327" lon="152.982583">
				<ele>57.395</ele>
				<time>2015-07-03T23:56:53Z</time>
				<extensions>
				</extensions>
			</trkpt>
			<trkpt lat="-28.006518" lon="152.982457">
				<ele>58.019</ele>
				<time>2015-07-03T23:56:54Z</time>
				<extensions>
				</extensions>
			</trkpt>
			<trkpt lat="-28.006704" lon="152.982327">
				<ele>57.162</ele>
				<time>2015-07-03T23:56:55Z</time>
				<extensions>
				</extensions>
			</trkpt>
			<trkpt lat="-28.006895" lon="152.982195">
				<ele>56.914</ele>
				<time>2015-07-03T23:56:56Z</time>
				<extensions>
				</extensions>
			</trkpt>
			<trkpt lat="-28.007084" lon="152.982065">
				<ele>56.544</ele>
				<time>2015-07-03T23:56:57Z</time>
				<extensions>
				</extensions>
			</trkpt>
			<trkpt lat="-28.007273" lon="152.981940">
				<ele>57.124</ele>
				<time>2015-07-03T23:56:58Z</time>
				<extensions>
				</extensions>
			</trkpt>
			<trkpt lat="-28.007462" lon="152.981813">
				<ele>55.996</ele>
				<time>2015-07-03T23:56:59Z</time>
				<extensions>
				</extensions>
			</trkpt>
			<trkpt lat="-28.007648" lon="152.981684">
				<ele>55.615</ele>
				<time>2015-07-03T23:57:00Z</time>
				<extensions>
				</extensions>
			</trkpt>
			<trkpt lat="-28.007839" lon="152.981553">
				<ele>55.922</ele>
				<time>2015-07-03T23:57:01Z</time>
				<extensions>
				</extensions>
			</trkpt>
			<trkpt lat="-28.008027" lon="152.981423">
				<ele>54.760</ele>
				<time>2015-07-03T23:57:02Z</time>
				<extensions>
				</extensions>
			</trkpt>
			<trkpt lat="-28.008216" lon="152.981295">
				<ele>54.691</ele>
				<time>2015-07-03T23:57:03Z</time>
				<extensions>
				</extensions>
			</trkpt>
			<trkpt lat="-28.008404" lon="152.981168">
				<ele>55.962</ele>
				<time>2015-07-03T23:57:04Z</time>
				<extensions>
				</extensions>
			</trkpt>
			<trkpt lat="-28.008595" lon="152.981038">
				<ele>58.886</ele>
				<time>2015-07-03T23:57:05Z</time>
				<extensions>
				</extensions>
			</trkpt>
			<trkpt lat="-28.008791" lon="152.980907">
				<ele>59.157</ele>
				<time>2015-07-03T23:57:06Z</time>
				<extensions>
				</extensions>
			</trkpt>
			<trkpt lat="-28.008989" lon="152.980768">
				<ele>59.157</ele>
				<time>2015-07-03T23:57:07Z</time>
				<extensions>
				</extensions>
			</trkpt>
			<trkpt lat="-28.009188" lon="152.980633">
				<ele>58.576</ele>
				<time>2015-07-03T23:57:08Z</time>
				<extensions>
				</extensions>
			</trkpt>
			<trkpt lat="-28.009388" lon="152.980496">
				<ele>60.621</ele>
				<time>2015-07-03T23:57:09Z</time>
				<extensions>
				</extensions>
			</trkpt>
			<trkpt lat="-28.009591" lon="152.980353">
				<ele>60.874</ele>
				<time>2015-07-03T23:57:10Z</time>
				<extensions>
				</extensions>
			</trkpt>
			<trkpt lat="-28.009802" lon="152.980207">
				<ele>60.837</ele>
				<time>2015-07-03T23:57:11Z</time>
				<extensions>
				</extensions>
			</trkpt>
			<trkpt lat="-28.010009" lon="152.980065">
				<ele>58.997</ele>
				<time>2015-07-03T23:57:12Z</time>
				<extensions>
				</extensions>
			</trkpt>
			<trkpt lat="-28.010212" lon="152.979924">
				<ele>58.476</ele>
				<time>2015-07-03T23:57:13Z</time>
				<extensions>
				</extensions>
			</trkpt>
			<trkpt lat="-28.010415" lon="152.979785">
				<ele>57.657</ele>
				<time>2015-07-03T23:57:14Z</time>
				<extensions>
				</extensions>
			</trkpt>
			<trkpt lat="-28.010617" lon="152.979647">
				<ele>58.020</ele>
				<time>2015-07-03T23:57:15Z</time>
				<extensions>
				</extensions>
			</trkpt>
			<trkpt lat="-28.010813" lon="152.979510">
				<ele>57.990</ele>
				<time>2015-07-03T23:57:16Z</time>
				<extensions>
				</extensions>
			</trkpt>
			<trkpt lat="-28.011013" lon="152.979375">
				<ele>58.337</ele>
				<time>2015-07-03T23:57:17Z</time>
				<extensions>
				</extensions>
			</trkpt>
			<trkpt lat="-28.011211" lon="152.979238">
				<ele>58.117</ele>
				<time>2015-07-03T23:57:18Z</time>
				<extensions>
				</extensions>
			</trkpt>
			<trkpt lat="-28.011411" lon="152.979103">
				<ele>57.898</ele>
				<time>2015-07-03T23:57:19Z</time>
				<extensions>
				</extensions>
			</trkpt>
			<trkpt lat="-28.011609" lon="152.978966">
				<ele>59.947</ele>
				<time>2015-07-03T23:57:20Z</time>
				<extensions>
				</extensions>
			</trkpt>
			<trkpt lat="-28.011805" lon="152.978830">
				<ele>57.638</ele>
				<time>2015-07-03T23:57:21Z</time>
				<extensions>
				</extensions>
			</trkpt>
			<trkpt lat="-28.012000" lon="152.978698">
				<ele>58.021</ele>
				<time>2015-07-03T23:57:22Z</time>
				<extensions>
				</extensions>
			</trkpt>
			<trkpt lat="-28.012195" lon="152.978563">
				<ele>59.213</ele>
				<time>2015-07-03T23:57:23Z</time>
				<extensions>
				</extensions>
			</trkpt>
			<trkpt lat="-28.012391" lon="152.978429">
				<ele>62.231</ele>
				<time>2015-07-03T23:57:24Z</time>
				<extensions>
				</extensions>
			</trkpt>
			<trkpt lat="-28.012585" lon="152.978293">
				<ele>59.923</ele>
				<time>2015-07-03T23:57:25Z</time>
				<extensions>
				</extensions>
			</trkpt>
			<trkpt lat="-28.012780" lon="152.978157">
				<ele>58.466</ele>
				<time>2015-07-03T23:57:26Z</time>
				<extensions>
				</extensions>
			</trkpt>
			<trkpt lat="-28.012980" lon="152.978020">
				<ele>58.258</ele>
				<time>2015-07-03T23:57:27Z</time>
				<extensions>
				</extensions>
			</trkpt>
			<trkpt lat="-28.013175" lon="152.977887">
				<ele>58.045</ele>
				<time>2015-07-03T23:57:28Z</time>
				<extensions>
				</extensions>
			</trkpt>
			<trkpt lat="-28.013374" lon="152.977752">
				<ele>59.445</ele>
				<time>2015-07-03T23:57:29Z</time>
				<extensions>
				</extensions>
			</trkpt>
			<trkpt lat="-28.013570" lon="152.977619">
				<ele>59.428</ele>
				<time>2015-07-03T23:57:30Z</time>
				<extensions>
				</extensions>
			</trkpt>
			<trkpt lat="-28.013765" lon="152.977483">
				<ele>59.437</ele>
				<time>2015-07-03T23:57:31Z</time>
				<extensions>
				</extensions>
			</trkpt>
			<trkpt lat="-28.013962" lon="152.977351">
				<ele>59.395</ele>
				<time>2015-07-03T23:57:32Z</time>
				<extensions>
				</extensions>
			</trkpt>
			<trkpt lat="-28.014161" lon="152.977210">
				<ele>58.402</ele>
				<time>2015-07-03T23:57:33Z</time>
				<extensions>
				</extensions>
			</trkpt>
			<trkpt lat="-28.014358" lon="152.977073">
				<ele>58.249</ele>
				<time>2015-07-03T23:57:34Z</time>
				<extensions>
				</extensions>
			</trkpt>
			<trkpt lat="-28.014553" lon="152.976944">
				<ele>57.434</ele>
				<time>2015-07-03T23:57:35Z</time>
				<extensions>
				</extensions>
			</trkpt>
			<trkpt lat="-28.014748" lon="152.976810">
				<ele>57.154</ele>
				<time>2015-07-03T23:57:36Z</time>
				<extensions>
				</extensions>
			</trkpt>
			<trkpt lat="-28.014943" lon="152.976675">
				<ele>59.783</ele>
				<time>2015-07-03T23:57:37Z</time>
				<extensions>
				</extensions>
			</trkpt>
			<trkpt lat="-28.015132" lon="152.976539">
				<ele>61.323</ele>
				<time>2015-07-03T23:57:38Z</time>
				<extensions>
				</extensions>
			</trkpt>
			<trkpt lat="-28.015340" lon="152.976408">
				<ele>60.981</ele>
				<time>2015-07-03T23:57:39Z</time>
				<extensions>
				</extensions>
			</trkpt>
			<trkpt lat="-28.015535" lon="152.976282">
				<ele>59.947</ele>
				<time>2015-07-03T23:57:40Z</time>
				<extensions>
				</extensions>
			</trkpt>
			<trkpt lat="-28.015725" lon="152.976150">
				<ele>59.819</ele>
				<time>2015-07-03T23:57:41Z</time>
				<extensions>
				</extensions>
			</trkpt>
			<trkpt lat="-28.015921" lon="152.976025">
				<ele>58.953</ele>
				<time>2015-07-03T23:57:42Z</time>
				<extensions>
				</extensions>
			</trkpt>
			<trkpt lat="-28.016113" lon="152.975897">
				<ele>59.274</ele>
				<time>2015-07-03T23:57:43Z</time>
				<extensions>
				</extensions>
			</trkpt>
			<trkpt lat="-28.016311" lon="152.975767">
				<ele>58.535</ele>
				<time>2015-07-03T23:57:44Z</time>
				<extensions>
				</extensions>
			</trkpt>
			<trkpt lat="-28.016504" lon="152.975640">
				<ele>58.216</ele>
				<time>2015-07-03T23:57:45Z</time>
				<extensions>
				</extensions>
			</trkpt>
			<trkpt lat="-28.016697" lon="152.975508">
				<ele>60.228</ele>
				<time>2015-07-03T23:57:46Z</time>
				<extensions>
				</extensions>
			</trkpt>
			<trkpt lat="-28.016880" lon="152.975375">
				<ele>59.890</ele>
				<time>2015-07-03T23:57:47Z</time>
				<extensions>
				</extensions>
			</trkpt>
			<trkpt lat="-28.017071" lon="152.975247">
				<ele>60.068</ele>
				<time>2015-07-03T23:57:48Z</time>
				<extensions>
				</extensions>
			</trkpt>
			<trkpt lat="-28.017258" lon="152.975118">
				<ele>60.989</ele>
				<time>2015-07-03T23:57:49Z</time>
				<extensions>
				</extensions>
			</trkpt>
			<trkpt lat="-28.017441" lon="152.974987">
				<ele>59.891</ele>
				<time>2015-07-03T23:57:50Z</time>
				<extensions>
				</extensions>
			</trkpt>
			<trkpt lat="-28.017628" lon="152.974857">
				<ele>60.357</ele>
				<time>2015-07-03T23:57:51Z</time>
				<extensions>
				</extensions>
			</trkpt>
			<trkpt lat="-28.017818" lon="152.974729">
				<ele>60.332</ele>
				<time>2015-07-03T23:57:52Z</time>
				<extensions>
				</extensions>
			</trkpt>
			<trkpt lat="-28.018011" lon="152.974593">
				<ele>59.925</ele>
				<time>2015-07-03T23:57:53Z</time>
				<extensions>
				</extensions>
			</trkpt>
			<trkpt lat="-28.018201" lon="152.974466">
				<ele>61.393</ele>
				<time>2015-07-03T23:57:54Z</time>
				<extensions>
				</extensions>
			</trkpt>
			<trkpt lat="-28.018380" lon="152.974334">
				<ele>63.274</ele>
				<time>2015-07-03T23:57:55Z</time>
				<extensions>
				</extensions>
			</trkpt>
			<trkpt lat="-28.018574" lon="152.974204">
				<ele>62.284</ele>
				<time>2015-07-03T23:57:56Z</time>
				<extensions>
				</extensions>
			</trkpt>
			<trkpt lat="-28.018767" lon="152.974067">
				<ele>62.942</ele>
				<time>2015-07-03T23:57:57Z</time>
				<extensions>
				</extensions>
			</trkpt>
			<trkpt lat="-28.018958" lon="152.973935">
				<ele>63.302</ele>
				<time>2015-07-03T23:57:58Z</time>
				<extensions>
				</extensions>
			</trkpt>
			<trkpt lat="-28.019150" lon="152.973799">
				<ele>64.262</ele>
				<time>2015-07-03T23:57:59Z</time>
				<extensions>
				</extensions>
			</trkpt>
			<trkpt lat="-28.019354" lon="152.973659">
				<ele>64.407</ele>
				<time>2015-07-03T23:58:00Z</time>
				<extensions>
				</extensions>
			</trkpt>
			<trkpt lat="-28.019562" lon="152.973513">
				<ele>66.262</ele>
				<time>2015-07-03T23:58:01Z</time>
				<extensions>
				</extensions>
			</trkpt>
			<trkpt lat="-28.019767" lon="152.973367">
				<ele>66.239</ele>
				<time>2015-07-03T23:58:02Z</time>
				<extensions>
				</extensions>
			</trkpt>
			<trkpt lat="-28.019976" lon="152.973219">
				<ele>66.824</ele>
				<time>2015-07-03T23:58:03Z</time>
				<extensions>
				</extensions>
			</trkpt>
			<trkpt lat="-28.020184" lon="152.973074">
				<ele>67.072</ele>
				<time>2015-07-03T23:58:04Z</time>
				<extensions>
				</extensions>
			</trkpt>
			<trkpt lat="-28.020396" lon="152.972933">
				<ele>67.506</ele>
				<time>2015-07-03T23:58:05Z</time>
				<extensions>
				</extensions>
			</trkpt>
			<trkpt lat="-28.020605" lon="152.972797">
				<ele>68.470</ele>
				<time>2015-07-03T23:58:06Z</time>
				<extensions>
				</extensions>
			</trkpt>
			<trkpt lat="-28.020804" lon="152.972664">
				<ele>68.205</ele>
				<time>2015-07-03T23:58:07Z</time>
				<extensions>
				</extensions>
			</trkpt>
			<trkpt lat="-28.021000" lon="152.972519">
				<ele>67.861</ele>
				<time>2015-07-03T23:58:08Z</time>
				<extensions>
				</extensions>
			</trkpt>
			<trkpt lat="-28.021196" lon="152.972388">
				<ele>66.782</ele>
				<time>2015-07-03T23:58:09Z</time>
				<extensions>
				</extensions>
			</trkpt>
			<trkpt lat="-28.021391" lon="152.972248">
				<ele>67.886</ele>
				<time>2015-07-03T23:58:10Z</time>
				<extensions>
				</extensions>
			</trkpt>
			<trkpt lat="-28.021584" lon="152.972107">
				<ele>67.886</ele>
				<time>2015-07-03T23:58:11Z</time>
				<extensions>
				</extensions>
			</trkpt>
			<trkpt lat="-28.021793" lon="152.971966">
				<ele>68.372</ele>
				<time>2015-07-03T23:58:12Z</time>
				<extensions>
				</extensions>
			</trkpt>
			<trkpt lat="-28.022004" lon="152.971820">
				<ele>69.069</ele>
				<time>2015-07-03T23:58:13Z</time>
				<extensions>
				</extensions>
			</trkpt>
			<trkpt lat="-28.022220" lon="152.971675">
				<ele>71.102</ele>
				<time>2015-07-03T23:58:14Z</time>
				<extensions>
				</extensions>
			</trkpt>
			<trkpt lat="-28.022428" lon="152.971528">
				<ele>72.242</ele>
				<time>2015-07-03T23:58:15Z</time>
				<extensions>
				</extensions>
			</trkpt>
			<trkpt lat="-28.022644" lon="152.971387">
				<ele>73.397</ele>
				<time>2015-07-03T23:58:16Z</time>
				<extensions>
				</extensions>
			</trkpt>
			<trkpt lat="-28.022852" lon="152.971237">
				<ele>72.696</ele>
				<time>2015-07-03T23:58:17Z</time>
				<extensions>
				</extensions>
			</trkpt>
			<trkpt lat="-28.023063" lon="152.971090">
				<ele>74.025</ele>
				<time>2015-07-03T23:58:18Z</time>
				<extensions>
				</extensions>
			</trkpt>
			<trkpt lat="-28.023260" lon="152.970952">
				<ele>74.609</ele>
				<time>2015-07-03T23:58:19Z</time>
				<extensions>
				</extensions>
			</trkpt>
			<trkpt lat="-28.023458" lon="152.970796">
				<ele>73.733</ele>
				<time>2015-07-03T23:58:20Z</time>
				<extensions>
				</extensions>
			</trkpt>
			<trkpt lat="-28.023665" lon="152.970636">
				<ele>71.968</ele>
				<time>2015-07-03T23:58:21Z</time>
				<extensions>
				</extensions>
			</trkpt>
			<trkpt lat="-28.023870" lon="152.970483">
				<ele>72.473</ele>
				<time>2015-07-03T23:58:22Z</time>
				<extensions>
				</extensions>
			</trkpt>
			<trkpt lat="-28.024083" lon="152.970308">
				<ele>75.082</ele>
				<time>2015-07-03T23:58:23Z</time>
				<extensions>
				</extensions>
			</trkpt>
			<trkpt lat="-28.024273" lon="152.970137">
				<ele>76.024</ele>
				<time>2015-07-03T23:58:24Z</time>
				<extensions>
				</extensions>
			</trkpt>
			<trkpt lat="-28.024479" lon="152.969951">
				<ele>76.957</ele>
				<time>2015-07-03T23:58:25Z</time>
				<extensions>
				</extensions>
			</trkpt>
			<trkpt lat="-28.024675" lon="152.969767">
				<ele>75.229</ele>
				<time>2015-07-03T23:58:26Z</time>
				<extensions>
				</extensions>
			</trkpt>
			<trkpt lat="-28.024863" lon="152.969578">
				<ele>74.008</ele>
				<time>2015-07-03T23:58:27Z</time>
				<extensions>
				</extensions>
			</trkpt>
			<trkpt lat="-28.025040" lon="152.969388">
				<ele>72.965</ele>
				<time>2015-07-03T23:58:28Z</time>
				<extensions>
				</extensions>
			</trkpt>
			<trkpt lat="-28.025219" lon="152.969195">
				<ele>72.635</ele>
				<time>2015-07-03T23:58:29Z</time>
				<extensions>
				</extensions>
			</trkpt>
			<trkpt lat="-28.025390" lon="152.968994">
				<ele>74.665</ele>
				<time>2015-07-03T23:58:30Z</time>
				<extensions>
				</extensions>
			</trkpt>
			<trkpt lat="-28.025549" lon="152.968786">
				<ele>73.089</ele>
				<time>2015-07-03T23:58:31Z</time>
				<extensions>
				</extensions>
			</trkpt>
			<trkpt lat="-28.025707" lon="152.968564">
				<ele>75.070</ele>
				<time>2015-07-03T23:58:32Z</time>
				<extensions>
				</extensions>
			</trkpt>
			<trkpt lat="-28.025863" lon="152.968334">
				<ele>76.343</ele>
				<time>2015-07-03T23:58:33Z</time>
				<extensions>
				</extensions>
			</trkpt>
			<trkpt lat="-28.026017" lon="152.968102">
				<ele>77.914</ele>
				<time>2015-07-03T23:58:34Z</time>
				<extensions>
				</extensions>
			</trkpt>
			<trkpt lat="-28.026159" lon="152.967866">
				<ele>77.798</ele>
				<time>2015-07-03T23:58:35Z</time>
				<extensions>
				</extensions>
			</trkpt>
			<trkpt lat="-28.026277" lon="152.967625">
				<ele>76.836</ele>
				<time>2015-07-03T23:58:36Z</time>
				<extensions>
				</extensions>
			</trkpt>
			<trkpt lat="-28.026389" lon="152.967381">
				<ele>77.780</ele>
				<time>2015-07-03T23:58:37Z</time>
				<extensions>
				</extensions>
			</trkpt>
			<trkpt lat="-28.026499" lon="152.967136">
				<ele>78.020</ele>
				<time>2015-07-03T23:58:38Z</time>
				<extensions>
				</extensions>
			</trkpt>
			<trkpt lat="-28.026611" lon="152.966875">
				<ele>79.609</ele>
				<time>2015-07-03T23:58:39Z</time>
				<extensions>
				</extensions>
			</trkpt>
			<trkpt lat="-28.026726" lon="152.966636">
				<ele>76.945</ele>
				<time>2015-07-03T23:58:40Z</time>
				<extensions>
				</extensions>
			</trkpt>
			<trkpt lat="-28.026809" lon="152.966377">
				<ele>77.762</ele>
				<time>2015-07-03T23:58:41Z</time>
				<extensions>
				</extensions>
			</trkpt>
			<trkpt lat="-28.026888" lon="152.966106">
				<ele>77.436</ele>
				<time>2015-07-03T23:58:42Z</time>
				<extensions>
				</extensions>
			</trkpt>
			<trkpt lat="-28.026955" lon="152.965840">
				<ele>77.102</ele>
				<time>2015-07-03T23:58:43Z</time>
				<extensions>
				</extensions>
			</trkpt>
			<trkpt lat="-28.027010" lon="152.965557">
				<ele>78.591</ele>
				<time>2015-07-03T23:58:44Z</time>
				<extensions>
				</extensions>
			</trkpt>
			<trkpt lat="-28.027063" lon="152.965278">
				<ele>79.840</ele>
				<time>2015-07-03T23:58:45Z</time>
				<extensions>
				</extensions>
			</trkpt>
			<trkpt lat="-28.027114" lon="152.964997">
				<ele>77.589</ele>
				<time>2015-07-03T23:58:46Z</time>
				<extensions>
				</extensions>
			</trkpt>
			<trkpt lat="-28.027170" lon="152.964719">
				<ele>78.011</ele>
				<time>2015-07-03T23:58:47Z</time>
				<extensions>
				</extensions>
			</trkpt>
			<trkpt lat="-28.027224" lon="152.964432">
				<ele>77.742</ele>
				<time>2015-07-03T23:58:48Z</time>
				<extensions>
				</extensions>
			</trkpt>
			<trkpt lat="-28.027268" lon="152.964148">
				<ele>78.523</ele>
				<time>2015-07-03T23:58:49Z</time>
				<extensions>
				</extensions>
			</trkpt>
			<trkpt lat="-28.027324" lon="152.963863">
				<ele>81.316</ele>
				<time>2015-07-03T23:58:50Z</time>
				<extensions>
				</extensions>
			</trkpt>
			<trkpt lat="-28.027374" lon="152.963585">
				<ele>82.126</ele>
				<time>2015-07-03T23:58:51Z</time>
				<extensions>
				</extensions>
			</trkpt>
			<trkpt lat="-28.027416" lon="152.963310">
				<ele>78.994</ele>
				<time>2015-07-03T23:58:52Z</time>
				<extensions>
				</extensions>
			</trkpt>
			<trkpt lat="-28.027458" lon="152.963045">
				<ele>78.239</ele>
				<time>2015-07-03T23:58:53Z</time>
				<extensions>
				</extensions>
			</trkpt>
			<trkpt lat="-28.027505" lon="152.962785">
				<ele>78.040</ele>
				<time>2015-07-03T23:58:54Z</time>
				<extensions>
				</extensions>
			</trkpt>
			<trkpt lat="-28.027545" lon="152.962522">
				<ele>76.855</ele>
				<time>2015-07-03T23:58:55Z</time>
				<extensions>
				</extensions>
			</trkpt>
			<trkpt lat="-28.027584" lon="152.962257">
				<ele>76.125</ele>
				<time>2015-07-03T23:58:56Z</time>
				<extensions>
				</extensions>
			</trkpt>
			<trkpt lat="-28.027629" lon="152.961999">
				<ele>76.232</ele>
				<time>2015-07-03T23:58:57Z</time>
				<extensions>
				</extensions>
			</trkpt>
			<trkpt lat="-28.027673" lon="152.961727">
				<ele>77.304</ele>
				<time>2015-07-03T23:58:58Z</time>
				<extensions>
				</extensions>
			</trkpt>
			<trkpt lat="-28.027721" lon="152.961446">
				<ele>73.684</ele>
				<time>2015-07-03T23:58:59Z</time>
				<extensions>
				</extensions>
			</trkpt>
			<trkpt lat="-28.027772" lon="152.961174">
				<ele>76.306</ele>
				<time>2015-07-03T23:59:00Z</time>
				<extensions>
				</extensions>
			</trkpt>
			<trkpt lat="-28.027821" lon="152.960905">
				<ele>75.597</ele>
				<time>2015-07-03T23:59:01Z</time>
				<extensions>
				</extensions>
			</trkpt>
			<trkpt lat="-28.027858" lon="152.960635">
				<ele>74.409</ele>
				<time>2015-07-03T23:59:02Z</time>
				<extensions>
				</extensions>
			</trkpt>
			<trkpt lat="-28.027893" lon="152.960366">
				<ele>73.104</ele>
				<time>2015-07-03T23:59:03Z</time>
				<extensions>
				</extensions>
			</trkpt>
			<trkpt lat="-28.027926" lon="152.960096">
				<ele>74.048</ele>
				<time>2015-07-03T23:59:04Z</time>
				<extensions>
				</extensions>
			</trkpt>
			<trkpt lat="-28.027942" lon="152.959819">
				<ele>77.350</ele>
				<time>2015-07-03T23:59:05Z</time>
				<extensions>
				</extensions>
			</trkpt>
			<trkpt lat="-28.027956" lon="152.959533">
				<ele>78.292</ele>
				<time>2015-07-03T23:59:06Z</time>
				<extensions>
				</extensions>
			</trkpt>
			<trkpt lat="-28.027962" lon="152.959246">
				<ele>79.042</ele>
				<time>2015-07-03T23:59:07Z</time>
				<extensions>
				</extensions>
			</trkpt>
			<trkpt lat="-28.027956" lon="152.958954">
				<ele>80.182</ele>
				<time>2015-07-03T23:59:08Z</time>
				<extensions>
				</extensions>
			</trkpt>
			<trkpt lat="-28.027949" lon="152.958663">
				<ele>79.954</ele>
				<time>2015-07-03T23:59:09Z</time>
				<extensions>
				</extensions>
			</trkpt>
			<trkpt lat="-28.027931" lon="152.958377">
				<ele>80.914</ele>
				<time>2015-07-03T23:59:10Z</time>
				<extensions>
				</extensions>
			</trkpt>
			<trkpt lat="-28.027907" lon="152.958099">
				<ele>81.728</ele>
				<time>2015-07-03T23:59:11Z</time>
				<extensions>
				</extensions>
			</trkpt>
			<trkpt lat="-28.027885" lon="152.957828">
				<ele>81.194</ele>
				<time>2015-07-03T23:59:12Z</time>
				<extensions>
				</extensions>
			</trkpt>
			<trkpt lat="-28.027860" lon="152.957541">
				<ele>81.194</ele>
				<time>2015-07-03T23:59:13Z</time>
				<extensions>
				</extensions>
			</trkpt>
			<trkpt lat="-28.027842" lon="152.957259">
				<ele>81.256</ele>
				<time>2015-07-03T23:59:14Z</time>
				<extensions>
				</extensions>
			</trkpt>
			<trkpt lat="-28.027820" lon="152.956982">
				<ele>81.882</ele>
				<time>2015-07-03T23:59:15Z</time>
				<extensions>
				</extensions>
			</trkpt>
			<trkpt lat="-28.027795" lon="152.956707">
				<ele>83.845</ele>
				<time>2015-07-03T23:59:16Z</time>
				<extensions>
				</extensions>
			</trkpt>
			<trkpt lat="-28.027773" lon="152.956440">
				<ele>84.408</ele>
				<time>2015-07-03T23:59:17Z</time>
				<extensions>
				</extensions>
			</trkpt>
			<trkpt lat="-28.027754" lon="152.956180">
				<ele>86.819</ele>
				<time>2015-07-03T23:59:18Z</time>
				<extensions>
				</extensions>
			</trkpt>
			<trkpt lat="-28.027740" lon="152.955915">
				<ele>86.402</ele>
				<time>2015-07-03T23:59:19Z</time>
				<extensions>
				</extensions>
			</trkpt>
			<trkpt lat="-28.027732" lon="152.955657">
				<ele>85.317</ele>
				<time>2015-07-03T23:59:20Z</time>
				<extensions>
				</extensions>
			</trkpt>
			<trkpt lat="-28.027727" lon="152.955390">
				<ele>88.907</ele>
				<time>2015-07-03T23:59:21Z</time>
				<extensions>
				</extensions>
			</trkpt>
			<trkpt lat="-28.027726" lon="152.955123">
				<ele>86.523</ele>
				<time>2015-07-03T23:59:22Z</time>
				<extensions>
				</extensions>
			</trkpt>
			<trkpt lat="-28.027720" lon="152.954862">
				<ele>87.435</ele>
				<time>2015-07-03T23:59:23Z</time>
				<extensions>
				</extensions>
			</trkpt>
			<trkpt lat="-28.027733" lon="152.954590">
				<ele>87.748</ele>
				<time>2015-07-03T23:59:24Z</time>
				<extensions>
				</extensions>
			</trkpt>
			<trkpt lat="-28.027742" lon="152.954329">
				<ele>88.402</ele>
				<time>2015-07-03T23:59:25Z</time>
				<extensions>
				</extensions>
			</trkpt>
			<trkpt lat="-28.027756" lon="152.954064">
				<ele>87.985</ele>
				<time>2015-07-03T23:59:26Z</time>
				<extensions>
				</extensions>
			</trkpt>
			<trkpt lat="-28.027772" lon="152.953791">
				<ele>89.190</ele>
				<time>2015-07-03T23:59:27Z</time>
				<extensions>
				</extensions>
			</trkpt>
			<trkpt lat="-28.027792" lon="152.953524">
				<ele>89.576</ele>
				<time>2015-07-03T23:59:28Z</time>
				<extensions>
				</extensions>
			</trkpt>
			<trkpt lat="-28.027822" lon="152.953245">
				<ele>90.640</ele>
				<time>2015-07-03T23:59:29Z</time>
				<extensions>
				</extensions>
			</trkpt>
			<trkpt lat="-28.027854" lon="152.952978">
				<ele>92.608</ele>
				<time>2015-07-03T23:59:30Z</time>
				<extensions>
				</extensions>
			</trkpt>
			<trkpt lat="-28.027889" lon="152.952711">
				<ele>92.781</ele>
				<time>2015-07-03T23:59:31Z</time>
				<extensions>
				</extensions>
			</trkpt>
			<trkpt lat="-28.027936" lon="152.952436">
				<ele>92.612</ele>
				<time>2015-07-03T23:59:32Z</time>
				<extensions>
				</extensions>
			</trkpt>
			<trkpt lat="-28.027980" lon="152.952162">
				<ele>90.693</ele>
				<time>2015-07-03T23:59:33Z</time>
				<extensions>
				</extensions>
			</trkpt>
			<trkpt lat="-28.028031" lon="152.951887">
				<ele>92.384</ele>
				<time>2015-07-03T23:59:34Z</time>
				<extensions>
				</extensions>
			</trkpt>
			<trkpt lat="-28.028074" lon="152.951594">
				<ele>92.128</ele>
				<time>2015-07-03T23:59:35Z</time>
				<extensions>
				</extensions>
			</trkpt>
			<trkpt lat="-28.028124" lon="152.951327">
				<ele>91.235</ele>
				<time>2015-07-03T23:59:36Z</time>
				<extensions>
				</extensions>
			</trkpt>
			<trkpt lat="-28.028171" lon="152.951067">
				<ele>90.182</ele>
				<time>2015-07-03T23:59:37Z</time>
				<extensions>
				</extensions>
			</trkpt>
			<trkpt lat="-28.028215" lon="152.950799">
				<ele>88.852</ele>
				<time>2015-07-03T23:59:38Z</time>
				<extensions>
				</extensions>
			</trkpt>
			<trkpt lat="-28.028274" lon="152.950537">
				<ele>87.338</ele>
				<time>2015-07-03T23:59:39Z</time>
				<extensions>
				</extensions>
			</trkpt>
			<trkpt lat="-28.028316" lon="152.950265">
				<ele>87.125</ele>
				<time>2015-07-03T23:59:40Z</time>
				<extensions>
				</extensions>
			</trkpt>
			<trkpt lat="-28.028364" lon="152.950003">
				<ele>86.768</ele>
				<time>2015-07-03T23:59:41Z</time>
				<extensions>
				</extensions>
			</trkpt>
			<trkpt lat="-28.028410" lon="152.949743">
				<ele>85.589</ele>
				<time>2015-07-03T23:59:42Z</time>
				<extensions>
				</extensions>
			</trkpt>
			<trkpt lat="-28.028458" lon="152.949484">
				<ele>84.669</ele>
				<time>2015-07-03T23:59:43Z</time>
				<extensions>
				</extensions>
			</trkpt>
			<trkpt lat="-28.028505" lon="152.949227">
				<ele>83.875</ele>
				<time>2015-07-03T23:59:44Z</time>
				<extensions>
				</extensions>
			</trkpt>
			<trkpt lat="-28.028551" lon="152.948961">
				<ele>84.084</ele>
				<time>2015-07-03T23:59:45Z</time>
				<extensions>
				</extensions>
			</trkpt>
			<trkpt lat="-28.028595" lon="152.948698">
				<ele>83.559</ele>
				<time>2015-07-03T23:59:46Z</time>
				<extensions>
				</extensions>
			</trkpt>
			<trkpt lat="-28.028643" lon="152.948433">
				<ele>82.744</ele>
				<time>2015-07-03T23:59:47Z</time>
				<extensions>
				</extensions>
			</trkpt>
			<trkpt lat="-28.028685" lon="152.948169">
				<ele>85.701</ele>
				<time>2015-07-03T23:59:48Z</time>
				<extensions>
				</extensions>
			</trkpt>
			<trkpt lat="-28.028730" lon="152.947905">
				<ele>84.705</ele>
				<time>2015-07-03T23:59:49Z</time>
				<extensions>
				</extensions>
			</trkpt>
			<trkpt lat="-28.028777" lon="152.947641">
				<ele>82.340</ele>
				<time>2015-07-03T23:59:50Z</time>
				<extensions>
				</extensions>
			</trkpt>
			<trkpt lat="-28.028828" lon="152.947382">
				<ele>82.162</ele>
				<time>2015-07-03T23:59:51Z</time>
				<extensions>
				</extensions>
			</trkpt>
			<trkpt lat="-28.028877" lon="152.947123">
				<ele>82.664</ele>
				<time>2015-07-03T23:59:52Z</time>
				<extensions>
				</extensions>
			</trkpt>
			<trkpt lat="-28.028923" lon="152.946864">
				<ele>81.669</ele>
				<time>2015-07-03T23:59:53Z</time>
				<extensions>
				</extensions>
			</trkpt>
			<trkpt lat="-28.028968" lon="152.946599">
				<ele>82.035</ele>
				<time>2015-07-03T23:59:54Z</time>
				<extensions>
				</extensions>
			</trkpt>
			<trkpt lat="-28.029016" lon="152.946340">
				<ele>79.579</ele>
				<time>2015-07-03T23:59:55Z</time>
				<extensions>
				</extensions>
			</trkpt>
			<trkpt lat="-28.029059" lon="152.946079">
				<ele>79.746</ele>
				<time>2015-07-03T23:59:56Z</time>
				<extensions>
				</extensions>
			</trkpt>
			<trkpt lat="-28.029107" lon="152.945805">
				<ele>78.416</ele>
				<time>2015-07-03T23:59:57Z</time>
				<extensions>
				</extensions>
			</trkpt>
			<trkpt lat="-28.029153" lon="152.945537">
				<ele>77.002</ele>
				<time>2015-07-03T23:59:58Z</time>
				<extensions>
				</extensions>
			</trkpt>
			<trkpt lat="-28.029197" lon="152.945270">
				<ele>76.078</ele>
				<time>2015-07-03T23:59:59Z</time>
				<extensions>
				</extensions>
			</trkpt>
			<trkpt lat="-28.029254" lon="152.945002">
				<ele>75.416</ele>
				<time>2015-07-04T00:00:00Z</time>
				<extensions>
				</extensions>
			</trkpt>
			<trkpt lat="-28.029329" lon="152.944741">
				<ele>73.819</ele>
				<time>2015-07-04T00:00:01Z</time>
				<extensions>
				</extensions>
			</trkpt>
			<trkpt lat="-28.029407" lon="152.944477">
				<ele>71.687</ele>
				<time>2015-07-04T00:00:02Z</time>
				<extensions>
				</extensions>
			</trkpt>
			<trkpt lat="-28.029488" lon="152.944209">
				<ele>69.173</ele>
				<time>2015-07-04T00:00:03Z</time>
				<extensions>
				</extensions>
			</trkpt>
			<trkpt lat="-28.029589" lon="152.943948">
				<ele>67.429</ele>
				<time>2015-07-04T00:00:04Z</time>
				<extensions>
				</extensions>
			</trkpt>
			<trkpt lat="-28.029691" lon="152.943686">
				<ele>66.692</ele>
				<time>2015-07-04T00:00:05Z</time>
				<extensions>
				</extensions>
			</trkpt>
			<trkpt lat="-28.029801" lon="152.943431">
				<ele>65.568</ele>
				<time>2015-07-04T00:00:06Z</time>
				<extensions>
				</extensions>
			</trkpt>
			<trkpt lat="-28.029916" lon="152.943178">
				<ele>63.867</ele>
				<time>2015-07-04T00:00:07Z</time>
				<extensions>
				</extensions>
			</trkpt>
			<trkpt lat="-28.030040" lon="152.942932">
				<ele>62.703</ele>
				<time>2015-07-04T00:00:08Z</time>
				<extensions>
				</extensions>
			</trkpt>
			<trkpt lat="-28.030169" lon="152.942694">
				<ele>62.140</ele>
				<time>2015-07-04T00:00:09Z</time>
				<extensions>
				</extensions>
			</trkpt>
			<trkpt lat="-28.030301" lon="152.942460">
				<ele>63.851</ele>
				<time>2015-07-04T00:00:10Z</time>
				<extensions>
				</extensions>
			</trkpt>
			<trkpt lat="-28.030445" lon="152.942226">
				<ele>63.278</ele>
				<time>2015-07-04T00:00:11Z</time>
				<extensions>
				</extensions>
			</trkpt>
			<trkpt lat="-28.030599" lon="152.942000">
				<ele>61.493</ele>
				<time>2015-07-04T00:00:12Z</time>
				<extensions>
				</extensions>
			</trkpt>
			<trkpt lat="-28.030761" lon="152.941776">
				<ele>61.260</ele>
				<time>2015-07-04T00:00:13Z</time>
				<extensions>
				</extensions>
			</trkpt>
			<trkpt lat="-28.030929" lon="152.941570">
				<ele>60.525</ele>
				<time>2015-07-04T00:00:14Z</time>
				<extensions>
				</extensions>
			</trkpt>
			<trkpt lat="-28.031088" lon="152.941373">
				<ele>60.525</ele>
				<time>2015-07-04T00:00:15Z</time>
				<extensions>
				</extensions>
			</trkpt>
			<trkpt lat="-28.031261" lon="152.941187">
				<ele>58.324</ele>
				<time>2015-07-04T00:00:16Z</time>
				<extensions>
				</extensions>
			</trkpt>
			<trkpt lat="-28.031437" lon="152.940996">
				<ele>58.308</ele>
				<time>2015-07-04T00:00:17Z</time>
				<extensions>
				</extensions>
			</trkpt>
			<trkpt lat="-28.031628" lon="152.940816">
				<ele>58.987</ele>
				<time>2015-07-04T00:00:18Z</time>
				<extensions>
				</extensions>
			</trkpt>
			<trkpt lat="-28.031816" lon="152.940644">
				<ele>59.836</ele>
				<time>2015-07-04T00:00:19Z</time>
				<extensions>
				</extensions>
			</trkpt>
			<trkpt lat="-28.032005" lon="152.940480">
				<ele>60.910</ele>
				<time>2015-07-04T00:00:20Z</time>
				<extensions>
				</extensions>
			</trkpt>
			<trkpt lat="-28.032218" lon="152.940325">
				<ele>60.233</ele>
				<time>2015-07-04T00:00:21Z</time>
				<extensions>
				</extensions>
			</trkpt>
			<trkpt lat="-28.032427" lon="152.940174">
				<ele>59.833</ele>
				<time>2015-07-04T00:00:22Z</time>
				<extensions>
				</extensions>
			</trkpt>
			<trkpt lat="-28.032638" lon="152.940033">
				<ele>60.788</ele>
				<time>2015-07-04T00:00:23Z</time>
				<extensions>
				</extensions>
			</trkpt>
			<trkpt lat="-28.032859" lon="152.939897">
				<ele>61.167</ele>
				<time>2015-07-04T00:00:24Z</time>
				<extensions>
				</extensions>
			</trkpt>
			<trkpt lat="-28.033066" lon="152.939762">
				<ele>61.736</ele>
				<time>2015-07-04T00:00:25Z</time>
				<extensions>
				</extensions>
			</trkpt>
			<trkpt lat="-28.033278" lon="152.939627">
				<ele>61.890</ele>
				<time>2015-07-04T00:00:26Z</time>
				<extensions>
				</extensions>
			</trkpt>
			<trkpt lat="-28.033480" lon="152.939491">
				<ele>57.841</ele>
				<time>2015-07-04T00:00:27Z</time>
				<extensions>
				</extensions>
			</trkpt>
			<trkpt lat="-28.033682" lon="152.939352">
				<ele>57.125</ele>
				<time>2015-07-04T00:00:28Z</time>
				<extensions>
				</extensions>
			</trkpt>
			<trkpt lat="-28.033882" lon="152.939214">
				<ele>56.976</ele>
				<time>2015-07-04T00:00:29Z</time>
				<extensions>
				</extensions>
			</trkpt>
			<trkpt lat="-28.034079" lon="152.939071">
				<ele>57.187</ele>
				<time>2015-07-04T00:00:30Z</time>
				<extensions>
				</extensions>
			</trkpt>
			<trkpt lat="-28.034275" lon="152.938934">
				<ele>59.406</ele>
				<time>2015-07-04T00:00:31Z</time>
				<extensions>
				</extensions>
			</trkpt>
			<trkpt lat="-28.034478" lon="152.938794">
				<ele>57.923</ele>
				<time>2015-07-04T00:00:32Z</time>
				<extensions>
				</extensions>
			</trkpt>
			<trkpt lat="-28.034680" lon="152.938656">
				<ele>59.381</ele>
				<time>2015-07-04T00:00:33Z</time>
				<extensions>
				</extensions>
			</trkpt>
			<trkpt lat="-28.034881" lon="152.938516">
				<ele>59.704</ele>
				<time>2015-07-04T00:00:34Z</time>
				<extensions>
				</extensions>
			</trkpt>
			<trkpt lat="-28.035096" lon="152.938376">
				<ele>61.606</ele>
				<time>2015-07-04T00:00:35Z</time>
				<extensions>
				</extensions>
			</trkpt>
			<trkpt lat="-28.035302" lon="152.938237">
				<ele>60.877</ele>
				<time>2015-07-04T00:00:36Z</time>
				<extensions>
				</extensions>
			</trkpt>
			<trkpt lat="-28.035513" lon="152.938090">
				<ele>60.850</ele>
				<time>2015-07-04T00:00:37Z</time>
				<extensions>
				</extensions>
			</trkpt>
			<trkpt lat="-28.035736" lon="152.937945">
				<ele>59.504</ele>
				<time>2015-07-04T00:00:38Z</time>
				<extensions>
				</extensions>
			</trkpt>
			<trkpt lat="-28.035955" lon="152.937805">
				<ele>60.182</ele>
				<time>2015-07-04T00:00:39Z</time>
				<extensions>
				</extensions>
			</trkpt>
			<trkpt lat="-28.036162" lon="152.937662">
				<ele>61.261</ele>
				<time>2015-07-04T00:00:40Z</time>
				<extensions>
				</extensions>
			</trkpt>
			<trkpt lat="-28.036368" lon="152.937519">
				<ele>61.773</ele>
				<time>2015-07-04T00:00:41Z</time>
				<extensions>
				</extensions>
			</trkpt>
			<trkpt lat="-28.036580" lon="152.937379">
				<ele>60.665</ele>
				<time>2015-07-04T00:00:42Z</time>
				<extensions>
				</extensions>
			</trkpt>
			<trkpt lat="-28.036789" lon="152.937242">
				<ele>61.914</ele>
				<time>2015-07-04T00:00:43Z</time>
				<extensions>
				</extensions>
			</trkpt>
			<trkpt lat="-28.036999" lon="152.937099">
				<ele>62.058</ele>
				<time>2015-07-04T00:00:44Z</time>
				<extensions>
				</extensions>
			</trkpt>
			<trkpt lat="-28.037203" lon="152.936959">
				<ele>61.165</ele>
				<time>2015-07-04T00:00:45Z</time>
				<extensions>
				</extensions>
			</trkpt>
			<trkpt lat="-28.037404" lon="152.936818">
				<ele>62.755</ele>
				<time>2015-07-04T00:00:46Z</time>
				<extensions>
				</extensions>
			</trkpt>
			<trkpt lat="-28.037610" lon="152.936685">
				<ele>62.484</ele>
				<time>2015-07-04T00:00:47Z</time>
				<extensions>
				</extensions>
			</trkpt>
			<trkpt lat="-28.037820" lon="152.936554">
				<ele>63.199</ele>
				<time>2015-07-04T00:00:48Z</time>
				<extensions>
				</extensions>
			</trkpt>
			<trkpt lat="-28.038031" lon="152.936433">
				<ele>64.774</ele>
				<time>2015-07-04T00:00:49Z</time>
				<extensions>
				</extensions>
			</trkpt>
			<trkpt lat="-28.038250" lon="152.936306">
				<ele>64.736</ele>
				<time>2015-07-04T00:00:50Z</time>
				<extensions>
				</extensions>
			</trkpt>
			<trkpt lat="-28.038472" lon="152.936186">
				<ele>65.692</ele>
				<time>2015-07-04T00:00:51Z</time>
				<extensions>
				</extensions>
			</trkpt>
			<trkpt lat="-28.038701" lon="152.936064">
				<ele>66.917</ele>
				<time>2015-07-04T00:00:52Z</time>
				<extensions>
				</extensions>
			</trkpt>
			<trkpt lat="-28.038933" lon="152.935948">
				<ele>68.886</ele>
				<time>2015-07-04T00:00:53Z</time>
				<extensions>
				</extensions>
			</trkpt>
			<trkpt lat="-28.039177" lon="152.935833">
				<ele>69.220</ele>
				<time>2015-07-04T00:00:54Z</time>
				<extensions>
				</extensions>
			</trkpt>
			<trkpt lat="-28.039419" lon="152.935726">
				<ele>69.103</ele>
				<time>2015-07-04T00:00:55Z</time>
				<extensions>
				</extensions>
			</trkpt>
			<trkpt lat="-28.039657" lon="152.935618">
				<ele>68.609</ele>
				<time>2015-07-04T00:00:56Z</time>
				<extensions>
				</extensions>
			</trkpt>
			<trkpt lat="-28.039896" lon="152.935520">
				<ele>70.233</ele>
				<time>2015-07-04T00:00:57Z</time>
				<extensions>
				</extensions>
			</trkpt>
			<trkpt lat="-28.040134" lon="152.935433">
				<ele>67.936</ele>
				<time>2015-07-04T00:00:58Z</time>
				<extensions>
				</extensions>
			</trkpt>
			<trkpt lat="-28.040376" lon="152.935346">
				<ele>66.839</ele>
				<time>2015-07-04T00:00:59Z</time>
				<extensions>
				</extensions>
			</trkpt>
			<trkpt lat="-28.040617" lon="152.935260">
				<ele>65.447</ele>
				<time>2015-07-04T00:01:00Z</time>
				<extensions>
				</extensions>
			</trkpt>
			<trkpt lat="-28.040850" lon="152.935188">
				<ele>64.846</ele>
				<time>2015-07-04T00:01:01Z</time>
				<extensions>
				</extensions>
			</trkpt>
			<trkpt lat="-28.041075" lon="152.935112">
				<ele>63.085</ele>
				<time>2015-07-04T00:01:02Z</time>
				<extensions>
				</extensions>
			</trkpt>
			<trkpt lat="-28.041301" lon="152.935033">
				<ele>61.691</ele>
				<time>2015-07-04T00:01:03Z</time>
				<extensions>
				</extensions>
			</trkpt>
			<trkpt lat="-28.041525" lon="152.934950">
				<ele>59.767</ele>
				<time>2015-07-04T00:01:04Z</time>
				<extensions>
				</extensions>
			</trkpt>
			<trkpt lat="-28.041757" lon="152.934867">
				<ele>59.471</ele>
				<time>2015-07-04T00:01:05Z</time>
				<extensions>
				</extensions>
			</trkpt>
			<trkpt lat="-28.041987" lon="152.934788">
				<ele>58.475</ele>
				<time>2015-07-04T00:01:06Z</time>
				<extensions>
				</extensions>
			</trkpt>
			<trkpt lat="-28.042219" lon="152.934706">
				<ele>58.818</ele>
				<time>2015-07-04T00:01:07Z</time>
				<extensions>
				</extensions>
			</trkpt>
			<trkpt lat="-28.042448" lon="152.934624">
				<ele>58.968</ele>
				<time>2015-07-04T00:01:08Z</time>
				<extensions>
				</extensions>
			</trkpt>
			<trkpt lat="-28.042677" lon="152.934542">
				<ele>56.884</ele>
				<time>2015-07-04T00:01:09Z</time>
				<extensions>
				</extensions>
			</trkpt>
			<trkpt lat="-28.042906" lon="152.934459">
				<ele>57.601</ele>
				<time>2015-07-04T00:01:10Z</time>
				<extensions>
				</extensions>
			</trkpt>
			<trkpt lat="-28.043129" lon="152.934376">
				<ele>57.481</ele>
				<time>2015-07-04T00:01:11Z</time>
				<extensions>
				</extensions>
			</trkpt>
			<trkpt lat="-28.043356" lon="152.934293">
				<ele>57.542</ele>
				<time>2015-07-04T00:01:12Z</time>
				<extensions>
				</extensions>
			</trkpt>
			<trkpt lat="-28.043579" lon="152.934217">
				<ele>56.992</ele>
				<time>2015-07-04T00:01:13Z</time>
				<extensions>
				</extensions>
			</trkpt>
			<trkpt lat="-28.043803" lon="152.934141">
				<ele>56.654</ele>
				<time>2015-07-04T00:01:14Z</time>
				<extensions>
				</extensions>
			</trkpt>
			<trkpt lat="-28.044026" lon="152.934057">
				<ele>56.827</ele>
				<time>2015-07-04T00:01:15Z</time>
				<extensions>
				</extensions>
			</trkpt>
			<trkpt lat="-28.044260" lon="152.933976">
				<ele>57.764</ele>
				<time>2015-07-04T00:01:16Z</time>
				<extensions>
				</extensions>
			</trkpt>
			<trkpt lat="-28.044492" lon="152.933891">
				<ele>60.421</ele>
				<time>2015-07-04T00:01:17Z</time>
				<extensions>
				</extensions>
			</trkpt>
			<trkpt lat="-28.044732" lon="152.933807">
				<ele>61.365</ele>
				<time>2015-07-04T00:01:18Z</time>
				<extensions>
				</extensions>
			</trkpt>
			<trkpt lat="-28.044970" lon="152.933728">
				<ele>61.365</ele>
				<time>2015-07-04T00:01:19Z</time>
				<extensions>
				</extensions>
			</trkpt>
			<trkpt lat="-28.045213" lon="152.933636">
				<ele>60.853</ele>
				<time>2015-07-04T00:01:20Z</time>
				<extensions>
				</extensions>
			</trkpt>
			<trkpt lat="-28.045447" lon="152.933552">
				<ele>60.226</ele>
				<time>2015-07-04T00:01:21Z</time>
				<extensions>
				</extensions>
			</trkpt>
			<trkpt lat="-28.045683" lon="152.933462">
				<ele>60.963</ele>
				<time>2015-07-04T00:01:22Z</time>
				<extensions>
				</extensions>
			</trkpt>
			<trkpt lat="-28.045920" lon="152.933389">
				<ele>59.754</ele>
				<time>2015-07-04T00:01:23Z</time>
				<extensions>
				</extensions>
			</trkpt>
			<trkpt lat="-28.046162" lon="152.933311">
				<ele>61.236</ele>
				<time>2015-07-04T00:01:24Z</time>
				<extensions>
				</extensions>
			</trkpt>
			<trkpt lat="-28.046404" lon="152.933241">
				<ele>59.604</ele>
				<time>2015-07-04T00:01:25Z</time>
				<extensions>
				</extensions>
			</trkpt>
			<trkpt lat="-28.046660" lon="152.933179">
				<ele>62.055</ele>
				<time>2015-07-04T00:01:26Z</time>
				<extensions>
				</extensions>
			</trkpt>
			<trkpt lat="-28.046924" lon="152.933138">
				<ele>61.022</ele>
				<time>2015-07-04T00:01:27Z</time>
				<extensions>
				</extensions>
			</trkpt>
			<trkpt lat="-28.047177" lon="152.933099">
				<ele>62.868</ele>
				<time>2015-07-04T00:01:28Z</time>
				<extensions>
				</extensions>
			</trkpt>
			<trkpt lat="-28.047432" lon="152.933062">
				<ele>62.524</ele>
				<time>2015-07-04T00:01:29Z</time>
				<extensions>
				</extensions>
			</trkpt>
			<trkpt lat="-28.047689" lon="152.933034">
				<ele>62.453</ele>
				<time>2015-07-04T00:01:30Z</time>
				<extensions>
				</extensions>
			</trkpt>
			<trkpt lat="-28.047947" lon="152.933013">
				<ele>64.402</ele>
				<time>2015-07-04T00:01:31Z</time>
				<extensions>
				</extensions>
			</trkpt>
			<trkpt lat="-28.048204" lon="152.933008">
				<ele>61.045</ele>
				<time>2015-07-04T00:01:32Z</time>
				<extensions>
				</extensions>
			</trkpt>
			<trkpt lat="-28.048465" lon="152.933005">
				<ele>62.377</ele>
				<time>2015-07-04T00:01:33Z</time>
				<extensions>
				</extensions>
			</trkpt>
			<trkpt lat="-28.048725" lon="152.933014">
				<ele>60.780</ele>
				<time>2015-07-04T00:01:34Z</time>
				<extensions>
				</extensions>
			</trkpt>
			<trkpt lat="-28.048990" lon="152.933028">
				<ele>60.702</ele>
				<time>2015-07-04T00:01:35Z</time>
				<extensions>
				</extensions>
			</trkpt>
			<trkpt lat="-28.049259" lon="152.933047">
				<ele>60.411</ele>
				<time>2015-07-04T00:01:36Z</time>
				<extensions>
				</extensions>
			</trkpt>
			<trkpt lat="-28.049536" lon="152.933076">
				<ele>62.463</ele>
				<time>2015-07-04T00:01:37Z</time>
				<extensions>
				</extensions>
			</trkpt>
			<trkpt lat="-28.049809" lon="152.933111">
				<ele>62.025</ele>
				<time>2015-07-04T00:01:38Z</time>
				<extensions>
				</extensions>
			</trkpt>
			<trkpt lat="-28.050061" lon="152.933146">
				<ele>62.960</ele>
				<time>2015-07-04T00:01:39Z</time>
				<extensions>
				</extensions>
			</trkpt>
			<trkpt lat="-28.050322" lon="152.933187">
				<ele>60.885</ele>
				<time>2015-07-04T00:01:40Z</time>
				<extensions>
				</extensions>
			</trkpt>
			<trkpt lat="-28.050566" lon="152.933221">
				<ele>57.557</ele>
				<time>2015-07-04T00:01:41Z</time>
				<extensions>
				</extensions>
			</trkpt>
			<trkpt lat="-28.050810" lon="152.933252">
				<ele>57.157</ele>
				<time>2015-07-04T00:01:42Z</time>
				<extensions>
				</extensions>
			</trkpt>
			<trkpt lat="-28.051055" lon="152.933285">
				<ele>56.616</ele>
				<time>2015-07-04T00:01:43Z</time>
				<extensions>
				</extensions>
			</trkpt>
			<trkpt lat="-28.051283" lon="152.933321">
				<ele>56.388</ele>
				<time>2015-07-04T00:01:44Z</time>
				<extensions>
				</extensions>
			</trkpt>
			<trkpt lat="-28.051513" lon="152.933357">
				<ele>56.209</ele>
				<time>2015-07-04T00:01:45Z</time>
				<extensions>
				</extensions>
			</trkpt>
			<trkpt lat="-28.051740" lon="152.933393">
				<ele>55.633</ele>
				<time>2015-07-04T00:01:46Z</time>
				<extensions>
				</extensions>
			</trkpt>
			<trkpt lat="-28.051970" lon="152.933427">
				<ele>55.813</ele>
				<time>2015-07-04T00:01:47Z</time>
				<extensions>
				</extensions>
			</trkpt>
			<trkpt lat="-28.052194" lon="152.933467">
				<ele>56.075</ele>
				<time>2015-07-04T00:01:48Z</time>
				<extensions>
				</extensions>
			</trkpt>
			<trkpt lat="-28.052418" lon="152.933503">
				<ele>56.571</ele>
				<time>2015-07-04T00:01:49Z</time>
				<extensions>
				</extensions>
			</trkpt>
			<trkpt lat="-28.052648" lon="152.933540">
				<ele>56.203</ele>
				<time>2015-07-04T00:01:50Z</time>
				<extensions>
				</extensions>
			</trkpt>
			<trkpt lat="-28.052888" lon="152.933575">
				<ele>56.536</ele>
				<time>2015-07-04T00:01:51Z</time>
				<extensions>
				</extensions>
			</trkpt>
			<trkpt lat="-28.053127" lon="152.933604">
				<ele>57.224</ele>
				<time>2015-07-04T00:01:52Z</time>
				<extensions>
				</extensions>
			</trkpt>
			<trkpt lat="-28.053365" lon="152.933638">
				<ele>57.947</ele>
				<time>2015-07-04T00:01:53Z</time>
				<extensions>
				</extensions>
			</trkpt>
			<trkpt lat="-28.053603" lon="152.933672">
				<ele>57.286</ele>
				<time>2015-07-04T00:01:54Z</time>
				<extensions>
				</extensions>
			</trkpt>
			<trkpt lat="-28.053836" lon="152.933708">
				<ele>56.726</ele>
				<time>2015-07-04T00:01:55Z</time>
				<extensions>
				</extensions>
			</trkpt>
			<trkpt lat="-28.054065" lon="152.933743">
				<ele>57.043</ele>
				<time>2015-07-04T00:01:56Z</time>
				<extensions>
				</extensions>
			</trkpt>
			<trkpt lat="-28.054296" lon="152.933772">
				<ele>58.257</ele>
				<time>2015-07-04T00:01:57Z</time>
				<extensions>
				</extensions>
			</trkpt>
			<trkpt lat="-28.054528" lon="152.933803">
				<ele>56.783</ele>
				<time>2015-07-04T00:01:58Z</time>
				<extensions>
				</extensions>
			</trkpt>
			<trkpt lat="-28.054760" lon="152.933837">
				<ele>56.368</ele>
				<time>2015-07-04T00:01:59Z</time>
				<extensions>
				</extensions>
			</trkpt>
			<trkpt lat="-28.054990" lon="152.933876">
				<ele>56.527</ele>
				<time>2015-07-04T00:02:00Z</time>
				<extensions>
				</extensions>
			</trkpt>
			<trkpt lat="-28.055221" lon="152.933906">
				<ele>58.233</ele>
				<time>2015-07-04T00:02:01Z</time>
				<extensions>
				</extensions>
			</trkpt>
			<trkpt lat="-28.055452" lon="152.933943">
				<ele>59.736</ele>
				<time>2015-07-04T00:02:02Z</time>
				<extensions>
				</extensions>
			</trkpt>
			<trkpt lat="-28.055665" lon="152.933973">
				<ele>59.298</ele>
				<time>2015-07-04T00:02:03Z</time>
				<extensions>
				</extensions>
			</trkpt>
			<trkpt lat="-28.055880" lon="152.934008">
				<ele>59.001</ele>
				<time>2015-07-04T00:02:04Z</time>
				<extensions>
				</extensions>
			</trkpt>
			<trkpt lat="-28.056120" lon="152.934046">
				<ele>58.236</ele>
				<time>2015-07-04T00:02:05Z</time>
				<extensions>
				</extensions>
			</trkpt>
			<trkpt lat="-28.056341" lon="152.934075">
				<ele>58.796</ele>
				<time>2015-07-04T00:02:06Z</time>
				<extensions>
				</extensions>
			</trkpt>
			<trkpt lat="-28.056565" lon="152.934105">
				<ele>58.546</ele>
				<time>2015-07-04T00:02:07Z</time>
				<extensions>
				</extensions>
			</trkpt>
			<trkpt lat="-28.056803" lon="152.934141">
				<ele>58.897</ele>
				<time>2015-07-04T00:02:08Z</time>
				<extensions>
				</extensions>
			</trkpt>
			<trkpt lat="-28.057038" lon="152.934175">
				<ele>59.338</ele>
				<time>2015-07-04T00:02:09Z</time>
				<extensions>
				</extensions>
			</trkpt>
			<trkpt lat="-28.057287" lon="152.934212">
				<ele>59.959</ele>
				<time>2015-07-04T00:02:10Z</time>
				<extensions>
				</extensions>
			</trkpt>
			<trkpt lat="-28.057525" lon="152.934242">
				<ele>60.520</ele>
				<time>2015-07-04T00:02:11Z</time>
				<extensions>
				</extensions>
			</trkpt>
			<trkpt lat="-28.057790" lon="152.934283">
				<ele>60.389</ele>
				<time>2015-07-04T00:02:12Z</time>
				<extensions>
				</extensions>
			</trkpt>
			<trkpt lat="-28.058029" lon="152.934313">
				<ele>60.087</ele>
				<time>2015-07-04T00:02:13Z</time>
				<extensions>
				</extensions>
			</trkpt>
			<trkpt lat="-28.058268" lon="152.934345">
				<ele>61.736</ele>
				<time>2015-07-04T00:02:14Z</time>
				<extensions>
				</extensions>
			</trkpt>
			<trkpt lat="-28.058502" lon="152.934380">
				<ele>61.460</ele>
				<time>2015-07-04T00:02:15Z</time>
				<extensions>
				</extensions>
			</trkpt>
			<trkpt lat="-28.058744" lon="152.934417">
				<ele>62.119</ele>
				<time>2015-07-04T00:02:16Z</time>
				<extensions>
				</extensions>
			</trkpt>
			<trkpt lat="-28.058992" lon="152.934458">
				<ele>60.122</ele>
				<time>2015-07-04T00:02:17Z</time>
				<extensions>
				</extensions>
			</trkpt>
			<trkpt lat="-28.059226" lon="152.934484">
				<ele>59.637</ele>
				<time>2015-07-04T00:02:18Z</time>
				<extensions>
				</extensions>
			</trkpt>
			<trkpt lat="-28.059459" lon="152.934524">
				<ele>60.634</ele>
				<time>2015-07-04T00:02:19Z</time>
				<extensions>
				</extensions>
			</trkpt>
			<trkpt lat="-28.059699" lon="152.934560">
				<ele>60.634</ele>
				<time>2015-07-04T00:02:20Z</time>
				<extensions>
				</extensions>
			</trkpt>
			<trkpt lat="-28.059943" lon="152.934601">
				<ele>60.358</ele>
				<time>2015-07-04T00:02:21Z</time>
				<extensions>
				</extensions>
			</trkpt>
			<trkpt lat="-28.060185" lon="152.934648">
				<ele>59.876</ele>
				<time>2015-07-04T00:02:22Z</time>
				<extensions>
				</extensions>
			</trkpt>
			<trkpt lat="-28.060426" lon="152.934681">
				<ele>60.737</ele>
				<time>2015-07-04T00:02:23Z</time>
				<extensions>
				</extensions>
			</trkpt>
			<trkpt lat="-28.060657" lon="152.934735">
				<ele>59.864</ele>
				<time>2015-07-04T00:02:24Z</time>
				<extensions>
				</extensions>
			</trkpt>
			<trkpt lat="-28.060905" lon="152.934794">
				<ele>59.200</ele>
				<time>2015-07-04T00:02:25Z</time>
				<extensions>
				</extensions>
			</trkpt>
			<trkpt lat="-28.061148" lon="152.934871">
				<ele>59.008</ele>
				<time>2015-07-04T00:02:26Z</time>
				<extensions>
				</extensions>
			</trkpt>
			<trkpt lat="-28.061385" lon="152.934946">
				<ele>57.319</ele>
				<time>2015-07-04T00:02:27Z</time>
				<extensions>
				</extensions>
			</trkpt>
			<trkpt lat="-28.061628" lon="152.935036">
				<ele>57.383</ele>
				<time>2015-07-04T00:02:28Z</time>
				<extensions>
				</extensions>
			</trkpt>
			<trkpt lat="-28.061867" lon="152.935138">
				<ele>57.420</ele>
				<time>2015-07-04T00:02:29Z</time>
				<extensions>
				</extensions>
			</trkpt>
			<trkpt lat="-28.062101" lon="152.935250">
				<ele>59.803</ele>
				<time>2015-07-04T00:02:30Z</time>
				<extensions>
				</extensions>
			</trkpt>
			<trkpt lat="-28.062325" lon="152.935356">
				<ele>61.135</ele>
				<time>2015-07-04T00:02:31Z</time>
				<extensions>
				</extensions>
			</trkpt>
			<trkpt lat="-28.062552" lon="152.935465">
				<ele>60.529</ele>
				<time>2015-07-04T00:02:32Z</time>
				<extensions>
				</extensions>
			</trkpt>
			<trkpt lat="-28.062776" lon="152.935569">
				<ele>58.634</ele>
				<time>2015-07-04T00:02:33Z</time>
				<extensions>
				</extensions>
			</trkpt>
			<trkpt lat="-28.062997" lon="152.935670">
				<ele>58.477</ele>
				<time>2015-07-04T00:02:34Z</time>
				<extensions>
				</extensions>
			</trkpt>
			<trkpt lat="-28.063213" lon="152.935779">
				<ele>58.453</ele>
				<time>2015-07-04T00:02:35Z</time>
				<extensions>
				</extensions>
			</trkpt>
			<trkpt lat="-28.063431" lon="152.935879">
				<ele>57.787</ele>
				<time>2015-07-04T00:02:36Z</time>
				<extensions>
				</extensions>
			</trkpt>
			<trkpt lat="-28.063645" lon="152.935976">
				<ele>56.742</ele>
				<time>2015-07-04T00:02:37Z</time>
				<extensions>
				</extensions>
			</trkpt>
			<trkpt lat="-28.063863" lon="152.936068">
				<ele>55.511</ele>
				<time>2015-07-04T00:02:38Z</time>
				<extensions>
				</extensions>
			</trkpt>
			<trkpt lat="-28.064083" lon="152.936156">
				<ele>55.900</ele>
				<time>2015-07-04T00:02:39Z</time>
				<extensions>
				</extensions>
			</trkpt>
			<trkpt lat="-28.064305" lon="152.936246">
				<ele>56.173</ele>
				<time>2015-07-04T00:02:40Z</time>
				<extensions>
				</extensions>
			</trkpt>
			<trkpt lat="-28.064524" lon="152.936322">
				<ele>55.644</ele>
				<time>2015-07-04T00:02:41Z</time>
				<extensions>
				</extensions>
			</trkpt>
			<trkpt lat="-28.064747" lon="152.936382">
				<ele>55.746</ele>
				<time>2015-07-04T00:02:42Z</time>
				<extensions>
				</extensions>
			</trkpt>
			<trkpt lat="-28.064968" lon="152.936435">
				<ele>56.045</ele>
				<time>2015-07-04T00:02:43Z</time>
				<extensions>
				</extensions>
			</trkpt>
			<trkpt lat="-28.065187" lon="152.936478">
				<ele>57.931</ele>
				<time>2015-07-04T00:02:44Z</time>
				<extensions>
				</extensions>
			</trkpt>
			<trkpt lat="-28.065413" lon="152.936512">
				<ele>58.571</ele>
				<time>2015-07-04T00:02:45Z</time>
				<extensions>
				</extensions>
			</trkpt>
			<trkpt lat="-28.065636" lon="152.936542">
				<ele>58.470</ele>
				<time>2015-07-04T00:02:46Z</time>
				<extensions>
				</extensions>
			</trkpt>
			<trkpt lat="-28.065867" lon="152.936565">
				<ele>58.534</ele>
				<time>2015-07-04T00:02:47Z</time>
				<extensions>
				</extensions>
			</trkpt>
			<trkpt lat="-28.066101" lon="152.936579">
				<ele>60.157</ele>
				<time>2015-07-04T00:02:48Z</time>
				<extensions>
				</extensions>
			</trkpt>
			<trkpt lat="-28.066339" lon="152.936588">
				<ele>60.019</ele>
				<time>2015-07-04T00:02:49Z</time>
				<extensions>
				</extensions>
			</trkpt>
			<trkpt lat="-28.066579" lon="152.936584">
				<ele>60.820</ele>
				<time>2015-07-04T00:02:50Z</time>
				<extensions>
				</extensions>
			</trkpt>
			<trkpt lat="-28.066825" lon="152.936571">
				<ele>60.906</ele>
				<time>2015-07-04T00:02:51Z</time>
				<extensions>
				</extensions>
			</trkpt>
			<trkpt lat="-28.067054" lon="152.936541">
				<ele>60.383</ele>
				<time>2015-07-04T00:02:52Z</time>
				<extensions>
				</extensions>
			</trkpt>
			<trkpt lat="-28.067290" lon="152.936507">
				<ele>60.298</ele>
				<time>2015-07-04T00:02:53Z</time>
				<extensions>
				</extensions>
			</trkpt>
			<trkpt lat="-28.067525" lon="152.936466">
				<ele>59.528</ele>
				<time>2015-07-04T00:02:54Z</time>
				<extensions>
				</extensions>
			</trkpt>
			<trkpt lat="-28.067762" lon="152.936403">
				<ele>60.426</ele>
				<time>2015-07-04T00:02:55Z</time>
				<extensions>
				</extensions>
			</trkpt>
			<trkpt lat="-28.068001" lon="152.936335">
				<ele>61.199</ele>
				<time>2015-07-04T00:02:56Z</time>
				<extensions>
				</extensions>
			</trkpt>
			<trkpt lat="-28.068226" lon="152.936265">
				<ele>59.445</ele>
				<time>2015-07-04T00:02:57Z</time>
				<extensions>
				</extensions>
			</trkpt>
			<trkpt lat="-28.068454" lon="152.936186">
				<ele>59.025</ele>
				<time>2015-07-04T00:02:58Z</time>
				<extensions>
				</extensions>
			</trkpt>
			<trkpt lat="-28.068679" lon="152.936110">
				<ele>58.288</ele>
				<time>2015-07-04T00:02:59Z</time>
				<extensions>
				</extensions>
			</trkpt>
			<trkpt lat="-28.068901" lon="152.936038">
				<ele>60.166</ele>
				<time>2015-07-04T00:03:00Z</time>
				<extensions>
				</extensions>
			</trkpt>
			<trkpt lat="-28.069122" lon="152.935962">
				<ele>59.354</ele>
				<time>2015-07-04T00:03:01Z</time>
				<extensions>
				</extensions>
			</trkpt>
			<trkpt lat="-28.069339" lon="152.935889">
				<ele>60.808</ele>
				<time>2015-07-04T00:03:02Z</time>
				<extensions>
				</extensions>
			</trkpt>
			<trkpt lat="-28.069552" lon="152.935814">
				<ele>60.202</ele>
				<time>2015-07-04T00:03:03Z</time>
				<extensions>
				</extensions>
			</trkpt>
			<trkpt lat="-28.069761" lon="152.935738">
				<ele>60.688</ele>
				<time>2015-07-04T00:03:04Z</time>
				<extensions>
				</extensions>
			</trkpt>
			<trkpt lat="-28.069977" lon="152.935674">
				<ele>60.958</ele>
				<time>2015-07-04T00:03:05Z</time>
				<extensions>
				</extensions>
			</trkpt>
			<trkpt lat="-28.070198" lon="152.935613">
				<ele>59.795</ele>
				<time>2015-07-04T00:03:06Z</time>
				<extensions>
				</extensions>
			</trkpt>
			<trkpt lat="-28.070427" lon="152.935552">
				<ele>61.225</ele>
				<time>2015-07-04T00:03:07Z</time>
				<extensions>
				</extensions>
			</trkpt>
			<trkpt lat="-28.070647" lon="152.935505">
				<ele>61.792</ele>
				<time>2015-07-04T00:03:08Z</time>
				<extensions>
				</extensions>
			</trkpt>
			<trkpt lat="-28.070878" lon="152.935466">
				<ele>63.174</ele>
				<time>2015-07-04T00:03:09Z</time>
				<extensions>
				</extensions>
			</trkpt>
			<trkpt lat="-28.071116" lon="152.935428">
				<ele>66.155</ele>
				<time>2015-07-04T00:03:10Z</time>
				<extensions>
				</extensions>
			</trkpt>
			<trkpt lat="-28.071359" lon="152.935404">
				<ele>66.822</ele>
				<time>2015-07-04T00:03:11Z</time>
				<extensions>
				</extensions>
			</trkpt>
			<trkpt lat="-28.071606" lon="152.935383">
				<ele>67.749</ele>
				<time>2015-07-04T00:03:12Z</time>
				<extensions>
				</extensions>
			</trkpt>
			<trkpt lat="-28.071861" lon="152.935365">
				<ele>67.788</ele>
				<time>2015-07-04T00:03:13Z</time>
				<extensions>
				</extensions>
			</trkpt>
			<trkpt lat="-28.072114" lon="152.935363">
				<ele>68.364</ele>
				<time>2015-07-04T00:03:14Z</time>
				<extensions>
				</extensions>
			</trkpt>
			<trkpt lat="-28.072379" lon="152.935367">
				<ele>68.531</ele>
				<time>2015-07-04T00:03:15Z</time>
				<extensions>
				</extensions>
			</trkpt>
			<trkpt lat="-28.072641" lon="152.935373">
				<ele>67.731</ele>
				<time>2015-07-04T00:03:16Z</time>
				<extensions>
				</extensions>
			</trkpt>
			<trkpt lat="-28.072891" lon="152.935383">
				<ele>67.107</ele>
				<time>2015-07-04T00:03:17Z</time>
				<extensions>
				</extensions>
			</trkpt>
			<trkpt lat="-28.073138" lon="152.935395">
				<ele>66.618</ele>
				<time>2015-07-04T00:03:18Z</time>
				<extensions>
				</extensions>
			</trkpt>
			<trkpt lat="-28.073389" lon="152.935411">
				<ele>65.897</ele>
				<time>2015-07-04T00:03:19Z</time>
				<extensions>
				</extensions>
			</trkpt>
			<trkpt lat="-28.073620" lon="152.935426">
				<ele>66.368</ele>
				<time>2015-07-04T00:03:20Z</time>
				<extensions>
				</extensions>
			</trkpt>
			<trkpt lat="-28.073849" lon="152.935439">
				<ele>64.806</ele>
				<time>2015-07-04T00:03:21Z</time>
				<extensions>
				</extensions>
			</trkpt>
			<trkpt lat="-28.074089" lon="152.935451">
				<ele>64.582</ele>
				<time>2015-07-04T00:03:22Z</time>
				<extensions>
				</extensions>
			</trkpt>
			<trkpt lat="-28.074318" lon="152.935462">
				<ele>64.582</ele>
				<time>2015-07-04T00:03:23Z</time>
				<extensions>
				</extensions>
			</trkpt>
			<trkpt lat="-28.074555" lon="152.935477">
				<ele>63.992</ele>
				<time>2015-07-04T00:03:24Z</time>
				<extensions>
				</extensions>
			</trkpt>
			<trkpt lat="-28.074783" lon="152.935480">
				<ele>64.275</ele>
				<time>2015-07-04T00:03:25Z</time>
				<extensions>
				</extensions>
			</trkpt>
			<trkpt lat="-28.075012" lon="152.935488">
				<ele>62.804</ele>
				<time>2015-07-04T00:03:26Z</time>
				<extensions>
				</extensions>
			</trkpt>
			<trkpt lat="-28.075233" lon="152.935501">
				<ele>64.347</ele>
				<time>2015-07-04T00:03:27Z</time>
				<extensions>
				</extensions>
			</trkpt>
			<trkpt lat="-28.075464" lon="152.935514">
				<ele>64.435</ele>
				<time>2015-07-04T00:03:28Z</time>
				<extensions>
				</extensions>
			</trkpt>
			<trkpt lat="-28.075688" lon="152.935523">
				<ele>64.234</ele>
				<time>2015-07-04T00:03:29Z</time>
				<extensions>
				</extensions>
			</trkpt>
			<trkpt lat="-28.075920" lon="152.935538">
				<ele>63.451</ele>
				<time>2015-07-04T00:03:30Z</time>
				<extensions>
				</extensions>
			</trkpt>
			<trkpt lat="-28.076167" lon="152.935553">
				<ele>64.242</ele>
				<time>2015-07-04T00:03:31Z</time>
				<extensions>
				</extensions>
			</trkpt>
			<trkpt lat="-28.076402" lon="152.935569">
				<ele>66.304</ele>
				<time>2015-07-04T00:03:32Z</time>
				<extensions>
				</extensions>
			</trkpt>
			<trkpt lat="-28.076638" lon="152.935574">
				<ele>67.412</ele>
				<time>2015-07-04T00:03:33Z</time>
				<extensions>
				</extensions>
			</trkpt>
			<trkpt lat="-28.076894" lon="152.935577">
				<ele>66.607</ele>
				<time>2015-07-04T00:03:34Z</time>
				<extensions>
				</extensions>
			</trkpt>
			<trkpt lat="-28.077150" lon="152.935587">
				<ele>66.985</ele>
				<time>2015-07-04T00:03:35Z</time>
				<extensions>
				</extensions>
			</trkpt>
			<trkpt lat="-28.077394" lon="152.935600">
				<ele>67.508</ele>
				<time>2015-07-04T00:03:36Z</time>
				<extensions>
				</extensions>
			</trkpt>
			<trkpt lat="-28.077642" lon="152.935607">
				<ele>67.691</ele>
				<time>2015-07-04T00:03:37Z</time>
				<extensions>
				</extensions>
			</trkpt>
			<trkpt lat="-28.077885" lon="152.935625">
				<ele>69.019</ele>
				<time>2015-07-04T00:03:38Z</time>
				<extensions>
				</extensions>
			</trkpt>
			<trkpt lat="-28.078140" lon="152.935641">
				<ele>67.403</ele>
				<time>2015-07-04T00:03:39Z</time>
				<extensions>
				</extensions>
			</trkpt>
			<trkpt lat="-28.078387" lon="152.935661">
				<ele>67.103</ele>
				<time>2015-07-04T00:03:40Z</time>
				<extensions>
				</extensions>
			</trkpt>
			<trkpt lat="-28.078632" lon="152.935681">
				<ele>67.103</ele>
				<time>2015-07-04T00:03:41Z</time>
				<extensions>
				</extensions>
			</trkpt>
			<trkpt lat="-28.078869" lon="152.935695">
				<ele>67.397</ele>
				<time>2015-07-04T00:03:42Z</time>
				<extensions>
				</extensions>
			</trkpt>
			<trkpt lat="-28.079112" lon="152.935704">
				<ele>66.082</ele>
				<time>2015-07-04T00:03:43Z</time>
				<extensions>
				</extensions>
			</trkpt>
			<trkpt lat="-28.079358" lon="152.935718">
				<ele>66.522</ele>
				<time>2015-07-04T00:03:44Z</time>
				<extensions>
				</extensions>
			</trkpt>
			<trkpt lat="-28.079606" lon="152.935730">
				<ele>68.373</ele>
				<time>2015-07-04T00:03:45Z</time>
				<extensions>
				</extensions>
			</trkpt>
			<trkpt lat="-28.079851" lon="152.935740">
				<ele>70.254</ele>
				<time>2015-07-04T00:03:46Z</time>
				<extensions>
				</extensions>
			</trkpt>
			<trkpt lat="-28.080091" lon="152.935752">
				<ele>67.277</ele>
				<time>2015-07-04T00:03:47Z</time>
				<extensions>
				</extensions>
			</trkpt>
			<trkpt lat="-28.080330" lon="152.935763">
				<ele>66.921</ele>
				<time>2015-07-04T00:03:48Z</time>
				<extensions>
				</extensions>
			</trkpt>
			<trkpt lat="-28.080567" lon="152.935776">
				<ele>66.826</ele>
				<time>2015-07-04T00:03:49Z</time>
				<extensions>
				</extensions>
			</trkpt>
			<trkpt lat="-28.080810" lon="152.935783">
				<ele>65.871</ele>
				<time>2015-07-04T00:03:50Z</time>
				<extensions>
				</extensions>
			</trkpt>
			<trkpt lat="-28.081046" lon="152.935798">
				<ele>64.774</ele>
				<time>2015-07-04T00:03:51Z</time>
				<extensions>
				</extensions>
			</trkpt>
			<trkpt lat="-28.081284" lon="152.935807">
				<ele>65.357</ele>
				<time>2015-07-04T00:03:52Z</time>
				<extensions>
				</extensions>
			</trkpt>
			<trkpt lat="-28.081511" lon="152.935818">
				<ele>65.595</ele>
				<time>2015-07-04T00:03:53Z</time>
				<extensions>
				</extensions>
			</trkpt>
			<trkpt lat="-28.081745" lon="152.935828">
				<ele>65.472</ele>
				<time>2015-07-04T00:03:54Z</time>
				<extensions>
				</extensions>
			</trkpt>
			<trkpt lat="-28.081980" lon="152.935840">
				<ele>65.540</ele>
				<time>2015-07-04T00:03:55Z</time>
				<extensions>
				</extensions>
			</trkpt>
			<trkpt lat="-28.082217" lon="152.935855">
				<ele>64.330</ele>
				<time>2015-07-04T00:03:56Z</time>
				<extensions>
				</extensions>
			</trkpt>
			<trkpt lat="-28.082436" lon="152.935860">
				<ele>64.311</ele>
				<time>2015-07-04T00:03:57Z</time>
				<extensions>
				</extensions>
			</trkpt>
			<trkpt lat="-28.082648" lon="152.935874">
				<ele>63.229</ele>
				<time>2015-07-04T00:03:58Z</time>
				<extensions>
				</extensions>
			</trkpt>
			<trkpt lat="-28.082852" lon="152.935884">
				<ele>60.633</ele>
				<time>2015-07-04T00:03:59Z</time>
				<extensions>
				</extensions>
			</trkpt>
			<trkpt lat="-28.083047" lon="152.935895">
				<ele>60.588</ele>
				<time>2015-07-04T00:04:00Z</time>
				<extensions>
				</extensions>
			</trkpt>
			<trkpt lat="-28.083260" lon="152.935909">
				<ele>61.480</ele>
				<time>2015-07-04T00:04:01Z</time>
				<extensions>
				</extensions>
			</trkpt>
			<trkpt lat="-28.083464" lon="152.935916">
				<ele>62.894</ele>
				<time>2015-07-04T00:04:02Z</time>
				<extensions>
				</extensions>
			</trkpt>
			<trkpt lat="-28.083665" lon="152.935923">
				<ele>62.728</ele>
				<time>2015-07-04T00:04:03Z</time>
				<extensions>
				</extensions>
			</trkpt>
			<trkpt lat="-28.083867" lon="152.935931">
				<ele>63.506</ele>
				<time>2015-07-04T00:04:04Z</time>
				<extensions>
				</extensions>
			</trkpt>
			<trkpt lat="-28.084059" lon="152.935942">
				<ele>64.106</ele>
				<time>2015-07-04T00:04:05Z</time>
				<extensions>
				</extensions>
			</trkpt>
			<trkpt lat="-28.084257" lon="152.935949">
				<ele>64.480</ele>
				<time>2015-07-04T00:04:06Z</time>
				<extensions>
				</extensions>
			</trkpt>
			<trkpt lat="-28.084448" lon="152.935958">
				<ele>64.195</ele>
				<time>2015-07-04T00:04:07Z</time>
				<extensions>
				</extensions>
			</trkpt>
			<trkpt lat="-28.084642" lon="152.935957">
				<ele>63.682</ele>
				<time>2015-07-04T00:04:08Z</time>
				<extensions>
				</extensions>
			</trkpt>
			<trkpt lat="-28.084835" lon="152.935969">
				<ele>63.743</ele>
				<time>2015-07-04T00:04:09Z</time>
				<extensions>
				</extensions>
			</trkpt>
			<trkpt lat="-28.085038" lon="152.935981">
				<ele>63.600</ele>
				<time>2015-07-04T00:04:10Z</time>
				<extensions>
				</extensions>
			</trkpt>
			<trkpt lat="-28.085231" lon="152.935994">
				<ele>62.982</ele>
				<time>2015-07-04T00:04:11Z</time>
				<extensions>
				</extensions>
			</trkpt>
			<trkpt lat="-28.085429" lon="152.936007">
				<ele>62.623</ele>
				<time>2015-07-04T00:04:12Z</time>
				<extensions>
				</extensions>
			</trkpt>
			<trkpt lat="-28.085621" lon="152.936018">
				<ele>63.146</ele>
				<time>2015-07-04T00:04:13Z</time>
				<extensions>
				</extensions>
			</trkpt>
			<trkpt lat="-28.085815" lon="152.936030">
				<ele>62.195</ele>
				<time>2015-07-04T00:04:14Z</time>
				<extensions>
				</extensions>
			</trkpt>
			<trkpt lat="-28.086011" lon="152.936033">
				<ele>62.308</ele>
				<time>2015-07-04T00:04:15Z</time>
				<extensions>
				</extensions>
			</trkpt>
			<trkpt lat="-28.086218" lon="152.936030">
				<ele>61.876</ele>
				<time>2015-07-04T00:04:16Z</time>
				<extensions>
				</extensions>
			</trkpt>
			<trkpt lat="-28.086421" lon="152.936030">
				<ele>61.757</ele>
				<time>2015-07-04T00:04:17Z</time>
				<extensions>
				</extensions>
			</trkpt>
			<trkpt lat="-28.086631" lon="152.936025">
				<ele>60.668</ele>
				<time>2015-07-04T00:04:18Z</time>
				<extensions>
				</extensions>
			</trkpt>
			<trkpt lat="-28.086824" lon="152.935997">
				<ele>59.899</ele>
				<time>2015-07-04T00:04:19Z</time>
				<extensions>
				</extensions>
			</trkpt>
			<trkpt lat="-28.087035" lon="152.935956">
				<ele>60.721</ele>
				<time>2015-07-04T00:04:20Z</time>
				<extensions>
				</extensions>
			</trkpt>
			<trkpt lat="-28.087240" lon="152.935900">
				<ele>60.998</ele>
				<time>2015-07-04T00:04:21Z</time>
				<extensions>
				</extensions>
			</trkpt>
			<trkpt lat="-28.087438" lon="152.935816">
				<ele>59.213</ele>
				<time>2015-07-04T00:04:22Z</time>
				<extensions>
				</extensions>
			</trkpt>
			<trkpt lat="-28.087633" lon="152.935711">
				<ele>58.225</ele>
				<time>2015-07-04T00:04:23Z</time>
				<extensions>
				</extensions>
			</trkpt>
			<trkpt lat="-28.087821" lon="152.935588">
				<ele>57.725</ele>
				<time>2015-07-04T00:04:24Z</time>
				<extensions>
				</extensions>
			</trkpt>
			<trkpt lat="-28.088003" lon="152.935451">
				<ele>58.359</ele>
				<time>2015-07-04T00:04:25Z</time>
				<extensions>
				</extensions>
			</trkpt>
			<trkpt lat="-28.088163" lon="152.935298">
				<ele>59.583</ele>
				<time>2015-07-04T00:04:26Z</time>
				<extensions>
				</extensions>
			</trkpt>
			<trkpt lat="-28.088327" lon="152.935119">
				<ele>58.363</ele>
				<time>2015-07-04T00:04:27Z</time>
				<extensions>
				</extensions>
			</trkpt>
			<trkpt lat="-28.088478" lon="152.934918">
				<ele>58.363</ele>
				<time>2015-07-04T00:04:28Z</time>
				<extensions>
				</extensions>
			</trkpt>
			<trkpt lat="-28.088621" lon="152.934693">
				<ele>59.378</ele>
				<time>2015-07-04T00:04:29Z</time>
				<extensions>
				</extensions>
			</trkpt>
			<trkpt lat="-28.088750" lon="152.934449">
				<ele>60.599</ele>
				<time>2015-07-04T00:04:30Z</time>
				<extensions>
				</extensions>
			</trkpt>
			<trkpt lat="-28.088878" lon="152.934193">
				<ele>63.291</ele>
				<time>2015-07-04T00:04:31Z</time>
				<extensions>
				</extensions>
			</trkpt>
			<trkpt lat="-28.089007" lon="152.933923">
				<ele>65.518</ele>
				<time>2015-07-04T00:04:32Z</time>
				<extensions>
				</extensions>
			</trkpt>
			<trkpt lat="-28.089128" lon="152.933657">
				<ele>66.164</ele>
				<time>2015-07-04T00:04:33Z</time>
				<extensions>
				</extensions>
			</trkpt>
			<trkpt lat="-28.089247" lon="152.933392">
				<ele>65.156</ele>
				<time>2015-07-04T00:04:34Z</time>
				<extensions>
				</extensions>
			</trkpt>
			<trkpt lat="-28.089355" lon="152.933142">
				<ele>63.134</ele>
				<time>2015-07-04T00:04:35Z</time>
				<extensions>
				</extensions>
			</trkpt>
			<trkpt lat="-28.089473" lon="152.932888">
				<ele>62.641</ele>
				<time>2015-07-04T00:04:36Z</time>
				<extensions>
				</extensions>
			</trkpt>
			<trkpt lat="-28.089559" lon="152.932626">
				<ele>61.274</ele>
				<time>2015-07-04T00:04:37Z</time>
				<extensions>
				</extensions>
			</trkpt>
			<trkpt lat="-28.089618" lon="152.932374">
				<ele>59.797</ele>
				<time>2015-07-04T00:04:38Z</time>
				<extensions>
				</extensions>
			</trkpt>
			<trkpt lat="-28.089642" lon="152.932129">
				<ele>59.933</ele>
				<time>2015-07-04T00:04:39Z</time>
				<extensions>
				</extensions>
			</trkpt>
			<trkpt lat="-28.089645" lon="152.931887">
				<ele>57.669</ele>
				<time>2015-07-04T00:04:40Z</time>
				<extensions>
				</extensions>
			</trkpt>
			<trkpt lat="-28.089628" lon="152.931660">
				<ele>57.602</ele>
				<time>2015-07-04T00:04:41Z</time>
				<extensions>
				</extensions>
			</trkpt>
			<trkpt lat="-28.089602" lon="152.931442">
				<ele>56.517</ele>
				<time>2015-07-04T00:04:42Z</time>
				<extensions>
				</extensions>
			</trkpt>
			<trkpt lat="-28.089569" lon="152.931225">
				<ele>54.473</ele>
				<time>2015-07-04T00:04:43Z</time>
				<extensions>
				</extensions>
			</trkpt>
			<trkpt lat="-28.089531" lon="152.931005">
				<ele>52.589</ele>
				<time>2015-07-04T00:04:44Z</time>
				<extensions>
				</extensions>
			</trkpt>
			<trkpt lat="-28.089495" lon="152.930792">
				<ele>53.828</ele>
				<time>2015-07-04T00:04:45Z</time>
				<extensions>
				</extensions>
			</trkpt>
			<trkpt lat="-28.089461" lon="152.930577">
				<ele>53.559</ele>
				<time>2015-07-04T00:04:46Z</time>
				<extensions>
				</extensions>
			</trkpt>
			<trkpt lat="-28.089430" lon="152.930365">
				<ele>53.522</ele>
				<time>2015-07-04T00:04:47Z</time>
				<extensions>
				</extensions>
			</trkpt>
			<trkpt lat="-28.089410" lon="152.930145">
				<ele>53.305</ele>
				<time>2015-07-04T00:04:48Z</time>
				<extensions>
				</extensions>
			</trkpt>
			<trkpt lat="-28.089405" lon="152.929934">
				<ele>53.953</ele>
				<time>2015-07-04T00:04:49Z</time>
				<extensions>
				</extensions>
			</trkpt>
			<trkpt lat="-28.089420" lon="152.929711">
				<ele>53.957</ele>
				<time>2015-07-04T00:04:50Z</time>
				<extensions>
				</extensions>
			</trkpt>
			<trkpt lat="-28.089502" lon="152.929316">
				<ele>56.175</ele>
				<time>2015-07-04T00:04:52Z</time>
				<extensions>
				</extensions>
			</trkpt>
			<trkpt lat="-28.089573" lon="152.929124">
				<ele>56.201</ele>
				<time>2015-07-04T00:04:53Z</time>
				<extensions>
				</extensions>
			</trkpt>
			<trkpt lat="-28.089657" lon="152.928936">
				<ele>58.869</ele>
				<time>2015-07-04T00:04:54Z</time>
				<extensions>
				</extensions>
			</trkpt>
			<trkpt lat="-28.089764" lon="152.928752">
				<ele>60.318</ele>
				<time>2015-07-04T00:04:55Z</time>
				<extensions>
				</extensions>
			</trkpt>
			<trkpt lat="-28.089879" lon="152.928559">
				<ele>61.884</ele>
				<time>2015-07-04T00:04:56Z</time>
				<extensions>
				</extensions>
			</trkpt>
			<trkpt lat="-28.090008" lon="152.928364">
				<ele>62.749</ele>
				<time>2015-07-04T00:04:57Z</time>
				<extensions>
				</extensions>
			</trkpt>
			<trkpt lat="-28.090139" lon="152.928160">
				<ele>64.108</ele>
				<time>2015-07-04T00:04:58Z</time>
				<extensions>
				</extensions>
			</trkpt>
			<trkpt lat="-28.090274" lon="152.927948">
				<ele>65.401</ele>
				<time>2015-07-04T00:04:59Z</time>
				<extensions>
				</extensions>
			</trkpt>
			<trkpt lat="-28.090410" lon="152.927744">
				<ele>64.852</ele>
				<time>2015-07-04T00:05:00Z</time>
				<extensions>
				</extensions>
			</trkpt>
			<trkpt lat="-28.090533" lon="152.927540">
				<ele>64.612</ele>
				<time>2015-07-04T00:05:01Z</time>
				<extensions>
				</extensions>
			</trkpt>
			<trkpt lat="-28.090663" lon="152.927325">
				<ele>65.287</ele>
				<time>2015-07-04T00:05:02Z</time>
				<extensions>
				</extensions>
			</trkpt>
			<trkpt lat="-28.090790" lon="152.927109">
				<ele>66.627</ele>
				<time>2015-07-04T00:05:03Z</time>
				<extensions>
				</extensions>
			</trkpt>
			<trkpt lat="-28.090916" lon="152.926889">
				<ele>66.101</ele>
				<time>2015-07-04T00:05:04Z</time>
				<extensions>
				</extensions>
			</trkpt>
			<trkpt lat="-28.091032" lon="152.926666">
				<ele>66.412</ele>
				<time>2015-07-04T00:05:05Z</time>
				<extensions>
				</extensions>
			</trkpt>
			<trkpt lat="-28.091162" lon="152.926450">
				<ele>67.646</ele>
				<time>2015-07-04T00:05:06Z</time>
				<extensions>
				</extensions>
			</trkpt>
			<trkpt lat="-28.091288" lon="152.926229">
				<ele>67.409</ele>
				<time>2015-07-04T00:05:07Z</time>
				<extensions>
				</extensions>
			</trkpt>
			<trkpt lat="-28.091414" lon="152.926005">
				<ele>67.395</ele>
				<time>2015-07-04T00:05:08Z</time>
				<extensions>
				</extensions>
			</trkpt>
			<trkpt lat="-28.091545" lon="152.925788">
				<ele>66.307</ele>
				<time>2015-07-04T00:05:09Z</time>
				<extensions>
				</extensions>
			</trkpt>
			<trkpt lat="-28.091663" lon="152.925575">
				<ele>66.220</ele>
				<time>2015-07-04T00:05:10Z</time>
				<extensions>
				</extensions>
			</trkpt>
			<trkpt lat="-28.091780" lon="152.925361">
				<ele>65.847</ele>
				<time>2015-07-04T00:05:11Z</time>
				<extensions>
				</extensions>
			</trkpt>
			<trkpt lat="-28.091901" lon="152.925146">
				<ele>66.136</ele>
				<time>2015-07-04T00:05:12Z</time>
				<extensions>
				</extensions>
			</trkpt>
			<trkpt lat="-28.092026" lon="152.924928">
				<ele>65.903</ele>
				<time>2015-07-04T00:05:13Z</time>
				<extensions>
				</extensions>
			</trkpt>
			<trkpt lat="-28.092151" lon="152.924714">
				<ele>64.524</ele>
				<time>2015-07-04T00:05:14Z</time>
				<extensions>
				</extensions>
			</trkpt>
			<trkpt lat="-28.092273" lon="152.924492">
				<ele>64.806</ele>
				<time>2015-07-04T00:05:15Z</time>
				<extensions>
				</extensions>
			</trkpt>
			<trkpt lat="-28.092392" lon="152.924277">
				<ele>64.376</ele>
				<time>2015-07-04T00:05:16Z</time>
				<extensions>
				</extensions>
			</trkpt>
			<trkpt lat="-28.092515" lon="152.924060">
				<ele>63.933</ele>
				<time>2015-07-04T00:05:17Z</time>
				<extensions>
				</extensions>
			</trkpt>
			<trkpt lat="-28.092636" lon="152.923829">
				<ele>64.785</ele>
				<time>2015-07-04T00:05:18Z</time>
				<extensions>
				</extensions>
			</trkpt>
			<trkpt lat="-28.092764" lon="152.923604">
				<ele>65.728</ele>
				<time>2015-07-04T00:05:19Z</time>
				<extensions>
				</extensions>
			</trkpt>
			<trkpt lat="-28.092888" lon="152.923377">
				<ele>67.659</ele>
				<time>2015-07-04T00:05:20Z</time>
				<extensions>
				</extensions>
			</trkpt>
			<trkpt lat="-28.093023" lon="152.923148">
				<ele>66.945</ele>
				<time>2015-07-04T00:05:21Z</time>
				<extensions>
				</extensions>
			</trkpt>
			<trkpt lat="-28.093145" lon="152.922916">
				<ele>66.805</ele>
				<time>2015-07-04T00:05:22Z</time>
				<extensions>
				</extensions>
			</trkpt>
			<trkpt lat="-28.093271" lon="152.922682">
				<ele>65.400</ele>
				<time>2015-07-04T00:05:23Z</time>
				<extensions>
				</extensions>
			</trkpt>
			<trkpt lat="-28.093399" lon="152.922453">
				<ele>64.331</ele>
				<time>2015-07-04T00:05:24Z</time>
				<extensions>
				</extensions>
			</trkpt>
			<trkpt lat="-28.093526" lon="152.922225">
				<ele>63.092</ele>
				<time>2015-07-04T00:05:25Z</time>
				<extensions>
				</extensions>
			</trkpt>
			<trkpt lat="-28.093669" lon="152.921999">
				<ele>62.353</ele>
				<time>2015-07-04T00:05:26Z</time>
				<extensions>
				</extensions>
			</trkpt>
			<trkpt lat="-28.093789" lon="152.921779">
				<ele>60.970</ele>
				<time>2015-07-04T00:05:27Z</time>
				<extensions>
				</extensions>
			</trkpt>
			<trkpt lat="-28.093913" lon="152.921564">
				<ele>61.967</ele>
				<time>2015-07-04T00:05:28Z</time>
				<extensions>
				</extensions>
			</trkpt>
			<trkpt lat="-28.094033" lon="152.921360">
				<ele>62.085</ele>
				<time>2015-07-04T00:05:29Z</time>
				<extensions>
				</extensions>
			</trkpt>
			<trkpt lat="-28.094162" lon="152.921149">
				<ele>62.106</ele>
				<time>2015-07-04T00:05:30Z</time>
				<extensions>
				</extensions>
			</trkpt>
			<trkpt lat="-28.094301" lon="152.920942">
				<ele>61.550</ele>
				<time>2015-07-04T00:05:31Z</time>
				<extensions>
				</extensions>
			</trkpt>
			<trkpt lat="-28.094454" lon="152.920735">
				<ele>61.739</ele>
				<time>2015-07-04T00:05:32Z</time>
				<extensions>
				</extensions>
			</trkpt>
			<trkpt lat="-28.094605" lon="152.920540">
				<ele>63.039</ele>
				<time>2015-07-04T00:05:33Z</time>
				<extensions>
				</extensions>
			</trkpt>
			<trkpt lat="-28.094770" lon="152.920347">
				<ele>63.039</ele>
				<time>2015-07-04T00:05:34Z</time>
				<extensions>
				</extensions>
			</trkpt>
			<trkpt lat="-28.094938" lon="152.920171">
				<ele>65.360</ele>
				<time>2015-07-04T00:05:35Z</time>
				<extensions>
				</extensions>
			</trkpt>
			<trkpt lat="-28.095115" lon="152.919995">
				<ele>65.689</ele>
				<time>2015-07-04T00:05:36Z</time>
				<extensions>
				</extensions>
			</trkpt>
			<trkpt lat="-28.095299" lon="152.919834">
				<ele>66.426</ele>
				<time>2015-07-04T00:05:37Z</time>
				<extensions>
				</extensions>
			</trkpt>
			<trkpt lat="-28.095486" lon="152.919684">
				<ele>65.895</ele>
				<time>2015-07-04T00:05:38Z</time>
				<extensions>
				</extensions>
			</trkpt>
			<trkpt lat="-28.095679" lon="152.919534">
				<ele>66.510</ele>
				<time>2015-07-04T00:05:39Z</time>
				<extensions>
				</extensions>
			</trkpt>
			<trkpt lat="-28.095877" lon="152.919386">
				<ele>66.012</ele>
				<time>2015-07-04T00:05:40Z</time>
				<extensions>
				</extensions>
			</trkpt>
			<trkpt lat="-28.096081" lon="152.919254">
				<ele>66.564</ele>
				<time>2015-07-04T00:05:41Z</time>
				<extensions>
				</extensions>
			</trkpt>
			<trkpt lat="-28.096292" lon="152.919129">
				<ele>66.877</ele>
				<time>2015-07-04T00:05:42Z</time>
				<extensions>
				</extensions>
			</trkpt>
			<trkpt lat="-28.096504" lon="152.919020">
				<ele>67.723</ele>
				<time>2015-07-04T00:05:43Z</time>
				<extensions>
				</extensions>
			</trkpt>
			<trkpt lat="-28.096720" lon="152.918922">
				<ele>67.954</ele>
				<time>2015-07-04T00:05:44Z</time>
				<extensions>
				</extensions>
			</trkpt>
			<trkpt lat="-28.096944" lon="152.918842">
				<ele>67.865</ele>
				<time>2015-07-04T00:05:45Z</time>
				<extensions>
				</extensions>
			</trkpt>
			<trkpt lat="-28.097171" lon="152.918761">
				<ele>66.653</ele>
				<time>2015-07-04T00:05:46Z</time>
				<extensions>
				</extensions>
			</trkpt>
			<trkpt lat="-28.097402" lon="152.918695">
				<ele>66.102</ele>
				<time>2015-07-04T00:05:47Z</time>
				<extensions>
				</extensions>
			</trkpt>
			<trkpt lat="-28.097635" lon="152.918630">
				<ele>65.633</ele>
				<time>2015-07-04T00:05:48Z</time>
				<extensions>
				</extensions>
			</trkpt>
			<trkpt lat="-28.097865" lon="152.918572">
				<ele>66.358</ele>
				<time>2015-07-04T00:05:49Z</time>
				<extensions>
				</extensions>
			</trkpt>
			<trkpt lat="-28.098095" lon="152.918517">
				<ele>65.897</ele>
				<time>2015-07-04T00:05:50Z</time>
				<extensions>
				</extensions>
			</trkpt>
			<trkpt lat="-28.098329" lon="152.918463">
				<ele>65.640</ele>
				<time>2015-07-04T00:05:51Z</time>
				<extensions>
				</extensions>
			</trkpt>
			<trkpt lat="-28.098557" lon="152.918398">
				<ele>64.492</ele>
				<time>2015-07-04T00:05:52Z</time>
				<extensions>
				</extensions>
			</trkpt>
			<trkpt lat="-28.098780" lon="152.918341">
				<ele>63.518</ele>
				<time>2015-07-04T00:05:53Z</time>
				<extensions>
				</extensions>
			</trkpt>
			<trkpt lat="-28.099004" lon="152.918277">
				<ele>63.999</ele>
				<time>2015-07-04T00:05:54Z</time>
				<extensions>
				</extensions>
			</trkpt>
			<trkpt lat="-28.099226" lon="152.918196">
				<ele>64.224</ele>
				<time>2015-07-04T00:05:55Z</time>
				<extensions>
				</extensions>
			</trkpt>
			<trkpt lat="-28.099444" lon="152.918106">
				<ele>65.279</ele>
				<time>2015-07-04T00:05:56Z</time>
				<extensions>
				</extensions>
			</trkpt>
			<trkpt lat="-28.099666" lon="152.918013">
				<ele>65.405</ele>
				<time>2015-07-04T00:05:57Z</time>
				<extensions>
				</extensions>
			</trkpt>
			<trkpt lat="-28.099892" lon="152.917901">
				<ele>65.116</ele>
				<time>2015-07-04T00:05:58Z</time>
				<extensions>
				</extensions>
			</trkpt>
			<trkpt lat="-28.100114" lon="152.917788">
				<ele>66.983</ele>
				<time>2015-07-04T00:05:59Z</time>
				<extensions>
				</extensions>
			</trkpt>
			<trkpt lat="-28.100327" lon="152.917670">
				<ele>66.854</ele>
				<time>2015-07-04T00:06:00Z</time>
				<extensions>
				</extensions>
			</trkpt>
			<trkpt lat="-28.100536" lon="152.917555">
				<ele>64.843</ele>
				<time>2015-07-04T00:06:01Z</time>
				<extensions>
				</extensions>
			</trkpt>
			<trkpt lat="-28.100743" lon="152.917442">
				<ele>63.289</ele>
				<time>2015-07-04T00:06:02Z</time>
				<extensions>
				</extensions>
			</trkpt>
			<trkpt lat="-28.100950" lon="152.917327">
				<ele>62.906</ele>
				<time>2015-07-04T00:06:03Z</time>
				<extensions>
				</extensions>
			</trkpt>
			<trkpt lat="-28.101154" lon="152.917204">
				<ele>64.943</ele>
				<time>2015-07-04T00:06:04Z</time>
				<extensions>
				</extensions>
			</trkpt>
			<trkpt lat="-28.101363" lon="152.917082">
				<ele>64.146</ele>
				<time>2015-07-04T00:06:05Z</time>
				<extensions>
				</extensions>
			</trkpt>
			<trkpt lat="-28.101571" lon="152.916951">
				<ele>64.788</ele>
				<time>2015-07-04T00:06:06Z</time>
				<extensions>
				</extensions>
			</trkpt>
			<trkpt lat="-28.101769" lon="152.916816">
				<ele>64.448</ele>
				<time>2015-07-04T00:06:07Z</time>
				<extensions>
				</extensions>
			</trkpt>
			<trkpt lat="-28.101964" lon="152.916668">
				<ele>64.835</ele>
				<time>2015-07-04T00:06:08Z</time>
				<extensions>
				</extensions>
			</trkpt>
			<trkpt lat="-28.102166" lon="152.916517">
				<ele>65.362</ele>
				<time>2015-07-04T00:06:09Z</time>
				<extensions>
				</extensions>
			</trkpt>
			<trkpt lat="-28.102365" lon="152.916361">
				<ele>65.357</ele>
				<time>2015-07-04T00:06:10Z</time>
				<extensions>
				</extensions>
			</trkpt>
			<trkpt lat="-28.102555" lon="152.916217">
				<ele>63.545</ele>
				<time>2015-07-04T00:06:11Z</time>
				<extensions>
				</extensions>
			</trkpt>
			<trkpt lat="-28.102743" lon="152.916071">
				<ele>61.844</ele>
				<time>2015-07-04T00:06:12Z</time>
				<extensions>
				</extensions>
			</trkpt>
			<trkpt lat="-28.102931" lon="152.915931">
				<ele>61.495</ele>
				<time>2015-07-04T00:06:13Z</time>
				<extensions>
				</extensions>
			</trkpt>
			<trkpt lat="-28.103110" lon="152.915791">
				<ele>61.655</ele>
				<time>2015-07-04T00:06:14Z</time>
				<extensions>
				</extensions>
			</trkpt>
			<trkpt lat="-28.103305" lon="152.915642">
				<ele>61.987</ele>
				<time>2015-07-04T00:06:15Z</time>
				<extensions>
				</extensions>
			</trkpt>
			<trkpt lat="-28.103494" lon="152.915506">
				<ele>61.385</ele>
				<time>2015-07-04T00:06:16Z</time>
				<extensions>
				</extensions>
			</trkpt>
			<trkpt lat="-28.103687" lon="152.915370">
				<ele>61.415</ele>
				<time>2015-07-04T00:06:17Z</time>
				<extensions>
				</extensions>
			</trkpt>
			<trkpt lat="-28.103882" lon="152.915239">
				<ele>63.155</ele>
				<time>2015-07-04T00:06:18Z</time>
				<extensions>
				</extensions>
			</trkpt>
			<trkpt lat="-28.104084" lon="152.915129">
				<ele>62.131</ele>
				<time>2015-07-04T00:06:19Z</time>
				<extensions>
				</extensions>
			</trkpt>
			<trkpt lat="-28.104296" lon="152.915026">
				<ele>63.065</ele>
				<time>2015-07-04T00:06:20Z</time>
				<extensions>
				</extensions>
			</trkpt>
			<trkpt lat="-28.104517" lon="152.914945">
				<ele>64.073</ele>
				<time>2015-07-04T00:06:21Z</time>
				<extensions>
				</extensions>
			</trkpt>
			<trkpt lat="-28.104743" lon="152.914883">
				<ele>65.419</ele>
				<time>2015-07-04T00:06:22Z</time>
				<extensions>
				</extensions>
			</trkpt>
			<trkpt lat="-28.104972" lon="152.914839">
				<ele>65.222</ele>
				<time>2015-07-04T00:06:23Z</time>
				<extensions>
				</extensions>
			</trkpt>
			<trkpt lat="-28.105204" lon="152.914816">
				<ele>65.775</ele>
				<time>2015-07-04T00:06:24Z</time>
				<extensions>
				</extensions>
			</trkpt>
			<trkpt lat="-28.105429" lon="152.914809">
				<ele>65.861</ele>
				<time>2015-07-04T00:06:25Z</time>
				<extensions>
				</extensions>
			</trkpt>
			<trkpt lat="-28.105670" lon="152.914838">
				<ele>66.081</ele>
				<time>2015-07-04T00:06:26Z</time>
				<extensions>
				</extensions>
			</trkpt>
			<trkpt lat="-28.105906" lon="152.914871">
				<ele>65.400</ele>
				<time>2015-07-04T00:06:27Z</time>
				<extensions>
				</extensions>
			</trkpt>
			<trkpt lat="-28.106143" lon="152.914923">
				<ele>64.281</ele>
				<time>2015-07-04T00:06:28Z</time>
				<extensions>
				</extensions>
			</trkpt>
			<trkpt lat="-28.106386" lon="152.914986">
				<ele>64.206</ele>
				<time>2015-07-04T00:06:29Z</time>
				<extensions>
				</extensions>
			</trkpt>
			<trkpt lat="-28.106613" lon="152.915059">
				<ele>65.242</ele>
				<time>2015-07-04T00:06:30Z</time>
				<extensions>
				</extensions>
			</trkpt>
			<trkpt lat="-28.106834" lon="152.915143">
				<ele>66.787</ele>
				<time>2015-07-04T00:06:31Z</time>
				<extensions>
				</extensions>
			</trkpt>
			<trkpt lat="-28.107070" lon="152.915226">
				<ele>67.132</ele>
				<time>2015-07-04T00:06:32Z</time>
				<extensions>
				</extensions>
			</trkpt>
			<trkpt lat="-28.107304" lon="152.915308">
				<ele>69.608</ele>
				<time>2015-07-04T00:06:33Z</time>
				<extensions>
				</extensions>
			</trkpt>
			<trkpt lat="-28.107539" lon="152.915395">
				<ele>71.299</ele>
				<time>2015-07-04T00:06:34Z</time>
				<extensions>
				</extensions>
			</trkpt>
			<trkpt lat="-28.107774" lon="152.915477">
				<ele>70.363</ele>
				<time>2015-07-04T00:06:35Z</time>
				<extensions>
				</extensions>
			</trkpt>
			<trkpt lat="-28.108004" lon="152.915552">
				<ele>70.605</ele>
				<time>2015-07-04T00:06:36Z</time>
				<extensions>
				</extensions>
			</trkpt>
			<trkpt lat="-28.108235" lon="152.915630">
				<ele>69.714</ele>
				<time>2015-07-04T00:06:37Z</time>
				<extensions>
				</extensions>
			</trkpt>
			<trkpt lat="-28.108459" lon="152.915688">
				<ele>69.689</ele>
				<time>2015-07-04T00:06:38Z</time>
				<extensions>
				</extensions>
			</trkpt>
			<trkpt lat="-28.108691" lon="152.915732">
				<ele>69.689</ele>
				<time>2015-07-04T00:06:39Z</time>
				<extensions>
				</extensions>
			</trkpt>
			<trkpt lat="-28.108923" lon="152.915763">
				<ele>70.131</ele>
				<time>2015-07-04T00:06:40Z</time>
				<extensions>
				</extensions>
			</trkpt>
			<trkpt lat="-28.109161" lon="152.915780">
				<ele>70.843</ele>
				<time>2015-07-04T00:06:41Z</time>
				<extensions>
				</extensions>
			</trkpt>
			<trkpt lat="-28.109410" lon="152.915793">
				<ele>71.843</ele>
				<time>2015-07-04T00:06:42Z</time>
				<extensions>
				</extensions>
			</trkpt>
			<trkpt lat="-28.109652" lon="152.915807">
				<ele>74.845</ele>
				<time>2015-07-04T00:06:43Z</time>
				<extensions>
				</extensions>
			</trkpt>
			<trkpt lat="-28.109893" lon="152.915819">
				<ele>75.703</ele>
				<time>2015-07-04T00:06:44Z</time>
				<extensions>
				</extensions>
			</trkpt>
			<trkpt lat="-28.110137" lon="152.915833">
				<ele>75.436</ele>
				<time>2015-07-04T00:06:45Z</time>
				<extensions>
				</extensions>
			</trkpt>
			<trkpt lat="-28.110393" lon="152.915857">
				<ele>76.188</ele>
				<time>2015-07-04T00:06:46Z</time>
				<extensions>
				</extensions>
			</trkpt>
			<trkpt lat="-28.110651" lon="152.915870">
				<ele>75.569</ele>
				<time>2015-07-04T00:06:47Z</time>
				<extensions>
				</extensions>
			</trkpt>
			<trkpt lat="-28.110888" lon="152.915885">
				<ele>74.593</ele>
				<time>2015-07-04T00:06:48Z</time>
				<extensions>
				</extensions>
			</trkpt>
			<trkpt lat="-28.111139" lon="152.915901">
				<ele>75.030</ele>
				<time>2015-07-04T00:06:49Z</time>
				<extensions>
				</extensions>
			</trkpt>
			<trkpt lat="-28.111371" lon="152.915915">
				<ele>75.838</ele>
				<time>2015-07-04T00:06:50Z</time>
				<extensions>
				</extensions>
			</trkpt>
			<trkpt lat="-28.111596" lon="152.915916">
				<ele>74.716</ele>
				<time>2015-07-04T00:06:51Z</time>
				<extensions>
				</extensions>
			</trkpt>
			<trkpt lat="-28.111835" lon="152.915931">
				<ele>73.234</ele>
				<time>2015-07-04T00:06:52Z</time>
				<extensions>
				</extensions>
			</trkpt>
			<trkpt lat="-28.112086" lon="152.915947">
				<ele>72.817</ele>
				<time>2015-07-04T00:06:53Z</time>
				<extensions>
				</extensions>
			</trkpt>
			<trkpt lat="-28.112328" lon="152.915961">
				<ele>72.968</ele>
				<time>2015-07-04T00:06:54Z</time>
				<extensions>
				</extensions>
			</trkpt>
			<trkpt lat="-28.112568" lon="152.915988">
				<ele>72.397</ele>
				<time>2015-07-04T00:06:55Z</time>
				<extensions>
				</extensions>
			</trkpt>
			<trkpt lat="-28.112804" lon="152.916019">
				<ele>72.829</ele>
				<time>2015-07-04T00:06:56Z</time>
				<extensions>
				</extensions>
			</trkpt>
			<trkpt lat="-28.113045" lon="152.916051">
				<ele>71.197</ele>
				<time>2015-07-04T00:06:57Z</time>
				<extensions>
				</extensions>
			</trkpt>
			<trkpt lat="-28.113265" lon="152.916085">
				<ele>71.236</ele>
				<time>2015-07-04T00:06:58Z</time>
				<extensions>
				</extensions>
			</trkpt>
			<trkpt lat="-28.113500" lon="152.916128">
				<ele>71.816</ele>
				<time>2015-07-04T00:06:59Z</time>
				<extensions>
				</extensions>
			</trkpt>
			<trkpt lat="-28.113737" lon="152.916172">
				<ele>72.038</ele>
				<time>2015-07-04T00:07:00Z</time>
				<extensions>
				</extensions>
			</trkpt>
			<trkpt lat="-28.113979" lon="152.916231">
				<ele>73.820</ele>
				<time>2015-07-04T00:07:01Z</time>
				<extensions>
				</extensions>
			</trkpt>
			<trkpt lat="-28.114213" lon="152.916294">
				<ele>74.520</ele>
				<time>2015-07-04T00:07:02Z</time>
				<extensions>
				</extensions>
			</trkpt>
			<trkpt lat="-28.114460" lon="152.916352">
				<ele>75.502</ele>
				<time>2015-07-04T00:07:03Z</time>
				<extensions>
				</extensions>
			</trkpt>
			<trkpt lat="-28.114693" lon="152.916418">
				<ele>74.613</ele>
				<time>2015-07-04T00:07:04Z</time>
				<extensions>
				</extensions>
			</trkpt>
			<trkpt lat="-28.114928" lon="152.916484">
				<ele>75.226</ele>
				<time>2015-07-04T00:07:05Z</time>
				<extensions>
				</extensions>
			</trkpt>
			<trkpt lat="-28.115162" lon="152.916559">
				<ele>73.735</ele>
				<time>2015-07-04T00:07:06Z</time>
				<extensions>
				</extensions>
			</trkpt>
			<trkpt lat="-28.115389" lon="152.916632">
				<ele>73.218</ele>
				<time>2015-07-04T00:07:07Z</time>
				<extensions>
				</extensions>
			</trkpt>
			<trkpt lat="-28.115618" lon="152.916712">
				<ele>71.097</ele>
				<time>2015-07-04T00:07:08Z</time>
				<extensions>
				</extensions>
			</trkpt>
			<trkpt lat="-28.115846" lon="152.916799">
				<ele>71.172</ele>
				<time>2015-07-04T00:07:09Z</time>
				<extensions>
				</extensions>
			</trkpt>
			<trkpt lat="-28.116075" lon="152.916867">
				<ele>71.571</ele>
				<time>2015-07-04T00:07:10Z</time>
				<extensions>
				</extensions>
			</trkpt>
			<trkpt lat="-28.116299" lon="152.916939">
				<ele>72.984</ele>
				<time>2015-07-04T00:07:11Z</time>
				<extensions>
				</extensions>
			</trkpt>
			<trkpt lat="-28.116524" lon="152.916998">
				<ele>72.833</ele>
				<time>2015-07-04T00:07:12Z</time>
				<extensions>
				</extensions>
			</trkpt>
			<trkpt lat="-28.116765" lon="152.917043">
				<ele>72.882</ele>
				<time>2015-07-04T00:07:13Z</time>
				<extensions>
				</extensions>
			</trkpt>
			<trkpt lat="-28.117009" lon="152.917090">
				<ele>74.197</ele>
				<time>2015-07-04T00:07:14Z</time>
				<extensions>
				</extensions>
			</trkpt>
			<trkpt lat="-28.117251" lon="152.917129">
				<ele>75.192</ele>
				<time>2015-07-04T00:07:15Z</time>
				<extensions>
				</extensions>
			</trkpt>
			<trkpt lat="-28.117502" lon="152.917161">
				<ele>78.600</ele>
				<time>2015-07-04T00:07:16Z</time>
				<extensions>
				</extensions>
			</trkpt>
			<trkpt lat="-28.117741" lon="152.917183">
				<ele>75.091</ele>
				<time>2015-07-04T00:07:17Z</time>
				<extensions>
				</extensions>
			</trkpt>
			<trkpt lat="-28.117988" lon="152.917192">
				<ele>74.715</ele>
				<time>2015-07-04T00:07:18Z</time>
				<extensions>
				</extensions>
			</trkpt>
			<trkpt lat="-28.118234" lon="152.917198">
				<ele>74.855</ele>
				<time>2015-07-04T00:07:19Z</time>
				<extensions>
				</extensions>
			</trkpt>
			<trkpt lat="-28.118464" lon="152.917191">
				<ele>73.957</ele>
				<time>2015-07-04T00:07:20Z</time>
				<extensions>
				</extensions>
			</trkpt>
			<trkpt lat="-28.118694" lon="152.917192">
				<ele>73.727</ele>
				<time>2015-07-04T00:07:21Z</time>
				<extensions>
				</extensions>
			</trkpt>
			<trkpt lat="-28.118925" lon="152.917183">
				<ele>75.679</ele>
				<time>2015-07-04T00:07:22Z</time>
				<extensions>
				</extensions>
			</trkpt>
			<trkpt lat="-28.119172" lon="152.917187">
				<ele>75.030</ele>
				<time>2015-07-04T00:07:23Z</time>
				<extensions>
				</extensions>
			</trkpt>
			<trkpt lat="-28.119414" lon="152.917190">
				<ele>73.922</ele>
				<time>2015-07-04T00:07:24Z</time>
				<extensions>
				</extensions>
			</trkpt>
			<trkpt lat="-28.119668" lon="152.917188">
				<ele>74.831</ele>
				<time>2015-07-04T00:07:25Z</time>
				<extensions>
				</extensions>
			</trkpt>
			<trkpt lat="-28.119914" lon="152.917188">
				<ele>74.936</ele>
				<time>2015-07-04T00:07:26Z</time>
				<extensions>
				</extensions>
			</trkpt>
			<trkpt lat="-28.120151" lon="152.917182">
				<ele>76.084</ele>
				<time>2015-07-04T00:07:27Z</time>
				<extensions>
				</extensions>
			</trkpt>
			<trkpt lat="-28.120395" lon="152.917173">
				<ele>76.023</ele>
				<time>2015-07-04T00:07:28Z</time>
				<extensions>
				</extensions>
			</trkpt>
			<trkpt lat="-28.120634" lon="152.917179">
				<ele>75.182</ele>
				<time>2015-07-04T00:07:29Z</time>
				<extensions>
				</extensions>
			</trkpt>
			<trkpt lat="-28.120871" lon="152.917178">
				<ele>75.289</ele>
				<time>2015-07-04T00:07:30Z</time>
				<extensions>
				</extensions>
			</trkpt>
			<trkpt lat="-28.121116" lon="152.917172">
				<ele>76.305</ele>
				<time>2015-07-04T00:07:31Z</time>
				<extensions>
				</extensions>
			</trkpt>
			<trkpt lat="-28.121355" lon="152.917171">
				<ele>76.777</ele>
				<time>2015-07-04T00:07:32Z</time>
				<extensions>
				</extensions>
			</trkpt>
			<trkpt lat="-28.121604" lon="152.917177">
				<ele>75.952</ele>
				<time>2015-07-04T00:07:33Z</time>
				<extensions>
				</extensions>
			</trkpt>
			<trkpt lat="-28.121846" lon="152.917167">
				<ele>75.835</ele>
				<time>2015-07-04T00:07:34Z</time>
				<extensions>
				</extensions>
			</trkpt>
			<trkpt lat="-28.122082" lon="152.917153">
				<ele>76.276</ele>
				<time>2015-07-04T00:07:35Z</time>
				<extensions>
				</extensions>
			</trkpt>
			<trkpt lat="-28.122314" lon="152.917136">
				<ele>76.782</ele>
				<time>2015-07-04T00:07:36Z</time>
				<extensions>
				</extensions>
			</trkpt>
			<trkpt lat="-28.122537" lon="152.917113">
				<ele>75.238</ele>
				<time>2015-07-04T00:07:37Z</time>
				<extensions>
				</extensions>
			</trkpt>
			<trkpt lat="-28.122766" lon="152.917081">
				<ele>76.341</ele>
				<time>2015-07-04T00:07:38Z</time>
				<extensions>
				</extensions>
			</trkpt>
			<trkpt lat="-28.122987" lon="152.917046">
				<ele>78.141</ele>
				<time>2015-07-04T00:07:39Z</time>
				<extensions>
				</extensions>
			</trkpt>
			<trkpt lat="-28.123208" lon="152.917018">
				<ele>77.810</ele>
				<time>2015-07-04T00:07:40Z</time>
				<extensions>
				</extensions>
			</trkpt>
			<trkpt lat="-28.123440" lon="152.916987">
				<ele>77.810</ele>
				<time>2015-07-04T00:07:41Z</time>
				<extensions>
				</extensions>
			</trkpt>
			<trkpt lat="-28.123661" lon="152.916969">
				<ele>76.918</ele>
				<time>2015-07-04T00:07:42Z</time>
				<extensions>
				</extensions>
			</trkpt>
			<trkpt lat="-28.123880" lon="152.916952">
				<ele>78.103</ele>
				<time>2015-07-04T00:07:43Z</time>
				<extensions>
				</extensions>
			</trkpt>
			<trkpt lat="-28.124117" lon="152.916937">
				<ele>77.578</ele>
				<time>2015-07-04T00:07:44Z</time>
				<extensions>
				</extensions>
			</trkpt>
			<trkpt lat="-28.124353" lon="152.916919">
				<ele>77.235</ele>
				<time>2015-07-04T00:07:45Z</time>
				<extensions>
				</extensions>
			</trkpt>
			<trkpt lat="-28.124588" lon="152.916904">
				<ele>77.098</ele>
				<time>2015-07-04T00:07:46Z</time>
				<extensions>
				</extensions>
			</trkpt>
			<trkpt lat="-28.124820" lon="152.916894">
				<ele>77.262</ele>
				<time>2015-07-04T00:07:47Z</time>
				<extensions>
				</extensions>
			</trkpt>
			<trkpt lat="-28.125065" lon="152.916886">
				<ele>76.496</ele>
				<time>2015-07-04T00:07:48Z</time>
				<extensions>
				</extensions>
			</trkpt>
			<trkpt lat="-28.125307" lon="152.916873">
				<ele>76.880</ele>
				<time>2015-07-04T00:07:49Z</time>
				<extensions>
				</extensions>
			</trkpt>
			<trkpt lat="-28.125554" lon="152.916859">
				<ele>76.865</ele>
				<time>2015-07-04T00:07:50Z</time>
				<extensions>
				</extensions>
			</trkpt>
			<trkpt lat="-28.125802" lon="152.916840">
				<ele>75.872</ele>
				<time>2015-07-04T00:07:51Z</time>
				<extensions>
				</extensions>
			</trkpt>
			<trkpt lat="-28.126040" lon="152.916825">
				<ele>74.154</ele>
				<time>2015-07-04T00:07:52Z</time>
				<extensions>
				</extensions>
			</trkpt>
			<trkpt lat="-28.126279" lon="152.916813">
				<ele>72.026</ele>
				<time>2015-07-04T00:07:53Z</time>
				<extensions>
				</extensions>
			</trkpt>
			<trkpt lat="-28.126524" lon="152.916797">
				<ele>70.391</ele>
				<time>2015-07-04T00:07:54Z</time>
				<extensions>
				</extensions>
			</trkpt>
			<trkpt lat="-28.126760" lon="152.916786">
				<ele>69.461</ele>
				<time>2015-07-04T00:07:55Z</time>
				<extensions>
				</extensions>
			</trkpt>
			<trkpt lat="-28.126999" lon="152.916768">
				<ele>68.973</ele>
				<time>2015-07-04T00:07:56Z</time>
				<extensions>
				</extensions>
			</trkpt>
			<trkpt lat="-28.127241" lon="152.916748">
				<ele>69.985</ele>
				<time>2015-07-04T00:07:57Z</time>
				<extensions>
				</extensions>
			</trkpt>
			<trkpt lat="-28.127483" lon="152.916730">
				<ele>68.290</ele>
				<time>2015-07-04T00:07:58Z</time>
				<extensions>
				</extensions>
			</trkpt>
			<trkpt lat="-28.127719" lon="152.916708">
				<ele>66.753</ele>
				<time>2015-07-04T00:07:59Z</time>
				<extensions>
				</extensions>
			</trkpt>
			<trkpt lat="-28.127954" lon="152.916687">
				<ele>67.613</ele>
				<time>2015-07-04T00:08:00Z</time>
				<extensions>
				</extensions>
			</trkpt>
			<trkpt lat="-28.128188" lon="152.916668">
				<ele>67.005</ele>
				<time>2015-07-04T00:08:01Z</time>
				<extensions>
				</extensions>
			</trkpt>
			<trkpt lat="-28.128426" lon="152.916647">
				<ele>67.030</ele>
				<time>2015-07-04T00:08:02Z</time>
				<extensions>
				</extensions>
			</trkpt>
			<trkpt lat="-28.128662" lon="152.916618">
				<ele>67.191</ele>
				<time>2015-07-04T00:08:03Z</time>
				<extensions>
				</extensions>
			</trkpt>
			<trkpt lat="-28.128898" lon="152.916596">
				<ele>66.930</ele>
				<time>2015-07-04T00:08:04Z</time>
				<extensions>
				</extensions>
			</trkpt>
			<trkpt lat="-28.129132" lon="152.916576">
				<ele>65.693</ele>
				<time>2015-07-04T00:08:05Z</time>
				<extensions>
				</extensions>
			</trkpt>
			<trkpt lat="-28.129369" lon="152.916553">
				<ele>65.258</ele>
				<time>2015-07-04T00:08:06Z</time>
				<extensions>
				</extensions>
			</trkpt>
			<trkpt lat="-28.129597" lon="152.916533">
				<ele>65.408</ele>
				<time>2015-07-04T00:08:07Z</time>
				<extensions>
				</extensions>
			</trkpt>
			<trkpt lat="-28.129839" lon="152.916517">
				<ele>66.398</ele>
				<time>2015-07-04T00:08:08Z</time>
				<extensions>
				</extensions>
			</trkpt>
			<trkpt lat="-28.130080" lon="152.916497">
				<ele>66.039</ele>
				<time>2015-07-04T00:08:09Z</time>
				<extensions>
				</extensions>
			</trkpt>
			<trkpt lat="-28.130319" lon="152.916474">
				<ele>68.124</ele>
				<time>2015-07-04T00:08:10Z</time>
				<extensions>
				</extensions>
			</trkpt>
			<trkpt lat="-28.130563" lon="152.916476">
				<ele>67.023</ele>
				<time>2015-07-04T00:08:11Z</time>
				<extensions>
				</extensions>
			</trkpt>
			<trkpt lat="-28.130805" lon="152.916482">
				<ele>68.237</ele>
				<time>2015-07-04T00:08:12Z</time>
				<extensions>
				</extensions>
			</trkpt>
			<trkpt lat="-28.131043" lon="152.916496">
				<ele>67.016</ele>
				<time>2015-07-04T00:08:13Z</time>
				<extensions>
				</extensions>
			</trkpt>
			<trkpt lat="-28.131282" lon="152.916520">
				<ele>68.250</ele>
				<time>2015-07-04T00:08:14Z</time>
				<extensions>
				</extensions>
			</trkpt>
			<trkpt lat="-28.131532" lon="152.916552">
				<ele>68.126</ele>
				<time>2015-07-04T00:08:15Z</time>
				<extensions>
				</extensions>
			</trkpt>
			<trkpt lat="-28.131769" lon="152.916591">
				<ele>67.898</ele>
				<time>2015-07-04T00:08:16Z</time>
				<extensions>
				</extensions>
			</trkpt>
			<trkpt lat="-28.132020" lon="152.916650">
				<ele>68.122</ele>
				<time>2015-07-04T00:08:17Z</time>
				<extensions>
				</extensions>
			</trkpt>
			<trkpt lat="-28.132260" lon="152.916732">
				<ele>68.815</ele>
				<time>2015-07-04T00:08:18Z</time>
				<extensions>
				</extensions>
			</trkpt>
			<trkpt lat="-28.132507" lon="152.916800">
				<ele>68.815</ele>
				<time>2015-07-04T00:08:19Z</time>
				<extensions>
				</extensions>
			</trkpt>
			<trkpt lat="-28.132741" lon="152.916866">
				<ele>67.521</ele>
				<time>2015-07-04T00:08:20Z</time>
				<extensions>
				</extensions>
			</trkpt>
			<trkpt lat="-28.132981" lon="152.916932">
				<ele>67.613</ele>
				<time>2015-07-04T00:08:21Z</time>
				<extensions>
				</extensions>
			</trkpt>
			<trkpt lat="-28.133214" lon="152.916989">
				<ele>67.556</ele>
				<time>2015-07-04T00:08:22Z</time>
				<extensions>
				</extensions>
			</trkpt>
			<trkpt lat="-28.133456" lon="152.917052">
				<ele>68.273</ele>
				<time>2015-07-04T00:08:23Z</time>
				<extensions>
				</extensions>
			</trkpt>
			<trkpt lat="-28.133695" lon="152.917121">
				<ele>67.814</ele>
				<time>2015-07-04T00:08:24Z</time>
				<extensions>
				</extensions>
			</trkpt>
			<trkpt lat="-28.133934" lon="152.917188">
				<ele>68.316</ele>
				<time>2015-07-04T00:08:25Z</time>
				<extensions>
				</extensions>
			</trkpt>
			<trkpt lat="-28.134164" lon="152.917257">
				<ele>69.816</ele>
				<time>2015-07-04T00:08:26Z</time>
				<extensions>
				</extensions>
			</trkpt>
			<trkpt lat="-28.134394" lon="152.917325">
				<ele>68.488</ele>
				<time>2015-07-04T00:08:27Z</time>
				<extensions>
				</extensions>
			</trkpt>
			<trkpt lat="-28.134628" lon="152.917388">
				<ele>68.009</ele>
				<time>2015-07-04T00:08:28Z</time>
				<extensions>
				</extensions>
			</trkpt>
			<trkpt lat="-28.134863" lon="152.917453">
				<ele>66.613</ele>
				<time>2015-07-04T00:08:29Z</time>
				<extensions>
				</extensions>
			</trkpt>
			<trkpt lat="-28.135086" lon="152.917515">
				<ele>66.379</ele>
				<time>2015-07-04T00:08:30Z</time>
				<extensions>
				</extensions>
			</trkpt>
			<trkpt lat="-28.135311" lon="152.917583">
				<ele>65.581</ele>
				<time>2015-07-04T00:08:31Z</time>
				<extensions>
				</extensions>
			</trkpt>
			<trkpt lat="-28.135536" lon="152.917657">
				<ele>64.406</ele>
				<time>2015-07-04T00:08:32Z</time>
				<extensions>
				</extensions>
			</trkpt>
			<trkpt lat="-28.135761" lon="152.917711">
				<ele>64.753</ele>
				<time>2015-07-04T00:08:33Z</time>
				<extensions>
				</extensions>
			</trkpt>
			<trkpt lat="-28.135977" lon="152.917773">
				<ele>64.821</ele>
				<time>2015-07-04T00:08:34Z</time>
				<extensions>
				</extensions>
			</trkpt>
			<trkpt lat="-28.136199" lon="152.917815">
				<ele>65.273</ele>
				<time>2015-07-04T00:08:35Z</time>
				<extensions>
				</extensions>
			</trkpt>
			<trkpt lat="-28.136422" lon="152.917837">
				<ele>65.075</ele>
				<time>2015-07-04T00:08:36Z</time>
				<extensions>
				</extensions>
			</trkpt>
			<trkpt lat="-28.136642" lon="152.917853">
				<ele>64.762</ele>
				<time>2015-07-04T00:08:37Z</time>
				<extensions>
				</extensions>
			</trkpt>
			<trkpt lat="-28.136866" lon="152.917850">
				<ele>64.511</ele>
				<time>2015-07-04T00:08:38Z</time>
				<extensions>
				</extensions>
			</trkpt>
			<trkpt lat="-28.137085" lon="152.917831">
				<ele>65.538</ele>
				<time>2015-07-04T00:08:39Z</time>
				<extensions>
				</extensions>
			</trkpt>
			<trkpt lat="-28.137307" lon="152.917792">
				<ele>65.164</ele>
				<time>2015-07-04T00:08:40Z</time>
				<extensions>
				</extensions>
			</trkpt>
			<trkpt lat="-28.137529" lon="152.917743">
				<ele>66.170</ele>
				<time>2015-07-04T00:08:41Z</time>
				<extensions>
				</extensions>
			</trkpt>
			<trkpt lat="-28.137758" lon="152.917687">
				<ele>67.937</ele>
				<time>2015-07-04T00:08:42Z</time>
				<extensions>
				</extensions>
			</trkpt>
			<trkpt lat="-28.137997" lon="152.917622">
				<ele>69.441</ele>
				<time>2015-07-04T00:08:43Z</time>
				<extensions>
				</extensions>
			</trkpt>
			<trkpt lat="-28.138242" lon="152.917561">
				<ele>69.441</ele>
				<time>2015-07-04T00:08:44Z</time>
				<extensions>
				</extensions>
			</trkpt>
			<trkpt lat="-28.138483" lon="152.917501">
				<ele>69.844</ele>
				<time>2015-07-04T00:08:45Z</time>
				<extensions>
				</extensions>
			</trkpt>
			<trkpt lat="-28.138715" lon="152.917434">
				<ele>70.276</ele>
				<time>2015-07-04T00:08:46Z</time>
				<extensions>
				</extensions>
			</trkpt>
			<trkpt lat="-28.138946" lon="152.917372">
				<ele>69.158</ele>
				<time>2015-07-04T00:08:47Z</time>
				<extensions>
				</extensions>
			</trkpt>
			<trkpt lat="-28.139177" lon="152.917313">
				<ele>68.959</ele>
				<time>2015-07-04T00:08:48Z</time>
				<extensions>
				</extensions>
			</trkpt>
			<trkpt lat="-28.139407" lon="152.917253">
				<ele>69.585</ele>
				<time>2015-07-04T00:08:49Z</time>
				<extensions>
				</extensions>
			</trkpt>
			<trkpt lat="-28.139641" lon="152.917187">
				<ele>69.318</ele>
				<time>2015-07-04T00:08:50Z</time>
				<extensions>
				</extensions>
			</trkpt>
			<trkpt lat="-28.139871" lon="152.917128">
				<ele>69.907</ele>
				<time>2015-07-04T00:08:51Z</time>
				<extensions>
				</extensions>
			</trkpt>
			<trkpt lat="-28.140094" lon="152.917062">
				<ele>71.060</ele>
				<time>2015-07-04T00:08:52Z</time>
				<extensions>
				</extensions>
			</trkpt>
			<trkpt lat="-28.140322" lon="152.917004">
				<ele>70.471</ele>
				<time>2015-07-04T00:08:53Z</time>
				<extensions>
				</extensions>
			</trkpt>
			<trkpt lat="-28.140555" lon="152.916934">
				<ele>69.415</ele>
				<time>2015-07-04T00:08:54Z</time>
				<extensions>
				</extensions>
			</trkpt>
			<trkpt lat="-28.140780" lon="152.916878">
				<ele>69.344</ele>
				<time>2015-07-04T00:08:55Z</time>
				<extensions>
				</extensions>
			</trkpt>
			<trkpt lat="-28.140996" lon="152.916819">
				<ele>69.849</ele>
				<time>2015-07-04T00:08:56Z</time>
				<extensions>
				</extensions>
			</trkpt>
			<trkpt lat="-28.141224" lon="152.916764">
				<ele>69.286</ele>
				<time>2015-07-04T00:08:57Z</time>
				<extensions>
				</extensions>
			</trkpt>
			<trkpt lat="-28.141451" lon="152.916707">
				<ele>71.846</ele>
				<time>2015-07-04T00:08:58Z</time>
				<extensions>
				</extensions>
			</trkpt>
			<trkpt lat="-28.141670" lon="152.916644">
				<ele>71.933</ele>
				<time>2015-07-04T00:08:59Z</time>
				<extensions>
				</extensions>
			</trkpt>
			<trkpt lat="-28.141889" lon="152.916590">
				<ele>72.045</ele>
				<time>2015-07-04T00:09:00Z</time>
				<extensions>
				</extensions>
			</trkpt>
			<trkpt lat="-28.142104" lon="152.916536">
				<ele>70.541</ele>
				<time>2015-07-04T00:09:01Z</time>
				<extensions>
				</extensions>
			</trkpt>
			<trkpt lat="-28.142320" lon="152.916474">
				<ele>70.050</ele>
				<time>2015-07-04T00:09:02Z</time>
				<extensions>
				</extensions>
			</trkpt>
			<trkpt lat="-28.142536" lon="152.916422">
				<ele>70.109</ele>
				<time>2015-07-04T00:09:03Z</time>
				<extensions>
				</extensions>
			</trkpt>
			<trkpt lat="-28.142752" lon="152.916360">
				<ele>70.900</ele>
				<time>2015-07-04T00:09:04Z</time>
				<extensions>
				</extensions>
			</trkpt>
			<trkpt lat="-28.142971" lon="152.916305">
				<ele>72.068</ele>
				<time>2015-07-04T00:09:05Z</time>
				<extensions>
				</extensions>
			</trkpt>
			<trkpt lat="-28.143191" lon="152.916249">
				<ele>72.166</ele>
				<time>2015-07-04T00:09:06Z</time>
				<extensions>
				</extensions>
			</trkpt>
			<trkpt lat="-28.143416" lon="152.916193">
				<ele>72.409</ele>
				<time>2015-07-04T00:09:07Z</time>
				<extensions>
				</extensions>
			</trkpt>
			<trkpt lat="-28.143635" lon="152.916133">
				<ele>72.025</ele>
				<time>2015-07-04T00:09:08Z</time>
				<extensions>
				</extensions>
			</trkpt>
			<trkpt lat="-28.143865" lon="152.916075">
				<ele>73.331</ele>
				<time>2015-07-04T00:09:09Z</time>
				<extensions>
				</extensions>
			</trkpt>
			<trkpt lat="-28.144090" lon="152.916009">
				<ele>74.359</ele>
				<time>2015-07-04T00:09:10Z</time>
				<extensions>
				</extensions>
			</trkpt>
			<trkpt lat="-28.144320" lon="152.915953">
				<ele>73.582</ele>
				<time>2015-07-04T00:09:11Z</time>
				<extensions>
				</extensions>
			</trkpt>
			<trkpt lat="-28.144555" lon="152.915895">
				<ele>73.097</ele>
				<time>2015-07-04T00:09:12Z</time>
				<extensions>
				</extensions>
			</trkpt>
			<trkpt lat="-28.144801" lon="152.915836">
				<ele>73.028</ele>
				<time>2015-07-04T00:09:13Z</time>
				<extensions>
				</extensions>
			</trkpt>
			<trkpt lat="-28.145042" lon="152.915777">
				<ele>75.861</ele>
				<time>2015-07-04T00:09:14Z</time>
				<extensions>
				</extensions>
			</trkpt>
			<trkpt lat="-28.145288" lon="152.915712">
				<ele>73.919</ele>
				<time>2015-07-04T00:09:15Z</time>
				<extensions>
				</extensions>
			</trkpt>
			<trkpt lat="-28.145538" lon="152.915644">
				<ele>73.993</ele>
				<time>2015-07-04T00:09:16Z</time>
				<extensions>
				</extensions>
			</trkpt>
			<trkpt lat="-28.145776" lon="152.915577">
				<ele>74.472</ele>
				<time>2015-07-04T00:09:17Z</time>
				<extensions>
				</extensions>
			</trkpt>
			<trkpt lat="-28.146018" lon="152.915515">
				<ele>75.168</ele>
				<time>2015-07-04T00:09:18Z</time>
				<extensions>
				</extensions>
			</trkpt>
			<trkpt lat="-28.146260" lon="152.915449">
				<ele>76.675</ele>
				<time>2015-07-04T00:09:19Z</time>
				<extensions>
				</extensions>
			</trkpt>
			<trkpt lat="-28.146504" lon="152.915382">
				<ele>75.079</ele>
				<time>2015-07-04T00:09:20Z</time>
				<extensions>
				</extensions>
			</trkpt>
			<trkpt lat="-28.146750" lon="152.915317">
				<ele>75.728</ele>
				<time>2015-07-04T00:09:21Z</time>
				<extensions>
				</extensions>
			</trkpt>
			<trkpt lat="-28.146997" lon="152.915251">
				<ele>77.076</ele>
				<time>2015-07-04T00:09:22Z</time>
				<extensions>
				</extensions>
			</trkpt>
			<trkpt lat="-28.147238" lon="152.915188">
				<ele>74.597</ele>
				<time>2015-07-04T00:09:23Z</time>
				<extensions>
				</extensions>
			</trkpt>
			<trkpt lat="-28.147483" lon="152.915128">
				<ele>74.038</ele>
				<time>2015-07-04T00:09:24Z</time>
				<extensions>
				</extensions>
			</trkpt>
			<trkpt lat="-28.147724" lon="152.915069">
				<ele>72.697</ele>
				<time>2015-07-04T00:09:25Z</time>
				<extensions>
				</extensions>
			</trkpt>
			<trkpt lat="-28.147963" lon="152.915006">
				<ele>73.914</ele>
				<time>2015-07-04T00:09:26Z</time>
				<extensions>
				</extensions>
			</trkpt>
			<trkpt lat="-28.148202" lon="152.914949">
				<ele>73.775</ele>
				<time>2015-07-04T00:09:27Z</time>
				<extensions>
				</extensions>
			</trkpt>
			<trkpt lat="-28.148440" lon="152.914891">
				<ele>73.610</ele>
				<time>2015-07-04T00:09:28Z</time>
				<extensions>
				</extensions>
			</trkpt>
			<trkpt lat="-28.148682" lon="152.914827">
				<ele>73.055</ele>
				<time>2015-07-04T00:09:29Z</time>
				<extensions>
				</extensions>
			</trkpt>
			<trkpt lat="-28.148910" lon="152.914763">
				<ele>72.357</ele>
				<time>2015-07-04T00:09:30Z</time>
				<extensions>
				</extensions>
			</trkpt>
			<trkpt lat="-28.149136" lon="152.914703">
				<ele>72.231</ele>
				<time>2015-07-04T00:09:31Z</time>
				<extensions>
				</extensions>
			</trkpt>
			<trkpt lat="-28.149370" lon="152.914640">
				<ele>73.146</ele>
				<time>2015-07-04T00:09:32Z</time>
				<extensions>
				</extensions>
			</trkpt>
			<trkpt lat="-28.149609" lon="152.914573">
				<ele>72.994</ele>
				<time>2015-07-04T00:09:33Z</time>
				<extensions>
				</extensions>
			</trkpt>
			<trkpt lat="-28.149842" lon="152.914517">
				<ele>73.746</ele>
				<time>2015-07-04T00:09:34Z</time>
				<extensions>
				</extensions>
			</trkpt>
			<trkpt lat="-28.150078" lon="152.914458">
				<ele>73.782</ele>
				<time>2015-07-04T00:09:35Z</time>
				<extensions>
				</extensions>
			</trkpt>
			<trkpt lat="-28.150313" lon="152.914402">
				<ele>73.690</ele>
				<time>2015-07-04T00:09:36Z</time>
				<extensions>
				</extensions>
			</trkpt>
			<trkpt lat="-28.150558" lon="152.914337">
				<ele>75.072</ele>
				<time>2015-07-04T00:09:37Z</time>
				<extensions>
				</extensions>
			</trkpt>
			<trkpt lat="-28.150797" lon="152.914270">
				<ele>76.058</ele>
				<time>2015-07-04T00:09:38Z</time>
				<extensions>
				</extensions>
			</trkpt>
			<trkpt lat="-28.151034" lon="152.914201">
				<ele>77.708</ele>
				<time>2015-07-04T00:09:39Z</time>
				<extensions>
				</extensions>
			</trkpt>
			<trkpt lat="-28.151278" lon="152.914130">
				<ele>77.135</ele>
				<time>2015-07-04T00:09:40Z</time>
				<extensions>
				</extensions>
			</trkpt>
			<trkpt lat="-28.151518" lon="152.914055">
				<ele>77.220</ele>
				<time>2015-07-04T00:09:41Z</time>
				<extensions>
				</extensions>
			</trkpt>
			<trkpt lat="-28.151755" lon="152.913962">
				<ele>77.730</ele>
				<time>2015-07-04T00:09:42Z</time>
				<extensions>
				</extensions>
			</trkpt>
			<trkpt lat="-28.151990" lon="152.913875">
				<ele>76.832</ele>
				<time>2015-07-04T00:09:43Z</time>
				<extensions>
				</extensions>
			</trkpt>
			<trkpt lat="-28.152224" lon="152.913779">
				<ele>76.776</ele>
				<time>2015-07-04T00:09:44Z</time>
				<extensions>
				</extensions>
			</trkpt>
			<trkpt lat="-28.152459" lon="152.913670">
				<ele>77.022</ele>
				<time>2015-07-04T00:09:45Z</time>
				<extensions>
				</extensions>
			</trkpt>
			<trkpt lat="-28.152696" lon="152.913557">
				<ele>77.022</ele>
				<time>2015-07-04T00:09:46Z</time>
				<extensions>
				</extensions>
			</trkpt>
			<trkpt lat="-28.152930" lon="152.913446">
				<ele>79.302</ele>
				<time>2015-07-04T00:09:47Z</time>
				<extensions>
				</extensions>
			</trkpt>
			<trkpt lat="-28.153160" lon="152.913331">
				<ele>80.766</ele>
				<time>2015-07-04T00:09:48Z</time>
				<extensions>
				</extensions>
			</trkpt>
			<trkpt lat="-28.153386" lon="152.913216">
				<ele>78.803</ele>
				<time>2015-07-04T00:09:49Z</time>
				<extensions>
				</extensions>
			</trkpt>
			<trkpt lat="-28.153613" lon="152.913089">
				<ele>77.444</ele>
				<time>2015-07-04T00:09:50Z</time>
				<extensions>
				</extensions>
			</trkpt>
			<trkpt lat="-28.153841" lon="152.912964">
				<ele>78.243</ele>
				<time>2015-07-04T00:09:51Z</time>
				<extensions>
				</extensions>
			</trkpt>
			<trkpt lat="-28.154067" lon="152.912830">
				<ele>80.122</ele>
				<time>2015-07-04T00:09:52Z</time>
				<extensions>
				</extensions>
			</trkpt>
			<trkpt lat="-28.154290" lon="152.912689">
				<ele>79.163</ele>
				<time>2015-07-04T00:09:53Z</time>
				<extensions>
				</extensions>
			</trkpt>
			<trkpt lat="-28.154497" lon="152.912550">
				<ele>78.917</ele>
				<time>2015-07-04T00:09:54Z</time>
				<extensions>
				</extensions>
			</trkpt>
			<trkpt lat="-28.154709" lon="152.912404">
				<ele>78.747</ele>
				<time>2015-07-04T00:09:55Z</time>
				<extensions>
				</extensions>
			</trkpt>
			<trkpt lat="-28.154925" lon="152.912260">
				<ele>77.253</ele>
				<time>2015-07-04T00:09:56Z</time>
				<extensions>
				</extensions>
			</trkpt>
			<trkpt lat="-28.155132" lon="152.912114">
				<ele>75.996</ele>
				<time>2015-07-04T00:09:57Z</time>
				<extensions>
				</extensions>
			</trkpt>
			<trkpt lat="-28.155349" lon="152.911977">
				<ele>77.048</ele>
				<time>2015-07-04T00:09:58Z</time>
				<extensions>
				</extensions>
			</trkpt>
			<trkpt lat="-28.155559" lon="152.911832">
				<ele>76.304</ele>
				<time>2015-07-04T00:09:59Z</time>
				<extensions>
				</extensions>
			</trkpt>
			<trkpt lat="-28.155762" lon="152.911693">
				<ele>76.476</ele>
				<time>2015-07-04T00:10:00Z</time>
				<extensions>
				</extensions>
			</trkpt>
			<trkpt lat="-28.155967" lon="152.911555">
				<ele>74.467</ele>
				<time>2015-07-04T00:10:01Z</time>
				<extensions>
				</extensions>
			</trkpt>
			<trkpt lat="-28.156174" lon="152.911419">
				<ele>73.969</ele>
				<time>2015-07-04T00:10:02Z</time>
				<extensions>
				</extensions>
			</trkpt>
			<trkpt lat="-28.156375" lon="152.911288">
				<ele>74.428</ele>
				<time>2015-07-04T00:10:03Z</time>
				<extensions>
				</extensions>
			</trkpt>
			<trkpt lat="-28.156580" lon="152.911155">
				<ele>75.745</ele>
				<time>2015-07-04T00:10:04Z</time>
				<extensions>
				</extensions>
			</trkpt>
			<trkpt lat="-28.156778" lon="152.911024">
				<ele>75.899</ele>
				<time>2015-07-04T00:10:05Z</time>
				<extensions>
				</extensions>
			</trkpt>
			<trkpt lat="-28.156975" lon="152.910886">
				<ele>76.960</ele>
				<time>2015-07-04T00:10:06Z</time>
				<extensions>
				</extensions>
			</trkpt>
			<trkpt lat="-28.157172" lon="152.910743">
				<ele>76.935</ele>
				<time>2015-07-04T00:10:07Z</time>
				<extensions>
				</extensions>
			</trkpt>
			<trkpt lat="-28.157373" lon="152.910602">
				<ele>78.335</ele>
				<time>2015-07-04T00:10:08Z</time>
				<extensions>
				</extensions>
			</trkpt>
			<trkpt lat="-28.157576" lon="152.910463">
				<ele>78.978</ele>
				<time>2015-07-04T00:10:09Z</time>
				<extensions>
				</extensions>
			</trkpt>
			<trkpt lat="-28.157781" lon="152.910328">
				<ele>77.795</ele>
				<time>2015-07-04T00:10:10Z</time>
				<extensions>
				</extensions>
			</trkpt>
			<trkpt lat="-28.157989" lon="152.910196">
				<ele>77.537</ele>
				<time>2015-07-04T00:10:11Z</time>
				<extensions>
				</extensions>
			</trkpt>
			<trkpt lat="-28.158204" lon="152.910051">
				<ele>77.242</ele>
				<time>2015-07-04T00:10:12Z</time>
				<extensions>
				</extensions>
			</trkpt>
			<trkpt lat="-28.158414" lon="152.909913">
				<ele>76.480</ele>
				<time>2015-07-04T00:10:13Z</time>
				<extensions>
				</extensions>
			</trkpt>
			<trkpt lat="-28.158617" lon="152.909777">
				<ele>76.441</ele>
				<time>2015-07-04T00:10:14Z</time>
				<extensions>
				</extensions>
			</trkpt>
			<trkpt lat="-28.158816" lon="152.909641">
				<ele>75.624</ele>
				<time>2015-07-04T00:10:15Z</time>
				<extensions>
				</extensions>
			</trkpt>
			<trkpt lat="-28.159024" lon="152.909504">
				<ele>76.048</ele>
				<time>2015-07-04T00:10:16Z</time>
				<extensions>
				</extensions>
			</trkpt>
			<trkpt lat="-28.159228" lon="152.909362">
				<ele>76.567</ele>
				<time>2015-07-04T00:10:17Z</time>
				<extensions>
				</extensions>
			</trkpt>
			<trkpt lat="-28.159439" lon="152.909201">
				<ele>75.692</ele>
				<time>2015-07-04T00:10:18Z</time>
				<extensions>
				</extensions>
			</trkpt>
			<trkpt lat="-28.159640" lon="152.909029">
				<ele>78.077</ele>
				<time>2015-07-04T00:10:19Z</time>
				<extensions>
				</extensions>
			</trkpt>
			<trkpt lat="-28.159842" lon="152.908868">
				<ele>78.984</ele>
				<time>2015-07-04T00:10:20Z</time>
				<extensions>
				</extensions>
			</trkpt>
			<trkpt lat="-28.160031" lon="152.908699">
				<ele>78.666</ele>
				<time>2015-07-04T00:10:21Z</time>
				<extensions>
				</extensions>
			</trkpt>
			<trkpt lat="-28.160225" lon="152.908537">
				<ele>76.874</ele>
				<time>2015-07-04T00:10:22Z</time>
				<extensions>
				</extensions>
			</trkpt>
			<trkpt lat="-28.160416" lon="152.908376">
				<ele>76.260</ele>
				<time>2015-07-04T00:10:23Z</time>
				<extensions>
				</extensions>
			</trkpt>
			<trkpt lat="-28.160608" lon="152.908215">
				<ele>75.910</ele>
				<time>2015-07-04T00:10:24Z</time>
				<extensions>
				</extensions>
			</trkpt>
			<trkpt lat="-28.160790" lon="152.908060">
				<ele>74.314</ele>
				<time>2015-07-04T00:10:25Z</time>
				<extensions>
				</extensions>
			</trkpt>
			<trkpt lat="-28.160976" lon="152.907904">
				<ele>75.174</ele>
				<time>2015-07-04T00:10:26Z</time>
				<extensions>
				</extensions>
			</trkpt>
			<trkpt lat="-28.161161" lon="152.907749">
				<ele>76.569</ele>
				<time>2015-07-04T00:10:27Z</time>
				<extensions>
				</extensions>
			</trkpt>
			<trkpt lat="-28.161348" lon="152.907594">
				<ele>75.813</ele>
				<time>2015-07-04T00:10:28Z</time>
				<extensions>
				</extensions>
			</trkpt>
			<trkpt lat="-28.161530" lon="152.907435">
				<ele>76.637</ele>
				<time>2015-07-04T00:10:29Z</time>
				<extensions>
				</extensions>
			</trkpt>
			<trkpt lat="-28.161715" lon="152.907271">
				<ele>77.511</ele>
				<time>2015-07-04T00:10:30Z</time>
				<extensions>
				</extensions>
			</trkpt>
			<trkpt lat="-28.161902" lon="152.907107">
				<ele>77.186</ele>
				<time>2015-07-04T00:10:31Z</time>
				<extensions>
				</extensions>
			</trkpt>
			<trkpt lat="-28.162082" lon="152.906926">
				<ele>76.402</ele>
				<time>2015-07-04T00:10:32Z</time>
				<extensions>
				</extensions>
			</trkpt>
			<trkpt lat="-28.162266" lon="152.906733">
				<ele>76.855</ele>
				<time>2015-07-04T00:10:33Z</time>
				<extensions>
				</extensions>
			</trkpt>
			<trkpt lat="-28.162444" lon="152.906529">
				<ele>79.775</ele>
				<time>2015-07-04T00:10:34Z</time>
				<extensions>
				</extensions>
			</trkpt>
			<trkpt lat="-28.162625" lon="152.906313">
				<ele>81.818</ele>
				<time>2015-07-04T00:10:35Z</time>
				<extensions>
				</extensions>
			</trkpt>
			<trkpt lat="-28.162804" lon="152.906090">
				<ele>82.425</ele>
				<time>2015-07-04T00:10:36Z</time>
				<extensions>
				</extensions>
			</trkpt>
			<trkpt lat="-28.162969" lon="152.905867">
				<ele>81.290</ele>
				<time>2015-07-04T00:10:37Z</time>
				<extensions>
				</extensions>
			</trkpt>
			<trkpt lat="-28.163132" lon="152.905648">
				<ele>79.302</ele>
				<time>2015-07-04T00:10:38Z</time>
				<extensions>
				</extensions>
			</trkpt>
			<trkpt lat="-28.163290" lon="152.905435">
				<ele>78.144</ele>
				<time>2015-07-04T00:10:39Z</time>
				<extensions>
				</extensions>
			</trkpt>
			<trkpt lat="-28.163451" lon="152.905229">
				<ele>77.249</ele>
				<time>2015-07-04T00:10:40Z</time>
				<extensions>
				</extensions>
			</trkpt>
			<trkpt lat="-28.163601" lon="152.905030">
				<ele>77.046</ele>
				<time>2015-07-04T00:10:41Z</time>
				<extensions>
				</extensions>
			</trkpt>
			<trkpt lat="-28.163749" lon="152.904827">
				<ele>77.600</ele>
				<time>2015-07-04T00:10:42Z</time>
				<extensions>
				</extensions>
			</trkpt>
			<trkpt lat="-28.163913" lon="152.904622">
				<ele>76.953</ele>
				<time>2015-07-04T00:10:43Z</time>
				<extensions>
				</extensions>
			</trkpt>
			<trkpt lat="-28.164063" lon="152.904420">
				<ele>78.027</ele>
				<time>2015-07-04T00:10:44Z</time>
				<extensions>
				</extensions>
			</trkpt>
			<trkpt lat="-28.164212" lon="152.904219">
				<ele>77.925</ele>
				<time>2015-07-04T00:10:45Z</time>
				<extensions>
				</extensions>
			</trkpt>
			<trkpt lat="-28.164368" lon="152.904012">
				<ele>77.628</ele>
				<time>2015-07-04T00:10:46Z</time>
				<extensions>
				</extensions>
			</trkpt>
			<trkpt lat="-28.164522" lon="152.903807">
				<ele>77.612</ele>
				<time>2015-07-04T00:10:47Z</time>
				<extensions>
				</extensions>
			</trkpt>
			<trkpt lat="-28.164674" lon="152.903604">
				<ele>78.721</ele>
				<time>2015-07-04T00:10:48Z</time>
				<extensions>
				</extensions>
			</trkpt>
			<trkpt lat="-28.164828" lon="152.903406">
				<ele>79.607</ele>
				<time>2015-07-04T00:10:49Z</time>
				<extensions>
				</extensions>
			</trkpt>
			<trkpt lat="-28.164982" lon="152.903197">
				<ele>79.077</ele>
				<time>2015-07-04T00:10:50Z</time>
				<extensions>
				</extensions>
			</trkpt>
			<trkpt lat="-28.165126" lon="152.902995">
				<ele>79.077</ele>
				<time>2015-07-04T00:10:51Z</time>
				<extensions>
				</extensions>
			</trkpt>
			<trkpt lat="-28.165285" lon="152.902799">
				<ele>78.830</ele>
				<time>2015-07-04T00:10:52Z</time>
				<extensions>
				</extensions>
			</trkpt>
			<trkpt lat="-28.165434" lon="152.902613">
				<ele>76.911</ele>
				<time>2015-07-04T00:10:53Z</time>
				<extensions>
				</extensions>
			</trkpt>
			<trkpt lat="-28.165591" lon="152.902417">
				<ele>76.622</ele>
				<time>2015-07-04T00:10:54Z</time>
				<extensions>
				</extensions>
			</trkpt>
			<trkpt lat="-28.165753" lon="152.902218">
				<ele>79.476</ele>
				<time>2015-07-04T00:10:55Z</time>
				<extensions>
				</extensions>
			</trkpt>
			<trkpt lat="-28.165901" lon="152.902016">
				<ele>80.939</ele>
				<time>2015-07-04T00:10:56Z</time>
				<extensions>
				</extensions>
			</trkpt>
			<trkpt lat="-28.166057" lon="152.901815">
				<ele>80.946</ele>
				<time>2015-07-04T00:10:57Z</time>
				<extensions>
				</extensions>
			</trkpt>
			<trkpt lat="-28.166210" lon="152.901620">
				<ele>80.487</ele>
				<time>2015-07-04T00:10:58Z</time>
				<extensions>
				</extensions>
			</trkpt>
			<trkpt lat="-28.166359" lon="152.901418">
				<ele>80.841</ele>
				<time>2015-07-04T00:10:59Z</time>
				<extensions>
				</extensions>
			</trkpt>
			<trkpt lat="-28.166500" lon="152.901199">
				<ele>81.894</ele>
				<time>2015-07-04T00:11:00Z</time>
				<extensions>
				</extensions>
			</trkpt>
			<trkpt lat="-28.166640" lon="152.900982">
				<ele>84.160</ele>
				<time>2015-07-04T00:11:01Z</time>
				<extensions>
				</extensions>
			</trkpt>
			<trkpt lat="-28.166754" lon="152.900738">
				<ele>87.439</ele>
				<time>2015-07-04T00:11:02Z</time>
				<extensions>
				</extensions>
			</trkpt>
			<trkpt lat="-28.166870" lon="152.900496">
				<ele>88.317</ele>
				<time>2015-07-04T00:11:03Z</time>
				<extensions>
				</extensions>
			</trkpt>
			<trkpt lat="-28.166984" lon="152.900240">
				<ele>88.364</ele>
				<time>2015-07-04T00:11:04Z</time>
				<extensions>
				</extensions>
			</trkpt>
			<trkpt lat="-28.167088" lon="152.899985">
				<ele>89.656</ele>
				<time>2015-07-04T00:11:05Z</time>
				<extensions>
				</extensions>
			</trkpt>
			<trkpt lat="-28.167177" lon="152.899734">
				<ele>90.636</ele>
				<time>2015-07-04T00:11:06Z</time>
				<extensions>
				</extensions>
			</trkpt>
			<trkpt lat="-28.167259" lon="152.899476">
				<ele>92.522</ele>
				<time>2015-07-04T00:11:07Z</time>
				<extensions>
				</extensions>
			</trkpt>
			<trkpt lat="-28.167336" lon="152.899210">
				<ele>91.697</ele>
				<time>2015-07-04T00:11:08Z</time>
				<extensions>
				</extensions>
			</trkpt>
			<trkpt lat="-28.167415" lon="152.898921">
				<ele>93.650</ele>
				<time>2015-07-04T00:11:09Z</time>
				<extensions>
				</extensions>
			</trkpt>
			<trkpt lat="-28.167493" lon="152.898631">
				<ele>96.102</ele>
				<time>2015-07-04T00:11:10Z</time>
				<extensions>
				</extensions>
			</trkpt>
			<trkpt lat="-28.167569" lon="152.898345">
				<ele>95.994</ele>
				<time>2015-07-04T00:11:11Z</time>
				<extensions>
				</extensions>
			</trkpt>
			<trkpt lat="-28.167639" lon="152.898059">
				<ele>95.604</ele>
				<time>2015-07-04T00:11:12Z</time>
				<extensions>
				</extensions>
			</trkpt>
			<trkpt lat="-28.167713" lon="152.897785">
				<ele>93.647</ele>
				<time>2015-07-04T00:11:13Z</time>
				<extensions>
				</extensions>
			</trkpt>
			<trkpt lat="-28.167788" lon="152.897504">
				<ele>92.490</ele>
				<time>2015-07-04T00:11:14Z</time>
				<extensions>
				</extensions>
			</trkpt>
			<trkpt lat="-28.167858" lon="152.897231">
				<ele>91.811</ele>
				<time>2015-07-04T00:11:15Z</time>
				<extensions>
				</extensions>
			</trkpt>
			<trkpt lat="-28.167936" lon="152.896960">
				<ele>90.691</ele>
				<time>2015-07-04T00:11:16Z</time>
				<extensions>
				</extensions>
			</trkpt>
			<trkpt lat="-28.168010" lon="152.896692">
				<ele>89.447</ele>
				<time>2015-07-04T00:11:17Z</time>
				<extensions>
				</extensions>
			</trkpt>
			<trkpt lat="-28.168084" lon="152.896416">
				<ele>88.312</ele>
				<time>2015-07-04T00:11:18Z</time>
				<extensions>
				</extensions>
			</trkpt>
			<trkpt lat="-28.168155" lon="152.896147">
				<ele>86.912</ele>
				<time>2015-07-04T00:11:19Z</time>
				<extensions>
				</extensions>
			</trkpt>
			<trkpt lat="-28.168225" lon="152.895882">
				<ele>87.222</ele>
				<time>2015-07-04T00:11:20Z</time>
				<extensions>
				</extensions>
			</trkpt>
			<trkpt lat="-28.168296" lon="152.895623">
				<ele>86.014</ele>
				<time>2015-07-04T00:11:21Z</time>
				<extensions>
				</extensions>
			</trkpt>
			<trkpt lat="-28.168361" lon="152.895379">
				<ele>86.331</ele>
				<time>2015-07-04T00:11:22Z</time>
				<extensions>
				</extensions>
			</trkpt>
			<trkpt lat="-28.168416" lon="152.895131">
				<ele>86.891</ele>
				<time>2015-07-04T00:11:23Z</time>
				<extensions>
				</extensions>
			</trkpt>
			<trkpt lat="-28.168478" lon="152.894891">
				<ele>85.014</ele>
				<time>2015-07-04T00:11:24Z</time>
				<extensions>
				</extensions>
			</trkpt>
			<trkpt lat="-28.168538" lon="152.894647">
				<ele>84.582</ele>
				<time>2015-07-04T00:11:25Z</time>
				<extensions>
				</extensions>
			</trkpt>
			<trkpt lat="-28.168607" lon="152.894398">
				<ele>85.033</ele>
				<time>2015-07-04T00:11:26Z</time>
				<extensions>
				</extensions>
			</trkpt>
			<trkpt lat="-28.168669" lon="152.894157">
				<ele>84.602</ele>
				<time>2015-07-04T00:11:27Z</time>
				<extensions>
				</extensions>
			</trkpt>
			<trkpt lat="-28.168730" lon="152.893908">
				<ele>84.875</ele>
				<time>2015-07-04T00:11:28Z</time>
				<extensions>
				</extensions>
			</trkpt>
			<trkpt lat="-28.168789" lon="152.893667">
				<ele>83.836</ele>
				<time>2015-07-04T00:11:29Z</time>
				<extensions>
				</extensions>
			</trkpt>
			<trkpt lat="-28.168858" lon="152.893419">
				<ele>83.450</ele>
				<time>2015-07-04T00:11:30Z</time>
				<extensions>
				</extensions>
			</trkpt>
			<trkpt lat="-28.168922" lon="152.893176">
				<ele>82.737</ele>
				<time>2015-07-04T00:11:31Z</time>
				<extensions>
				</extensions>
			</trkpt>
			<trkpt lat="-28.168988" lon="152.892943">
				<ele>82.596</ele>
				<time>2015-07-04T00:11:32Z</time>
				<extensions>
				</extensions>
			</trkpt>
			<trkpt lat="-28.169059" lon="152.892706">
				<ele>81.956</ele>
				<time>2015-07-04T00:11:33Z</time>
				<extensions>
				</extensions>
			</trkpt>
			<trkpt lat="-28.169114" lon="152.892468">
				<ele>81.302</ele>
				<time>2015-07-04T00:11:34Z</time>
				<extensions>
				</extensions>
			</trkpt>
			<trkpt lat="-28.169180" lon="152.892231">
				<ele>81.355</ele>
				<time>2015-07-04T00:11:35Z</time>
				<extensions>
				</extensions>
			</trkpt>
			<trkpt lat="-28.169252" lon="152.891999">
				<ele>80.131</ele>
				<time>2015-07-04T00:11:36Z</time>
				<extensions>
				</extensions>
			</trkpt>
			<trkpt lat="-28.169326" lon="152.891761">
				<ele>79.829</ele>
				<time>2015-07-04T00:11:37Z</time>
				<extensions>
				</extensions>
			</trkpt>
			<trkpt lat="-28.169413" lon="152.891504">
				<ele>81.103</ele>
				<time>2015-07-04T00:11:38Z</time>
				<extensions>
				</extensions>
			</trkpt>
			<trkpt lat="-28.169504" lon="152.891258">
				<ele>82.178</ele>
				<time>2015-07-04T00:11:39Z</time>
				<extensions>
				</extensions>
			</trkpt>
			<trkpt lat="-28.169601" lon="152.891015">
				<ele>82.798</ele>
				<time>2015-07-04T00:11:40Z</time>
				<extensions>
				</extensions>
			</trkpt>
			<trkpt lat="-28.169744" lon="152.890786">
				<ele>83.864</ele>
				<time>2015-07-04T00:11:41Z</time>
				<extensions>
				</extensions>
			</trkpt>
			<trkpt lat="-28.169868" lon="152.890558">
				<ele>84.302</ele>
				<time>2015-07-04T00:11:42Z</time>
				<extensions>
				</extensions>
			</trkpt>
			<trkpt lat="-28.170010" lon="152.890335">
				<ele>85.010</ele>
				<time>2015-07-04T00:11:43Z</time>
				<extensions>
				</extensions>
			</trkpt>
			<trkpt lat="-28.170141" lon="152.890095">
				<ele>86.306</ele>
				<time>2015-07-04T00:11:44Z</time>
				<extensions>
				</extensions>
			</trkpt>
			<trkpt lat="-28.170319" lon="152.889869">
				<ele>88.220</ele>
				<time>2015-07-04T00:11:45Z</time>
				<extensions>
				</extensions>
			</trkpt>
			<trkpt lat="-28.170499" lon="152.889645">
				<ele>89.651</ele>
				<time>2015-07-04T00:11:46Z</time>
				<extensions>
				</extensions>
			</trkpt>
			<trkpt lat="-28.170684" lon="152.889425">
				<ele>90.953</ele>
				<time>2015-07-04T00:11:47Z</time>
				<extensions>
				</extensions>
			</trkpt>
			<trkpt lat="-28.170863" lon="152.889208">
				<ele>89.517</ele>
				<time>2015-07-04T00:11:48Z</time>
				<extensions>
				</extensions>
			</trkpt>
			<trkpt lat="-28.171029" lon="152.888995">
				<ele>90.323</ele>
				<time>2015-07-04T00:11:49Z</time>
				<extensions>
				</extensions>
			</trkpt>
			<trkpt lat="-28.171208" lon="152.888788">
				<ele>91.345</ele>
				<time>2015-07-04T00:11:50Z</time>
				<extensions>
				</extensions>
			</trkpt>
			<trkpt lat="-28.171383" lon="152.888578">
				<ele>92.458</ele>
				<time>2015-07-04T00:11:51Z</time>
				<extensions>
				</extensions>
			</trkpt>
			<trkpt lat="-28.171539" lon="152.888375">
				<ele>92.458</ele>
				<time>2015-07-04T00:11:52Z</time>
				<extensions>
				</extensions>
			</trkpt>
			<trkpt lat="-28.171701" lon="152.888174">
				<ele>93.071</ele>
				<time>2015-07-04T00:11:53Z</time>
				<extensions>
				</extensions>
			</trkpt>
			<trkpt lat="-28.171867" lon="152.887977">
				<ele>92.865</ele>
				<time>2015-07-04T00:11:54Z</time>
				<extensions>
				</extensions>
			</trkpt>
			<trkpt lat="-28.172025" lon="152.887791">
				<ele>93.632</ele>
				<time>2015-07-04T00:11:55Z</time>
				<extensions>
				</extensions>
			</trkpt>
			<trkpt lat="-28.172183" lon="152.887592">
				<ele>93.928</ele>
				<time>2015-07-04T00:11:56Z</time>
				<extensions>
				</extensions>
			</trkpt>
			<trkpt lat="-28.172342" lon="152.887393">
				<ele>96.411</ele>
				<time>2015-07-04T00:11:57Z</time>
				<extensions>
				</extensions>
			</trkpt>
			<trkpt lat="-28.172500" lon="152.887202">
				<ele>98.323</ele>
				<time>2015-07-04T00:11:58Z</time>
				<extensions>
				</extensions>
			</trkpt>
			<trkpt lat="-28.172665" lon="152.886999">
				<ele>100.837</ele>
				<time>2015-07-04T00:11:59Z</time>
				<extensions>
				</extensions>
			</trkpt>
			<trkpt lat="-28.172824" lon="152.886797">
				<ele>101.283</ele>
				<time>2015-07-04T00:12:00Z</time>
				<extensions>
				</extensions>
			</trkpt>
			<trkpt lat="-28.172986" lon="152.886592">
				<ele>101.698</ele>
				<time>2015-07-04T00:12:01Z</time>
				<extensions>
				</extensions>
			</trkpt>
			<trkpt lat="-28.173153" lon="152.886378">
				<ele>102.024</ele>
				<time>2015-07-04T00:12:02Z</time>
				<extensions>
				</extensions>
			</trkpt>
			<trkpt lat="-28.173316" lon="152.886183">
				<ele>99.613</ele>
				<time>2015-07-04T00:12:03Z</time>
				<extensions>
				</extensions>
			</trkpt>
			<trkpt lat="-28.173485" lon="152.885994">
				<ele>99.073</ele>
				<time>2015-07-04T00:12:04Z</time>
				<extensions>
				</extensions>
			</trkpt>
			<trkpt lat="-28.173652" lon="152.885811">
				<ele>96.924</ele>
				<time>2015-07-04T00:12:05Z</time>
				<extensions>
				</extensions>
			</trkpt>
			<trkpt lat="-28.173834" lon="152.885631">
				<ele>96.630</ele>
				<time>2015-07-04T00:12:06Z</time>
				<extensions>
				</extensions>
			</trkpt>
			<trkpt lat="-28.174028" lon="152.885460">
				<ele>97.445</ele>
				<time>2015-07-04T00:12:07Z</time>
				<extensions>
				</extensions>
			</trkpt>
			<trkpt lat="-28.174229" lon="152.885300">
				<ele>95.874</ele>
				<time>2015-07-04T00:12:08Z</time>
				<extensions>
				</extensions>
			</trkpt>
			<trkpt lat="-28.174426" lon="152.885158">
				<ele>94.955</ele>
				<time>2015-07-04T00:12:09Z</time>
				<extensions>
				</extensions>
			</trkpt>
			<trkpt lat="-28.174630" lon="152.885027">
				<ele>93.131</ele>
				<time>2015-07-04T00:12:10Z</time>
				<extensions>
				</extensions>
			</trkpt>
			<trkpt lat="-28.174843" lon="152.884907">
				<ele>92.974</ele>
				<time>2015-07-04T00:12:11Z</time>
				<extensions>
				</extensions>
			</trkpt>
			<trkpt lat="-28.175065" lon="152.884790">
				<ele>92.707</ele>
				<time>2015-07-04T00:12:12Z</time>
				<extensions>
				</extensions>
			</trkpt>
			<trkpt lat="-28.175304" lon="152.884676">
				<ele>92.549</ele>
				<time>2015-07-04T00:12:13Z</time>
				<extensions>
				</extensions>
			</trkpt>
			<trkpt lat="-28.175540" lon="152.884581">
				<ele>92.168</ele>
				<time>2015-07-04T00:12:14Z</time>
				<extensions>
				</extensions>
			</trkpt>
			<trkpt lat="-28.175785" lon="152.884482">
				<ele>91.249</ele>
				<time>2015-07-04T00:12:15Z</time>
				<extensions>
				</extensions>
			</trkpt>
			<trkpt lat="-28.176026" lon="152.884392">
				<ele>90.825</ele>
				<time>2015-07-04T00:12:16Z</time>
				<extensions>
				</extensions>
			</trkpt>
			<trkpt lat="-28.176257" lon="152.884298">
				<ele>90.951</ele>
				<time>2015-07-04T00:12:17Z</time>
				<extensions>
				</extensions>
			</trkpt>
			<trkpt lat="-28.176487" lon="152.884209">
				<ele>89.655</ele>
				<time>2015-07-04T00:12:18Z</time>
				<extensions>
				</extensions>
			</trkpt>
			<trkpt lat="-28.176719" lon="152.884111">
				<ele>88.744</ele>
				<time>2015-07-04T00:12:19Z</time>
				<extensions>
				</extensions>
			</trkpt>
			<trkpt lat="-28.176945" lon="152.884005">
				<ele>89.983</ele>
				<time>2015-07-04T00:12:20Z</time>
				<extensions>
				</extensions>
			</trkpt>
			<trkpt lat="-28.177168" lon="152.883898">
				<ele>90.048</ele>
				<time>2015-07-04T00:12:21Z</time>
				<extensions>
				</extensions>
			</trkpt>
			<trkpt lat="-28.177380" lon="152.883779">
				<ele>89.421</ele>
				<time>2015-07-04T00:12:22Z</time>
				<extensions>
				</extensions>
			</trkpt>
			<trkpt lat="-28.177591" lon="152.883644">
				<ele>89.354</ele>
				<time>2015-07-04T00:12:23Z</time>
				<extensions>
				</extensions>
			</trkpt>
			<trkpt lat="-28.177788" lon="152.883498">
				<ele>88.940</ele>
				<time>2015-07-04T00:12:24Z</time>
				<extensions>
				</extensions>
			</trkpt>
			<trkpt lat="-28.177992" lon="152.883345">
				<ele>89.668</ele>
				<time>2015-07-04T00:12:25Z</time>
				<extensions>
				</extensions>
			</trkpt>
			<trkpt lat="-28.178179" lon="152.883179">
				<ele>92.024</ele>
				<time>2015-07-04T00:12:26Z</time>
				<extensions>
				</extensions>
			</trkpt>
			<trkpt lat="-28.178362" lon="152.883006">
				<ele>93.520</ele>
				<time>2015-07-04T00:12:27Z</time>
				<extensions>
				</extensions>
			</trkpt>
			<trkpt lat="-28.178541" lon="152.882823">
				<ele>93.563</ele>
				<time>2015-07-04T00:12:28Z</time>
				<extensions>
				</extensions>
			</trkpt>
			<trkpt lat="-28.178711" lon="152.882645">
				<ele>94.511</ele>
				<time>2015-07-04T00:12:29Z</time>
				<extensions>
				</extensions>
			</trkpt>
			<trkpt lat="-28.178882" lon="152.882473">
				<ele>93.901</ele>
				<time>2015-07-04T00:12:30Z</time>
				<extensions>
				</extensions>
			</trkpt>
			<trkpt lat="-28.179054" lon="152.882303">
				<ele>93.320</ele>
				<time>2015-07-04T00:12:31Z</time>
				<extensions>
				</extensions>
			</trkpt>
			<trkpt lat="-28.179219" lon="152.882133">
				<ele>93.062</ele>
				<time>2015-07-04T00:12:32Z</time>
				<extensions>
				</extensions>
			</trkpt>
			<trkpt lat="-28.179373" lon="152.881953">
				<ele>94.221</ele>
				<time>2015-07-04T00:12:33Z</time>
				<extensions>
				</extensions>
			</trkpt>
			<trkpt lat="-28.179551" lon="152.881767">
				<ele>94.623</ele>
				<time>2015-07-04T00:12:34Z</time>
				<extensions>
				</extensions>
			</trkpt>
			<trkpt lat="-28.179713" lon="152.881577">
				<ele>97.587</ele>
				<time>2015-07-04T00:12:35Z</time>
				<extensions>
				</extensions>
			</trkpt>
			<trkpt lat="-28.179869" lon="152.881383">
				<ele>100.671</ele>
				<time>2015-07-04T00:12:36Z</time>
				<extensions>
				</extensions>
			</trkpt>
			<trkpt lat="-28.180020" lon="152.881184">
				<ele>101.375</ele>
				<time>2015-07-04T00:12:37Z</time>
				<extensions>
				</extensions>
			</trkpt>
			<trkpt lat="-28.180168" lon="152.880984">
				<ele>101.946</ele>
				<time>2015-07-04T00:12:38Z</time>
				<extensions>
				</extensions>
			</trkpt>
			<trkpt lat="-28.180311" lon="152.880775">
				<ele>103.415</ele>
				<time>2015-07-04T00:12:39Z</time>
				<extensions>
				</extensions>
			</trkpt>
			<trkpt lat="-28.180439" lon="152.880558">
				<ele>103.309</ele>
				<time>2015-07-04T00:12:40Z</time>
				<extensions>
				</extensions>
			</trkpt>
			<trkpt lat="-28.180577" lon="152.880339">
				<ele>104.034</ele>
				<time>2015-07-04T00:12:41Z</time>
				<extensions>
				</extensions>
			</trkpt>
			<trkpt lat="-28.180713" lon="152.880121">
				<ele>103.370</ele>
				<time>2015-07-04T00:12:42Z</time>
				<extensions>
				</extensions>
			</trkpt>
			<trkpt lat="-28.180850" lon="152.879913">
				<ele>102.472</ele>
				<time>2015-07-04T00:12:43Z</time>
				<extensions>
				</extensions>
			</trkpt>
			<trkpt lat="-28.180990" lon="152.879705">
				<ele>102.085</ele>
				<time>2015-07-04T00:12:44Z</time>
				<extensions>
				</extensions>
			</trkpt>
			<trkpt lat="-28.181123" lon="152.879507">
				<ele>102.159</ele>
				<time>2015-07-04T00:12:45Z</time>
				<extensions>
				</extensions>
			</trkpt>
			<trkpt lat="-28.181248" lon="152.879304">
				<ele>103.325</ele>
				<time>2015-07-04T00:12:46Z</time>
				<extensions>
				</extensions>
			</trkpt>
			<trkpt lat="-28.181382" lon="152.879105">
				<ele>103.134</ele>
				<time>2015-07-04T00:12:47Z</time>
				<extensions>
				</extensions>
			</trkpt>
			<trkpt lat="-28.181518" lon="152.878913">
				<ele>106.794</ele>
				<time>2015-07-04T00:12:48Z</time>
				<extensions>
				</extensions>
			</trkpt>
			<trkpt lat="-28.181658" lon="152.878736">
				<ele>107.148</ele>
				<time>2015-07-04T00:12:49Z</time>
				<extensions>
				</extensions>
			</trkpt>
			<trkpt lat="-28.181792" lon="152.878556">
				<ele>107.973</ele>
				<time>2015-07-04T00:12:50Z</time>
				<extensions>
				</extensions>
			</trkpt>
			<trkpt lat="-28.181952" lon="152.878401">
				<ele>109.781</ele>
				<time>2015-07-04T00:12:51Z</time>
				<extensions>
				</extensions>
			</trkpt>
			<trkpt lat="-28.182112" lon="152.878246">
				<ele>109.710</ele>
				<time>2015-07-04T00:12:52Z</time>
				<extensions>
				</extensions>
			</trkpt>
			<trkpt lat="-28.182281" lon="152.878111">
				<ele>110.036</ele>
				<time>2015-07-04T00:12:53Z</time>
				<extensions>
				</extensions>
			</trkpt>
			<trkpt lat="-28.182478" lon="152.878009">
				<ele>110.548</ele>
				<time>2015-07-04T00:12:54Z</time>
				<extensions>
				</extensions>
			</trkpt>
			<trkpt lat="-28.182661" lon="152.877915">
				<ele>111.423</ele>
				<time>2015-07-04T00:12:55Z</time>
				<extensions>
				</extensions>
			</trkpt>
			<trkpt lat="-28.182864" lon="152.877830">
				<ele>111.091</ele>
				<time>2015-07-04T00:12:56Z</time>
				<extensions>
				</extensions>
			</trkpt>
			<trkpt lat="-28.183080" lon="152.877755">
				<ele>111.091</ele>
				<time>2015-07-04T00:12:57Z</time>
				<extensions>
				</extensions>
			</trkpt>
			<trkpt lat="-28.183307" lon="152.877691">
				<ele>111.671</ele>
				<time>2015-07-04T00:12:58Z</time>
				<extensions>
				</extensions>
			</trkpt>
			<trkpt lat="-28.183535" lon="152.877629">
				<ele>112.565</ele>
				<time>2015-07-04T00:12:59Z</time>
				<extensions>
				</extensions>
			</trkpt>
			<trkpt lat="-28.183772" lon="152.877582">
				<ele>113.907</ele>
				<time>2015-07-04T00:13:00Z</time>
				<extensions>
				</extensions>
			</trkpt>
			<trkpt lat="-28.184013" lon="152.877539">
				<ele>114.088</ele>
				<time>2015-07-04T00:13:01Z</time>
				<extensions>
				</extensions>
			</trkpt>
			<trkpt lat="-28.184253" lon="152.877488">
				<ele>112.160</ele>
				<time>2015-07-04T00:13:02Z</time>
				<extensions>
				</extensions>
			</trkpt>
			<trkpt lat="-28.184495" lon="152.877440">
				<ele>111.811</ele>
				<time>2015-07-04T00:13:03Z</time>
				<extensions>
				</extensions>
			</trkpt>
			<trkpt lat="-28.184741" lon="152.877401">
				<ele>110.709</ele>
				<time>2015-07-04T00:13:04Z</time>
				<extensions>
				</extensions>
			</trkpt>
			<trkpt lat="-28.184976" lon="152.877353">
				<ele>110.285</ele>
				<time>2015-07-04T00:13:05Z</time>
				<extensions>
				</extensions>
			</trkpt>
			<trkpt lat="-28.185205" lon="152.877308">
				<ele>108.283</ele>
				<time>2015-07-04T00:13:06Z</time>
				<extensions>
				</extensions>
			</trkpt>
			<trkpt lat="-28.185438" lon="152.877256">
				<ele>108.391</ele>
				<time>2015-07-04T00:13:07Z</time>
				<extensions>
				</extensions>
			</trkpt>
			<trkpt lat="-28.185679" lon="152.877202">
				<ele>107.185</ele>
				<time>2015-07-04T00:13:08Z</time>
				<extensions>
				</extensions>
			</trkpt>
			<trkpt lat="-28.185916" lon="152.877166">
				<ele>105.956</ele>
				<time>2015-07-04T00:13:09Z</time>
				<extensions>
				</extensions>
			</trkpt>
			<trkpt lat="-28.186137" lon="152.877121">
				<ele>104.031</ele>
				<time>2015-07-04T00:13:10Z</time>
				<extensions>
				</extensions>
			</trkpt>
			<trkpt lat="-28.186366" lon="152.877083">
				<ele>102.700</ele>
				<time>2015-07-04T00:13:11Z</time>
				<extensions>
				</extensions>
			</trkpt>
			<trkpt lat="-28.186588" lon="152.877046">
				<ele>100.614</ele>
				<time>2015-07-04T00:13:12Z</time>
				<extensions>
				</extensions>
			</trkpt>
			<trkpt lat="-28.186805" lon="152.877010">
				<ele>99.354</ele>
				<time>2015-07-04T00:13:13Z</time>
				<extensions>
				</extensions>
			</trkpt>
			<trkpt lat="-28.187020" lon="152.876972">
				<ele>99.020</ele>
				<time>2015-07-04T00:13:14Z</time>
				<extensions>
				</extensions>
			</trkpt>
			<trkpt lat="-28.187238" lon="152.876936">
				<ele>97.449</ele>
				<time>2015-07-04T00:13:15Z</time>
				<extensions>
				</extensions>
			</trkpt>
			<trkpt lat="-28.187461" lon="152.876898">
				<ele>97.118</ele>
				<time>2015-07-04T00:13:16Z</time>
				<extensions>
				</extensions>
			</trkpt>
			<trkpt lat="-28.187691" lon="152.876858">
				<ele>97.725</ele>
				<time>2015-07-04T00:13:17Z</time>
				<extensions>
				</extensions>
			</trkpt>
			<trkpt lat="-28.187913" lon="152.876820">
				<ele>96.981</ele>
				<time>2015-07-04T00:13:18Z</time>
				<extensions>
				</extensions>
			</trkpt>
			<trkpt lat="-28.188143" lon="152.876780">
				<ele>95.841</ele>
				<time>2015-07-04T00:13:19Z</time>
				<extensions>
				</extensions>
			</trkpt>
			<trkpt lat="-28.188367" lon="152.876743">
				<ele>95.040</ele>
				<time>2015-07-04T00:13:20Z</time>
				<extensions>
				</extensions>
			</trkpt>
			<trkpt lat="-28.188605" lon="152.876704">
				<ele>93.099</ele>
				<time>2015-07-04T00:13:21Z</time>
				<extensions>
				</extensions>
			</trkpt>
			<trkpt lat="-28.188831" lon="152.876648">
				<ele>91.166</ele>
				<time>2015-07-04T00:13:22Z</time>
				<extensions>
				</extensions>
			</trkpt>
			<trkpt lat="-28.189060" lon="152.876584">
				<ele>90.637</ele>
				<time>2015-07-04T00:13:23Z</time>
				<extensions>
				</extensions>
			</trkpt>
			<trkpt lat="-28.189292" lon="152.876510">
				<ele>90.395</ele>
				<time>2015-07-04T00:13:24Z</time>
				<extensions>
				</extensions>
			</trkpt>
			<trkpt lat="-28.189521" lon="152.876414">
				<ele>90.920</ele>
				<time>2015-07-04T00:13:25Z</time>
				<extensions>
				</extensions>
			</trkpt>
			<trkpt lat="-28.189747" lon="152.876320">
				<ele>90.874</ele>
				<time>2015-07-04T00:13:26Z</time>
				<extensions>
				</extensions>
			</trkpt>
			<trkpt lat="-28.189960" lon="152.876211">
				<ele>90.313</ele>
				<time>2015-07-04T00:13:27Z</time>
				<extensions>
				</extensions>
			</trkpt>
			<trkpt lat="-28.190167" lon="152.876100">
				<ele>90.004</ele>
				<time>2015-07-04T00:13:28Z</time>
				<extensions>
				</extensions>
			</trkpt>
			<trkpt lat="-28.190363" lon="152.875986">
				<ele>90.031</ele>
				<time>2015-07-04T00:13:29Z</time>
				<extensions>
				</extensions>
			</trkpt>
			<trkpt lat="-28.190564" lon="152.875868">
				<ele>90.906</ele>
				<time>2015-07-04T00:13:30Z</time>
				<extensions>
				</extensions>
			</trkpt>
			<trkpt lat="-28.190771" lon="152.875746">
				<ele>91.093</ele>
				<time>2015-07-04T00:13:31Z</time>
				<extensions>
				</extensions>
			</trkpt>
			<trkpt lat="-28.190961" lon="152.875620">
				<ele>90.893</ele>
				<time>2015-07-04T00:13:32Z</time>
				<extensions>
				</extensions>
			</trkpt>
			<trkpt lat="-28.191167" lon="152.875494">
				<ele>90.817</ele>
				<time>2015-07-04T00:13:33Z</time>
				<extensions>
				</extensions>
			</trkpt>
			<trkpt lat="-28.191385" lon="152.875381">
				<ele>92.317</ele>
				<time>2015-07-04T00:13:34Z</time>
				<extensions>
				</extensions>
			</trkpt>
			<trkpt lat="-28.191613" lon="152.875261">
				<ele>92.807</ele>
				<time>2015-07-04T00:13:35Z</time>
				<extensions>
				</extensions>
			</trkpt>
			<trkpt lat="-28.191845" lon="152.875158">
				<ele>95.010</ele>
				<time>2015-07-04T00:13:36Z</time>
				<extensions>
				</extensions>
			</trkpt>
			<trkpt lat="-28.192074" lon="152.875049">
				<ele>93.695</ele>
				<time>2015-07-04T00:13:37Z</time>
				<extensions>
				</extensions>
			</trkpt>
			<trkpt lat="-28.192307" lon="152.874946">
				<ele>92.576</ele>
				<time>2015-07-04T00:13:38Z</time>
				<extensions>
				</extensions>
			</trkpt>
			<trkpt lat="-28.192543" lon="152.874853">
				<ele>95.463</ele>
				<time>2015-07-04T00:13:39Z</time>
				<extensions>
				</extensions>
			</trkpt>
			<trkpt lat="-28.192783" lon="152.874755">
				<ele>95.930</ele>
				<time>2015-07-04T00:13:40Z</time>
				<extensions>
				</extensions>
			</trkpt>
			<trkpt lat="-28.193027" lon="152.874658">
				<ele>94.233</ele>
				<time>2015-07-04T00:13:41Z</time>
				<extensions>
				</extensions>
			</trkpt>
			<trkpt lat="-28.193268" lon="152.874562">
				<ele>91.997</ele>
				<time>2015-07-04T00:13:42Z</time>
				<extensions>
				</extensions>
			</trkpt>
			<trkpt lat="-28.193495" lon="152.874468">
				<ele>92.335</ele>
				<time>2015-07-04T00:13:43Z</time>
				<extensions>
				</extensions>
			</trkpt>
			<trkpt lat="-28.193721" lon="152.874374">
				<ele>92.203</ele>
				<time>2015-07-04T00:13:44Z</time>
				<extensions>
				</extensions>
			</trkpt>
			<trkpt lat="-28.193929" lon="152.874277">
				<ele>92.972</ele>
				<time>2015-07-04T00:13:45Z</time>
				<extensions>
				</extensions>
			</trkpt>
			<trkpt lat="-28.194142" lon="152.874187">
				<ele>94.209</ele>
				<time>2015-07-04T00:13:46Z</time>
				<extensions>
				</extensions>
			</trkpt>
			<trkpt lat="-28.194365" lon="152.874093">
				<ele>95.422</ele>
				<time>2015-07-04T00:13:47Z</time>
				<extensions>
				</extensions>
			</trkpt>
			<trkpt lat="-28.194585" lon="152.873979">
				<ele>99.143</ele>
				<time>2015-07-04T00:13:48Z</time>
				<extensions>
				</extensions>
			</trkpt>
			<trkpt lat="-28.194818" lon="152.873858">
				<ele>101.145</ele>
				<time>2015-07-04T00:13:49Z</time>
				<extensions>
				</extensions>
			</trkpt>
			<trkpt lat="-28.195050" lon="152.873733">
				<ele>106.668</ele>
				<time>2015-07-04T00:13:50Z</time>
				<extensions>
				</extensions>
			</trkpt>
			<trkpt lat="-28.195275" lon="152.873575">
				<ele>108.593</ele>
				<time>2015-07-04T00:13:51Z</time>
				<extensions>
				</extensions>
			</trkpt>
			<trkpt lat="-28.195500" lon="152.873405">
				<ele>108.302</ele>
				<time>2015-07-04T00:13:52Z</time>
				<extensions>
				</extensions>
			</trkpt>
			<trkpt lat="-28.195719" lon="152.873236">
				<ele>109.222</ele>
				<time>2015-07-04T00:13:53Z</time>
				<extensions>
				</extensions>
			</trkpt>
			<trkpt lat="-28.195924" lon="152.873071">
				<ele>107.586</ele>
				<time>2015-07-04T00:13:54Z</time>
				<extensions>
				</extensions>
			</trkpt>
			<trkpt lat="-28.196119" lon="152.872909">
				<ele>108.673</ele>
				<time>2015-07-04T00:13:55Z</time>
				<extensions>
				</extensions>
			</trkpt>
			<trkpt lat="-28.196315" lon="152.872766">
				<ele>109.468</ele>
				<time>2015-07-04T00:13:56Z</time>
				<extensions>
				</extensions>
			</trkpt>
			<trkpt lat="-28.196501" lon="152.872615">
				<ele>111.255</ele>
				<time>2015-07-04T00:13:57Z</time>
				<extensions>
				</extensions>
			</trkpt>
			<trkpt lat="-28.196680" lon="152.872463">
				<ele>111.387</ele>
				<time>2015-07-04T00:13:58Z</time>
				<extensions>
				</extensions>
			</trkpt>
			<trkpt lat="-28.196849" lon="152.872323">
				<ele>111.387</ele>
				<time>2015-07-04T00:13:59Z</time>
				<extensions>
				</extensions>
			</trkpt>
			<trkpt lat="-28.197019" lon="152.872182">
				<ele>111.139</ele>
				<time>2015-07-04T00:14:00Z</time>
				<extensions>
				</extensions>
			</trkpt>
			<trkpt lat="-28.197182" lon="152.872036">
				<ele>111.326</ele>
				<time>2015-07-04T00:14:01Z</time>
				<extensions>
				</extensions>
			</trkpt>
			<trkpt lat="-28.197354" lon="152.871905">
				<ele>110.812</ele>
				<time>2015-07-04T00:14:02Z</time>
				<extensions>
				</extensions>
			</trkpt>
			<trkpt lat="-28.197521" lon="152.871760">
				<ele>111.698</ele>
				<time>2015-07-04T00:14:03Z</time>
				<extensions>
				</extensions>
			</trkpt>
			<trkpt lat="-28.197691" lon="152.871609">
				<ele>111.222</ele>
				<time>2015-07-04T00:14:04Z</time>
				<extensions>
				</extensions>
			</trkpt>
			<trkpt lat="-28.197878" lon="152.871460">
				<ele>111.161</ele>
				<time>2015-07-04T00:14:05Z</time>
				<extensions>
				</extensions>
			</trkpt>
			<trkpt lat="-28.198064" lon="152.871317">
				<ele>110.748</ele>
				<time>2015-07-04T00:14:06Z</time>
				<extensions>
				</extensions>
			</trkpt>
			<trkpt lat="-28.198268" lon="152.871186">
				<ele>109.024</ele>
				<time>2015-07-04T00:14:07Z</time>
				<extensions>
				</extensions>
			</trkpt>
			<trkpt lat="-28.198476" lon="152.871067">
				<ele>108.754</ele>
				<time>2015-07-04T00:14:08Z</time>
				<extensions>
				</extensions>
			</trkpt>
			<trkpt lat="-28.198696" lon="152.870962">
				<ele>108.016</ele>
				<time>2015-07-04T00:14:09Z</time>
				<extensions>
				</extensions>
			</trkpt>
			<trkpt lat="-28.198914" lon="152.870873">
				<ele>111.064</ele>
				<time>2015-07-04T00:14:10Z</time>
				<extensions>
				</extensions>
			</trkpt>
			<trkpt lat="-28.199125" lon="152.870777">
				<ele>112.458</ele>
				<time>2015-07-04T00:14:11Z</time>
				<extensions>
				</extensions>
			</trkpt>
			<trkpt lat="-28.199346" lon="152.870689">
				<ele>113.880</ele>
				<time>2015-07-04T00:14:12Z</time>
				<extensions>
				</extensions>
			</trkpt>
			<trkpt lat="-28.199538" lon="152.870606">
				<ele>113.845</ele>
				<time>2015-07-04T00:14:13Z</time>
				<extensions>
				</extensions>
			</trkpt>
			<trkpt lat="-28.199732" lon="152.870516">
				<ele>115.314</ele>
				<time>2015-07-04T00:14:14Z</time>
				<extensions>
				</extensions>
			</trkpt>
			<trkpt lat="-28.199923" lon="152.870439">
				<ele>117.119</ele>
				<time>2015-07-04T00:14:15Z</time>
				<extensions>
				</extensions>
			</trkpt>
			<trkpt lat="-28.200110" lon="152.870352">
				<ele>117.275</ele>
				<time>2015-07-04T00:14:16Z</time>
				<extensions>
				</extensions>
			</trkpt>
			<trkpt lat="-28.200283" lon="152.870267">
				<ele>115.847</ele>
				<time>2015-07-04T00:14:17Z</time>
				<extensions>
				</extensions>
			</trkpt>
			<trkpt lat="-28.200447" lon="152.870176">
				<ele>115.157</ele>
				<time>2015-07-04T00:14:18Z</time>
				<extensions>
				</extensions>
			</trkpt>
			<trkpt lat="-28.200727" lon="152.869954">
				<ele>114.211</ele>
				<time>2015-07-04T00:14:20Z</time>
				<extensions>
				</extensions>
			</trkpt>
			<trkpt lat="-28.200956" lon="152.869687">
				<ele>112.415</ele>
				<time>2015-07-04T00:14:22Z</time>
				<extensions>
				</extensions>
			</trkpt>
			<trkpt lat="-28.201176" lon="152.869358">
				<ele>111.202</ele>
				<time>2015-07-04T00:14:24Z</time>
				<extensions>
				</extensions>
			</trkpt>
			<trkpt lat="-28.201332" lon="152.868980">
				<ele>110.277</ele>
				<time>2015-07-04T00:14:26Z</time>
				<extensions>
				</extensions>
			</trkpt>
			<trkpt lat="-28.201397" lon="152.868773">
				<ele>109.479</ele>
				<time>2015-07-04T00:14:27Z</time>
				<extensions>
				</extensions>
			</trkpt>
			<trkpt lat="-28.201456" lon="152.868556">
				<ele>108.535</ele>
				<time>2015-07-04T00:14:28Z</time>
				<extensions>
				</extensions>
			</trkpt>
			<trkpt lat="-28.201510" lon="152.868337">
				<ele>107.404</ele>
				<time>2015-07-04T00:14:29Z</time>
				<extensions>
				</extensions>
			</trkpt>
			<trkpt lat="-28.201572" lon="152.868122">
				<ele>105.869</ele>
				<time>2015-07-04T00:14:30Z</time>
				<extensions>
				</extensions>
			</trkpt>
			<trkpt lat="-28.201639" lon="152.867915">
				<ele>106.421</ele>
				<time>2015-07-04T00:14:31Z</time>
				<extensions>
				</extensions>
			</trkpt>
			<trkpt lat="-28.201723" lon="152.867709">
				<ele>105.080</ele>
				<time>2015-07-04T00:14:32Z</time>
				<extensions>
				</extensions>
			</trkpt>
			<trkpt lat="-28.201810" lon="152.867507">
				<ele>103.406</ele>
				<time>2015-07-04T00:14:33Z</time>
				<extensions>
				</extensions>
			</trkpt>
			<trkpt lat="-28.201933" lon="152.867312">
				<ele>102.440</ele>
				<time>2015-07-04T00:14:34Z</time>
				<extensions>
				</extensions>
			</trkpt>
			<trkpt lat="-28.202082" lon="152.867112">
				<ele>101.773</ele>
				<time>2015-07-04T00:14:35Z</time>
				<extensions>
				</extensions>
			</trkpt>
			<trkpt lat="-28.202214" lon="152.866936">
				<ele>100.455</ele>
				<time>2015-07-04T00:14:36Z</time>
				<extensions>
				</extensions>
			</trkpt>
			<trkpt lat="-28.202377" lon="152.866775">
				<ele>98.640</ele>
				<time>2015-07-04T00:14:37Z</time>
				<extensions>
				</extensions>
			</trkpt>
			<trkpt lat="-28.202552" lon="152.866631">
				<ele>96.552</ele>
				<time>2015-07-04T00:14:38Z</time>
				<extensions>
				</extensions>
			</trkpt>
			<trkpt lat="-28.202755" lon="152.866505">
				<ele>94.526</ele>
				<time>2015-07-04T00:14:39Z</time>
				<extensions>
				</extensions>
			</trkpt>
			<trkpt lat="-28.202947" lon="152.866414">
				<ele>95.174</ele>
				<time>2015-07-04T00:14:40Z</time>
				<extensions>
				</extensions>
			</trkpt>
			<trkpt lat="-28.203152" lon="152.866340">
				<ele>95.307</ele>
				<time>2015-07-04T00:14:41Z</time>
				<extensions>
				</extensions>
			</trkpt>
			<trkpt lat="-28.203366" lon="152.866274">
				<ele>94.680</ele>
				<time>2015-07-04T00:14:42Z</time>
				<extensions>
				</extensions>
			</trkpt>
			<trkpt lat="-28.203593" lon="152.866210">
				<ele>93.656</ele>
				<time>2015-07-04T00:14:43Z</time>
				<extensions>
				</extensions>
			</trkpt>
			<trkpt lat="-28.203809" lon="152.866164">
				<ele>91.994</ele>
				<time>2015-07-04T00:14:44Z</time>
				<extensions>
				</extensions>
			</trkpt>
			<trkpt lat="-28.204020" lon="152.866107">
				<ele>90.911</ele>
				<time>2015-07-04T00:14:45Z</time>
				<extensions>
				</extensions>
			</trkpt>
			<trkpt lat="-28.204218" lon="152.866056">
				<ele>90.166</ele>
				<time>2015-07-04T00:14:46Z</time>
				<extensions>
				</extensions>
			</trkpt>
			<trkpt lat="-28.204413" lon="152.866011">
				<ele>88.910</ele>
				<time>2015-07-04T00:14:47Z</time>
				<extensions>
				</extensions>
			</trkpt>
			<trkpt lat="-28.204603" lon="152.865965">
				<ele>88.247</ele>
				<time>2015-07-04T00:14:48Z</time>
				<extensions>
				</extensions>
			</trkpt>
			<trkpt lat="-28.204797" lon="152.865918">
				<ele>88.290</ele>
				<time>2015-07-04T00:14:49Z</time>
				<extensions>
				</extensions>
			</trkpt>
			<trkpt lat="-28.204978" lon="152.865872">
				<ele>86.881</ele>
				<time>2015-07-04T00:14:50Z</time>
				<extensions>
				</extensions>
			</trkpt>
			<trkpt lat="-28.205155" lon="152.865828">
				<ele>86.985</ele>
				<time>2015-07-04T00:14:51Z</time>
				<extensions>
				</extensions>
			</trkpt>
			<trkpt lat="-28.205510" lon="152.865748">
				<ele>88.615</ele>
				<time>2015-07-04T00:14:53Z</time>
				<extensions>
				</extensions>
			</trkpt>
			<trkpt lat="-28.205690" lon="152.865706">
				<ele>87.541</ele>
				<time>2015-07-04T00:14:54Z</time>
				<extensions>
				</extensions>
			</trkpt>
			<trkpt lat="-28.205872" lon="152.865662">
				<ele>88.560</ele>
				<time>2015-07-04T00:14:55Z</time>
				<extensions>
				</extensions>
			</trkpt>
			<trkpt lat="-28.206062" lon="152.865616">
				<ele>89.359</ele>
				<time>2015-07-04T00:14:56Z</time>
				<extensions>
				</extensions>
			</trkpt>
			<trkpt lat="-28.206265" lon="152.865568">
				<ele>89.815</ele>
				<time>2015-07-04T00:14:57Z</time>
				<extensions>
				</extensions>
			</trkpt>
			<trkpt lat="-28.206457" lon="152.865524">
				<ele>89.023</ele>
				<time>2015-07-04T00:14:58Z</time>
				<extensions>
				</extensions>
			</trkpt>
			<trkpt lat="-28.206644" lon="152.865479">
				<ele>88.084</ele>
				<time>2015-07-04T00:14:59Z</time>
				<extensions>
				</extensions>
			</trkpt>
			<trkpt lat="-28.206839" lon="152.865443">
				<ele>85.934</ele>
				<time>2015-07-04T00:15:00Z</time>
				<extensions>
				</extensions>
			</trkpt>
			<trkpt lat="-28.207020" lon="152.865392">
				<ele>85.008</ele>
				<time>2015-07-04T00:15:01Z</time>
				<extensions>
				</extensions>
			</trkpt>
			<trkpt lat="-28.207198" lon="152.865349">
				<ele>85.745</ele>
				<time>2015-07-04T00:15:02Z</time>
				<extensions>
				</extensions>
			</trkpt>
			<trkpt lat="-28.207376" lon="152.865312">
				<ele>84.988</ele>
				<time>2015-07-04T00:15:03Z</time>
				<extensions>
				</extensions>
			</trkpt>
			<trkpt lat="-28.207556" lon="152.865271">
				<ele>85.309</ele>
				<time>2015-07-04T00:15:04Z</time>
				<extensions>
				</extensions>
			</trkpt>
			<trkpt lat="-28.207748" lon="152.865227">
				<ele>83.729</ele>
				<time>2015-07-04T00:15:05Z</time>
				<extensions>
				</extensions>
			</trkpt>
			<trkpt lat="-28.207925" lon="152.865182">
				<ele>83.108</ele>
				<time>2015-07-04T00:15:06Z</time>
				<extensions>
				</extensions>
			</trkpt>
			<trkpt lat="-28.208261" lon="152.865094">
				<ele>81.785</ele>
				<time>2015-07-04T00:15:08Z</time>
				<extensions>
				</extensions>
			</trkpt>
			<trkpt lat="-28.208579" lon="152.865025">
				<ele>82.943</ele>
				<time>2015-07-04T00:15:10Z</time>
				<extensions>
				</extensions>
			</trkpt>
			<trkpt lat="-28.208891" lon="152.864951">
				<ele>81.958</ele>
				<time>2015-07-04T00:15:12Z</time>
				<extensions>
				</extensions>
			</trkpt>
			<trkpt lat="-28.209205" lon="152.864875">
				<ele>82.923</ele>
				<time>2015-07-04T00:15:14Z</time>
				<extensions>
				</extensions>
			</trkpt>
			<trkpt lat="-28.209509" lon="152.864803">
				<ele>82.188</ele>
				<time>2015-07-04T00:15:16Z</time>
				<extensions>
				</extensions>
			</trkpt>
			<trkpt lat="-28.209791" lon="152.864740">
				<ele>83.003</ele>
				<time>2015-07-04T00:15:18Z</time>
				<extensions>
				</extensions>
			</trkpt>
			<trkpt lat="-28.210065" lon="152.864674">
				<ele>83.676</ele>
				<time>2015-07-04T00:15:20Z</time>
				<extensions>
				</extensions>
			</trkpt>
			<trkpt lat="-28.210303" lon="152.864613">
				<ele>84.532</ele>
				<time>2015-07-04T00:15:22Z</time>
				<extensions>
				</extensions>
			</trkpt>
			<trkpt lat="-28.210541" lon="152.864570">
				<ele>85.498</ele>
				<time>2015-07-04T00:15:24Z</time>
				<extensions>
				</extensions>
			</trkpt>
			<trkpt lat="-28.210765" lon="152.864516">
				<ele>89.350</ele>
				<time>2015-07-04T00:15:26Z</time>
				<extensions>
				</extensions>
			</trkpt>
			<trkpt lat="-28.210937" lon="152.864440">
				<ele>88.692</ele>
				<time>2015-07-04T00:15:28Z</time>
				<extensions>
				</extensions>
			</trkpt>
			<trkpt lat="-28.211101" lon="152.864348">
				<ele>88.060</ele>
				<time>2015-07-04T00:15:31Z</time>
				<extensions>
				</extensions>
			</trkpt>
			<trkpt lat="-28.211196" lon="152.864155">
				<ele>89.524</ele>
				<time>2015-07-04T00:15:35Z</time>
				<extensions>
				</extensions>
			</trkpt>
			<trkpt lat="-28.211290" lon="152.863890">
				<ele>92.662</ele>
				<time>2015-07-04T00:15:39Z</time>
				<extensions>
				</extensions>
			</trkpt>
			<trkpt lat="-28.211372" lon="152.863678">
				<ele>94.118</ele>
				<time>2015-07-04T00:15:42Z</time>
				<extensions>
				</extensions>
			</trkpt>
			<trkpt lat="-28.211449" lon="152.863451">
				<ele>94.327</ele>
				<time>2015-07-04T00:15:46Z</time>
				<extensions>
				</extensions>
			</trkpt>
			<trkpt lat="-28.211510" lon="152.863257">
				<ele>93.440</ele>
				<time>2015-07-04T01:11:21Z</time>
				<extensions>
				</extensions>
			</trkpt>
			<trkpt lat="-28.211587" lon="152.863001">
				<ele>95.211</ele>
				<time>2015-07-04T01:11:25Z</time>
				<extensions>
				</extensions>
			</trkpt>
			<trkpt lat="-28.211670" lon="152.862802">
				<ele>94.466</ele>
				<time>2015-07-04T01:11:28Z</time>
				<extensions>
				</extensions>
			</trkpt>
			<trkpt lat="-28.211790" lon="152.862646">
				<ele>93.454</ele>
				<time>2015-07-04T01:11:31Z</time>
				<extensions>
				</extensions>
			</trkpt>
			<trkpt lat="-28.211967" lon="152.862581">
				<ele>91.604</ele>
				<time>2015-07-04T01:11:35Z</time>
				<extensions>
				</extensions>
			</trkpt>
			<trkpt lat="-28.212034" lon="152.862790">
				<ele>91.168</ele>
				<time>2015-07-04T01:11:42Z</time>
				<extensions>
				</extensions>
			</trkpt>
			<trkpt lat="-28.211935" lon="152.863045">
				<ele>93.342</ele>
				<time>2015-07-04T01:11:45Z</time>
				<extensions>
				</extensions>
			</trkpt>
			<trkpt lat="-28.211873" lon="152.863244">
				<ele>93.986</ele>
				<time>2015-07-04T01:11:47Z</time>
				<extensions>
				</extensions>
			</trkpt>
			<trkpt lat="-28.211790" lon="152.863436">
				<ele>94.253</ele>
				<time>2015-07-04T01:11:49Z</time>
				<extensions>
				</extensions>
			</trkpt>
			<trkpt lat="-28.211676" lon="152.863664">
				<ele>92.353</ele>
				<time>2015-07-04T01:11:52Z</time>
				<extensions>
				</extensions>
			</trkpt>
			<trkpt lat="-28.211564" lon="152.863854">
				<ele>91.472</ele>
				<time>2015-07-04T01:11:55Z</time>
				<extensions>
				</extensions>
			</trkpt>
			<trkpt lat="-28.211402" lon="152.864041">
				<ele>91.080</ele>
				<time>2015-07-04T01:11:59Z</time>
				<extensions>
				</extensions>
			</trkpt>
			<trkpt lat="-28.211256" lon="152.864181">
				<ele>90.878</ele>
				<time>2015-07-04T01:12:03Z</time>
				<extensions>
				</extensions>
			</trkpt>
			<trkpt lat="-28.211095" lon="152.864292">
				<ele>90.764</ele>
				<time>2015-07-04T01:12:09Z</time>
				<extensions>
				</extensions>
			</trkpt>
			<trkpt lat="-28.210912" lon="152.864435">
				<ele>90.238</ele>
				<time>2015-07-04T01:12:16Z</time>
				<extensions>
				</extensions>
			</trkpt>
			<trkpt lat="-28.210897" lon="152.864669">
				<ele>89.343</ele>
				<time>2015-07-04T01:12:21Z</time>
				<extensions>
				</extensions>
			</trkpt>
			<trkpt lat="-28.210894" lon="152.864885">
				<ele>87.850</ele>
				<time>2015-07-04T01:13:14Z</time>
				<extensions>
				</extensions>
			</trkpt>
			<trkpt lat="-28.210963" lon="152.865154">
				<ele>89.058</ele>
				<time>2015-07-04T01:13:18Z</time>
				<extensions>
				</extensions>
			</trkpt>
			<trkpt lat="-28.211014" lon="152.865459">
				<ele>88.759</ele>
				<time>2015-07-04T01:13:21Z</time>
				<extensions>
				</extensions>
			</trkpt>
			<trkpt lat="-28.211028" lon="152.865827">
				<ele>88.137</ele>
				<time>2015-07-04T01:13:24Z</time>
				<extensions>
				</extensions>
			</trkpt>
			<trkpt lat="-28.211006" lon="152.866080">
				<ele>87.293</ele>
				<time>2015-07-04T01:13:26Z</time>
				<extensions>
				</extensions>
			</trkpt>
			<trkpt lat="-28.210944" lon="152.866328">
				<ele>86.032</ele>
				<time>2015-07-04T01:13:28Z</time>
				<extensions>
				</extensions>
			</trkpt>
			<trkpt lat="-28.210909" lon="152.866586">
				<ele>86.921</ele>
				<time>2015-07-04T01:13:30Z</time>
				<extensions>
				</extensions>
			</trkpt>
			<trkpt lat="-28.210851" lon="152.866866">
				<ele>85.884</ele>
				<time>2015-07-04T01:13:32Z</time>
				<extensions>
				</extensions>
			</trkpt>
			<trkpt lat="-28.210811" lon="152.867129">
				<ele>83.921</ele>
				<time>2015-07-04T01:13:34Z</time>
				<extensions>
				</extensions>
			</trkpt>
			<trkpt lat="-28.210758" lon="152.867416">
				<ele>84.430</ele>
				<time>2015-07-04T01:13:36Z</time>
				<extensions>
				</extensions>
			</trkpt>
			<trkpt lat="-28.210741" lon="152.867713">
				<ele>83.727</ele>
				<time>2015-07-04T01:13:38Z</time>
				<extensions>
				</extensions>
			</trkpt>
			<trkpt lat="-28.210803" lon="152.868004">
				<ele>83.500</ele>
				<time>2015-07-04T01:13:40Z</time>
				<extensions>
				</extensions>
			</trkpt>
			<trkpt lat="-28.210951" lon="152.868249">
				<ele>83.055</ele>
				<time>2015-07-04T01:13:42Z</time>
				<extensions>
				</extensions>
			</trkpt>
			<trkpt lat="-28.211154" lon="152.868463">
				<ele>84.635</ele>
				<time>2015-07-04T01:13:44Z</time>
				<extensions>
				</extensions>
			</trkpt>
			<trkpt lat="-28.211357" lon="152.868650">
				<ele>84.157</ele>
				<time>2015-07-04T01:13:46Z</time>
				<extensions>
				</extensions>
			</trkpt>
			<trkpt lat="-28.211543" lon="152.868835">
				<ele>84.266</ele>
				<time>2015-07-04T01:13:48Z</time>
				<extensions>
				</extensions>
			</trkpt>
			<trkpt lat="-28.211722" lon="152.869008">
				<ele>83.162</ele>
				<time>2015-07-04T01:13:50Z</time>
				<extensions>
				</extensions>
			</trkpt>
			<trkpt lat="-28.211882" lon="152.869145">
				<ele>82.351</ele>
				<time>2015-07-04T01:13:52Z</time>
				<extensions>
				</extensions>
			</trkpt>
			<trkpt lat="-28.212017" lon="152.869286">
				<ele>82.119</ele>
				<time>2015-07-04T01:13:54Z</time>
				<extensions>
				</extensions>
			</trkpt>
			<trkpt lat="-28.212159" lon="152.869418">
				<ele>81.734</ele>
				<time>2015-07-04T01:13:56Z</time>
				<extensions>
				</extensions>
			</trkpt>
			<trkpt lat="-28.212359" lon="152.869615">
				<ele>81.434</ele>
				<time>2015-07-04T01:13:59Z</time>
				<extensions>
				</extensions>
			</trkpt>
			<trkpt lat="-28.212534" lon="152.869830">
				<ele>80.669</ele>
				<time>2015-07-04T01:14:02Z</time>
				<extensions>
				</extensions>
			</trkpt>
			<trkpt lat="-28.212650" lon="152.870044">
				<ele>82.159</ele>
				<time>2015-07-04T01:14:04Z</time>
				<extensions>
				</extensions>
			</trkpt>
			<trkpt lat="-28.212761" lon="152.870294">
				<ele>83.184</ele>
				<time>2015-07-04T01:14:06Z</time>
				<extensions>
				</extensions>
			</trkpt>
			<trkpt lat="-28.212884" lon="152.870596">
				<ele>86.330</ele>
				<time>2015-07-04T01:14:08Z</time>
				<extensions>
				</extensions>
			</trkpt>
			<trkpt lat="-28.213027" lon="152.870934">
				<ele>87.334</ele>
				<time>2015-07-04T01:14:10Z</time>
				<extensions>
				</extensions>
			</trkpt>
			<trkpt lat="-28.213132" lon="152.871303">
				<ele>88.082</ele>
				<time>2015-07-04T01:14:12Z</time>
				<extensions>
				</extensions>
			</trkpt>
			<trkpt lat="-28.213151" lon="152.871705">
				<ele>89.914</ele>
				<time>2015-07-04T01:14:14Z</time>
				<extensions>
				</extensions>
			</trkpt>
			<trkpt lat="-28.213155" lon="152.871909">
				<ele>86.992</ele>
				<time>2015-07-04T01:14:15Z</time>
				<extensions>
				</extensions>
			</trkpt>
			<trkpt lat="-28.213166" lon="152.872295">
				<ele>85.440</ele>
				<time>2015-07-04T01:14:17Z</time>
				<extensions>
				</extensions>
			</trkpt>
			<trkpt lat="-28.213217" lon="152.872676">
				<ele>82.220</ele>
				<time>2015-07-04T01:14:19Z</time>
				<extensions>
				</extensions>
			</trkpt>
			<trkpt lat="-28.213350" lon="152.873014">
				<ele>83.012</ele>
				<time>2015-07-04T01:14:21Z</time>
				<extensions>
				</extensions>
			</trkpt>
			<trkpt lat="-28.213545" lon="152.873321">
				<ele>82.210</ele>
				<time>2015-07-04T01:14:23Z</time>
				<extensions>
				</extensions>
			</trkpt>
			<trkpt lat="-28.213753" lon="152.873605">
				<ele>81.642</ele>
				<time>2015-07-04T01:14:25Z</time>
				<extensions>
				</extensions>
			</trkpt>
			<trkpt lat="-28.213933" lon="152.873898">
				<ele>81.700</ele>
				<time>2015-07-04T01:14:27Z</time>
				<extensions>
				</extensions>
			</trkpt>
			<trkpt lat="-28.214043" lon="152.874214">
				<ele>82.002</ele>
				<time>2015-07-04T01:14:29Z</time>
				<extensions>
				</extensions>
			</trkpt>
			<trkpt lat="-28.214051" lon="152.874561">
				<ele>83.337</ele>
				<time>2015-07-04T01:14:31Z</time>
				<extensions>
				</extensions>
			</trkpt>
			<trkpt lat="-28.214019" lon="152.874971">
				<ele>84.826</ele>
				<time>2015-07-04T01:14:33Z</time>
				<extensions>
				</extensions>
			</trkpt>
			<trkpt lat="-28.214005" lon="152.875183">
				<ele>86.071</ele>
				<time>2015-07-04T01:14:34Z</time>
				<extensions>
				</extensions>
			</trkpt>
			<trkpt lat="-28.213989" lon="152.875394">
				<ele>85.221</ele>
				<time>2015-07-04T01:14:35Z</time>
				<extensions>
				</extensions>
			</trkpt>
			<trkpt lat="-28.213952" lon="152.875753">
				<ele>83.838</ele>
				<time>2015-07-04T01:14:37Z</time>
				<extensions>
				</extensions>
			</trkpt>
			<trkpt lat="-28.213931" lon="152.876118">
				<ele>82.957</ele>
				<time>2015-07-04T01:14:39Z</time>
				<extensions>
				</extensions>
			</trkpt>
			<trkpt lat="-28.213890" lon="152.876473">
				<ele>80.408</ele>
				<time>2015-07-04T01:14:41Z</time>
				<extensions>
				</extensions>
			</trkpt>
			<trkpt lat="-28.213858" lon="152.876795">
				<ele>80.612</ele>
				<time>2015-07-04T01:14:43Z</time>
				<extensions>
				</extensions>
			</trkpt>
			<trkpt lat="-28.213827" lon="152.877127">
				<ele>80.786</ele>
				<time>2015-07-04T01:14:45Z</time>
				<extensions>
				</extensions>
			</trkpt>
			<trkpt lat="-28.213829" lon="152.877449">
				<ele>79.791</ele>
				<time>2015-07-04T01:14:47Z</time>
				<extensions>
				</extensions>
			</trkpt>
			<trkpt lat="-28.213914" lon="152.877772">
				<ele>79.802</ele>
				<time>2015-07-04T01:14:49Z</time>
				<extensions>
				</extensions>
			</trkpt>
			<trkpt lat="-28.214077" lon="152.878100">
				<ele>80.753</ele>
				<time>2015-07-04T01:14:51Z</time>
				<extensions>
				</extensions>
			</trkpt>
			<trkpt lat="-28.214195" lon="152.878427">
				<ele>79.762</ele>
				<time>2015-07-04T01:14:53Z</time>
				<extensions>
				</extensions>
			</trkpt>
			<trkpt lat="-28.214250" lon="152.878786">
				<ele>80.019</ele>
				<time>2015-07-04T01:14:55Z</time>
				<extensions>
				</extensions>
			</trkpt>
			<trkpt lat="-28.214170" lon="152.879174">
				<ele>82.236</ele>
				<time>2015-07-04T01:14:57Z</time>
				<extensions>
				</extensions>
			</trkpt>
			<trkpt lat="-28.214105" lon="152.879373">
				<ele>83.515</ele>
				<time>2015-07-04T01:14:58Z</time>
				<extensions>
				</extensions>
			</trkpt>
			<trkpt lat="-28.214038" lon="152.879566">
				<ele>82.494</ele>
				<time>2015-07-04T01:14:59Z</time>
				<extensions>
				</extensions>
			</trkpt>
			<trkpt lat="-28.213925" lon="152.879923">
				<ele>81.625</ele>
				<time>2015-07-04T01:15:01Z</time>
				<extensions>
				</extensions>
			</trkpt>
			<trkpt lat="-28.213808" lon="152.880252">
				<ele>78.995</ele>
				<time>2015-07-04T01:15:03Z</time>
				<extensions>
				</extensions>
			</trkpt>
			<trkpt lat="-28.213697" lon="152.880571">
				<ele>78.442</ele>
				<time>2015-07-04T01:15:05Z</time>
				<extensions>
				</extensions>
			</trkpt>
			<trkpt lat="-28.213601" lon="152.880883">
				<ele>78.931</ele>
				<time>2015-07-04T01:15:07Z</time>
				<extensions>
				</extensions>
			</trkpt>
			<trkpt lat="-28.213499" lon="152.881191">
				<ele>80.167</ele>
				<time>2015-07-04T01:15:09Z</time>
				<extensions>
				</extensions>
			</trkpt>
			<trkpt lat="-28.213390" lon="152.881510">
				<ele>79.014</ele>
				<time>2015-07-04T01:15:11Z</time>
				<extensions>
				</extensions>
			</trkpt>
			<trkpt lat="-28.213291" lon="152.881809">
				<ele>78.009</ele>
				<time>2015-07-04T01:15:13Z</time>
				<extensions>
				</extensions>
			</trkpt>
			<trkpt lat="-28.213196" lon="152.882074">
				<ele>76.573</ele>
				<time>2015-07-04T01:15:15Z</time>
				<extensions>
				</extensions>
			</trkpt>
			<trkpt lat="-28.213124" lon="152.882331">
				<ele>75.702</ele>
				<time>2015-07-04T01:15:17Z</time>
				<extensions>
				</extensions>
			</trkpt>
			<trkpt lat="-28.213114" lon="152.882621">
				<ele>76.602</ele>
				<time>2015-07-04T01:15:19Z</time>
				<extensions>
				</extensions>
			</trkpt>
			<trkpt lat="-28.213224" lon="152.882901">
				<ele>77.356</ele>
				<time>2015-07-04T01:15:21Z</time>
				<extensions>
				</extensions>
			</trkpt>
			<trkpt lat="-28.213435" lon="152.883122">
				<ele>76.888</ele>
				<time>2015-07-04T01:15:23Z</time>
				<extensions>
				</extensions>
			</trkpt>
			<trkpt lat="-28.213740" lon="152.883275">
				<ele>78.522</ele>
				<time>2015-07-04T01:15:25Z</time>
				<extensions>
				</extensions>
			</trkpt>
			<trkpt lat="-28.214030" lon="152.883409">
				<ele>76.655</ele>
				<time>2015-07-04T01:15:27Z</time>
				<extensions>
				</extensions>
			</trkpt>
			<trkpt lat="-28.214304" lon="152.883523">
				<ele>77.455</ele>
				<time>2015-07-04T01:15:29Z</time>
				<extensions>
				</extensions>
			</trkpt>
			<trkpt lat="-28.214580" lon="152.883651">
				<ele>78.309</ele>
				<time>2015-07-04T01:15:31Z</time>
				<extensions>
				</extensions>
			</trkpt>
			<trkpt lat="-28.214850" lon="152.883774">
				<ele>77.138</ele>
				<time>2015-07-04T01:15:33Z</time>
				<extensions>
				</extensions>
			</trkpt>
			<trkpt lat="-28.215086" lon="152.883900">
				<ele>78.177</ele>
				<time>2015-07-04T01:15:35Z</time>
				<extensions>
				</extensions>
			</trkpt>
			<trkpt lat="-28.215316" lon="152.884072">
				<ele>78.905</ele>
				<time>2015-07-04T01:15:37Z</time>
				<extensions>
				</extensions>
			</trkpt>
			<trkpt lat="-28.215479" lon="152.884346">
				<ele>78.402</ele>
				<time>2015-07-04T01:15:39Z</time>
				<extensions>
				</extensions>
			</trkpt>
			<trkpt lat="-28.215605" lon="152.884678">
				<ele>79.148</ele>
				<time>2015-07-04T01:15:41Z</time>
				<extensions>
				</extensions>
			</trkpt>
			<trkpt lat="-28.215729" lon="152.885051">
				<ele>78.533</ele>
				<time>2015-07-04T01:15:43Z</time>
				<extensions>
				</extensions>
			</trkpt>
			<trkpt lat="-28.215865" lon="152.885424">
				<ele>78.391</ele>
				<time>2015-07-04T01:15:45Z</time>
				<extensions>
				</extensions>
			</trkpt>
			<trkpt lat="-28.215990" lon="152.885779">
				<ele>78.342</ele>
				<time>2015-07-04T01:15:47Z</time>
				<extensions>
				</extensions>
			</trkpt>
			<trkpt lat="-28.216099" lon="152.886144">
				<ele>79.035</ele>
				<time>2015-07-04T01:15:49Z</time>
				<extensions>
				</extensions>
			</trkpt>
			<trkpt lat="-28.216204" lon="152.886525">
				<ele>79.878</ele>
				<time>2015-07-04T01:15:51Z</time>
				<extensions>
				</extensions>
			</trkpt>
			<trkpt lat="-28.216296" lon="152.886906">
				<ele>78.662</ele>
				<time>2015-07-04T01:15:53Z</time>
				<extensions>
				</extensions>
			</trkpt>
			<trkpt lat="-28.216356" lon="152.887287">
				<ele>78.601</ele>
				<time>2015-07-04T01:15:55Z</time>
				<extensions>
				</extensions>
			</trkpt>
			<trkpt lat="-28.216386" lon="152.887639">
				<ele>77.714</ele>
				<time>2015-07-04T01:15:57Z</time>
				<extensions>
				</extensions>
			</trkpt>
			<trkpt lat="-28.216425" lon="152.887989">
				<ele>79.094</ele>
				<time>2015-07-04T01:15:59Z</time>
				<extensions>
				</extensions>
			</trkpt>
			<trkpt lat="-28.216459" lon="152.888328">
				<ele>80.738</ele>
				<time>2015-07-04T01:16:01Z</time>
				<extensions>
				</extensions>
			</trkpt>
			<trkpt lat="-28.216490" lon="152.888659">
				<ele>79.481</ele>
				<time>2015-07-04T01:16:03Z</time>
				<extensions>
				</extensions>
			</trkpt>
			<trkpt lat="-28.216512" lon="152.888991">
				<ele>79.158</ele>
				<time>2015-07-04T01:16:05Z</time>
				<extensions>
				</extensions>
			</trkpt>
			<trkpt lat="-28.216520" lon="152.889292">
				<ele>78.943</ele>
				<time>2015-07-04T01:16:07Z</time>
				<extensions>
				</extensions>
			</trkpt>
			<trkpt lat="-28.216560" lon="152.889606">
				<ele>77.449</ele>
				<time>2015-07-04T01:16:09Z</time>
				<extensions>
				</extensions>
			</trkpt>
			<trkpt lat="-28.216613" lon="152.889904">
				<ele>76.256</ele>
				<time>2015-07-04T01:16:11Z</time>
				<extensions>
				</extensions>
			</trkpt>
			<trkpt lat="-28.216701" lon="152.890205">
				<ele>75.070</ele>
				<time>2015-07-04T01:16:13Z</time>
				<extensions>
				</extensions>
			</trkpt>
			<trkpt lat="-28.216812" lon="152.890504">
				<ele>74.495</ele>
				<time>2015-07-04T01:16:15Z</time>
				<extensions>
				</extensions>
			</trkpt>
			<trkpt lat="-28.216902" lon="152.890806">
				<ele>75.776</ele>
				<time>2015-07-04T01:16:17Z</time>
				<extensions>
				</extensions>
			</trkpt>
			<trkpt lat="-28.216986" lon="152.891083">
				<ele>74.763</ele>
				<time>2015-07-04T01:16:19Z</time>
				<extensions>
				</extensions>
			</trkpt>
			<trkpt lat="-28.217090" lon="152.891322">
				<ele>75.451</ele>
				<time>2015-07-04T01:16:21Z</time>
				<extensions>
				</extensions>
			</trkpt>
			<trkpt lat="-28.217266" lon="152.891509">
				<ele>76.609</ele>
				<time>2015-07-04T01:16:23Z</time>
				<extensions>
				</extensions>
			</trkpt>
			<trkpt lat="-28.217527" lon="152.891620">
				<ele>77.850</ele>
				<time>2015-07-04T01:16:25Z</time>
				<extensions>
				</extensions>
			</trkpt>
			<trkpt lat="-28.217840" lon="152.891624">
				<ele>79.291</ele>
				<time>2015-07-04T01:16:27Z</time>
				<extensions>
				</extensions>
			</trkpt>
			<trkpt lat="-28.218185" lon="152.891539">
				<ele>82.873</ele>
				<time>2015-07-04T01:16:29Z</time>
				<extensions>
				</extensions>
			</trkpt>
			<trkpt lat="-28.218364" lon="152.891489">
				<ele>82.227</ele>
				<time>2015-07-04T01:16:30Z</time>
				<extensions>
				</extensions>
			</trkpt>
			<trkpt lat="-28.218705" lon="152.891393">
				<ele>82.265</ele>
				<time>2015-07-04T01:16:32Z</time>
				<extensions>
				</extensions>
			</trkpt>
			<trkpt lat="-28.219052" lon="152.891314">
				<ele>82.094</ele>
				<time>2015-07-04T01:16:34Z</time>
				<extensions>
				</extensions>
			</trkpt>
			<trkpt lat="-28.219232" lon="152.891298">
				<ele>82.450</ele>
				<time>2015-07-04T01:16:35Z</time>
				<extensions>
				</extensions>
			</trkpt>
			<trkpt lat="-28.219596" lon="152.891306">
				<ele>84.282</ele>
				<time>2015-07-04T01:16:37Z</time>
				<extensions>
				</extensions>
			</trkpt>
			<trkpt lat="-28.219785" lon="152.891328">
				<ele>84.510</ele>
				<time>2015-07-04T01:16:38Z</time>
				<extensions>
				</extensions>
			</trkpt>
			<trkpt lat="-28.220146" lon="152.891372">
				<ele>83.261</ele>
				<time>2015-07-04T01:16:40Z</time>
				<extensions>
				</extensions>
			</trkpt>
			<trkpt lat="-28.220495" lon="152.891422">
				<ele>84.333</ele>
				<time>2015-07-04T01:16:42Z</time>
				<extensions>
				</extensions>
			</trkpt>
			<trkpt lat="-28.220675" lon="152.891448">
				<ele>84.714</ele>
				<time>2015-07-04T01:16:43Z</time>
				<extensions>
				</extensions>
			</trkpt>
			<trkpt lat="-28.220856" lon="152.891470">
				<ele>85.581</ele>
				<time>2015-07-04T01:16:44Z</time>
				<extensions>
				</extensions>
			</trkpt>
			<trkpt lat="-28.221037" lon="152.891495">
				<ele>85.379</ele>
				<time>2015-07-04T01:16:45Z</time>
				<extensions>
				</extensions>
			</trkpt>
			<trkpt lat="-28.221386" lon="152.891539">
				<ele>83.500</ele>
				<time>2015-07-04T01:16:47Z</time>
				<extensions>
				</extensions>
			</trkpt>
			<trkpt lat="-28.221734" lon="152.891585">
				<ele>84.129</ele>
				<time>2015-07-04T01:16:49Z</time>
				<extensions>
				</extensions>
			</trkpt>
			<trkpt lat="-28.222079" lon="152.891625">
				<ele>83.856</ele>
				<time>2015-07-04T01:16:51Z</time>
				<extensions>
				</extensions>
			</trkpt>
			<trkpt lat="-28.222424" lon="152.891664">
				<ele>84.218</ele>
				<time>2015-07-04T01:16:53Z</time>
				<extensions>
				</extensions>
			</trkpt>
			<trkpt lat="-28.222778" lon="152.891707">
				<ele>85.106</ele>
				<time>2015-07-04T01:16:55Z</time>
				<extensions>
				</extensions>
			</trkpt>
			<trkpt lat="-28.222959" lon="152.891730">
				<ele>84.341</ele>
				<time>2015-07-04T01:16:56Z</time>
				<extensions>
				</extensions>
			</trkpt>
			<trkpt lat="-28.223300" lon="152.891790">
				<ele>84.321</ele>
				<time>2015-07-04T01:16:58Z</time>
				<extensions>
				</extensions>
			</trkpt>
			<trkpt lat="-28.223657" lon="152.891834">
				<ele>83.295</ele>
				<time>2015-07-04T01:17:00Z</time>
				<extensions>
				</extensions>
			</trkpt>
			<trkpt lat="-28.224010" lon="152.891887">
				<ele>82.219</ele>
				<time>2015-07-04T01:17:02Z</time>
				<extensions>
				</extensions>
			</trkpt>
			<trkpt lat="-28.224193" lon="152.891908">
				<ele>83.932</ele>
				<time>2015-07-04T01:17:03Z</time>
				<extensions>
				</extensions>
			</trkpt>
			<trkpt lat="-28.224383" lon="152.891933">
				<ele>84.834</ele>
				<time>2015-07-04T01:17:04Z</time>
				<extensions>
				</extensions>
			</trkpt>
			<trkpt lat="-28.224570" lon="152.891955">
				<ele>84.440</ele>
				<time>2015-07-04T01:17:05Z</time>
				<extensions>
				</extensions>
			</trkpt>
			<trkpt lat="-28.224914" lon="152.892007">
				<ele>84.419</ele>
				<time>2015-07-04T01:17:07Z</time>
				<extensions>
				</extensions>
			</trkpt>
			<trkpt lat="-28.225097" lon="152.892030">
				<ele>85.699</ele>
				<time>2015-07-04T01:17:08Z</time>
				<extensions>
				</extensions>
			</trkpt>
			<trkpt lat="-28.225285" lon="152.892043">
				<ele>85.385</ele>
				<time>2015-07-04T01:17:09Z</time>
				<extensions>
				</extensions>
			</trkpt>
			<trkpt lat="-28.225472" lon="152.892049">
				<ele>85.972</ele>
				<time>2015-07-04T01:17:10Z</time>
				<extensions>
				</extensions>
			</trkpt>
			<trkpt lat="-28.225664" lon="152.892049">
				<ele>86.854</ele>
				<time>2015-07-04T01:17:11Z</time>
				<extensions>
				</extensions>
			</trkpt>
			<trkpt lat="-28.225860" lon="152.892042">
				<ele>86.405</ele>
				<time>2015-07-04T01:17:12Z</time>
				<extensions>
				</extensions>
			</trkpt>
			<trkpt lat="-28.226055" lon="152.892029">
				<ele>86.405</ele>
				<time>2015-07-04T01:17:13Z</time>
				<extensions>
				</extensions>
			</trkpt>
			<trkpt lat="-28.226251" lon="152.892009">
				<ele>87.244</ele>
				<time>2015-07-04T01:17:14Z</time>
				<extensions>
				</extensions>
			</trkpt>
			<trkpt lat="-28.226443" lon="152.891997">
				<ele>88.209</ele>
				<time>2015-07-04T01:17:15Z</time>
				<extensions>
				</extensions>
			</trkpt>
			<trkpt lat="-28.226635" lon="152.891981">
				<ele>87.293</ele>
				<time>2015-07-04T01:17:16Z</time>
				<extensions>
				</extensions>
			</trkpt>
			<trkpt lat="-28.226826" lon="152.891953">
				<ele>86.906</ele>
				<time>2015-07-04T01:17:17Z</time>
				<extensions>
				</extensions>
			</trkpt>
			<trkpt lat="-28.227009" lon="152.891935">
				<ele>85.605</ele>
				<time>2015-07-04T01:17:18Z</time>
				<extensions>
				</extensions>
			</trkpt>
			<trkpt lat="-28.227202" lon="152.891917">
				<ele>85.209</ele>
				<time>2015-07-04T01:17:19Z</time>
				<extensions>
				</extensions>
			</trkpt>
			<trkpt lat="-28.227405" lon="152.891897">
				<ele>85.414</ele>
				<time>2015-07-04T01:17:20Z</time>
				<extensions>
				</extensions>
			</trkpt>
			<trkpt lat="-28.227610" lon="152.891883">
				<ele>85.400</ele>
				<time>2015-07-04T01:17:21Z</time>
				<extensions>
				</extensions>
			</trkpt>
			<trkpt lat="-28.227808" lon="152.891870">
				<ele>86.305</ele>
				<time>2015-07-04T01:17:22Z</time>
				<extensions>
				</extensions>
			</trkpt>
			<trkpt lat="-28.228001" lon="152.891851">
				<ele>85.860</ele>
				<time>2015-07-04T01:17:23Z</time>
				<extensions>
				</extensions>
			</trkpt>
			<trkpt lat="-28.228198" lon="152.891832">
				<ele>85.591</ele>
				<time>2015-07-04T01:17:24Z</time>
				<extensions>
				</extensions>
			</trkpt>
			<trkpt lat="-28.228393" lon="152.891817">
				<ele>85.572</ele>
				<time>2015-07-04T01:17:25Z</time>
				<extensions>
				</extensions>
			</trkpt>
			<trkpt lat="-28.228592" lon="152.891795">
				<ele>85.773</ele>
				<time>2015-07-04T01:17:26Z</time>
				<extensions>
				</extensions>
			</trkpt>
			<trkpt lat="-28.228786" lon="152.891778">
				<ele>85.692</ele>
				<time>2015-07-04T01:17:27Z</time>
				<extensions>
				</extensions>
			</trkpt>
			<trkpt lat="-28.228979" lon="152.891756">
				<ele>86.283</ele>
				<time>2015-07-04T01:17:28Z</time>
				<extensions>
				</extensions>
			</trkpt>
			<trkpt lat="-28.229177" lon="152.891737">
				<ele>86.565</ele>
				<time>2015-07-04T01:17:29Z</time>
				<extensions>
				</extensions>
			</trkpt>
			<trkpt lat="-28.229373" lon="152.891716">
				<ele>86.760</ele>
				<time>2015-07-04T01:17:30Z</time>
				<extensions>
				</extensions>
			</trkpt>
			<trkpt lat="-28.229568" lon="152.891698">
				<ele>86.169</ele>
				<time>2015-07-04T01:17:31Z</time>
				<extensions>
				</extensions>
			</trkpt>
			<trkpt lat="-28.229758" lon="152.891682">
				<ele>87.094</ele>
				<time>2015-07-04T01:17:32Z</time>
				<extensions>
				</extensions>
			</trkpt>
			<trkpt lat="-28.229947" lon="152.891668">
				<ele>87.311</ele>
				<time>2015-07-04T01:17:33Z</time>
				<extensions>
				</extensions>
			</trkpt>
			<trkpt lat="-28.230138" lon="152.891649">
				<ele>89.631</ele>
				<time>2015-07-04T01:17:34Z</time>
				<extensions>
				</extensions>
			</trkpt>
			<trkpt lat="-28.230332" lon="152.891634">
				<ele>90.124</ele>
				<time>2015-07-04T01:17:35Z</time>
				<extensions>
				</extensions>
			</trkpt>
			<trkpt lat="-28.230534" lon="152.891610">
				<ele>90.832</ele>
				<time>2015-07-04T01:17:36Z</time>
				<extensions>
				</extensions>
			</trkpt>
			<trkpt lat="-28.230738" lon="152.891591">
				<ele>91.138</ele>
				<time>2015-07-04T01:17:37Z</time>
				<extensions>
				</extensions>
			</trkpt>
			<trkpt lat="-28.230932" lon="152.891576">
				<ele>91.123</ele>
				<time>2015-07-04T01:17:38Z</time>
				<extensions>
				</extensions>
			</trkpt>
			<trkpt lat="-28.231135" lon="152.891561">
				<ele>90.518</ele>
				<time>2015-07-04T01:17:39Z</time>
				<extensions>
				</extensions>
			</trkpt>
			<trkpt lat="-28.231335" lon="152.891543">
				<ele>90.407</ele>
				<time>2015-07-04T01:17:40Z</time>
				<extensions>
				</extensions>
			</trkpt>
			<trkpt lat="-28.231538" lon="152.891525">
				<ele>89.981</ele>
				<time>2015-07-04T01:17:41Z</time>
				<extensions>
				</extensions>
			</trkpt>
			<trkpt lat="-28.231740" lon="152.891502">
				<ele>90.418</ele>
				<time>2015-07-04T01:17:42Z</time>
				<extensions>
				</extensions>
			</trkpt>
			<trkpt lat="-28.231940" lon="152.891487">
				<ele>89.917</ele>
				<time>2015-07-04T01:17:43Z</time>
				<extensions>
				</extensions>
			</trkpt>
			<trkpt lat="-28.232141" lon="152.891467">
				<ele>91.067</ele>
				<time>2015-07-04T01:17:44Z</time>
				<extensions>
				</extensions>
			</trkpt>
			<trkpt lat="-28.232344" lon="152.891452">
				<ele>89.478</ele>
				<time>2015-07-04T01:17:45Z</time>
				<extensions>
				</extensions>
			</trkpt>
			<trkpt lat="-28.232548" lon="152.891432">
				<ele>90.370</ele>
				<time>2015-07-04T01:17:46Z</time>
				<extensions>
				</extensions>
			</trkpt>
			<trkpt lat="-28.232757" lon="152.891415">
				<ele>90.081</ele>
				<time>2015-07-04T01:17:47Z</time>
				<extensions>
				</extensions>
			</trkpt>
			<trkpt lat="-28.232963" lon="152.891400">
				<ele>92.159</ele>
				<time>2015-07-04T01:17:48Z</time>
				<extensions>
				</extensions>
			</trkpt>
			<trkpt lat="-28.233168" lon="152.891382">
				<ele>93.805</ele>
				<time>2015-07-04T01:17:49Z</time>
				<extensions>
				</extensions>
			</trkpt>
			<trkpt lat="-28.233373" lon="152.891366">
				<ele>93.277</ele>
				<time>2015-07-04T01:17:50Z</time>
				<extensions>
				</extensions>
			</trkpt>
			<trkpt lat="-28.233583" lon="152.891345">
				<ele>93.122</ele>
				<time>2015-07-04T01:17:51Z</time>
				<extensions>
				</extensions>
			</trkpt>
			<trkpt lat="-28.233794" lon="152.891327">
				<ele>93.653</ele>
				<time>2015-07-04T01:17:52Z</time>
				<extensions>
				</extensions>
			</trkpt>
			<trkpt lat="-28.233993" lon="152.891315">
				<ele>92.946</ele>
				<time>2015-07-04T01:17:53Z</time>
				<extensions>
				</extensions>
			</trkpt>
			<trkpt lat="-28.234204" lon="152.891296">
				<ele>93.133</ele>
				<time>2015-07-04T01:17:54Z</time>
				<extensions>
				</extensions>
			</trkpt>
			<trkpt lat="-28.234417" lon="152.891270">
				<ele>93.238</ele>
				<time>2015-07-04T01:17:55Z</time>
				<extensions>
				</extensions>
			</trkpt>
			<trkpt lat="-28.234618" lon="152.891247">
				<ele>94.376</ele>
				<time>2015-07-04T01:17:56Z</time>
				<extensions>
				</extensions>
			</trkpt>
			<trkpt lat="-28.234830" lon="152.891229">
				<ele>96.376</ele>
				<time>2015-07-04T01:17:57Z</time>
				<extensions>
				</extensions>
			</trkpt>
			<trkpt lat="-28.235039" lon="152.891206">
				<ele>95.043</ele>
				<time>2015-07-04T01:17:58Z</time>
				<extensions>
				</extensions>
			</trkpt>
			<trkpt lat="-28.235246" lon="152.891197">
				<ele>95.608</ele>
				<time>2015-07-04T01:17:59Z</time>
				<extensions>
				</extensions>
			</trkpt>
			<trkpt lat="-28.235458" lon="152.891177">
				<ele>96.296</ele>
				<time>2015-07-04T01:18:00Z</time>
				<extensions>
				</extensions>
			</trkpt>
			<trkpt lat="-28.235670" lon="152.891160">
				<ele>97.351</ele>
				<time>2015-07-04T01:18:01Z</time>
				<extensions>
				</extensions>
			</trkpt>
			<trkpt lat="-28.235882" lon="152.891135">
				<ele>96.341</ele>
				<time>2015-07-04T01:18:02Z</time>
				<extensions>
				</extensions>
			</trkpt>
			<trkpt lat="-28.236081" lon="152.891109">
				<ele>97.071</ele>
				<time>2015-07-04T01:18:03Z</time>
				<extensions>
				</extensions>
			</trkpt>
			<trkpt lat="-28.236288" lon="152.891084">
				<ele>96.134</ele>
				<time>2015-07-04T01:18:04Z</time>
				<extensions>
				</extensions>
			</trkpt>
			<trkpt lat="-28.236492" lon="152.891057">
				<ele>96.775</ele>
				<time>2015-07-04T01:18:05Z</time>
				<extensions>
				</extensions>
			</trkpt>
			<trkpt lat="-28.236700" lon="152.891021">
				<ele>95.896</ele>
				<time>2015-07-04T01:18:06Z</time>
				<extensions>
				</extensions>
			</trkpt>
			<trkpt lat="-28.236905" lon="152.890986">
				<ele>95.480</ele>
				<time>2015-07-04T01:18:07Z</time>
				<extensions>
				</extensions>
			</trkpt>
			<trkpt lat="-28.237096" lon="152.890953">
				<ele>95.009</ele>
				<time>2015-07-04T01:18:08Z</time>
				<extensions>
				</extensions>
			</trkpt>
			<trkpt lat="-28.237295" lon="152.890917">
				<ele>94.194</ele>
				<time>2015-07-04T01:18:09Z</time>
				<extensions>
				</extensions>
			</trkpt>
			<trkpt lat="-28.237501" lon="152.890880">
				<ele>94.655</ele>
				<time>2015-07-04T01:18:10Z</time>
				<extensions>
				</extensions>
			</trkpt>
			<trkpt lat="-28.237703" lon="152.890842">
				<ele>94.016</ele>
				<time>2015-07-04T01:18:11Z</time>
				<extensions>
				</extensions>
			</trkpt>
			<trkpt lat="-28.237902" lon="152.890805">
				<ele>94.844</ele>
				<time>2015-07-04T01:18:12Z</time>
				<extensions>
				</extensions>
			</trkpt>
			<trkpt lat="-28.238111" lon="152.890769">
				<ele>95.055</ele>
				<time>2015-07-04T01:18:13Z</time>
				<extensions>
				</extensions>
			</trkpt>
			<trkpt lat="-28.238326" lon="152.890731">
				<ele>94.963</ele>
				<time>2015-07-04T01:18:14Z</time>
				<extensions>
				</extensions>
			</trkpt>
			<trkpt lat="-28.238535" lon="152.890693">
				<ele>96.943</ele>
				<time>2015-07-04T01:18:15Z</time>
				<extensions>
				</extensions>
			</trkpt>
			<trkpt lat="-28.238754" lon="152.890652">
				<ele>96.200</ele>
				<time>2015-07-04T01:18:16Z</time>
				<extensions>
				</extensions>
			</trkpt>
			<trkpt lat="-28.238972" lon="152.890621">
				<ele>98.370</ele>
				<time>2015-07-04T01:18:17Z</time>
				<extensions>
				</extensions>
			</trkpt>
			<trkpt lat="-28.239185" lon="152.890581">
				<ele>98.777</ele>
				<time>2015-07-04T01:18:18Z</time>
				<extensions>
				</extensions>
			</trkpt>
			<trkpt lat="-28.239394" lon="152.890541">
				<ele>99.573</ele>
				<time>2015-07-04T01:18:19Z</time>
				<extensions>
				</extensions>
			</trkpt>
			<trkpt lat="-28.239604" lon="152.890501">
				<ele>99.648</ele>
				<time>2015-07-04T01:18:20Z</time>
				<extensions>
				</extensions>
			</trkpt>
			<trkpt lat="-28.239813" lon="152.890463">
				<ele>100.952</ele>
				<time>2015-07-04T01:18:21Z</time>
				<extensions>
				</extensions>
			</trkpt>
			<trkpt lat="-28.240019" lon="152.890427">
				<ele>101.519</ele>
				<time>2015-07-04T01:18:22Z</time>
				<extensions>
				</extensions>
			</trkpt>
			<trkpt lat="-28.240227" lon="152.890387">
				<ele>102.121</ele>
				<time>2015-07-04T01:18:23Z</time>
				<extensions>
				</extensions>
			</trkpt>
			<trkpt lat="-28.240435" lon="152.890345">
				<ele>100.301</ele>
				<time>2015-07-04T01:18:24Z</time>
				<extensions>
				</extensions>
			</trkpt>
			<trkpt lat="-28.240633" lon="152.890306">
				<ele>101.451</ele>
				<time>2015-07-04T01:18:25Z</time>
				<extensions>
				</extensions>
			</trkpt>
			<trkpt lat="-28.240833" lon="152.890266">
				<ele>100.261</ele>
				<time>2015-07-04T01:18:26Z</time>
				<extensions>
				</extensions>
			</trkpt>
			<trkpt lat="-28.241034" lon="152.890234">
				<ele>100.966</ele>
				<time>2015-07-04T01:18:27Z</time>
				<extensions>
				</extensions>
			</trkpt>
			<trkpt lat="-28.241235" lon="152.890211">
				<ele>100.387</ele>
				<time>2015-07-04T01:18:28Z</time>
				<extensions>
				</extensions>
			</trkpt>
			<trkpt lat="-28.241441" lon="152.890191">
				<ele>100.770</ele>
				<time>2015-07-04T01:18:29Z</time>
				<extensions>
				</extensions>
			</trkpt>
			<trkpt lat="-28.241647" lon="152.890170">
				<ele>102.088</ele>
				<time>2015-07-04T01:18:30Z</time>
				<extensions>
				</extensions>
			</trkpt>
			<trkpt lat="-28.241849" lon="152.890149">
				<ele>101.000</ele>
				<time>2015-07-04T01:18:31Z</time>
				<extensions>
				</extensions>
			</trkpt>
			<trkpt lat="-28.242057" lon="152.890132">
				<ele>101.928</ele>
				<time>2015-07-04T01:18:32Z</time>
				<extensions>
				</extensions>
			</trkpt>
			<trkpt lat="-28.242268" lon="152.890113">
				<ele>100.814</ele>
				<time>2015-07-04T01:18:33Z</time>
				<extensions>
				</extensions>
			</trkpt>
			<trkpt lat="-28.242472" lon="152.890098">
				<ele>100.385</ele>
				<time>2015-07-04T01:18:34Z</time>
				<extensions>
				</extensions>
			</trkpt>
			<trkpt lat="-28.242677" lon="152.890082">
				<ele>100.467</ele>
				<time>2015-07-04T01:18:35Z</time>
				<extensions>
				</extensions>
			</trkpt>
			<trkpt lat="-28.242875" lon="152.890068">
				<ele>99.423</ele>
				<time>2015-07-04T01:18:36Z</time>
				<extensions>
				</extensions>
			</trkpt>
			<trkpt lat="-28.243070" lon="152.890050">
				<ele>99.250</ele>
				<time>2015-07-04T01:18:37Z</time>
				<extensions>
				</extensions>
			</trkpt>
			<trkpt lat="-28.243257" lon="152.890030">
				<ele>99.596</ele>
				<time>2015-07-04T01:18:38Z</time>
				<extensions>
				</extensions>
			</trkpt>
			<trkpt lat="-28.243453" lon="152.890013">
				<ele>99.596</ele>
				<time>2015-07-04T01:18:39Z</time>
				<extensions>
				</extensions>
			</trkpt>
			<trkpt lat="-28.243643" lon="152.889997">
				<ele>99.351</ele>
				<time>2015-07-04T01:18:40Z</time>
				<extensions>
				</extensions>
			</trkpt>
			<trkpt lat="-28.243831" lon="152.889985">
				<ele>99.777</ele>
				<time>2015-07-04T01:18:41Z</time>
				<extensions>
				</extensions>
			</trkpt>
			<trkpt lat="-28.244011" lon="152.889972">
				<ele>101.480</ele>
				<time>2015-07-04T01:18:42Z</time>
				<extensions>
				</extensions>
			</trkpt>
			<trkpt lat="-28.244361" lon="152.889946">
				<ele>99.525</ele>
				<time>2015-07-04T01:18:44Z</time>
				<extensions>
				</extensions>
			</trkpt>
			<trkpt lat="-28.244698" lon="152.889920">
				<ele>97.269</ele>
				<time>2015-07-04T01:18:46Z</time>
				<extensions>
				</extensions>
			</trkpt>
			<trkpt lat="-28.245037" lon="152.889885">
				<ele>95.859</ele>
				<time>2015-07-04T01:18:48Z</time>
				<extensions>
				</extensions>
			</trkpt>
			<trkpt lat="-28.245370" lon="152.889861">
				<ele>94.348</ele>
				<time>2015-07-04T01:18:50Z</time>
				<extensions>
				</extensions>
			</trkpt>
			<trkpt lat="-28.245685" lon="152.889878">
				<ele>94.104</ele>
				<time>2015-07-04T01:18:52Z</time>
				<extensions>
				</extensions>
			</trkpt>
			<trkpt lat="-28.245961" lon="152.890037">
				<ele>97.066</ele>
				<time>2015-07-04T01:18:54Z</time>
				<extensions>
				</extensions>
			</trkpt>
			<trkpt lat="-28.246258" lon="152.890285">
				<ele>100.569</ele>
				<time>2015-07-04T01:18:56Z</time>
				<extensions>
				</extensions>
			</trkpt>
			<trkpt lat="-28.246431" lon="152.890410">
				<ele>102.221</ele>
				<time>2015-07-04T01:18:57Z</time>
				<extensions>
				</extensions>
			</trkpt>
			<trkpt lat="-28.246594" lon="152.890523">
				<ele>101.614</ele>
				<time>2015-07-04T01:18:58Z</time>
				<extensions>
				</extensions>
			</trkpt>
			<trkpt lat="-28.246754" lon="152.890639">
				<ele>98.918</ele>
				<time>2015-07-04T01:18:59Z</time>
				<extensions>
				</extensions>
			</trkpt>
			<trkpt lat="-28.247050" lon="152.890852">
				<ele>97.250</ele>
				<time>2015-07-04T01:19:01Z</time>
				<extensions>
				</extensions>
			</trkpt>
			<trkpt lat="-28.247336" lon="152.891062">
				<ele>96.844</ele>
				<time>2015-07-04T01:19:03Z</time>
				<extensions>
				</extensions>
			</trkpt>
			<trkpt lat="-28.247631" lon="152.891249">
				<ele>96.917</ele>
				<time>2015-07-04T01:19:05Z</time>
				<extensions>
				</extensions>
			</trkpt>
			<trkpt lat="-28.247943" lon="152.891408">
				<ele>96.993</ele>
				<time>2015-07-04T01:19:07Z</time>
				<extensions>
				</extensions>
			</trkpt>
			<trkpt lat="-28.248290" lon="152.891529">
				<ele>98.928</ele>
				<time>2015-07-04T01:19:09Z</time>
				<extensions>
				</extensions>
			</trkpt>
			<trkpt lat="-28.248642" lon="152.891630">
				<ele>99.572</ele>
				<time>2015-07-04T01:19:11Z</time>
				<extensions>
				</extensions>
			</trkpt>
			<trkpt lat="-28.248821" lon="152.891685">
				<ele>99.258</ele>
				<time>2015-07-04T01:19:12Z</time>
				<extensions>
				</extensions>
			</trkpt>
			<trkpt lat="-28.249005" lon="152.891733">
				<ele>99.847</ele>
				<time>2015-07-04T01:19:13Z</time>
				<extensions>
				</extensions>
			</trkpt>
			<trkpt lat="-28.249190" lon="152.891784">
				<ele>100.165</ele>
				<time>2015-07-04T01:19:14Z</time>
				<extensions>
				</extensions>
			</trkpt>
			<trkpt lat="-28.249369" lon="152.891837">
				<ele>100.727</ele>
				<time>2015-07-04T01:19:15Z</time>
				<extensions>
				</extensions>
			</trkpt>
			<trkpt lat="-28.249555" lon="152.891885">
				<ele>100.301</ele>
				<time>2015-07-04T01:19:16Z</time>
				<extensions>
				</extensions>
			</trkpt>
			<trkpt lat="-28.249744" lon="152.891934">
				<ele>99.352</ele>
				<time>2015-07-04T01:19:17Z</time>
				<extensions>
				</extensions>
			</trkpt>
			<trkpt lat="-28.249938" lon="152.892011">
				<ele>100.461</ele>
				<time>2015-07-04T01:19:18Z</time>
				<extensions>
				</extensions>
			</trkpt>
			<trkpt lat="-28.250119" lon="152.892076">
				<ele>100.726</ele>
				<time>2015-07-04T01:19:19Z</time>
				<extensions>
				</extensions>
			</trkpt>
			<trkpt lat="-28.250471" lon="152.892201">
				<ele>101.191</ele>
				<time>2015-07-04T01:19:21Z</time>
				<extensions>
				</extensions>
			</trkpt>
			<trkpt lat="-28.250646" lon="152.892274">
				<ele>101.781</ele>
				<time>2015-07-04T01:19:22Z</time>
				<extensions>
				</extensions>
			</trkpt>
			<trkpt lat="-28.250816" lon="152.892363">
				<ele>102.675</ele>
				<time>2015-07-04T01:19:23Z</time>
				<extensions>
				</extensions>
			</trkpt>
			<trkpt lat="-28.250986" lon="152.892462">
				<ele>104.788</ele>
				<time>2015-07-04T01:19:24Z</time>
				<extensions>
				</extensions>
			</trkpt>
			<trkpt lat="-28.251147" lon="152.892579">
				<ele>104.164</ele>
				<time>2015-07-04T01:19:25Z</time>
				<extensions>
				</extensions>
			</trkpt>
			<trkpt lat="-28.251308" lon="152.892716">
				<ele>104.486</ele>
				<time>2015-07-04T01:19:26Z</time>
				<extensions>
				</extensions>
			</trkpt>
			<trkpt lat="-28.251464" lon="152.892868">
				<ele>104.972</ele>
				<time>2015-07-04T01:19:27Z</time>
				<extensions>
				</extensions>
			</trkpt>
			<trkpt lat="-28.251614" lon="152.893031">
				<ele>105.217</ele>
				<time>2015-07-04T01:19:28Z</time>
				<extensions>
				</extensions>
			</trkpt>
			<trkpt lat="-28.251745" lon="152.893213">
				<ele>105.379</ele>
				<time>2015-07-04T01:19:29Z</time>
				<extensions>
				</extensions>
			</trkpt>
			<trkpt lat="-28.251870" lon="152.893402">
				<ele>106.421</ele>
				<time>2015-07-04T01:19:30Z</time>
				<extensions>
				</extensions>
			</trkpt>
			<trkpt lat="-28.251988" lon="152.893596">
				<ele>106.264</ele>
				<time>2015-07-04T01:19:31Z</time>
				<extensions>
				</extensions>
			</trkpt>
			<trkpt lat="-28.252104" lon="152.893788">
				<ele>107.234</ele>
				<time>2015-07-04T01:19:32Z</time>
				<extensions>
				</extensions>
			</trkpt>
			<trkpt lat="-28.252211" lon="152.893984">
				<ele>107.647</ele>
				<time>2015-07-04T01:19:33Z</time>
				<extensions>
				</extensions>
			</trkpt>
			<trkpt lat="-28.252313" lon="152.894174">
				<ele>105.763</ele>
				<time>2015-07-04T01:19:34Z</time>
				<extensions>
				</extensions>
			</trkpt>
			<trkpt lat="-28.252410" lon="152.894353">
				<ele>104.830</ele>
				<time>2015-07-04T01:19:35Z</time>
				<extensions>
				</extensions>
			</trkpt>
			<trkpt lat="-28.252502" lon="152.894529">
				<ele>104.877</ele>
				<time>2015-07-04T01:19:36Z</time>
				<extensions>
				</extensions>
			</trkpt>
			<trkpt lat="-28.252602" lon="152.894704">
				<ele>103.848</ele>
				<time>2015-07-04T01:19:37Z</time>
				<extensions>
				</extensions>
			</trkpt>
			<trkpt lat="-28.252697" lon="152.894881">
				<ele>102.684</ele>
				<time>2015-07-04T01:19:38Z</time>
				<extensions>
				</extensions>
			</trkpt>
			<trkpt lat="-28.252886" lon="152.895230">
				<ele>102.394</ele>
				<time>2015-07-04T01:19:40Z</time>
				<extensions>
				</extensions>
			</trkpt>
			<trkpt lat="-28.253063" lon="152.895576">
				<ele>102.638</ele>
				<time>2015-07-04T01:19:42Z</time>
				<extensions>
				</extensions>
			</trkpt>
			<trkpt lat="-28.253252" lon="152.895920">
				<ele>101.250</ele>
				<time>2015-07-04T01:19:44Z</time>
				<extensions>
				</extensions>
			</trkpt>
			<trkpt lat="-28.253435" lon="152.896263">
				<ele>102.781</ele>
				<time>2015-07-04T01:19:46Z</time>
				<extensions>
				</extensions>
			</trkpt>
			<trkpt lat="-28.253605" lon="152.896591">
				<ele>100.289</ele>
				<time>2015-07-04T01:19:48Z</time>
				<extensions>
				</extensions>
			</trkpt>
			<trkpt lat="-28.253769" lon="152.896950">
				<ele>101.791</ele>
				<time>2015-07-04T01:19:50Z</time>
				<extensions>
				</extensions>
			</trkpt>
			<trkpt lat="-28.253833" lon="152.897142">
				<ele>100.898</ele>
				<time>2015-07-04T01:19:51Z</time>
				<extensions>
				</extensions>
			</trkpt>
			<trkpt lat="-28.253900" lon="152.897341">
				<ele>100.901</ele>
				<time>2015-07-04T01:19:52Z</time>
				<extensions>
				</extensions>
			</trkpt>
			<trkpt lat="-28.253948" lon="152.897554">
				<ele>101.160</ele>
				<time>2015-07-04T01:19:53Z</time>
				<extensions>
				</extensions>
			</trkpt>
			<trkpt lat="-28.253983" lon="152.897767">
				<ele>100.788</ele>
				<time>2015-07-04T01:19:54Z</time>
				<extensions>
				</extensions>
			</trkpt>
			<trkpt lat="-28.254009" lon="152.897991">
				<ele>100.293</ele>
				<time>2015-07-04T01:19:55Z</time>
				<extensions>
				</extensions>
			</trkpt>
			<trkpt lat="-28.254022" lon="152.898205">
				<ele>99.465</ele>
				<time>2015-07-04T01:19:56Z</time>
				<extensions>
				</extensions>
			</trkpt>
			<trkpt lat="-28.254021" lon="152.898420">
				<ele>101.630</ele>
				<time>2015-07-04T01:19:57Z</time>
				<extensions>
				</extensions>
			</trkpt>
			<trkpt lat="-28.254008" lon="152.898644">
				<ele>100.298</ele>
				<time>2015-07-04T01:19:58Z</time>
				<extensions>
				</extensions>
			</trkpt>
			<trkpt lat="-28.253969" lon="152.898872">
				<ele>100.298</ele>
				<time>2015-07-04T01:19:59Z</time>
				<extensions>
				</extensions>
			</trkpt>
			<trkpt lat="-28.253925" lon="152.899105">
				<ele>99.947</ele>
				<time>2015-07-04T01:20:00Z</time>
				<extensions>
				</extensions>
			</trkpt>
			<trkpt lat="-28.253879" lon="152.899334">
				<ele>100.168</ele>
				<time>2015-07-04T01:20:01Z</time>
				<extensions>
				</extensions>
			</trkpt>
			<trkpt lat="-28.253830" lon="152.899561">
				<ele>99.845</ele>
				<time>2015-07-04T01:20:02Z</time>
				<extensions>
				</extensions>
			</trkpt>
			<trkpt lat="-28.253778" lon="152.899780">
				<ele>98.786</ele>
				<time>2015-07-04T01:20:03Z</time>
				<extensions>
				</extensions>
			</trkpt>
			<trkpt lat="-28.253720" lon="152.900000">
				<ele>97.836</ele>
				<time>2015-07-04T01:20:04Z</time>
				<extensions>
				</extensions>
			</trkpt>
			<trkpt lat="-28.253666" lon="152.900216">
				<ele>98.448</ele>
				<time>2015-07-04T01:20:05Z</time>
				<extensions>
				</extensions>
			</trkpt>
			<trkpt lat="-28.253613" lon="152.900433">
				<ele>98.076</ele>
				<time>2015-07-04T01:20:06Z</time>
				<extensions>
				</extensions>
			</trkpt>
			<trkpt lat="-28.253566" lon="152.900657">
				<ele>98.966</ele>
				<time>2015-07-04T01:20:07Z</time>
				<extensions>
				</extensions>
			</trkpt>
			<trkpt lat="-28.253531" lon="152.900888">
				<ele>99.897</ele>
				<time>2015-07-04T01:20:08Z</time>
				<extensions>
				</extensions>
			</trkpt>
			<trkpt lat="-28.253508" lon="152.901111">
				<ele>100.531</ele>
				<time>2015-07-04T01:20:09Z</time>
				<extensions>
				</extensions>
			</trkpt>
			<trkpt lat="-28.253495" lon="152.901326">
				<ele>100.378</ele>
				<time>2015-07-04T01:20:10Z</time>
				<extensions>
				</extensions>
			</trkpt>
			<trkpt lat="-28.253500" lon="152.901532">
				<ele>98.745</ele>
				<time>2015-07-04T01:20:11Z</time>
				<extensions>
				</extensions>
			</trkpt>
			<trkpt lat="-28.253512" lon="152.901747">
				<ele>98.136</ele>
				<time>2015-07-04T01:20:12Z</time>
				<extensions>
				</extensions>
			</trkpt>
			<trkpt lat="-28.253539" lon="152.901952">
				<ele>97.639</ele>
				<time>2015-07-04T01:20:13Z</time>
				<extensions>
				</extensions>
			</trkpt>
			<trkpt lat="-28.253619" lon="152.902363">
				<ele>97.832</ele>
				<time>2015-07-04T01:20:15Z</time>
				<extensions>
				</extensions>
			</trkpt>
			<trkpt lat="-28.253684" lon="152.902567">
				<ele>98.930</ele>
				<time>2015-07-04T01:20:16Z</time>
				<extensions>
				</extensions>
			</trkpt>
			<trkpt lat="-28.253755" lon="152.902771">
				<ele>100.345</ele>
				<time>2015-07-04T01:20:17Z</time>
				<extensions>
				</extensions>
			</trkpt>
			<trkpt lat="-28.253845" lon="152.902968">
				<ele>102.172</ele>
				<time>2015-07-04T01:20:18Z</time>
				<extensions>
				</extensions>
			</trkpt>
			<trkpt lat="-28.253956" lon="152.903168">
				<ele>102.059</ele>
				<time>2015-07-04T01:20:19Z</time>
				<extensions>
				</extensions>
			</trkpt>
			<trkpt lat="-28.254069" lon="152.903362">
				<ele>102.261</ele>
				<time>2015-07-04T01:20:20Z</time>
				<extensions>
				</extensions>
			</trkpt>
			<trkpt lat="-28.254191" lon="152.903547">
				<ele>103.522</ele>
				<time>2015-07-04T01:20:21Z</time>
				<extensions>
				</extensions>
			</trkpt>
			<trkpt lat="-28.254319" lon="152.903713">
				<ele>104.268</ele>
				<time>2015-07-04T01:20:22Z</time>
				<extensions>
				</extensions>
			</trkpt>
			<trkpt lat="-28.254449" lon="152.903878">
				<ele>103.251</ele>
				<time>2015-07-04T01:20:23Z</time>
				<extensions>
				</extensions>
			</trkpt>
			<trkpt lat="-28.254583" lon="152.904031">
				<ele>102.705</ele>
				<time>2015-07-04T01:20:24Z</time>
				<extensions>
				</extensions>
			</trkpt>
			<trkpt lat="-28.254821" lon="152.904320">
				<ele>101.826</ele>
				<time>2015-07-04T01:20:26Z</time>
				<extensions>
				</extensions>
			</trkpt>
			<trkpt lat="-28.255057" lon="152.904603">
				<ele>100.820</ele>
				<time>2015-07-04T01:20:28Z</time>
				<extensions>
				</extensions>
			</trkpt>
			<trkpt lat="-28.255282" lon="152.904857">
				<ele>101.002</ele>
				<time>2015-07-04T01:20:30Z</time>
				<extensions>
				</extensions>
			</trkpt>
			<trkpt lat="-28.255513" lon="152.905118">
				<ele>99.312</ele>
				<time>2015-07-04T01:20:32Z</time>
				<extensions>
				</extensions>
			</trkpt>
			<trkpt lat="-28.255758" lon="152.905385">
				<ele>100.149</ele>
				<time>2015-07-04T01:20:34Z</time>
				<extensions>
				</extensions>
			</trkpt>
			<trkpt lat="-28.256014" lon="152.905648">
				<ele>100.592</ele>
				<time>2015-07-04T01:20:36Z</time>
				<extensions>
				</extensions>
			</trkpt>
			<trkpt lat="-28.256305" lon="152.905879">
				<ele>102.133</ele>
				<time>2015-07-04T01:20:38Z</time>
				<extensions>
				</extensions>
			</trkpt>
			<trkpt lat="-28.256470" lon="152.905980">
				<ele>102.473</ele>
				<time>2015-07-04T01:20:39Z</time>
				<extensions>
				</extensions>
			</trkpt>
			<trkpt lat="-28.256647" lon="152.906068">
				<ele>102.969</ele>
				<time>2015-07-04T01:20:40Z</time>
				<extensions>
				</extensions>
			</trkpt>
			<trkpt lat="-28.256824" lon="152.906151">
				<ele>104.515</ele>
				<time>2015-07-04T01:20:41Z</time>
				<extensions>
				</extensions>
			</trkpt>
			<trkpt lat="-28.257008" lon="152.906218">
				<ele>104.657</ele>
				<time>2015-07-04T01:20:42Z</time>
				<extensions>
				</extensions>
			</trkpt>
			<trkpt lat="-28.257191" lon="152.906274">
				<ele>105.473</ele>
				<time>2015-07-04T01:20:43Z</time>
				<extensions>
				</extensions>
			</trkpt>
			<trkpt lat="-28.257379" lon="152.906319">
				<ele>105.728</ele>
				<time>2015-07-04T01:20:44Z</time>
				<extensions>
				</extensions>
			</trkpt>
			<trkpt lat="-28.257570" lon="152.906355">
				<ele>107.595</ele>
				<time>2015-07-04T01:20:45Z</time>
				<extensions>
				</extensions>
			</trkpt>
			<trkpt lat="-28.257769" lon="152.906383">
				<ele>107.384</ele>
				<time>2015-07-04T01:20:46Z</time>
				<extensions>
				</extensions>
			</trkpt>
			<trkpt lat="-28.257970" lon="152.906421">
				<ele>108.534</ele>
				<time>2015-07-04T01:20:47Z</time>
				<extensions>
				</extensions>
			</trkpt>
			<trkpt lat="-28.258161" lon="152.906454">
				<ele>109.885</ele>
				<time>2015-07-04T01:20:48Z</time>
				<extensions>
				</extensions>
			</trkpt>
			<trkpt lat="-28.258353" lon="152.906482">
				<ele>110.344</ele>
				<time>2015-07-04T01:20:49Z</time>
				<extensions>
				</extensions>
			</trkpt>
			<trkpt lat="-28.258540" lon="152.906502">
				<ele>109.925</ele>
				<time>2015-07-04T01:20:50Z</time>
				<extensions>
				</extensions>
			</trkpt>
			<trkpt lat="-28.258723" lon="152.906534">
				<ele>109.484</ele>
				<time>2015-07-04T01:20:51Z</time>
				<extensions>
				</extensions>
			</trkpt>
			<trkpt lat="-28.258904" lon="152.906569">
				<ele>110.780</ele>
				<time>2015-07-04T01:20:52Z</time>
				<extensions>
				</extensions>
			</trkpt>
			<trkpt lat="-28.259082" lon="152.906610">
				<ele>110.666</ele>
				<time>2015-07-04T01:20:53Z</time>
				<extensions>
				</extensions>
			</trkpt>
			<trkpt lat="-28.259269" lon="152.906661">
				<ele>111.596</ele>
				<time>2015-07-04T01:20:54Z</time>
				<extensions>
				</extensions>
			</trkpt>
			<trkpt lat="-28.259448" lon="152.906709">
				<ele>111.732</ele>
				<time>2015-07-04T01:20:55Z</time>
				<extensions>
				</extensions>
			</trkpt>
			<trkpt lat="-28.259631" lon="152.906779">
				<ele>112.331</ele>
				<time>2015-07-04T01:20:56Z</time>
				<extensions>
				</extensions>
			</trkpt>
			<trkpt lat="-28.259812" lon="152.906861">
				<ele>112.404</ele>
				<time>2015-07-04T01:20:57Z</time>
				<extensions>
				</extensions>
			</trkpt>
			<trkpt lat="-28.259994" lon="152.906944">
				<ele>112.844</ele>
				<time>2015-07-04T01:20:58Z</time>
				<extensions>
				</extensions>
			</trkpt>
			<trkpt lat="-28.260184" lon="152.907044">
				<ele>113.520</ele>
				<time>2015-07-04T01:20:59Z</time>
				<extensions>
				</extensions>
			</trkpt>
			<trkpt lat="-28.260369" lon="152.907161">
				<ele>113.814</ele>
				<time>2015-07-04T01:21:00Z</time>
				<extensions>
				</extensions>
			</trkpt>
			<trkpt lat="-28.260536" lon="152.907277">
				<ele>114.748</ele>
				<time>2015-07-04T01:21:01Z</time>
				<extensions>
				</extensions>
			</trkpt>
			<trkpt lat="-28.260702" lon="152.907400">
				<ele>114.467</ele>
				<time>2015-07-04T01:21:02Z</time>
				<extensions>
				</extensions>
			</trkpt>
			<trkpt lat="-28.260861" lon="152.907545">
				<ele>114.443</ele>
				<time>2015-07-04T01:21:03Z</time>
				<extensions>
				</extensions>
			</trkpt>
			<trkpt lat="-28.261027" lon="152.907698">
				<ele>115.138</ele>
				<time>2015-07-04T01:21:04Z</time>
				<extensions>
				</extensions>
			</trkpt>
			<trkpt lat="-28.261176" lon="152.907860">
				<ele>116.916</ele>
				<time>2015-07-04T01:21:05Z</time>
				<extensions>
				</extensions>
			</trkpt>
			<trkpt lat="-28.261340" lon="152.908019">
				<ele>116.421</ele>
				<time>2015-07-04T01:21:06Z</time>
				<extensions>
				</extensions>
			</trkpt>
			<trkpt lat="-28.261504" lon="152.908177">
				<ele>114.618</ele>
				<time>2015-07-04T01:21:07Z</time>
				<extensions>
				</extensions>
			</trkpt>
			<trkpt lat="-28.261658" lon="152.908335">
				<ele>112.399</ele>
				<time>2015-07-04T01:21:08Z</time>
				<extensions>
				</extensions>
			</trkpt>
			<trkpt lat="-28.261807" lon="152.908486">
				<ele>110.578</ele>
				<time>2015-07-04T01:21:09Z</time>
				<extensions>
				</extensions>
			</trkpt>
			<trkpt lat="-28.261940" lon="152.908628">
				<ele>109.861</ele>
				<time>2015-07-04T01:21:10Z</time>
				<extensions>
				</extensions>
			</trkpt>
			<trkpt lat="-28.262075" lon="152.908772">
				<ele>108.737</ele>
				<time>2015-07-04T01:21:11Z</time>
				<extensions>
				</extensions>
			</trkpt>
			<trkpt lat="-28.262207" lon="152.908916">
				<ele>108.611</ele>
				<time>2015-07-04T01:21:12Z</time>
				<extensions>
				</extensions>
			</trkpt>
			<trkpt lat="-28.262472" lon="152.909188">
				<ele>110.218</ele>
				<time>2015-07-04T01:21:14Z</time>
				<extensions>
				</extensions>
			</trkpt>
			<trkpt lat="-28.262612" lon="152.909331">
				<ele>110.360</ele>
				<time>2015-07-04T01:21:15Z</time>
				<extensions>
				</extensions>
			</trkpt>
			<trkpt lat="-28.262750" lon="152.909470">
				<ele>111.859</ele>
				<time>2015-07-04T01:21:16Z</time>
				<extensions>
				</extensions>
			</trkpt>
			<trkpt lat="-28.262886" lon="152.909612">
				<ele>111.732</ele>
				<time>2015-07-04T01:21:17Z</time>
				<extensions>
				</extensions>
			</trkpt>
			<trkpt lat="-28.263156" lon="152.909892">
				<ele>112.023</ele>
				<time>2015-07-04T01:21:19Z</time>
				<extensions>
				</extensions>
			</trkpt>
			<trkpt lat="-28.263303" lon="152.910020">
				<ele>112.584</ele>
				<time>2015-07-04T01:21:20Z</time>
				<extensions>
				</extensions>
			</trkpt>
			<trkpt lat="-28.263449" lon="152.910142">
				<ele>112.204</ele>
				<time>2015-07-04T01:21:21Z</time>
				<extensions>
				</extensions>
			</trkpt>
			<trkpt lat="-28.263605" lon="152.910256">
				<ele>112.124</ele>
				<time>2015-07-04T01:21:22Z</time>
				<extensions>
				</extensions>
			</trkpt>
			<trkpt lat="-28.263763" lon="152.910357">
				<ele>112.124</ele>
				<time>2015-07-04T01:21:23Z</time>
				<extensions>
				</extensions>
			</trkpt>
			<trkpt lat="-28.263932" lon="152.910446">
				<ele>112.170</ele>
				<time>2015-07-04T01:21:24Z</time>
				<extensions>
				</extensions>
			</trkpt>
			<trkpt lat="-28.264111" lon="152.910523">
				<ele>111.694</ele>
				<time>2015-07-04T01:21:25Z</time>
				<extensions>
				</extensions>
			</trkpt>
			<trkpt lat="-28.264294" lon="152.910594">
				<ele>112.263</ele>
				<time>2015-07-04T01:21:26Z</time>
				<extensions>
				</extensions>
			</trkpt>
			<trkpt lat="-28.264481" lon="152.910654">
				<ele>111.386</ele>
				<time>2015-07-04T01:21:27Z</time>
				<extensions>
				</extensions>
			</trkpt>
			<trkpt lat="-28.264674" lon="152.910711">
				<ele>111.861</ele>
				<time>2015-07-04T01:21:28Z</time>
				<extensions>
				</extensions>
			</trkpt>
			<trkpt lat="-28.264872" lon="152.910747">
				<ele>112.115</ele>
				<time>2015-07-04T01:21:29Z</time>
				<extensions>
				</extensions>
			</trkpt>
			<trkpt lat="-28.265076" lon="152.910765">
				<ele>113.618</ele>
				<time>2015-07-04T01:21:30Z</time>
				<extensions>
				</extensions>
			</trkpt>
			<trkpt lat="-28.265295" lon="152.910777">
				<ele>115.053</ele>
				<time>2015-07-04T01:21:31Z</time>
				<extensions>
				</extensions>
			</trkpt>
			<trkpt lat="-28.265504" lon="152.910774">
				<ele>116.587</ele>
				<time>2015-07-04T01:21:32Z</time>
				<extensions>
				</extensions>
			</trkpt>
			<trkpt lat="-28.265725" lon="152.910751">
				<ele>116.495</ele>
				<time>2015-07-04T01:21:33Z</time>
				<extensions>
				</extensions>
			</trkpt>
			<trkpt lat="-28.265934" lon="152.910719">
				<ele>117.041</ele>
				<time>2015-07-04T01:21:34Z</time>
				<extensions>
				</extensions>
			</trkpt>
			<trkpt lat="-28.266132" lon="152.910685">
				<ele>116.794</ele>
				<time>2015-07-04T01:21:35Z</time>
				<extensions>
				</extensions>
			</trkpt>
			<trkpt lat="-28.266327" lon="152.910647">
				<ele>115.529</ele>
				<time>2015-07-04T01:21:36Z</time>
				<extensions>
				</extensions>
			</trkpt>
			<trkpt lat="-28.266510" lon="152.910609">
				<ele>115.391</ele>
				<time>2015-07-04T01:21:37Z</time>
				<extensions>
				</extensions>
			</trkpt>
			<trkpt lat="-28.266867" lon="152.910542">
				<ele>112.707</ele>
				<time>2015-07-04T01:21:39Z</time>
				<extensions>
				</extensions>
			</trkpt>
			<trkpt lat="-28.267047" lon="152.910509">
				<ele>112.863</ele>
				<time>2015-07-04T01:21:40Z</time>
				<extensions>
				</extensions>
			</trkpt>
			<trkpt lat="-28.267233" lon="152.910473">
				<ele>113.669</ele>
				<time>2015-07-04T01:21:41Z</time>
				<extensions>
				</extensions>
			</trkpt>
			<trkpt lat="-28.267413" lon="152.910437">
				<ele>114.150</ele>
				<time>2015-07-04T01:21:42Z</time>
				<extensions>
				</extensions>
			</trkpt>
			<trkpt lat="-28.267752" lon="152.910365">
				<ele>113.025</ele>
				<time>2015-07-04T01:21:44Z</time>
				<extensions>
				</extensions>
			</trkpt>
			<trkpt lat="-28.268073" lon="152.910283">
				<ele>111.507</ele>
				<time>2015-07-04T01:21:46Z</time>
				<extensions>
				</extensions>
			</trkpt>
			<trkpt lat="-28.268366" lon="152.910195">
				<ele>110.744</ele>
				<time>2015-07-04T01:21:48Z</time>
				<extensions>
				</extensions>
			</trkpt>
			<trkpt lat="-28.268663" lon="152.910106">
				<ele>111.031</ele>
				<time>2015-07-04T01:21:50Z</time>
				<extensions>
				</extensions>
			</trkpt>
			<trkpt lat="-28.268972" lon="152.910010">
				<ele>111.864</ele>
				<time>2015-07-04T01:21:52Z</time>
				<extensions>
				</extensions>
			</trkpt>
			<trkpt lat="-28.269284" lon="152.909923">
				<ele>112.074</ele>
				<time>2015-07-04T01:21:54Z</time>
				<extensions>
				</extensions>
			</trkpt>
			<trkpt lat="-28.269595" lon="152.909828">
				<ele>111.277</ele>
				<time>2015-07-04T01:21:56Z</time>
				<extensions>
				</extensions>
			</trkpt>
			<trkpt lat="-28.269903" lon="152.909737">
				<ele>111.600</ele>
				<time>2015-07-04T01:21:58Z</time>
				<extensions>
				</extensions>
			</trkpt>
			<trkpt lat="-28.270219" lon="152.909624">
				<ele>112.068</ele>
				<time>2015-07-04T01:22:00Z</time>
				<extensions>
				</extensions>
			</trkpt>
			<trkpt lat="-28.270559" lon="152.909525">
				<ele>117.416</ele>
				<time>2015-07-04T01:22:02Z</time>
				<extensions>
				</extensions>
			</trkpt>
			<trkpt lat="-28.270742" lon="152.909470">
				<ele>117.453</ele>
				<time>2015-07-04T01:22:03Z</time>
				<extensions>
				</extensions>
			</trkpt>
			<trkpt lat="-28.270935" lon="152.909414">
				<ele>117.792</ele>
				<time>2015-07-04T01:22:04Z</time>
				<extensions>
				</extensions>
			</trkpt>
			<trkpt lat="-28.271127" lon="152.909353">
				<ele>117.265</ele>
				<time>2015-07-04T01:22:05Z</time>
				<extensions>
				</extensions>
			</trkpt>
			<trkpt lat="-28.271320" lon="152.909307">
				<ele>117.981</ele>
				<time>2015-07-04T01:22:06Z</time>
				<extensions>
				</extensions>
			</trkpt>
			<trkpt lat="-28.271503" lon="152.909263">
				<ele>118.857</ele>
				<time>2015-07-04T01:22:07Z</time>
				<extensions>
				</extensions>
			</trkpt>
			<trkpt lat="-28.271697" lon="152.909221">
				<ele>118.258</ele>
				<time>2015-07-04T01:22:08Z</time>
				<extensions>
				</extensions>
			</trkpt>
			<trkpt lat="-28.271886" lon="152.909172">
				<ele>119.530</ele>
				<time>2015-07-04T01:22:09Z</time>
				<extensions>
				</extensions>
			</trkpt>
			<trkpt lat="-28.272070" lon="152.909133">
				<ele>119.055</ele>
				<time>2015-07-04T01:22:10Z</time>
				<extensions>
				</extensions>
			</trkpt>
			<trkpt lat="-28.272249" lon="152.909104">
				<ele>118.290</ele>
				<time>2015-07-04T01:22:11Z</time>
				<extensions>
				</extensions>
			</trkpt>
			<trkpt lat="-28.272578" lon="152.909059">
				<ele>117.978</ele>
				<time>2015-07-04T01:22:13Z</time>
				<extensions>
				</extensions>
			</trkpt>
			<trkpt lat="-28.272871" lon="152.909026">
				<ele>117.496</ele>
				<time>2015-07-04T01:22:15Z</time>
				<extensions>
				</extensions>
			</trkpt>
			<trkpt lat="-28.273165" lon="152.908997">
				<ele>119.219</ele>
				<time>2015-07-04T01:22:17Z</time>
				<extensions>
				</extensions>
			</trkpt>
			<trkpt lat="-28.273488" lon="152.908962">
				<ele>123.447</ele>
				<time>2015-07-04T01:22:19Z</time>
				<extensions>
				</extensions>
			</trkpt>
			<trkpt lat="-28.273849" lon="152.908932">
				<ele>126.793</ele>
				<time>2015-07-04T01:22:21Z</time>
				<extensions>
				</extensions>
			</trkpt>
			<trkpt lat="-28.274052" lon="152.908917">
				<ele>127.739</ele>
				<time>2015-07-04T01:22:22Z</time>
				<extensions>
				</extensions>
			</trkpt>
			<trkpt lat="-28.274252" lon="152.908910">
				<ele>127.493</ele>
				<time>2015-07-04T01:22:23Z</time>
				<extensions>
				</extensions>
			</trkpt>
			<trkpt lat="-28.274451" lon="152.908903">
				<ele>127.945</ele>
				<time>2015-07-04T01:22:24Z</time>
				<extensions>
				</extensions>
			</trkpt>
			<trkpt lat="-28.274650" lon="152.908902">
				<ele>128.937</ele>
				<time>2015-07-04T01:22:25Z</time>
				<extensions>
				</extensions>
			</trkpt>
			<trkpt lat="-28.274852" lon="152.908912">
				<ele>129.899</ele>
				<time>2015-07-04T01:22:26Z</time>
				<extensions>
				</extensions>
			</trkpt>
			<trkpt lat="-28.275046" lon="152.908926">
				<ele>129.940</ele>
				<time>2015-07-04T01:22:27Z</time>
				<extensions>
				</extensions>
			</trkpt>
			<trkpt lat="-28.275252" lon="152.908939">
				<ele>129.646</ele>
				<time>2015-07-04T01:22:28Z</time>
				<extensions>
				</extensions>
			</trkpt>
			<trkpt lat="-28.275464" lon="152.908957">
				<ele>132.165</ele>
				<time>2015-07-04T01:22:29Z</time>
				<extensions>
				</extensions>
			</trkpt>
			<trkpt lat="-28.275667" lon="152.908980">
				<ele>133.599</ele>
				<time>2015-07-04T01:22:30Z</time>
				<extensions>
				</extensions>
			</trkpt>
			<trkpt lat="-28.275867" lon="152.909006">
				<ele>133.731</ele>
				<time>2015-07-04T01:22:31Z</time>
				<extensions>
				</extensions>
			</trkpt>
			<trkpt lat="-28.276062" lon="152.909033">
				<ele>134.420</ele>
				<time>2015-07-04T01:22:32Z</time>
				<extensions>
				</extensions>
			</trkpt>
			<trkpt lat="-28.276248" lon="152.909062">
				<ele>135.622</ele>
				<time>2015-07-04T01:22:33Z</time>
				<extensions>
				</extensions>
			</trkpt>
			<trkpt lat="-28.276597" lon="152.909126">
				<ele>136.919</ele>
				<time>2015-07-04T01:22:35Z</time>
				<extensions>
				</extensions>
			</trkpt>
			<trkpt lat="-28.276929" lon="152.909190">
				<ele>137.515</ele>
				<time>2015-07-04T01:22:37Z</time>
				<extensions>
				</extensions>
			</trkpt>
			<trkpt lat="-28.277254" lon="152.909251">
				<ele>139.134</ele>
				<time>2015-07-04T01:22:39Z</time>
				<extensions>
				</extensions>
			</trkpt>
			<trkpt lat="-28.277601" lon="152.909288">
				<ele>141.681</ele>
				<time>2015-07-04T01:22:41Z</time>
				<extensions>
				</extensions>
			</trkpt>
			<trkpt lat="-28.277926" lon="152.909310">
				<ele>142.434</ele>
				<time>2015-07-04T01:22:43Z</time>
				<extensions>
				</extensions>
			</trkpt>
			<trkpt lat="-28.278264" lon="152.909304">
				<ele>142.885</ele>
				<time>2015-07-04T01:22:45Z</time>
				<extensions>
				</extensions>
			</trkpt>
			<trkpt lat="-28.278590" lon="152.909281">
				<ele>140.839</ele>
				<time>2015-07-04T01:22:47Z</time>
				<extensions>
				</extensions>
			</trkpt>
			<trkpt lat="-28.278904" lon="152.909248">
				<ele>139.550</ele>
				<time>2015-07-04T01:22:49Z</time>
				<extensions>
				</extensions>
			</trkpt>
			<trkpt lat="-28.279226" lon="152.909207">
				<ele>141.262</ele>
				<time>2015-07-04T01:22:51Z</time>
				<extensions>
				</extensions>
			</trkpt>
			<trkpt lat="-28.279568" lon="152.909158">
				<ele>141.675</ele>
				<time>2015-07-04T01:22:53Z</time>
				<extensions>
				</extensions>
			</trkpt>
			<trkpt lat="-28.279758" lon="152.909123">
				<ele>141.731</ele>
				<time>2015-07-04T01:22:54Z</time>
				<extensions>
				</extensions>
			</trkpt>
			<trkpt lat="-28.279950" lon="152.909089">
				<ele>142.577</ele>
				<time>2015-07-04T01:22:55Z</time>
				<extensions>
				</extensions>
			</trkpt>
			<trkpt lat="-28.280144" lon="152.909060">
				<ele>142.270</ele>
				<time>2015-07-04T01:22:56Z</time>
				<extensions>
				</extensions>
			</trkpt>
			<trkpt lat="-28.280350" lon="152.909038">
				<ele>140.883</ele>
				<time>2015-07-04T01:22:57Z</time>
				<extensions>
				</extensions>
			</trkpt>
			<trkpt lat="-28.280558" lon="152.909017">
				<ele>141.354</ele>
				<time>2015-07-04T01:22:58Z</time>
				<extensions>
				</extensions>
			</trkpt>
			<trkpt lat="-28.280770" lon="152.909011">
				<ele>140.055</ele>
				<time>2015-07-04T01:22:59Z</time>
				<extensions>
				</extensions>
			</trkpt>
			<trkpt lat="-28.280976" lon="152.909003">
				<ele>140.572</ele>
				<time>2015-07-04T01:23:00Z</time>
				<extensions>
				</extensions>
			</trkpt>
			<trkpt lat="-28.281188" lon="152.909013">
				<ele>139.010</ele>
				<time>2015-07-04T01:23:01Z</time>
				<extensions>
				</extensions>
			</trkpt>
			<trkpt lat="-28.281380" lon="152.909042">
				<ele>138.324</ele>
				<time>2015-07-04T01:23:02Z</time>
				<extensions>
				</extensions>
			</trkpt>
			<trkpt lat="-28.281587" lon="152.909076">
				<ele>138.158</ele>
				<time>2015-07-04T01:23:03Z</time>
				<extensions>
				</extensions>
			</trkpt>
			<trkpt lat="-28.281790" lon="152.909115">
				<ele>138.445</ele>
				<time>2015-07-04T01:23:04Z</time>
				<extensions>
				</extensions>
			</trkpt>
			<trkpt lat="-28.281995" lon="152.909150">
				<ele>136.910</ele>
				<time>2015-07-04T01:23:05Z</time>
				<extensions>
				</extensions>
			</trkpt>
			<trkpt lat="-28.282181" lon="152.909184">
				<ele>135.690</ele>
				<time>2015-07-04T01:23:06Z</time>
				<extensions>
				</extensions>
			</trkpt>
			<trkpt lat="-28.282366" lon="152.909222">
				<ele>135.293</ele>
				<time>2015-07-04T01:23:07Z</time>
				<extensions>
				</extensions>
			</trkpt>
			<trkpt lat="-28.282547" lon="152.909261">
				<ele>135.322</ele>
				<time>2015-07-04T01:23:08Z</time>
				<extensions>
				</extensions>
			</trkpt>
			<trkpt lat="-28.282738" lon="152.909299">
				<ele>135.707</ele>
				<time>2015-07-04T01:23:09Z</time>
				<extensions>
				</extensions>
			</trkpt>
			<trkpt lat="-28.282924" lon="152.909328">
				<ele>135.272</ele>
				<time>2015-07-04T01:23:10Z</time>
				<extensions>
				</extensions>
			</trkpt>
			<trkpt lat="-28.283112" lon="152.909369">
				<ele>135.358</ele>
				<time>2015-07-04T01:23:11Z</time>
				<extensions>
				</extensions>
			</trkpt>
			<trkpt lat="-28.283296" lon="152.909407">
				<ele>135.529</ele>
				<time>2015-07-04T01:23:12Z</time>
				<extensions>
				</extensions>
			</trkpt>
			<trkpt lat="-28.283664" lon="152.909476">
				<ele>133.900</ele>
				<time>2015-07-04T01:23:14Z</time>
				<extensions>
				</extensions>
			</trkpt>
			<trkpt lat="-28.283853" lon="152.909513">
				<ele>133.416</ele>
				<time>2015-07-04T01:23:15Z</time>
				<extensions>
				</extensions>
			</trkpt>
			<trkpt lat="-28.284040" lon="152.909550">
				<ele>133.520</ele>
				<time>2015-07-04T01:23:16Z</time>
				<extensions>
				</extensions>
			</trkpt>
			<trkpt lat="-28.284237" lon="152.909586">
				<ele>134.043</ele>
				<time>2015-07-04T01:23:17Z</time>
				<extensions>
				</extensions>
			</trkpt>
			<trkpt lat="-28.284423" lon="152.909624">
				<ele>134.305</ele>
				<time>2015-07-04T01:23:18Z</time>
				<extensions>
				</extensions>
			</trkpt>
			<trkpt lat="-28.284610" lon="152.909665">
				<ele>133.185</ele>
				<time>2015-07-04T01:23:19Z</time>
				<extensions>
				</extensions>
			</trkpt>
			<trkpt lat="-28.284803" lon="152.909706">
				<ele>132.730</ele>
				<time>2015-07-04T01:23:20Z</time>
				<extensions>
				</extensions>
			</trkpt>
			<trkpt lat="-28.284987" lon="152.909740">
				<ele>133.082</ele>
				<time>2015-07-04T01:23:21Z</time>
				<extensions>
				</extensions>
			</trkpt>
			<trkpt lat="-28.285168" lon="152.909767">
				<ele>132.182</ele>
				<time>2015-07-04T01:23:22Z</time>
				<extensions>
				</extensions>
			</trkpt>
			<trkpt lat="-28.285351" lon="152.909798">
				<ele>132.543</ele>
				<time>2015-07-04T01:23:23Z</time>
				<extensions>
				</extensions>
			</trkpt>
			<trkpt lat="-28.285537" lon="152.909830">
				<ele>131.682</ele>
				<time>2015-07-04T01:23:24Z</time>
				<extensions>
				</extensions>
			</trkpt>
			<trkpt lat="-28.285720" lon="152.909859">
				<ele>131.634</ele>
				<time>2015-07-04T01:23:25Z</time>
				<extensions>
				</extensions>
			</trkpt>
			<trkpt lat="-28.285906" lon="152.909891">
				<ele>130.802</ele>
				<time>2015-07-04T01:23:26Z</time>
				<extensions>
				</extensions>
			</trkpt>
			<trkpt lat="-28.286088" lon="152.909926">
				<ele>131.142</ele>
				<time>2015-07-04T01:23:27Z</time>
				<extensions>
				</extensions>
			</trkpt>
			<trkpt lat="-28.286275" lon="152.909960">
				<ele>129.525</ele>
				<time>2015-07-04T01:23:28Z</time>
				<extensions>
				</extensions>
			</trkpt>
			<trkpt lat="-28.286455" lon="152.909984">
				<ele>129.471</ele>
				<time>2015-07-04T01:23:29Z</time>
				<extensions>
				</extensions>
			</trkpt>
			<trkpt lat="-28.286810" lon="152.910021">
				<ele>127.941</ele>
				<time>2015-07-04T01:23:31Z</time>
				<extensions>
				</extensions>
			</trkpt>
			<trkpt lat="-28.286994" lon="152.910013">
				<ele>127.392</ele>
				<time>2015-07-04T01:23:32Z</time>
				<extensions>
				</extensions>
			</trkpt>
			<trkpt lat="-28.287176" lon="152.909988">
				<ele>128.773</ele>
				<time>2015-07-04T01:23:33Z</time>
				<extensions>
				</extensions>
			</trkpt>
			<trkpt lat="-28.287362" lon="152.909958">
				<ele>127.781</ele>
				<time>2015-07-04T01:23:34Z</time>
				<extensions>
				</extensions>
			</trkpt>
			<trkpt lat="-28.287725" lon="152.909887">
				<ele>127.708</ele>
				<time>2015-07-04T01:23:36Z</time>
				<extensions>
				</extensions>
			</trkpt>
			<trkpt lat="-28.287915" lon="152.909870">
				<ele>127.711</ele>
				<time>2015-07-04T01:23:37Z</time>
				<extensions>
				</extensions>
			</trkpt>
			<trkpt lat="-28.288105" lon="152.909863">
				<ele>127.950</ele>
				<time>2015-07-04T01:23:38Z</time>
				<extensions>
				</extensions>
			</trkpt>
			<trkpt lat="-28.288293" lon="152.909865">
				<ele>128.558</ele>
				<time>2015-07-04T01:23:39Z</time>
				<extensions>
				</extensions>
			</trkpt>
			<trkpt lat="-28.288483" lon="152.909879">
				<ele>128.114</ele>
				<time>2015-07-04T01:23:40Z</time>
				<extensions>
				</extensions>
			</trkpt>
			<trkpt lat="-28.288680" lon="152.909892">
				<ele>128.464</ele>
				<time>2015-07-04T01:23:41Z</time>
				<extensions>
				</extensions>
			</trkpt>
			<trkpt lat="-28.288869" lon="152.909910">
				<ele>128.499</ele>
				<time>2015-07-04T01:23:42Z</time>
				<extensions>
				</extensions>
			</trkpt>
			<trkpt lat="-28.289061" lon="152.909921">
				<ele>127.902</ele>
				<time>2015-07-04T01:23:43Z</time>
				<extensions>
				</extensions>
			</trkpt>
			<trkpt lat="-28.289255" lon="152.909935">
				<ele>128.137</ele>
				<time>2015-07-04T01:23:44Z</time>
				<extensions>
				</extensions>
			</trkpt>
			<trkpt lat="-28.289590" lon="152.909984">
				<ele>128.259</ele>
				<time>2015-07-04T01:23:46Z</time>
				<extensions>
				</extensions>
			</trkpt>
			<trkpt lat="-28.289775" lon="152.910001">
				<ele>128.583</ele>
				<time>2015-07-04T01:23:47Z</time>
				<extensions>
				</extensions>
			</trkpt>
			<trkpt lat="-28.289958" lon="152.910021">
				<ele>127.574</ele>
				<time>2015-07-04T01:23:48Z</time>
				<extensions>
				</extensions>
			</trkpt>
			<trkpt lat="-28.290311" lon="152.910026">
				<ele>127.613</ele>
				<time>2015-07-04T01:23:50Z</time>
				<extensions>
				</extensions>
			</trkpt>
			<trkpt lat="-28.290523" lon="152.910024">
				<ele>126.965</ele>
				<time>2015-07-04T01:23:51Z</time>
				<extensions>
				</extensions>
			</trkpt>
			<trkpt lat="-28.290839" lon="152.910060">
				<ele>129.407</ele>
				<time>2015-07-04T01:23:53Z</time>
				<extensions>
				</extensions>
			</trkpt>
			<trkpt lat="-28.291185" lon="152.910083">
				<ele>128.795</ele>
				<time>2015-07-04T01:23:55Z</time>
				<extensions>
				</extensions>
			</trkpt>
			<trkpt lat="-28.291509" lon="152.910105">
				<ele>127.705</ele>
				<time>2015-07-04T01:23:57Z</time>
				<extensions>
				</extensions>
			</trkpt>
			<trkpt lat="-28.291791" lon="152.910067">
				<ele>125.755</ele>
				<time>2015-07-04T01:23:59Z</time>
				<extensions>
				</extensions>
			</trkpt>
			<trkpt lat="-28.292041" lon="152.909968">
				<ele>126.556</ele>
				<time>2015-07-04T01:24:01Z</time>
				<extensions>
				</extensions>
			</trkpt>
			<trkpt lat="-28.292239" lon="152.909799">
				<ele>124.909</ele>
				<time>2015-07-04T01:24:03Z</time>
				<extensions>
				</extensions>
			</trkpt>
			<trkpt lat="-28.292382" lon="152.909545">
				<ele>125.690</ele>
				<time>2015-07-04T01:24:05Z</time>
				<extensions>
				</extensions>
			</trkpt>
			<trkpt lat="-28.292497" lon="152.909261">
				<ele>127.406</ele>
				<time>2015-07-04T01:24:07Z</time>
				<extensions>
				</extensions>
			</trkpt>
			<trkpt lat="-28.292660" lon="152.909015">
				<ele>127.017</ele>
				<time>2015-07-04T01:24:09Z</time>
				<extensions>
				</extensions>
			</trkpt>
			<trkpt lat="-28.292865" lon="152.908849">
				<ele>127.223</ele>
				<time>2015-07-04T01:24:11Z</time>
				<extensions>
				</extensions>
			</trkpt>
			<trkpt lat="-28.293127" lon="152.908760">
				<ele>128.459</ele>
				<time>2015-07-04T01:24:13Z</time>
				<extensions>
				</extensions>
			</trkpt>
			<trkpt lat="-28.293419" lon="152.908754">
				<ele>131.722</ele>
				<time>2015-07-04T01:24:15Z</time>
				<extensions>
				</extensions>
			</trkpt>
			<trkpt lat="-28.293707" lon="152.908831">
				<ele>131.992</ele>
				<time>2015-07-04T01:24:17Z</time>
				<extensions>
				</extensions>
			</trkpt>
			<trkpt lat="-28.293983" lon="152.908914">
				<ele>130.490</ele>
				<time>2015-07-04T01:24:19Z</time>
				<extensions>
				</extensions>
			</trkpt>
			<trkpt lat="-28.294265" lon="152.908998">
				<ele>131.126</ele>
				<time>2015-07-04T01:24:21Z</time>
				<extensions>
				</extensions>
			</trkpt>
			<trkpt lat="-28.294558" lon="152.909089">
				<ele>132.489</ele>
				<time>2015-07-04T01:24:23Z</time>
				<extensions>
				</extensions>
			</trkpt>
			<trkpt lat="-28.294848" lon="152.909163">
				<ele>133.725</ele>
				<time>2015-07-04T01:24:25Z</time>
				<extensions>
				</extensions>
			</trkpt>
			<trkpt lat="-28.295140" lon="152.909255">
				<ele>133.638</ele>
				<time>2015-07-04T01:24:27Z</time>
				<extensions>
				</extensions>
			</trkpt>
			<trkpt lat="-28.295441" lon="152.909333">
				<ele>135.540</ele>
				<time>2015-07-04T01:24:29Z</time>
				<extensions>
				</extensions>
			</trkpt>
			<trkpt lat="-28.295754" lon="152.909398">
				<ele>135.623</ele>
				<time>2015-07-04T01:24:31Z</time>
				<extensions>
				</extensions>
			</trkpt>
			<trkpt lat="-28.296078" lon="152.909464">
				<ele>136.058</ele>
				<time>2015-07-04T01:24:33Z</time>
				<extensions>
				</extensions>
			</trkpt>
			<trkpt lat="-28.296394" lon="152.909562">
				<ele>136.734</ele>
				<time>2015-07-04T01:24:35Z</time>
				<extensions>
				</extensions>
			</trkpt>
			<trkpt lat="-28.296696" lon="152.909671">
				<ele>137.218</ele>
				<time>2015-07-04T01:24:37Z</time>
				<extensions>
				</extensions>
			</trkpt>
			<trkpt lat="-28.297019" lon="152.909809">
				<ele>137.882</ele>
				<time>2015-07-04T01:24:39Z</time>
				<extensions>
				</extensions>
			</trkpt>
			<trkpt lat="-28.297322" lon="152.909950">
				<ele>138.700</ele>
				<time>2015-07-04T01:24:41Z</time>
				<extensions>
				</extensions>
			</trkpt>
			<trkpt lat="-28.297603" lon="152.910082">
				<ele>138.974</ele>
				<time>2015-07-04T01:24:43Z</time>
				<extensions>
				</extensions>
			</trkpt>
			<trkpt lat="-28.297894" lon="152.910198">
				<ele>140.617</ele>
				<time>2015-07-04T01:24:45Z</time>
				<extensions>
				</extensions>
			</trkpt>
			<trkpt lat="-28.298190" lon="152.910322">
				<ele>140.015</ele>
				<time>2015-07-04T01:24:47Z</time>
				<extensions>
				</extensions>
			</trkpt>
			<trkpt lat="-28.298486" lon="152.910450">
				<ele>141.711</ele>
				<time>2015-07-04T01:24:49Z</time>
				<extensions>
				</extensions>
			</trkpt>
			<trkpt lat="-28.298780" lon="152.910577">
				<ele>143.654</ele>
				<time>2015-07-04T01:24:51Z</time>
				<extensions>
				</extensions>
			</trkpt>
			<trkpt lat="-28.299071" lon="152.910702">
				<ele>143.378</ele>
				<time>2015-07-04T01:24:53Z</time>
				<extensions>
				</extensions>
			</trkpt>
			<trkpt lat="-28.299352" lon="152.910800">
				<ele>143.560</ele>
				<time>2015-07-04T01:24:55Z</time>
				<extensions>
				</extensions>
			</trkpt>
			<trkpt lat="-28.299640" lon="152.910881">
				<ele>143.732</ele>
				<time>2015-07-04T01:24:57Z</time>
				<extensions>
				</extensions>
			</trkpt>
			<trkpt lat="-28.299956" lon="152.910935">
				<ele>143.810</ele>
				<time>2015-07-04T01:24:59Z</time>
				<extensions>
				</extensions>
			</trkpt>
			<trkpt lat="-28.300284" lon="152.910982">
				<ele>143.274</ele>
				<time>2015-07-04T01:25:01Z</time>
				<extensions>
				</extensions>
			</trkpt>
			<trkpt lat="-28.300619" lon="152.911009">
				<ele>142.828</ele>
				<time>2015-07-04T01:25:03Z</time>
				<extensions>
				</extensions>
			</trkpt>
			<trkpt lat="-28.300958" lon="152.911037">
				<ele>143.132</ele>
				<time>2015-07-04T01:25:05Z</time>
				<extensions>
				</extensions>
			</trkpt>
			<trkpt lat="-28.301286" lon="152.911078">
				<ele>142.129</ele>
				<time>2015-07-04T01:25:07Z</time>
				<extensions>
				</extensions>
			</trkpt>
			<trkpt lat="-28.301590" lon="152.911104">
				<ele>142.013</ele>
				<time>2015-07-04T01:25:09Z</time>
				<extensions>
				</extensions>
			</trkpt>
			<trkpt lat="-28.301881" lon="152.911130">
				<ele>142.309</ele>
				<time>2015-07-04T01:25:11Z</time>
				<extensions>
				</extensions>
			</trkpt>
			<trkpt lat="-28.302175" lon="152.911146">
				<ele>142.963</ele>
				<time>2015-07-04T01:25:13Z</time>
				<extensions>
				</extensions>
			</trkpt>
			<trkpt lat="-28.302444" lon="152.911142">
				<ele>143.141</ele>
				<time>2015-07-04T01:25:15Z</time>
				<extensions>
				</extensions>
			</trkpt>
			<trkpt lat="-28.302707" lon="152.911129">
				<ele>142.153</ele>
				<time>2015-07-04T01:25:17Z</time>
				<extensions>
				</extensions>
			</trkpt>
			<trkpt lat="-28.302926" lon="152.911129">
				<ele>143.589</ele>
				<time>2015-07-04T01:25:19Z</time>
				<extensions>
				</extensions>
			</trkpt>
			<trkpt lat="-28.303144" lon="152.911139">
				<ele>144.541</ele>
				<time>2015-07-04T01:25:21Z</time>
				<extensions>
				</extensions>
			</trkpt>
			<trkpt lat="-28.303341" lon="152.911160">
				<ele>146.100</ele>
				<time>2015-07-04T01:25:23Z</time>
				<extensions>
				</extensions>
			</trkpt>
			<trkpt lat="-28.303564" lon="152.911212">
				<ele>146.375</ele>
				<time>2015-07-04T01:25:25Z</time>
				<extensions>
				</extensions>
			</trkpt>
			<trkpt lat="-28.303810" lon="152.911274">
				<ele>146.311</ele>
				<time>2015-07-04T01:25:27Z</time>
				<extensions>
				</extensions>
			</trkpt>
			<trkpt lat="-28.304065" lon="152.911301">
				<ele>148.657</ele>
				<time>2015-07-04T01:25:29Z</time>
				<extensions>
				</extensions>
			</trkpt>
			<trkpt lat="-28.304341" lon="152.911295">
				<ele>149.720</ele>
				<time>2015-07-04T01:25:31Z</time>
				<extensions>
				</extensions>
			</trkpt>
			<trkpt lat="-28.304598" lon="152.911265">
				<ele>150.253</ele>
				<time>2015-07-04T01:25:33Z</time>
				<extensions>
				</extensions>
			</trkpt>
			<trkpt lat="-28.304867" lon="152.911232">
				<ele>153.531</ele>
				<time>2015-07-04T01:25:35Z</time>
				<extensions>
				</extensions>
			</trkpt>
			<trkpt lat="-28.305134" lon="152.911197">
				<ele>156.279</ele>
				<time>2015-07-04T01:25:37Z</time>
				<extensions>
				</extensions>
			</trkpt>
			<trkpt lat="-28.305397" lon="152.911155">
				<ele>158.068</ele>
				<time>2015-07-04T01:25:39Z</time>
				<extensions>
				</extensions>
			</trkpt>
			<trkpt lat="-28.305649" lon="152.911094">
				<ele>157.759</ele>
				<time>2015-07-04T01:25:41Z</time>
				<extensions>
				</extensions>
			</trkpt>
			<trkpt lat="-28.305889" lon="152.910981">
				<ele>158.341</ele>
				<time>2015-07-04T01:25:43Z</time>
				<extensions>
				</extensions>
			</trkpt>
			<trkpt lat="-28.306106" lon="152.910827">
				<ele>157.029</ele>
				<time>2015-07-04T01:25:45Z</time>
				<extensions>
				</extensions>
			</trkpt>
			<trkpt lat="-28.306285" lon="152.910623">
				<ele>156.573</ele>
				<time>2015-07-04T01:25:47Z</time>
				<extensions>
				</extensions>
			</trkpt>
			<trkpt lat="-28.306462" lon="152.910387">
				<ele>153.586</ele>
				<time>2015-07-04T01:25:49Z</time>
				<extensions>
				</extensions>
			</trkpt>
			<trkpt lat="-28.306615" lon="152.910124">
				<ele>153.467</ele>
				<time>2015-07-04T01:25:51Z</time>
				<extensions>
				</extensions>
			</trkpt>
			<trkpt lat="-28.306757" lon="152.909873">
				<ele>151.715</ele>
				<time>2015-07-04T01:25:53Z</time>
				<extensions>
				</extensions>
			</trkpt>
			<trkpt lat="-28.306895" lon="152.909631">
				<ele>149.239</ele>
				<time>2015-07-04T01:25:55Z</time>
				<extensions>
				</extensions>
			</trkpt>
			<trkpt lat="-28.307043" lon="152.909351">
				<ele>148.904</ele>
				<time>2015-07-04T01:25:57Z</time>
				<extensions>
				</extensions>
			</trkpt>
			<trkpt lat="-28.307200" lon="152.909082">
				<ele>146.749</ele>
				<time>2015-07-04T01:25:59Z</time>
				<extensions>
				</extensions>
			</trkpt>
			<trkpt lat="-28.307364" lon="152.908808">
				<ele>146.929</ele>
				<time>2015-07-04T01:26:01Z</time>
				<extensions>
				</extensions>
			</trkpt>
			<trkpt lat="-28.307526" lon="152.908545">
				<ele>147.109</ele>
				<time>2015-07-04T01:26:03Z</time>
				<extensions>
				</extensions>
			</trkpt>
			<trkpt lat="-28.307705" lon="152.908315">
				<ele>146.702</ele>
				<time>2015-07-04T01:26:05Z</time>
				<extensions>
				</extensions>
			</trkpt>
			<trkpt lat="-28.307899" lon="152.908131">
				<ele>147.211</ele>
				<time>2015-07-04T01:26:07Z</time>
				<extensions>
				</extensions>
			</trkpt>
			<trkpt lat="-28.308107" lon="152.907992">
				<ele>146.692</ele>
				<time>2015-07-04T01:26:09Z</time>
				<extensions>
				</extensions>
			</trkpt>
			<trkpt lat="-28.308345" lon="152.907906">
				<ele>145.046</ele>
				<time>2015-07-04T01:26:11Z</time>
				<extensions>
				</extensions>
			</trkpt>
			<trkpt lat="-28.308595" lon="152.907847">
				<ele>145.060</ele>
				<time>2015-07-04T01:26:13Z</time>
				<extensions>
				</extensions>
			</trkpt>
			<trkpt lat="-28.308868" lon="152.907837">
				<ele>147.338</ele>
				<time>2015-07-04T01:26:15Z</time>
				<extensions>
				</extensions>
			</trkpt>
			<trkpt lat="-28.309134" lon="152.907888">
				<ele>148.495</ele>
				<time>2015-07-04T01:26:17Z</time>
				<extensions>
				</extensions>
			</trkpt>
			<trkpt lat="-28.309410" lon="152.907975">
				<ele>150.269</ele>
				<time>2015-07-04T01:26:19Z</time>
				<extensions>
				</extensions>
			</trkpt>
			<trkpt lat="-28.309686" lon="152.908096">
				<ele>151.862</ele>
				<time>2015-07-04T01:26:21Z</time>
				<extensions>
				</extensions>
			</trkpt>
			<trkpt lat="-28.309890" lon="152.908286">
				<ele>152.842</ele>
				<time>2015-07-04T01:26:23Z</time>
				<extensions>
				</extensions>
			</trkpt>
			<trkpt lat="-28.310080" lon="152.908544">
				<ele>156.756</ele>
				<time>2015-07-04T01:26:25Z</time>
				<extensions>
				</extensions>
			</trkpt>
			<trkpt lat="-28.310259" lon="152.908835">
				<ele>158.147</ele>
				<time>2015-07-04T01:26:27Z</time>
				<extensions>
				</extensions>
			</trkpt>
			<trkpt lat="-28.310374" lon="152.909116">
				<ele>160.016</ele>
				<time>2015-07-04T01:26:29Z</time>
				<extensions>
				</extensions>
			</trkpt>
			<trkpt lat="-28.310429" lon="152.909422">
				<ele>162.321</ele>
				<time>2015-07-04T01:26:31Z</time>
				<extensions>
				</extensions>
			</trkpt>
			<trkpt lat="-28.310432" lon="152.909764">
				<ele>165.639</ele>
				<time>2015-07-04T01:26:33Z</time>
				<extensions>
				</extensions>
			</trkpt>
			<trkpt lat="-28.310411" lon="152.910106">
				<ele>167.580</ele>
				<time>2015-07-04T01:26:35Z</time>
				<extensions>
				</extensions>
			</trkpt>
			<trkpt lat="-28.310390" lon="152.910465">
				<ele>170.801</ele>
				<time>2015-07-04T01:26:37Z</time>
				<extensions>
				</extensions>
			</trkpt>
			<trkpt lat="-28.310362" lon="152.910818">
				<ele>170.406</ele>
				<time>2015-07-04T01:26:39Z</time>
				<extensions>
				</extensions>
			</trkpt>
			<trkpt lat="-28.310333" lon="152.911166">
				<ele>169.648</ele>
				<time>2015-07-04T01:26:41Z</time>
				<extensions>
				</extensions>
			</trkpt>
			<trkpt lat="-28.310305" lon="152.911523">
				<ele>168.161</ele>
				<time>2015-07-04T01:26:43Z</time>
				<extensions>
				</extensions>
			</trkpt>
			<trkpt lat="-28.310322" lon="152.911884">
				<ele>166.374</ele>
				<time>2015-07-04T01:26:45Z</time>
				<extensions>
				</extensions>
			</trkpt>
			<trkpt lat="-28.310448" lon="152.912241">
				<ele>162.869</ele>
				<time>2015-07-04T01:26:47Z</time>
				<extensions>
				</extensions>
			</trkpt>
			<trkpt lat="-28.310636" lon="152.912556">
				<ele>158.338</ele>
				<time>2015-07-04T01:26:49Z</time>
				<extensions>
				</extensions>
			</trkpt>
			<trkpt lat="-28.310846" lon="152.912866">
				<ele>155.525</ele>
				<time>2015-07-04T01:26:51Z</time>
				<extensions>
				</extensions>
			</trkpt>
			<trkpt lat="-28.311106" lon="152.913119">
				<ele>153.641</ele>
				<time>2015-07-04T01:26:53Z</time>
				<extensions>
				</extensions>
			</trkpt>
			<trkpt lat="-28.311412" lon="152.913300">
				<ele>152.084</ele>
				<time>2015-07-04T01:26:55Z</time>
				<extensions>
				</extensions>
			</trkpt>
			<trkpt lat="-28.311741" lon="152.913449">
				<ele>152.995</ele>
				<time>2015-07-04T01:26:57Z</time>
				<extensions>
				</extensions>
			</trkpt>
			<trkpt lat="-28.311905" lon="152.913543">
				<ele>152.718</ele>
				<time>2015-07-04T01:26:58Z</time>
				<extensions>
				</extensions>
			</trkpt>
			<trkpt lat="-28.312066" lon="152.913635">
				<ele>151.953</ele>
				<time>2015-07-04T01:26:59Z</time>
				<extensions>
				</extensions>
			</trkpt>
			<trkpt lat="-28.312218" lon="152.913748">
				<ele>151.669</ele>
				<time>2015-07-04T01:27:00Z</time>
				<extensions>
				</extensions>
			</trkpt>
			<trkpt lat="-28.312490" lon="152.913980">
				<ele>151.372</ele>
				<time>2015-07-04T01:27:02Z</time>
				<extensions>
				</extensions>
			</trkpt>
			<trkpt lat="-28.312744" lon="152.914204">
				<ele>148.373</ele>
				<time>2015-07-04T01:27:04Z</time>
				<extensions>
				</extensions>
			</trkpt>
			<trkpt lat="-28.312982" lon="152.914425">
				<ele>148.047</ele>
				<time>2015-07-04T01:27:06Z</time>
				<extensions>
				</extensions>
			</trkpt>
			<trkpt lat="-28.313210" lon="152.914660">
				<ele>149.097</ele>
				<time>2015-07-04T01:27:08Z</time>
				<extensions>
				</extensions>
			</trkpt>
			<trkpt lat="-28.313424" lon="152.914918">
				<ele>148.121</ele>
				<time>2015-07-04T01:27:10Z</time>
				<extensions>
				</extensions>
			</trkpt>
			<trkpt lat="-28.313610" lon="152.915194">
				<ele>145.818</ele>
				<time>2015-07-04T01:27:12Z</time>
				<extensions>
				</extensions>
			</trkpt>
			<trkpt lat="-28.313791" lon="152.915449">
				<ele>143.460</ele>
				<time>2015-07-04T01:27:14Z</time>
				<extensions>
				</extensions>
			</trkpt>
			<trkpt lat="-28.313948" lon="152.915682">
				<ele>139.109</ele>
				<time>2015-07-04T01:27:16Z</time>
				<extensions>
				</extensions>
			</trkpt>
			<trkpt lat="-28.314097" lon="152.915907">
				<ele>137.649</ele>
				<time>2015-07-04T01:27:18Z</time>
				<extensions>
				</extensions>
			</trkpt>
			<trkpt lat="-28.314232" lon="152.916121">
				<ele>138.077</ele>
				<time>2015-07-04T01:27:20Z</time>
				<extensions>
				</extensions>
			</trkpt>
			<trkpt lat="-28.314380" lon="152.916356">
				<ele>138.617</ele>
				<time>2015-07-04T01:27:22Z</time>
				<extensions>
				</extensions>
			</trkpt>
			<trkpt lat="-28.314523" lon="152.916642">
				<ele>140.030</ele>
				<time>2015-07-04T01:27:24Z</time>
				<extensions>
				</extensions>
			</trkpt>
			<trkpt lat="-28.314641" lon="152.916972">
				<ele>143.480</ele>
				<time>2015-07-04T01:27:26Z</time>
				<extensions>
				</extensions>
			</trkpt>
			<trkpt lat="-28.314705" lon="152.917320">
				<ele>144.284</ele>
				<time>2015-07-04T01:27:28Z</time>
				<extensions>
				</extensions>
			</trkpt>
			<trkpt lat="-28.314702" lon="152.917668">
				<ele>145.530</ele>
				<time>2015-07-04T01:27:30Z</time>
				<extensions>
				</extensions>
			</trkpt>
			<trkpt lat="-28.314684" lon="152.917993">
				<ele>145.250</ele>
				<time>2015-07-04T01:27:32Z</time>
				<extensions>
				</extensions>
			</trkpt>
			<trkpt lat="-28.314647" lon="152.918304">
				<ele>145.820</ele>
				<time>2015-07-04T01:27:34Z</time>
				<extensions>
				</extensions>
			</trkpt>
			<trkpt lat="-28.314624" lon="152.918616">
				<ele>146.544</ele>
				<time>2015-07-04T01:27:36Z</time>
				<extensions>
				</extensions>
			</trkpt>
			<trkpt lat="-28.314684" lon="152.918942">
				<ele>148.045</ele>
				<time>2015-07-04T01:27:38Z</time>
				<extensions>
				</extensions>
			</trkpt>
			<trkpt lat="-28.314804" lon="152.919275">
				<ele>148.231</ele>
				<time>2015-07-04T01:27:40Z</time>
				<extensions>
				</extensions>
			</trkpt>
			<trkpt lat="-28.314998" lon="152.919572">
				<ele>149.523</ele>
				<time>2015-07-04T01:27:42Z</time>
				<extensions>
				</extensions>
			</trkpt>
			<trkpt lat="-28.315246" lon="152.919852">
				<ele>150.333</ele>
				<time>2015-07-04T01:27:44Z</time>
				<extensions>
				</extensions>
			</trkpt>
			<trkpt lat="-28.315497" lon="152.920105">
				<ele>149.164</ele>
				<time>2015-07-04T01:27:46Z</time>
				<extensions>
				</extensions>
			</trkpt>
			<trkpt lat="-28.315744" lon="152.920344">
				<ele>147.043</ele>
				<time>2015-07-04T01:27:48Z</time>
				<extensions>
				</extensions>
			</trkpt>
			<trkpt lat="-28.315982" lon="152.920561">
				<ele>145.027</ele>
				<time>2015-07-04T01:27:50Z</time>
				<extensions>
				</extensions>
			</trkpt>
			<trkpt lat="-28.316207" lon="152.920726">
				<ele>144.635</ele>
				<time>2015-07-04T01:27:52Z</time>
				<extensions>
				</extensions>
			</trkpt>
			<trkpt lat="-28.316463" lon="152.920864">
				<ele>144.524</ele>
				<time>2015-07-04T01:27:54Z</time>
				<extensions>
				</extensions>
			</trkpt>
			<trkpt lat="-28.316731" lon="152.920994">
				<ele>144.539</ele>
				<time>2015-07-04T01:27:56Z</time>
				<extensions>
				</extensions>
			</trkpt>
			<trkpt lat="-28.316996" lon="152.921119">
				<ele>144.751</ele>
				<time>2015-07-04T01:27:58Z</time>
				<extensions>
				</extensions>
			</trkpt>
			<trkpt lat="-28.317263" lon="152.921252">
				<ele>145.224</ele>
				<time>2015-07-04T01:28:00Z</time>
				<extensions>
				</extensions>
			</trkpt>
			<trkpt lat="-28.317524" lon="152.921381">
				<ele>145.335</ele>
				<time>2015-07-04T01:28:02Z</time>
				<extensions>
				</extensions>
			</trkpt>
			<trkpt lat="-28.317758" lon="152.921490">
				<ele>144.958</ele>
				<time>2015-07-04T01:28:04Z</time>
				<extensions>
				</extensions>
			</trkpt>
			<trkpt lat="-28.317954" lon="152.921587">
				<ele>142.854</ele>
				<time>2015-07-04T01:28:06Z</time>
				<extensions>
				</extensions>
			</trkpt>
			<trkpt lat="-28.318104" lon="152.921705">
				<ele>141.863</ele>
				<time>2015-07-04T01:28:08Z</time>
				<extensions>
				</extensions>
			</trkpt>
			<trkpt lat="-28.318203" lon="152.921953">
				<ele>139.857</ele>
				<time>2015-07-04T01:28:11Z</time>
				<extensions>
				</extensions>
			</trkpt>
			<trkpt lat="-28.318236" lon="152.922218">
				<ele>139.552</ele>
				<time>2015-07-04T01:28:14Z</time>
				<extensions>
				</extensions>
			</trkpt>
			<trkpt lat="-28.318400" lon="152.922365">
				<ele>143.128</ele>
				<time>2015-07-04T01:28:17Z</time>
				<extensions>
				</extensions>
			</trkpt>
			<trkpt lat="-28.318603" lon="152.922438">
				<ele>145.449</ele>
				<time>2015-07-04T01:28:19Z</time>
				<extensions>
				</extensions>
			</trkpt>
			<trkpt lat="-28.318881" lon="152.922551">
				<ele>147.331</ele>
				<time>2015-07-04T01:28:21Z</time>
				<extensions>
				</extensions>
			</trkpt>
			<trkpt lat="-28.319158" lon="152.922677">
				<ele>151.101</ele>
				<time>2015-07-04T01:28:23Z</time>
				<extensions>
				</extensions>
			</trkpt>
			<trkpt lat="-28.319459" lon="152.922793">
				<ele>152.043</ele>
				<time>2015-07-04T01:28:25Z</time>
				<extensions>
				</extensions>
			</trkpt>
			<trkpt lat="-28.319759" lon="152.922875">
				<ele>150.784</ele>
				<time>2015-07-04T01:28:27Z</time>
				<extensions>
				</extensions>
			</trkpt>
			<trkpt lat="-28.320058" lon="152.922942">
				<ele>150.475</ele>
				<time>2015-07-04T01:28:29Z</time>
				<extensions>
				</extensions>
			</trkpt>
			<trkpt lat="-28.320299" lon="152.923046">
				<ele>149.718</ele>
				<time>2015-07-04T01:28:31Z</time>
				<extensions>
				</extensions>
			</trkpt>
			<trkpt lat="-28.320482" lon="152.923209">
				<ele>149.917</ele>
				<time>2015-07-04T01:28:33Z</time>
				<extensions>
				</extensions>
			</trkpt>
			<trkpt lat="-28.320641" lon="152.923375">
				<ele>149.004</ele>
				<time>2015-07-04T01:28:35Z</time>
				<extensions>
				</extensions>
			</trkpt>
			<trkpt lat="-28.320730" lon="152.923559">
				<ele>148.416</ele>
				<time>2015-07-04T01:28:37Z</time>
				<extensions>
				</extensions>
			</trkpt>
			<trkpt lat="-28.320713" lon="152.923808">
				<ele>148.349</ele>
				<time>2015-07-04T01:28:40Z</time>
				<extensions>
				</extensions>
			</trkpt>
			<trkpt lat="-28.320510" lon="152.924002">
				<ele>148.832</ele>
				<time>2015-07-04T01:28:43Z</time>
				<extensions>
				</extensions>
			</trkpt>
			<trkpt lat="-28.320275" lon="152.924086">
				<ele>150.065</ele>
				<time>2015-07-04T01:28:45Z</time>
				<extensions>
				</extensions>
			</trkpt>
			<trkpt lat="-28.320038" lon="152.924156">
				<ele>150.410</ele>
				<time>2015-07-04T01:28:47Z</time>
				<extensions>
				</extensions>
			</trkpt>
			<trkpt lat="-28.319810" lon="152.924152">
				<ele>149.882</ele>
				<time>2015-07-04T01:28:49Z</time>
				<extensions>
				</extensions>
			</trkpt>
			<trkpt lat="-28.319602" lon="152.924128">
				<ele>151.113</ele>
				<time>2015-07-04T01:28:51Z</time>
				<extensions>
				</extensions>
			</trkpt>
			<trkpt lat="-28.319413" lon="152.924164">
				<ele>151.889</ele>
				<time>2015-07-04T01:28:53Z</time>
				<extensions>
				</extensions>
			</trkpt>
			<trkpt lat="-28.319261" lon="152.924308">
				<ele>151.917</ele>
				<time>2015-07-04T01:28:55Z</time>
				<extensions>
				</extensions>
			</trkpt>
			<trkpt lat="-28.319149" lon="152.924575">
				<ele>152.380</ele>
				<time>2015-07-04T01:28:57Z</time>
				<extensions>
				</extensions>
			</trkpt>
			<trkpt lat="-28.319091" lon="152.924947">
				<ele>155.008</ele>
				<time>2015-07-04T01:28:59Z</time>
				<extensions>
				</extensions>
			</trkpt>
			<trkpt lat="-28.319061" lon="152.925322">
				<ele>156.583</ele>
				<time>2015-07-04T01:29:01Z</time>
				<extensions>
				</extensions>
			</trkpt>
			<trkpt lat="-28.319039" lon="152.925680">
				<ele>155.585</ele>
				<time>2015-07-04T01:29:03Z</time>
				<extensions>
				</extensions>
			</trkpt>
			<trkpt lat="-28.319034" lon="152.926000">
				<ele>156.460</ele>
				<time>2015-07-04T01:29:05Z</time>
				<extensions>
				</extensions>
			</trkpt>
			<trkpt lat="-28.318979" lon="152.926315">
				<ele>156.864</ele>
				<time>2015-07-04T01:29:07Z</time>
				<extensions>
				</extensions>
			</trkpt>
			<trkpt lat="-28.318908" lon="152.926645">
				<ele>158.601</ele>
				<time>2015-07-04T01:29:09Z</time>
				<extensions>
				</extensions>
			</trkpt>
			<trkpt lat="-28.318859" lon="152.927002">
				<ele>158.941</ele>
				<time>2015-07-04T01:29:11Z</time>
				<extensions>
				</extensions>
			</trkpt>
			<trkpt lat="-28.318833" lon="152.927307">
				<ele>158.466</ele>
				<time>2015-07-04T01:29:13Z</time>
				<extensions>
				</extensions>
			</trkpt>
			<trkpt lat="-28.318807" lon="152.927561">
				<ele>157.368</ele>
				<time>2015-07-04T01:29:15Z</time>
				<extensions>
				</extensions>
			</trkpt>
			<trkpt lat="-28.318765" lon="152.927833">
				<ele>156.294</ele>
				<time>2015-07-04T01:29:17Z</time>
				<extensions>
				</extensions>
			</trkpt>
			<trkpt lat="-28.318717" lon="152.928079">
				<ele>156.038</ele>
				<time>2015-07-04T01:29:19Z</time>
				<extensions>
				</extensions>
			</trkpt>
			<trkpt lat="-28.318697" lon="152.928341">
				<ele>155.175</ele>
				<time>2015-07-04T01:29:21Z</time>
				<extensions>
				</extensions>
			</trkpt>
			<trkpt lat="-28.318741" lon="152.928628">
				<ele>154.442</ele>
				<time>2015-07-04T01:29:23Z</time>
				<extensions>
				</extensions>
			</trkpt>
			<trkpt lat="-28.318807" lon="152.928825">
				<ele>154.743</ele>
				<time>2015-07-04T01:29:25Z</time>
				<extensions>
				</extensions>
			</trkpt>
			<trkpt lat="-28.318995" lon="152.929080">
				<ele>156.469</ele>
				<time>2015-07-04T01:29:27Z</time>
				<extensions>
				</extensions>
			</trkpt>
			<trkpt lat="-28.319289" lon="152.929242">
				<ele>157.428</ele>
				<time>2015-07-04T01:29:29Z</time>
				<extensions>
				</extensions>
			</trkpt>
			<trkpt lat="-28.319574" lon="152.929300">
				<ele>160.179</ele>
				<time>2015-07-04T01:29:31Z</time>
				<extensions>
				</extensions>
			</trkpt>
			<trkpt lat="-28.319879" lon="152.929333">
				<ele>162.874</ele>
				<time>2015-07-04T01:29:33Z</time>
				<extensions>
				</extensions>
			</trkpt>
			<trkpt lat="-28.320200" lon="152.929346">
				<ele>163.235</ele>
				<time>2015-07-04T01:29:35Z</time>
				<extensions>
				</extensions>
			</trkpt>
			<trkpt lat="-28.320485" lon="152.929384">
				<ele>163.356</ele>
				<time>2015-07-04T01:29:37Z</time>
				<extensions>
				</extensions>
			</trkpt>
			<trkpt lat="-28.320742" lon="152.929484">
				<ele>163.853</ele>
				<time>2015-07-04T01:29:39Z</time>
				<extensions>
				</extensions>
			</trkpt>
			<trkpt lat="-28.320960" lon="152.929653">
				<ele>163.717</ele>
				<time>2015-07-04T01:29:41Z</time>
				<extensions>
				</extensions>
			</trkpt>
			<trkpt lat="-28.321166" lon="152.929814">
				<ele>166.044</ele>
				<time>2015-07-04T01:29:43Z</time>
				<extensions>
				</extensions>
			</trkpt>
			<trkpt lat="-28.321361" lon="152.929933">
				<ele>168.431</ele>
				<time>2015-07-04T01:29:45Z</time>
				<extensions>
				</extensions>
			</trkpt>
			<trkpt lat="-28.321530" lon="152.930063">
				<ele>169.996</ele>
				<time>2015-07-04T01:29:47Z</time>
				<extensions>
				</extensions>
			</trkpt>
			<trkpt lat="-28.321666" lon="152.930215">
				<ele>171.967</ele>
				<time>2015-07-04T01:29:49Z</time>
				<extensions>
				</extensions>
			</trkpt>
			<trkpt lat="-28.321749" lon="152.930455">
				<ele>175.636</ele>
				<time>2015-07-04T01:29:51Z</time>
				<extensions>
				</extensions>
			</trkpt>
			<trkpt lat="-28.321698" lon="152.930699">
				<ele>179.322</ele>
				<time>2015-07-04T01:29:53Z</time>
				<extensions>
				</extensions>
			</trkpt>
			<trkpt lat="-28.321521" lon="152.930950">
				<ele>182.889</ele>
				<time>2015-07-04T01:29:55Z</time>
				<extensions>
				</extensions>
			</trkpt>
			<trkpt lat="-28.321275" lon="152.931169">
				<ele>184.273</ele>
				<time>2015-07-04T01:29:57Z</time>
				<extensions>
				</extensions>
			</trkpt>
			<trkpt lat="-28.321009" lon="152.931366">
				<ele>184.151</ele>
				<time>2015-07-04T01:29:59Z</time>
				<extensions>
				</extensions>
			</trkpt>
			<trkpt lat="-28.320772" lon="152.931535">
				<ele>183.411</ele>
				<time>2015-07-04T01:30:01Z</time>
				<extensions>
				</extensions>
			</trkpt>
			<trkpt lat="-28.320542" lon="152.931724">
				<ele>182.872</ele>
				<time>2015-07-04T01:30:03Z</time>
				<extensions>
				</extensions>
			</trkpt>
			<trkpt lat="-28.320328" lon="152.931920">
				<ele>181.210</ele>
				<time>2015-07-04T01:30:05Z</time>
				<extensions>
				</extensions>
			</trkpt>
			<trkpt lat="-28.320172" lon="152.932131">
				<ele>177.675</ele>
				<time>2015-07-04T01:30:07Z</time>
				<extensions>
				</extensions>
			</trkpt>
			<trkpt lat="-28.320060" lon="152.932406">
				<ele>175.215</ele>
				<time>2015-07-04T01:30:09Z</time>
				<extensions>
				</extensions>
			</trkpt>
			<trkpt lat="-28.320009" lon="152.932720">
				<ele>172.901</ele>
				<time>2015-07-04T01:30:11Z</time>
				<extensions>
				</extensions>
			</trkpt>
			<trkpt lat="-28.320045" lon="152.933009">
				<ele>170.696</ele>
				<time>2015-07-04T01:30:13Z</time>
				<extensions>
				</extensions>
			</trkpt>
			<trkpt lat="-28.320083" lon="152.933241">
				<ele>167.272</ele>
				<time>2015-07-04T01:30:15Z</time>
				<extensions>
				</extensions>
			</trkpt>
			<trkpt lat="-28.320133" lon="152.933453">
				<ele>166.223</ele>
				<time>2015-07-04T01:30:17Z</time>
				<extensions>
				</extensions>
			</trkpt>
			<trkpt lat="-28.320227" lon="152.933704">
				<ele>164.750</ele>
				<time>2015-07-04T01:30:20Z</time>
				<extensions>
				</extensions>
			</trkpt>
			<trkpt lat="-28.320318" lon="152.933936">
				<ele>163.204</ele>
				<time>2015-07-04T01:30:23Z</time>
				<extensions>
				</extensions>
			</trkpt>
			<trkpt lat="-28.320368" lon="152.934192">
				<ele>161.475</ele>
				<time>2015-07-04T01:30:26Z</time>
				<extensions>
				</extensions>
			</trkpt>
			<trkpt lat="-28.320433" lon="152.934433">
				<ele>159.169</ele>
				<time>2015-07-04T01:30:29Z</time>
				<extensions>
				</extensions>
			</trkpt>
			<trkpt lat="-28.320530" lon="152.934627">
				<ele>159.540</ele>
				<time>2015-07-04T01:30:33Z</time>
				<extensions>
				</extensions>
			</trkpt>
			<trkpt lat="-28.320427" lon="152.934821">
				<ele>162.447</ele>
				<time>2015-07-04T01:30:35Z</time>
				<extensions>
				</extensions>
			</trkpt>
			<trkpt lat="-28.320287" lon="152.935051">
				<ele>166.882</ele>
				<time>2015-07-04T01:30:37Z</time>
				<extensions>
				</extensions>
			</trkpt>
			<trkpt lat="-28.320147" lon="152.935300">
				<ele>170.232</ele>
				<time>2015-07-04T01:30:39Z</time>
				<extensions>
				</extensions>
			</trkpt>
			<trkpt lat="-28.319989" lon="152.935557">
				<ele>173.363</ele>
				<time>2015-07-04T01:30:41Z</time>
				<extensions>
				</extensions>
			</trkpt>
			<trkpt lat="-28.319859" lon="152.935798">
				<ele>174.257</ele>
				<time>2015-07-04T01:30:43Z</time>
				<extensions>
				</extensions>
			</trkpt>
			<trkpt lat="-28.319734" lon="152.936012">
				<ele>175.370</ele>
				<time>2015-07-04T01:30:45Z</time>
				<extensions>
				</extensions>
			</trkpt>
			<trkpt lat="-28.319612" lon="152.936224">
				<ele>174.431</ele>
				<time>2015-07-04T01:30:47Z</time>
				<extensions>
				</extensions>
			</trkpt>
			<trkpt lat="-28.319529" lon="152.936417">
				<ele>173.480</ele>
				<time>2015-07-04T01:30:49Z</time>
				<extensions>
				</extensions>
			</trkpt>
			<trkpt lat="-28.319519" lon="152.936652">
				<ele>172.845</ele>
				<time>2015-07-04T01:30:51Z</time>
				<extensions>
				</extensions>
			</trkpt>
			<trkpt lat="-28.319627" lon="152.936867">
				<ele>173.266</ele>
				<time>2015-07-04T01:30:53Z</time>
				<extensions>
				</extensions>
			</trkpt>
			<trkpt lat="-28.319824" lon="152.937047">
				<ele>174.639</ele>
				<time>2015-07-04T01:30:55Z</time>
				<extensions>
				</extensions>
			</trkpt>
			<trkpt lat="-28.320035" lon="152.937253">
				<ele>175.036</ele>
				<time>2015-07-04T01:30:57Z</time>
				<extensions>
				</extensions>
			</trkpt>
			<trkpt lat="-28.320234" lon="152.937473">
				<ele>174.899</ele>
				<time>2015-07-04T01:30:59Z</time>
				<extensions>
				</extensions>
			</trkpt>
			<trkpt lat="-28.320438" lon="152.937686">
				<ele>176.296</ele>
				<time>2015-07-04T01:31:01Z</time>
				<extensions>
				</extensions>
			</trkpt>
			<trkpt lat="-28.320640" lon="152.937940">
				<ele>177.678</ele>
				<time>2015-07-04T01:31:03Z</time>
				<extensions>
				</extensions>
			</trkpt>
			<trkpt lat="-28.320843" lon="152.938238">
				<ele>177.895</ele>
				<time>2015-07-04T01:31:05Z</time>
				<extensions>
				</extensions>
			</trkpt>
			<trkpt lat="-28.321041" lon="152.938505">
				<ele>177.404</ele>
				<time>2015-07-04T01:31:07Z</time>
				<extensions>
				</extensions>
			</trkpt>
			<trkpt lat="-28.321226" lon="152.938750">
				<ele>177.699</ele>
				<time>2015-07-04T01:31:09Z</time>
				<extensions>
				</extensions>
			</trkpt>
			<trkpt lat="-28.321405" lon="152.938972">
				<ele>176.226</ele>
				<time>2015-07-04T01:31:11Z</time>
				<extensions>
				</extensions>
			</trkpt>
			<trkpt lat="-28.321549" lon="152.939171">
				<ele>175.428</ele>
				<time>2015-07-04T01:31:13Z</time>
				<extensions>
				</extensions>
			</trkpt>
			<trkpt lat="-28.321680" lon="152.939330">
				<ele>174.748</ele>
				<time>2015-07-04T01:31:15Z</time>
				<extensions>
				</extensions>
			</trkpt>
			<trkpt lat="-28.321870" lon="152.939509">
				<ele>172.971</ele>
				<time>2015-07-04T01:31:18Z</time>
				<extensions>
				</extensions>
			</trkpt>
			<trkpt lat="-28.322026" lon="152.939687">
				<ele>171.124</ele>
				<time>2015-07-04T01:31:21Z</time>
				<extensions>
				</extensions>
			</trkpt>
			<trkpt lat="-28.322028" lon="152.939965">
				<ele>168.744</ele>
				<time>2015-07-04T01:31:25Z</time>
				<extensions>
				</extensions>
			</trkpt>
			<trkpt lat="-28.322068" lon="152.940282">
				<ele>170.876</ele>
				<time>2015-07-04T01:31:28Z</time>
				<extensions>
				</extensions>
			</trkpt>
			<trkpt lat="-28.322143" lon="152.940513">
				<ele>172.678</ele>
				<time>2015-07-04T01:31:30Z</time>
				<extensions>
				</extensions>
			</trkpt>
			<trkpt lat="-28.322230" lon="152.940737">
				<ele>174.038</ele>
				<time>2015-07-04T01:31:32Z</time>
				<extensions>
				</extensions>
			</trkpt>
			<trkpt lat="-28.322300" lon="152.940936">
				<ele>174.933</ele>
				<time>2015-07-04T01:31:34Z</time>
				<extensions>
				</extensions>
			</trkpt>
			<trkpt lat="-28.322275" lon="152.941208">
				<ele>176.908</ele>
				<time>2015-07-04T01:31:37Z</time>
				<extensions>
				</extensions>
			</trkpt>
			<trkpt lat="-28.322124" lon="152.941482">
				<ele>176.185</ele>
				<time>2015-07-04T01:31:40Z</time>
				<extensions>
				</extensions>
			</trkpt>
			<trkpt lat="-28.322008" lon="152.941662">
				<ele>172.976</ele>
				<time>2015-07-04T01:31:42Z</time>
				<extensions>
				</extensions>
			</trkpt>
			<trkpt lat="-28.321880" lon="152.941848">
				<ele>173.069</ele>
				<time>2015-07-04T01:31:44Z</time>
				<extensions>
				</extensions>
			</trkpt>
			<trkpt lat="-28.321659" lon="152.942012">
				<ele>177.696</ele>
				<time>2015-07-04T01:31:46Z</time>
				<extensions>
				</extensions>
			</trkpt>
			<trkpt lat="-28.321422" lon="152.942106">
				<ele>181.296</ele>
				<time>2015-07-04T01:31:48Z</time>
				<extensions>
				</extensions>
			</trkpt>
			<trkpt lat="-28.321179" lon="152.942187">
				<ele>181.800</ele>
				<time>2015-07-04T01:31:50Z</time>
				<extensions>
				</extensions>
			</trkpt>
			<trkpt lat="-28.320969" lon="152.942223">
				<ele>180.598</ele>
				<time>2015-07-04T01:31:52Z</time>
				<extensions>
				</extensions>
			</trkpt>
			<trkpt lat="-28.320707" lon="152.942255">
				<ele>181.621</ele>
				<time>2015-07-04T01:31:55Z</time>
				<extensions>
				</extensions>
			</trkpt>
			<trkpt lat="-28.320474" lon="152.942328">
				<ele>181.397</ele>
				<time>2015-07-04T01:31:58Z</time>
				<extensions>
				</extensions>
			</trkpt>
			<trkpt lat="-28.320323" lon="152.942487">
				<ele>182.506</ele>
				<time>2015-07-04T01:32:00Z</time>
				<extensions>
				</extensions>
			</trkpt>
			<trkpt lat="-28.320285" lon="152.942725">
				<ele>184.343</ele>
				<time>2015-07-04T01:32:02Z</time>
				<extensions>
				</extensions>
			</trkpt>
			<trkpt lat="-28.320350" lon="152.943051">
				<ele>186.682</ele>
				<time>2015-07-04T01:32:04Z</time>
				<extensions>
				</extensions>
			</trkpt>
			<trkpt lat="-28.320423" lon="152.943365">
				<ele>185.240</ele>
				<time>2015-07-04T01:32:06Z</time>
				<extensions>
				</extensions>
			</trkpt>
			<trkpt lat="-28.320502" lon="152.943670">
				<ele>185.319</ele>
				<time>2015-07-04T01:32:08Z</time>
				<extensions>
				</extensions>
			</trkpt>
			<trkpt lat="-28.320574" lon="152.944003">
				<ele>187.116</ele>
				<time>2015-07-04T01:32:10Z</time>
				<extensions>
				</extensions>
			</trkpt>
			<trkpt lat="-28.320663" lon="152.944359">
				<ele>188.900</ele>
				<time>2015-07-04T01:32:12Z</time>
				<extensions>
				</extensions>
			</trkpt>
			<trkpt lat="-28.320751" lon="152.944729">
				<ele>191.024</ele>
				<time>2015-07-04T01:32:14Z</time>
				<extensions>
				</extensions>
			</trkpt>
			<trkpt lat="-28.320825" lon="152.945078">
				<ele>191.556</ele>
				<time>2015-07-04T01:32:16Z</time>
				<extensions>
				</extensions>
			</trkpt>
			<trkpt lat="-28.320888" lon="152.945405">
				<ele>193.643</ele>
				<time>2015-07-04T01:32:18Z</time>
				<extensions>
				</extensions>
			</trkpt>
			<trkpt lat="-28.320940" lon="152.945738">
				<ele>195.023</ele>
				<time>2015-07-04T01:32:20Z</time>
				<extensions>
				</extensions>
			</trkpt>
			<trkpt lat="-28.320984" lon="152.946080">
				<ele>195.432</ele>
				<time>2015-07-04T01:32:22Z</time>
				<extensions>
				</extensions>
			</trkpt>
			<trkpt lat="-28.321046" lon="152.946430">
				<ele>195.760</ele>
				<time>2015-07-04T01:32:24Z</time>
				<extensions>
				</extensions>
			</trkpt>
			<trkpt lat="-28.321092" lon="152.946788">
				<ele>195.113</ele>
				<time>2015-07-04T01:32:26Z</time>
				<extensions>
				</extensions>
			</trkpt>
			<trkpt lat="-28.321144" lon="152.947152">
				<ele>194.515</ele>
				<time>2015-07-04T01:32:28Z</time>
				<extensions>
				</extensions>
			</trkpt>
			<trkpt lat="-28.321173" lon="152.947546">
				<ele>195.619</ele>
				<time>2015-07-04T01:32:30Z</time>
				<extensions>
				</extensions>
			</trkpt>
			<trkpt lat="-28.321144" lon="152.947942">
				<ele>195.362</ele>
				<time>2015-07-04T01:32:32Z</time>
				<extensions>
				</extensions>
			</trkpt>
			<trkpt lat="-28.321062" lon="152.948318">
				<ele>194.377</ele>
				<time>2015-07-04T01:32:34Z</time>
				<extensions>
				</extensions>
			</trkpt>
			<trkpt lat="-28.320939" lon="152.948674">
				<ele>196.106</ele>
				<time>2015-07-04T01:32:36Z</time>
				<extensions>
				</extensions>
			</trkpt>
			<trkpt lat="-28.320758" lon="152.949013">
				<ele>198.157</ele>
				<time>2015-07-04T01:32:38Z</time>
				<extensions>
				</extensions>
			</trkpt>
			<trkpt lat="-28.320538" lon="152.949318">
				<ele>199.061</ele>
				<time>2015-07-04T01:32:40Z</time>
				<extensions>
				</extensions>
			</trkpt>
			<trkpt lat="-28.320328" lon="152.949613">
				<ele>198.659</ele>
				<time>2015-07-04T01:32:42Z</time>
				<extensions>
				</extensions>
			</trkpt>
			<trkpt lat="-28.320127" lon="152.949905">
				<ele>200.420</ele>
				<time>2015-07-04T01:32:44Z</time>
				<extensions>
				</extensions>
			</trkpt>
			<trkpt lat="-28.319938" lon="152.950206">
				<ele>201.959</ele>
				<time>2015-07-04T01:32:46Z</time>
				<extensions>
				</extensions>
			</trkpt>
			<trkpt lat="-28.319791" lon="152.950555">
				<ele>206.293</ele>
				<time>2015-07-04T01:32:48Z</time>
				<extensions>
				</extensions>
			</trkpt>
			<trkpt lat="-28.319732" lon="152.950918">
				<ele>209.403</ele>
				<time>2015-07-04T01:32:50Z</time>
				<extensions>
				</extensions>
			</trkpt>
			<trkpt lat="-28.319740" lon="152.951285">
				<ele>211.454</ele>
				<time>2015-07-04T01:32:52Z</time>
				<extensions>
				</extensions>
			</trkpt>
			<trkpt lat="-28.319827" lon="152.951626">
				<ele>211.626</ele>
				<time>2015-07-04T01:32:54Z</time>
				<extensions>
				</extensions>
			</trkpt>
			<trkpt lat="-28.319921" lon="152.951984">
				<ele>211.703</ele>
				<time>2015-07-04T01:32:56Z</time>
				<extensions>
				</extensions>
			</trkpt>
			<trkpt lat="-28.320036" lon="152.952353">
				<ele>209.824</ele>
				<time>2015-07-04T01:32:58Z</time>
				<extensions>
				</extensions>
			</trkpt>
			<trkpt lat="-28.320137" lon="152.952734">
				<ele>210.939</ele>
				<time>2015-07-04T01:33:00Z</time>
				<extensions>
				</extensions>
			</trkpt>
			<trkpt lat="-28.320225" lon="152.953099">
				<ele>215.701</ele>
				<time>2015-07-04T01:33:02Z</time>
				<extensions>
				</extensions>
			</trkpt>
			<trkpt lat="-28.320301" lon="152.953429">
				<ele>221.266</ele>
				<time>2015-07-04T01:33:04Z</time>
				<extensions>
				</extensions>
			</trkpt>
			<trkpt lat="-28.320383" lon="152.953753">
				<ele>226.901</ele>
				<time>2015-07-04T01:33:06Z</time>
				<extensions>
				</extensions>
			</trkpt>
			<trkpt lat="-28.320474" lon="152.954071">
				<ele>230.337</ele>
				<time>2015-07-04T01:33:08Z</time>
				<extensions>
				</extensions>
			</trkpt>
			<trkpt lat="-28.320559" lon="152.954364">
				<ele>232.480</ele>
				<time>2015-07-04T01:33:10Z</time>
				<extensions>
				</extensions>
			</trkpt>
			<trkpt lat="-28.320673" lon="152.954690">
				<ele>234.049</ele>
				<time>2015-07-04T01:33:12Z</time>
				<extensions>
				</extensions>
			</trkpt>
			<trkpt lat="-28.320817" lon="152.955035">
				<ele>236.072</ele>
				<time>2015-07-04T01:33:14Z</time>
				<extensions>
				</extensions>
			</trkpt>
			<trkpt lat="-28.320949" lon="152.955392">
				<ele>232.186</ele>
				<time>2015-07-04T01:33:16Z</time>
				<extensions>
				</extensions>
			</trkpt>
			<trkpt lat="-28.321015" lon="152.955582">
				<ele>232.319</ele>
				<time>2015-07-04T01:33:17Z</time>
				<extensions>
				</extensions>
			</trkpt>
			<trkpt lat="-28.321133" lon="152.955965">
				<ele>231.724</ele>
				<time>2015-07-04T01:33:19Z</time>
				<extensions>
				</extensions>
			</trkpt>
			<trkpt lat="-28.321189" lon="152.956163">
				<ele>229.856</ele>
				<time>2015-07-04T01:33:20Z</time>
				<extensions>
				</extensions>
			</trkpt>
			<trkpt lat="-28.321251" lon="152.956564">
				<ele>231.175</ele>
				<time>2015-07-04T01:33:22Z</time>
				<extensions>
				</extensions>
			</trkpt>
			<trkpt lat="-28.321276" lon="152.956974">
				<ele>229.100</ele>
				<time>2015-07-04T01:33:24Z</time>
				<extensions>
				</extensions>
			</trkpt>
			<trkpt lat="-28.321280" lon="152.957378">
				<ele>228.190</ele>
				<time>2015-07-04T01:33:26Z</time>
				<extensions>
				</extensions>
			</trkpt>
			<trkpt lat="-28.321288" lon="152.957785">
				<ele>226.694</ele>
				<time>2015-07-04T01:33:28Z</time>
				<extensions>
				</extensions>
			</trkpt>
			<trkpt lat="-28.321284" lon="152.957996">
				<ele>226.085</ele>
				<time>2015-07-04T01:33:29Z</time>
				<extensions>
				</extensions>
			</trkpt>
			<trkpt lat="-28.321290" lon="152.958396">
				<ele>228.188</ele>
				<time>2015-07-04T01:33:31Z</time>
				<extensions>
				</extensions>
			</trkpt>
			<trkpt lat="-28.321301" lon="152.958785">
				<ele>229.010</ele>
				<time>2015-07-04T01:33:33Z</time>
				<extensions>
				</extensions>
			</trkpt>
			<trkpt lat="-28.321338" lon="152.959146">
				<ele>230.683</ele>
				<time>2015-07-04T01:33:35Z</time>
				<extensions>
				</extensions>
			</trkpt>
			<trkpt lat="-28.321429" lon="152.959484">
				<ele>231.335</ele>
				<time>2015-07-04T01:33:37Z</time>
				<extensions>
				</extensions>
			</trkpt>
			<trkpt lat="-28.321575" lon="152.959817">
				<ele>231.683</ele>
				<time>2015-07-04T01:33:39Z</time>
				<extensions>
				</extensions>
			</trkpt>
			<trkpt lat="-28.321723" lon="152.960130">
				<ele>228.464</ele>
				<time>2015-07-04T01:33:41Z</time>
				<extensions>
				</extensions>
			</trkpt>
			<trkpt lat="-28.321849" lon="152.960394">
				<ele>228.539</ele>
				<time>2015-07-04T01:33:43Z</time>
				<extensions>
				</extensions>
			</trkpt>
			<trkpt lat="-28.321933" lon="152.960618">
				<ele>229.832</ele>
				<time>2015-07-04T01:33:45Z</time>
				<extensions>
				</extensions>
			</trkpt>
			<trkpt lat="-28.322013" lon="152.960865">
				<ele>230.963</ele>
				<time>2015-07-04T01:33:47Z</time>
				<extensions>
				</extensions>
			</trkpt>
			<trkpt lat="-28.322066" lon="152.961136">
				<ele>229.611</ele>
				<time>2015-07-04T01:33:49Z</time>
				<extensions>
				</extensions>
			</trkpt>
			<trkpt lat="-28.322087" lon="152.961499">
				<ele>229.474</ele>
				<time>2015-07-04T01:33:51Z</time>
				<extensions>
				</extensions>
			</trkpt>
			<trkpt lat="-28.322086" lon="152.961717">
				<ele>229.681</ele>
				<time>2015-07-04T01:33:52Z</time>
				<extensions>
				</extensions>
			</trkpt>
			<trkpt lat="-28.322067" lon="152.961938">
				<ele>232.173</ele>
				<time>2015-07-04T01:33:53Z</time>
				<extensions>
				</extensions>
			</trkpt>
			<trkpt lat="-28.322052" lon="152.962318">
				<ele>237.042</ele>
				<time>2015-07-04T01:33:55Z</time>
				<extensions>
				</extensions>
			</trkpt>
			<trkpt lat="-28.322049" lon="152.962672">
				<ele>241.615</ele>
				<time>2015-07-04T01:33:57Z</time>
				<extensions>
				</extensions>
			</trkpt>
			<trkpt lat="-28.322028" lon="152.963036">
				<ele>241.422</ele>
				<time>2015-07-04T01:33:59Z</time>
				<extensions>
				</extensions>
			</trkpt>
			<trkpt lat="-28.321996" lon="152.963401">
				<ele>237.004</ele>
				<time>2015-07-04T01:34:01Z</time>
				<extensions>
				</extensions>
			</trkpt>
			<trkpt lat="-28.321977" lon="152.963746">
				<ele>235.782</ele>
				<time>2015-07-04T01:34:03Z</time>
				<extensions>
				</extensions>
			</trkpt>
			<trkpt lat="-28.321964" lon="152.964092">
				<ele>239.752</ele>
				<time>2015-07-04T01:34:05Z</time>
				<extensions>
				</extensions>
			</trkpt>
			<trkpt lat="-28.321948" lon="152.964449">
				<ele>243.611</ele>
				<time>2015-07-04T01:34:07Z</time>
				<extensions>
				</extensions>
			</trkpt>
			<trkpt lat="-28.321932" lon="152.964795">
				<ele>244.036</ele>
				<time>2015-07-04T01:34:09Z</time>
				<extensions>
				</extensions>
			</trkpt>
			<trkpt lat="-28.321899" lon="152.965141">
				<ele>240.957</ele>
				<time>2015-07-04T01:34:11Z</time>
				<extensions>
				</extensions>
			</trkpt>
			<trkpt lat="-28.321884" lon="152.965488">
				<ele>237.509</ele>
				<time>2015-07-04T01:34:13Z</time>
				<extensions>
				</extensions>
			</trkpt>
			<trkpt lat="-28.321851" lon="152.965865">
				<ele>233.933</ele>
				<time>2015-07-04T01:34:15Z</time>
				<extensions>
				</extensions>
			</trkpt>
			<trkpt lat="-28.321835" lon="152.966253">
				<ele>232.995</ele>
				<time>2015-07-04T01:34:17Z</time>
				<extensions>
				</extensions>
			</trkpt>
			<trkpt lat="-28.321811" lon="152.966647">
				<ele>233.432</ele>
				<time>2015-07-04T01:34:19Z</time>
				<extensions>
				</extensions>
			</trkpt>
			<trkpt lat="-28.321777" lon="152.967035">
				<ele>235.455</ele>
				<time>2015-07-04T01:34:21Z</time>
				<extensions>
				</extensions>
			</trkpt>
			<trkpt lat="-28.321779" lon="152.967425">
				<ele>237.615</ele>
				<time>2015-07-04T01:34:23Z</time>
				<extensions>
				</extensions>
			</trkpt>
			<trkpt lat="-28.321759" lon="152.967781">
				<ele>239.200</ele>
				<time>2015-07-04T01:34:25Z</time>
				<extensions>
				</extensions>
			</trkpt>
			<trkpt lat="-28.321734" lon="152.968126">
				<ele>238.689</ele>
				<time>2015-07-04T01:34:27Z</time>
				<extensions>
				</extensions>
			</trkpt>
			<trkpt lat="-28.321710" lon="152.968504">
				<ele>239.375</ele>
				<time>2015-07-04T01:34:29Z</time>
				<extensions>
				</extensions>
			</trkpt>
			<trkpt lat="-28.321696" lon="152.968714">
				<ele>236.785</ele>
				<time>2015-07-04T01:34:30Z</time>
				<extensions>
				</extensions>
			</trkpt>
			<trkpt lat="-28.321671" lon="152.969139">
				<ele>233.609</ele>
				<time>2015-07-04T01:34:32Z</time>
				<extensions>
				</extensions>
			</trkpt>
			<trkpt lat="-28.321655" lon="152.969366">
				<ele>234.082</ele>
				<time>2015-07-04T01:34:33Z</time>
				<extensions>
				</extensions>
			</trkpt>
			<trkpt lat="-28.321639" lon="152.969576">
				<ele>233.028</ele>
				<time>2015-07-04T01:34:34Z</time>
				<extensions>
				</extensions>
			</trkpt>
			<trkpt lat="-28.321622" lon="152.969962">
				<ele>230.715</ele>
				<time>2015-07-04T01:34:36Z</time>
				<extensions>
				</extensions>
			</trkpt>
			<trkpt lat="-28.321631" lon="152.970277">
				<ele>232.738</ele>
				<time>2015-07-04T01:34:38Z</time>
				<extensions>
				</extensions>
			</trkpt>
			<trkpt lat="-28.321684" lon="152.970595">
				<ele>235.190</ele>
				<time>2015-07-04T01:34:40Z</time>
				<extensions>
				</extensions>
			</trkpt>
			<trkpt lat="-28.321803" lon="152.970864">
				<ele>238.386</ele>
				<time>2015-07-04T01:34:42Z</time>
				<extensions>
				</extensions>
			</trkpt>
			<trkpt lat="-28.321938" lon="152.971048">
				<ele>240.507</ele>
				<time>2015-07-04T01:34:44Z</time>
				<extensions>
				</extensions>
			</trkpt>
			<trkpt lat="-28.322097" lon="152.971160">
				<ele>242.503</ele>
				<time>2015-07-04T01:34:46Z</time>
				<extensions>
				</extensions>
			</trkpt>
			<trkpt lat="-28.322306" lon="152.971264">
				<ele>244.089</ele>
				<time>2015-07-04T01:34:48Z</time>
				<extensions>
				</extensions>
			</trkpt>
			<trkpt lat="-28.322485" lon="152.971333">
				<ele>241.656</ele>
				<time>2015-07-04T01:34:50Z</time>
				<extensions>
				</extensions>
			</trkpt>
			<trkpt lat="-28.322730" lon="152.971477">
				<ele>238.494</ele>
				<time>2015-07-04T01:34:53Z</time>
				<extensions>
				</extensions>
			</trkpt>
			<trkpt lat="-28.322895" lon="152.971616">
				<ele>235.962</ele>
				<time>2015-07-04T01:34:55Z</time>
				<extensions>
				</extensions>
			</trkpt>
			<trkpt lat="-28.323027" lon="152.971837">
				<ele>233.143</ele>
				<time>2015-07-04T01:34:57Z</time>
				<extensions>
				</extensions>
			</trkpt>
			<trkpt lat="-28.323134" lon="152.972074">
				<ele>229.847</ele>
				<time>2015-07-04T01:34:59Z</time>
				<extensions>
				</extensions>
			</trkpt>
			<trkpt lat="-28.323252" lon="152.972331">
				<ele>229.027</ele>
				<time>2015-07-04T01:35:01Z</time>
				<extensions>
				</extensions>
			</trkpt>
			<trkpt lat="-28.323387" lon="152.972563">
				<ele>228.641</ele>
				<time>2015-07-04T01:35:03Z</time>
				<extensions>
				</extensions>
			</trkpt>
			<trkpt lat="-28.323537" lon="152.972779">
				<ele>228.194</ele>
				<time>2015-07-04T01:35:05Z</time>
				<extensions>
				</extensions>
			</trkpt>
			<trkpt lat="-28.323708" lon="152.972951">
				<ele>232.679</ele>
				<time>2015-07-04T01:35:07Z</time>
				<extensions>
				</extensions>
			</trkpt>
			<trkpt lat="-28.323925" lon="152.973057">
				<ele>238.500</ele>
				<time>2015-07-04T01:35:09Z</time>
				<extensions>
				</extensions>
			</trkpt>
			<trkpt lat="-28.324188" lon="152.973086">
				<ele>244.265</ele>
				<time>2015-07-04T01:35:11Z</time>
				<extensions>
				</extensions>
			</trkpt>
			<trkpt lat="-28.324447" lon="152.973078">
				<ele>248.043</ele>
				<time>2015-07-04T01:35:13Z</time>
				<extensions>
				</extensions>
			</trkpt>
			<trkpt lat="-28.324667" lon="152.973031">
				<ele>249.734</ele>
				<time>2015-07-04T01:35:15Z</time>
				<extensions>
				</extensions>
			</trkpt>
			<trkpt lat="-28.324868" lon="152.972941">
				<ele>252.046</ele>
				<time>2015-07-04T01:35:17Z</time>
				<extensions>
				</extensions>
			</trkpt>
			<trkpt lat="-28.325088" lon="152.972899">
				<ele>256.045</ele>
				<time>2015-07-04T01:35:19Z</time>
				<extensions>
				</extensions>
			</trkpt>
			<trkpt lat="-28.325352" lon="152.972896">
				<ele>261.386</ele>
				<time>2015-07-04T01:35:21Z</time>
				<extensions>
				</extensions>
			</trkpt>
			<trkpt lat="-28.325626" lon="152.972873">
				<ele>267.463</ele>
				<time>2015-07-04T01:35:23Z</time>
				<extensions>
				</extensions>
			</trkpt>
			<trkpt lat="-28.325875" lon="152.972880">
				<ele>270.711</ele>
				<time>2015-07-04T01:35:25Z</time>
				<extensions>
				</extensions>
			</trkpt>
			<trkpt lat="-28.326122" lon="152.972929">
				<ele>275.300</ele>
				<time>2015-07-04T01:35:27Z</time>
				<extensions>
				</extensions>
			</trkpt>
			<trkpt lat="-28.326378" lon="152.973028">
				<ele>279.656</ele>
				<time>2015-07-04T01:35:29Z</time>
				<extensions>
				</extensions>
			</trkpt>
			<trkpt lat="-28.326658" lon="152.973116">
				<ele>282.771</ele>
				<time>2015-07-04T01:35:31Z</time>
				<extensions>
				</extensions>
			</trkpt>
			<trkpt lat="-28.326971" lon="152.973178">
				<ele>288.907</ele>
				<time>2015-07-04T01:35:33Z</time>
				<extensions>
				</extensions>
			</trkpt>
			<trkpt lat="-28.327300" lon="152.973215">
				<ele>296.013</ele>
				<time>2015-07-04T01:35:35Z</time>
				<extensions>
				</extensions>
			</trkpt>
			<trkpt lat="-28.327665" lon="152.973251">
				<ele>303.060</ele>
				<time>2015-07-04T01:35:37Z</time>
				<extensions>
				</extensions>
			</trkpt>
			<trkpt lat="-28.327845" lon="152.973274">
				<ele>304.470</ele>
				<time>2015-07-04T01:35:38Z</time>
				<extensions>
				</extensions>
			</trkpt>
			<trkpt lat="-28.328028" lon="152.973295">
				<ele>307.446</ele>
				<time>2015-07-04T01:35:39Z</time>
				<extensions>
				</extensions>
			</trkpt>
			<trkpt lat="-28.328218" lon="152.973314">
				<ele>310.607</ele>
				<time>2015-07-04T01:35:40Z</time>
				<extensions>
				</extensions>
			</trkpt>
			<trkpt lat="-28.328560" lon="152.973350">
				<ele>316.007</ele>
				<time>2015-07-04T01:35:42Z</time>
				<extensions>
				</extensions>
			</trkpt>
			<trkpt lat="-28.328876" lon="152.973381">
				<ele>319.317</ele>
				<time>2015-07-04T01:35:44Z</time>
				<extensions>
				</extensions>
			</trkpt>
			<trkpt lat="-28.329196" lon="152.973419">
				<ele>325.677</ele>
				<time>2015-07-04T01:35:46Z</time>
				<extensions>
				</extensions>
			</trkpt>
			<trkpt lat="-28.329546" lon="152.973471">
				<ele>333.327</ele>
				<time>2015-07-04T01:35:48Z</time>
				<extensions>
				</extensions>
			</trkpt>
			<trkpt lat="-28.329890" lon="152.973509">
				<ele>335.844</ele>
				<time>2015-07-04T01:35:50Z</time>
				<extensions>
				</extensions>
			</trkpt>
			<trkpt lat="-28.330212" lon="152.973536">
				<ele>337.236</ele>
				<time>2015-07-04T01:35:52Z</time>
				<extensions>
				</extensions>
			</trkpt>
			<trkpt lat="-28.330479" lon="152.973529">
				<ele>338.841</ele>
				<time>2015-07-04T01:35:54Z</time>
				<extensions>
				</extensions>
			</trkpt>
			<trkpt lat="-28.330685" lon="152.973487">
				<ele>341.006</ele>
				<time>2015-07-04T01:35:56Z</time>
				<extensions>
				</extensions>
			</trkpt>
			<trkpt lat="-28.330881" lon="152.973393">
				<ele>344.762</ele>
				<time>2015-07-04T01:35:58Z</time>
				<extensions>
				</extensions>
			</trkpt>
			<trkpt lat="-28.331076" lon="152.973263">
				<ele>350.556</ele>
				<time>2015-07-04T01:36:00Z</time>
				<extensions>
				</extensions>
			</trkpt>
			<trkpt lat="-28.331258" lon="152.973118">
				<ele>355.245</ele>
				<time>2015-07-04T01:36:02Z</time>
				<extensions>
				</extensions>
			</trkpt>
			<trkpt lat="-28.331463" lon="152.972995">
				<ele>357.551</ele>
				<time>2015-07-04T01:36:05Z</time>
				<extensions>
				</extensions>
			</trkpt>
			<trkpt lat="-28.331639" lon="152.972931">
				<ele>360.029</ele>
				<time>2015-07-04T01:36:11Z</time>
				<extensions>
				</extensions>
			</trkpt>
			<trkpt lat="-28.331825" lon="152.972961">
				<ele>360.856</ele>
				<time>2015-07-04T01:36:35Z</time>
				<extensions>
				</extensions>
			</trkpt>
			<trkpt lat="-28.332000" lon="152.973045">
				<ele>365.152</ele>
				<time>2015-07-04T01:36:58Z</time>
				<extensions>
				</extensions>
			</trkpt>
			<trkpt lat="-28.332168" lon="152.973177">
				<ele>365.092</ele>
				<time>2015-07-04T01:37:01Z</time>
				<extensions>
				</extensions>
			</trkpt>
			<trkpt lat="-28.332350" lon="152.973298">
				<ele>362.612</ele>
				<time>2015-07-04T01:37:04Z</time>
				<extensions>
				</extensions>
			</trkpt>
			<trkpt lat="-28.332541" lon="152.973429">
				<ele>360.314</ele>
				<time>2015-07-04T01:37:07Z</time>
				<extensions>
				</extensions>
			</trkpt>
			<trkpt lat="-28.332767" lon="152.973571">
				<ele>357.266</ele>
				<time>2015-07-04T01:37:10Z</time>
				<extensions>
				</extensions>
			</trkpt>
			<trkpt lat="-28.332912" lon="152.973782">
				<ele>355.792</ele>
				<time>2015-07-04T01:37:13Z</time>
				<extensions>
				</extensions>
			</trkpt>
			<trkpt lat="-28.333021" lon="152.973950">
				<ele>354.480</ele>
				<time>2015-07-04T01:37:15Z</time>
				<extensions>
				</extensions>
			</trkpt>
			<trkpt lat="-28.333141" lon="152.974124">
				<ele>353.697</ele>
				<time>2015-07-04T01:37:17Z</time>
				<extensions>
				</extensions>
			</trkpt>
			<trkpt lat="-28.333418" lon="152.974255">
				<ele>352.321</ele>
				<time>2015-07-04T01:37:20Z</time>
				<extensions>
				</extensions>
			</trkpt>
			<trkpt lat="-28.333628" lon="152.974351">
				<ele>350.691</ele>
				<time>2015-07-04T01:37:22Z</time>
				<extensions>
				</extensions>
			</trkpt>
			<trkpt lat="-28.333833" lon="152.974435">
				<ele>349.464</ele>
				<time>2015-07-04T01:37:24Z</time>
				<extensions>
				</extensions>
			</trkpt>
			<trkpt lat="-28.334035" lon="152.974473">
				<ele>348.264</ele>
				<time>2015-07-04T01:37:26Z</time>
				<extensions>
				</extensions>
			</trkpt>
			<trkpt lat="-28.334299" lon="152.974517">
				<ele>346.790</ele>
				<time>2015-07-04T01:37:29Z</time>
				<extensions>
				</extensions>
			</trkpt>
			<trkpt lat="-28.334548" lon="152.974629">
				<ele>346.390</ele>
				<time>2015-07-04T01:37:32Z</time>
				<extensions>
				</extensions>
			</trkpt>
			<trkpt lat="-28.334688" lon="152.974767">
				<ele>346.510</ele>
				<time>2015-07-04T01:37:34Z</time>
				<extensions>
				</extensions>
			</trkpt>
			<trkpt lat="-28.334813" lon="152.974935">
				<ele>344.286</ele>
				<time>2015-07-04T01:37:36Z</time>
				<extensions>
				</extensions>
			</trkpt>
			<trkpt lat="-28.334939" lon="152.975110">
				<ele>339.462</ele>
				<time>2015-07-04T01:37:38Z</time>
				<extensions>
				</extensions>
			</trkpt>
			<trkpt lat="-28.335136" lon="152.975298">
				<ele>335.899</ele>
				<time>2015-07-04T01:37:40Z</time>
				<extensions>
				</extensions>
			</trkpt>
			<trkpt lat="-28.335370" lon="152.975217">
				<ele>331.058</ele>
				<time>2015-07-04T01:37:43Z</time>
				<extensions>
				</extensions>
			</trkpt>
			<trkpt lat="-28.335555" lon="152.975160">
				<ele>329.255</ele>
				<time>2015-07-04T01:37:45Z</time>
				<extensions>
				</extensions>
			</trkpt>
			<trkpt lat="-28.335576" lon="152.974945">
				<ele>329.079</ele>
				<time>2015-07-04T01:37:48Z</time>
				<extensions>
				</extensions>
			</trkpt>
			<trkpt lat="-28.335569" lon="152.974733">
				<ele>331.365</ele>
				<time>2015-07-04T01:37:50Z</time>
				<extensions>
				</extensions>
			</trkpt>
			<trkpt lat="-28.335547" lon="152.974526">
				<ele>334.315</ele>
				<time>2015-07-04T01:37:52Z</time>
				<extensions>
				</extensions>
			</trkpt>
			<trkpt lat="-28.335508" lon="152.974298">
				<ele>335.846</ele>
				<time>2015-07-04T01:37:54Z</time>
				<extensions>
				</extensions>
			</trkpt>
			<trkpt lat="-28.335377" lon="152.973910">
				<ele>338.235</ele>
				<time>2015-07-04T01:37:58Z</time>
				<extensions>
				</extensions>
			</trkpt>
			<trkpt lat="-28.335281" lon="152.973694">
				<ele>340.157</ele>
				<time>2015-07-04T01:38:00Z</time>
				<extensions>
				</extensions>
			</trkpt>
			<trkpt lat="-28.335165" lon="152.973516">
				<ele>341.028</ele>
				<time>2015-07-04T01:38:02Z</time>
				<extensions>
				</extensions>
			</trkpt>
			<trkpt lat="-28.335017" lon="152.973338">
				<ele>343.041</ele>
				<time>2015-07-04T01:38:04Z</time>
				<extensions>
				</extensions>
			</trkpt>
			<trkpt lat="-28.334869" lon="152.973186">
				<ele>345.785</ele>
				<time>2015-07-04T01:38:06Z</time>
				<extensions>
				</extensions>
			</trkpt>
			<trkpt lat="-28.334780" lon="152.972994">
				<ele>348.943</ele>
				<time>2015-07-04T01:38:09Z</time>
				<extensions>
				</extensions>
			</trkpt>
			<trkpt lat="-28.334846" lon="152.972751">
				<ele>351.477</ele>
				<time>2015-07-04T01:38:12Z</time>
				<extensions>
				</extensions>
			</trkpt>
			<trkpt lat="-28.334925" lon="152.972551">
				<ele>353.666</ele>
				<time>2015-07-04T01:38:15Z</time>
				<extensions>
				</extensions>
			</trkpt>
			<trkpt lat="-28.335009" lon="152.972361">
				<ele>355.635</ele>
				<time>2015-07-04T01:38:17Z</time>
				<extensions>
				</extensions>
			</trkpt>
			<trkpt lat="-28.335121" lon="152.972118">
				<ele>355.694</ele>
				<time>2015-07-04T01:38:18Z</time>
				<extensions>
				</extensions>
			</trkpt>
			<trkpt lat="-28.335311" lon="152.972074">
				<ele>357.395</ele>
				<time>2015-07-04T01:38:22Z</time>
				<extensions>
				</extensions>
			</trkpt>
			<trkpt lat="-28.335518" lon="152.972038">
				<ele>360.907</ele>
				<time>2015-07-04T01:38:25Z</time>
				<extensions>
				</extensions>
			</trkpt>
			<trkpt lat="-28.335887" lon="152.971994">
				<ele>361.783</ele>
				<time>2015-07-04T01:38:26Z</time>
				<extensions>
				</extensions>
			</trkpt>
			<trkpt lat="-28.335776" lon="152.972263">
				<ele>363.860</ele>
				<time>2015-07-04T01:38:29Z</time>
				<extensions>
				</extensions>
			</trkpt>
			<trkpt lat="-28.336066" lon="152.971998">
				<ele>364.142</ele>
				<time>2015-07-04T01:38:32Z</time>
				<extensions>
				</extensions>
			</trkpt>
			<trkpt lat="-28.336364" lon="152.972036">
				<ele>365.446</ele>
				<time>2015-07-04T01:38:35Z</time>
				<extensions>
				</extensions>
			</trkpt>
			<trkpt lat="-28.336516" lon="152.971817">
				<ele>369.835</ele>
				<time>2015-07-04T01:38:40Z</time>
				<extensions>
				</extensions>
			</trkpt>
			<trkpt lat="-28.336650" lon="152.971636">
				<ele>371.857</ele>
				<time>2015-07-04T01:38:43Z</time>
				<extensions>
				</extensions>
			</trkpt>
			<trkpt lat="-28.336855" lon="152.971445">
				<ele>371.067</ele>
				<time>2015-07-04T01:38:47Z</time>
				<extensions>
				</extensions>
			</trkpt>
			<trkpt lat="-28.337046" lon="152.971307">
				<ele>369.718</ele>
				<time>2015-07-04T01:38:49Z</time>
				<extensions>
				</extensions>
			</trkpt>
			<trkpt lat="-28.337403" lon="152.971181">
				<ele>368.561</ele>
				<time>2015-07-04T01:38:51Z</time>
				<extensions>
				</extensions>
			</trkpt>
			<trkpt lat="-28.337690" lon="152.971261">
				<ele>364.308</ele>
				<time>2015-07-04T01:38:55Z</time>
				<extensions>
				</extensions>
			</trkpt>
			<trkpt lat="-28.337891" lon="152.971328">
				<ele>361.140</ele>
				<time>2015-07-04T01:38:57Z</time>
				<extensions>
				</extensions>
			</trkpt>
			<trkpt lat="-28.338135" lon="152.971388">
				<ele>358.321</ele>
				<time>2015-07-04T01:39:00Z</time>
				<extensions>
				</extensions>
			</trkpt>
			<trkpt lat="-28.338363" lon="152.971433">
				<ele>357.312</ele>
				<time>2015-07-04T01:39:03Z</time>
				<extensions>
				</extensions>
			</trkpt>
			<trkpt lat="-28.338568" lon="152.971439">
				<ele>358.750</ele>
				<time>2015-07-04T01:39:05Z</time>
				<extensions>
				</extensions>
			</trkpt>
			<trkpt lat="-28.338745" lon="152.971392">
				<ele>360.728</ele>
				<time>2015-07-04T01:39:06Z</time>
				<extensions>
				</extensions>
			</trkpt>
			<trkpt lat="-28.338757" lon="152.971104">
				<ele>363.281</ele>
				<time>2015-07-04T01:39:09Z</time>
				<extensions>
				</extensions>
			</trkpt>
			<trkpt lat="-28.338767" lon="152.970869">
				<ele>365.237</ele>
				<time>2015-07-04T01:39:11Z</time>
				<extensions>
				</extensions>
			</trkpt>
			<trkpt lat="-28.338727" lon="152.970585">
				<ele>367.775</ele>
				<time>2015-07-04T01:39:13Z</time>
				<extensions>
				</extensions>
			</trkpt>
			<trkpt lat="-28.338636" lon="152.970316">
				<ele>368.327</ele>
				<time>2015-07-04T01:39:15Z</time>
				<extensions>
				</extensions>
			</trkpt>
			<trkpt lat="-28.338506" lon="152.970069">
				<ele>368.371</ele>
				<time>2015-07-04T01:39:17Z</time>
				<extensions>
				</extensions>
			</trkpt>
			<trkpt lat="-28.338396" lon="152.969768">
				<ele>369.028</ele>
				<time>2015-07-04T01:39:19Z</time>
				<extensions>
				</extensions>
			</trkpt>
			<trkpt lat="-28.338476" lon="152.969507">
				<ele>370.482</ele>
				<time>2015-07-04T01:39:21Z</time>
				<extensions>
				</extensions>
			</trkpt>
			<trkpt lat="-28.338548" lon="152.969278">
				<ele>370.609</ele>
				<time>2015-07-04T01:39:23Z</time>
				<extensions>
				</extensions>
			</trkpt>
			<trkpt lat="-28.338753" lon="152.969229">
				<ele>371.996</ele>
				<time>2015-07-04T01:39:25Z</time>
				<extensions>
				</extensions>
			</trkpt>
			<trkpt lat="-28.338974" lon="152.969176">
				<ele>372.547</ele>
				<time>2015-07-04T01:39:27Z</time>
				<extensions>
				</extensions>
			</trkpt>
			<trkpt lat="-28.339201" lon="152.969146">
				<ele>372.256</ele>
				<time>2015-07-04T01:39:29Z</time>
				<extensions>
				</extensions>
			</trkpt>
			<trkpt lat="-28.339444" lon="152.969143">
				<ele>368.849</ele>
				<time>2015-07-04T01:39:31Z</time>
				<extensions>
				</extensions>
			</trkpt>
			<trkpt lat="-28.339686" lon="152.969151">
				<ele>366.534</ele>
				<time>2015-07-04T01:39:33Z</time>
				<extensions>
				</extensions>
			</trkpt>
			<trkpt lat="-28.339903" lon="152.969094">
				<ele>366.202</ele>
				<time>2015-07-04T01:39:35Z</time>
				<extensions>
				</extensions>
			</trkpt>
			<trkpt lat="-28.340135" lon="152.969043">
				<ele>367.794</ele>
				<time>2015-07-04T01:39:37Z</time>
				<extensions>
				</extensions>
			</trkpt>
			<trkpt lat="-28.340383" lon="152.969004">
				<ele>369.738</ele>
				<time>2015-07-04T01:39:39Z</time>
				<extensions>
				</extensions>
			</trkpt>
			<trkpt lat="-28.340634" lon="152.969004">
				<ele>371.839</ele>
				<time>2015-07-04T01:39:41Z</time>
				<extensions>
				</extensions>
			</trkpt>
			<trkpt lat="-28.340877" lon="152.969001">
				<ele>372.885</ele>
				<time>2015-07-04T01:39:43Z</time>
				<extensions>
				</extensions>
			</trkpt>
			<trkpt lat="-28.341089" lon="152.968966">
				<ele>373.657</ele>
				<time>2015-07-04T01:39:45Z</time>
				<extensions>
				</extensions>
			</trkpt>
			<trkpt lat="-28.341335" lon="152.968814">
				<ele>375.017</ele>
				<time>2015-07-04T01:39:48Z</time>
				<extensions>
				</extensions>
			</trkpt>
			<trkpt lat="-28.341486" lon="152.968635">
				<ele>378.448</ele>
				<time>2015-07-04T01:39:50Z</time>
				<extensions>
				</extensions>
			</trkpt>
			<trkpt lat="-28.341596" lon="152.968447">
				<ele>382.083</ele>
				<time>2015-07-04T01:39:52Z</time>
				<extensions>
				</extensions>
			</trkpt>
			<trkpt lat="-28.341717" lon="152.968228">
				<ele>385.519</ele>
				<time>2015-07-04T01:39:54Z</time>
				<extensions>
				</extensions>
			</trkpt>
			<trkpt lat="-28.341855" lon="152.967951">
				<ele>386.198</ele>
				<time>2015-07-04T01:39:56Z</time>
				<extensions>
				</extensions>
			</trkpt>
			<trkpt lat="-28.341964" lon="152.967707">
				<ele>388.943</ele>
				<time>2015-07-04T01:39:58Z</time>
				<extensions>
				</extensions>
			</trkpt>
			<trkpt lat="-28.342055" lon="152.967484">
				<ele>392.291</ele>
				<time>2015-07-04T01:40:02Z</time>
				<extensions>
				</extensions>
			</trkpt>
			<trkpt lat="-28.342186" lon="152.967280">
				<ele>394.220</ele>
				<time>2015-07-04T01:40:04Z</time>
				<extensions>
				</extensions>
			</trkpt>
			<trkpt lat="-28.342298" lon="152.967088">
				<ele>397.762</ele>
				<time>2015-07-04T01:40:07Z</time>
				<extensions>
				</extensions>
			</trkpt>
			<trkpt lat="-28.342418" lon="152.966917">
				<ele>398.946</ele>
				<time>2015-07-04T01:40:08Z</time>
				<extensions>
				</extensions>
			</trkpt>
			<trkpt lat="-28.342601" lon="152.966865">
				<ele>401.379</ele>
				<time>2015-07-04T01:40:11Z</time>
				<extensions>
				</extensions>
			</trkpt>
			<trkpt lat="-28.342806" lon="152.966747">
				<ele>402.617</ele>
				<time>2015-07-04T01:40:13Z</time>
				<extensions>
				</extensions>
			</trkpt>
			<trkpt lat="-28.342983" lon="152.966585">
				<ele>405.301</ele>
				<time>2015-07-04T01:40:15Z</time>
				<extensions>
				</extensions>
			</trkpt>
			<trkpt lat="-28.343151" lon="152.966461">
				<ele>405.872</ele>
				<time>2015-07-04T01:40:17Z</time>
				<extensions>
				</extensions>
			</trkpt>
			<trkpt lat="-28.343341" lon="152.966468">
				<ele>407.667</ele>
				<time>2015-07-04T01:40:19Z</time>
				<extensions>
				</extensions>
			</trkpt>
			<trkpt lat="-28.343542" lon="152.966562">
				<ele>408.733</ele>
				<time>2015-07-04T01:40:21Z</time>
				<extensions>
				</extensions>
			</trkpt>
			<trkpt lat="-28.343666" lon="152.966736">
				<ele>407.456</ele>
				<time>2015-07-04T01:40:23Z</time>
				<extensions>
				</extensions>
			</trkpt>
			<trkpt lat="-28.343688" lon="152.966944">
				<ele>405.748</ele>
				<time>2015-07-04T01:40:25Z</time>
				<extensions>
				</extensions>
			</trkpt>
			<trkpt lat="-28.343639" lon="152.967145">
				<ele>403.793</ele>
				<time>2015-07-04T01:40:27Z</time>
				<extensions>
				</extensions>
			</trkpt>
			<trkpt lat="-28.343531" lon="152.967340">
				<ele>401.713</ele>
				<time>2015-07-04T01:40:29Z</time>
				<extensions>
				</extensions>
			</trkpt>
			<trkpt lat="-28.343432" lon="152.967523">
				<ele>400.549</ele>
				<time>2015-07-04T01:40:31Z</time>
				<extensions>
				</extensions>
			</trkpt>
			<trkpt lat="-28.343313" lon="152.967773">
				<ele>399.763</ele>
				<time>2015-07-04T01:40:34Z</time>
				<extensions>
				</extensions>
			</trkpt>
			<trkpt lat="-28.343215" lon="152.968002">
				<ele>398.148</ele>
				<time>2015-07-04T01:40:37Z</time>
				<extensions>
				</extensions>
			</trkpt>
			<trkpt lat="-28.343137" lon="152.968228">
				<ele>396.124</ele>
				<time>2015-07-04T01:40:40Z</time>
				<extensions>
				</extensions>
			</trkpt>
			<trkpt lat="-28.343123" lon="152.968447">
				<ele>395.939</ele>
				<time>2015-07-04T01:40:42Z</time>
				<extensions>
				</extensions>
			</trkpt>
			<trkpt lat="-28.343128" lon="152.968719">
				<ele>394.100</ele>
				<time>2015-07-04T01:40:45Z</time>
				<extensions>
				</extensions>
			</trkpt>
			<trkpt lat="-28.343112" lon="152.968998">
				<ele>393.046</ele>
				<time>2015-07-04T01:40:48Z</time>
				<extensions>
				</extensions>
			</trkpt>
			<trkpt lat="-28.343049" lon="152.969191">
				<ele>392.673</ele>
				<time>2015-07-04T01:40:50Z</time>
				<extensions>
				</extensions>
			</trkpt>
			<trkpt lat="-28.342935" lon="152.969448">
				<ele>391.702</ele>
				<time>2015-07-04T01:40:53Z</time>
				<extensions>
				</extensions>
			</trkpt>
			<trkpt lat="-28.342841" lon="152.969728">
				<ele>389.734</ele>
				<time>2015-07-04T01:40:56Z</time>
				<extensions>
				</extensions>
			</trkpt>
			<trkpt lat="-28.342860" lon="152.969936">
				<ele>389.119</ele>
				<time>2015-07-04T01:40:58Z</time>
				<extensions>
				</extensions>
			</trkpt>
			<trkpt lat="-28.342938" lon="152.970167">
				<ele>388.322</ele>
				<time>2015-07-04T01:41:00Z</time>
				<extensions>
				</extensions>
			</trkpt>
			<trkpt lat="-28.343067" lon="152.970402">
				<ele>385.463</ele>
				<time>2015-07-04T01:41:02Z</time>
				<extensions>
				</extensions>
			</trkpt>
			<trkpt lat="-28.343244" lon="152.970628">
				<ele>382.652</ele>
				<time>2015-07-04T01:41:04Z</time>
				<extensions>
				</extensions>
			</trkpt>
			<trkpt lat="-28.343426" lon="152.970866">
				<ele>381.348</ele>
				<time>2015-07-04T01:41:06Z</time>
				<extensions>
				</extensions>
			</trkpt>
			<trkpt lat="-28.343561" lon="152.971140">
				<ele>380.481</ele>
				<time>2015-07-04T01:41:08Z</time>
				<extensions>
				</extensions>
			</trkpt>
			<trkpt lat="-28.343653" lon="152.971432">
				<ele>377.967</ele>
				<time>2015-07-04T01:41:10Z</time>
				<extensions>
				</extensions>
			</trkpt>
			<trkpt lat="-28.343721" lon="152.971695">
				<ele>376.290</ele>
				<time>2015-07-04T01:41:12Z</time>
				<extensions>
				</extensions>
			</trkpt>
			<trkpt lat="-28.343832" lon="152.971922">
				<ele>373.136</ele>
				<time>2015-07-04T01:41:15Z</time>
				<extensions>
				</extensions>
			</trkpt>
			<trkpt lat="-28.344032" lon="152.972054">
				<ele>370.557</ele>
				<time>2015-07-04T01:41:18Z</time>
				<extensions>
				</extensions>
			</trkpt>
			<trkpt lat="-28.344215" lon="152.972103">
				<ele>370.336</ele>
				<time>2015-07-04T01:41:20Z</time>
				<extensions>
				</extensions>
			</trkpt>
			<trkpt lat="-28.344429" lon="152.972138">
				<ele>370.063</ele>
				<time>2015-07-04T01:41:22Z</time>
				<extensions>
				</extensions>
			</trkpt>
			<trkpt lat="-28.344691" lon="152.972172">
				<ele>368.610</ele>
				<time>2015-07-04T01:41:24Z</time>
				<extensions>
				</extensions>
			</trkpt>
			<trkpt lat="-28.344912" lon="152.972196">
				<ele>365.456</ele>
				<time>2015-07-04T01:41:26Z</time>
				<extensions>
				</extensions>
			</trkpt>
			<trkpt lat="-28.345105" lon="152.972222">
				<ele>363.622</ele>
				<time>2015-07-04T01:41:28Z</time>
				<extensions>
				</extensions>
			</trkpt>
			<trkpt lat="-28.345303" lon="152.972226">
				<ele>361.353</ele>
				<time>2015-07-04T01:41:30Z</time>
				<extensions>
				</extensions>
			</trkpt>
			<trkpt lat="-28.345513" lon="152.972220">
				<ele>358.951</ele>
				<time>2015-07-04T01:41:32Z</time>
				<extensions>
				</extensions>
			</trkpt>
			<trkpt lat="-28.345708" lon="152.972135">
				<ele>356.812</ele>
				<time>2015-07-04T01:41:34Z</time>
				<extensions>
				</extensions>
			</trkpt>
			<trkpt lat="-28.345871" lon="152.971957">
				<ele>357.818</ele>
				<time>2015-07-04T01:41:36Z</time>
				<extensions>
				</extensions>
			</trkpt>
			<trkpt lat="-28.346011" lon="152.971751">
				<ele>356.850</ele>
				<time>2015-07-04T01:41:38Z</time>
				<extensions>
				</extensions>
			</trkpt>
			<trkpt lat="-28.346101" lon="152.971531">
				<ele>355.482</ele>
				<time>2015-07-04T01:41:40Z</time>
				<extensions>
				</extensions>
			</trkpt>
			<trkpt lat="-28.346155" lon="152.971281">
				<ele>354.080</ele>
				<time>2015-07-04T01:41:42Z</time>
				<extensions>
				</extensions>
			</trkpt>
			<trkpt lat="-28.346182" lon="152.971062">
				<ele>352.335</ele>
				<time>2015-07-04T01:41:44Z</time>
				<extensions>
				</extensions>
			</trkpt>
			<trkpt lat="-28.346192" lon="152.970848">
				<ele>351.113</ele>
				<time>2015-07-04T01:41:46Z</time>
				<extensions>
				</extensions>
			</trkpt>
			<trkpt lat="-28.346267" lon="152.970598">
				<ele>350.512</ele>
				<time>2015-07-04T01:41:48Z</time>
				<extensions>
				</extensions>
			</trkpt>
			<trkpt lat="-28.346404" lon="152.970361">
				<ele>348.997</ele>
				<time>2015-07-04T01:41:50Z</time>
				<extensions>
				</extensions>
			</trkpt>
			<trkpt lat="-28.346559" lon="152.970176">
				<ele>347.110</ele>
				<time>2015-07-04T01:41:52Z</time>
				<extensions>
				</extensions>
			</trkpt>
			<trkpt lat="-28.346740" lon="152.970029">
				<ele>345.635</ele>
				<time>2015-07-04T01:41:54Z</time>
				<extensions>
				</extensions>
			</trkpt>
			<trkpt lat="-28.346927" lon="152.969896">
				<ele>342.550</ele>
				<time>2015-07-04T01:41:56Z</time>
				<extensions>
				</extensions>
			</trkpt>
			<trkpt lat="-28.347083" lon="152.969754">
				<ele>340.726</ele>
				<time>2015-07-04T01:41:58Z</time>
				<extensions>
				</extensions>
			</trkpt>
			<trkpt lat="-28.347251" lon="152.969608">
				<ele>337.797</ele>
				<time>2015-07-04T01:42:00Z</time>
				<extensions>
				</extensions>
			</trkpt>
			<trkpt lat="-28.347434" lon="152.969537">
				<ele>336.025</ele>
				<time>2015-07-04T01:42:02Z</time>
				<extensions>
				</extensions>
			</trkpt>
			<trkpt lat="-28.347614" lon="152.969573">
				<ele>334.649</ele>
				<time>2015-07-04T01:42:04Z</time>
				<extensions>
				</extensions>
			</trkpt>
			<trkpt lat="-28.347776" lon="152.969733">
				<ele>334.519</ele>
				<time>2015-07-04T01:42:06Z</time>
				<extensions>
				</extensions>
			</trkpt>
			<trkpt lat="-28.347794" lon="152.969965">
				<ele>335.202</ele>
				<time>2015-07-04T01:42:08Z</time>
				<extensions>
				</extensions>
			</trkpt>
			<trkpt lat="-28.347850" lon="152.970169">
				<ele>333.759</ele>
				<time>2015-07-04T01:42:10Z</time>
				<extensions>
				</extensions>
			</trkpt>
			<trkpt lat="-28.347907" lon="152.970389">
				<ele>332.679</ele>
				<time>2015-07-04T01:42:12Z</time>
				<extensions>
				</extensions>
			</trkpt>
			<trkpt lat="-28.347945" lon="152.970607">
				<ele>330.093</ele>
				<time>2015-07-04T01:42:14Z</time>
				<extensions>
				</extensions>
			</trkpt>
			<trkpt lat="-28.348006" lon="152.970860">
				<ele>324.158</ele>
				<time>2015-07-04T01:42:17Z</time>
				<extensions>
				</extensions>
			</trkpt>
			<trkpt lat="-28.348216" lon="152.970972">
				<ele>321.181</ele>
				<time>2015-07-04T01:42:21Z</time>
				<extensions>
				</extensions>
			</trkpt>
			<trkpt lat="-28.348408" lon="152.970837">
				<ele>321.359</ele>
				<time>2015-07-04T01:42:24Z</time>
				<extensions>
				</extensions>
			</trkpt>
			<trkpt lat="-28.348619" lon="152.970624">
				<ele>323.426</ele>
				<time>2015-07-04T01:42:27Z</time>
				<extensions>
				</extensions>
			</trkpt>
			<trkpt lat="-28.348776" lon="152.970473">
				<ele>322.265</ele>
				<time>2015-07-04T01:42:29Z</time>
				<extensions>
				</extensions>
			</trkpt>
			<trkpt lat="-28.348949" lon="152.970337">
				<ele>321.053</ele>
				<time>2015-07-04T01:42:31Z</time>
				<extensions>
				</extensions>
			</trkpt>
			<trkpt lat="-28.349075" lon="152.970172">
				<ele>318.576</ele>
				<time>2015-07-04T01:42:33Z</time>
				<extensions>
				</extensions>
			</trkpt>
			<trkpt lat="-28.349139" lon="152.969972">
				<ele>317.258</ele>
				<time>2015-07-04T01:42:35Z</time>
				<extensions>
				</extensions>
			</trkpt>
			<trkpt lat="-28.349126" lon="152.969741">
				<ele>318.415</ele>
				<time>2015-07-04T01:42:37Z</time>
				<extensions>
				</extensions>
			</trkpt>
			<trkpt lat="-28.349119" lon="152.969529">
				<ele>317.933</ele>
				<time>2015-07-04T01:42:39Z</time>
				<extensions>
				</extensions>
			</trkpt>
			<trkpt lat="-28.349144" lon="152.969252">
				<ele>316.244</ele>
				<time>2015-07-04T01:42:41Z</time>
				<extensions>
				</extensions>
			</trkpt>
			<trkpt lat="-28.349168" lon="152.969012">
				<ele>314.917</ele>
				<time>2015-07-04T01:42:43Z</time>
				<extensions>
				</extensions>
			</trkpt>
			<trkpt lat="-28.349181" lon="152.968754">
				<ele>310.418</ele>
				<time>2015-07-04T01:42:45Z</time>
				<extensions>
				</extensions>
			</trkpt>
			<trkpt lat="-28.349232" lon="152.968548">
				<ele>307.545</ele>
				<time>2015-07-04T01:42:47Z</time>
				<extensions>
				</extensions>
			</trkpt>
			<trkpt lat="-28.349320" lon="152.968347">
				<ele>303.552</ele>
				<time>2015-07-04T01:42:49Z</time>
				<extensions>
				</extensions>
			</trkpt>
			<trkpt lat="-28.349468" lon="152.968167">
				<ele>301.596</ele>
				<time>2015-07-04T01:42:51Z</time>
				<extensions>
				</extensions>
			</trkpt>
			<trkpt lat="-28.349641" lon="152.968008">
				<ele>299.643</ele>
				<time>2015-07-04T01:42:53Z</time>
				<extensions>
				</extensions>
			</trkpt>
			<trkpt lat="-28.349825" lon="152.967862">
				<ele>299.380</ele>
				<time>2015-07-04T01:42:55Z</time>
				<extensions>
				</extensions>
			</trkpt>
			<trkpt lat="-28.350021" lon="152.967748">
				<ele>297.700</ele>
				<time>2015-07-04T01:42:57Z</time>
				<extensions>
				</extensions>
			</trkpt>
			<trkpt lat="-28.350225" lon="152.967643">
				<ele>296.364</ele>
				<time>2015-07-04T01:42:59Z</time>
				<extensions>
				</extensions>
			</trkpt>
			<trkpt lat="-28.350440" lon="152.967536">
				<ele>296.178</ele>
				<time>2015-07-04T01:43:01Z</time>
				<extensions>
				</extensions>
			</trkpt>
			<trkpt lat="-28.350647" lon="152.967434">
				<ele>294.747</ele>
				<time>2015-07-04T01:43:03Z</time>
				<extensions>
				</extensions>
			</trkpt>
			<trkpt lat="-28.350868" lon="152.967328">
				<ele>291.191</ele>
				<time>2015-07-04T01:43:05Z</time>
				<extensions>
				</extensions>
			</trkpt>
			<trkpt lat="-28.351081" lon="152.967211">
				<ele>288.884</ele>
				<time>2015-07-04T01:43:07Z</time>
				<extensions>
				</extensions>
			</trkpt>
			<trkpt lat="-28.351282" lon="152.967204">
				<ele>287.656</ele>
				<time>2015-07-04T01:43:09Z</time>
				<extensions>
				</extensions>
			</trkpt>
			<trkpt lat="-28.351452" lon="152.967293">
				<ele>286.207</ele>
				<time>2015-07-04T01:43:11Z</time>
				<extensions>
				</extensions>
			</trkpt>
			<trkpt lat="-28.351675" lon="152.967436">
				<ele>282.070</ele>
				<time>2015-07-04T01:43:14Z</time>
				<extensions>
				</extensions>
			</trkpt>
			<trkpt lat="-28.351835" lon="152.967303">
				<ele>280.362</ele>
				<time>2015-07-04T01:43:17Z</time>
				<extensions>
				</extensions>
			</trkpt>
			<trkpt lat="-28.351958" lon="152.967112">
				<ele>280.232</ele>
				<time>2015-07-04T01:43:19Z</time>
				<extensions>
				</extensions>
			</trkpt>
			<trkpt lat="-28.352164" lon="152.966860">
				<ele>277.700</ele>
				<time>2015-07-04T01:43:22Z</time>
				<extensions>
				</extensions>
			</trkpt>
			<trkpt lat="-28.352420" lon="152.966735">
				<ele>276.207</ele>
				<time>2015-07-04T01:43:24Z</time>
				<extensions>
				</extensions>
			</trkpt>
			<trkpt lat="-28.352627" lon="152.966739">
				<ele>275.436</ele>
				<time>2015-07-04T01:43:26Z</time>
				<extensions>
				</extensions>
			</trkpt>
			<trkpt lat="-28.352855" lon="152.966793">
				<ele>273.176</ele>
				<time>2015-07-04T01:43:28Z</time>
				<extensions>
				</extensions>
			</trkpt>
			<trkpt lat="-28.353127" lon="152.966884">
				<ele>272.068</ele>
				<time>2015-07-04T01:43:30Z</time>
				<extensions>
				</extensions>
			</trkpt>
			<trkpt lat="-28.353356" lon="152.966993">
				<ele>268.893</ele>
				<time>2015-07-04T01:43:32Z</time>
				<extensions>
				</extensions>
			</trkpt>
			<trkpt lat="-28.353540" lon="152.967127">
				<ele>266.248</ele>
				<time>2015-07-04T01:43:34Z</time>
				<extensions>
				</extensions>
			</trkpt>
			<trkpt lat="-28.353681" lon="152.967302">
				<ele>264.293</ele>
				<time>2015-07-04T01:43:36Z</time>
				<extensions>
				</extensions>
			</trkpt>
			<trkpt lat="-28.353785" lon="152.967512">
				<ele>261.795</ele>
				<time>2015-07-04T01:43:38Z</time>
				<extensions>
				</extensions>
			</trkpt>
			<trkpt lat="-28.353847" lon="152.967712">
				<ele>257.918</ele>
				<time>2015-07-04T01:43:40Z</time>
				<extensions>
				</extensions>
			</trkpt>
			<trkpt lat="-28.353977" lon="152.967878">
				<ele>255.450</ele>
				<time>2015-07-04T01:43:42Z</time>
				<extensions>
				</extensions>
			</trkpt>
			<trkpt lat="-28.354083" lon="152.968108">
				<ele>250.506</ele>
				<time>2015-07-04T01:43:45Z</time>
				<extensions>
				</extensions>
			</trkpt>
			<trkpt lat="-28.354217" lon="152.968320">
				<ele>248.748</ele>
				<time>2015-07-04T01:43:48Z</time>
				<extensions>
				</extensions>
			</trkpt>
			<trkpt lat="-28.354442" lon="152.968399">
				<ele>245.950</ele>
				<time>2015-07-04T01:43:51Z</time>
				<extensions>
				</extensions>
			</trkpt>
			<trkpt lat="-28.354678" lon="152.968303">
				<ele>243.391</ele>
				<time>2015-07-04T01:43:54Z</time>
				<extensions>
				</extensions>
			</trkpt>
			<trkpt lat="-28.354815" lon="152.968060">
				<ele>242.762</ele>
				<time>2015-07-04T01:43:57Z</time>
				<extensions>
				</extensions>
			</trkpt>
			<trkpt lat="-28.354952" lon="152.967790">
				<ele>240.573</ele>
				<time>2015-07-04T01:44:00Z</time>
				<extensions>
				</extensions>
			</trkpt>
			<trkpt lat="-28.355093" lon="152.967616">
				<ele>237.629</ele>
				<time>2015-07-04T01:44:02Z</time>
				<extensions>
				</extensions>
			</trkpt>
			<trkpt lat="-28.355266" lon="152.967524">
				<ele>234.918</ele>
				<time>2015-07-04T01:44:04Z</time>
				<extensions>
				</extensions>
			</trkpt>
			<trkpt lat="-28.355506" lon="152.967525">
				<ele>233.185</ele>
				<time>2015-07-04T01:44:06Z</time>
				<extensions>
				</extensions>
			</trkpt>
			<trkpt lat="-28.355768" lon="152.967616">
				<ele>230.845</ele>
				<time>2015-07-04T01:44:08Z</time>
				<extensions>
				</extensions>
			</trkpt>
			<trkpt lat="-28.356019" lon="152.967730">
				<ele>227.095</ele>
				<time>2015-07-04T01:44:10Z</time>
				<extensions>
				</extensions>
			</trkpt>
			<trkpt lat="-28.356234" lon="152.967846">
				<ele>223.445</ele>
				<time>2015-07-04T01:44:12Z</time>
				<extensions>
				</extensions>
			</trkpt>
			<trkpt lat="-28.356422" lon="152.967955">
				<ele>219.294</ele>
				<time>2015-07-04T01:44:14Z</time>
				<extensions>
				</extensions>
			</trkpt>
			<trkpt lat="-28.356580" lon="152.968153">
				<ele>215.062</ele>
				<time>2015-07-04T01:44:17Z</time>
				<extensions>
				</extensions>
			</trkpt>
			<trkpt lat="-28.356805" lon="152.968270">
				<ele>211.518</ele>
				<time>2015-07-04T01:44:20Z</time>
				<extensions>
				</extensions>
			</trkpt>
			<trkpt lat="-28.356999" lon="152.968100">
				<ele>210.331</ele>
				<time>2015-07-04T01:44:23Z</time>
				<extensions>
				</extensions>
			</trkpt>
			<trkpt lat="-28.357146" lon="152.967910">
				<ele>209.795</ele>
				<time>2015-07-04T01:44:25Z</time>
				<extensions>
				</extensions>
			</trkpt>
			<trkpt lat="-28.357330" lon="152.967733">
				<ele>207.761</ele>
				<time>2015-07-04T01:44:27Z</time>
				<extensions>
				</extensions>
			</trkpt>
			<trkpt lat="-28.357556" lon="152.967582">
				<ele>205.051</ele>
				<time>2015-07-04T01:44:29Z</time>
				<extensions>
				</extensions>
			</trkpt>
			<trkpt lat="-28.357788" lon="152.967446">
				<ele>202.744</ele>
				<time>2015-07-04T01:44:31Z</time>
				<extensions>
				</extensions>
			</trkpt>
			<trkpt lat="-28.358009" lon="152.967316">
				<ele>199.769</ele>
				<time>2015-07-04T01:44:33Z</time>
				<extensions>
				</extensions>
			</trkpt>
			<trkpt lat="-28.358208" lon="152.967200">
				<ele>197.337</ele>
				<time>2015-07-04T01:44:35Z</time>
				<extensions>
				</extensions>
			</trkpt>
			<trkpt lat="-28.358395" lon="152.967156">
				<ele>195.983</ele>
				<time>2015-07-04T01:44:37Z</time>
				<extensions>
				</extensions>
			</trkpt>
			<trkpt lat="-28.358596" lon="152.967163">
				<ele>195.080</ele>
				<time>2015-07-04T01:44:39Z</time>
				<extensions>
				</extensions>
			</trkpt>
			<trkpt lat="-28.358792" lon="152.967196">
				<ele>194.523</ele>
				<time>2015-07-04T01:44:41Z</time>
				<extensions>
				</extensions>
			</trkpt>
			<trkpt lat="-28.358988" lon="152.967262">
				<ele>193.172</ele>
				<time>2015-07-04T01:44:43Z</time>
				<extensions>
				</extensions>
			</trkpt>
			<trkpt lat="-28.359168" lon="152.967373">
				<ele>192.136</ele>
				<time>2015-07-04T01:44:45Z</time>
				<extensions>
				</extensions>
			</trkpt>
			<trkpt lat="-28.359335" lon="152.967478">
				<ele>190.682</ele>
				<time>2015-07-04T01:44:47Z</time>
				<extensions>
				</extensions>
			</trkpt>
			<trkpt lat="-28.359529" lon="152.967507">
				<ele>187.856</ele>
				<time>2015-07-04T01:44:49Z</time>
				<extensions>
				</extensions>
			</trkpt>
			<trkpt lat="-28.359746" lon="152.967470">
				<ele>187.828</ele>
				<time>2015-07-04T01:44:51Z</time>
				<extensions>
				</extensions>
			</trkpt>
			<trkpt lat="-28.359988" lon="152.967459">
				<ele>188.158</ele>
				<time>2015-07-04T01:44:53Z</time>
				<extensions>
				</extensions>
			</trkpt>
			<trkpt lat="-28.360258" lon="152.967496">
				<ele>190.152</ele>
				<time>2015-07-04T01:44:55Z</time>
				<extensions>
				</extensions>
			</trkpt>
			<trkpt lat="-28.360551" lon="152.967561">
				<ele>191.127</ele>
				<time>2015-07-04T01:44:57Z</time>
				<extensions>
				</extensions>
			</trkpt>
			<trkpt lat="-28.360791" lon="152.967652">
				<ele>190.820</ele>
				<time>2015-07-04T01:44:59Z</time>
				<extensions>
				</extensions>
			</trkpt>
			<trkpt lat="-28.361022" lon="152.967798">
				<ele>191.371</ele>
				<time>2015-07-04T01:45:01Z</time>
				<extensions>
				</extensions>
			</trkpt>
			<trkpt lat="-28.361216" lon="152.968003">
				<ele>192.312</ele>
				<time>2015-07-04T01:45:03Z</time>
				<extensions>
				</extensions>
			</trkpt>
			<trkpt lat="-28.361416" lon="152.968231">
				<ele>192.842</ele>
				<time>2015-07-04T01:45:05Z</time>
				<extensions>
				</extensions>
			</trkpt>
			<trkpt lat="-28.361617" lon="152.968446">
				<ele>191.912</ele>
				<time>2015-07-04T01:45:07Z</time>
				<extensions>
				</extensions>
			</trkpt>
			<trkpt lat="-28.361840" lon="152.968690">
				<ele>191.845</ele>
				<time>2015-07-04T01:45:09Z</time>
				<extensions>
				</extensions>
			</trkpt>
			<trkpt lat="-28.362044" lon="152.968910">
				<ele>192.325</ele>
				<time>2015-07-04T01:45:11Z</time>
				<extensions>
				</extensions>
			</trkpt>
			<trkpt lat="-28.362221" lon="152.969140">
				<ele>192.755</ele>
				<time>2015-07-04T01:45:13Z</time>
				<extensions>
				</extensions>
			</trkpt>
			<trkpt lat="-28.362402" lon="152.969378">
				<ele>191.568</ele>
				<time>2015-07-04T01:45:15Z</time>
				<extensions>
				</extensions>
			</trkpt>
			<trkpt lat="-28.362603" lon="152.969605">
				<ele>189.144</ele>
				<time>2015-07-04T01:45:17Z</time>
				<extensions>
				</extensions>
			</trkpt>
			<trkpt lat="-28.362802" lon="152.969836">
				<ele>188.596</ele>
				<time>2015-07-04T01:45:19Z</time>
				<extensions>
				</extensions>
			</trkpt>
			<trkpt lat="-28.363017" lon="152.970044">
				<ele>186.089</ele>
				<time>2015-07-04T01:45:21Z</time>
				<extensions>
				</extensions>
			</trkpt>
			<trkpt lat="-28.363223" lon="152.970243">
				<ele>184.369</ele>
				<time>2015-07-04T01:45:23Z</time>
				<extensions>
				</extensions>
			</trkpt>
			<trkpt lat="-28.363450" lon="152.970415">
				<ele>185.129</ele>
				<time>2015-07-04T01:45:25Z</time>
				<extensions>
				</extensions>
			</trkpt>
			<trkpt lat="-28.363695" lon="152.970568">
				<ele>186.544</ele>
				<time>2015-07-04T01:45:27Z</time>
				<extensions>
				</extensions>
			</trkpt>
			<trkpt lat="-28.363922" lon="152.970710">
				<ele>184.873</ele>
				<time>2015-07-04T01:45:29Z</time>
				<extensions>
				</extensions>
			</trkpt>
			<trkpt lat="-28.364143" lon="152.970902">
				<ele>185.432</ele>
				<time>2015-07-04T01:45:31Z</time>
				<extensions>
				</extensions>
			</trkpt>
			<trkpt lat="-28.364321" lon="152.971120">
				<ele>182.298</ele>
				<time>2015-07-04T01:45:33Z</time>
				<extensions>
				</extensions>
			</trkpt>
			<trkpt lat="-28.364470" lon="152.971352">
				<ele>178.742</ele>
				<time>2015-07-04T01:45:35Z</time>
				<extensions>
				</extensions>
			</trkpt>
			<trkpt lat="-28.364618" lon="152.971584">
				<ele>177.320</ele>
				<time>2015-07-04T01:45:37Z</time>
				<extensions>
				</extensions>
			</trkpt>
			<trkpt lat="-28.364783" lon="152.971794">
				<ele>175.248</ele>
				<time>2015-07-04T01:45:39Z</time>
				<extensions>
				</extensions>
			</trkpt>
			<trkpt lat="-28.364971" lon="152.971954">
				<ele>173.501</ele>
				<time>2015-07-04T01:45:41Z</time>
				<extensions>
				</extensions>
			</trkpt>
			<trkpt lat="-28.365190" lon="152.972076">
				<ele>174.089</ele>
				<time>2015-07-04T01:45:43Z</time>
				<extensions>
				</extensions>
			</trkpt>
			<trkpt lat="-28.365432" lon="152.972146">
				<ele>173.584</ele>
				<time>2015-07-04T01:45:45Z</time>
				<extensions>
				</extensions>
			</trkpt>
			<trkpt lat="-28.365666" lon="152.972220">
				<ele>172.749</ele>
				<time>2015-07-04T01:45:47Z</time>
				<extensions>
				</extensions>
			</trkpt>
			<trkpt lat="-28.365893" lon="152.972289">
				<ele>172.074</ele>
				<time>2015-07-04T01:45:49Z</time>
				<extensions>
				</extensions>
			</trkpt>
			<trkpt lat="-28.366123" lon="152.972348">
				<ele>173.062</ele>
				<time>2015-07-04T01:45:51Z</time>
				<extensions>
				</extensions>
			</trkpt>
			<trkpt lat="-28.366346" lon="152.972375">
				<ele>172.006</ele>
				<time>2015-07-04T01:45:53Z</time>
				<extensions>
				</extensions>
			</trkpt>
			<trkpt lat="-28.366577" lon="152.972374">
				<ele>173.363</ele>
				<time>2015-07-04T01:45:55Z</time>
				<extensions>
				</extensions>
			</trkpt>
			<trkpt lat="-28.366795" lon="152.972358">
				<ele>172.336</ele>
				<time>2015-07-04T01:45:57Z</time>
				<extensions>
				</extensions>
			</trkpt>
			<trkpt lat="-28.367004" lon="152.972308">
				<ele>171.502</ele>
				<time>2015-07-04T01:45:59Z</time>
				<extensions>
				</extensions>
			</trkpt>
			<trkpt lat="-28.367180" lon="152.972199">
				<ele>171.628</ele>
				<time>2015-07-04T01:46:01Z</time>
				<extensions>
				</extensions>
			</trkpt>
			<trkpt lat="-28.367346" lon="152.972015">
				<ele>173.896</ele>
				<time>2015-07-04T01:46:03Z</time>
				<extensions>
				</extensions>
			</trkpt>
			<trkpt lat="-28.367486" lon="152.971782">
				<ele>176.977</ele>
				<time>2015-07-04T01:46:05Z</time>
				<extensions>
				</extensions>
			</trkpt>
			<trkpt lat="-28.367606" lon="152.971544">
				<ele>177.326</ele>
				<time>2015-07-04T01:46:07Z</time>
				<extensions>
				</extensions>
			</trkpt>
			<trkpt lat="-28.367710" lon="152.971323">
				<ele>177.761</ele>
				<time>2015-07-04T01:46:09Z</time>
				<extensions>
				</extensions>
			</trkpt>
			<trkpt lat="-28.367938" lon="152.971188">
				<ele>178.087</ele>
				<time>2015-07-04T01:46:11Z</time>
				<extensions>
				</extensions>
			</trkpt>
			<trkpt lat="-28.368119" lon="152.971080">
				<ele>178.220</ele>
				<time>2015-07-04T01:46:13Z</time>
				<extensions>
				</extensions>
			</trkpt>
			<trkpt lat="-28.368347" lon="152.971026">
				<ele>177.099</ele>
				<time>2015-07-04T01:46:15Z</time>
				<extensions>
				</extensions>
			</trkpt>
			<trkpt lat="-28.368627" lon="152.970991">
				<ele>180.487</ele>
				<time>2015-07-04T01:46:17Z</time>
				<extensions>
				</extensions>
			</trkpt>
			<trkpt lat="-28.368930" lon="152.970971">
				<ele>185.997</ele>
				<time>2015-07-04T01:46:19Z</time>
				<extensions>
				</extensions>
			</trkpt>
			<trkpt lat="-28.369218" lon="152.970967">
				<ele>191.246</ele>
				<time>2015-07-04T01:46:21Z</time>
				<extensions>
				</extensions>
			</trkpt>
			<trkpt lat="-28.369464" lon="152.970980">
				<ele>193.753</ele>
				<time>2015-07-04T01:46:23Z</time>
				<extensions>
				</extensions>
			</trkpt>
			<trkpt lat="-28.369682" lon="152.971016">
				<ele>195.344</ele>
				<time>2015-07-04T01:46:25Z</time>
				<extensions>
				</extensions>
			</trkpt>
			<trkpt lat="-28.369883" lon="152.971100">
				<ele>198.639</ele>
				<time>2015-07-04T01:46:27Z</time>
				<extensions>
				</extensions>
			</trkpt>
			<trkpt lat="-28.370071" lon="152.971308">
				<ele>202.737</ele>
				<time>2015-07-04T01:46:29Z</time>
				<extensions>
				</extensions>
			</trkpt>
			<trkpt lat="-28.370252" lon="152.971555">
				<ele>205.415</ele>
				<time>2015-07-04T01:46:31Z</time>
				<extensions>
				</extensions>
			</trkpt>
			<trkpt lat="-28.370371" lon="152.971752">
				<ele>206.461</ele>
				<time>2015-07-04T01:46:33Z</time>
				<extensions>
				</extensions>
			</trkpt>
			<trkpt lat="-28.370477" lon="152.971964">
				<ele>207.810</ele>
				<time>2015-07-04T01:46:35Z</time>
				<extensions>
				</extensions>
			</trkpt>
			<trkpt lat="-28.370583" lon="152.972167">
				<ele>207.913</ele>
				<time>2015-07-04T01:46:37Z</time>
				<extensions>
				</extensions>
			</trkpt>
			<trkpt lat="-28.370688" lon="152.972341">
				<ele>209.769</ele>
				<time>2015-07-04T01:46:39Z</time>
				<extensions>
				</extensions>
			</trkpt>
			<trkpt lat="-28.370798" lon="152.972538">
				<ele>210.100</ele>
				<time>2015-07-04T01:46:41Z</time>
				<extensions>
				</extensions>
			</trkpt>
			<trkpt lat="-28.370975" lon="152.972663">
				<ele>210.243</ele>
				<time>2015-07-04T01:46:44Z</time>
				<extensions>
				</extensions>
			</trkpt>
			<trkpt lat="-28.371166" lon="152.972565">
				<ele>210.856</ele>
				<time>2015-07-04T01:46:47Z</time>
				<extensions>
				</extensions>
			</trkpt>
			<trkpt lat="-28.371250" lon="152.972372">
				<ele>210.597</ele>
				<time>2015-07-04T01:46:49Z</time>
				<extensions>
				</extensions>
			</trkpt>
			<trkpt lat="-28.371312" lon="152.972123">
				<ele>209.204</ele>
				<time>2015-07-04T01:46:51Z</time>
				<extensions>
				</extensions>
			</trkpt>
			<trkpt lat="-28.371415" lon="152.971858">
				<ele>207.812</ele>
				<time>2015-07-04T01:46:53Z</time>
				<extensions>
				</extensions>
			</trkpt>
			<trkpt lat="-28.371506" lon="152.971642">
				<ele>205.839</ele>
				<time>2015-07-04T01:46:55Z</time>
				<extensions>
				</extensions>
			</trkpt>
			<trkpt lat="-28.371626" lon="152.971446">
				<ele>203.461</ele>
				<time>2015-07-04T01:46:57Z</time>
				<extensions>
				</extensions>
			</trkpt>
			<trkpt lat="-28.371766" lon="152.971312">
				<ele>199.533</ele>
				<time>2015-07-04T01:46:59Z</time>
				<extensions>
				</extensions>
			</trkpt>
			<trkpt lat="-28.371997" lon="152.971213">
				<ele>197.229</ele>
				<time>2015-07-04T01:47:02Z</time>
				<extensions>
				</extensions>
			</trkpt>
			<trkpt lat="-28.372226" lon="152.971300">
				<ele>198.947</ele>
				<time>2015-07-04T01:47:05Z</time>
				<extensions>
				</extensions>
			</trkpt>
			<trkpt lat="-28.372372" lon="152.971442">
				<ele>199.511</ele>
				<time>2015-07-04T01:47:07Z</time>
				<extensions>
				</extensions>
			</trkpt>
			<trkpt lat="-28.372577" lon="152.971643">
				<ele>198.607</ele>
				<time>2015-07-04T01:47:10Z</time>
				<extensions>
				</extensions>
			</trkpt>
			<trkpt lat="-28.372701" lon="152.971805">
				<ele>198.104</ele>
				<time>2015-07-04T01:47:12Z</time>
				<extensions>
				</extensions>
			</trkpt>
			<trkpt lat="-28.372810" lon="152.972006">
				<ele>197.088</ele>
				<time>2015-07-04T01:47:14Z</time>
				<extensions>
				</extensions>
			</trkpt>
			<trkpt lat="-28.372913" lon="152.972211">
				<ele>195.525</ele>
				<time>2015-07-04T01:47:16Z</time>
				<extensions>
				</extensions>
			</trkpt>
			<trkpt lat="-28.373003" lon="152.972438">
				<ele>192.986</ele>
				<time>2015-07-04T01:47:18Z</time>
				<extensions>
				</extensions>
			</trkpt>
			<trkpt lat="-28.373113" lon="152.972645">
				<ele>189.232</ele>
				<time>2015-07-04T01:47:20Z</time>
				<extensions>
				</extensions>
			</trkpt>
			<trkpt lat="-28.373234" lon="152.972827">
				<ele>186.141</ele>
				<time>2015-07-04T01:47:22Z</time>
				<extensions>
				</extensions>
			</trkpt>
			<trkpt lat="-28.373420" lon="152.973042">
				<ele>181.428</ele>
				<time>2015-07-04T01:47:25Z</time>
				<extensions>
				</extensions>
			</trkpt>
			<trkpt lat="-28.373628" lon="152.973159">
				<ele>177.881</ele>
				<time>2015-07-04T01:47:28Z</time>
				<extensions>
				</extensions>
			</trkpt>
			<trkpt lat="-28.373846" lon="152.973054">
				<ele>175.488</ele>
				<time>2015-07-04T01:47:31Z</time>
				<extensions>
				</extensions>
			</trkpt>
			<trkpt lat="-28.373966" lon="152.972883">
				<ele>173.431</ele>
				<time>2015-07-04T01:47:33Z</time>
				<extensions>
				</extensions>
			</trkpt>
			<trkpt lat="-28.374088" lon="152.972706">
				<ele>171.169</ele>
				<time>2015-07-04T01:47:35Z</time>
				<extensions>
				</extensions>
			</trkpt>
			<trkpt lat="-28.374215" lon="152.972541">
				<ele>168.348</ele>
				<time>2015-07-04T01:47:37Z</time>
				<extensions>
				</extensions>
			</trkpt>
			<trkpt lat="-28.374400" lon="152.972346">
				<ele>165.015</ele>
				<time>2015-07-04T01:47:40Z</time>
				<extensions>
				</extensions>
			</trkpt>
			<trkpt lat="-28.374644" lon="152.972218">
				<ele>162.484</ele>
				<time>2015-07-04T01:47:43Z</time>
				<extensions>
				</extensions>
			</trkpt>
			<trkpt lat="-28.374850" lon="152.972126">
				<ele>162.822</ele>
				<time>2015-07-04T01:47:45Z</time>
				<extensions>
				</extensions>
			</trkpt>
			<trkpt lat="-28.375079" lon="152.972039">
				<ele>165.633</ele>
				<time>2015-07-04T01:47:47Z</time>
				<extensions>
				</extensions>
			</trkpt>
			<trkpt lat="-28.375321" lon="152.972058">
				<ele>169.007</ele>
				<time>2015-07-04T01:47:50Z</time>
				<extensions>
				</extensions>
			</trkpt>
			<trkpt lat="-28.375481" lon="152.972241">
				<ele>174.055</ele>
				<time>2015-07-04T01:47:53Z</time>
				<extensions>
				</extensions>
			</trkpt>
			<trkpt lat="-28.375522" lon="152.972495">
				<ele>179.494</ele>
				<time>2015-07-04T01:47:56Z</time>
				<extensions>
				</extensions>
			</trkpt>
			<trkpt lat="-28.375584" lon="152.972691">
				<ele>181.616</ele>
				<time>2015-07-04T01:47:58Z</time>
				<extensions>
				</extensions>
			</trkpt>
			<trkpt lat="-28.375769" lon="152.972890">
				<ele>185.885</ele>
				<time>2015-07-04T01:48:01Z</time>
				<extensions>
				</extensions>
			</trkpt>
			<trkpt lat="-28.375974" lon="152.972960">
				<ele>189.484</ele>
				<time>2015-07-04T01:48:03Z</time>
				<extensions>
				</extensions>
			</trkpt>
			<trkpt lat="-28.376195" lon="152.973006">
				<ele>191.471</ele>
				<time>2015-07-04T01:48:05Z</time>
				<extensions>
				</extensions>
			</trkpt>
			<trkpt lat="-28.376389" lon="152.973044">
				<ele>191.130</ele>
				<time>2015-07-04T01:48:07Z</time>
				<extensions>
				</extensions>
			</trkpt>
			<trkpt lat="-28.376602" lon="152.973071">
				<ele>191.037</ele>
				<time>2015-07-04T01:48:09Z</time>
				<extensions>
				</extensions>
			</trkpt>
			<trkpt lat="-28.376863" lon="152.973061">
				<ele>189.405</ele>
				<time>2015-07-04T01:48:11Z</time>
				<extensions>
				</extensions>
			</trkpt>
			<trkpt lat="-28.377151" lon="152.973036">
				<ele>185.806</ele>
				<time>2015-07-04T01:48:13Z</time>
				<extensions>
				</extensions>
			</trkpt>
			<trkpt lat="-28.377440" lon="152.973042">
				<ele>183.740</ele>
				<time>2015-07-04T01:48:15Z</time>
				<extensions>
				</extensions>
			</trkpt>
			<trkpt lat="-28.377700" lon="152.973045">
				<ele>182.103</ele>
				<time>2015-07-04T01:48:17Z</time>
				<extensions>
				</extensions>
			</trkpt>
			<trkpt lat="-28.377966" lon="152.973054">
				<ele>180.429</ele>
				<time>2015-07-04T01:48:19Z</time>
				<extensions>
				</extensions>
			</trkpt>
			<trkpt lat="-28.378183" lon="152.973105">
				<ele>179.871</ele>
				<time>2015-07-04T01:48:21Z</time>
				<extensions>
				</extensions>
			</trkpt>
			<trkpt lat="-28.378413" lon="152.973199">
				<ele>179.873</ele>
				<time>2015-07-04T01:48:23Z</time>
				<extensions>
				</extensions>
			</trkpt>
			<trkpt lat="-28.378623" lon="152.973356">
				<ele>183.452</ele>
				<time>2015-07-04T01:48:25Z</time>
				<extensions>
				</extensions>
			</trkpt>
			<trkpt lat="-28.378801" lon="152.973509">
				<ele>184.223</ele>
				<time>2015-07-04T01:48:27Z</time>
				<extensions>
				</extensions>
			</trkpt>
			<trkpt lat="-28.378952" lon="152.973646">
				<ele>183.842</ele>
				<time>2015-07-04T01:48:29Z</time>
				<extensions>
				</extensions>
			</trkpt>
			<trkpt lat="-28.379108" lon="152.973782">
				<ele>185.137</ele>
				<time>2015-07-04T01:48:31Z</time>
				<extensions>
				</extensions>
			</trkpt>
			<trkpt lat="-28.379261" lon="152.973942">
				<ele>186.593</ele>
				<time>2015-07-04T01:48:33Z</time>
				<extensions>
				</extensions>
			</trkpt>
			<trkpt lat="-28.379417" lon="152.974133">
				<ele>185.753</ele>
				<time>2015-07-04T01:48:35Z</time>
				<extensions>
				</extensions>
			</trkpt>
			<trkpt lat="-28.379549" lon="152.974351">
				<ele>184.645</ele>
				<time>2015-07-04T01:48:37Z</time>
				<extensions>
				</extensions>
			</trkpt>
			<trkpt lat="-28.379661" lon="152.974586">
				<ele>182.436</ele>
				<time>2015-07-04T01:48:39Z</time>
				<extensions>
				</extensions>
			</trkpt>
			<trkpt lat="-28.379769" lon="152.974828">
				<ele>178.583</ele>
				<time>2015-07-04T01:48:41Z</time>
				<extensions>
				</extensions>
			</trkpt>
			<trkpt lat="-28.379869" lon="152.975072">
				<ele>175.208</ele>
				<time>2015-07-04T01:48:43Z</time>
				<extensions>
				</extensions>
			</trkpt>
			<trkpt lat="-28.379999" lon="152.975317">
				<ele>171.685</ele>
				<time>2015-07-04T01:48:45Z</time>
				<extensions>
				</extensions>
			</trkpt>
			<trkpt lat="-28.380147" lon="152.975521">
				<ele>169.150</ele>
				<time>2015-07-04T01:48:47Z</time>
				<extensions>
				</extensions>
			</trkpt>
			<trkpt lat="-28.380326" lon="152.975697">
				<ele>166.329</ele>
				<time>2015-07-04T01:48:49Z</time>
				<extensions>
				</extensions>
			</trkpt>
			<trkpt lat="-28.380525" lon="152.975837">
				<ele>163.841</ele>
				<time>2015-07-04T01:48:51Z</time>
				<extensions>
				</extensions>
			</trkpt>
			<trkpt lat="-28.380761" lon="152.975925">
				<ele>159.732</ele>
				<time>2015-07-04T01:48:53Z</time>
				<extensions>
				</extensions>
			</trkpt>
			<trkpt lat="-28.381019" lon="152.975965">
				<ele>155.858</ele>
				<time>2015-07-04T01:48:55Z</time>
				<extensions>
				</extensions>
			</trkpt>
			<trkpt lat="-28.381275" lon="152.975974">
				<ele>154.268</ele>
				<time>2015-07-04T01:48:57Z</time>
				<extensions>
				</extensions>
			</trkpt>
			<trkpt lat="-28.381532" lon="152.975987">
				<ele>153.061</ele>
				<time>2015-07-04T01:48:59Z</time>
				<extensions>
				</extensions>
			</trkpt>
			<trkpt lat="-28.381827" lon="152.975997">
				<ele>154.024</ele>
				<time>2015-07-04T01:49:01Z</time>
				<extensions>
				</extensions>
			</trkpt>
			<trkpt lat="-28.382115" lon="152.976003">
				<ele>157.063</ele>
				<time>2015-07-04T01:49:03Z</time>
				<extensions>
				</extensions>
			</trkpt>
			<trkpt lat="-28.382390" lon="152.976011">
				<ele>156.553</ele>
				<time>2015-07-04T01:49:05Z</time>
				<extensions>
				</extensions>
			</trkpt>
			<trkpt lat="-28.382645" lon="152.976021">
				<ele>154.315</ele>
				<time>2015-07-04T01:49:07Z</time>
				<extensions>
				</extensions>
			</trkpt>
			<trkpt lat="-28.382916" lon="152.976045">
				<ele>151.624</ele>
				<time>2015-07-04T01:49:09Z</time>
				<extensions>
				</extensions>
			</trkpt>
			<trkpt lat="-28.383165" lon="152.976116">
				<ele>149.144</ele>
				<time>2015-07-04T01:49:11Z</time>
				<extensions>
				</extensions>
			</trkpt>
			<trkpt lat="-28.383404" lon="152.976234">
				<ele>148.133</ele>
				<time>2015-07-04T01:49:13Z</time>
				<extensions>
				</extensions>
			</trkpt>
			<trkpt lat="-28.383675" lon="152.976386">
				<ele>148.840</ele>
				<time>2015-07-04T01:49:15Z</time>
				<extensions>
				</extensions>
			</trkpt>
			<trkpt lat="-28.383923" lon="152.976538">
				<ele>151.261</ele>
				<time>2015-07-04T01:49:17Z</time>
				<extensions>
				</extensions>
			</trkpt>
			<trkpt lat="-28.384186" lon="152.976649">
				<ele>152.092</ele>
				<time>2015-07-04T01:49:19Z</time>
				<extensions>
				</extensions>
			</trkpt>
			<trkpt lat="-28.384460" lon="152.976727">
				<ele>153.086</ele>
				<time>2015-07-04T01:49:21Z</time>
				<extensions>
				</extensions>
			</trkpt>
			<trkpt lat="-28.384753" lon="152.976800">
				<ele>151.866</ele>
				<time>2015-07-04T01:49:23Z</time>
				<extensions>
				</extensions>
			</trkpt>
			<trkpt lat="-28.385050" lon="152.976873">
				<ele>149.919</ele>
				<time>2015-07-04T01:49:25Z</time>
				<extensions>
				</extensions>
			</trkpt>
			<trkpt lat="-28.385351" lon="152.976954">
				<ele>149.052</ele>
				<time>2015-07-04T01:49:27Z</time>
				<extensions>
				</extensions>
			</trkpt>
			<trkpt lat="-28.385654" lon="152.977029">
				<ele>147.100</ele>
				<time>2015-07-04T01:49:29Z</time>
				<extensions>
				</extensions>
			</trkpt>
			<trkpt lat="-28.385971" lon="152.977108">
				<ele>148.073</ele>
				<time>2015-07-04T01:49:31Z</time>
				<extensions>
				</extensions>
			</trkpt>
			<trkpt lat="-28.386277" lon="152.977185">
				<ele>146.720</ele>
				<time>2015-07-04T01:49:33Z</time>
				<extensions>
				</extensions>
			</trkpt>
			<trkpt lat="-28.386585" lon="152.977260">
				<ele>147.175</ele>
				<time>2015-07-04T01:49:35Z</time>
				<extensions>
				</extensions>
			</trkpt>
			<trkpt lat="-28.386875" lon="152.977338">
				<ele>146.137</ele>
				<time>2015-07-04T01:49:37Z</time>
				<extensions>
				</extensions>
			</trkpt>
			<trkpt lat="-28.387171" lon="152.977423">
				<ele>145.158</ele>
				<time>2015-07-04T01:49:39Z</time>
				<extensions>
				</extensions>
			</trkpt>
			<trkpt lat="-28.387447" lon="152.977529">
				<ele>145.029</ele>
				<time>2015-07-04T01:49:41Z</time>
				<extensions>
				</extensions>
			</trkpt>
			<trkpt lat="-28.387668" lon="152.977695">
				<ele>144.179</ele>
				<time>2015-07-04T01:49:43Z</time>
				<extensions>
				</extensions>
			</trkpt>
			<trkpt lat="-28.387847" lon="152.977929">
				<ele>144.116</ele>
				<time>2015-07-04T01:49:45Z</time>
				<extensions>
				</extensions>
			</trkpt>
			<trkpt lat="-28.388013" lon="152.978205">
				<ele>142.669</ele>
				<time>2015-07-04T01:49:47Z</time>
				<extensions>
				</extensions>
			</trkpt>
			<trkpt lat="-28.388067" lon="152.978514">
				<ele>139.863</ele>
				<time>2015-07-04T01:49:49Z</time>
				<extensions>
				</extensions>
			</trkpt>
			<trkpt lat="-28.388204" lon="152.978690">
				<ele>139.417</ele>
				<time>2015-07-04T01:49:51Z</time>
				<extensions>
				</extensions>
			</trkpt>
			<trkpt lat="-28.388378" lon="152.978904">
				<ele>139.856</ele>
				<time>2015-07-04T01:49:54Z</time>
				<extensions>
				</extensions>
			</trkpt>
			<trkpt lat="-28.388540" lon="152.979092">
				<ele>140.504</ele>
				<time>2015-07-04T01:49:57Z</time>
				<extensions>
				</extensions>
			</trkpt>
			<trkpt lat="-28.388771" lon="152.979214">
				<ele>140.768</ele>
				<time>2015-07-04T01:49:59Z</time>
				<extensions>
				</extensions>
			</trkpt>
			<trkpt lat="-28.389026" lon="152.979182">
				<ele>141.770</ele>
				<time>2015-07-04T01:50:01Z</time>
				<extensions>
				</extensions>
			</trkpt>
			<trkpt lat="-28.389333" lon="152.979127">
				<ele>143.190</ele>
				<time>2015-07-04T01:50:03Z</time>
				<extensions>
				</extensions>
			</trkpt>
			<trkpt lat="-28.389634" lon="152.979058">
				<ele>143.076</ele>
				<time>2015-07-04T01:50:05Z</time>
				<extensions>
				</extensions>
			</trkpt>
			<trkpt lat="-28.389938" lon="152.978980">
				<ele>141.169</ele>
				<time>2015-07-04T01:50:07Z</time>
				<extensions>
				</extensions>
			</trkpt>
			<trkpt lat="-28.390224" lon="152.978881">
				<ele>138.769</ele>
				<time>2015-07-04T01:50:09Z</time>
				<extensions>
				</extensions>
			</trkpt>
			<trkpt lat="-28.390487" lon="152.978768">
				<ele>138.719</ele>
				<time>2015-07-04T01:50:11Z</time>
				<extensions>
				</extensions>
			</trkpt>
			<trkpt lat="-28.390755" lon="152.978662">
				<ele>138.717</ele>
				<time>2015-07-04T01:50:13Z</time>
				<extensions>
				</extensions>
			</trkpt>
			<trkpt lat="-28.391033" lon="152.978556">
				<ele>139.447</ele>
				<time>2015-07-04T01:50:15Z</time>
				<extensions>
				</extensions>
			</trkpt>
			<trkpt lat="-28.391284" lon="152.978474">
				<ele>138.126</ele>
				<time>2015-07-04T01:50:17Z</time>
				<extensions>
				</extensions>
			</trkpt>
			<trkpt lat="-28.391486" lon="152.978439">
				<ele>137.108</ele>
				<time>2015-07-04T01:50:19Z</time>
				<extensions>
				</extensions>
			</trkpt>
			<trkpt lat="-28.391703" lon="152.978425">
				<ele>137.472</ele>
				<time>2015-07-04T01:50:21Z</time>
				<extensions>
				</extensions>
			</trkpt>
			<trkpt lat="-28.391914" lon="152.978431">
				<ele>139.205</ele>
				<time>2015-07-04T01:50:23Z</time>
				<extensions>
				</extensions>
			</trkpt>
			<trkpt lat="-28.392170" lon="152.978471">
				<ele>137.619</ele>
				<time>2015-07-04T01:50:25Z</time>
				<extensions>
				</extensions>
			</trkpt>
			<trkpt lat="-28.392463" lon="152.978524">
				<ele>137.129</ele>
				<time>2015-07-04T01:50:27Z</time>
				<extensions>
				</extensions>
			</trkpt>
			<trkpt lat="-28.392741" lon="152.978553">
				<ele>137.315</ele>
				<time>2015-07-04T01:50:29Z</time>
				<extensions>
				</extensions>
			</trkpt>
			<trkpt lat="-28.393052" lon="152.978539">
				<ele>137.909</ele>
				<time>2015-07-04T01:50:31Z</time>
				<extensions>
				</extensions>
			</trkpt>
			<trkpt lat="-28.393382" lon="152.978391">
				<ele>137.803</ele>
				<time>2015-07-04T01:50:32Z</time>
				<extensions>
				</extensions>
			</trkpt>
			<trkpt lat="-28.393613" lon="152.978203">
				<ele>136.585</ele>
				<time>2015-07-04T01:50:34Z</time>
				<extensions>
				</extensions>
			</trkpt>
			<trkpt lat="-28.393873" lon="152.978094">
				<ele>134.947</ele>
				<time>2015-07-04T01:50:36Z</time>
				<extensions>
				</extensions>
			</trkpt>
			<trkpt lat="-28.394144" lon="152.978097">
				<ele>132.951</ele>
				<time>2015-07-04T01:50:39Z</time>
				<extensions>
				</extensions>
			</trkpt>
			<trkpt lat="-28.394405" lon="152.978075">
				<ele>132.655</ele>
				<time>2015-07-04T01:50:41Z</time>
				<extensions>
				</extensions>
			</trkpt>
			<trkpt lat="-28.394665" lon="152.978056">
				<ele>134.386</ele>
				<time>2015-07-04T01:50:43Z</time>
				<extensions>
				</extensions>
			</trkpt>
			<trkpt lat="-28.394871" lon="152.978015">
				<ele>136.483</ele>
				<time>2015-07-04T01:50:44Z</time>
				<extensions>
				</extensions>
			</trkpt>
			<trkpt lat="-28.395232" lon="152.977366">
				<ele>139.927</ele>
				<time>2015-07-04T01:50:47Z</time>
				<extensions>
				</extensions>
			</trkpt>
			<trkpt lat="-28.395448" lon="152.977278">
				<ele>139.388</ele>
				<time>2015-07-04T01:50:49Z</time>
				<extensions>
				</extensions>
			</trkpt>
			<trkpt lat="-28.395729" lon="152.977193">
				<ele>139.126</ele>
				<time>2015-07-04T01:50:51Z</time>
				<extensions>
				</extensions>
			</trkpt>
			<trkpt lat="-28.395988" lon="152.977072">
				<ele>137.148</ele>
				<time>2015-07-04T01:50:53Z</time>
				<extensions>
				</extensions>
			</trkpt>
			<trkpt lat="-28.396236" lon="152.976962">
				<ele>136.815</ele>
				<time>2015-07-04T01:50:55Z</time>
				<extensions>
				</extensions>
			</trkpt>
			<trkpt lat="-28.396491" lon="152.976870">
				<ele>136.451</ele>
				<time>2015-07-04T01:50:57Z</time>
				<extensions>
				</extensions>
			</trkpt>
			<trkpt lat="-28.396751" lon="152.976795">
				<ele>135.714</ele>
				<time>2015-07-04T01:50:59Z</time>
				<extensions>
				</extensions>
			</trkpt>
			<trkpt lat="-28.396971" lon="152.976725">
				<ele>133.502</ele>
				<time>2015-07-04T01:51:01Z</time>
				<extensions>
				</extensions>
			</trkpt>
			<trkpt lat="-28.397145" lon="152.976663">
				<ele>131.817</ele>
				<time>2015-07-04T01:51:03Z</time>
				<extensions>
				</extensions>
			</trkpt>
			<trkpt lat="-28.397328" lon="152.976566">
				<ele>131.612</ele>
				<time>2015-07-04T01:51:05Z</time>
				<extensions>
				</extensions>
			</trkpt>
			<trkpt lat="-28.397536" lon="152.976425">
				<ele>132.321</ele>
				<time>2015-07-04T01:51:08Z</time>
				<extensions>
				</extensions>
			</trkpt>
			<trkpt lat="-28.397721" lon="152.976283">
				<ele>132.125</ele>
				<time>2015-07-04T01:51:11Z</time>
				<extensions>
				</extensions>
			</trkpt>
			<trkpt lat="-28.398062" lon="152.976081">
				<ele>135.840</ele>
				<time>2015-07-04T01:51:14Z</time>
				<extensions>
				</extensions>
			</trkpt>
			<trkpt lat="-28.398344" lon="152.976161">
				<ele>137.704</ele>
				<time>2015-07-04T01:51:17Z</time>
				<extensions>
				</extensions>
			</trkpt>
			<trkpt lat="-28.398589" lon="152.976338">
				<ele>137.155</ele>
				<time>2015-07-04T01:51:19Z</time>
				<extensions>
				</extensions>
			</trkpt>
			<trkpt lat="-28.398829" lon="152.976588">
				<ele>136.376</ele>
				<time>2015-07-04T01:51:21Z</time>
				<extensions>
				</extensions>
			</trkpt>
			<trkpt lat="-28.399064" lon="152.976830">
				<ele>135.690</ele>
				<time>2015-07-04T01:51:23Z</time>
				<extensions>
				</extensions>
			</trkpt>
			<trkpt lat="-28.399245" lon="152.976984">
				<ele>134.635</ele>
				<time>2015-07-04T01:51:25Z</time>
				<extensions>
				</extensions>
			</trkpt>
			<trkpt lat="-28.399471" lon="152.977153">
				<ele>133.454</ele>
				<time>2015-07-04T01:51:27Z</time>
				<extensions>
				</extensions>
			</trkpt>
			<trkpt lat="-28.399621" lon="152.977271">
				<ele>133.471</ele>
				<time>2015-07-04T01:51:28Z</time>
				<extensions>
				</extensions>
			</trkpt>
			<trkpt lat="-28.399818" lon="152.977365">
				<ele>135.337</ele>
				<time>2015-07-04T01:51:29Z</time>
				<extensions>
				</extensions>
			</trkpt>
			<trkpt lat="-28.400022" lon="152.977382">
				<ele>137.044</ele>
				<time>2015-07-04T01:51:30Z</time>
				<extensions>
				</extensions>
			</trkpt>
			<trkpt lat="-28.400384" lon="152.977399">
				<ele>136.316</ele>
				<time>2015-07-04T01:51:32Z</time>
				<extensions>
				</extensions>
			</trkpt>
			<trkpt lat="-28.400583" lon="152.977351">
				<ele>136.355</ele>
				<time>2015-07-04T01:51:33Z</time>
				<extensions>
				</extensions>
			</trkpt>
			<trkpt lat="-28.400771" lon="152.977410">
				<ele>135.941</ele>
				<time>2015-07-04T01:51:34Z</time>
				<extensions>
				</extensions>
			</trkpt>
			<trkpt lat="-28.400951" lon="152.977470">
				<ele>136.825</ele>
				<time>2015-07-04T01:51:35Z</time>
				<extensions>
				</extensions>
			</trkpt>
			<trkpt lat="-28.401218" lon="152.977602">
				<ele>137.357</ele>
				<time>2015-07-04T01:51:37Z</time>
				<extensions>
				</extensions>
			</trkpt>
			<trkpt lat="-28.401400" lon="152.977674">
				<ele>138.064</ele>
				<time>2015-07-04T01:51:38Z</time>
				<extensions>
				</extensions>
			</trkpt>
			<trkpt lat="-28.401582" lon="152.977744">
				<ele>137.756</ele>
				<time>2015-07-04T01:51:39Z</time>
				<extensions>
				</extensions>
			</trkpt>
			<trkpt lat="-28.401765" lon="152.977815">
				<ele>136.625</ele>
				<time>2015-07-04T01:51:40Z</time>
				<extensions>
				</extensions>
			</trkpt>
			<trkpt lat="-28.401955" lon="152.977892">
				<ele>136.625</ele>
				<time>2015-07-04T01:51:41Z</time>
				<extensions>
				</extensions>
			</trkpt>
			<trkpt lat="-28.402136" lon="152.977963">
				<ele>136.974</ele>
				<time>2015-07-04T01:51:42Z</time>
				<extensions>
				</extensions>
			</trkpt>
			<trkpt lat="-28.402319" lon="152.978033">
				<ele>136.911</ele>
				<time>2015-07-04T01:51:43Z</time>
				<extensions>
				</extensions>
			</trkpt>
			<trkpt lat="-28.402493" lon="152.978099">
				<ele>136.409</ele>
				<time>2015-07-04T01:51:44Z</time>
				<extensions>
				</extensions>
			</trkpt>
			<trkpt lat="-28.402672" lon="152.978172">
				<ele>135.768</ele>
				<time>2015-07-04T01:51:45Z</time>
				<extensions>
				</extensions>
			</trkpt>
			<trkpt lat="-28.403015" lon="152.978303">
				<ele>136.324</ele>
				<time>2015-07-04T01:51:47Z</time>
				<extensions>
				</extensions>
			</trkpt>
			<trkpt lat="-28.403186" lon="152.978371">
				<ele>136.025</ele>
				<time>2015-07-04T01:51:48Z</time>
				<extensions>
				</extensions>
			</trkpt>
			<trkpt lat="-28.403361" lon="152.978441">
				<ele>137.480</ele>
				<time>2015-07-04T01:51:49Z</time>
				<extensions>
				</extensions>
			</trkpt>
			<trkpt lat="-28.403539" lon="152.978511">
				<ele>138.441</ele>
				<time>2015-07-04T01:51:50Z</time>
				<extensions>
				</extensions>
			</trkpt>
			<trkpt lat="-28.403710" lon="152.978581">
				<ele>139.295</ele>
				<time>2015-07-04T01:51:51Z</time>
				<extensions>
				</extensions>
			</trkpt>
			<trkpt lat="-28.403883" lon="152.978658">
				<ele>140.334</ele>
				<time>2015-07-04T01:51:52Z</time>
				<extensions>
				</extensions>
			</trkpt>
			<trkpt lat="-28.404051" lon="152.978734">
				<ele>140.689</ele>
				<time>2015-07-04T01:51:53Z</time>
				<extensions>
				</extensions>
			</trkpt>
			<trkpt lat="-28.404226" lon="152.978815">
				<ele>141.020</ele>
				<time>2015-07-04T01:51:54Z</time>
				<extensions>
				</extensions>
			</trkpt>
			<trkpt lat="-28.404552" lon="152.978971">
				<ele>144.287</ele>
				<time>2015-07-04T01:51:56Z</time>
				<extensions>
				</extensions>
			</trkpt>
			<trkpt lat="-28.404862" lon="152.979145">
				<ele>145.988</ele>
				<time>2015-07-04T01:51:58Z</time>
				<extensions>
				</extensions>
			</trkpt>
			<trkpt lat="-28.405187" lon="152.979330">
				<ele>148.761</ele>
				<time>2015-07-04T01:52:00Z</time>
				<extensions>
				</extensions>
			</trkpt>
			<trkpt lat="-28.405513" lon="152.979499">
				<ele>150.050</ele>
				<time>2015-07-04T01:52:02Z</time>
				<extensions>
				</extensions>
			</trkpt>
			<trkpt lat="-28.405831" lon="152.979637">
				<ele>149.253</ele>
				<time>2015-07-04T01:52:04Z</time>
				<extensions>
				</extensions>
			</trkpt>
			<trkpt lat="-28.406144" lon="152.979762">
				<ele>148.511</ele>
				<time>2015-07-04T01:52:06Z</time>
				<extensions>
				</extensions>
			</trkpt>
			<trkpt lat="-28.406461" lon="152.979837">
				<ele>145.991</ele>
				<time>2015-07-04T01:52:08Z</time>
				<extensions>
				</extensions>
			</trkpt>
			<trkpt lat="-28.406792" lon="152.979847">
				<ele>144.258</ele>
				<time>2015-07-04T01:52:10Z</time>
				<extensions>
				</extensions>
			</trkpt>
			<trkpt lat="-28.407117" lon="152.979831">
				<ele>141.187</ele>
				<time>2015-07-04T01:52:12Z</time>
				<extensions>
				</extensions>
			</trkpt>
			<trkpt lat="-28.407451" lon="152.979806">
				<ele>139.232</ele>
				<time>2015-07-04T01:52:14Z</time>
				<extensions>
				</extensions>
			</trkpt>
			<trkpt lat="-28.407785" lon="152.979764">
				<ele>138.752</ele>
				<time>2015-07-04T01:52:16Z</time>
				<extensions>
				</extensions>
			</trkpt>
			<trkpt lat="-28.408128" lon="152.979655">
				<ele>137.398</ele>
				<time>2015-07-04T01:52:18Z</time>
				<extensions>
				</extensions>
			</trkpt>
			<trkpt lat="-28.408435" lon="152.979506">
				<ele>136.238</ele>
				<time>2015-07-04T01:52:20Z</time>
				<extensions>
				</extensions>
			</trkpt>
			<trkpt lat="-28.408751" lon="152.979330">
				<ele>135.939</ele>
				<time>2015-07-04T01:52:22Z</time>
				<extensions>
				</extensions>
			</trkpt>
			<trkpt lat="-28.409061" lon="152.979154">
				<ele>134.710</ele>
				<time>2015-07-04T01:52:24Z</time>
				<extensions>
				</extensions>
			</trkpt>
			<trkpt lat="-28.409376" lon="152.978970">
				<ele>133.569</ele>
				<time>2015-07-04T01:52:26Z</time>
				<extensions>
				</extensions>
			</trkpt>
			<trkpt lat="-28.409676" lon="152.978784">
				<ele>133.541</ele>
				<time>2015-07-04T01:52:28Z</time>
				<extensions>
				</extensions>
			</trkpt>
			<trkpt lat="-28.409946" lon="152.978602">
				<ele>133.647</ele>
				<time>2015-07-04T01:52:30Z</time>
				<extensions>
				</extensions>
			</trkpt>
			<trkpt lat="-28.410170" lon="152.978448">
				<ele>133.541</ele>
				<time>2015-07-04T01:52:32Z</time>
				<extensions>
				</extensions>
			</trkpt>
			<trkpt lat="-28.410380" lon="152.978303">
				<ele>132.273</ele>
				<time>2015-07-04T01:52:34Z</time>
				<extensions>
				</extensions>
			</trkpt>
			<trkpt lat="-28.410575" lon="152.978154">
				<ele>132.009</ele>
				<time>2015-07-04T01:52:36Z</time>
				<extensions>
				</extensions>
			</trkpt>
			<trkpt lat="-28.410775" lon="152.978002">
				<ele>129.357</ele>
				<time>2015-07-04T01:52:38Z</time>
				<extensions>
				</extensions>
			</trkpt>
			<trkpt lat="-28.410968" lon="152.977874">
				<ele>126.318</ele>
				<time>2015-07-04T01:52:40Z</time>
				<extensions>
				</extensions>
			</trkpt>
			<trkpt lat="-28.411176" lon="152.977795">
				<ele>124.059</ele>
				<time>2015-07-04T01:52:42Z</time>
				<extensions>
				</extensions>
			</trkpt>
			<trkpt lat="-28.411387" lon="152.977831">
				<ele>121.727</ele>
				<time>2015-07-04T01:52:44Z</time>
				<extensions>
				</extensions>
			</trkpt>
			<trkpt lat="-28.411559" lon="152.977998">
				<ele>119.542</ele>
				<time>2015-07-04T01:52:46Z</time>
				<extensions>
				</extensions>
			</trkpt>
			<trkpt lat="-28.411646" lon="152.978198">
				<ele>115.765</ele>
				<time>2015-07-04T01:52:48Z</time>
				<extensions>
				</extensions>
			</trkpt>
			<trkpt lat="-28.411769" lon="152.978458">
				<ele>112.991</ele>
				<time>2015-07-04T01:52:51Z</time>
				<extensions>
				</extensions>
			</trkpt>
			<trkpt lat="-28.411971" lon="152.978644">
				<ele>110.647</ele>
				<time>2015-07-04T01:52:54Z</time>
				<extensions>
				</extensions>
			</trkpt>
			<trkpt lat="-28.412176" lon="152.978738">
				<ele>106.631</ele>
				<time>2015-07-04T01:52:57Z</time>
				<extensions>
				</extensions>
			</trkpt>
			<trkpt lat="-28.412356" lon="152.978803">
				<ele>104.296</ele>
				<time>2015-07-04T01:53:00Z</time>
				<extensions>
				</extensions>
			</trkpt>
			<trkpt lat="-28.412545" lon="152.978892">
				<ele>104.874</ele>
				<time>2015-07-04T01:53:03Z</time>
				<extensions>
				</extensions>
			</trkpt>
			<trkpt lat="-28.412774" lon="152.978928">
				<ele>106.533</ele>
				<time>2015-07-04T01:53:06Z</time>
				<extensions>
				</extensions>
			</trkpt>
			<trkpt lat="-28.413007" lon="152.978818">
				<ele>110.195</ele>
				<time>2015-07-04T01:53:09Z</time>
				<extensions>
				</extensions>
			</trkpt>
			<trkpt lat="-28.413156" lon="152.978655">
				<ele>113.256</ele>
				<time>2015-07-04T01:53:11Z</time>
				<extensions>
				</extensions>
			</trkpt>
			<trkpt lat="-28.413295" lon="152.978502">
				<ele>114.836</ele>
				<time>2015-07-04T01:53:12Z</time>
				<extensions>
				</extensions>
			</trkpt>
			<trkpt lat="-28.413519" lon="152.978299">
				<ele>115.378</ele>
				<time>2015-07-04T01:53:14Z</time>
				<extensions>
				</extensions>
			</trkpt>
			<trkpt lat="-28.413767" lon="152.978134">
				<ele>115.283</ele>
				<time>2015-07-04T01:53:16Z</time>
				<extensions>
				</extensions>
			</trkpt>
			<trkpt lat="-28.414042" lon="152.978021">
				<ele>116.157</ele>
				<time>2015-07-04T01:53:18Z</time>
				<extensions>
				</extensions>
			</trkpt>
			<trkpt lat="-28.414345" lon="152.977924">
				<ele>118.373</ele>
				<time>2015-07-04T01:53:20Z</time>
				<extensions>
				</extensions>
			</trkpt>
			<trkpt lat="-28.414618" lon="152.977832">
				<ele>116.985</ele>
				<time>2015-07-04T01:53:22Z</time>
				<extensions>
				</extensions>
			</trkpt>
			<trkpt lat="-28.414873" lon="152.977752">
				<ele>115.072</ele>
				<time>2015-07-04T01:53:24Z</time>
				<extensions>
				</extensions>
			</trkpt>
			<trkpt lat="-28.415136" lon="152.977673">
				<ele>113.732</ele>
				<time>2015-07-04T01:53:26Z</time>
				<extensions>
				</extensions>
			</trkpt>
			<trkpt lat="-28.415399" lon="152.977605">
				<ele>112.662</ele>
				<time>2015-07-04T01:53:28Z</time>
				<extensions>
				</extensions>
			</trkpt>
			<trkpt lat="-28.415628" lon="152.977550">
				<ele>112.108</ele>
				<time>2015-07-04T01:53:30Z</time>
				<extensions>
				</extensions>
			</trkpt>
			<trkpt lat="-28.415859" lon="152.977512">
				<ele>110.986</ele>
				<time>2015-07-04T01:53:32Z</time>
				<extensions>
				</extensions>
			</trkpt>
			<trkpt lat="-28.416078" lon="152.977505">
				<ele>110.525</ele>
				<time>2015-07-04T01:53:34Z</time>
				<extensions>
				</extensions>
			</trkpt>
			<trkpt lat="-28.416304" lon="152.977524">
				<ele>109.793</ele>
				<time>2015-07-04T01:53:36Z</time>
				<extensions>
				</extensions>
			</trkpt>
			<trkpt lat="-28.416500" lon="152.977552">
				<ele>109.079</ele>
				<time>2015-07-04T01:53:38Z</time>
				<extensions>
				</extensions>
			</trkpt>
			<trkpt lat="-28.416762" lon="152.977561">
				<ele>108.650</ele>
				<time>2015-07-04T01:53:41Z</time>
				<extensions>
				</extensions>
			</trkpt>
			<trkpt lat="-28.416938" lon="152.977457">
				<ele>104.366</ele>
				<time>2015-07-04T01:53:44Z</time>
				<extensions>
				</extensions>
			</trkpt>
			<trkpt lat="-28.416991" lon="152.977259">
				<ele>102.799</ele>
				<time>2015-07-04T01:53:47Z</time>
				<extensions>
				</extensions>
			</trkpt>
			<trkpt lat="-28.416981" lon="152.976994">
				<ele>102.664</ele>
				<time>2015-07-04T01:53:51Z</time>
				<extensions>
				</extensions>
			</trkpt>
			<trkpt lat="-28.416990" lon="152.976760">
				<ele>104.288</ele>
				<time>2015-07-04T01:53:54Z</time>
				<extensions>
				</extensions>
			</trkpt>
			<trkpt lat="-28.417042" lon="152.976555">
				<ele>107.648</ele>
				<time>2015-07-04T01:53:56Z</time>
				<extensions>
				</extensions>
			</trkpt>
			<trkpt lat="-28.417179" lon="152.976323">
				<ele>108.772</ele>
				<time>2015-07-04T01:53:59Z</time>
				<extensions>
				</extensions>
			</trkpt>
			<trkpt lat="-28.417398" lon="152.976158">
				<ele>109.570</ele>
				<time>2015-07-04T01:54:02Z</time>
				<extensions>
				</extensions>
			</trkpt>
			<trkpt lat="-28.417636" lon="152.976147">
				<ele>112.039</ele>
				<time>2015-07-04T01:54:04Z</time>
				<extensions>
				</extensions>
			</trkpt>
			<trkpt lat="-28.417943" lon="152.976236">
				<ele>115.228</ele>
				<time>2015-07-04T01:54:06Z</time>
				<extensions>
				</extensions>
			</trkpt>
			<trkpt lat="-28.418265" lon="152.976340">
				<ele>115.085</ele>
				<time>2015-07-04T01:54:08Z</time>
				<extensions>
				</extensions>
			</trkpt>
			<trkpt lat="-28.418566" lon="152.976434">
				<ele>115.240</ele>
				<time>2015-07-04T01:54:10Z</time>
				<extensions>
				</extensions>
			</trkpt>
			<trkpt lat="-28.418844" lon="152.976484">
				<ele>114.064</ele>
				<time>2015-07-04T01:54:12Z</time>
				<extensions>
				</extensions>
			</trkpt>
			<trkpt lat="-28.419111" lon="152.976461">
				<ele>113.491</ele>
				<time>2015-07-04T01:54:14Z</time>
				<extensions>
				</extensions>
			</trkpt>
			<trkpt lat="-28.419389" lon="152.976395">
				<ele>113.259</ele>
				<time>2015-07-04T01:54:16Z</time>
				<extensions>
				</extensions>
			</trkpt>
			<trkpt lat="-28.419670" lon="152.976322">
				<ele>111.901</ele>
				<time>2015-07-04T01:54:18Z</time>
				<extensions>
				</extensions>
			</trkpt>
			<trkpt lat="-28.419925" lon="152.976235">
				<ele>110.608</ele>
				<time>2015-07-04T01:54:20Z</time>
				<extensions>
				</extensions>
			</trkpt>
			<trkpt lat="-28.420158" lon="152.976110">
				<ele>109.862</ele>
				<time>2015-07-04T01:54:22Z</time>
				<extensions>
				</extensions>
			</trkpt>
			<trkpt lat="-28.420340" lon="152.975939">
				<ele>109.441</ele>
				<time>2015-07-04T01:54:24Z</time>
				<extensions>
				</extensions>
			</trkpt>
			<trkpt lat="-28.420469" lon="152.975728">
				<ele>108.679</ele>
				<time>2015-07-04T01:54:26Z</time>
				<extensions>
				</extensions>
			</trkpt>
			<trkpt lat="-28.420560" lon="152.975506">
				<ele>107.700</ele>
				<time>2015-07-04T01:54:28Z</time>
				<extensions>
				</extensions>
			</trkpt>
			<trkpt lat="-28.420639" lon="152.975275">
				<ele>106.280</ele>
				<time>2015-07-04T01:54:30Z</time>
				<extensions>
				</extensions>
			</trkpt>
			<trkpt lat="-28.420693" lon="152.975008">
				<ele>102.592</ele>
				<time>2015-07-04T01:54:33Z</time>
				<extensions>
				</extensions>
			</trkpt>
			<trkpt lat="-28.420746" lon="152.974749">
				<ele>98.832</ele>
				<time>2015-07-04T01:54:37Z</time>
				<extensions>
				</extensions>
			</trkpt>
			<trkpt lat="-28.420798" lon="152.974542">
				<ele>98.666</ele>
				<time>2015-07-04T01:54:41Z</time>
				<extensions>
				</extensions>
			</trkpt>
			<trkpt lat="-28.420693" lon="152.974264">
				<ele>102.475</ele>
				<time>2015-07-04T01:54:45Z</time>
				<extensions>
				</extensions>
			</trkpt>
			<trkpt lat="-28.420529" lon="152.974093">
				<ele>104.972</ele>
				<time>2015-07-04T01:54:47Z</time>
				<extensions>
				</extensions>
			</trkpt>
			<trkpt lat="-28.420404" lon="152.973916">
				<ele>104.764</ele>
				<time>2015-07-04T01:54:49Z</time>
				<extensions>
				</extensions>
			</trkpt>
			<trkpt lat="-28.420386" lon="152.973608">
				<ele>107.058</ele>
				<time>2015-07-04T01:54:52Z</time>
				<extensions>
				</extensions>
			</trkpt>
			<trkpt lat="-28.420471" lon="152.973313">
				<ele>111.140</ele>
				<time>2015-07-04T01:54:54Z</time>
				<extensions>
				</extensions>
			</trkpt>
			<trkpt lat="-28.420575" lon="152.972951">
				<ele>114.987</ele>
				<time>2015-07-04T01:54:56Z</time>
				<extensions>
				</extensions>
			</trkpt>
			<trkpt lat="-28.420633" lon="152.972752">
				<ele>115.831</ele>
				<time>2015-07-04T01:54:57Z</time>
				<extensions>
				</extensions>
			</trkpt>
			<trkpt lat="-28.420746" lon="152.972371">
				<ele>115.232</ele>
				<time>2015-07-04T01:54:59Z</time>
				<extensions>
				</extensions>
			</trkpt>
			<trkpt lat="-28.420858" lon="152.972014">
				<ele>112.555</ele>
				<time>2015-07-04T01:55:01Z</time>
				<extensions>
				</extensions>
			</trkpt>
			<trkpt lat="-28.420953" lon="152.971674">
				<ele>111.341</ele>
				<time>2015-07-04T01:55:03Z</time>
				<extensions>
				</extensions>
			</trkpt>
			<trkpt lat="-28.421064" lon="152.971337">
				<ele>110.238</ele>
				<time>2015-07-04T01:55:05Z</time>
				<extensions>
				</extensions>
			</trkpt>
			<trkpt lat="-28.421176" lon="152.971036">
				<ele>108.650</ele>
				<time>2015-07-04T01:55:07Z</time>
				<extensions>
				</extensions>
			</trkpt>
			<trkpt lat="-28.421274" lon="152.970748">
				<ele>108.357</ele>
				<time>2015-07-04T01:55:09Z</time>
				<extensions>
				</extensions>
			</trkpt>
			<trkpt lat="-28.421326" lon="152.970484">
				<ele>104.549</ele>
				<time>2015-07-04T01:55:11Z</time>
				<extensions>
				</extensions>
			</trkpt>
			<trkpt lat="-28.421340" lon="152.970251">
				<ele>103.018</ele>
				<time>2015-07-04T01:55:13Z</time>
				<extensions>
				</extensions>
			</trkpt>
			<trkpt lat="-28.421338" lon="152.970013">
				<ele>102.203</ele>
				<time>2015-07-04T01:55:15Z</time>
				<extensions>
				</extensions>
			</trkpt>
			<trkpt lat="-28.421345" lon="152.969755">
				<ele>102.983</ele>
				<time>2015-07-04T01:55:17Z</time>
				<extensions>
				</extensions>
			</trkpt>
			<trkpt lat="-28.421345" lon="152.969464">
				<ele>104.030</ele>
				<time>2015-07-04T01:55:19Z</time>
				<extensions>
				</extensions>
			</trkpt>
			<trkpt lat="-28.421351" lon="152.969128">
				<ele>106.309</ele>
				<time>2015-07-04T01:55:21Z</time>
				<extensions>
				</extensions>
			</trkpt>
			<trkpt lat="-28.421412" lon="152.968770">
				<ele>110.490</ele>
				<time>2015-07-04T01:55:23Z</time>
				<extensions>
				</extensions>
			</trkpt>
			<trkpt lat="-28.421524" lon="152.968452">
				<ele>111.062</ele>
				<time>2015-07-04T01:55:25Z</time>
				<extensions>
				</extensions>
			</trkpt>
			<trkpt lat="-28.421687" lon="152.968186">
				<ele>114.162</ele>
				<time>2015-07-04T01:55:27Z</time>
				<extensions>
				</extensions>
			</trkpt>
			<trkpt lat="-28.421898" lon="152.967965">
				<ele>116.103</ele>
				<time>2015-07-04T01:55:29Z</time>
				<extensions>
				</extensions>
			</trkpt>
			<trkpt lat="-28.422132" lon="152.967805">
				<ele>116.890</ele>
				<time>2015-07-04T01:55:31Z</time>
				<extensions>
				</extensions>
			</trkpt>
			<trkpt lat="-28.422397" lon="152.967711">
				<ele>118.188</ele>
				<time>2015-07-04T01:55:33Z</time>
				<extensions>
				</extensions>
			</trkpt>
			<trkpt lat="-28.422706" lon="152.967681">
				<ele>119.703</ele>
				<time>2015-07-04T01:55:35Z</time>
				<extensions>
				</extensions>
			</trkpt>
			<trkpt lat="-28.423006" lon="152.967678">
				<ele>119.006</ele>
				<time>2015-07-04T01:55:37Z</time>
				<extensions>
				</extensions>
			</trkpt>
			<trkpt lat="-28.423270" lon="152.967701">
				<ele>120.820</ele>
				<time>2015-07-04T01:55:39Z</time>
				<extensions>
				</extensions>
			</trkpt>
			<trkpt lat="-28.423536" lon="152.967709">
				<ele>122.845</ele>
				<time>2015-07-04T01:55:41Z</time>
				<extensions>
				</extensions>
			</trkpt>
			<trkpt lat="-28.423765" lon="152.967729">
				<ele>125.630</ele>
				<time>2015-07-04T01:55:43Z</time>
				<extensions>
				</extensions>
			</trkpt>
			<trkpt lat="-28.424006" lon="152.967750">
				<ele>127.555</ele>
				<time>2015-07-04T01:55:45Z</time>
				<extensions>
				</extensions>
			</trkpt>
			<trkpt lat="-28.424207" lon="152.967774">
				<ele>128.297</ele>
				<time>2015-07-04T01:55:47Z</time>
				<extensions>
				</extensions>
			</trkpt>
			<trkpt lat="-28.424471" lon="152.967767">
				<ele>130.856</ele>
				<time>2015-07-04T01:55:50Z</time>
				<extensions>
				</extensions>
			</trkpt>
			<trkpt lat="-28.424684" lon="152.967542">
				<ele>136.268</ele>
				<time>2015-07-04T01:55:53Z</time>
				<extensions>
				</extensions>
			</trkpt>
			<trkpt lat="-28.424730" lon="152.967258">
				<ele>139.686</ele>
				<time>2015-07-04T01:55:55Z</time>
				<extensions>
				</extensions>
			</trkpt>
			<trkpt lat="-28.424764" lon="152.966966">
				<ele>142.952</ele>
				<time>2015-07-04T01:55:57Z</time>
				<extensions>
				</extensions>
			</trkpt>
			<trkpt lat="-28.424796" lon="152.966709">
				<ele>143.097</ele>
				<time>2015-07-04T01:55:59Z</time>
				<extensions>
				</extensions>
			</trkpt>
			<trkpt lat="-28.424830" lon="152.966430">
				<ele>145.933</ele>
				<time>2015-07-04T01:56:01Z</time>
				<extensions>
				</extensions>
			</trkpt>
			<trkpt lat="-28.424863" lon="152.966130">
				<ele>148.854</ele>
				<time>2015-07-04T01:56:03Z</time>
				<extensions>
				</extensions>
			</trkpt>
			<trkpt lat="-28.424889" lon="152.965815">
				<ele>151.313</ele>
				<time>2015-07-04T01:56:05Z</time>
				<extensions>
				</extensions>
			</trkpt>
			<trkpt lat="-28.424926" lon="152.965496">
				<ele>151.810</ele>
				<time>2015-07-04T01:56:07Z</time>
				<extensions>
				</extensions>
			</trkpt>
			<trkpt lat="-28.424961" lon="152.965189">
				<ele>149.084</ele>
				<time>2015-07-04T01:56:09Z</time>
				<extensions>
				</extensions>
			</trkpt>
			<trkpt lat="-28.424990" lon="152.964893">
				<ele>148.069</ele>
				<time>2015-07-04T01:56:11Z</time>
				<extensions>
				</extensions>
			</trkpt>
			<trkpt lat="-28.425033" lon="152.964570">
				<ele>147.298</ele>
				<time>2015-07-04T01:56:13Z</time>
				<extensions>
				</extensions>
			</trkpt>
			<trkpt lat="-28.425070" lon="152.964257">
				<ele>146.091</ele>
				<time>2015-07-04T01:56:15Z</time>
				<extensions>
				</extensions>
			</trkpt>
			<trkpt lat="-28.425146" lon="152.963952">
				<ele>144.494</ele>
				<time>2015-07-04T01:56:17Z</time>
				<extensions>
				</extensions>
			</trkpt>
			<trkpt lat="-28.425171" lon="152.963650">
				<ele>142.380</ele>
				<time>2015-07-04T01:56:19Z</time>
				<extensions>
				</extensions>
			</trkpt>
			<trkpt lat="-28.425256" lon="152.963371">
				<ele>139.262</ele>
				<time>2015-07-04T01:56:21Z</time>
				<extensions>
				</extensions>
			</trkpt>
			<trkpt lat="-28.425372" lon="152.963115">
				<ele>136.449</ele>
				<time>2015-07-04T01:56:23Z</time>
				<extensions>
				</extensions>
			</trkpt>
			<trkpt lat="-28.425515" lon="152.962874">
				<ele>133.140</ele>
				<time>2015-07-04T01:56:25Z</time>
				<extensions>
				</extensions>
			</trkpt>
			<trkpt lat="-28.425662" lon="152.962627">
				<ele>128.960</ele>
				<time>2015-07-04T01:56:27Z</time>
				<extensions>
				</extensions>
			</trkpt>
			<trkpt lat="-28.425790" lon="152.962361">
				<ele>126.120</ele>
				<time>2015-07-04T01:56:29Z</time>
				<extensions>
				</extensions>
			</trkpt>
			<trkpt lat="-28.425873" lon="152.962083">
				<ele>122.828</ele>
				<time>2015-07-04T01:56:31Z</time>
				<extensions>
				</extensions>
			</trkpt>
			<trkpt lat="-28.425936" lon="152.961804">
				<ele>120.105</ele>
				<time>2015-07-04T01:56:33Z</time>
				<extensions>
				</extensions>
			</trkpt>
			<trkpt lat="-28.426000" lon="152.961523">
				<ele>117.325</ele>
				<time>2015-07-04T01:56:35Z</time>
				<extensions>
				</extensions>
			</trkpt>
			<trkpt lat="-28.426053" lon="152.961257">
				<ele>113.189</ele>
				<time>2015-07-04T01:56:37Z</time>
				<extensions>
				</extensions>
			</trkpt>
			<trkpt lat="-28.426130" lon="152.960985">
				<ele>110.034</ele>
				<time>2015-07-04T01:56:39Z</time>
				<extensions>
				</extensions>
			</trkpt>
			<trkpt lat="-28.426274" lon="152.960723">
				<ele>107.741</ele>
				<time>2015-07-04T01:56:41Z</time>
				<extensions>
				</extensions>
			</trkpt>
			<trkpt lat="-28.426491" lon="152.960494">
				<ele>104.613</ele>
				<time>2015-07-04T01:56:43Z</time>
				<extensions>
				</extensions>
			</trkpt>
			<trkpt lat="-28.426718" lon="152.960313">
				<ele>102.978</ele>
				<time>2015-07-04T01:56:45Z</time>
				<extensions>
				</extensions>
			</trkpt>
			<trkpt lat="-28.426938" lon="152.960139">
				<ele>101.879</ele>
				<time>2015-07-04T01:56:47Z</time>
				<extensions>
				</extensions>
			</trkpt>
			<trkpt lat="-28.427135" lon="152.959945">
				<ele>101.676</ele>
				<time>2015-07-04T01:56:49Z</time>
				<extensions>
				</extensions>
			</trkpt>
			<trkpt lat="-28.427279" lon="152.959672">
				<ele>102.823</ele>
				<time>2015-07-04T01:56:51Z</time>
				<extensions>
				</extensions>
			</trkpt>
			<trkpt lat="-28.427386" lon="152.959328">
				<ele>106.220</ele>
				<time>2015-07-04T01:56:53Z</time>
				<extensions>
				</extensions>
			</trkpt>
			<trkpt lat="-28.427489" lon="152.959000">
				<ele>104.111</ele>
				<time>2015-07-04T01:56:55Z</time>
				<extensions>
				</extensions>
			</trkpt>
			<trkpt lat="-28.427622" lon="152.958702">
				<ele>104.337</ele>
				<time>2015-07-04T01:56:57Z</time>
				<extensions>
				</extensions>
			</trkpt>
			<trkpt lat="-28.427784" lon="152.958450">
				<ele>103.232</ele>
				<time>2015-07-04T01:56:59Z</time>
				<extensions>
				</extensions>
			</trkpt>
			<trkpt lat="-28.427936" lon="152.958242">
				<ele>102.199</ele>
				<time>2015-07-04T01:57:01Z</time>
				<extensions>
				</extensions>
			</trkpt>
			<trkpt lat="-28.428102" lon="152.958071">
				<ele>102.070</ele>
				<time>2015-07-04T01:57:03Z</time>
				<extensions>
				</extensions>
			</trkpt>
			<trkpt lat="-28.428290" lon="152.957918">
				<ele>100.570</ele>
				<time>2015-07-04T01:57:05Z</time>
				<extensions>
				</extensions>
			</trkpt>
			<trkpt lat="-28.428463" lon="152.957793">
				<ele>98.854</ele>
				<time>2015-07-04T01:57:07Z</time>
				<extensions>
				</extensions>
			</trkpt>
			<trkpt lat="-28.428687" lon="152.957645">
				<ele>97.763</ele>
				<time>2015-07-04T01:57:10Z</time>
				<extensions>
				</extensions>
			</trkpt>
			<trkpt lat="-28.428911" lon="152.957565">
				<ele>95.710</ele>
				<time>2015-07-04T01:57:13Z</time>
				<extensions>
				</extensions>
			</trkpt>
			<trkpt lat="-28.429091" lon="152.957667">
				<ele>93.840</ele>
				<time>2015-07-04T01:57:16Z</time>
				<extensions>
				</extensions>
			</trkpt>
			<trkpt lat="-28.429190" lon="152.957885">
				<ele>92.456</ele>
				<time>2015-07-04T01:57:19Z</time>
				<extensions>
				</extensions>
			</trkpt>
			<trkpt lat="-28.429373" lon="152.958006">
				<ele>92.044</ele>
				<time>2015-07-04T01:57:22Z</time>
				<extensions>
				</extensions>
			</trkpt>
			<trkpt lat="-28.429560" lon="152.957948">
				<ele>93.142</ele>
				<time>2015-07-04T01:57:24Z</time>
				<extensions>
				</extensions>
			</trkpt>
			<trkpt lat="-28.429750" lon="152.957859">
				<ele>93.682</ele>
				<time>2015-07-04T01:57:26Z</time>
				<extensions>
				</extensions>
			</trkpt>
			<trkpt lat="-28.429968" lon="152.957767">
				<ele>94.499</ele>
				<time>2015-07-04T01:57:28Z</time>
				<extensions>
				</extensions>
			</trkpt>
			<trkpt lat="-28.430177" lon="152.957681">
				<ele>96.226</ele>
				<time>2015-07-04T01:57:30Z</time>
				<extensions>
				</extensions>
			</trkpt>
			<trkpt lat="-28.430379" lon="152.957598">
				<ele>97.672</ele>
				<time>2015-07-04T01:57:32Z</time>
				<extensions>
				</extensions>
			</trkpt>
			<trkpt lat="-28.430591" lon="152.957512">
				<ele>98.830</ele>
				<time>2015-07-04T01:57:34Z</time>
				<extensions>
				</extensions>
			</trkpt>
			<trkpt lat="-28.430836" lon="152.957404">
				<ele>100.618</ele>
				<time>2015-07-04T01:57:36Z</time>
				<extensions>
				</extensions>
			</trkpt>
			<trkpt lat="-28.431088" lon="152.957296">
				<ele>99.460</ele>
				<time>2015-07-04T01:57:38Z</time>
				<extensions>
				</extensions>
			</trkpt>
			<trkpt lat="-28.431350" lon="152.957188">
				<ele>100.255</ele>
				<time>2015-07-04T01:57:40Z</time>
				<extensions>
				</extensions>
			</trkpt>
			<trkpt lat="-28.431621" lon="152.957083">
				<ele>100.959</ele>
				<time>2015-07-04T01:57:42Z</time>
				<extensions>
				</extensions>
			</trkpt>
			<trkpt lat="-28.431890" lon="152.956971">
				<ele>101.840</ele>
				<time>2015-07-04T01:57:44Z</time>
				<extensions>
				</extensions>
			</trkpt>
			<trkpt lat="-28.432156" lon="152.956892">
				<ele>102.820</ele>
				<time>2015-07-04T01:57:46Z</time>
				<extensions>
				</extensions>
			</trkpt>
			<trkpt lat="-28.432444" lon="152.956840">
				<ele>103.500</ele>
				<time>2015-07-04T01:57:48Z</time>
				<extensions>
				</extensions>
			</trkpt>
			<trkpt lat="-28.432731" lon="152.956819">
				<ele>103.876</ele>
				<time>2015-07-04T01:57:50Z</time>
				<extensions>
				</extensions>
			</trkpt>
			<trkpt lat="-28.433020" lon="152.956791">
				<ele>102.296</ele>
				<time>2015-07-04T01:57:52Z</time>
				<extensions>
				</extensions>
			</trkpt>
			<trkpt lat="-28.433281" lon="152.956764">
				<ele>102.090</ele>
				<time>2015-07-04T01:57:54Z</time>
				<extensions>
				</extensions>
			</trkpt>
			<trkpt lat="-28.433580" lon="152.956720">
				<ele>102.182</ele>
				<time>2015-07-04T01:57:56Z</time>
				<extensions>
				</extensions>
			</trkpt>
			<trkpt lat="-28.433861" lon="152.956679">
				<ele>101.663</ele>
				<time>2015-07-04T01:57:58Z</time>
				<extensions>
				</extensions>
			</trkpt>
			<trkpt lat="-28.434133" lon="152.956650">
				<ele>100.955</ele>
				<time>2015-07-04T01:58:00Z</time>
				<extensions>
				</extensions>
			</trkpt>
			<trkpt lat="-28.434359" lon="152.956674">
				<ele>100.352</ele>
				<time>2015-07-04T01:58:02Z</time>
				<extensions>
				</extensions>
			</trkpt>
			<trkpt lat="-28.434584" lon="152.956758">
				<ele>100.126</ele>
				<time>2015-07-04T01:58:04Z</time>
				<extensions>
				</extensions>
			</trkpt>
			<trkpt lat="-28.434826" lon="152.956911">
				<ele>101.615</ele>
				<time>2015-07-04T01:58:06Z</time>
				<extensions>
				</extensions>
			</trkpt>
			<trkpt lat="-28.435068" lon="152.957074">
				<ele>100.595</ele>
				<time>2015-07-04T01:58:08Z</time>
				<extensions>
				</extensions>
			</trkpt>
			<trkpt lat="-28.435303" lon="152.957227">
				<ele>100.314</ele>
				<time>2015-07-04T01:58:10Z</time>
				<extensions>
				</extensions>
			</trkpt>
			<trkpt lat="-28.435519" lon="152.957416">
				<ele>99.903</ele>
				<time>2015-07-04T01:58:12Z</time>
				<extensions>
				</extensions>
			</trkpt>
			<trkpt lat="-28.435721" lon="152.957658">
				<ele>100.748</ele>
				<time>2015-07-04T01:58:14Z</time>
				<extensions>
				</extensions>
			</trkpt>
			<trkpt lat="-28.435903" lon="152.957906">
				<ele>99.374</ele>
				<time>2015-07-04T01:58:16Z</time>
				<extensions>
				</extensions>
			</trkpt>
			<trkpt lat="-28.436086" lon="152.958142">
				<ele>98.398</ele>
				<time>2015-07-04T01:58:18Z</time>
				<extensions>
				</extensions>
			</trkpt>
			<trkpt lat="-28.436267" lon="152.958370">
				<ele>96.871</ele>
				<time>2015-07-04T01:58:20Z</time>
				<extensions>
				</extensions>
			</trkpt>
			<trkpt lat="-28.436444" lon="152.958598">
				<ele>97.044</ele>
				<time>2015-07-04T01:58:22Z</time>
				<extensions>
				</extensions>
			</trkpt>
			<trkpt lat="-28.436606" lon="152.958809">
				<ele>96.172</ele>
				<time>2015-07-04T01:58:24Z</time>
				<extensions>
				</extensions>
			</trkpt>
			<trkpt lat="-28.436785" lon="152.959012">
				<ele>97.347</ele>
				<time>2015-07-04T01:58:26Z</time>
				<extensions>
				</extensions>
			</trkpt>
			<trkpt lat="-28.436971" lon="152.959174">
				<ele>98.614</ele>
				<time>2015-07-04T01:58:28Z</time>
				<extensions>
				</extensions>
			</trkpt>
			<trkpt lat="-28.437210" lon="152.959302">
				<ele>100.971</ele>
				<time>2015-07-04T01:58:30Z</time>
				<extensions>
				</extensions>
			</trkpt>
			<trkpt lat="-28.437482" lon="152.959402">
				<ele>100.729</ele>
				<time>2015-07-04T01:58:32Z</time>
				<extensions>
				</extensions>
			</trkpt>
			<trkpt lat="-28.437752" lon="152.959493">
				<ele>101.057</ele>
				<time>2015-07-04T01:58:34Z</time>
				<extensions>
				</extensions>
			</trkpt>
			<trkpt lat="-28.438024" lon="152.959567">
				<ele>99.816</ele>
				<time>2015-07-04T01:58:36Z</time>
				<extensions>
				</extensions>
			</trkpt>
			<trkpt lat="-28.438323" lon="152.959582">
				<ele>100.647</ele>
				<time>2015-07-04T01:58:38Z</time>
				<extensions>
				</extensions>
			</trkpt>
			<trkpt lat="-28.438611" lon="152.959556">
				<ele>99.106</ele>
				<time>2015-07-04T01:58:40Z</time>
				<extensions>
				</extensions>
			</trkpt>
			<trkpt lat="-28.438896" lon="152.959503">
				<ele>98.437</ele>
				<time>2015-07-04T01:58:42Z</time>
				<extensions>
				</extensions>
			</trkpt>
			<trkpt lat="-28.439185" lon="152.959436">
				<ele>99.024</ele>
				<time>2015-07-04T01:58:44Z</time>
				<extensions>
				</extensions>
			</trkpt>
			<trkpt lat="-28.439466" lon="152.959374">
				<ele>98.552</ele>
				<time>2015-07-04T01:58:46Z</time>
				<extensions>
				</extensions>
			</trkpt>
			<trkpt lat="-28.439743" lon="152.959311">
				<ele>98.973</ele>
				<time>2015-07-04T01:58:48Z</time>
				<extensions>
				</extensions>
			</trkpt>
			<trkpt lat="-28.440020" lon="152.959246">
				<ele>99.007</ele>
				<time>2015-07-04T01:58:50Z</time>
				<extensions>
				</extensions>
			</trkpt>
			<trkpt lat="-28.440293" lon="152.959176">
				<ele>99.323</ele>
				<time>2015-07-04T01:58:52Z</time>
				<extensions>
				</extensions>
			</trkpt>
			<trkpt lat="-28.440548" lon="152.959078">
				<ele>98.685</ele>
				<time>2015-07-04T01:58:54Z</time>
				<extensions>
				</extensions>
			</trkpt>
			<trkpt lat="-28.440814" lon="152.958959">
				<ele>99.042</ele>
				<time>2015-07-04T01:58:56Z</time>
				<extensions>
				</extensions>
			</trkpt>
			<trkpt lat="-28.441079" lon="152.958803">
				<ele>99.192</ele>
				<time>2015-07-04T01:58:58Z</time>
				<extensions>
				</extensions>
			</trkpt>
			<trkpt lat="-28.441329" lon="152.958622">
				<ele>99.317</ele>
				<time>2015-07-04T01:59:00Z</time>
				<extensions>
				</extensions>
			</trkpt>
			<trkpt lat="-28.441558" lon="152.958408">
				<ele>99.383</ele>
				<time>2015-07-04T01:59:02Z</time>
				<extensions>
				</extensions>
			</trkpt>
			<trkpt lat="-28.441776" lon="152.958158">
				<ele>98.825</ele>
				<time>2015-07-04T01:59:04Z</time>
				<extensions>
				</extensions>
			</trkpt>
			<trkpt lat="-28.441958" lon="152.957925">
				<ele>98.221</ele>
				<time>2015-07-04T01:59:06Z</time>
				<extensions>
				</extensions>
			</trkpt>
			<trkpt lat="-28.442123" lon="152.957682">
				<ele>97.046</ele>
				<time>2015-07-04T01:59:08Z</time>
				<extensions>
				</extensions>
			</trkpt>
			<trkpt lat="-28.442274" lon="152.957452">
				<ele>95.075</ele>
				<time>2015-07-04T01:59:10Z</time>
				<extensions>
				</extensions>
			</trkpt>
			<trkpt lat="-28.442400" lon="152.957235">
				<ele>92.609</ele>
				<time>2015-07-04T01:59:12Z</time>
				<extensions>
				</extensions>
			</trkpt>
			<trkpt lat="-28.442527" lon="152.957025">
				<ele>88.861</ele>
				<time>2015-07-04T01:59:15Z</time>
				<extensions>
				</extensions>
			</trkpt>
			<trkpt lat="-28.442641" lon="152.956855">
				<ele>88.475</ele>
				<time>2015-07-04T01:59:18Z</time>
				<extensions>
				</extensions>
			</trkpt>
			<trkpt lat="-28.442756" lon="152.956624">
				<ele>89.781</ele>
				<time>2015-07-04T01:59:21Z</time>
				<extensions>
				</extensions>
			</trkpt>
			<trkpt lat="-28.442762" lon="152.956419">
				<ele>91.457</ele>
				<time>2015-07-04T01:59:23Z</time>
				<extensions>
				</extensions>
			</trkpt>
			<trkpt lat="-28.442673" lon="152.956219">
				<ele>91.319</ele>
				<time>2015-07-04T01:59:25Z</time>
				<extensions>
				</extensions>
			</trkpt>
			<trkpt lat="-28.442527" lon="152.956070">
				<ele>91.063</ele>
				<time>2015-07-04T01:59:27Z</time>
				<extensions>
				</extensions>
			</trkpt>
			<trkpt lat="-28.442377" lon="152.955841">
				<ele>90.339</ele>
				<time>2015-07-04T01:59:30Z</time>
				<extensions>
				</extensions>
			</trkpt>
			<trkpt lat="-28.442368" lon="152.955615">
				<ele>92.309</ele>
				<time>2015-07-04T01:59:32Z</time>
				<extensions>
				</extensions>
			</trkpt>
			<trkpt lat="-28.442446" lon="152.955340">
				<ele>94.842</ele>
				<time>2015-07-04T01:59:34Z</time>
				<extensions>
				</extensions>
			</trkpt>
			<trkpt lat="-28.442570" lon="152.955001">
				<ele>100.277</ele>
				<time>2015-07-04T01:59:36Z</time>
				<extensions>
				</extensions>
			</trkpt>
			<trkpt lat="-28.442692" lon="152.954660">
				<ele>100.145</ele>
				<time>2015-07-04T01:59:38Z</time>
				<extensions>
				</extensions>
			</trkpt>
			<trkpt lat="-28.442782" lon="152.954321">
				<ele>98.766</ele>
				<time>2015-07-04T01:59:40Z</time>
				<extensions>
				</extensions>
			</trkpt>
			<trkpt lat="-28.442823" lon="152.954004">
				<ele>97.137</ele>
				<time>2015-07-04T01:59:42Z</time>
				<extensions>
				</extensions>
			</trkpt>
			<trkpt lat="-28.442848" lon="152.953711">
				<ele>96.381</ele>
				<time>2015-07-04T01:59:44Z</time>
				<extensions>
				</extensions>
			</trkpt>
			<trkpt lat="-28.442870" lon="152.953427">
				<ele>96.412</ele>
				<time>2015-07-04T01:59:46Z</time>
				<extensions>
				</extensions>
			</trkpt>
			<trkpt lat="-28.442907" lon="152.953128">
				<ele>95.689</ele>
				<time>2015-07-04T01:59:48Z</time>
				<extensions>
				</extensions>
			</trkpt>
			<trkpt lat="-28.442998" lon="152.952843">
				<ele>95.594</ele>
				<time>2015-07-04T01:59:50Z</time>
				<extensions>
				</extensions>
			</trkpt>
			<trkpt lat="-28.443171" lon="152.952602">
				<ele>95.442</ele>
				<time>2015-07-04T01:59:52Z</time>
				<extensions>
				</extensions>
			</trkpt>
			<trkpt lat="-28.443406" lon="152.952475">
				<ele>94.044</ele>
				<time>2015-07-04T01:59:54Z</time>
				<extensions>
				</extensions>
			</trkpt>
			<trkpt lat="-28.443713" lon="152.952401">
				<ele>95.804</ele>
				<time>2015-07-04T01:59:56Z</time>
				<extensions>
				</extensions>
			</trkpt>
			<trkpt lat="-28.444028" lon="152.952338">
				<ele>96.668</ele>
				<time>2015-07-04T01:59:58Z</time>
				<extensions>
				</extensions>
			</trkpt>
			<trkpt lat="-28.444325" lon="152.952275">
				<ele>95.843</ele>
				<time>2015-07-04T02:00:00Z</time>
				<extensions>
				</extensions>
			</trkpt>
			<trkpt lat="-28.444607" lon="152.952218">
				<ele>94.274</ele>
				<time>2015-07-04T02:00:02Z</time>
				<extensions>
				</extensions>
			</trkpt>
			<trkpt lat="-28.444890" lon="152.952159">
				<ele>94.448</ele>
				<time>2015-07-04T02:00:04Z</time>
				<extensions>
				</extensions>
			</trkpt>
			<trkpt lat="-28.445170" lon="152.952084">
				<ele>95.338</ele>
				<time>2015-07-04T02:00:06Z</time>
				<extensions>
				</extensions>
			</trkpt>
			<trkpt lat="-28.445465" lon="152.951978">
				<ele>95.116</ele>
				<time>2015-07-04T02:00:08Z</time>
				<extensions>
				</extensions>
			</trkpt>
			<trkpt lat="-28.445788" lon="152.951829">
				<ele>97.536</ele>
				<time>2015-07-04T02:00:10Z</time>
				<extensions>
				</extensions>
			</trkpt>
			<trkpt lat="-28.446101" lon="152.951661">
				<ele>96.697</ele>
				<time>2015-07-04T02:00:12Z</time>
				<extensions>
				</extensions>
			</trkpt>
			<trkpt lat="-28.446397" lon="152.951492">
				<ele>94.932</ele>
				<time>2015-07-04T02:00:14Z</time>
				<extensions>
				</extensions>
			</trkpt>
			<trkpt lat="-28.446659" lon="152.951338">
				<ele>92.553</ele>
				<time>2015-07-04T02:00:16Z</time>
				<extensions>
				</extensions>
			</trkpt>
			<trkpt lat="-28.446887" lon="152.951200">
				<ele>89.335</ele>
				<time>2015-07-04T02:00:18Z</time>
				<extensions>
				</extensions>
			</trkpt>
			<trkpt lat="-28.447102" lon="152.951072">
				<ele>86.441</ele>
				<time>2015-07-04T02:00:20Z</time>
				<extensions>
				</extensions>
			</trkpt>
			<trkpt lat="-28.447266" lon="152.950969">
				<ele>83.198</ele>
				<time>2015-07-04T02:00:22Z</time>
				<extensions>
				</extensions>
			</trkpt>
			<trkpt lat="-28.447510" lon="152.950825">
				<ele>83.481</ele>
				<time>2015-07-04T02:00:25Z</time>
				<extensions>
				</extensions>
			</trkpt>
			<trkpt lat="-28.447715" lon="152.950714">
				<ele>86.028</ele>
				<time>2015-07-04T02:00:27Z</time>
				<extensions>
				</extensions>
			</trkpt>
			<trkpt lat="-28.447955" lon="152.950588">
				<ele>88.694</ele>
				<time>2015-07-04T02:00:29Z</time>
				<extensions>
				</extensions>
			</trkpt>
			<trkpt lat="-28.448231" lon="152.950450">
				<ele>92.435</ele>
				<time>2015-07-04T02:00:31Z</time>
				<extensions>
				</extensions>
			</trkpt>
			<trkpt lat="-28.448531" lon="152.950329">
				<ele>93.407</ele>
				<time>2015-07-04T02:00:33Z</time>
				<extensions>
				</extensions>
			</trkpt>
			<trkpt lat="-28.448848" lon="152.950220">
				<ele>94.532</ele>
				<time>2015-07-04T02:00:35Z</time>
				<extensions>
				</extensions>
			</trkpt>
			<trkpt lat="-28.449146" lon="152.950135">
				<ele>93.884</ele>
				<time>2015-07-04T02:00:37Z</time>
				<extensions>
				</extensions>
			</trkpt>
			<trkpt lat="-28.449439" lon="152.950063">
				<ele>92.318</ele>
				<time>2015-07-04T02:00:39Z</time>
				<extensions>
				</extensions>
			</trkpt>
			<trkpt lat="-28.449686" lon="152.950014">
				<ele>90.924</ele>
				<time>2015-07-04T02:00:41Z</time>
				<extensions>
				</extensions>
			</trkpt>
			<trkpt lat="-28.449920" lon="152.949946">
				<ele>90.142</ele>
				<time>2015-07-04T02:00:43Z</time>
				<extensions>
				</extensions>
			</trkpt>
			<trkpt lat="-28.450136" lon="152.949870">
				<ele>88.252</ele>
				<time>2015-07-04T02:00:45Z</time>
				<extensions>
				</extensions>
			</trkpt>
			<trkpt lat="-28.450352" lon="152.949745">
				<ele>87.887</ele>
				<time>2015-07-04T02:00:47Z</time>
				<extensions>
				</extensions>
			</trkpt>
			<trkpt lat="-28.450526" lon="152.949561">
				<ele>86.398</ele>
				<time>2015-07-04T02:00:49Z</time>
				<extensions>
				</extensions>
			</trkpt>
			<trkpt lat="-28.450639" lon="152.949343">
				<ele>84.917</ele>
				<time>2015-07-04T02:00:51Z</time>
				<extensions>
				</extensions>
			</trkpt>
			<trkpt lat="-28.450719" lon="152.949148">
				<ele>82.598</ele>
				<time>2015-07-04T02:00:53Z</time>
				<extensions>
				</extensions>
			</trkpt>
			<trkpt lat="-28.450833" lon="152.948885">
				<ele>81.949</ele>
				<time>2015-07-04T02:00:56Z</time>
				<extensions>
				</extensions>
			</trkpt>
			<trkpt lat="-28.450960" lon="152.948632">
				<ele>83.673</ele>
				<time>2015-07-04T02:00:59Z</time>
				<extensions>
				</extensions>
			</trkpt>
			<trkpt lat="-28.451097" lon="152.948448">
				<ele>85.500</ele>
				<time>2015-07-04T02:01:01Z</time>
				<extensions>
				</extensions>
			</trkpt>
			<trkpt lat="-28.451286" lon="152.948289">
				<ele>87.067</ele>
				<time>2015-07-04T02:01:03Z</time>
				<extensions>
				</extensions>
			</trkpt>
			<trkpt lat="-28.451537" lon="152.948141">
				<ele>90.476</ele>
				<time>2015-07-04T02:01:05Z</time>
				<extensions>
				</extensions>
			</trkpt>
			<trkpt lat="-28.451794" lon="152.948003">
				<ele>90.626</ele>
				<time>2015-07-04T02:01:07Z</time>
				<extensions>
				</extensions>
			</trkpt>
			<trkpt lat="-28.452048" lon="152.947865">
				<ele>90.476</ele>
				<time>2015-07-04T02:01:09Z</time>
				<extensions>
				</extensions>
			</trkpt>
			<trkpt lat="-28.452271" lon="152.947724">
				<ele>90.228</ele>
				<time>2015-07-04T02:01:11Z</time>
				<extensions>
				</extensions>
			</trkpt>
			<trkpt lat="-28.452476" lon="152.947563">
				<ele>90.109</ele>
				<time>2015-07-04T02:01:13Z</time>
				<extensions>
				</extensions>
			</trkpt>
			<trkpt lat="-28.452670" lon="152.947360">
				<ele>90.311</ele>
				<time>2015-07-04T02:01:15Z</time>
				<extensions>
				</extensions>
			</trkpt>
			<trkpt lat="-28.452850" lon="152.947114">
				<ele>92.003</ele>
				<time>2015-07-04T02:01:17Z</time>
				<extensions>
				</extensions>
			</trkpt>
			<trkpt lat="-28.453027" lon="152.946855">
				<ele>91.275</ele>
				<time>2015-07-04T02:01:19Z</time>
				<extensions>
				</extensions>
			</trkpt>
			<trkpt lat="-28.453197" lon="152.946603">
				<ele>90.371</ele>
				<time>2015-07-04T02:01:21Z</time>
				<extensions>
				</extensions>
			</trkpt>
			<trkpt lat="-28.453372" lon="152.946335">
				<ele>90.369</ele>
				<time>2015-07-04T02:01:23Z</time>
				<extensions>
				</extensions>
			</trkpt>
			<trkpt lat="-28.453554" lon="152.946073">
				<ele>92.280</ele>
				<time>2015-07-04T02:01:25Z</time>
				<extensions>
				</extensions>
			</trkpt>
			<trkpt lat="-28.453735" lon="152.945808">
				<ele>91.532</ele>
				<time>2015-07-04T02:01:27Z</time>
				<extensions>
				</extensions>
			</trkpt>
			<trkpt lat="-28.453929" lon="152.945545">
				<ele>91.255</ele>
				<time>2015-07-04T02:01:29Z</time>
				<extensions>
				</extensions>
			</trkpt>
			<trkpt lat="-28.454128" lon="152.945290">
				<ele>91.132</ele>
				<time>2015-07-04T02:01:31Z</time>
				<extensions>
				</extensions>
			</trkpt>
			<trkpt lat="-28.454342" lon="152.945068">
				<ele>92.305</ele>
				<time>2015-07-04T02:01:33Z</time>
				<extensions>
				</extensions>
			</trkpt>
			<trkpt lat="-28.454583" lon="152.944865">
				<ele>92.628</ele>
				<time>2015-07-04T02:01:35Z</time>
				<extensions>
				</extensions>
			</trkpt>
			<trkpt lat="-28.454828" lon="152.944686">
				<ele>92.689</ele>
				<time>2015-07-04T02:01:37Z</time>
				<extensions>
				</extensions>
			</trkpt>
			<trkpt lat="-28.455106" lon="152.944532">
				<ele>93.884</ele>
				<time>2015-07-04T02:01:39Z</time>
				<extensions>
				</extensions>
			</trkpt>
			<trkpt lat="-28.455402" lon="152.944402">
				<ele>93.544</ele>
				<time>2015-07-04T02:01:41Z</time>
				<extensions>
				</extensions>
			</trkpt>
			<trkpt lat="-28.455688" lon="152.944297">
				<ele>91.738</ele>
				<time>2015-07-04T02:01:43Z</time>
				<extensions>
				</extensions>
			</trkpt>
			<trkpt lat="-28.455997" lon="152.944219">
				<ele>92.611</ele>
				<time>2015-07-04T02:01:45Z</time>
				<extensions>
				</extensions>
			</trkpt>
			<trkpt lat="-28.456316" lon="152.944169">
				<ele>92.059</ele>
				<time>2015-07-04T02:01:47Z</time>
				<extensions>
				</extensions>
			</trkpt>
			<trkpt lat="-28.456643" lon="152.944148">
				<ele>93.324</ele>
				<time>2015-07-04T02:01:49Z</time>
				<extensions>
				</extensions>
			</trkpt>
			<trkpt lat="-28.456974" lon="152.944159">
				<ele>92.924</ele>
				<time>2015-07-04T02:01:51Z</time>
				<extensions>
				</extensions>
			</trkpt>
			<trkpt lat="-28.457316" lon="152.944206">
				<ele>92.501</ele>
				<time>2015-07-04T02:01:53Z</time>
				<extensions>
				</extensions>
			</trkpt>
			<trkpt lat="-28.457493" lon="152.944248">
				<ele>93.458</ele>
				<time>2015-07-04T02:01:54Z</time>
				<extensions>
				</extensions>
			</trkpt>
			<trkpt lat="-28.457683" lon="152.944297">
				<ele>94.636</ele>
				<time>2015-07-04T02:01:55Z</time>
				<extensions>
				</extensions>
			</trkpt>
			<trkpt lat="-28.457868" lon="152.944348">
				<ele>95.514</ele>
				<time>2015-07-04T02:01:56Z</time>
				<extensions>
				</extensions>
			</trkpt>
			<trkpt lat="-28.458048" lon="152.944402">
				<ele>95.463</ele>
				<time>2015-07-04T02:01:57Z</time>
				<extensions>
				</extensions>
			</trkpt>
			<trkpt lat="-28.458390" lon="152.944509">
				<ele>93.358</ele>
				<time>2015-07-04T02:01:59Z</time>
				<extensions>
				</extensions>
			</trkpt>
			<trkpt lat="-28.458735" lon="152.944616">
				<ele>92.349</ele>
				<time>2015-07-04T02:02:01Z</time>
				<extensions>
				</extensions>
			</trkpt>
			<trkpt lat="-28.458910" lon="152.944673">
				<ele>93.702</ele>
				<time>2015-07-04T02:02:02Z</time>
				<extensions>
				</extensions>
			</trkpt>
			<trkpt lat="-28.459259" lon="152.944783">
				<ele>92.784</ele>
				<time>2015-07-04T02:02:04Z</time>
				<extensions>
				</extensions>
			</trkpt>
			<trkpt lat="-28.459435" lon="152.944840">
				<ele>93.397</ele>
				<time>2015-07-04T02:02:05Z</time>
				<extensions>
				</extensions>
			</trkpt>
			<trkpt lat="-28.459609" lon="152.944896">
				<ele>92.350</ele>
				<time>2015-07-04T02:02:06Z</time>
				<extensions>
				</extensions>
			</trkpt>
			<trkpt lat="-28.459783" lon="152.944954">
				<ele>92.509</ele>
				<time>2015-07-04T02:02:07Z</time>
				<extensions>
				</extensions>
			</trkpt>
			<trkpt lat="-28.459967" lon="152.945015">
				<ele>92.543</ele>
				<time>2015-07-04T02:02:08Z</time>
				<extensions>
				</extensions>
			</trkpt>
			<trkpt lat="-28.460165" lon="152.945073">
				<ele>95.388</ele>
				<time>2015-07-04T02:02:09Z</time>
				<extensions>
				</extensions>
			</trkpt>
			<trkpt lat="-28.460379" lon="152.945140">
				<ele>97.751</ele>
				<time>2015-07-04T02:02:10Z</time>
				<extensions>
				</extensions>
			</trkpt>
			<trkpt lat="-28.460605" lon="152.945210">
				<ele>97.402</ele>
				<time>2015-07-04T02:02:11Z</time>
				<extensions>
				</extensions>
			</trkpt>
			<trkpt lat="-28.460813" lon="152.945271">
				<ele>95.271</ele>
				<time>2015-07-04T02:02:12Z</time>
				<extensions>
				</extensions>
			</trkpt>
			<trkpt lat="-28.461012" lon="152.945333">
				<ele>94.823</ele>
				<time>2015-07-04T02:02:13Z</time>
				<extensions>
				</extensions>
			</trkpt>
			<trkpt lat="-28.461206" lon="152.945378">
				<ele>94.943</ele>
				<time>2015-07-04T02:02:14Z</time>
				<extensions>
				</extensions>
			</trkpt>
			<trkpt lat="-28.461396" lon="152.945410">
				<ele>92.570</ele>
				<time>2015-07-04T02:02:15Z</time>
				<extensions>
				</extensions>
			</trkpt>
			<trkpt lat="-28.461733" lon="152.945432">
				<ele>89.397</ele>
				<time>2015-07-04T02:02:17Z</time>
				<extensions>
				</extensions>
			</trkpt>
			<trkpt lat="-28.462035" lon="152.945383">
				<ele>87.241</ele>
				<time>2015-07-04T02:02:19Z</time>
				<extensions>
				</extensions>
			</trkpt>
			<trkpt lat="-28.462307" lon="152.945297">
				<ele>85.767</ele>
				<time>2015-07-04T02:02:21Z</time>
				<extensions>
				</extensions>
			</trkpt>
			<trkpt lat="-28.462540" lon="152.945166">
				<ele>84.653</ele>
				<time>2015-07-04T02:02:23Z</time>
				<extensions>
				</extensions>
			</trkpt>
			<trkpt lat="-28.462730" lon="152.945030">
				<ele>83.305</ele>
				<time>2015-07-04T02:02:25Z</time>
				<extensions>
				</extensions>
			</trkpt>
			<trkpt lat="-28.462895" lon="152.944872">
				<ele>84.083</ele>
				<time>2015-07-04T02:02:27Z</time>
				<extensions>
				</extensions>
			</trkpt>
			<trkpt lat="-28.463067" lon="152.944666">
				<ele>85.580</ele>
				<time>2015-07-04T02:02:29Z</time>
				<extensions>
				</extensions>
			</trkpt>
			<trkpt lat="-28.463222" lon="152.944402">
				<ele>88.061</ele>
				<time>2015-07-04T02:02:31Z</time>
				<extensions>
				</extensions>
			</trkpt>
			<trkpt lat="-28.463356" lon="152.944065">
				<ele>90.609</ele>
				<time>2015-07-04T02:02:33Z</time>
				<extensions>
				</extensions>
			</trkpt>
			<trkpt lat="-28.463474" lon="152.943683">
				<ele>89.929</ele>
				<time>2015-07-04T02:02:35Z</time>
				<extensions>
				</extensions>
			</trkpt>
			<trkpt lat="-28.463572" lon="152.943304">
				<ele>89.230</ele>
				<time>2015-07-04T02:02:37Z</time>
				<extensions>
				</extensions>
			</trkpt>
			<trkpt lat="-28.463672" lon="152.942925">
				<ele>89.836</ele>
				<time>2015-07-04T02:02:39Z</time>
				<extensions>
				</extensions>
			</trkpt>
			<trkpt lat="-28.463771" lon="152.942559">
				<ele>89.574</ele>
				<time>2015-07-04T02:02:41Z</time>
				<extensions>
				</extensions>
			</trkpt>
			<trkpt lat="-28.463872" lon="152.942196">
				<ele>87.963</ele>
				<time>2015-07-04T02:02:43Z</time>
				<extensions>
				</extensions>
			</trkpt>
			<trkpt lat="-28.463973" lon="152.941830">
				<ele>88.465</ele>
				<time>2015-07-04T02:02:45Z</time>
				<extensions>
				</extensions>
			</trkpt>
			<trkpt lat="-28.464065" lon="152.941477">
				<ele>89.947</ele>
				<time>2015-07-04T02:02:47Z</time>
				<extensions>
				</extensions>
			</trkpt>
			<trkpt lat="-28.464156" lon="152.941149">
				<ele>88.609</ele>
				<time>2015-07-04T02:02:49Z</time>
				<extensions>
				</extensions>
			</trkpt>
			<trkpt lat="-28.464241" lon="152.940834">
				<ele>88.000</ele>
				<time>2015-07-04T02:02:51Z</time>
				<extensions>
				</extensions>
			</trkpt>
			<trkpt lat="-28.464318" lon="152.940537">
				<ele>86.134</ele>
				<time>2015-07-04T02:02:53Z</time>
				<extensions>
				</extensions>
			</trkpt>
			<trkpt lat="-28.464358" lon="152.940234">
				<ele>85.244</ele>
				<time>2015-07-04T02:02:55Z</time>
				<extensions>
				</extensions>
			</trkpt>
			<trkpt lat="-28.464333" lon="152.939924">
				<ele>85.546</ele>
				<time>2015-07-04T02:02:57Z</time>
				<extensions>
				</extensions>
			</trkpt>
			<trkpt lat="-28.464286" lon="152.939613">
				<ele>86.195</ele>
				<time>2015-07-04T02:02:59Z</time>
				<extensions>
				</extensions>
			</trkpt>
			<trkpt lat="-28.464244" lon="152.939309">
				<ele>86.675</ele>
				<time>2015-07-04T02:03:01Z</time>
				<extensions>
				</extensions>
			</trkpt>
			<trkpt lat="-28.464199" lon="152.939009">
				<ele>86.204</ele>
				<time>2015-07-04T02:03:03Z</time>
				<extensions>
				</extensions>
			</trkpt>
			<trkpt lat="-28.464157" lon="152.938727">
				<ele>83.958</ele>
				<time>2015-07-04T02:03:05Z</time>
				<extensions>
				</extensions>
			</trkpt>
			<trkpt lat="-28.464108" lon="152.938476">
				<ele>84.141</ele>
				<time>2015-07-04T02:03:07Z</time>
				<extensions>
				</extensions>
			</trkpt>
			<trkpt lat="-28.464033" lon="152.938244">
				<ele>83.546</ele>
				<time>2015-07-04T02:03:09Z</time>
				<extensions>
				</extensions>
			</trkpt>
			<trkpt lat="-28.463933" lon="152.938030">
				<ele>82.716</ele>
				<time>2015-07-04T02:03:11Z</time>
				<extensions>
				</extensions>
			</trkpt>
			<trkpt lat="-28.463841" lon="152.937801">
				<ele>83.367</ele>
				<time>2015-07-04T02:03:13Z</time>
				<extensions>
				</extensions>
			</trkpt>
			<trkpt lat="-28.463789" lon="152.937538">
				<ele>83.916</ele>
				<time>2015-07-04T02:03:15Z</time>
				<extensions>
				</extensions>
			</trkpt>
			<trkpt lat="-28.463813" lon="152.937258">
				<ele>84.069</ele>
				<time>2015-07-04T02:03:17Z</time>
				<extensions>
				</extensions>
			</trkpt>
			<trkpt lat="-28.463928" lon="152.936970">
				<ele>86.216</ele>
				<time>2015-07-04T02:03:19Z</time>
				<extensions>
				</extensions>
			</trkpt>
			<trkpt lat="-28.464095" lon="152.936679">
				<ele>87.402</ele>
				<time>2015-07-04T02:03:21Z</time>
				<extensions>
				</extensions>
			</trkpt>
			<trkpt lat="-28.464259" lon="152.936376">
				<ele>86.843</ele>
				<time>2015-07-04T02:03:23Z</time>
				<extensions>
				</extensions>
			</trkpt>
			<trkpt lat="-28.464436" lon="152.936072">
				<ele>86.670</ele>
				<time>2015-07-04T02:03:25Z</time>
				<extensions>
				</extensions>
			</trkpt>
			<trkpt lat="-28.464661" lon="152.935790">
				<ele>87.789</ele>
				<time>2015-07-04T02:03:27Z</time>
				<extensions>
				</extensions>
			</trkpt>
			<trkpt lat="-28.464801" lon="152.935656">
				<ele>89.030</ele>
				<time>2015-07-04T02:03:28Z</time>
				<extensions>
				</extensions>
			</trkpt>
			<trkpt lat="-28.464946" lon="152.935520">
				<ele>90.438</ele>
				<time>2015-07-04T02:03:29Z</time>
				<extensions>
				</extensions>
			</trkpt>
			<trkpt lat="-28.465220" lon="152.935264">
				<ele>88.934</ele>
				<time>2015-07-04T02:03:31Z</time>
				<extensions>
				</extensions>
			</trkpt>
			<trkpt lat="-28.465466" lon="152.935044">
				<ele>88.447</ele>
				<time>2015-07-04T02:03:33Z</time>
				<extensions>
				</extensions>
			</trkpt>
			<trkpt lat="-28.465706" lon="152.934825">
				<ele>88.510</ele>
				<time>2015-07-04T02:03:35Z</time>
				<extensions>
				</extensions>
			</trkpt>
			<trkpt lat="-28.465928" lon="152.934624">
				<ele>87.255</ele>
				<time>2015-07-04T02:03:37Z</time>
				<extensions>
				</extensions>
			</trkpt>
			<trkpt lat="-28.466143" lon="152.934452">
				<ele>87.351</ele>
				<time>2015-07-04T02:03:39Z</time>
				<extensions>
				</extensions>
			</trkpt>
			<trkpt lat="-28.466372" lon="152.934332">
				<ele>87.183</ele>
				<time>2015-07-04T02:03:41Z</time>
				<extensions>
				</extensions>
			</trkpt>
			<trkpt lat="-28.466619" lon="152.934261">
				<ele>86.440</ele>
				<time>2015-07-04T02:03:43Z</time>
				<extensions>
				</extensions>
			</trkpt>
			<trkpt lat="-28.466892" lon="152.934219">
				<ele>86.909</ele>
				<time>2015-07-04T02:03:45Z</time>
				<extensions>
				</extensions>
			</trkpt>
			<trkpt lat="-28.467203" lon="152.934190">
				<ele>87.805</ele>
				<time>2015-07-04T02:03:47Z</time>
				<extensions>
				</extensions>
			</trkpt>
			<trkpt lat="-28.467561" lon="152.934200">
				<ele>89.892</ele>
				<time>2015-07-04T02:03:49Z</time>
				<extensions>
				</extensions>
			</trkpt>
			<trkpt lat="-28.467749" lon="152.934220">
				<ele>90.264</ele>
				<time>2015-07-04T02:03:50Z</time>
				<extensions>
				</extensions>
			</trkpt>
			<trkpt lat="-28.467930" lon="152.934249">
				<ele>91.094</ele>
				<time>2015-07-04T02:03:51Z</time>
				<extensions>
				</extensions>
			</trkpt>
			<trkpt lat="-28.468284" lon="152.934327">
				<ele>89.681</ele>
				<time>2015-07-04T02:03:53Z</time>
				<extensions>
				</extensions>
			</trkpt>
			<trkpt lat="-28.468626" lon="152.934410">
				<ele>88.948</ele>
				<time>2015-07-04T02:03:55Z</time>
				<extensions>
				</extensions>
			</trkpt>
			<trkpt lat="-28.468803" lon="152.934456">
				<ele>88.351</ele>
				<time>2015-07-04T02:03:56Z</time>
				<extensions>
				</extensions>
			</trkpt>
			<trkpt lat="-28.469144" lon="152.934543">
				<ele>87.990</ele>
				<time>2015-07-04T02:03:58Z</time>
				<extensions>
				</extensions>
			</trkpt>
			<trkpt lat="-28.469471" lon="152.934630">
				<ele>85.605</ele>
				<time>2015-07-04T02:04:00Z</time>
				<extensions>
				</extensions>
			</trkpt>
			<trkpt lat="-28.469807" lon="152.934719">
				<ele>87.771</ele>
				<time>2015-07-04T02:04:02Z</time>
				<extensions>
				</extensions>
			</trkpt>
			<trkpt lat="-28.470146" lon="152.934803">
				<ele>88.233</ele>
				<time>2015-07-04T02:04:04Z</time>
				<extensions>
				</extensions>
			</trkpt>
			<trkpt lat="-28.470465" lon="152.934835">
				<ele>87.869</ele>
				<time>2015-07-04T02:04:06Z</time>
				<extensions>
				</extensions>
			</trkpt>
			<trkpt lat="-28.470755" lon="152.934803">
				<ele>87.628</ele>
				<time>2015-07-04T02:04:08Z</time>
				<extensions>
				</extensions>
			</trkpt>
			<trkpt lat="-28.471044" lon="152.934678">
				<ele>87.535</ele>
				<time>2015-07-04T02:04:10Z</time>
				<extensions>
				</extensions>
			</trkpt>
			<trkpt lat="-28.471338" lon="152.934508">
				<ele>88.704</ele>
				<time>2015-07-04T02:04:12Z</time>
				<extensions>
				</extensions>
			</trkpt>
			<trkpt lat="-28.471629" lon="152.934346">
				<ele>85.797</ele>
				<time>2015-07-04T02:04:14Z</time>
				<extensions>
				</extensions>
			</trkpt>
			<trkpt lat="-28.471886" lon="152.934200">
				<ele>85.077</ele>
				<time>2015-07-04T02:04:16Z</time>
				<extensions>
				</extensions>
			</trkpt>
			<trkpt lat="-28.472155" lon="152.934085">
				<ele>86.119</ele>
				<time>2015-07-04T02:04:18Z</time>
				<extensions>
				</extensions>
			</trkpt>
			<trkpt lat="-28.472447" lon="152.934026">
				<ele>86.249</ele>
				<time>2015-07-04T02:04:20Z</time>
				<extensions>
				</extensions>
			</trkpt>
			<trkpt lat="-28.472767" lon="152.934080">
				<ele>88.117</ele>
				<time>2015-07-04T02:04:22Z</time>
				<extensions>
				</extensions>
			</trkpt>
			<trkpt lat="-28.472946" lon="152.934124">
				<ele>90.597</ele>
				<time>2015-07-04T02:04:23Z</time>
				<extensions>
				</extensions>
			</trkpt>
			<trkpt lat="-28.473277" lon="152.934212">
				<ele>90.510</ele>
				<time>2015-07-04T02:04:25Z</time>
				<extensions>
				</extensions>
			</trkpt>
			<trkpt lat="-28.473587" lon="152.934288">
				<ele>88.145</ele>
				<time>2015-07-04T02:04:27Z</time>
				<extensions>
				</extensions>
			</trkpt>
			<trkpt lat="-28.473871" lon="152.934353">
				<ele>86.952</ele>
				<time>2015-07-04T02:04:29Z</time>
				<extensions>
				</extensions>
			</trkpt>
			<trkpt lat="-28.474132" lon="152.934402">
				<ele>85.915</ele>
				<time>2015-07-04T02:04:31Z</time>
				<extensions>
				</extensions>
			</trkpt>
			<trkpt lat="-28.474386" lon="152.934426">
				<ele>85.223</ele>
				<time>2015-07-04T02:04:33Z</time>
				<extensions>
				</extensions>
			</trkpt>
			<trkpt lat="-28.474638" lon="152.934396">
				<ele>85.131</ele>
				<time>2015-07-04T02:04:35Z</time>
				<extensions>
				</extensions>
			</trkpt>
			<trkpt lat="-28.474881" lon="152.934318">
				<ele>84.919</ele>
				<time>2015-07-04T02:04:37Z</time>
				<extensions>
				</extensions>
			</trkpt>
			<trkpt lat="-28.475108" lon="152.934206">
				<ele>83.226</ele>
				<time>2015-07-04T02:04:39Z</time>
				<extensions>
				</extensions>
			</trkpt>
			<trkpt lat="-28.475336" lon="152.934039">
				<ele>84.351</ele>
				<time>2015-07-04T02:04:41Z</time>
				<extensions>
				</extensions>
			</trkpt>
			<trkpt lat="-28.475554" lon="152.933826">
				<ele>83.876</ele>
				<time>2015-07-04T02:04:43Z</time>
				<extensions>
				</extensions>
			</trkpt>
			<trkpt lat="-28.475760" lon="152.933615">
				<ele>82.630</ele>
				<time>2015-07-04T02:04:45Z</time>
				<extensions>
				</extensions>
			</trkpt>
			<trkpt lat="-28.475951" lon="152.933422">
				<ele>81.695</ele>
				<time>2015-07-04T02:04:47Z</time>
				<extensions>
				</extensions>
			</trkpt>
			<trkpt lat="-28.476127" lon="152.933244">
				<ele>81.331</ele>
				<time>2015-07-04T02:04:49Z</time>
				<extensions>
				</extensions>
			</trkpt>
			<trkpt lat="-28.476287" lon="152.933079">
				<ele>81.415</ele>
				<time>2015-07-04T02:04:51Z</time>
				<extensions>
				</extensions>
			</trkpt>
			<trkpt lat="-28.476438" lon="152.932940">
				<ele>80.775</ele>
				<time>2015-07-04T02:04:53Z</time>
				<extensions>
				</extensions>
			</trkpt>
			<trkpt lat="-28.476607" lon="152.932851">
				<ele>79.643</ele>
				<time>2015-07-04T02:04:55Z</time>
				<extensions>
				</extensions>
			</trkpt>
			<trkpt lat="-28.476860" lon="152.932907">
				<ele>78.061</ele>
				<time>2015-07-04T02:04:58Z</time>
				<extensions>
				</extensions>
			</trkpt>
			<trkpt lat="-28.477018" lon="152.933063">
				<ele>74.598</ele>
				<time>2015-07-04T02:05:01Z</time>
				<extensions>
				</extensions>
			</trkpt>
			<trkpt lat="-28.477217" lon="152.933107">
				<ele>71.067</ele>
				<time>2015-07-04T02:05:05Z</time>
				<extensions>
				</extensions>
			</trkpt>
			<trkpt lat="-28.477405" lon="152.933047">
				<ele>71.167</ele>
				<time>2015-07-04T02:05:09Z</time>
				<extensions>
				</extensions>
			</trkpt>
			<trkpt lat="-28.477601" lon="152.932974">
				<ele>71.505</ele>
				<time>2015-07-04T02:05:12Z</time>
				<extensions>
				</extensions>
			</trkpt>
			<trkpt lat="-28.477845" lon="152.932898">
				<ele>75.573</ele>
				<time>2015-07-04T02:05:15Z</time>
				<extensions>
				</extensions>
			</trkpt>
			<trkpt lat="-28.478010" lon="152.932814">
				<ele>77.727</ele>
				<time>2015-07-04T02:05:17Z</time>
				<extensions>
				</extensions>
			</trkpt>
			<trkpt lat="-28.478216" lon="152.932645">
				<ele>80.563</ele>
				<time>2015-07-04T02:05:19Z</time>
				<extensions>
				</extensions>
			</trkpt>
			<trkpt lat="-28.478476" lon="152.932392">
				<ele>86.321</ele>
				<time>2015-07-04T02:05:21Z</time>
				<extensions>
				</extensions>
			</trkpt>
			<trkpt lat="-28.478727" lon="152.932135">
				<ele>89.079</ele>
				<time>2015-07-04T02:05:23Z</time>
				<extensions>
				</extensions>
			</trkpt>
			<trkpt lat="-28.478970" lon="152.931890">
				<ele>88.016</ele>
				<time>2015-07-04T02:05:25Z</time>
				<extensions>
				</extensions>
			</trkpt>
			<trkpt lat="-28.479199" lon="152.931675">
				<ele>86.338</ele>
				<time>2015-07-04T02:05:27Z</time>
				<extensions>
				</extensions>
			</trkpt>
			<trkpt lat="-28.479442" lon="152.931515">
				<ele>85.096</ele>
				<time>2015-07-04T02:05:29Z</time>
				<extensions>
				</extensions>
			</trkpt>
			<trkpt lat="-28.479749" lon="152.931423">
				<ele>86.908</ele>
				<time>2015-07-04T02:05:31Z</time>
				<extensions>
				</extensions>
			</trkpt>
			<trkpt lat="-28.480080" lon="152.931363">
				<ele>88.997</ele>
				<time>2015-07-04T02:05:33Z</time>
				<extensions>
				</extensions>
			</trkpt>
			<trkpt lat="-28.480417" lon="152.931305">
				<ele>88.876</ele>
				<time>2015-07-04T02:05:35Z</time>
				<extensions>
				</extensions>
			</trkpt>
			<trkpt lat="-28.480741" lon="152.931251">
				<ele>88.151</ele>
				<time>2015-07-04T02:05:37Z</time>
				<extensions>
				</extensions>
			</trkpt>
			<trkpt lat="-28.481061" lon="152.931195">
				<ele>87.488</ele>
				<time>2015-07-04T02:05:39Z</time>
				<extensions>
				</extensions>
			</trkpt>
			<trkpt lat="-28.481371" lon="152.931140">
				<ele>86.152</ele>
				<time>2015-07-04T02:05:41Z</time>
				<extensions>
				</extensions>
			</trkpt>
			<trkpt lat="-28.481691" lon="152.931086">
				<ele>86.570</ele>
				<time>2015-07-04T02:05:43Z</time>
				<extensions>
				</extensions>
			</trkpt>
			<trkpt lat="-28.482015" lon="152.931026">
				<ele>85.578</ele>
				<time>2015-07-04T02:05:45Z</time>
				<extensions>
				</extensions>
			</trkpt>
			<trkpt lat="-28.482327" lon="152.930970">
				<ele>84.663</ele>
				<time>2015-07-04T02:05:47Z</time>
				<extensions>
				</extensions>
			</trkpt>
			<trkpt lat="-28.482646" lon="152.930905">
				<ele>83.421</ele>
				<time>2015-07-04T02:05:49Z</time>
				<extensions>
				</extensions>
			</trkpt>
			<trkpt lat="-28.482950" lon="152.930849">
				<ele>83.198</ele>
				<time>2015-07-04T02:05:51Z</time>
				<extensions>
				</extensions>
			</trkpt>
			<trkpt lat="-28.483255" lon="152.930793">
				<ele>82.145</ele>
				<time>2015-07-04T02:05:53Z</time>
				<extensions>
				</extensions>
			</trkpt>
			<trkpt lat="-28.483574" lon="152.930736">
				<ele>82.840</ele>
				<time>2015-07-04T02:05:55Z</time>
				<extensions>
				</extensions>
			</trkpt>
			<trkpt lat="-28.483877" lon="152.930682">
				<ele>82.594</ele>
				<time>2015-07-04T02:05:57Z</time>
				<extensions>
				</extensions>
			</trkpt>
			<trkpt lat="-28.484173" lon="152.930624">
				<ele>82.156</ele>
				<time>2015-07-04T02:05:59Z</time>
				<extensions>
				</extensions>
			</trkpt>
			<trkpt lat="-28.484459" lon="152.930569">
				<ele>82.177</ele>
				<time>2015-07-04T02:06:01Z</time>
				<extensions>
				</extensions>
			</trkpt>
			<trkpt lat="-28.484734" lon="152.930521">
				<ele>81.675</ele>
				<time>2015-07-04T02:06:03Z</time>
				<extensions>
				</extensions>
			</trkpt>
			<trkpt lat="-28.485002" lon="152.930482">
				<ele>81.055</ele>
				<time>2015-07-04T02:06:05Z</time>
				<extensions>
				</extensions>
			</trkpt>
			<trkpt lat="-28.485248" lon="152.930438">
				<ele>80.279</ele>
				<time>2015-07-04T02:06:07Z</time>
				<extensions>
				</extensions>
			</trkpt>
			<trkpt lat="-28.485472" lon="152.930395">
				<ele>79.603</ele>
				<time>2015-07-04T02:06:09Z</time>
				<extensions>
				</extensions>
			</trkpt>
			<trkpt lat="-28.485663" lon="152.930365">
				<ele>78.679</ele>
				<time>2015-07-04T02:06:11Z</time>
				<extensions>
				</extensions>
			</trkpt>
			<trkpt lat="-28.485900" lon="152.930319">
				<ele>77.766</ele>
				<time>2015-07-04T02:06:14Z</time>
				<extensions>
				</extensions>
			</trkpt>
			<trkpt lat="-28.486094" lon="152.930277">
				<ele>77.028</ele>
				<time>2015-07-04T02:06:17Z</time>
				<extensions>
				</extensions>
			</trkpt>
			<trkpt lat="-28.486278" lon="152.930214">
				<ele>76.567</ele>
				<time>2015-07-04T02:06:21Z</time>
				<extensions>
				</extensions>
			</trkpt>
			<trkpt lat="-28.486512" lon="152.930229">
				<ele>78.309</ele>
				<time>2015-07-04T02:06:25Z</time>
				<extensions>
				</extensions>
			</trkpt>
			<trkpt lat="-28.486642" lon="152.930407">
				<ele>81.942</ele>
				<time>2015-07-04T02:06:27Z</time>
				<extensions>
				</extensions>
			</trkpt>
			<trkpt lat="-28.486817" lon="152.930713">
				<ele>85.265</ele>
				<time>2015-07-04T02:06:29Z</time>
				<extensions>
				</extensions>
			</trkpt>
			<trkpt lat="-28.486926" lon="152.930902">
				<ele>88.762</ele>
				<time>2015-07-04T02:06:30Z</time>
				<extensions>
				</extensions>
			</trkpt>
			<trkpt lat="-28.487042" lon="152.931109">
				<ele>91.219</ele>
				<time>2015-07-04T02:06:31Z</time>
				<extensions>
				</extensions>
			</trkpt>
			<trkpt lat="-28.487159" lon="152.931318">
				<ele>91.250</ele>
				<time>2015-07-04T02:06:32Z</time>
				<extensions>
				</extensions>
			</trkpt>
			<trkpt lat="-28.487268" lon="152.931503">
				<ele>88.160</ele>
				<time>2015-07-04T02:06:33Z</time>
				<extensions>
				</extensions>
			</trkpt>
			<trkpt lat="-28.487465" lon="152.931834">
				<ele>85.797</ele>
				<time>2015-07-04T02:06:35Z</time>
				<extensions>
				</extensions>
			</trkpt>
			<trkpt lat="-28.487661" lon="152.932155">
				<ele>85.375</ele>
				<time>2015-07-04T02:06:37Z</time>
				<extensions>
				</extensions>
			</trkpt>
			<trkpt lat="-28.487884" lon="152.932466">
				<ele>84.924</ele>
				<time>2015-07-04T02:06:39Z</time>
				<extensions>
				</extensions>
			</trkpt>
			<trkpt lat="-28.488010" lon="152.932618">
				<ele>85.513</ele>
				<time>2015-07-04T02:06:40Z</time>
				<extensions>
				</extensions>
			</trkpt>
			<trkpt lat="-28.488147" lon="152.932773">
				<ele>86.995</ele>
				<time>2015-07-04T02:06:41Z</time>
				<extensions>
				</extensions>
			</trkpt>
			<trkpt lat="-28.488290" lon="152.932934">
				<ele>86.995</ele>
				<time>2015-07-04T02:06:42Z</time>
				<extensions>
				</extensions>
			</trkpt>
			<trkpt lat="-28.488438" lon="152.933093">
				<ele>86.877</ele>
				<time>2015-07-04T02:06:43Z</time>
				<extensions>
				</extensions>
			</trkpt>
			<trkpt lat="-28.488580" lon="152.933248">
				<ele>87.621</ele>
				<time>2015-07-04T02:06:44Z</time>
				<extensions>
				</extensions>
			</trkpt>
			<trkpt lat="-28.488715" lon="152.933397">
				<ele>85.984</ele>
				<time>2015-07-04T02:06:45Z</time>
				<extensions>
				</extensions>
			</trkpt>
			<trkpt lat="-28.488854" lon="152.933550">
				<ele>84.399</ele>
				<time>2015-07-04T02:06:46Z</time>
				<extensions>
				</extensions>
			</trkpt>
			<trkpt lat="-28.488995" lon="152.933704">
				<ele>85.618</ele>
				<time>2015-07-04T02:06:47Z</time>
				<extensions>
				</extensions>
			</trkpt>
			<trkpt lat="-28.489136" lon="152.933856">
				<ele>85.527</ele>
				<time>2015-07-04T02:06:48Z</time>
				<extensions>
				</extensions>
			</trkpt>
			<trkpt lat="-28.489275" lon="152.934013">
				<ele>84.977</ele>
				<time>2015-07-04T02:06:49Z</time>
				<extensions>
				</extensions>
			</trkpt>
			<trkpt lat="-28.489418" lon="152.934169">
				<ele>84.723</ele>
				<time>2015-07-04T02:06:50Z</time>
				<extensions>
				</extensions>
			</trkpt>
			<trkpt lat="-28.489569" lon="152.934328">
				<ele>86.782</ele>
				<time>2015-07-04T02:06:51Z</time>
				<extensions>
				</extensions>
			</trkpt>
			<trkpt lat="-28.489728" lon="152.934502">
				<ele>87.369</ele>
				<time>2015-07-04T02:06:52Z</time>
				<extensions>
				</extensions>
			</trkpt>
			<trkpt lat="-28.489893" lon="152.934681">
				<ele>88.466</ele>
				<time>2015-07-04T02:06:53Z</time>
				<extensions>
				</extensions>
			</trkpt>
			<trkpt lat="-28.490055" lon="152.934863">
				<ele>88.893</ele>
				<time>2015-07-04T02:06:54Z</time>
				<extensions>
				</extensions>
			</trkpt>
			<trkpt lat="-28.490220" lon="152.935043">
				<ele>88.294</ele>
				<time>2015-07-04T02:06:55Z</time>
				<extensions>
				</extensions>
			</trkpt>
			<trkpt lat="-28.490376" lon="152.935215">
				<ele>87.626</ele>
				<time>2015-07-04T02:06:56Z</time>
				<extensions>
				</extensions>
			</trkpt>
			<trkpt lat="-28.490534" lon="152.935391">
				<ele>87.577</ele>
				<time>2015-07-04T02:06:57Z</time>
				<extensions>
				</extensions>
			</trkpt>
			<trkpt lat="-28.490691" lon="152.935557">
				<ele>86.642</ele>
				<time>2015-07-04T02:06:58Z</time>
				<extensions>
				</extensions>
			</trkpt>
			<trkpt lat="-28.490842" lon="152.935725">
				<ele>85.684</ele>
				<time>2015-07-04T02:06:59Z</time>
				<extensions>
				</extensions>
			</trkpt>
			<trkpt lat="-28.490991" lon="152.935889">
				<ele>85.445</ele>
				<time>2015-07-04T02:07:00Z</time>
				<extensions>
				</extensions>
			</trkpt>
			<trkpt lat="-28.491144" lon="152.936053">
				<ele>85.351</ele>
				<time>2015-07-04T02:07:01Z</time>
				<extensions>
				</extensions>
			</trkpt>
			<trkpt lat="-28.491300" lon="152.936227">
				<ele>87.679</ele>
				<time>2015-07-04T02:07:02Z</time>
				<extensions>
				</extensions>
			</trkpt>
			<trkpt lat="-28.491462" lon="152.936399">
				<ele>89.039</ele>
				<time>2015-07-04T02:07:03Z</time>
				<extensions>
				</extensions>
			</trkpt>
			<trkpt lat="-28.491630" lon="152.936580">
				<ele>90.688</ele>
				<time>2015-07-04T02:07:04Z</time>
				<extensions>
				</extensions>
			</trkpt>
			<trkpt lat="-28.491794" lon="152.936757">
				<ele>90.552</ele>
				<time>2015-07-04T02:07:05Z</time>
				<extensions>
				</extensions>
			</trkpt>
			<trkpt lat="-28.491949" lon="152.936926">
				<ele>90.126</ele>
				<time>2015-07-04T02:07:06Z</time>
				<extensions>
				</extensions>
			</trkpt>
			<trkpt lat="-28.492099" lon="152.937094">
				<ele>89.290</ele>
				<time>2015-07-04T02:07:07Z</time>
				<extensions>
				</extensions>
			</trkpt>
			<trkpt lat="-28.492248" lon="152.937257">
				<ele>89.083</ele>
				<time>2015-07-04T02:07:08Z</time>
				<extensions>
				</extensions>
			</trkpt>
			<trkpt lat="-28.492397" lon="152.937423">
				<ele>89.404</ele>
				<time>2015-07-04T02:07:09Z</time>
				<extensions>
				</extensions>
			</trkpt>
			<trkpt lat="-28.492547" lon="152.937582">
				<ele>88.870</ele>
				<time>2015-07-04T02:07:10Z</time>
				<extensions>
				</extensions>
			</trkpt>
			<trkpt lat="-28.492692" lon="152.937744">
				<ele>88.918</ele>
				<time>2015-07-04T02:07:11Z</time>
				<extensions>
				</extensions>
			</trkpt>
			<trkpt lat="-28.492838" lon="152.937913">
				<ele>89.139</ele>
				<time>2015-07-04T02:07:12Z</time>
				<extensions>
				</extensions>
			</trkpt>
			<trkpt lat="-28.492982" lon="152.938088">
				<ele>89.691</ele>
				<time>2015-07-04T02:07:13Z</time>
				<extensions>
				</extensions>
			</trkpt>
			<trkpt lat="-28.493127" lon="152.938261">
				<ele>89.423</ele>
				<time>2015-07-04T02:07:14Z</time>
				<extensions>
				</extensions>
			</trkpt>
			<trkpt lat="-28.493266" lon="152.938432">
				<ele>88.665</ele>
				<time>2015-07-04T02:07:15Z</time>
				<extensions>
				</extensions>
			</trkpt>
			<trkpt lat="-28.493401" lon="152.938603">
				<ele>87.787</ele>
				<time>2015-07-04T02:07:16Z</time>
				<extensions>
				</extensions>
			</trkpt>
			<trkpt lat="-28.493535" lon="152.938776">
				<ele>87.943</ele>
				<time>2015-07-04T02:07:17Z</time>
				<extensions>
				</extensions>
			</trkpt>
			<trkpt lat="-28.493668" lon="152.938953">
				<ele>88.718</ele>
				<time>2015-07-04T02:07:18Z</time>
				<extensions>
				</extensions>
			</trkpt>
			<trkpt lat="-28.493802" lon="152.939129">
				<ele>88.684</ele>
				<time>2015-07-04T02:07:19Z</time>
				<extensions>
				</extensions>
			</trkpt>
			<trkpt lat="-28.493936" lon="152.939309">
				<ele>88.155</ele>
				<time>2015-07-04T02:07:20Z</time>
				<extensions>
				</extensions>
			</trkpt>
			<trkpt lat="-28.494071" lon="152.939489">
				<ele>88.024</ele>
				<time>2015-07-04T02:07:21Z</time>
				<extensions>
				</extensions>
			</trkpt>
			<trkpt lat="-28.494208" lon="152.939672">
				<ele>89.450</ele>
				<time>2015-07-04T02:07:22Z</time>
				<extensions>
				</extensions>
			</trkpt>
			<trkpt lat="-28.494348" lon="152.939856">
				<ele>89.472</ele>
				<time>2015-07-04T02:07:23Z</time>
				<extensions>
				</extensions>
			</trkpt>
			<trkpt lat="-28.494489" lon="152.940039">
				<ele>89.610</ele>
				<time>2015-07-04T02:07:24Z</time>
				<extensions>
				</extensions>
			</trkpt>
			<trkpt lat="-28.494626" lon="152.940217">
				<ele>89.418</ele>
				<time>2015-07-04T02:07:25Z</time>
				<extensions>
				</extensions>
			</trkpt>
			<trkpt lat="-28.494754" lon="152.940389">
				<ele>89.867</ele>
				<time>2015-07-04T02:07:26Z</time>
				<extensions>
				</extensions>
			</trkpt>
			<trkpt lat="-28.494881" lon="152.940561">
				<ele>89.127</ele>
				<time>2015-07-04T02:07:27Z</time>
				<extensions>
				</extensions>
			</trkpt>
			<trkpt lat="-28.495009" lon="152.940737">
				<ele>89.569</ele>
				<time>2015-07-04T02:07:28Z</time>
				<extensions>
				</extensions>
			</trkpt>
			<trkpt lat="-28.495138" lon="152.940907">
				<ele>89.869</ele>
				<time>2015-07-04T02:07:29Z</time>
				<extensions>
				</extensions>
			</trkpt>
			<trkpt lat="-28.495266" lon="152.941081">
				<ele>90.905</ele>
				<time>2015-07-04T02:07:30Z</time>
				<extensions>
				</extensions>
			</trkpt>
			<trkpt lat="-28.495391" lon="152.941253">
				<ele>90.901</ele>
				<time>2015-07-04T02:07:31Z</time>
				<extensions>
				</extensions>
			</trkpt>
			<trkpt lat="-28.495511" lon="152.941435">
				<ele>90.982</ele>
				<time>2015-07-04T02:07:32Z</time>
				<extensions>
				</extensions>
			</trkpt>
			<trkpt lat="-28.495622" lon="152.941623">
				<ele>91.090</ele>
				<time>2015-07-04T02:07:33Z</time>
				<extensions>
				</extensions>
			</trkpt>
			<trkpt lat="-28.495715" lon="152.941818">
				<ele>91.685</ele>
				<time>2015-07-04T02:07:34Z</time>
				<extensions>
				</extensions>
			</trkpt>
			<trkpt lat="-28.495798" lon="152.942028">
				<ele>94.513</ele>
				<time>2015-07-04T02:07:35Z</time>
				<extensions>
				</extensions>
			</trkpt>
			<trkpt lat="-28.495860" lon="152.942251">
				<ele>94.847</ele>
				<time>2015-07-04T02:07:36Z</time>
				<extensions>
				</extensions>
			</trkpt>
			<trkpt lat="-28.495901" lon="152.942473">
				<ele>97.319</ele>
				<time>2015-07-04T02:07:37Z</time>
				<extensions>
				</extensions>
			</trkpt>
			<trkpt lat="-28.495925" lon="152.942699">
				<ele>98.494</ele>
				<time>2015-07-04T02:07:38Z</time>
				<extensions>
				</extensions>
			</trkpt>
			<trkpt lat="-28.495933" lon="152.942932">
				<ele>101.460</ele>
				<time>2015-07-04T02:07:39Z</time>
				<extensions>
				</extensions>
			</trkpt>
			<trkpt lat="-28.495923" lon="152.943166">
				<ele>103.335</ele>
				<time>2015-07-04T02:07:40Z</time>
				<extensions>
				</extensions>
			</trkpt>
			<trkpt lat="-28.495894" lon="152.943396">
				<ele>103.652</ele>
				<time>2015-07-04T02:07:41Z</time>
				<extensions>
				</extensions>
			</trkpt>
			<trkpt lat="-28.495842" lon="152.943617">
				<ele>105.225</ele>
				<time>2015-07-04T02:07:42Z</time>
				<extensions>
				</extensions>
			</trkpt>
			<trkpt lat="-28.495772" lon="152.943827">
				<ele>106.891</ele>
				<time>2015-07-04T02:07:43Z</time>
				<extensions>
				</extensions>
			</trkpt>
			<trkpt lat="-28.495691" lon="152.944036">
				<ele>109.201</ele>
				<time>2015-07-04T02:07:44Z</time>
				<extensions>
				</extensions>
			</trkpt>
			<trkpt lat="-28.495601" lon="152.944236">
				<ele>109.751</ele>
				<time>2015-07-04T02:07:45Z</time>
				<extensions>
				</extensions>
			</trkpt>
			<trkpt lat="-28.495508" lon="152.944436">
				<ele>110.327</ele>
				<time>2015-07-04T02:07:46Z</time>
				<extensions>
				</extensions>
			</trkpt>
			<trkpt lat="-28.495421" lon="152.944633">
				<ele>110.809</ele>
				<time>2015-07-04T02:07:47Z</time>
				<extensions>
				</extensions>
			</trkpt>
			<trkpt lat="-28.495340" lon="152.944826">
				<ele>110.189</ele>
				<time>2015-07-04T02:07:48Z</time>
				<extensions>
				</extensions>
			</trkpt>
			<trkpt lat="-28.495274" lon="152.945023">
				<ele>110.703</ele>
				<time>2015-07-04T02:07:49Z</time>
				<extensions>
				</extensions>
			</trkpt>
			<trkpt lat="-28.495224" lon="152.945225">
				<ele>111.223</ele>
				<time>2015-07-04T02:07:50Z</time>
				<extensions>
				</extensions>
			</trkpt>
			<trkpt lat="-28.495192" lon="152.945429">
				<ele>112.002</ele>
				<time>2015-07-04T02:07:51Z</time>
				<extensions>
				</extensions>
			</trkpt>
			<trkpt lat="-28.495174" lon="152.945639">
				<ele>112.666</ele>
				<time>2015-07-04T02:07:52Z</time>
				<extensions>
				</extensions>
			</trkpt>
			<trkpt lat="-28.495169" lon="152.945852">
				<ele>112.931</ele>
				<time>2015-07-04T02:07:53Z</time>
				<extensions>
				</extensions>
			</trkpt>
			<trkpt lat="-28.495184" lon="152.946064">
				<ele>112.545</ele>
				<time>2015-07-04T02:07:54Z</time>
				<extensions>
				</extensions>
			</trkpt>
			<trkpt lat="-28.495213" lon="152.946277">
				<ele>112.661</ele>
				<time>2015-07-04T02:07:55Z</time>
				<extensions>
				</extensions>
			</trkpt>
			<trkpt lat="-28.495261" lon="152.946491">
				<ele>111.997</ele>
				<time>2015-07-04T02:07:56Z</time>
				<extensions>
				</extensions>
			</trkpt>
			<trkpt lat="-28.495330" lon="152.946701">
				<ele>111.997</ele>
				<time>2015-07-04T02:07:57Z</time>
				<extensions>
				</extensions>
			</trkpt>
			<trkpt lat="-28.495413" lon="152.946910">
				<ele>110.642</ele>
				<time>2015-07-04T02:07:58Z</time>
				<extensions>
				</extensions>
			</trkpt>
			<trkpt lat="-28.495521" lon="152.947116">
				<ele>110.642</ele>
				<time>2015-07-04T02:07:59Z</time>
				<extensions>
				</extensions>
			</trkpt>
			<trkpt lat="-28.495648" lon="152.947312">
				<ele>110.454</ele>
				<time>2015-07-04T02:08:00Z</time>
				<extensions>
				</extensions>
			</trkpt>
			<trkpt lat="-28.495796" lon="152.947498">
				<ele>109.359</ele>
				<time>2015-07-04T02:08:01Z</time>
				<extensions>
				</extensions>
			</trkpt>
			<trkpt lat="-28.495952" lon="152.947691">
				<ele>108.278</ele>
				<time>2015-07-04T02:08:02Z</time>
				<extensions>
				</extensions>
			</trkpt>
			<trkpt lat="-28.496118" lon="152.947871">
				<ele>108.224</ele>
				<time>2015-07-04T02:08:03Z</time>
				<extensions>
				</extensions>
			</trkpt>
			<trkpt lat="-28.496280" lon="152.948049">
				<ele>106.648</ele>
				<time>2015-07-04T02:08:04Z</time>
				<extensions>
				</extensions>
			</trkpt>
			<trkpt lat="-28.496437" lon="152.948227">
				<ele>103.358</ele>
				<time>2015-07-04T02:08:05Z</time>
				<extensions>
				</extensions>
			</trkpt>
			<trkpt lat="-28.496596" lon="152.948405">
				<ele>100.224</ele>
				<time>2015-07-04T02:08:06Z</time>
				<extensions>
				</extensions>
			</trkpt>
			<trkpt lat="-28.496748" lon="152.948578">
				<ele>96.557</ele>
				<time>2015-07-04T02:08:07Z</time>
				<extensions>
				</extensions>
			</trkpt>
			<trkpt lat="-28.496894" lon="152.948752">
				<ele>93.785</ele>
				<time>2015-07-04T02:08:08Z</time>
				<extensions>
				</extensions>
			</trkpt>
			<trkpt lat="-28.497042" lon="152.948927">
				<ele>91.466</ele>
				<time>2015-07-04T02:08:09Z</time>
				<extensions>
				</extensions>
			</trkpt>
			<trkpt lat="-28.497196" lon="152.949110">
				<ele>91.055</ele>
				<time>2015-07-04T02:08:10Z</time>
				<extensions>
				</extensions>
			</trkpt>
			<trkpt lat="-28.497345" lon="152.949297">
				<ele>92.459</ele>
				<time>2015-07-04T02:08:11Z</time>
				<extensions>
				</extensions>
			</trkpt>
			<trkpt lat="-28.497490" lon="152.949478">
				<ele>91.427</ele>
				<time>2015-07-04T02:08:12Z</time>
				<extensions>
				</extensions>
			</trkpt>
			<trkpt lat="-28.497630" lon="152.949655">
				<ele>90.268</ele>
				<time>2015-07-04T02:08:13Z</time>
				<extensions>
				</extensions>
			</trkpt>
			<trkpt lat="-28.497767" lon="152.949834">
				<ele>89.954</ele>
				<time>2015-07-04T02:08:14Z</time>
				<extensions>
				</extensions>
			</trkpt>
			<trkpt lat="-28.497906" lon="152.950015">
				<ele>89.138</ele>
				<time>2015-07-04T02:08:15Z</time>
				<extensions>
				</extensions>
			</trkpt>
			<trkpt lat="-28.498046" lon="152.950190">
				<ele>89.078</ele>
				<time>2015-07-04T02:08:16Z</time>
				<extensions>
				</extensions>
			</trkpt>
			<trkpt lat="-28.498179" lon="152.950374">
				<ele>89.960</ele>
				<time>2015-07-04T02:08:17Z</time>
				<extensions>
				</extensions>
			</trkpt>
			<trkpt lat="-28.498312" lon="152.950549">
				<ele>90.448</ele>
				<time>2015-07-04T02:08:18Z</time>
				<extensions>
				</extensions>
			</trkpt>
			<trkpt lat="-28.498446" lon="152.950726">
				<ele>89.537</ele>
				<time>2015-07-04T02:08:19Z</time>
				<extensions>
				</extensions>
			</trkpt>
			<trkpt lat="-28.498586" lon="152.950904">
				<ele>90.321</ele>
				<time>2015-07-04T02:08:20Z</time>
				<extensions>
				</extensions>
			</trkpt>
			<trkpt lat="-28.498723" lon="152.951084">
				<ele>90.728</ele>
				<time>2015-07-04T02:08:21Z</time>
				<extensions>
				</extensions>
			</trkpt>
			<trkpt lat="-28.498852" lon="152.951261">
				<ele>89.403</ele>
				<time>2015-07-04T02:08:22Z</time>
				<extensions>
				</extensions>
			</trkpt>
			<trkpt lat="-28.498972" lon="152.951443">
				<ele>88.515</ele>
				<time>2015-07-04T02:08:23Z</time>
				<extensions>
				</extensions>
			</trkpt>
			<trkpt lat="-28.499079" lon="152.951633">
				<ele>89.685</ele>
				<time>2015-07-04T02:08:24Z</time>
				<extensions>
				</extensions>
			</trkpt>
			<trkpt lat="-28.499166" lon="152.951834">
				<ele>88.821</ele>
				<time>2015-07-04T02:08:25Z</time>
				<extensions>
				</extensions>
			</trkpt>
			<trkpt lat="-28.499248" lon="152.952049">
				<ele>87.801</ele>
				<time>2015-07-04T02:08:26Z</time>
				<extensions>
				</extensions>
			</trkpt>
			<trkpt lat="-28.499334" lon="152.952282">
				<ele>88.732</ele>
				<time>2015-07-04T02:08:27Z</time>
				<extensions>
				</extensions>
			</trkpt>
			<trkpt lat="-28.499418" lon="152.952532">
				<ele>91.015</ele>
				<time>2015-07-04T02:08:28Z</time>
				<extensions>
				</extensions>
			</trkpt>
			<trkpt lat="-28.499510" lon="152.952797">
				<ele>93.021</ele>
				<time>2015-07-04T02:08:29Z</time>
				<extensions>
				</extensions>
			</trkpt>
			<trkpt lat="-28.499609" lon="152.953078">
				<ele>94.001</ele>
				<time>2015-07-04T02:08:30Z</time>
				<extensions>
				</extensions>
			</trkpt>
			<trkpt lat="-28.499716" lon="152.953374">
				<ele>95.299</ele>
				<time>2015-07-04T02:08:31Z</time>
				<extensions>
				</extensions>
			</trkpt>
			<trkpt lat="-28.499827" lon="152.953686">
				<ele>96.727</ele>
				<time>2015-07-04T02:08:32Z</time>
				<extensions>
				</extensions>
			</trkpt>
			<trkpt lat="-28.499942" lon="152.954007">
				<ele>99.301</ele>
				<time>2015-07-04T02:08:33Z</time>
				<extensions>
				</extensions>
			</trkpt>
			<trkpt lat="-28.500064" lon="152.954342">
				<ele>102.666</ele>
				<time>2015-07-04T02:08:34Z</time>
				<extensions>
				</extensions>
			</trkpt>
			<trkpt lat="-28.500185" lon="152.954684">
				<ele>82.070</ele>
				<time>2015-07-04T02:08:35Z</time>
				<extensions>
				</extensions>
			</trkpt>
			<trkpt lat="-28.500304" lon="152.955012">
				<ele>82.372</ele>
				<time>2015-07-04T02:08:36Z</time>
				<extensions>
				</extensions>
			</trkpt>
			<trkpt lat="-28.500416" lon="152.955321">
				<ele>82.493</ele>
				<time>2015-07-04T02:08:37Z</time>
				<extensions>
				</extensions>
			</trkpt>
			<trkpt lat="-28.500515" lon="152.955597">
				<ele>82.511</ele>
				<time>2015-07-04T02:08:38Z</time>
				<extensions>
				</extensions>
			</trkpt>
			<trkpt lat="-28.500613" lon="152.955855">
				<ele>86.871</ele>
				<time>2015-07-04T02:08:39Z</time>
				<extensions>
				</extensions>
			</trkpt>
			<trkpt lat="-28.500709" lon="152.956100">
				<ele>83.514</ele>
				<time>2015-07-04T02:08:40Z</time>
				<extensions>
				</extensions>
			</trkpt>
			<trkpt lat="-28.500800" lon="152.956337">
				<ele>81.385</ele>
				<time>2015-07-04T02:08:41Z</time>
				<extensions>
				</extensions>
			</trkpt>
			<trkpt lat="-28.500888" lon="152.956572">
				<ele>80.804</ele>
				<time>2015-07-04T02:08:42Z</time>
				<extensions>
				</extensions>
			</trkpt>
			<trkpt lat="-28.500976" lon="152.956807">
				<ele>81.395</ele>
				<time>2015-07-04T02:08:43Z</time>
				<extensions>
				</extensions>
			</trkpt>
			<trkpt lat="-28.501069" lon="152.957045">
				<ele>83.020</ele>
				<time>2015-07-04T02:08:44Z</time>
				<extensions>
				</extensions>
			</trkpt>
			<trkpt lat="-28.501159" lon="152.957283">
				<ele>84.463</ele>
				<time>2015-07-04T02:08:45Z</time>
				<extensions>
				</extensions>
			</trkpt>
			<trkpt lat="-28.501257" lon="152.957522">
				<ele>85.753</ele>
				<time>2015-07-04T02:08:46Z</time>
				<extensions>
				</extensions>
			</trkpt>
			<trkpt lat="-28.501348" lon="152.957762">
				<ele>85.907</ele>
				<time>2015-07-04T02:08:47Z</time>
				<extensions>
				</extensions>
			</trkpt>
			<trkpt lat="-28.501443" lon="152.958005">
				<ele>87.286</ele>
				<time>2015-07-04T02:08:48Z</time>
				<extensions>
				</extensions>
			</trkpt>
			<trkpt lat="-28.501530" lon="152.958236">
				<ele>86.704</ele>
				<time>2015-07-04T02:08:49Z</time>
				<extensions>
				</extensions>
			</trkpt>
			<trkpt lat="-28.501614" lon="152.958464">
				<ele>86.626</ele>
				<time>2015-07-04T02:08:50Z</time>
				<extensions>
				</extensions>
			</trkpt>
			<trkpt lat="-28.501690" lon="152.958696">
				<ele>89.164</ele>
				<time>2015-07-04T02:08:51Z</time>
				<extensions>
				</extensions>
			</trkpt>
			<trkpt lat="-28.501755" lon="152.958927">
				<ele>90.083</ele>
				<time>2015-07-04T02:08:52Z</time>
				<extensions>
				</extensions>
			</trkpt>
			<trkpt lat="-28.501814" lon="152.959168">
				<ele>91.749</ele>
				<time>2015-07-04T02:08:53Z</time>
				<extensions>
				</extensions>
			</trkpt>
			<trkpt lat="-28.501878" lon="152.959409">
				<ele>93.409</ele>
				<time>2015-07-04T02:08:54Z</time>
				<extensions>
				</extensions>
			</trkpt>
			<trkpt lat="-28.501926" lon="152.959659">
				<ele>93.501</ele>
				<time>2015-07-04T02:08:55Z</time>
				<extensions>
				</extensions>
			</trkpt>
			<trkpt lat="-28.501974" lon="152.959906">
				<ele>93.190</ele>
				<time>2015-07-04T02:08:56Z</time>
				<extensions>
				</extensions>
			</trkpt>
			<trkpt lat="-28.502006" lon="152.960156">
				<ele>93.917</ele>
				<time>2015-07-04T02:08:57Z</time>
				<extensions>
				</extensions>
			</trkpt>
			<trkpt lat="-28.502029" lon="152.960402">
				<ele>95.112</ele>
				<time>2015-07-04T02:08:58Z</time>
				<extensions>
				</extensions>
			</trkpt>
			<trkpt lat="-28.502042" lon="152.960643">
				<ele>94.864</ele>
				<time>2015-07-04T02:08:59Z</time>
				<extensions>
				</extensions>
			</trkpt>
			<trkpt lat="-28.502051" lon="152.960883">
				<ele>94.759</ele>
				<time>2015-07-04T02:09:00Z</time>
				<extensions>
				</extensions>
			</trkpt>
			<trkpt lat="-28.502062" lon="152.961130">
				<ele>95.978</ele>
				<time>2015-07-04T02:09:01Z</time>
				<extensions>
				</extensions>
			</trkpt>
			<trkpt lat="-28.502065" lon="152.961380">
				<ele>96.639</ele>
				<time>2015-07-04T02:09:02Z</time>
				<extensions>
				</extensions>
			</trkpt>
			<trkpt lat="-28.502064" lon="152.961623">
				<ele>96.639</ele>
				<time>2015-07-04T02:09:03Z</time>
				<extensions>
				</extensions>
			</trkpt>
			<trkpt lat="-28.502064" lon="152.961858">
				<ele>94.316</ele>
				<time>2015-07-04T02:09:04Z</time>
				<extensions>
				</extensions>
			</trkpt>
			<trkpt lat="-28.502068" lon="152.962086">
				<ele>93.661</ele>
				<time>2015-07-04T02:09:05Z</time>
				<extensions>
				</extensions>
			</trkpt>
			<trkpt lat="-28.502069" lon="152.962302">
				<ele>91.472</ele>
				<time>2015-07-04T02:09:06Z</time>
				<extensions>
				</extensions>
			</trkpt>
			<trkpt lat="-28.502073" lon="152.962517">
				<ele>90.491</ele>
				<time>2015-07-04T02:09:07Z</time>
				<extensions>
				</extensions>
			</trkpt>
			<trkpt lat="-28.502088" lon="152.962889">
				<ele>85.259</ele>
				<time>2015-07-04T02:09:09Z</time>
				<extensions>
				</extensions>
			</trkpt>
			<trkpt lat="-28.502131" lon="152.963233">
				<ele>82.984</ele>
				<time>2015-07-04T02:09:11Z</time>
				<extensions>
				</extensions>
			</trkpt>
			<trkpt lat="-28.502190" lon="152.963566">
				<ele>80.310</ele>
				<time>2015-07-04T02:09:13Z</time>
				<extensions>
				</extensions>
			</trkpt>
			<trkpt lat="-28.502270" lon="152.963897">
				<ele>77.703</ele>
				<time>2015-07-04T02:09:15Z</time>
				<extensions>
				</extensions>
			</trkpt>
			<trkpt lat="-28.502373" lon="152.964222">
				<ele>75.214</ele>
				<time>2015-07-04T02:09:17Z</time>
				<extensions>
				</extensions>
			</trkpt>
			<trkpt lat="-28.502481" lon="152.964528">
				<ele>74.009</ele>
				<time>2015-07-04T02:09:19Z</time>
				<extensions>
				</extensions>
			</trkpt>
			<trkpt lat="-28.502607" lon="152.964810">
				<ele>71.924</ele>
				<time>2015-07-04T02:09:21Z</time>
				<extensions>
				</extensions>
			</trkpt>
			<trkpt lat="-28.502734" lon="152.965080">
				<ele>70.296</ele>
				<time>2015-07-04T02:09:23Z</time>
				<extensions>
				</extensions>
			</trkpt>
			<trkpt lat="-28.502866" lon="152.965332">
				<ele>69.267</ele>
				<time>2015-07-04T02:09:25Z</time>
				<extensions>
				</extensions>
			</trkpt>
			<trkpt lat="-28.503012" lon="152.965565">
				<ele>68.866</ele>
				<time>2015-07-04T02:09:27Z</time>
				<extensions>
				</extensions>
			</trkpt>
			<trkpt lat="-28.503184" lon="152.965804">
				<ele>70.158</ele>
				<time>2015-07-04T02:09:29Z</time>
				<extensions>
				</extensions>
			</trkpt>
			<trkpt lat="-28.503358" lon="152.966030">
				<ele>69.998</ele>
				<time>2015-07-04T02:09:31Z</time>
				<extensions>
				</extensions>
			</trkpt>
			<trkpt lat="-28.503529" lon="152.966238">
				<ele>70.450</ele>
				<time>2015-07-04T02:09:33Z</time>
				<extensions>
				</extensions>
			</trkpt>
			<trkpt lat="-28.503714" lon="152.966434">
				<ele>71.042</ele>
				<time>2015-07-04T02:09:35Z</time>
				<extensions>
				</extensions>
			</trkpt>
			<trkpt lat="-28.503907" lon="152.966619">
				<ele>70.880</ele>
				<time>2015-07-04T02:09:37Z</time>
				<extensions>
				</extensions>
			</trkpt>
			<trkpt lat="-28.504099" lon="152.966796">
				<ele>71.114</ele>
				<time>2015-07-04T02:09:39Z</time>
				<extensions>
				</extensions>
			</trkpt>
			<trkpt lat="-28.504300" lon="152.966960">
				<ele>71.327</ele>
				<time>2015-07-04T02:09:41Z</time>
				<extensions>
				</extensions>
			</trkpt>
			<trkpt lat="-28.504511" lon="152.967111">
				<ele>72.260</ele>
				<time>2015-07-04T02:09:43Z</time>
				<extensions>
				</extensions>
			</trkpt>
			<trkpt lat="-28.504731" lon="152.967252">
				<ele>72.889</ele>
				<time>2015-07-04T02:09:45Z</time>
				<extensions>
				</extensions>
			</trkpt>
			<trkpt lat="-28.504954" lon="152.967378">
				<ele>73.197</ele>
				<time>2015-07-04T02:09:47Z</time>
				<extensions>
				</extensions>
			</trkpt>
			<trkpt lat="-28.505181" lon="152.967484">
				<ele>73.077</ele>
				<time>2015-07-04T02:09:49Z</time>
				<extensions>
				</extensions>
			</trkpt>
			<trkpt lat="-28.505424" lon="152.967578">
				<ele>73.910</ele>
				<time>2015-07-04T02:09:51Z</time>
				<extensions>
				</extensions>
			</trkpt>
			<trkpt lat="-28.505671" lon="152.967636">
				<ele>74.653</ele>
				<time>2015-07-04T02:09:53Z</time>
				<extensions>
				</extensions>
			</trkpt>
			<trkpt lat="-28.505934" lon="152.967657">
				<ele>74.981</ele>
				<time>2015-07-04T02:09:55Z</time>
				<extensions>
				</extensions>
			</trkpt>
			<trkpt lat="-28.506209" lon="152.967633">
				<ele>75.436</ele>
				<time>2015-07-04T02:09:57Z</time>
				<extensions>
				</extensions>
			</trkpt>
			<trkpt lat="-28.506466" lon="152.967567">
				<ele>74.192</ele>
				<time>2015-07-04T02:09:59Z</time>
				<extensions>
				</extensions>
			</trkpt>
			<trkpt lat="-28.506715" lon="152.967451">
				<ele>73.391</ele>
				<time>2015-07-04T02:10:01Z</time>
				<extensions>
				</extensions>
			</trkpt>
			<trkpt lat="-28.506954" lon="152.967299">
				<ele>73.159</ele>
				<time>2015-07-04T02:10:03Z</time>
				<extensions>
				</extensions>
			</trkpt>
			<trkpt lat="-28.507167" lon="152.967111">
				<ele>73.015</ele>
				<time>2015-07-04T02:10:05Z</time>
				<extensions>
				</extensions>
			</trkpt>
			<trkpt lat="-28.507345" lon="152.966896">
				<ele>71.649</ele>
				<time>2015-07-04T02:10:07Z</time>
				<extensions>
				</extensions>
			</trkpt>
			<trkpt lat="-28.507492" lon="152.966657">
				<ele>71.436</ele>
				<time>2015-07-04T02:10:09Z</time>
				<extensions>
				</extensions>
			</trkpt>
			<trkpt lat="-28.507625" lon="152.966408">
				<ele>71.590</ele>
				<time>2015-07-04T02:10:11Z</time>
				<extensions>
				</extensions>
			</trkpt>
			<trkpt lat="-28.507775" lon="152.966173">
				<ele>70.806</ele>
				<time>2015-07-04T02:10:13Z</time>
				<extensions>
				</extensions>
			</trkpt>
			<trkpt lat="-28.507948" lon="152.965961">
				<ele>69.918</ele>
				<time>2015-07-04T02:10:15Z</time>
				<extensions>
				</extensions>
			</trkpt>
			<trkpt lat="-28.508144" lon="152.965785">
				<ele>70.604</ele>
				<time>2015-07-04T02:10:17Z</time>
				<extensions>
				</extensions>
			</trkpt>
			<trkpt lat="-28.508357" lon="152.965631">
				<ele>70.200</ele>
				<time>2015-07-04T02:10:19Z</time>
				<extensions>
				</extensions>
			</trkpt>
			<trkpt lat="-28.508577" lon="152.965480">
				<ele>70.149</ele>
				<time>2015-07-04T02:10:21Z</time>
				<extensions>
				</extensions>
			</trkpt>
			<trkpt lat="-28.508793" lon="152.965333">
				<ele>70.021</ele>
				<time>2015-07-04T02:10:23Z</time>
				<extensions>
				</extensions>
			</trkpt>
			<trkpt lat="-28.509012" lon="152.965176">
				<ele>70.493</ele>
				<time>2015-07-04T02:10:25Z</time>
				<extensions>
				</extensions>
			</trkpt>
			<trkpt lat="-28.509221" lon="152.965020">
				<ele>71.053</ele>
				<time>2015-07-04T02:10:27Z</time>
				<extensions>
				</extensions>
			</trkpt>
			<trkpt lat="-28.509439" lon="152.964860">
				<ele>71.206</ele>
				<time>2015-07-04T02:10:29Z</time>
				<extensions>
				</extensions>
			</trkpt>
			<trkpt lat="-28.509655" lon="152.964708">
				<ele>70.945</ele>
				<time>2015-07-04T02:10:31Z</time>
				<extensions>
				</extensions>
			</trkpt>
			<trkpt lat="-28.509874" lon="152.964554">
				<ele>71.631</ele>
				<time>2015-07-04T02:10:33Z</time>
				<extensions>
				</extensions>
			</trkpt>
			<trkpt lat="-28.510096" lon="152.964399">
				<ele>71.049</ele>
				<time>2015-07-04T02:10:35Z</time>
				<extensions>
				</extensions>
			</trkpt>
			<trkpt lat="-28.510310" lon="152.964249">
				<ele>71.767</ele>
				<time>2015-07-04T02:10:37Z</time>
				<extensions>
				</extensions>
			</trkpt>
			<trkpt lat="-28.510515" lon="152.964101">
				<ele>72.274</ele>
				<time>2015-07-04T02:10:39Z</time>
				<extensions>
				</extensions>
			</trkpt>
			<trkpt lat="-28.510715" lon="152.963918">
				<ele>72.319</ele>
				<time>2015-07-04T02:10:41Z</time>
				<extensions>
				</extensions>
			</trkpt>
			<trkpt lat="-28.510879" lon="152.963690">
				<ele>73.083</ele>
				<time>2015-07-04T02:10:43Z</time>
				<extensions>
				</extensions>
			</trkpt>
			<trkpt lat="-28.511005" lon="152.963431">
				<ele>73.674</ele>
				<time>2015-07-04T02:10:45Z</time>
				<extensions>
				</extensions>
			</trkpt>
			<trkpt lat="-28.511132" lon="152.963173">
				<ele>73.940</ele>
				<time>2015-07-04T02:10:47Z</time>
				<extensions>
				</extensions>
			</trkpt>
			<trkpt lat="-28.511273" lon="152.962914">
				<ele>74.139</ele>
				<time>2015-07-04T02:10:49Z</time>
				<extensions>
				</extensions>
			</trkpt>
			<trkpt lat="-28.511422" lon="152.962673">
				<ele>73.060</ele>
				<time>2015-07-04T02:10:51Z</time>
				<extensions>
				</extensions>
			</trkpt>
			<trkpt lat="-28.511595" lon="152.962457">
				<ele>73.090</ele>
				<time>2015-07-04T02:10:53Z</time>
				<extensions>
				</extensions>
			</trkpt>
			<trkpt lat="-28.511799" lon="152.962244">
				<ele>73.399</ele>
				<time>2015-07-04T02:10:55Z</time>
				<extensions>
				</extensions>
			</trkpt>
			<trkpt lat="-28.512003" lon="152.962065">
				<ele>72.960</ele>
				<time>2015-07-04T02:10:57Z</time>
				<extensions>
				</extensions>
			</trkpt>
			<trkpt lat="-28.512236" lon="152.961925">
				<ele>73.037</ele>
				<time>2015-07-04T02:10:59Z</time>
				<extensions>
				</extensions>
			</trkpt>
			<trkpt lat="-28.512501" lon="152.961844">
				<ele>73.499</ele>
				<time>2015-07-04T02:11:01Z</time>
				<extensions>
				</extensions>
			</trkpt>
			<trkpt lat="-28.512790" lon="152.961841">
				<ele>74.010</ele>
				<time>2015-07-04T02:11:03Z</time>
				<extensions>
				</extensions>
			</trkpt>
			<trkpt lat="-28.513090" lon="152.961922">
				<ele>74.981</ele>
				<time>2015-07-04T02:11:05Z</time>
				<extensions>
				</extensions>
			</trkpt>
			<trkpt lat="-28.513410" lon="152.962075">
				<ele>78.628</ele>
				<time>2015-07-04T02:11:07Z</time>
				<extensions>
				</extensions>
			</trkpt>
			<trkpt lat="-28.513579" lon="152.962161">
				<ele>80.470</ele>
				<time>2015-07-04T02:11:08Z</time>
				<extensions>
				</extensions>
			</trkpt>
			<trkpt lat="-28.513905" lon="152.962325">
				<ele>78.950</ele>
				<time>2015-07-04T02:11:10Z</time>
				<extensions>
				</extensions>
			</trkpt>
			<trkpt lat="-28.514232" lon="152.962490">
				<ele>78.250</ele>
				<time>2015-07-04T02:11:12Z</time>
				<extensions>
				</extensions>
			</trkpt>
			<trkpt lat="-28.514397" lon="152.962577">
				<ele>78.217</ele>
				<time>2015-07-04T02:11:13Z</time>
				<extensions>
				</extensions>
			</trkpt>
			<trkpt lat="-28.514560" lon="152.962668">
				<ele>77.633</ele>
				<time>2015-07-04T02:11:14Z</time>
				<extensions>
				</extensions>
			</trkpt>
			<trkpt lat="-28.514722" lon="152.962757">
				<ele>76.322</ele>
				<time>2015-07-04T02:11:15Z</time>
				<extensions>
				</extensions>
			</trkpt>
			<trkpt lat="-28.515046" lon="152.962929">
				<ele>76.824</ele>
				<time>2015-07-04T02:11:17Z</time>
				<extensions>
				</extensions>
			</trkpt>
			<trkpt lat="-28.515366" lon="152.963107">
				<ele>76.666</ele>
				<time>2015-07-04T02:11:19Z</time>
				<extensions>
				</extensions>
			</trkpt>
			<trkpt lat="-28.515678" lon="152.963282">
				<ele>77.369</ele>
				<time>2015-07-04T02:11:21Z</time>
				<extensions>
				</extensions>
			</trkpt>
			<trkpt lat="-28.515987" lon="152.963460">
				<ele>75.923</ele>
				<time>2015-07-04T02:11:23Z</time>
				<extensions>
				</extensions>
			</trkpt>
			<trkpt lat="-28.516284" lon="152.963630">
				<ele>73.818</ele>
				<time>2015-07-04T02:11:25Z</time>
				<extensions>
				</extensions>
			</trkpt>
			<trkpt lat="-28.516558" lon="152.963805">
				<ele>73.425</ele>
				<time>2015-07-04T02:11:27Z</time>
				<extensions>
				</extensions>
			</trkpt>
			<trkpt lat="-28.516791" lon="152.964002">
				<ele>72.450</ele>
				<time>2015-07-04T02:11:29Z</time>
				<extensions>
				</extensions>
			</trkpt>
			<trkpt lat="-28.516932" lon="152.964253">
				<ele>71.209</ele>
				<time>2015-07-04T02:11:31Z</time>
				<extensions>
				</extensions>
			</trkpt>
			<trkpt lat="-28.516995" lon="152.964541">
				<ele>70.557</ele>
				<time>2015-07-04T02:11:33Z</time>
				<extensions>
				</extensions>
			</trkpt>
			<trkpt lat="-28.517023" lon="152.964815">
				<ele>69.827</ele>
				<time>2015-07-04T02:11:35Z</time>
				<extensions>
				</extensions>
			</trkpt>
			<trkpt lat="-28.517093" lon="152.965074">
				<ele>69.958</ele>
				<time>2015-07-04T02:11:37Z</time>
				<extensions>
				</extensions>
			</trkpt>
			<trkpt lat="-28.517265" lon="152.965261">
				<ele>72.698</ele>
				<time>2015-07-04T02:11:39Z</time>
				<extensions>
				</extensions>
			</trkpt>
			<trkpt lat="-28.517546" lon="152.965399">
				<ele>75.536</ele>
				<time>2015-07-04T02:11:41Z</time>
				<extensions>
				</extensions>
			</trkpt>
			<trkpt lat="-28.517865" lon="152.965548">
				<ele>75.928</ele>
				<time>2015-07-04T02:11:43Z</time>
				<extensions>
				</extensions>
			</trkpt>
			<trkpt lat="-28.518168" lon="152.965696">
				<ele>75.204</ele>
				<time>2015-07-04T02:11:45Z</time>
				<extensions>
				</extensions>
			</trkpt>
			<trkpt lat="-28.518473" lon="152.965843">
				<ele>73.946</ele>
				<time>2015-07-04T02:11:47Z</time>
				<extensions>
				</extensions>
			</trkpt>
			<trkpt lat="-28.518790" lon="152.965994">
				<ele>75.013</ele>
				<time>2015-07-04T02:11:49Z</time>
				<extensions>
				</extensions>
			</trkpt>
			<trkpt lat="-28.519109" lon="152.966147">
				<ele>74.717</ele>
				<time>2015-07-04T02:11:51Z</time>
				<extensions>
				</extensions>
			</trkpt>
			<trkpt lat="-28.519437" lon="152.966307">
				<ele>74.956</ele>
				<time>2015-07-04T02:11:53Z</time>
				<extensions>
				</extensions>
			</trkpt>
			<trkpt lat="-28.519777" lon="152.966465">
				<ele>75.689</ele>
				<time>2015-07-04T02:11:55Z</time>
				<extensions>
				</extensions>
			</trkpt>
			<trkpt lat="-28.519955" lon="152.966548">
				<ele>76.602</ele>
				<time>2015-07-04T02:11:56Z</time>
				<extensions>
				</extensions>
			</trkpt>
			<trkpt lat="-28.520138" lon="152.966637">
				<ele>77.332</ele>
				<time>2015-07-04T02:11:57Z</time>
				<extensions>
				</extensions>
			</trkpt>
			<trkpt lat="-28.520322" lon="152.966729">
				<ele>77.245</ele>
				<time>2015-07-04T02:11:58Z</time>
				<extensions>
				</extensions>
			</trkpt>
			<trkpt lat="-28.520502" lon="152.966822">
				<ele>76.353</ele>
				<time>2015-07-04T02:11:59Z</time>
				<extensions>
				</extensions>
			</trkpt>
			<trkpt lat="-28.520680" lon="152.966922">
				<ele>77.054</ele>
				<time>2015-07-04T02:12:00Z</time>
				<extensions>
				</extensions>
			</trkpt>
			<trkpt lat="-28.520850" lon="152.967020">
				<ele>76.873</ele>
				<time>2015-07-04T02:12:01Z</time>
				<extensions>
				</extensions>
			</trkpt>
			<trkpt lat="-28.521021" lon="152.967124">
				<ele>77.459</ele>
				<time>2015-07-04T02:12:02Z</time>
				<extensions>
				</extensions>
			</trkpt>
			<trkpt lat="-28.521195" lon="152.967233">
				<ele>77.662</ele>
				<time>2015-07-04T02:12:03Z</time>
				<extensions>
				</extensions>
			</trkpt>
			<trkpt lat="-28.521365" lon="152.967342">
				<ele>77.951</ele>
				<time>2015-07-04T02:12:04Z</time>
				<extensions>
				</extensions>
			</trkpt>
			<trkpt lat="-28.521532" lon="152.967456">
				<ele>77.468</ele>
				<time>2015-07-04T02:12:05Z</time>
				<extensions>
				</extensions>
			</trkpt>
			<trkpt lat="-28.521699" lon="152.967577">
				<ele>76.584</ele>
				<time>2015-07-04T02:12:06Z</time>
				<extensions>
				</extensions>
			</trkpt>
			<trkpt lat="-28.521863" lon="152.967693">
				<ele>78.164</ele>
				<time>2015-07-04T02:12:07Z</time>
				<extensions>
				</extensions>
			</trkpt>
			<trkpt lat="-28.522024" lon="152.967816">
				<ele>77.322</ele>
				<time>2015-07-04T02:12:08Z</time>
				<extensions>
				</extensions>
			</trkpt>
			<trkpt lat="-28.522186" lon="152.967943">
				<ele>76.132</ele>
				<time>2015-07-04T02:12:09Z</time>
				<extensions>
				</extensions>
			</trkpt>
			<trkpt lat="-28.522349" lon="152.968073">
				<ele>75.192</ele>
				<time>2015-07-04T02:12:10Z</time>
				<extensions>
				</extensions>
			</trkpt>
			<trkpt lat="-28.522504" lon="152.968207">
				<ele>74.853</ele>
				<time>2015-07-04T02:12:11Z</time>
				<extensions>
				</extensions>
			</trkpt>
			<trkpt lat="-28.522664" lon="152.968346">
				<ele>74.900</ele>
				<time>2015-07-04T02:12:12Z</time>
				<extensions>
				</extensions>
			</trkpt>
			<trkpt lat="-28.522821" lon="152.968496">
				<ele>75.353</ele>
				<time>2015-07-04T02:12:13Z</time>
				<extensions>
				</extensions>
			</trkpt>
			<trkpt lat="-28.522973" lon="152.968644">
				<ele>76.519</ele>
				<time>2015-07-04T02:12:14Z</time>
				<extensions>
				</extensions>
			</trkpt>
			<trkpt lat="-28.523126" lon="152.968798">
				<ele>75.588</ele>
				<time>2015-07-04T02:12:15Z</time>
				<extensions>
				</extensions>
			</trkpt>
			<trkpt lat="-28.523279" lon="152.968948">
				<ele>74.311</ele>
				<time>2015-07-04T02:12:16Z</time>
				<extensions>
				</extensions>
			</trkpt>
			<trkpt lat="-28.523432" lon="152.969104">
				<ele>74.667</ele>
				<time>2015-07-04T02:12:17Z</time>
				<extensions>
				</extensions>
			</trkpt>
			<trkpt lat="-28.523584" lon="152.969257">
				<ele>74.119</ele>
				<time>2015-07-04T02:12:18Z</time>
				<extensions>
				</extensions>
			</trkpt>
			<trkpt lat="-28.523734" lon="152.969413">
				<ele>74.223</ele>
				<time>2015-07-04T02:12:19Z</time>
				<extensions>
				</extensions>
			</trkpt>
			<trkpt lat="-28.523888" lon="152.969570">
				<ele>74.420</ele>
				<time>2015-07-04T02:12:20Z</time>
				<extensions>
				</extensions>
			</trkpt>
			<trkpt lat="-28.524043" lon="152.969725">
				<ele>75.536</ele>
				<time>2015-07-04T02:12:21Z</time>
				<extensions>
				</extensions>
			</trkpt>
			<trkpt lat="-28.524202" lon="152.969873">
				<ele>74.824</ele>
				<time>2015-07-04T02:12:22Z</time>
				<extensions>
				</extensions>
			</trkpt>
			<trkpt lat="-28.524359" lon="152.970022">
				<ele>75.614</ele>
				<time>2015-07-04T02:12:23Z</time>
				<extensions>
				</extensions>
			</trkpt>
			<trkpt lat="-28.524515" lon="152.970165">
				<ele>76.125</ele>
				<time>2015-07-04T02:12:24Z</time>
				<extensions>
				</extensions>
			</trkpt>
			<trkpt lat="-28.524676" lon="152.970306">
				<ele>75.300</ele>
				<time>2015-07-04T02:12:25Z</time>
				<extensions>
				</extensions>
			</trkpt>
			<trkpt lat="-28.524841" lon="152.970445">
				<ele>75.786</ele>
				<time>2015-07-04T02:12:26Z</time>
				<extensions>
				</extensions>
			</trkpt>
			<trkpt lat="-28.525010" lon="152.970576">
				<ele>75.880</ele>
				<time>2015-07-04T02:12:27Z</time>
				<extensions>
				</extensions>
			</trkpt>
			<trkpt lat="-28.525180" lon="152.970706">
				<ele>76.649</ele>
				<time>2015-07-04T02:12:28Z</time>
				<extensions>
				</extensions>
			</trkpt>
			<trkpt lat="-28.525354" lon="152.970835">
				<ele>76.257</ele>
				<time>2015-07-04T02:12:29Z</time>
				<extensions>
				</extensions>
			</trkpt>
			<trkpt lat="-28.525527" lon="152.970952">
				<ele>76.845</ele>
				<time>2015-07-04T02:12:30Z</time>
				<extensions>
				</extensions>
			</trkpt>
			<trkpt lat="-28.525702" lon="152.971069">
				<ele>76.161</ele>
				<time>2015-07-04T02:12:31Z</time>
				<extensions>
				</extensions>
			</trkpt>
			<trkpt lat="-28.525878" lon="152.971181">
				<ele>76.219</ele>
				<time>2015-07-04T02:12:32Z</time>
				<extensions>
				</extensions>
			</trkpt>
			<trkpt lat="-28.526056" lon="152.971285">
				<ele>76.538</ele>
				<time>2015-07-04T02:12:33Z</time>
				<extensions>
				</extensions>
			</trkpt>
			<trkpt lat="-28.526245" lon="152.971380">
				<ele>77.795</ele>
				<time>2015-07-04T02:12:34Z</time>
				<extensions>
				</extensions>
			</trkpt>
			<trkpt lat="-28.526435" lon="152.971472">
				<ele>76.049</ele>
				<time>2015-07-04T02:12:35Z</time>
				<extensions>
				</extensions>
			</trkpt>
			<trkpt lat="-28.526623" lon="152.971555">
				<ele>76.586</ele>
				<time>2015-07-04T02:12:36Z</time>
				<extensions>
				</extensions>
			</trkpt>
			<trkpt lat="-28.526818" lon="152.971634">
				<ele>75.837</ele>
				<time>2015-07-04T02:12:37Z</time>
				<extensions>
				</extensions>
			</trkpt>
			<trkpt lat="-28.527013" lon="152.971708">
				<ele>77.640</ele>
				<time>2015-07-04T02:12:38Z</time>
				<extensions>
				</extensions>
			</trkpt>
			<trkpt lat="-28.527212" lon="152.971784">
				<ele>77.500</ele>
				<time>2015-07-04T02:12:39Z</time>
				<extensions>
				</extensions>
			</trkpt>
			<trkpt lat="-28.527411" lon="152.971852">
				<ele>77.375</ele>
				<time>2015-07-04T02:12:40Z</time>
				<extensions>
				</extensions>
			</trkpt>
			<trkpt lat="-28.527612" lon="152.971927">
				<ele>76.741</ele>
				<time>2015-07-04T02:12:41Z</time>
				<extensions>
				</extensions>
			</trkpt>
			<trkpt lat="-28.527818" lon="152.972001">
				<ele>76.236</ele>
				<time>2015-07-04T02:12:42Z</time>
				<extensions>
				</extensions>
			</trkpt>
			<trkpt lat="-28.528025" lon="152.972077">
				<ele>76.742</ele>
				<time>2015-07-04T02:12:43Z</time>
				<extensions>
				</extensions>
			</trkpt>
			<trkpt lat="-28.528236" lon="152.972149">
				<ele>76.835</ele>
				<time>2015-07-04T02:12:44Z</time>
				<extensions>
				</extensions>
			</trkpt>
			<trkpt lat="-28.528441" lon="152.972227">
				<ele>77.341</ele>
				<time>2015-07-04T02:12:45Z</time>
				<extensions>
				</extensions>
			</trkpt>
			<trkpt lat="-28.528651" lon="152.972298">
				<ele>77.131</ele>
				<time>2015-07-04T02:12:46Z</time>
				<extensions>
				</extensions>
			</trkpt>
			<trkpt lat="-28.528866" lon="152.972375">
				<ele>79.744</ele>
				<time>2015-07-04T02:12:47Z</time>
				<extensions>
				</extensions>
			</trkpt>
			<trkpt lat="-28.529088" lon="152.972454">
				<ele>80.274</ele>
				<time>2015-07-04T02:12:48Z</time>
				<extensions>
				</extensions>
			</trkpt>
			<trkpt lat="-28.529316" lon="152.972535">
				<ele>80.747</ele>
				<time>2015-07-04T02:12:49Z</time>
				<extensions>
				</extensions>
			</trkpt>
			<trkpt lat="-28.529539" lon="152.972610">
				<ele>80.546</ele>
				<time>2015-07-04T02:12:50Z</time>
				<extensions>
				</extensions>
			</trkpt>
			<trkpt lat="-28.529761" lon="152.972688">
				<ele>78.918</ele>
				<time>2015-07-04T02:12:51Z</time>
				<extensions>
				</extensions>
			</trkpt>
			<trkpt lat="-28.529982" lon="152.972769">
				<ele>79.730</ele>
				<time>2015-07-04T02:12:52Z</time>
				<extensions>
				</extensions>
			</trkpt>
			<trkpt lat="-28.530207" lon="152.972850">
				<ele>80.333</ele>
				<time>2015-07-04T02:12:53Z</time>
				<extensions>
				</extensions>
			</trkpt>
			<trkpt lat="-28.530427" lon="152.972932">
				<ele>79.621</ele>
				<time>2015-07-04T02:12:54Z</time>
				<extensions>
				</extensions>
			</trkpt>
			<trkpt lat="-28.530644" lon="152.973007">
				<ele>79.637</ele>
				<time>2015-07-04T02:12:55Z</time>
				<extensions>
				</extensions>
			</trkpt>
			<trkpt lat="-28.530863" lon="152.973084">
				<ele>80.731</ele>
				<time>2015-07-04T02:12:56Z</time>
				<extensions>
				</extensions>
			</trkpt>
			<trkpt lat="-28.531084" lon="152.973161">
				<ele>79.923</ele>
				<time>2015-07-04T02:12:57Z</time>
				<extensions>
				</extensions>
			</trkpt>
			<trkpt lat="-28.531305" lon="152.973240">
				<ele>80.163</ele>
				<time>2015-07-04T02:12:58Z</time>
				<extensions>
				</extensions>
			</trkpt>
			<trkpt lat="-28.531530" lon="152.973324">
				<ele>79.865</ele>
				<time>2015-07-04T02:12:59Z</time>
				<extensions>
				</extensions>
			</trkpt>
			<trkpt lat="-28.531760" lon="152.973409">
				<ele>80.775</ele>
				<time>2015-07-04T02:13:00Z</time>
				<extensions>
				</extensions>
			</trkpt>
			<trkpt lat="-28.531987" lon="152.973494">
				<ele>81.932</ele>
				<time>2015-07-04T02:13:01Z</time>
				<extensions>
				</extensions>
			</trkpt>
			<trkpt lat="-28.532209" lon="152.973571">
				<ele>81.119</ele>
				<time>2015-07-04T02:13:02Z</time>
				<extensions>
				</extensions>
			</trkpt>
			<trkpt lat="-28.532431" lon="152.973651">
				<ele>81.119</ele>
				<time>2015-07-04T02:13:03Z</time>
				<extensions>
				</extensions>
			</trkpt>
			<trkpt lat="-28.532650" lon="152.973733">
				<ele>82.006</ele>
				<time>2015-07-04T02:13:04Z</time>
				<extensions>
				</extensions>
			</trkpt>
			<trkpt lat="-28.532870" lon="152.973815">
				<ele>81.261</ele>
				<time>2015-07-04T02:13:05Z</time>
				<extensions>
				</extensions>
			</trkpt>
			<trkpt lat="-28.533092" lon="152.973896">
				<ele>81.756</ele>
				<time>2015-07-04T02:13:06Z</time>
				<extensions>
				</extensions>
			</trkpt>
			<trkpt lat="-28.533312" lon="152.973976">
				<ele>81.994</ele>
				<time>2015-07-04T02:13:07Z</time>
				<extensions>
				</extensions>
			</trkpt>
			<trkpt lat="-28.533534" lon="152.974059">
				<ele>82.063</ele>
				<time>2015-07-04T02:13:08Z</time>
				<extensions>
				</extensions>
			</trkpt>
			<trkpt lat="-28.533767" lon="152.974136">
				<ele>82.541</ele>
				<time>2015-07-04T02:13:09Z</time>
				<extensions>
				</extensions>
			</trkpt>
			<trkpt lat="-28.534006" lon="152.974212">
				<ele>84.697</ele>
				<time>2015-07-04T02:13:10Z</time>
				<extensions>
				</extensions>
			</trkpt>
			<trkpt lat="-28.534264" lon="152.974303">
				<ele>85.726</ele>
				<time>2015-07-04T02:13:11Z</time>
				<extensions>
				</extensions>
			</trkpt>
			<trkpt lat="-28.534532" lon="152.974391">
				<ele>86.712</ele>
				<time>2015-07-04T02:13:12Z</time>
				<extensions>
				</extensions>
			</trkpt>
			<trkpt lat="-28.534794" lon="152.974480">
				<ele>87.804</ele>
				<time>2015-07-04T02:13:13Z</time>
				<extensions>
				</extensions>
			</trkpt>
			<trkpt lat="-28.535041" lon="152.974561">
				<ele>87.426</ele>
				<time>2015-07-04T02:13:14Z</time>
				<extensions>
				</extensions>
			</trkpt>
			<trkpt lat="-28.535286" lon="152.974638">
				<ele>85.149</ele>
				<time>2015-07-04T02:13:15Z</time>
				<extensions>
				</extensions>
			</trkpt>
			<trkpt lat="-28.535533" lon="152.974707">
				<ele>83.518</ele>
				<time>2015-07-04T02:13:16Z</time>
				<extensions>
				</extensions>
			</trkpt>
			<trkpt lat="-28.535785" lon="152.974774">
				<ele>82.600</ele>
				<time>2015-07-04T02:13:17Z</time>
				<extensions>
				</extensions>
			</trkpt>
			<trkpt lat="-28.536045" lon="152.974839">
				<ele>80.754</ele>
				<time>2015-07-04T02:13:18Z</time>
				<extensions>
				</extensions>
			</trkpt>
			<trkpt lat="-28.536307" lon="152.974897">
				<ele>80.147</ele>
				<time>2015-07-04T02:13:19Z</time>
				<extensions>
				</extensions>
			</trkpt>
			<trkpt lat="-28.536567" lon="152.974951">
				<ele>78.951</ele>
				<time>2015-07-04T02:13:20Z</time>
				<extensions>
				</extensions>
			</trkpt>
			<trkpt lat="-28.536814" lon="152.974995">
				<ele>77.561</ele>
				<time>2015-07-04T02:13:21Z</time>
				<extensions>
				</extensions>
			</trkpt>
			<trkpt lat="-28.537053" lon="152.975037">
				<ele>73.855</ele>
				<time>2015-07-04T02:13:22Z</time>
				<extensions>
				</extensions>
			</trkpt>
			<trkpt lat="-28.537288" lon="152.975080">
				<ele>74.269</ele>
				<time>2015-07-04T02:13:23Z</time>
				<extensions>
				</extensions>
			</trkpt>
			<trkpt lat="-28.537524" lon="152.975126">
				<ele>74.445</ele>
				<time>2015-07-04T02:13:24Z</time>
				<extensions>
				</extensions>
			</trkpt>
			<trkpt lat="-28.537754" lon="152.975167">
				<ele>74.427</ele>
				<time>2015-07-04T02:13:25Z</time>
				<extensions>
				</extensions>
			</trkpt>
			<trkpt lat="-28.537981" lon="152.975207">
				<ele>74.470</ele>
				<time>2015-07-04T02:13:26Z</time>
				<extensions>
				</extensions>
			</trkpt>
			<trkpt lat="-28.538209" lon="152.975246">
				<ele>74.110</ele>
				<time>2015-07-04T02:13:27Z</time>
				<extensions>
				</extensions>
			</trkpt>
			<trkpt lat="-28.538441" lon="152.975283">
				<ele>73.860</ele>
				<time>2015-07-04T02:13:28Z</time>
				<extensions>
				</extensions>
			</trkpt>
			<trkpt lat="-28.538667" lon="152.975322">
				<ele>73.420</ele>
				<time>2015-07-04T02:13:29Z</time>
				<extensions>
				</extensions>
			</trkpt>
			<trkpt lat="-28.538892" lon="152.975362">
				<ele>71.596</ele>
				<time>2015-07-04T02:13:30Z</time>
				<extensions>
				</extensions>
			</trkpt>
			<trkpt lat="-28.539122" lon="152.975402">
				<ele>70.614</ele>
				<time>2015-07-04T02:13:31Z</time>
				<extensions>
				</extensions>
			</trkpt>
			<trkpt lat="-28.539347" lon="152.975445">
				<ele>70.906</ele>
				<time>2015-07-04T02:13:32Z</time>
				<extensions>
				</extensions>
			</trkpt>
			<trkpt lat="-28.539577" lon="152.975492">
				<ele>71.943</ele>
				<time>2015-07-04T02:13:33Z</time>
				<extensions>
				</extensions>
			</trkpt>
			<trkpt lat="-28.539808" lon="152.975545">
				<ele>72.243</ele>
				<time>2015-07-04T02:13:34Z</time>
				<extensions>
				</extensions>
			</trkpt>
			<trkpt lat="-28.540039" lon="152.975598">
				<ele>71.690</ele>
				<time>2015-07-04T02:13:35Z</time>
				<extensions>
				</extensions>
			</trkpt>
			<trkpt lat="-28.540270" lon="152.975652">
				<ele>72.066</ele>
				<time>2015-07-04T02:13:36Z</time>
				<extensions>
				</extensions>
			</trkpt>
			<trkpt lat="-28.540503" lon="152.975704">
				<ele>73.011</ele>
				<time>2015-07-04T02:13:37Z</time>
				<extensions>
				</extensions>
			</trkpt>
			<trkpt lat="-28.540739" lon="152.975759">
				<ele>73.728</ele>
				<time>2015-07-04T02:13:38Z</time>
				<extensions>
				</extensions>
			</trkpt>
			<trkpt lat="-28.540985" lon="152.975812">
				<ele>74.842</ele>
				<time>2015-07-04T02:13:39Z</time>
				<extensions>
				</extensions>
			</trkpt>
			<trkpt lat="-28.541238" lon="152.975874">
				<ele>75.392</ele>
				<time>2015-07-04T02:13:40Z</time>
				<extensions>
				</extensions>
			</trkpt>
			<trkpt lat="-28.541492" lon="152.975934">
				<ele>73.704</ele>
				<time>2015-07-04T02:13:41Z</time>
				<extensions>
				</extensions>
			</trkpt>
			<trkpt lat="-28.541737" lon="152.975993">
				<ele>72.319</ele>
				<time>2015-07-04T02:13:42Z</time>
				<extensions>
				</extensions>
			</trkpt>
			<trkpt lat="-28.541973" lon="152.976049">
				<ele>71.577</ele>
				<time>2015-07-04T02:13:43Z</time>
				<extensions>
				</extensions>
			</trkpt>
			<trkpt lat="-28.542201" lon="152.976103">
				<ele>72.151</ele>
				<time>2015-07-04T02:13:44Z</time>
				<extensions>
				</extensions>
			</trkpt>
			<trkpt lat="-28.542430" lon="152.976150">
				<ele>71.286</ele>
				<time>2015-07-04T02:13:45Z</time>
				<extensions>
				</extensions>
			</trkpt>
			<trkpt lat="-28.542657" lon="152.976203">
				<ele>70.477</ele>
				<time>2015-07-04T02:13:46Z</time>
				<extensions>
				</extensions>
			</trkpt>
			<trkpt lat="-28.542886" lon="152.976253">
				<ele>71.671</ele>
				<time>2015-07-04T02:13:47Z</time>
				<extensions>
				</extensions>
			</trkpt>
			<trkpt lat="-28.543111" lon="152.976305">
				<ele>70.443</ele>
				<time>2015-07-04T02:13:48Z</time>
				<extensions>
				</extensions>
			</trkpt>
			<trkpt lat="-28.543333" lon="152.976353">
				<ele>69.316</ele>
				<time>2015-07-04T02:13:49Z</time>
				<extensions>
				</extensions>
			</trkpt>
			<trkpt lat="-28.543562" lon="152.976392">
				<ele>67.956</ele>
				<time>2015-07-04T02:13:50Z</time>
				<extensions>
				</extensions>
			</trkpt>
			<trkpt lat="-28.543792" lon="152.976429">
				<ele>67.954</ele>
				<time>2015-07-04T02:13:51Z</time>
				<extensions>
				</extensions>
			</trkpt>
			<trkpt lat="-28.544024" lon="152.976457">
				<ele>68.512</ele>
				<time>2015-07-04T02:13:52Z</time>
				<extensions>
				</extensions>
			</trkpt>
			<trkpt lat="-28.544257" lon="152.976483">
				<ele>69.929</ele>
				<time>2015-07-04T02:13:53Z</time>
				<extensions>
				</extensions>
			</trkpt>
			<trkpt lat="-28.544501" lon="152.976499">
				<ele>72.322</ele>
				<time>2015-07-04T02:13:54Z</time>
				<extensions>
				</extensions>
			</trkpt>
			<trkpt lat="-28.544749" lon="152.976509">
				<ele>73.486</ele>
				<time>2015-07-04T02:13:55Z</time>
				<extensions>
				</extensions>
			</trkpt>
			<trkpt lat="-28.545000" lon="152.976513">
				<ele>74.884</ele>
				<time>2015-07-04T02:13:56Z</time>
				<extensions>
				</extensions>
			</trkpt>
			<trkpt lat="-28.545252" lon="152.976514">
				<ele>75.962</ele>
				<time>2015-07-04T02:13:57Z</time>
				<extensions>
				</extensions>
			</trkpt>
			<trkpt lat="-28.545508" lon="152.976514">
				<ele>74.935</ele>
				<time>2015-07-04T02:13:58Z</time>
				<extensions>
				</extensions>
			</trkpt>
			<trkpt lat="-28.545773" lon="152.976513">
				<ele>74.606</ele>
				<time>2015-07-04T02:13:59Z</time>
				<extensions>
				</extensions>
			</trkpt>
			<trkpt lat="-28.546035" lon="152.976510">
				<ele>75.000</ele>
				<time>2015-07-04T02:14:00Z</time>
				<extensions>
				</extensions>
			</trkpt>
			<trkpt lat="-28.546290" lon="152.976511">
				<ele>75.792</ele>
				<time>2015-07-04T02:14:01Z</time>
				<extensions>
				</extensions>
			</trkpt>
			<trkpt lat="-28.546540" lon="152.976508">
				<ele>75.792</ele>
				<time>2015-07-04T02:14:02Z</time>
				<extensions>
				</extensions>
			</trkpt>
			<trkpt lat="-28.546788" lon="152.976505">
				<ele>75.356</ele>
				<time>2015-07-04T02:14:03Z</time>
				<extensions>
				</extensions>
			</trkpt>
			<trkpt lat="-28.547030" lon="152.976506">
				<ele>74.025</ele>
				<time>2015-07-04T02:14:04Z</time>
				<extensions>
				</extensions>
			</trkpt>
			<trkpt lat="-28.547268" lon="152.976507">
				<ele>73.692</ele>
				<time>2015-07-04T02:14:05Z</time>
				<extensions>
				</extensions>
			</trkpt>
			<trkpt lat="-28.547502" lon="152.976508">
				<ele>74.088</ele>
				<time>2015-07-04T02:14:06Z</time>
				<extensions>
				</extensions>
			</trkpt>
			<trkpt lat="-28.547741" lon="152.976506">
				<ele>71.733</ele>
				<time>2015-07-04T02:14:07Z</time>
				<extensions>
				</extensions>
			</trkpt>
			<trkpt lat="-28.547978" lon="152.976505">
				<ele>71.906</ele>
				<time>2015-07-04T02:14:08Z</time>
				<extensions>
				</extensions>
			</trkpt>
			<trkpt lat="-28.548216" lon="152.976505">
				<ele>70.607</ele>
				<time>2015-07-04T02:14:09Z</time>
				<extensions>
				</extensions>
			</trkpt>
			<trkpt lat="-28.548455" lon="152.976504">
				<ele>70.967</ele>
				<time>2015-07-04T02:14:10Z</time>
				<extensions>
				</extensions>
			</trkpt>
			<trkpt lat="-28.548693" lon="152.976506">
				<ele>71.092</ele>
				<time>2015-07-04T02:14:11Z</time>
				<extensions>
				</extensions>
			</trkpt>
			<trkpt lat="-28.548930" lon="152.976502">
				<ele>72.128</ele>
				<time>2015-07-04T02:14:12Z</time>
				<extensions>
				</extensions>
			</trkpt>
			<trkpt lat="-28.549166" lon="152.976500">
				<ele>71.599</ele>
				<time>2015-07-04T02:14:13Z</time>
				<extensions>
				</extensions>
			</trkpt>
			<trkpt lat="-28.549401" lon="152.976498">
				<ele>71.918</ele>
				<time>2015-07-04T02:14:14Z</time>
				<extensions>
				</extensions>
			</trkpt>
			<trkpt lat="-28.549635" lon="152.976494">
				<ele>71.376</ele>
				<time>2015-07-04T02:14:15Z</time>
				<extensions>
				</extensions>
			</trkpt>
			<trkpt lat="-28.549871" lon="152.976492">
				<ele>71.525</ele>
				<time>2015-07-04T02:14:16Z</time>
				<extensions>
				</extensions>
			</trkpt>
			<trkpt lat="-28.550105" lon="152.976489">
				<ele>72.347</ele>
				<time>2015-07-04T02:14:17Z</time>
				<extensions>
				</extensions>
			</trkpt>
			<trkpt lat="-28.550335" lon="152.976490">
				<ele>71.519</ele>
				<time>2015-07-04T02:14:18Z</time>
				<extensions>
				</extensions>
			</trkpt>
			<trkpt lat="-28.550562" lon="152.976493">
				<ele>70.657</ele>
				<time>2015-07-04T02:14:19Z</time>
				<extensions>
				</extensions>
			</trkpt>
			<trkpt lat="-28.550790" lon="152.976490">
				<ele>69.104</ele>
				<time>2015-07-04T02:14:20Z</time>
				<extensions>
				</extensions>
			</trkpt>
			<trkpt lat="-28.551019" lon="152.976488">
				<ele>70.005</ele>
				<time>2015-07-04T02:14:21Z</time>
				<extensions>
				</extensions>
			</trkpt>
			<trkpt lat="-28.551248" lon="152.976486">
				<ele>70.543</ele>
				<time>2015-07-04T02:14:22Z</time>
				<extensions>
				</extensions>
			</trkpt>
			<trkpt lat="-28.551476" lon="152.976480">
				<ele>69.705</ele>
				<time>2015-07-04T02:14:23Z</time>
				<extensions>
				</extensions>
			</trkpt>
			<trkpt lat="-28.551703" lon="152.976471">
				<ele>70.796</ele>
				<time>2015-07-04T02:14:24Z</time>
				<extensions>
				</extensions>
			</trkpt>
			<trkpt lat="-28.551925" lon="152.976459">
				<ele>70.087</ele>
				<time>2015-07-04T02:14:25Z</time>
				<extensions>
				</extensions>
			</trkpt>
			<trkpt lat="-28.552139" lon="152.976438">
				<ele>69.158</ele>
				<time>2015-07-04T02:14:26Z</time>
				<extensions>
				</extensions>
			</trkpt>
			<trkpt lat="-28.552359" lon="152.976404">
				<ele>69.063</ele>
				<time>2015-07-04T02:14:27Z</time>
				<extensions>
				</extensions>
			</trkpt>
			<trkpt lat="-28.552575" lon="152.976350">
				<ele>69.635</ele>
				<time>2015-07-04T02:14:28Z</time>
				<extensions>
				</extensions>
			</trkpt>
			<trkpt lat="-28.552794" lon="152.976283">
				<ele>70.537</ele>
				<time>2015-07-04T02:14:29Z</time>
				<extensions>
				</extensions>
			</trkpt>
			<trkpt lat="-28.553021" lon="152.976199">
				<ele>71.520</ele>
				<time>2015-07-04T02:14:30Z</time>
				<extensions>
				</extensions>
			</trkpt>
			<trkpt lat="-28.553243" lon="152.976099">
				<ele>72.512</ele>
				<time>2015-07-04T02:14:31Z</time>
				<extensions>
				</extensions>
			</trkpt>
			<trkpt lat="-28.553453" lon="152.975987">
				<ele>72.888</ele>
				<time>2015-07-04T02:14:32Z</time>
				<extensions>
				</extensions>
			</trkpt>
			<trkpt lat="-28.553657" lon="152.975869">
				<ele>72.006</ele>
				<time>2015-07-04T02:14:33Z</time>
				<extensions>
				</extensions>
			</trkpt>
			<trkpt lat="-28.553854" lon="152.975746">
				<ele>71.873</ele>
				<time>2015-07-04T02:14:34Z</time>
				<extensions>
				</extensions>
			</trkpt>
			<trkpt lat="-28.554038" lon="152.975627">
				<ele>72.338</ele>
				<time>2015-07-04T02:14:35Z</time>
				<extensions>
				</extensions>
			</trkpt>
			<trkpt lat="-28.554213" lon="152.975513">
				<ele>71.414</ele>
				<time>2015-07-04T02:14:36Z</time>
				<extensions>
				</extensions>
			</trkpt>
			<trkpt lat="-28.554389" lon="152.975400">
				<ele>70.545</ele>
				<time>2015-07-04T02:14:37Z</time>
				<extensions>
				</extensions>
			</trkpt>
			<trkpt lat="-28.554563" lon="152.975288">
				<ele>70.410</ele>
				<time>2015-07-04T02:14:38Z</time>
				<extensions>
				</extensions>
			</trkpt>
			<trkpt lat="-28.554738" lon="152.975178">
				<ele>71.136</ele>
				<time>2015-07-04T02:14:39Z</time>
				<extensions>
				</extensions>
			</trkpt>
			<trkpt lat="-28.554919" lon="152.975074">
				<ele>70.479</ele>
				<time>2015-07-04T02:14:40Z</time>
				<extensions>
				</extensions>
			</trkpt>
			<trkpt lat="-28.555098" lon="152.974984">
				<ele>69.607</ele>
				<time>2015-07-04T02:14:41Z</time>
				<extensions>
				</extensions>
			</trkpt>
			<trkpt lat="-28.555277" lon="152.974908">
				<ele>69.045</ele>
				<time>2015-07-04T02:14:42Z</time>
				<extensions>
				</extensions>
			</trkpt>
			<trkpt lat="-28.555463" lon="152.974836">
				<ele>70.039</ele>
				<time>2015-07-04T02:14:43Z</time>
				<extensions>
				</extensions>
			</trkpt>
			<trkpt lat="-28.555651" lon="152.974773">
				<ele>69.377</ele>
				<time>2015-07-04T02:14:44Z</time>
				<extensions>
				</extensions>
			</trkpt>
			<trkpt lat="-28.555844" lon="152.974718">
				<ele>67.951</ele>
				<time>2015-07-04T02:14:45Z</time>
				<extensions>
				</extensions>
			</trkpt>
			<trkpt lat="-28.556039" lon="152.974670">
				<ele>67.288</ele>
				<time>2015-07-04T02:14:46Z</time>
				<extensions>
				</extensions>
			</trkpt>
			<trkpt lat="-28.556240" lon="152.974632">
				<ele>68.104</ele>
				<time>2015-07-04T02:14:47Z</time>
				<extensions>
				</extensions>
			</trkpt>
			<trkpt lat="-28.556448" lon="152.974603">
				<ele>67.226</ele>
				<time>2015-07-04T02:14:48Z</time>
				<extensions>
				</extensions>
			</trkpt>
			<trkpt lat="-28.556663" lon="152.974585">
				<ele>66.450</ele>
				<time>2015-07-04T02:14:49Z</time>
				<extensions>
				</extensions>
			</trkpt>
			<trkpt lat="-28.556885" lon="152.974583">
				<ele>68.634</ele>
				<time>2015-07-04T02:14:50Z</time>
				<extensions>
				</extensions>
			</trkpt>
			<trkpt lat="-28.557115" lon="152.974593">
				<ele>69.083</ele>
				<time>2015-07-04T02:14:51Z</time>
				<extensions>
				</extensions>
			</trkpt>
			<trkpt lat="-28.557353" lon="152.974615">
				<ele>70.369</ele>
				<time>2015-07-04T02:14:52Z</time>
				<extensions>
				</extensions>
			</trkpt>
			<trkpt lat="-28.557601" lon="152.974651">
				<ele>69.683</ele>
				<time>2015-07-04T02:14:53Z</time>
				<extensions>
				</extensions>
			</trkpt>
			<trkpt lat="-28.557839" lon="152.974702">
				<ele>68.568</ele>
				<time>2015-07-04T02:14:54Z</time>
				<extensions>
				</extensions>
			</trkpt>
			<trkpt lat="-28.558068" lon="152.974762">
				<ele>68.041</ele>
				<time>2015-07-04T02:14:55Z</time>
				<extensions>
				</extensions>
			</trkpt>
			<trkpt lat="-28.558288" lon="152.974838">
				<ele>67.926</ele>
				<time>2015-07-04T02:14:56Z</time>
				<extensions>
				</extensions>
			</trkpt>
			<trkpt lat="-28.558505" lon="152.974925">
				<ele>66.328</ele>
				<time>2015-07-04T02:14:57Z</time>
				<extensions>
				</extensions>
			</trkpt>
			<trkpt lat="-28.558720" lon="152.975032">
				<ele>69.362</ele>
				<time>2015-07-04T02:14:58Z</time>
				<extensions>
				</extensions>
			</trkpt>
			<trkpt lat="-28.558935" lon="152.975160">
				<ele>71.617</ele>
				<time>2015-07-04T02:14:59Z</time>
				<extensions>
				</extensions>
			</trkpt>
			<trkpt lat="-28.559157" lon="152.975308">
				<ele>73.601</ele>
				<time>2015-07-04T02:15:00Z</time>
				<extensions>
				</extensions>
			</trkpt>
			<trkpt lat="-28.559381" lon="152.975472">
				<ele>74.861</ele>
				<time>2015-07-04T02:15:01Z</time>
				<extensions>
				</extensions>
			</trkpt>
			<trkpt lat="-28.559592" lon="152.975648">
				<ele>73.163</ele>
				<time>2015-07-04T02:15:02Z</time>
				<extensions>
				</extensions>
			</trkpt>
			<trkpt lat="-28.559787" lon="152.975834">
				<ele>71.981</ele>
				<time>2015-07-04T02:15:03Z</time>
				<extensions>
				</extensions>
			</trkpt>
			<trkpt lat="-28.559964" lon="152.976024">
				<ele>71.733</ele>
				<time>2015-07-04T02:15:04Z</time>
				<extensions>
				</extensions>
			</trkpt>
			<trkpt lat="-28.560128" lon="152.976218">
				<ele>69.790</ele>
				<time>2015-07-04T02:15:05Z</time>
				<extensions>
				</extensions>
			</trkpt>
			<trkpt lat="-28.560278" lon="152.976406">
				<ele>68.300</ele>
				<time>2015-07-04T02:15:06Z</time>
				<extensions>
				</extensions>
			</trkpt>
			<trkpt lat="-28.560420" lon="152.976591">
				<ele>68.300</ele>
				<time>2015-07-04T02:15:07Z</time>
				<extensions>
				</extensions>
			</trkpt>
			<trkpt lat="-28.560558" lon="152.976781">
				<ele>67.196</ele>
				<time>2015-07-04T02:15:08Z</time>
				<extensions>
				</extensions>
			</trkpt>
			<trkpt lat="-28.560692" lon="152.976972">
				<ele>65.470</ele>
				<time>2015-07-04T02:15:09Z</time>
				<extensions>
				</extensions>
			</trkpt>
			<trkpt lat="-28.560828" lon="152.977159">
				<ele>65.510</ele>
				<time>2015-07-04T02:15:10Z</time>
				<extensions>
				</extensions>
			</trkpt>
			<trkpt lat="-28.560962" lon="152.977345">
				<ele>64.102</ele>
				<time>2015-07-04T02:15:11Z</time>
				<extensions>
				</extensions>
			</trkpt>
			<trkpt lat="-28.561103" lon="152.977523">
				<ele>62.473</ele>
				<time>2015-07-04T02:15:12Z</time>
				<extensions>
				</extensions>
			</trkpt>
			<trkpt lat="-28.561243" lon="152.977702">
				<ele>62.915</ele>
				<time>2015-07-04T02:15:13Z</time>
				<extensions>
				</extensions>
			</trkpt>
			<trkpt lat="-28.561406" lon="152.977864">
				<ele>62.497</ele>
				<time>2015-07-04T02:15:14Z</time>
				<extensions>
				</extensions>
			</trkpt>
			<trkpt lat="-28.561569" lon="152.978012">
				<ele>62.927</ele>
				<time>2015-07-04T02:15:15Z</time>
				<extensions>
				</extensions>
			</trkpt>
			<trkpt lat="-28.561744" lon="152.978144">
				<ele>62.101</ele>
				<time>2015-07-04T02:15:16Z</time>
				<extensions>
				</extensions>
			</trkpt>
			<trkpt lat="-28.561934" lon="152.978266">
				<ele>63.379</ele>
				<time>2015-07-04T02:15:17Z</time>
				<extensions>
				</extensions>
			</trkpt>
			<trkpt lat="-28.562128" lon="152.978380">
				<ele>64.587</ele>
				<time>2015-07-04T02:15:18Z</time>
				<extensions>
				</extensions>
			</trkpt>
			<trkpt lat="-28.562338" lon="152.978474">
				<ele>64.590</ele>
				<time>2015-07-04T02:15:19Z</time>
				<extensions>
				</extensions>
			</trkpt>
			<trkpt lat="-28.562553" lon="152.978543">
				<ele>65.052</ele>
				<time>2015-07-04T02:15:20Z</time>
				<extensions>
				</extensions>
			</trkpt>
			<trkpt lat="-28.562765" lon="152.978581">
				<ele>65.407</ele>
				<time>2015-07-04T02:15:21Z</time>
				<extensions>
				</extensions>
			</trkpt>
			<trkpt lat="-28.562989" lon="152.978613">
				<ele>65.490</ele>
				<time>2015-07-04T02:15:22Z</time>
				<extensions>
				</extensions>
			</trkpt>
			<trkpt lat="-28.563213" lon="152.978623">
				<ele>65.152</ele>
				<time>2015-07-04T02:15:23Z</time>
				<extensions>
				</extensions>
			</trkpt>
			<trkpt lat="-28.563438" lon="152.978608">
				<ele>66.287</ele>
				<time>2015-07-04T02:15:24Z</time>
				<extensions>
				</extensions>
			</trkpt>
			<trkpt lat="-28.563658" lon="152.978570">
				<ele>68.065</ele>
				<time>2015-07-04T02:15:25Z</time>
				<extensions>
				</extensions>
			</trkpt>
			<trkpt lat="-28.563878" lon="152.978516">
				<ele>68.708</ele>
				<time>2015-07-04T02:15:26Z</time>
				<extensions>
				</extensions>
			</trkpt>
			<trkpt lat="-28.564098" lon="152.978460">
				<ele>68.376</ele>
				<time>2015-07-04T02:15:27Z</time>
				<extensions>
				</extensions>
			</trkpt>
			<trkpt lat="-28.564320" lon="152.978402">
				<ele>68.830</ele>
				<time>2015-07-04T02:15:28Z</time>
				<extensions>
				</extensions>
			</trkpt>
			<trkpt lat="-28.564543" lon="152.978343">
				<ele>67.248</ele>
				<time>2015-07-04T02:15:29Z</time>
				<extensions>
				</extensions>
			</trkpt>
			<trkpt lat="-28.564760" lon="152.978284">
				<ele>67.912</ele>
				<time>2015-07-04T02:15:30Z</time>
				<extensions>
				</extensions>
			</trkpt>
			<trkpt lat="-28.564975" lon="152.978224">
				<ele>67.656</ele>
				<time>2015-07-04T02:15:31Z</time>
				<extensions>
				</extensions>
			</trkpt>
			<trkpt lat="-28.565185" lon="152.978164">
				<ele>66.815</ele>
				<time>2015-07-04T02:15:32Z</time>
				<extensions>
				</extensions>
			</trkpt>
			<trkpt lat="-28.565392" lon="152.978104">
				<ele>65.874</ele>
				<time>2015-07-04T02:15:33Z</time>
				<extensions>
				</extensions>
			</trkpt>
			<trkpt lat="-28.565606" lon="152.978047">
				<ele>66.404</ele>
				<time>2015-07-04T02:15:34Z</time>
				<extensions>
				</extensions>
			</trkpt>
			<trkpt lat="-28.565817" lon="152.977985">
				<ele>65.093</ele>
				<time>2015-07-04T02:15:35Z</time>
				<extensions>
				</extensions>
			</trkpt>
			<trkpt lat="-28.566029" lon="152.977925">
				<ele>67.249</ele>
				<time>2015-07-04T02:15:36Z</time>
				<extensions>
				</extensions>
			</trkpt>
			<trkpt lat="-28.566239" lon="152.977867">
				<ele>66.261</ele>
				<time>2015-07-04T02:15:37Z</time>
				<extensions>
				</extensions>
			</trkpt>
			<trkpt lat="-28.566450" lon="152.977811">
				<ele>66.803</ele>
				<time>2015-07-04T02:15:38Z</time>
				<extensions>
				</extensions>
			</trkpt>
			<trkpt lat="-28.566665" lon="152.977752">
				<ele>66.301</ele>
				<time>2015-07-04T02:15:39Z</time>
				<extensions>
				</extensions>
			</trkpt>
			<trkpt lat="-28.566879" lon="152.977705">
				<ele>66.539</ele>
				<time>2015-07-04T02:15:40Z</time>
				<extensions>
				</extensions>
			</trkpt>
			<trkpt lat="-28.567099" lon="152.977667">
				<ele>66.538</ele>
				<time>2015-07-04T02:15:41Z</time>
				<extensions>
				</extensions>
			</trkpt>
			<trkpt lat="-28.567316" lon="152.977644">
				<ele>66.184</ele>
				<time>2015-07-04T02:15:42Z</time>
				<extensions>
				</extensions>
			</trkpt>
			<trkpt lat="-28.567537" lon="152.977638">
				<ele>67.125</ele>
				<time>2015-07-04T02:15:43Z</time>
				<extensions>
				</extensions>
			</trkpt>
			<trkpt lat="-28.567754" lon="152.977643">
				<ele>67.415</ele>
				<time>2015-07-04T02:15:44Z</time>
				<extensions>
				</extensions>
			</trkpt>
			<trkpt lat="-28.567972" lon="152.977665">
				<ele>66.434</ele>
				<time>2015-07-04T02:15:45Z</time>
				<extensions>
				</extensions>
			</trkpt>
			<trkpt lat="-28.568193" lon="152.977706">
				<ele>65.789</ele>
				<time>2015-07-04T02:15:46Z</time>
				<extensions>
				</extensions>
			</trkpt>
			<trkpt lat="-28.568410" lon="152.977760">
				<ele>66.800</ele>
				<time>2015-07-04T02:15:47Z</time>
				<extensions>
				</extensions>
			</trkpt>
			<trkpt lat="-28.568626" lon="152.977840">
				<ele>65.809</ele>
				<time>2015-07-04T02:15:48Z</time>
				<extensions>
				</extensions>
			</trkpt>
			<trkpt lat="-28.568831" lon="152.977935">
				<ele>65.941</ele>
				<time>2015-07-04T02:15:49Z</time>
				<extensions>
				</extensions>
			</trkpt>
			<trkpt lat="-28.569034" lon="152.978048">
				<ele>67.366</ele>
				<time>2015-07-04T02:15:50Z</time>
				<extensions>
				</extensions>
			</trkpt>
			<trkpt lat="-28.569228" lon="152.978174">
				<ele>67.527</ele>
				<time>2015-07-04T02:15:51Z</time>
				<extensions>
				</extensions>
			</trkpt>
			<trkpt lat="-28.569415" lon="152.978312">
				<ele>65.881</ele>
				<time>2015-07-04T02:15:52Z</time>
				<extensions>
				</extensions>
			</trkpt>
			<trkpt lat="-28.569595" lon="152.978466">
				<ele>66.707</ele>
				<time>2015-07-04T02:15:53Z</time>
				<extensions>
				</extensions>
			</trkpt>
			<trkpt lat="-28.569769" lon="152.978624">
				<ele>65.711</ele>
				<time>2015-07-04T02:15:54Z</time>
				<extensions>
				</extensions>
			</trkpt>
			<trkpt lat="-28.569933" lon="152.978789">
				<ele>65.873</ele>
				<time>2015-07-04T02:15:55Z</time>
				<extensions>
				</extensions>
			</trkpt>
			<trkpt lat="-28.570081" lon="152.978991">
				<ele>65.932</ele>
				<time>2015-07-04T02:15:56Z</time>
				<extensions>
				</extensions>
			</trkpt>
			<trkpt lat="-28.570211" lon="152.979200">
				<ele>67.192</ele>
				<time>2015-07-04T02:15:57Z</time>
				<extensions>
				</extensions>
			</trkpt>
			<trkpt lat="-28.570343" lon="152.979417">
				<ele>68.056</ele>
				<time>2015-07-04T02:15:58Z</time>
				<extensions>
				</extensions>
			</trkpt>
			<trkpt lat="-28.570477" lon="152.979636">
				<ele>69.285</ele>
				<time>2015-07-04T02:15:59Z</time>
				<extensions>
				</extensions>
			</trkpt>
			<trkpt lat="-28.570612" lon="152.979858">
				<ele>69.637</ele>
				<time>2015-07-04T02:16:00Z</time>
				<extensions>
				</extensions>
			</trkpt>
			<trkpt lat="-28.570738" lon="152.980074">
				<ele>68.643</ele>
				<time>2015-07-04T02:16:01Z</time>
				<extensions>
				</extensions>
			</trkpt>
			<trkpt lat="-28.570857" lon="152.980288">
				<ele>67.556</ele>
				<time>2015-07-04T02:16:02Z</time>
				<extensions>
				</extensions>
			</trkpt>
			<trkpt lat="-28.570972" lon="152.980502">
				<ele>68.118</ele>
				<time>2015-07-04T02:16:03Z</time>
				<extensions>
				</extensions>
			</trkpt>
			<trkpt lat="-28.571093" lon="152.980711">
				<ele>69.123</ele>
				<time>2015-07-04T02:16:04Z</time>
				<extensions>
				</extensions>
			</trkpt>
			<trkpt lat="-28.571208" lon="152.980920">
				<ele>67.192</ele>
				<time>2015-07-04T02:16:05Z</time>
				<extensions>
				</extensions>
			</trkpt>
			<trkpt lat="-28.571321" lon="152.981112">
				<ele>66.089</ele>
				<time>2015-07-04T02:16:06Z</time>
				<extensions>
				</extensions>
			</trkpt>
			<trkpt lat="-28.571438" lon="152.981305">
				<ele>65.409</ele>
				<time>2015-07-04T02:16:07Z</time>
				<extensions>
				</extensions>
			</trkpt>
			<trkpt lat="-28.571558" lon="152.981479">
				<ele>65.409</ele>
				<time>2015-07-04T02:16:08Z</time>
				<extensions>
				</extensions>
			</trkpt>
			<trkpt lat="-28.571687" lon="152.981648">
				<ele>64.662</ele>
				<time>2015-07-04T02:16:09Z</time>
				<extensions>
				</extensions>
			</trkpt>
			<trkpt lat="-28.571828" lon="152.981814">
				<ele>63.097</ele>
				<time>2015-07-04T02:16:10Z</time>
				<extensions>
				</extensions>
			</trkpt>
			<trkpt lat="-28.571981" lon="152.981967">
				<ele>63.213</ele>
				<time>2015-07-04T02:16:11Z</time>
				<extensions>
				</extensions>
			</trkpt>
			<trkpt lat="-28.572143" lon="152.982112">
				<ele>62.579</ele>
				<time>2015-07-04T02:16:12Z</time>
				<extensions>
				</extensions>
			</trkpt>
			<trkpt lat="-28.572321" lon="152.982249">
				<ele>61.574</ele>
				<time>2015-07-04T02:16:13Z</time>
				<extensions>
				</extensions>
			</trkpt>
			<trkpt lat="-28.572511" lon="152.982378">
				<ele>62.572</ele>
				<time>2015-07-04T02:16:14Z</time>
				<extensions>
				</extensions>
			</trkpt>
			<trkpt lat="-28.572710" lon="152.982484">
				<ele>62.873</ele>
				<time>2015-07-04T02:16:15Z</time>
				<extensions>
				</extensions>
			</trkpt>
			<trkpt lat="-28.572918" lon="152.982568">
				<ele>62.400</ele>
				<time>2015-07-04T02:16:16Z</time>
				<extensions>
				</extensions>
			</trkpt>
			<trkpt lat="-28.573129" lon="152.982629">
				<ele>62.504</ele>
				<time>2015-07-04T02:16:17Z</time>
				<extensions>
				</extensions>
			</trkpt>
			<trkpt lat="-28.573352" lon="152.982671">
				<ele>63.026</ele>
				<time>2015-07-04T02:16:18Z</time>
				<extensions>
				</extensions>
			</trkpt>
			<trkpt lat="-28.573589" lon="152.982704">
				<ele>65.295</ele>
				<time>2015-07-04T02:16:19Z</time>
				<extensions>
				</extensions>
			</trkpt>
			<trkpt lat="-28.573832" lon="152.982715">
				<ele>67.621</ele>
				<time>2015-07-04T02:16:20Z</time>
				<extensions>
				</extensions>
			</trkpt>
			<trkpt lat="-28.574081" lon="152.982717">
				<ele>69.053</ele>
				<time>2015-07-04T02:16:21Z</time>
				<extensions>
				</extensions>
			</trkpt>
			<trkpt lat="-28.574329" lon="152.982716">
				<ele>69.012</ele>
				<time>2015-07-04T02:16:22Z</time>
				<extensions>
				</extensions>
			</trkpt>
			<trkpt lat="-28.574568" lon="152.982713">
				<ele>66.926</ele>
				<time>2015-07-04T02:16:23Z</time>
				<extensions>
				</extensions>
			</trkpt>
			<trkpt lat="-28.574806" lon="152.982709">
				<ele>66.491</ele>
				<time>2015-07-04T02:16:24Z</time>
				<extensions>
				</extensions>
			</trkpt>
			<trkpt lat="-28.575042" lon="152.982701">
				<ele>64.936</ele>
				<time>2015-07-04T02:16:25Z</time>
				<extensions>
				</extensions>
			</trkpt>
			<trkpt lat="-28.575278" lon="152.982691">
				<ele>66.542</ele>
				<time>2015-07-04T02:16:26Z</time>
				<extensions>
				</extensions>
			</trkpt>
			<trkpt lat="-28.575517" lon="152.982681">
				<ele>67.076</ele>
				<time>2015-07-04T02:16:27Z</time>
				<extensions>
				</extensions>
			</trkpt>
			<trkpt lat="-28.575760" lon="152.982673">
				<ele>66.731</ele>
				<time>2015-07-04T02:16:28Z</time>
				<extensions>
				</extensions>
			</trkpt>
			<trkpt lat="-28.576002" lon="152.982663">
				<ele>65.812</ele>
				<time>2015-07-04T02:16:29Z</time>
				<extensions>
				</extensions>
			</trkpt>
			<trkpt lat="-28.576242" lon="152.982655">
				<ele>65.944</ele>
				<time>2015-07-04T02:16:30Z</time>
				<extensions>
				</extensions>
			</trkpt>
			<trkpt lat="-28.576477" lon="152.982650">
				<ele>66.406</ele>
				<time>2015-07-04T02:16:31Z</time>
				<extensions>
				</extensions>
			</trkpt>
			<trkpt lat="-28.576711" lon="152.982639">
				<ele>67.253</ele>
				<time>2015-07-04T02:16:32Z</time>
				<extensions>
				</extensions>
			</trkpt>
			<trkpt lat="-28.576942" lon="152.982633">
				<ele>66.913</ele>
				<time>2015-07-04T02:16:33Z</time>
				<extensions>
				</extensions>
			</trkpt>
			<trkpt lat="-28.577168" lon="152.982620">
				<ele>66.478</ele>
				<time>2015-07-04T02:16:34Z</time>
				<extensions>
				</extensions>
			</trkpt>
			<trkpt lat="-28.577388" lon="152.982604">
				<ele>66.294</ele>
				<time>2015-07-04T02:16:35Z</time>
				<extensions>
				</extensions>
			</trkpt>
			<trkpt lat="-28.577608" lon="152.982588">
				<ele>64.941</ele>
				<time>2015-07-04T02:16:36Z</time>
				<extensions>
				</extensions>
			</trkpt>
			<trkpt lat="-28.577829" lon="152.982568">
				<ele>64.586</ele>
				<time>2015-07-04T02:16:37Z</time>
				<extensions>
				</extensions>
			</trkpt>
			<trkpt lat="-28.578049" lon="152.982539">
				<ele>64.136</ele>
				<time>2015-07-04T02:16:38Z</time>
				<extensions>
				</extensions>
			</trkpt>
			<trkpt lat="-28.578262" lon="152.982501">
				<ele>65.095</ele>
				<time>2015-07-04T02:16:39Z</time>
				<extensions>
				</extensions>
			</trkpt>
			<trkpt lat="-28.578468" lon="152.982462">
				<ele>64.068</ele>
				<time>2015-07-04T02:16:40Z</time>
				<extensions>
				</extensions>
			</trkpt>
			<trkpt lat="-28.578677" lon="152.982420">
				<ele>63.760</ele>
				<time>2015-07-04T02:16:41Z</time>
				<extensions>
				</extensions>
			</trkpt>
			<trkpt lat="-28.578885" lon="152.982384">
				<ele>63.244</ele>
				<time>2015-07-04T02:16:42Z</time>
				<extensions>
				</extensions>
			</trkpt>
			<trkpt lat="-28.579091" lon="152.982343">
				<ele>62.297</ele>
				<time>2015-07-04T02:16:43Z</time>
				<extensions>
				</extensions>
			</trkpt>
			<trkpt lat="-28.579298" lon="152.982306">
				<ele>63.149</ele>
				<time>2015-07-04T02:16:44Z</time>
				<extensions>
				</extensions>
			</trkpt>
			<trkpt lat="-28.579509" lon="152.982265">
				<ele>62.830</ele>
				<time>2015-07-04T02:16:45Z</time>
				<extensions>
				</extensions>
			</trkpt>
			<trkpt lat="-28.579741" lon="152.982219">
				<ele>63.673</ele>
				<time>2015-07-04T02:16:46Z</time>
				<extensions>
				</extensions>
			</trkpt>
			<trkpt lat="-28.579975" lon="152.982173">
				<ele>64.962</ele>
				<time>2015-07-04T02:16:47Z</time>
				<extensions>
				</extensions>
			</trkpt>
			<trkpt lat="-28.580201" lon="152.982131">
				<ele>64.226</ele>
				<time>2015-07-04T02:16:48Z</time>
				<extensions>
				</extensions>
			</trkpt>
			<trkpt lat="-28.580423" lon="152.982090">
				<ele>62.981</ele>
				<time>2015-07-04T02:16:49Z</time>
				<extensions>
				</extensions>
			</trkpt>
			<trkpt lat="-28.580647" lon="152.982052">
				<ele>63.360</ele>
				<time>2015-07-04T02:16:50Z</time>
				<extensions>
				</extensions>
			</trkpt>
			<trkpt lat="-28.580866" lon="152.982015">
				<ele>61.842</ele>
				<time>2015-07-04T02:16:51Z</time>
				<extensions>
				</extensions>
			</trkpt>
			<trkpt lat="-28.581081" lon="152.981983">
				<ele>62.084</ele>
				<time>2015-07-04T02:16:52Z</time>
				<extensions>
				</extensions>
			</trkpt>
			<trkpt lat="-28.581301" lon="152.981956">
				<ele>62.439</ele>
				<time>2015-07-04T02:16:53Z</time>
				<extensions>
				</extensions>
			</trkpt>
			<trkpt lat="-28.581529" lon="152.981939">
				<ele>63.619</ele>
				<time>2015-07-04T02:16:54Z</time>
				<extensions>
				</extensions>
			</trkpt>
			<trkpt lat="-28.581772" lon="152.981933">
				<ele>65.775</ele>
				<time>2015-07-04T02:16:55Z</time>
				<extensions>
				</extensions>
			</trkpt>
			<trkpt lat="-28.582019" lon="152.981941">
				<ele>65.393</ele>
				<time>2015-07-04T02:16:56Z</time>
				<extensions>
				</extensions>
			</trkpt>
			<trkpt lat="-28.582265" lon="152.981959">
				<ele>65.105</ele>
				<time>2015-07-04T02:16:57Z</time>
				<extensions>
				</extensions>
			</trkpt>
			<trkpt lat="-28.582512" lon="152.981972">
				<ele>64.616</ele>
				<time>2015-07-04T02:16:58Z</time>
				<extensions>
				</extensions>
			</trkpt>
			<trkpt lat="-28.582761" lon="152.982028">
				<ele>65.099</ele>
				<time>2015-07-04T02:16:59Z</time>
				<extensions>
				</extensions>
			</trkpt>
			<trkpt lat="-28.583008" lon="152.982087">
				<ele>66.539</ele>
				<time>2015-07-04T02:17:00Z</time>
				<extensions>
				</extensions>
			</trkpt>
			<trkpt lat="-28.583260" lon="152.982154">
				<ele>66.464</ele>
				<time>2015-07-04T02:17:01Z</time>
				<extensions>
				</extensions>
			</trkpt>
			<trkpt lat="-28.583511" lon="152.982231">
				<ele>66.674</ele>
				<time>2015-07-04T02:17:02Z</time>
				<extensions>
				</extensions>
			</trkpt>
			<trkpt lat="-28.583765" lon="152.982309">
				<ele>68.011</ele>
				<time>2015-07-04T02:17:03Z</time>
				<extensions>
				</extensions>
			</trkpt>
			<trkpt lat="-28.584023" lon="152.982384">
				<ele>67.750</ele>
				<time>2015-07-04T02:17:04Z</time>
				<extensions>
				</extensions>
			</trkpt>
			<trkpt lat="-28.584279" lon="152.982457">
				<ele>67.700</ele>
				<time>2015-07-04T02:17:05Z</time>
				<extensions>
				</extensions>
			</trkpt>
			<trkpt lat="-28.584541" lon="152.982534">
				<ele>69.873</ele>
				<time>2015-07-04T02:17:06Z</time>
				<extensions>
				</extensions>
			</trkpt>
			<trkpt lat="-28.584794" lon="152.982611">
				<ele>68.751</ele>
				<time>2015-07-04T02:17:07Z</time>
				<extensions>
				</extensions>
			</trkpt>
			<trkpt lat="-28.585031" lon="152.982687">
				<ele>68.751</ele>
				<time>2015-07-04T02:17:08Z</time>
				<extensions>
				</extensions>
			</trkpt>
			<trkpt lat="-28.585256" lon="152.982764">
				<ele>67.672</ele>
				<time>2015-07-04T02:17:09Z</time>
				<extensions>
				</extensions>
			</trkpt>
			<trkpt lat="-28.585487" lon="152.982849">
				<ele>67.910</ele>
				<time>2015-07-04T02:17:10Z</time>
				<extensions>
				</extensions>
			</trkpt>
			<trkpt lat="-28.585726" lon="152.982937">
				<ele>69.003</ele>
				<time>2015-07-04T02:17:11Z</time>
				<extensions>
				</extensions>
			</trkpt>
			<trkpt lat="-28.585960" lon="152.983029">
				<ele>69.689</ele>
				<time>2015-07-04T02:17:12Z</time>
				<extensions>
				</extensions>
			</trkpt>
			<trkpt lat="-28.586190" lon="152.983119">
				<ele>68.237</ele>
				<time>2015-07-04T02:17:13Z</time>
				<extensions>
				</extensions>
			</trkpt>
			<trkpt lat="-28.586417" lon="152.983214">
				<ele>66.295</ele>
				<time>2015-07-04T02:17:14Z</time>
				<extensions>
				</extensions>
			</trkpt>
			<trkpt lat="-28.586649" lon="152.983309">
				<ele>65.200</ele>
				<time>2015-07-04T02:17:15Z</time>
				<extensions>
				</extensions>
			</trkpt>
			<trkpt lat="-28.586889" lon="152.983412">
				<ele>64.386</ele>
				<time>2015-07-04T02:17:16Z</time>
				<extensions>
				</extensions>
			</trkpt>
			<trkpt lat="-28.587137" lon="152.983512">
				<ele>65.408</ele>
				<time>2015-07-04T02:17:17Z</time>
				<extensions>
				</extensions>
			</trkpt>
			<trkpt lat="-28.587389" lon="152.983611">
				<ele>65.414</ele>
				<time>2015-07-04T02:17:18Z</time>
				<extensions>
				</extensions>
			</trkpt>
			<trkpt lat="-28.587643" lon="152.983708">
				<ele>65.862</ele>
				<time>2015-07-04T02:17:19Z</time>
				<extensions>
				</extensions>
			</trkpt>
			<trkpt lat="-28.587896" lon="152.983805">
				<ele>67.205</ele>
				<time>2015-07-04T02:17:20Z</time>
				<extensions>
				</extensions>
			</trkpt>
			<trkpt lat="-28.588145" lon="152.983900">
				<ele>65.377</ele>
				<time>2015-07-04T02:17:21Z</time>
				<extensions>
				</extensions>
			</trkpt>
			<trkpt lat="-28.588395" lon="152.983998">
				<ele>65.860</ele>
				<time>2015-07-04T02:17:22Z</time>
				<extensions>
				</extensions>
			</trkpt>
			<trkpt lat="-28.588650" lon="152.984092">
				<ele>65.522</ele>
				<time>2015-07-04T02:17:23Z</time>
				<extensions>
				</extensions>
			</trkpt>
			<trkpt lat="-28.588898" lon="152.984184">
				<ele>65.126</ele>
				<time>2015-07-04T02:17:24Z</time>
				<extensions>
				</extensions>
			</trkpt>
			<trkpt lat="-28.589137" lon="152.984272">
				<ele>63.265</ele>
				<time>2015-07-04T02:17:25Z</time>
				<extensions>
				</extensions>
			</trkpt>
			<trkpt lat="-28.589374" lon="152.984360">
				<ele>61.969</ele>
				<time>2015-07-04T02:17:26Z</time>
				<extensions>
				</extensions>
			</trkpt>
			<trkpt lat="-28.589610" lon="152.984445">
				<ele>62.572</ele>
				<time>2015-07-04T02:17:27Z</time>
				<extensions>
				</extensions>
			</trkpt>
			<trkpt lat="-28.589843" lon="152.984530">
				<ele>61.880</ele>
				<time>2015-07-04T02:17:28Z</time>
				<extensions>
				</extensions>
			</trkpt>
			<trkpt lat="-28.590075" lon="152.984614">
				<ele>61.212</ele>
				<time>2015-07-04T02:17:29Z</time>
				<extensions>
				</extensions>
			</trkpt>
			<trkpt lat="-28.590306" lon="152.984697">
				<ele>60.574</ele>
				<time>2015-07-04T02:17:30Z</time>
				<extensions>
				</extensions>
			</trkpt>
			<trkpt lat="-28.590533" lon="152.984779">
				<ele>60.050</ele>
				<time>2015-07-04T02:17:31Z</time>
				<extensions>
				</extensions>
			</trkpt>
			<trkpt lat="-28.590767" lon="152.984860">
				<ele>59.266</ele>
				<time>2015-07-04T02:17:32Z</time>
				<extensions>
				</extensions>
			</trkpt>
			<trkpt lat="-28.590997" lon="152.984944">
				<ele>59.694</ele>
				<time>2015-07-04T02:17:33Z</time>
				<extensions>
				</extensions>
			</trkpt>
			<trkpt lat="-28.591225" lon="152.985030">
				<ele>59.060</ele>
				<time>2015-07-04T02:17:34Z</time>
				<extensions>
				</extensions>
			</trkpt>
			<trkpt lat="-28.591445" lon="152.985114">
				<ele>59.249</ele>
				<time>2015-07-04T02:17:35Z</time>
				<extensions>
				</extensions>
			</trkpt>
			<trkpt lat="-28.591673" lon="152.985195">
				<ele>58.455</ele>
				<time>2015-07-04T02:17:36Z</time>
				<extensions>
				</extensions>
			</trkpt>
			<trkpt lat="-28.591898" lon="152.985280">
				<ele>59.041</ele>
				<time>2015-07-04T02:17:37Z</time>
				<extensions>
				</extensions>
			</trkpt>
			<trkpt lat="-28.592124" lon="152.985364">
				<ele>60.428</ele>
				<time>2015-07-04T02:17:38Z</time>
				<extensions>
				</extensions>
			</trkpt>
			<trkpt lat="-28.592349" lon="152.985439">
				<ele>60.759</ele>
				<time>2015-07-04T02:17:39Z</time>
				<extensions>
				</extensions>
			</trkpt>
			<trkpt lat="-28.592572" lon="152.985516">
				<ele>60.153</ele>
				<time>2015-07-04T02:17:40Z</time>
				<extensions>
				</extensions>
			</trkpt>
			<trkpt lat="-28.592796" lon="152.985590">
				<ele>60.163</ele>
				<time>2015-07-04T02:17:41Z</time>
				<extensions>
				</extensions>
			</trkpt>
			<trkpt lat="-28.593022" lon="152.985662">
				<ele>60.205</ele>
				<time>2015-07-04T02:17:42Z</time>
				<extensions>
				</extensions>
			</trkpt>
			<trkpt lat="-28.593250" lon="152.985735">
				<ele>60.582</ele>
				<time>2015-07-04T02:17:43Z</time>
				<extensions>
				</extensions>
			</trkpt>
			<trkpt lat="-28.593478" lon="152.985804">
				<ele>61.445</ele>
				<time>2015-07-04T02:17:44Z</time>
				<extensions>
				</extensions>
			</trkpt>
			<trkpt lat="-28.593703" lon="152.985872">
				<ele>60.927</ele>
				<time>2015-07-04T02:17:45Z</time>
				<extensions>
				</extensions>
			</trkpt>
			<trkpt lat="-28.593935" lon="152.985944">
				<ele>61.759</ele>
				<time>2015-07-04T02:17:46Z</time>
				<extensions>
				</extensions>
			</trkpt>
			<trkpt lat="-28.594171" lon="152.986016">
				<ele>60.417</ele>
				<time>2015-07-04T02:17:47Z</time>
				<extensions>
				</extensions>
			</trkpt>
			<trkpt lat="-28.594411" lon="152.986084">
				<ele>60.043</ele>
				<time>2015-07-04T02:17:48Z</time>
				<extensions>
				</extensions>
			</trkpt>
			<trkpt lat="-28.594642" lon="152.986157">
				<ele>61.236</ele>
				<time>2015-07-04T02:17:49Z</time>
				<extensions>
				</extensions>
			</trkpt>
			<trkpt lat="-28.594876" lon="152.986225">
				<ele>61.566</ele>
				<time>2015-07-04T02:17:50Z</time>
				<extensions>
				</extensions>
			</trkpt>
			<trkpt lat="-28.595107" lon="152.986292">
				<ele>59.815</ele>
				<time>2015-07-04T02:17:51Z</time>
				<extensions>
				</extensions>
			</trkpt>
			<trkpt lat="-28.595328" lon="152.986361">
				<ele>58.994</ele>
				<time>2015-07-04T02:17:52Z</time>
				<extensions>
				</extensions>
			</trkpt>
			<trkpt lat="-28.595543" lon="152.986432">
				<ele>58.796</ele>
				<time>2015-07-04T02:17:53Z</time>
				<extensions>
				</extensions>
			</trkpt>
			<trkpt lat="-28.595753" lon="152.986517">
				<ele>58.595</ele>
				<time>2015-07-04T02:17:54Z</time>
				<extensions>
				</extensions>
			</trkpt>
			<trkpt lat="-28.595961" lon="152.986610">
				<ele>56.761</ele>
				<time>2015-07-04T02:17:55Z</time>
				<extensions>
				</extensions>
			</trkpt>
			<trkpt lat="-28.596170" lon="152.986710">
				<ele>57.674</ele>
				<time>2015-07-04T02:17:56Z</time>
				<extensions>
				</extensions>
			</trkpt>
			<trkpt lat="-28.596381" lon="152.986810">
				<ele>58.166</ele>
				<time>2015-07-04T02:17:57Z</time>
				<extensions>
				</extensions>
			</trkpt>
			<trkpt lat="-28.596596" lon="152.986914">
				<ele>60.260</ele>
				<time>2015-07-04T02:17:58Z</time>
				<extensions>
				</extensions>
			</trkpt>
			<trkpt lat="-28.596820" lon="152.987027">
				<ele>60.694</ele>
				<time>2015-07-04T02:17:59Z</time>
				<extensions>
				</extensions>
			</trkpt>
			<trkpt lat="-28.597050" lon="152.987139">
				<ele>62.328</ele>
				<time>2015-07-04T02:18:00Z</time>
				<extensions>
				</extensions>
			</trkpt>
			<trkpt lat="-28.597282" lon="152.987253">
				<ele>61.199</ele>
				<time>2015-07-04T02:18:01Z</time>
				<extensions>
				</extensions>
			</trkpt>
			<trkpt lat="-28.597510" lon="152.987366">
				<ele>59.362</ele>
				<time>2015-07-04T02:18:02Z</time>
				<extensions>
				</extensions>
			</trkpt>
			<trkpt lat="-28.597736" lon="152.987476">
				<ele>58.882</ele>
				<time>2015-07-04T02:18:03Z</time>
				<extensions>
				</extensions>
			</trkpt>
			<trkpt lat="-28.597955" lon="152.987581">
				<ele>57.601</ele>
				<time>2015-07-04T02:18:04Z</time>
				<extensions>
				</extensions>
			</trkpt>
			<trkpt lat="-28.598177" lon="152.987690">
				<ele>58.237</ele>
				<time>2015-07-04T02:18:05Z</time>
				<extensions>
				</extensions>
			</trkpt>
			<trkpt lat="-28.598394" lon="152.987794">
				<ele>57.951</ele>
				<time>2015-07-04T02:18:06Z</time>
				<extensions>
				</extensions>
			</trkpt>
			<trkpt lat="-28.598608" lon="152.987898">
				<ele>58.212</ele>
				<time>2015-07-04T02:18:07Z</time>
				<extensions>
				</extensions>
			</trkpt>
			<trkpt lat="-28.598821" lon="152.987997">
				<ele>58.212</ele>
				<time>2015-07-04T02:18:08Z</time>
				<extensions>
				</extensions>
			</trkpt>
			<trkpt lat="-28.599034" lon="152.988094">
				<ele>58.576</ele>
				<time>2015-07-04T02:18:09Z</time>
				<extensions>
				</extensions>
			</trkpt>
			<trkpt lat="-28.599246" lon="152.988182">
				<ele>56.912</ele>
				<time>2015-07-04T02:18:10Z</time>
				<extensions>
				</extensions>
			</trkpt>
			<trkpt lat="-28.599460" lon="152.988269">
				<ele>57.283</ele>
				<time>2015-07-04T02:18:11Z</time>
				<extensions>
				</extensions>
			</trkpt>
			<trkpt lat="-28.599674" lon="152.988354">
				<ele>56.728</ele>
				<time>2015-07-04T02:18:12Z</time>
				<extensions>
				</extensions>
			</trkpt>
			<trkpt lat="-28.599887" lon="152.988436">
				<ele>55.964</ele>
				<time>2015-07-04T02:18:13Z</time>
				<extensions>
				</extensions>
			</trkpt>
			<trkpt lat="-28.600110" lon="152.988522">
				<ele>54.935</ele>
				<time>2015-07-04T02:18:14Z</time>
				<extensions>
				</extensions>
			</trkpt>
			<trkpt lat="-28.600337" lon="152.988611">
				<ele>55.290</ele>
				<time>2015-07-04T02:18:15Z</time>
				<extensions>
				</extensions>
			</trkpt>
			<trkpt lat="-28.600574" lon="152.988701">
				<ele>56.312</ele>
				<time>2015-07-04T02:18:16Z</time>
				<extensions>
				</extensions>
			</trkpt>
			<trkpt lat="-28.600809" lon="152.988793">
				<ele>58.211</ele>
				<time>2015-07-04T02:18:17Z</time>
				<extensions>
				</extensions>
			</trkpt>
			<trkpt lat="-28.601041" lon="152.988883">
				<ele>58.980</ele>
				<time>2015-07-04T02:18:18Z</time>
				<extensions>
				</extensions>
			</trkpt>
			<trkpt lat="-28.601274" lon="152.988975">
				<ele>59.457</ele>
				<time>2015-07-04T02:18:19Z</time>
				<extensions>
				</extensions>
			</trkpt>
			<trkpt lat="-28.601500" lon="152.989065">
				<ele>59.663</ele>
				<time>2015-07-04T02:18:20Z</time>
				<extensions>
				</extensions>
			</trkpt>
			<trkpt lat="-28.601723" lon="152.989153">
				<ele>59.622</ele>
				<time>2015-07-04T02:18:21Z</time>
				<extensions>
				</extensions>
			</trkpt>
			<trkpt lat="-28.601947" lon="152.989237">
				<ele>58.513</ele>
				<time>2015-07-04T02:18:22Z</time>
				<extensions>
				</extensions>
			</trkpt>
			<trkpt lat="-28.602163" lon="152.989323">
				<ele>57.503</ele>
				<time>2015-07-04T02:18:23Z</time>
				<extensions>
				</extensions>
			</trkpt>
			<trkpt lat="-28.602383" lon="152.989409">
				<ele>57.295</ele>
				<time>2015-07-04T02:18:24Z</time>
				<extensions>
				</extensions>
			</trkpt>
			<trkpt lat="-28.602609" lon="152.989498">
				<ele>57.838</ele>
				<time>2015-07-04T02:18:25Z</time>
				<extensions>
				</extensions>
			</trkpt>
			<trkpt lat="-28.602844" lon="152.989588">
				<ele>58.032</ele>
				<time>2015-07-04T02:18:26Z</time>
				<extensions>
				</extensions>
			</trkpt>
			<trkpt lat="-28.603082" lon="152.989678">
				<ele>59.127</ele>
				<time>2015-07-04T02:18:27Z</time>
				<extensions>
				</extensions>
			</trkpt>
			<trkpt lat="-28.603318" lon="152.989771">
				<ele>58.664</ele>
				<time>2015-07-04T02:18:28Z</time>
				<extensions>
				</extensions>
			</trkpt>
			<trkpt lat="-28.603553" lon="152.989860">
				<ele>57.631</ele>
				<time>2015-07-04T02:18:29Z</time>
				<extensions>
				</extensions>
			</trkpt>
			<trkpt lat="-28.603786" lon="152.989950">
				<ele>57.688</ele>
				<time>2015-07-04T02:18:30Z</time>
				<extensions>
				</extensions>
			</trkpt>
			<trkpt lat="-28.604023" lon="152.990037">
				<ele>59.105</ele>
				<time>2015-07-04T02:18:31Z</time>
				<extensions>
				</extensions>
			</trkpt>
			<trkpt lat="-28.604265" lon="152.990121">
				<ele>59.407</ele>
				<time>2015-07-04T02:18:32Z</time>
				<extensions>
				</extensions>
			</trkpt>
			<trkpt lat="-28.604506" lon="152.990206">
				<ele>59.614</ele>
				<time>2015-07-04T02:18:33Z</time>
				<extensions>
				</extensions>
			</trkpt>
			<trkpt lat="-28.604736" lon="152.990287">
				<ele>58.137</ele>
				<time>2015-07-04T02:18:34Z</time>
				<extensions>
				</extensions>
			</trkpt>
			<trkpt lat="-28.604958" lon="152.990365">
				<ele>57.249</ele>
				<time>2015-07-04T02:18:35Z</time>
				<extensions>
				</extensions>
			</trkpt>
			<trkpt lat="-28.605169" lon="152.990438">
				<ele>55.846</ele>
				<time>2015-07-04T02:18:36Z</time>
				<extensions>
				</extensions>
			</trkpt>
			<trkpt lat="-28.605370" lon="152.990511">
				<ele>54.165</ele>
				<time>2015-07-04T02:18:37Z</time>
				<extensions>
				</extensions>
			</trkpt>
			<trkpt lat="-28.605573" lon="152.990582">
				<ele>54.249</ele>
				<time>2015-07-04T02:18:38Z</time>
				<extensions>
				</extensions>
			</trkpt>
			<trkpt lat="-28.605776" lon="152.990648">
				<ele>54.069</ele>
				<time>2015-07-04T02:18:39Z</time>
				<extensions>
				</extensions>
			</trkpt>
			<trkpt lat="-28.605972" lon="152.990714">
				<ele>54.284</ele>
				<time>2015-07-04T02:18:40Z</time>
				<extensions>
				</extensions>
			</trkpt>
			<trkpt lat="-28.606167" lon="152.990780">
				<ele>52.976</ele>
				<time>2015-07-04T02:18:41Z</time>
				<extensions>
				</extensions>
			</trkpt>
			<trkpt lat="-28.606364" lon="152.990845">
				<ele>54.074</ele>
				<time>2015-07-04T02:18:42Z</time>
				<extensions>
				</extensions>
			</trkpt>
			<trkpt lat="-28.606560" lon="152.990904">
				<ele>54.318</ele>
				<time>2015-07-04T02:18:43Z</time>
				<extensions>
				</extensions>
			</trkpt>
			<trkpt lat="-28.606755" lon="152.990968">
				<ele>53.835</ele>
				<time>2015-07-04T02:18:44Z</time>
				<extensions>
				</extensions>
			</trkpt>
			<trkpt lat="-28.606946" lon="152.991056">
				<ele>54.233</ele>
				<time>2015-07-04T02:18:45Z</time>
				<extensions>
				</extensions>
			</trkpt>
			<trkpt lat="-28.607130" lon="152.991152">
				<ele>54.784</ele>
				<time>2015-07-04T02:18:46Z</time>
				<extensions>
				</extensions>
			</trkpt>
			<trkpt lat="-28.607317" lon="152.991269">
				<ele>56.191</ele>
				<time>2015-07-04T02:18:47Z</time>
				<extensions>
				</extensions>
			</trkpt>
			<trkpt lat="-28.607502" lon="152.991410">
				<ele>57.114</ele>
				<time>2015-07-04T02:18:48Z</time>
				<extensions>
				</extensions>
			</trkpt>
			<trkpt lat="-28.607688" lon="152.991573">
				<ele>58.256</ele>
				<time>2015-07-04T02:18:49Z</time>
				<extensions>
				</extensions>
			</trkpt>
			<trkpt lat="-28.607881" lon="152.991741">
				<ele>59.953</ele>
				<time>2015-07-04T02:18:50Z</time>
				<extensions>
				</extensions>
			</trkpt>
			<trkpt lat="-28.608080" lon="152.991915">
				<ele>61.566</ele>
				<time>2015-07-04T02:18:51Z</time>
				<extensions>
				</extensions>
			</trkpt>
			<trkpt lat="-28.608276" lon="152.992085">
				<ele>61.939</ele>
				<time>2015-07-04T02:18:52Z</time>
				<extensions>
				</extensions>
			</trkpt>
			<trkpt lat="-28.608466" lon="152.992248">
				<ele>59.661</ele>
				<time>2015-07-04T02:18:53Z</time>
				<extensions>
				</extensions>
			</trkpt>
			<trkpt lat="-28.608647" lon="152.992408">
				<ele>57.562</ele>
				<time>2015-07-04T02:18:54Z</time>
				<extensions>
				</extensions>
			</trkpt>
			<trkpt lat="-28.608826" lon="152.992563">
				<ele>57.339</ele>
				<time>2015-07-04T02:18:55Z</time>
				<extensions>
				</extensions>
			</trkpt>
			<trkpt lat="-28.609004" lon="152.992719">
				<ele>56.963</ele>
				<time>2015-07-04T02:18:56Z</time>
				<extensions>
				</extensions>
			</trkpt>
			<trkpt lat="-28.609181" lon="152.992875">
				<ele>57.050</ele>
				<time>2015-07-04T02:18:57Z</time>
				<extensions>
				</extensions>
			</trkpt>
			<trkpt lat="-28.609359" lon="152.993026">
				<ele>56.610</ele>
				<time>2015-07-04T02:18:58Z</time>
				<extensions>
				</extensions>
			</trkpt>
			<trkpt lat="-28.609521" lon="152.993170">
				<ele>54.577</ele>
				<time>2015-07-04T02:18:59Z</time>
				<extensions>
				</extensions>
			</trkpt>
			<trkpt lat="-28.609682" lon="152.993312">
				<ele>53.603</ele>
				<time>2015-07-04T02:19:00Z</time>
				<extensions>
				</extensions>
			</trkpt>
			<trkpt lat="-28.609847" lon="152.993457">
				<ele>53.407</ele>
				<time>2015-07-04T02:19:01Z</time>
				<extensions>
				</extensions>
			</trkpt>
			<trkpt lat="-28.610008" lon="152.993598">
				<ele>52.294</ele>
				<time>2015-07-04T02:19:02Z</time>
				<extensions>
				</extensions>
			</trkpt>
			<trkpt lat="-28.610162" lon="152.993733">
				<ele>51.565</ele>
				<time>2015-07-04T02:19:03Z</time>
				<extensions>
				</extensions>
			</trkpt>
			<trkpt lat="-28.610322" lon="152.993873">
				<ele>51.920</ele>
				<time>2015-07-04T02:19:04Z</time>
				<extensions>
				</extensions>
			</trkpt>
			<trkpt lat="-28.610472" lon="152.994005">
				<ele>53.027</ele>
				<time>2015-07-04T02:19:05Z</time>
				<extensions>
				</extensions>
			</trkpt>
			<trkpt lat="-28.610618" lon="152.994146">
				<ele>54.195</ele>
				<time>2015-07-04T02:19:06Z</time>
				<extensions>
				</extensions>
			</trkpt>
			<trkpt lat="-28.610756" lon="152.994300">
				<ele>54.300</ele>
				<time>2015-07-04T02:19:07Z</time>
				<extensions>
				</extensions>
			</trkpt>
			<trkpt lat="-28.610887" lon="152.994454">
				<ele>53.044</ele>
				<time>2015-07-04T02:19:08Z</time>
				<extensions>
				</extensions>
			</trkpt>
			<trkpt lat="-28.611012" lon="152.994611">
				<ele>53.044</ele>
				<time>2015-07-04T02:19:09Z</time>
				<extensions>
				</extensions>
			</trkpt>
			<trkpt lat="-28.611137" lon="152.994773">
				<ele>51.957</ele>
				<time>2015-07-04T02:19:10Z</time>
				<extensions>
				</extensions>
			</trkpt>
			<trkpt lat="-28.611264" lon="152.994933">
				<ele>52.434</ele>
				<time>2015-07-04T02:19:11Z</time>
				<extensions>
				</extensions>
			</trkpt>
			<trkpt lat="-28.611386" lon="152.995087">
				<ele>52.408</ele>
				<time>2015-07-04T02:19:12Z</time>
				<extensions>
				</extensions>
			</trkpt>
			<trkpt lat="-28.611504" lon="152.995248">
				<ele>53.461</ele>
				<time>2015-07-04T02:19:13Z</time>
				<extensions>
				</extensions>
			</trkpt>
			<trkpt lat="-28.611737" lon="152.995545">
				<ele>52.750</ele>
				<time>2015-07-04T02:19:15Z</time>
				<extensions>
				</extensions>
			</trkpt>
			<trkpt lat="-28.611934" lon="152.995806">
				<ele>51.981</ele>
				<time>2015-07-04T02:19:17Z</time>
				<extensions>
				</extensions>
			</trkpt>
			<trkpt lat="-28.612106" lon="152.996030">
				<ele>48.448</ele>
				<time>2015-07-04T02:19:19Z</time>
				<extensions>
				</extensions>
			</trkpt>
			<trkpt lat="-28.612264" lon="152.996238">
				<ele>48.475</ele>
				<time>2015-07-04T02:19:21Z</time>
				<extensions>
				</extensions>
			</trkpt>
			<trkpt lat="-28.612433" lon="152.996460">
				<ele>48.968</ele>
				<time>2015-07-04T02:19:23Z</time>
				<extensions>
				</extensions>
			</trkpt>
			<trkpt lat="-28.612616" lon="152.996703">
				<ele>50.841</ele>
				<time>2015-07-04T02:19:25Z</time>
				<extensions>
				</extensions>
			</trkpt>
			<trkpt lat="-28.612814" lon="152.996960">
				<ele>51.784</ele>
				<time>2015-07-04T02:19:27Z</time>
				<extensions>
				</extensions>
			</trkpt>
			<trkpt lat="-28.613022" lon="152.997224">
				<ele>52.755</ele>
				<time>2015-07-04T02:19:29Z</time>
				<extensions>
				</extensions>
			</trkpt>
			<trkpt lat="-28.613230" lon="152.997492">
				<ele>53.305</ele>
				<time>2015-07-04T02:19:31Z</time>
				<extensions>
				</extensions>
			</trkpt>
			<trkpt lat="-28.613423" lon="152.997741">
				<ele>52.370</ele>
				<time>2015-07-04T02:19:33Z</time>
				<extensions>
				</extensions>
			</trkpt>
			<trkpt lat="-28.613618" lon="152.997993">
				<ele>53.188</ele>
				<time>2015-07-04T02:19:35Z</time>
				<extensions>
				</extensions>
			</trkpt>
			<trkpt lat="-28.613823" lon="152.998256">
				<ele>54.328</ele>
				<time>2015-07-04T02:19:37Z</time>
				<extensions>
				</extensions>
			</trkpt>
			<trkpt lat="-28.614023" lon="152.998519">
				<ele>52.852</ele>
				<time>2015-07-04T02:19:39Z</time>
				<extensions>
				</extensions>
			</trkpt>
			<trkpt lat="-28.614222" lon="152.998773">
				<ele>51.583</ele>
				<time>2015-07-04T02:19:41Z</time>
				<extensions>
				</extensions>
			</trkpt>
			<trkpt lat="-28.614422" lon="152.999023">
				<ele>52.203</ele>
				<time>2015-07-04T02:19:43Z</time>
				<extensions>
				</extensions>
			</trkpt>
			<trkpt lat="-28.614625" lon="152.999267">
				<ele>52.267</ele>
				<time>2015-07-04T02:19:45Z</time>
				<extensions>
				</extensions>
			</trkpt>
			<trkpt lat="-28.614826" lon="152.999483">
				<ele>50.341</ele>
				<time>2015-07-04T02:19:47Z</time>
				<extensions>
				</extensions>
			</trkpt>
			<trkpt lat="-28.615031" lon="152.999666">
				<ele>49.952</ele>
				<time>2015-07-04T02:19:49Z</time>
				<extensions>
				</extensions>
			</trkpt>
			<trkpt lat="-28.615230" lon="152.999824">
				<ele>50.113</ele>
				<time>2015-07-04T02:19:51Z</time>
				<extensions>
				</extensions>
			</trkpt>
			<trkpt lat="-28.615412" lon="152.999955">
				<ele>49.287</ele>
				<time>2015-07-04T02:19:53Z</time>
				<extensions>
				</extensions>
			</trkpt>
			<trkpt lat="-28.615583" lon="153.000074">
				<ele>48.835</ele>
				<time>2015-07-04T02:19:55Z</time>
				<extensions>
				</extensions>
			</trkpt>
			<trkpt lat="-28.615745" lon="153.000214">
				<ele>48.554</ele>
				<time>2015-07-04T02:19:57Z</time>
				<extensions>
				</extensions>
			</trkpt>
			<trkpt lat="-28.615845" lon="153.000416">
				<ele>48.705</ele>
				<time>2015-07-04T02:19:59Z</time>
				<extensions>
				</extensions>
			</trkpt>
			<trkpt lat="-28.615875" lon="153.000669">
				<ele>49.870</ele>
				<time>2015-07-04T02:20:01Z</time>
				<extensions>
				</extensions>
			</trkpt>
			<trkpt lat="-28.615932" lon="153.000974">
				<ele>50.765</ele>
				<time>2015-07-04T02:20:03Z</time>
				<extensions>
				</extensions>
			</trkpt>
			<trkpt lat="-28.616018" lon="153.001273">
				<ele>51.702</ele>
				<time>2015-07-04T02:20:05Z</time>
				<extensions>
				</extensions>
			</trkpt>
			<trkpt lat="-28.616107" lon="153.001560">
				<ele>52.507</ele>
				<time>2015-07-04T02:20:07Z</time>
				<extensions>
				</extensions>
			</trkpt>
			<trkpt lat="-28.616186" lon="153.001847">
				<ele>51.962</ele>
				<time>2015-07-04T02:20:09Z</time>
				<extensions>
				</extensions>
			</trkpt>
			<trkpt lat="-28.616298" lon="153.002100">
				<ele>52.433</ele>
				<time>2015-07-04T02:20:11Z</time>
				<extensions>
				</extensions>
			</trkpt>
			<trkpt lat="-28.616463" lon="153.002304">
				<ele>52.187</ele>
				<time>2015-07-04T02:20:13Z</time>
				<extensions>
				</extensions>
			</trkpt>
			<trkpt lat="-28.616684" lon="153.002479">
				<ele>51.377</ele>
				<time>2015-07-04T02:20:15Z</time>
				<extensions>
				</extensions>
			</trkpt>
			<trkpt lat="-28.616883" lon="153.002639">
				<ele>50.092</ele>
				<time>2015-07-04T02:20:17Z</time>
				<extensions>
				</extensions>
			</trkpt>
			<trkpt lat="-28.617078" lon="153.002789">
				<ele>50.132</ele>
				<time>2015-07-04T02:20:19Z</time>
				<extensions>
				</extensions>
			</trkpt>
			<trkpt lat="-28.617268" lon="153.002939">
				<ele>49.668</ele>
				<time>2015-07-04T02:20:21Z</time>
				<extensions>
				</extensions>
			</trkpt>
			<trkpt lat="-28.617441" lon="153.003073">
				<ele>49.891</ele>
				<time>2015-07-04T02:20:23Z</time>
				<extensions>
				</extensions>
			</trkpt>
			<trkpt lat="-28.617611" lon="153.003202">
				<ele>49.922</ele>
				<time>2015-07-04T02:20:25Z</time>
				<extensions>
				</extensions>
			</trkpt>
			<trkpt lat="-28.617794" lon="153.003337">
				<ele>51.568</ele>
				<time>2015-07-04T02:20:27Z</time>
				<extensions>
				</extensions>
			</trkpt>
			<trkpt lat="-28.617971" lon="153.003479">
				<ele>51.054</ele>
				<time>2015-07-04T02:20:29Z</time>
				<extensions>
				</extensions>
			</trkpt>
			<trkpt lat="-28.618131" lon="153.003608">
				<ele>50.536</ele>
				<time>2015-07-04T02:20:31Z</time>
				<extensions>
				</extensions>
			</trkpt>
			<trkpt lat="-28.618292" lon="153.003752">
				<ele>49.785</ele>
				<time>2015-07-04T02:20:34Z</time>
				<extensions>
				</extensions>
			</trkpt>
			<trkpt lat="-28.618271" lon="153.003959">
				<ele>49.896</ele>
				<time>2015-07-04T02:20:38Z</time>
				<extensions>
				</extensions>
			</trkpt>
			<trkpt lat="-28.618044" lon="153.004054">
				<ele>51.651</ele>
				<time>2015-07-04T02:20:41Z</time>
				<extensions>
				</extensions>
			</trkpt>
			<trkpt lat="-28.617849" lon="153.004130">
				<ele>53.600</ele>
				<time>2015-07-04T02:20:43Z</time>
				<extensions>
				</extensions>
			</trkpt>
			<trkpt lat="-28.617618" lon="153.004194">
				<ele>55.058</ele>
				<time>2015-07-04T02:20:45Z</time>
				<extensions>
				</extensions>
			</trkpt>
			<trkpt lat="-28.617410" lon="153.004249">
				<ele>55.034</ele>
				<time>2015-07-04T02:20:47Z</time>
				<extensions>
				</extensions>
			</trkpt>
			<trkpt lat="-28.617216" lon="153.004298">
				<ele>55.453</ele>
				<time>2015-07-04T02:20:49Z</time>
				<extensions>
				</extensions>
			</trkpt>
			<trkpt lat="-28.617013" lon="153.004372">
				<ele>55.280</ele>
				<time>2015-07-04T02:20:51Z</time>
				<extensions>
				</extensions>
			</trkpt>
			<trkpt lat="-28.616825" lon="153.004484">
				<ele>55.141</ele>
				<time>2015-07-04T02:20:53Z</time>
				<extensions>
				</extensions>
			</trkpt>
			<trkpt lat="-28.616654" lon="153.004647">
				<ele>55.182</ele>
				<time>2015-07-04T02:20:55Z</time>
				<extensions>
				</extensions>
			</trkpt>
			<trkpt lat="-28.616512" lon="153.004861">
				<ele>55.178</ele>
				<time>2015-07-04T02:20:57Z</time>
				<extensions>
				</extensions>
			</trkpt>
			<trkpt lat="-28.616429" lon="153.005116">
				<ele>54.474</ele>
				<time>2015-07-04T02:20:59Z</time>
				<extensions>
				</extensions>
			</trkpt>
			<trkpt lat="-28.616402" lon="153.005382">
				<ele>54.660</ele>
				<time>2015-07-04T02:21:01Z</time>
				<extensions>
				</extensions>
			</trkpt>
			<trkpt lat="-28.616429" lon="153.005651">
				<ele>55.938</ele>
				<time>2015-07-04T02:21:03Z</time>
				<extensions>
				</extensions>
			</trkpt>
			<trkpt lat="-28.616477" lon="153.005917">
				<ele>56.389</ele>
				<time>2015-07-04T02:21:05Z</time>
				<extensions>
				</extensions>
			</trkpt>
			<trkpt lat="-28.616524" lon="153.006166">
				<ele>57.119</ele>
				<time>2015-07-04T02:21:07Z</time>
				<extensions>
				</extensions>
			</trkpt>
			<trkpt lat="-28.616568" lon="153.006404">
				<ele>58.038</ele>
				<time>2015-07-04T02:21:09Z</time>
				<extensions>
				</extensions>
			</trkpt>
			<trkpt lat="-28.616603" lon="153.006629">
				<ele>58.835</ele>
				<time>2015-07-04T02:21:11Z</time>
				<extensions>
				</extensions>
			</trkpt>
			<trkpt lat="-28.616610" lon="153.006854">
				<ele>58.915</ele>
				<time>2015-07-04T02:21:13Z</time>
				<extensions>
				</extensions>
			</trkpt>
			<trkpt lat="-28.616534" lon="153.007055">
				<ele>59.634</ele>
				<time>2015-07-04T02:21:15Z</time>
				<extensions>
				</extensions>
			</trkpt>
			<trkpt lat="-28.616418" lon="153.007249">
				<ele>60.371</ele>
				<time>2015-07-04T02:21:17Z</time>
				<extensions>
				</extensions>
			</trkpt>
			<trkpt lat="-28.616323" lon="153.007471">
				<ele>60.882</ele>
				<time>2015-07-04T02:21:19Z</time>
				<extensions>
				</extensions>
			</trkpt>
			<trkpt lat="-28.616303" lon="153.007708">
				<ele>61.336</ele>
				<time>2015-07-04T02:21:21Z</time>
				<extensions>
				</extensions>
			</trkpt>
			<trkpt lat="-28.616343" lon="153.007944">
				<ele>62.069</ele>
				<time>2015-07-04T02:21:23Z</time>
				<extensions>
				</extensions>
			</trkpt>
			<trkpt lat="-28.616366" lon="153.008188">
				<ele>63.654</ele>
				<time>2015-07-04T02:21:25Z</time>
				<extensions>
				</extensions>
			</trkpt>
			<trkpt lat="-28.616298" lon="153.008416">
				<ele>66.222</ele>
				<time>2015-07-04T02:21:27Z</time>
				<extensions>
				</extensions>
			</trkpt>
			<trkpt lat="-28.616138" lon="153.008613">
				<ele>69.121</ele>
				<time>2015-07-04T02:21:29Z</time>
				<extensions>
				</extensions>
			</trkpt>
			<trkpt lat="-28.615957" lon="153.008826">
				<ele>69.528</ele>
				<time>2015-07-04T02:21:31Z</time>
				<extensions>
				</extensions>
			</trkpt>
			<trkpt lat="-28.615767" lon="153.009011">
				<ele>68.744</ele>
				<time>2015-07-04T02:21:33Z</time>
				<extensions>
				</extensions>
			</trkpt>
			<trkpt lat="-28.615543" lon="153.009159">
				<ele>66.791</ele>
				<time>2015-07-04T02:21:35Z</time>
				<extensions>
				</extensions>
			</trkpt>
			<trkpt lat="-28.615293" lon="153.009245">
				<ele>65.365</ele>
				<time>2015-07-04T02:21:37Z</time>
				<extensions>
				</extensions>
			</trkpt>
			<trkpt lat="-28.615049" lon="153.009282">
				<ele>63.635</ele>
				<time>2015-07-04T02:21:39Z</time>
				<extensions>
				</extensions>
			</trkpt>
			<trkpt lat="-28.614799" lon="153.009302">
				<ele>64.446</ele>
				<time>2015-07-04T02:21:41Z</time>
				<extensions>
				</extensions>
			</trkpt>
			<trkpt lat="-28.614537" lon="153.009325">
				<ele>64.228</ele>
				<time>2015-07-04T02:21:43Z</time>
				<extensions>
				</extensions>
			</trkpt>
			<trkpt lat="-28.614279" lon="153.009360">
				<ele>63.211</ele>
				<time>2015-07-04T02:21:45Z</time>
				<extensions>
				</extensions>
			</trkpt>
			<trkpt lat="-28.614018" lon="153.009394">
				<ele>62.676</ele>
				<time>2015-07-04T02:21:47Z</time>
				<extensions>
				</extensions>
			</trkpt>
			<trkpt lat="-28.613766" lon="153.009428">
				<ele>62.673</ele>
				<time>2015-07-04T02:21:49Z</time>
				<extensions>
				</extensions>
			</trkpt>
			<trkpt lat="-28.613511" lon="153.009453">
				<ele>62.201</ele>
				<time>2015-07-04T02:21:51Z</time>
				<extensions>
				</extensions>
			</trkpt>
			<trkpt lat="-28.613249" lon="153.009486">
				<ele>61.383</ele>
				<time>2015-07-04T02:21:53Z</time>
				<extensions>
				</extensions>
			</trkpt>
			<trkpt lat="-28.612995" lon="153.009519">
				<ele>61.645</ele>
				<time>2015-07-04T02:21:55Z</time>
				<extensions>
				</extensions>
			</trkpt>
			<trkpt lat="-28.612749" lon="153.009563">
				<ele>60.934</ele>
				<time>2015-07-04T02:21:57Z</time>
				<extensions>
				</extensions>
			</trkpt>
			<trkpt lat="-28.612491" lon="153.009616">
				<ele>61.197</ele>
				<time>2015-07-04T02:21:59Z</time>
				<extensions>
				</extensions>
			</trkpt>
			<trkpt lat="-28.612195" lon="153.009685">
				<ele>62.607</ele>
				<time>2015-07-04T02:22:01Z</time>
				<extensions>
				</extensions>
			</trkpt>
			<trkpt lat="-28.611828" lon="153.009769">
				<ele>65.196</ele>
				<time>2015-07-04T02:22:03Z</time>
				<extensions>
				</extensions>
			</trkpt>
			<trkpt lat="-28.611626" lon="153.009819">
				<ele>66.886</ele>
				<time>2015-07-04T02:22:04Z</time>
				<extensions>
				</extensions>
			</trkpt>
			<trkpt lat="-28.611398" lon="153.009872">
				<ele>68.416</ele>
				<time>2015-07-04T02:22:05Z</time>
				<extensions>
				</extensions>
			</trkpt>
			<trkpt lat="-28.611155" lon="153.009929">
				<ele>71.112</ele>
				<time>2015-07-04T02:22:06Z</time>
				<extensions>
				</extensions>
			</trkpt>
			<trkpt lat="-28.610891" lon="153.009995">
				<ele>72.640</ele>
				<time>2015-07-04T02:22:07Z</time>
				<extensions>
				</extensions>
			</trkpt>
			<trkpt lat="-28.610625" lon="153.010061">
				<ele>54.427</ele>
				<time>2015-07-04T02:22:08Z</time>
				<extensions>
				</extensions>
			</trkpt>
			<trkpt lat="-28.610374" lon="153.010122">
				<ele>53.830</ele>
				<time>2015-07-04T02:22:09Z</time>
				<extensions>
				</extensions>
			</trkpt>
			<trkpt lat="-28.610135" lon="153.010183">
				<ele>53.602</ele>
				<time>2015-07-04T02:22:10Z</time>
				<extensions>
				</extensions>
			</trkpt>
			<trkpt lat="-28.609935" lon="153.010233">
				<ele>53.317</ele>
				<time>2015-07-04T02:22:11Z</time>
				<extensions>
				</extensions>
			</trkpt>
			<trkpt lat="-28.609730" lon="153.010280">
				<ele>63.208</ele>
				<time>2015-07-04T02:22:12Z</time>
				<extensions>
				</extensions>
			</trkpt>
			<trkpt lat="-28.609533" lon="153.010322">
				<ele>62.046</ele>
				<time>2015-07-04T02:22:13Z</time>
				<extensions>
				</extensions>
			</trkpt>
			<trkpt lat="-28.609339" lon="153.010369">
				<ele>60.743</ele>
				<time>2015-07-04T02:22:14Z</time>
				<extensions>
				</extensions>
			</trkpt>
			<trkpt lat="-28.609138" lon="153.010416">
				<ele>60.892</ele>
				<time>2015-07-04T02:22:15Z</time>
				<extensions>
				</extensions>
			</trkpt>
			<trkpt lat="-28.608939" lon="153.010462">
				<ele>60.696</ele>
				<time>2015-07-04T02:22:16Z</time>
				<extensions>
				</extensions>
			</trkpt>
			<trkpt lat="-28.608731" lon="153.010510">
				<ele>61.861</ele>
				<time>2015-07-04T02:22:17Z</time>
				<extensions>
				</extensions>
			</trkpt>
			<trkpt lat="-28.608528" lon="153.010559">
				<ele>61.909</ele>
				<time>2015-07-04T02:22:18Z</time>
				<extensions>
				</extensions>
			</trkpt>
			<trkpt lat="-28.608331" lon="153.010603">
				<ele>59.647</ele>
				<time>2015-07-04T02:22:19Z</time>
				<extensions>
				</extensions>
			</trkpt>
			<trkpt lat="-28.608142" lon="153.010646">
				<ele>58.125</ele>
				<time>2015-07-04T02:22:20Z</time>
				<extensions>
				</extensions>
			</trkpt>
			<trkpt lat="-28.607961" lon="153.010682">
				<ele>57.054</ele>
				<time>2015-07-04T02:22:21Z</time>
				<extensions>
				</extensions>
			</trkpt>
			<trkpt lat="-28.607617" lon="153.010737">
				<ele>54.663</ele>
				<time>2015-07-04T02:22:23Z</time>
				<extensions>
				</extensions>
			</trkpt>
			<trkpt lat="-28.607291" lon="153.010783">
				<ele>53.672</ele>
				<time>2015-07-04T02:22:25Z</time>
				<extensions>
				</extensions>
			</trkpt>
			<trkpt lat="-28.607002" lon="153.010820">
				<ele>50.663</ele>
				<time>2015-07-04T02:22:27Z</time>
				<extensions>
				</extensions>
			</trkpt>
			<trkpt lat="-28.606735" lon="153.010864">
				<ele>48.974</ele>
				<time>2015-07-04T02:22:29Z</time>
				<extensions>
				</extensions>
			</trkpt>
			<trkpt lat="-28.606494" lon="153.010918">
				<ele>47.665</ele>
				<time>2015-07-04T02:22:31Z</time>
				<extensions>
				</extensions>
			</trkpt>
			<trkpt lat="-28.606294" lon="153.010966">
				<ele>45.497</ele>
				<time>2015-07-04T02:22:33Z</time>
				<extensions>
				</extensions>
			</trkpt>
			<trkpt lat="-28.606058" lon="153.011064">
				<ele>44.531</ele>
				<time>2015-07-04T02:22:36Z</time>
				<extensions>
				</extensions>
			</trkpt>
			<trkpt lat="-28.605981" lon="153.011312">
				<ele>45.853</ele>
				<time>2015-07-04T02:22:39Z</time>
				<extensions>
				</extensions>
			</trkpt>
			<trkpt lat="-28.606014" lon="153.011559">
				<ele>47.905</ele>
				<time>2015-07-04T02:22:41Z</time>
				<extensions>
				</extensions>
			</trkpt>
			<trkpt lat="-28.606059" lon="153.011880">
				<ele>50.564</ele>
				<time>2015-07-04T02:22:43Z</time>
				<extensions>
				</extensions>
			</trkpt>
			<trkpt lat="-28.606113" lon="153.012266">
				<ele>53.528</ele>
				<time>2015-07-04T02:22:45Z</time>
				<extensions>
				</extensions>
			</trkpt>
			<trkpt lat="-28.606171" lon="153.012662">
				<ele>52.216</ele>
				<time>2015-07-04T02:22:47Z</time>
				<extensions>
				</extensions>
			</trkpt>
			<trkpt lat="-28.606224" lon="153.013033">
				<ele>50.918</ele>
				<time>2015-07-04T02:22:49Z</time>
				<extensions>
				</extensions>
			</trkpt>
			<trkpt lat="-28.606273" lon="153.013370">
				<ele>50.410</ele>
				<time>2015-07-04T02:22:51Z</time>
				<extensions>
				</extensions>
			</trkpt>
			<trkpt lat="-28.606324" lon="153.013703">
				<ele>51.658</ele>
				<time>2015-07-04T02:22:53Z</time>
				<extensions>
				</extensions>
			</trkpt>
			<trkpt lat="-28.606373" lon="153.014045">
				<ele>52.552</ele>
				<time>2015-07-04T02:22:55Z</time>
				<extensions>
				</extensions>
			</trkpt>
			<trkpt lat="-28.606427" lon="153.014388">
				<ele>53.093</ele>
				<time>2015-07-04T02:22:57Z</time>
				<extensions>
				</extensions>
			</trkpt>
			<trkpt lat="-28.606478" lon="153.014741">
				<ele>53.020</ele>
				<time>2015-07-04T02:22:59Z</time>
				<extensions>
				</extensions>
			</trkpt>
			<trkpt lat="-28.606525" lon="153.015100">
				<ele>52.388</ele>
				<time>2015-07-04T02:23:01Z</time>
				<extensions>
				</extensions>
			</trkpt>
			<trkpt lat="-28.606574" lon="153.015438">
				<ele>51.636</ele>
				<time>2015-07-04T02:23:03Z</time>
				<extensions>
				</extensions>
			</trkpt>
			<trkpt lat="-28.606625" lon="153.015763">
				<ele>53.533</ele>
				<time>2015-07-04T02:23:05Z</time>
				<extensions>
				</extensions>
			</trkpt>
			<trkpt lat="-28.606711" lon="153.016077">
				<ele>53.882</ele>
				<time>2015-07-04T02:23:07Z</time>
				<extensions>
				</extensions>
			</trkpt>
			<trkpt lat="-28.606815" lon="153.016383">
				<ele>55.079</ele>
				<time>2015-07-04T02:23:09Z</time>
				<extensions>
				</extensions>
			</trkpt>
			<trkpt lat="-28.606926" lon="153.016700">
				<ele>57.463</ele>
				<time>2015-07-04T02:23:11Z</time>
				<extensions>
				</extensions>
			</trkpt>
			<trkpt lat="-28.607049" lon="153.017055">
				<ele>60.865</ele>
				<time>2015-07-04T02:23:13Z</time>
				<extensions>
				</extensions>
			</trkpt>
			<trkpt lat="-28.607173" lon="153.017405">
				<ele>62.489</ele>
				<time>2015-07-04T02:23:15Z</time>
				<extensions>
				</extensions>
			</trkpt>
			<trkpt lat="-28.607304" lon="153.017771">
				<ele>63.373</ele>
				<time>2015-07-04T02:23:17Z</time>
				<extensions>
				</extensions>
			</trkpt>
			<trkpt lat="-28.607431" lon="153.018129">
				<ele>64.269</ele>
				<time>2015-07-04T02:23:19Z</time>
				<extensions>
				</extensions>
			</trkpt>
			<trkpt lat="-28.607550" lon="153.018475">
				<ele>64.679</ele>
				<time>2015-07-04T02:23:21Z</time>
				<extensions>
				</extensions>
			</trkpt>
			<trkpt lat="-28.607674" lon="153.018829">
				<ele>66.075</ele>
				<time>2015-07-04T02:23:23Z</time>
				<extensions>
				</extensions>
			</trkpt>
			<trkpt lat="-28.607794" lon="153.019179">
				<ele>67.761</ele>
				<time>2015-07-04T02:23:25Z</time>
				<extensions>
				</extensions>
			</trkpt>
			<trkpt lat="-28.607874" lon="153.019530">
				<ele>68.706</ele>
				<time>2015-07-04T02:23:27Z</time>
				<extensions>
				</extensions>
			</trkpt>
			<trkpt lat="-28.607877" lon="153.019914">
				<ele>72.933</ele>
				<time>2015-07-04T02:23:29Z</time>
				<extensions>
				</extensions>
			</trkpt>
			<trkpt lat="-28.607863" lon="153.020312">
				<ele>75.302</ele>
				<time>2015-07-04T02:23:31Z</time>
				<extensions>
				</extensions>
			</trkpt>
			<trkpt lat="-28.607850" lon="153.020702">
				<ele>74.442</ele>
				<time>2015-07-04T02:23:33Z</time>
				<extensions>
				</extensions>
			</trkpt>
			<trkpt lat="-28.607830" lon="153.021078">
				<ele>75.970</ele>
				<time>2015-07-04T02:23:35Z</time>
				<extensions>
				</extensions>
			</trkpt>
			<trkpt lat="-28.607808" lon="153.021441">
				<ele>76.381</ele>
				<time>2015-07-04T02:23:37Z</time>
				<extensions>
				</extensions>
			</trkpt>
			<trkpt lat="-28.607778" lon="153.021789">
				<ele>77.062</ele>
				<time>2015-07-04T02:23:39Z</time>
				<extensions>
				</extensions>
			</trkpt>
			<trkpt lat="-28.607687" lon="153.022131">
				<ele>81.000</ele>
				<time>2015-07-04T02:23:41Z</time>
				<extensions>
				</extensions>
			</trkpt>
			<trkpt lat="-28.607508" lon="153.022480">
				<ele>85.008</ele>
				<time>2015-07-04T02:23:43Z</time>
				<extensions>
				</extensions>
			</trkpt>
			<trkpt lat="-28.607401" lon="153.022662">
				<ele>86.097</ele>
				<time>2015-07-04T02:23:44Z</time>
				<extensions>
				</extensions>
			</trkpt>
			<trkpt lat="-28.607285" lon="153.022845">
				<ele>88.110</ele>
				<time>2015-07-04T02:23:45Z</time>
				<extensions>
				</extensions>
			</trkpt>
			<trkpt lat="-28.607170" lon="153.023030">
				<ele>88.969</ele>
				<time>2015-07-04T02:23:46Z</time>
				<extensions>
				</extensions>
			</trkpt>
			<trkpt lat="-28.607047" lon="153.023207">
				<ele>88.106</ele>
				<time>2015-07-04T02:23:47Z</time>
				<extensions>
				</extensions>
			</trkpt>
			<trkpt lat="-28.606931" lon="153.023386">
				<ele>88.409</ele>
				<time>2015-07-04T02:23:48Z</time>
				<extensions>
				</extensions>
			</trkpt>
			<trkpt lat="-28.606820" lon="153.023553">
				<ele>88.118</ele>
				<time>2015-07-04T02:23:49Z</time>
				<extensions>
				</extensions>
			</trkpt>
			<trkpt lat="-28.606711" lon="153.023718">
				<ele>87.547</ele>
				<time>2015-07-04T02:23:50Z</time>
				<extensions>
				</extensions>
			</trkpt>
			<trkpt lat="-28.606609" lon="153.023889">
				<ele>87.656</ele>
				<time>2015-07-04T02:23:51Z</time>
				<extensions>
				</extensions>
			</trkpt>
			<trkpt lat="-28.606425" lon="153.024237">
				<ele>88.183</ele>
				<time>2015-07-04T02:23:53Z</time>
				<extensions>
				</extensions>
			</trkpt>
			<trkpt lat="-28.606345" lon="153.024420">
				<ele>88.602</ele>
				<time>2015-07-04T02:23:54Z</time>
				<extensions>
				</extensions>
			</trkpt>
			<trkpt lat="-28.606268" lon="153.024611">
				<ele>88.697</ele>
				<time>2015-07-04T02:23:55Z</time>
				<extensions>
				</extensions>
			</trkpt>
			<trkpt lat="-28.606191" lon="153.024798">
				<ele>89.079</ele>
				<time>2015-07-04T02:23:56Z</time>
				<extensions>
				</extensions>
			</trkpt>
			<trkpt lat="-28.606118" lon="153.024990">
				<ele>88.976</ele>
				<time>2015-07-04T02:23:57Z</time>
				<extensions>
				</extensions>
			</trkpt>
			<trkpt lat="-28.606039" lon="153.025182">
				<ele>90.005</ele>
				<time>2015-07-04T02:23:58Z</time>
				<extensions>
				</extensions>
			</trkpt>
			<trkpt lat="-28.605963" lon="153.025369">
				<ele>90.365</ele>
				<time>2015-07-04T02:23:59Z</time>
				<extensions>
				</extensions>
			</trkpt>
			<trkpt lat="-28.605875" lon="153.025561">
				<ele>90.704</ele>
				<time>2015-07-04T02:24:00Z</time>
				<extensions>
				</extensions>
			</trkpt>
			<trkpt lat="-28.605789" lon="153.025752">
				<ele>92.311</ele>
				<time>2015-07-04T02:24:01Z</time>
				<extensions>
				</extensions>
			</trkpt>
			<trkpt lat="-28.605710" lon="153.025943">
				<ele>92.664</ele>
				<time>2015-07-04T02:24:02Z</time>
				<extensions>
				</extensions>
			</trkpt>
			<trkpt lat="-28.605629" lon="153.026131">
				<ele>93.024</ele>
				<time>2015-07-04T02:24:03Z</time>
				<extensions>
				</extensions>
			</trkpt>
			<trkpt lat="-28.605548" lon="153.026321">
				<ele>94.260</ele>
				<time>2015-07-04T02:24:04Z</time>
				<extensions>
				</extensions>
			</trkpt>
			<trkpt lat="-28.605464" lon="153.026503">
				<ele>95.859</ele>
				<time>2015-07-04T02:24:05Z</time>
				<extensions>
				</extensions>
			</trkpt>
			<trkpt lat="-28.605308" lon="153.026869">
				<ele>98.378</ele>
				<time>2015-07-04T02:24:07Z</time>
				<extensions>
				</extensions>
			</trkpt>
			<trkpt lat="-28.605149" lon="153.027232">
				<ele>101.432</ele>
				<time>2015-07-04T02:24:09Z</time>
				<extensions>
				</extensions>
			</trkpt>
			<trkpt lat="-28.605001" lon="153.027572">
				<ele>103.309</ele>
				<time>2015-07-04T02:24:11Z</time>
				<extensions>
				</extensions>
			</trkpt>
			<trkpt lat="-28.604875" lon="153.027897">
				<ele>105.138</ele>
				<time>2015-07-04T02:24:13Z</time>
				<extensions>
				</extensions>
			</trkpt>
			<trkpt lat="-28.604785" lon="153.028213">
				<ele>108.274</ele>
				<time>2015-07-04T02:24:15Z</time>
				<extensions>
				</extensions>
			</trkpt>
			<trkpt lat="-28.604775" lon="153.028519">
				<ele>110.561</ele>
				<time>2015-07-04T02:24:17Z</time>
				<extensions>
				</extensions>
			</trkpt>
			<trkpt lat="-28.604866" lon="153.028823">
				<ele>114.363</ele>
				<time>2015-07-04T02:24:19Z</time>
				<extensions>
				</extensions>
			</trkpt>
			<trkpt lat="-28.605022" lon="153.029150">
				<ele>118.551</ele>
				<time>2015-07-04T02:24:21Z</time>
				<extensions>
				</extensions>
			</trkpt>
			<trkpt lat="-28.605163" lon="153.029479">
				<ele>119.319</ele>
				<time>2015-07-04T02:24:23Z</time>
				<extensions>
				</extensions>
			</trkpt>
			<trkpt lat="-28.605254" lon="153.029757">
				<ele>120.516</ele>
				<time>2015-07-04T02:24:25Z</time>
				<extensions>
				</extensions>
			</trkpt>
			<trkpt lat="-28.605248" lon="153.030051">
				<ele>123.257</ele>
				<time>2015-07-04T02:24:27Z</time>
				<extensions>
				</extensions>
			</trkpt>
			<trkpt lat="-28.605169" lon="153.030390">
				<ele>129.198</ele>
				<time>2015-07-04T02:24:29Z</time>
				<extensions>
				</extensions>
			</trkpt>
			<trkpt lat="-28.605081" lon="153.030764">
				<ele>131.693</ele>
				<time>2015-07-04T02:24:31Z</time>
				<extensions>
				</extensions>
			</trkpt>
			<trkpt lat="-28.604987" lon="153.031141">
				<ele>134.054</ele>
				<time>2015-07-04T02:24:33Z</time>
				<extensions>
				</extensions>
			</trkpt>
			<trkpt lat="-28.604899" lon="153.031497">
				<ele>135.617</ele>
				<time>2015-07-04T02:24:35Z</time>
				<extensions>
				</extensions>
			</trkpt>
			<trkpt lat="-28.604784" lon="153.031834">
				<ele>137.448</ele>
				<time>2015-07-04T02:24:37Z</time>
				<extensions>
				</extensions>
			</trkpt>
			<trkpt lat="-28.604632" lon="153.032146">
				<ele>140.503</ele>
				<time>2015-07-04T02:24:39Z</time>
				<extensions>
				</extensions>
			</trkpt>
			<trkpt lat="-28.604467" lon="153.032442">
				<ele>143.208</ele>
				<time>2015-07-04T02:24:41Z</time>
				<extensions>
				</extensions>
			</trkpt>
			<trkpt lat="-28.604273" lon="153.032704">
				<ele>145.449</ele>
				<time>2015-07-04T02:24:43Z</time>
				<extensions>
				</extensions>
			</trkpt>
			<trkpt lat="-28.604035" lon="153.032921">
				<ele>148.008</ele>
				<time>2015-07-04T02:24:45Z</time>
				<extensions>
				</extensions>
			</trkpt>
			<trkpt lat="-28.603781" lon="153.033137">
				<ele>153.028</ele>
				<time>2015-07-04T02:24:47Z</time>
				<extensions>
				</extensions>
			</trkpt>
			<trkpt lat="-28.603533" lon="153.033347">
				<ele>153.974</ele>
				<time>2015-07-04T02:24:49Z</time>
				<extensions>
				</extensions>
			</trkpt>
			<trkpt lat="-28.603325" lon="153.033537">
				<ele>153.658</ele>
				<time>2015-07-04T02:24:51Z</time>
				<extensions>
				</extensions>
			</trkpt>
			<trkpt lat="-28.603169" lon="153.033780">
				<ele>156.404</ele>
				<time>2015-07-04T02:24:53Z</time>
				<extensions>
				</extensions>
			</trkpt>
			<trkpt lat="-28.603055" lon="153.034043">
				<ele>156.879</ele>
				<time>2015-07-04T02:24:55Z</time>
				<extensions>
				</extensions>
			</trkpt>
			<trkpt lat="-28.602919" lon="153.034222">
				<ele>156.706</ele>
				<time>2015-07-04T02:24:57Z</time>
				<extensions>
				</extensions>
			</trkpt>
			<trkpt lat="-28.602679" lon="153.034306">
				<ele>160.319</ele>
				<time>2015-07-04T02:24:59Z</time>
				<extensions>
				</extensions>
			</trkpt>
			<trkpt lat="-28.602382" lon="153.034333">
				<ele>164.345</ele>
				<time>2015-07-04T02:25:01Z</time>
				<extensions>
				</extensions>
			</trkpt>
			<trkpt lat="-28.602133" lon="153.034393">
				<ele>164.182</ele>
				<time>2015-07-04T02:25:03Z</time>
				<extensions>
				</extensions>
			</trkpt>
			<trkpt lat="-28.601903" lon="153.034547">
				<ele>166.052</ele>
				<time>2015-07-04T02:25:05Z</time>
				<extensions>
				</extensions>
			</trkpt>
			<trkpt lat="-28.601707" lon="153.034736">
				<ele>164.484</ele>
				<time>2015-07-04T02:25:07Z</time>
				<extensions>
				</extensions>
			</trkpt>
			<trkpt lat="-28.601560" lon="153.034977">
				<ele>161.952</ele>
				<time>2015-07-04T02:25:09Z</time>
				<extensions>
				</extensions>
			</trkpt>
			<trkpt lat="-28.601470" lon="153.035222">
				<ele>158.437</ele>
				<time>2015-07-04T02:25:11Z</time>
				<extensions>
				</extensions>
			</trkpt>
			<trkpt lat="-28.601427" lon="153.035486">
				<ele>155.604</ele>
				<time>2015-07-04T02:25:13Z</time>
				<extensions>
				</extensions>
			</trkpt>
			<trkpt lat="-28.601459" lon="153.035804">
				<ele>155.365</ele>
				<time>2015-07-04T02:25:15Z</time>
				<extensions>
				</extensions>
			</trkpt>
			<trkpt lat="-28.601506" lon="153.036140">
				<ele>153.318</ele>
				<time>2015-07-04T02:25:17Z</time>
				<extensions>
				</extensions>
			</trkpt>
			<trkpt lat="-28.601558" lon="153.036478">
				<ele>150.138</ele>
				<time>2015-07-04T02:25:19Z</time>
				<extensions>
				</extensions>
			</trkpt>
			<trkpt lat="-28.601619" lon="153.036821">
				<ele>147.655</ele>
				<time>2015-07-04T02:25:21Z</time>
				<extensions>
				</extensions>
			</trkpt>
			<trkpt lat="-28.601688" lon="153.037153">
				<ele>145.363</ele>
				<time>2015-07-04T02:25:23Z</time>
				<extensions>
				</extensions>
			</trkpt>
			<trkpt lat="-28.601753" lon="153.037470">
				<ele>143.108</ele>
				<time>2015-07-04T02:25:25Z</time>
				<extensions>
				</extensions>
			</trkpt>
			<trkpt lat="-28.601809" lon="153.037756">
				<ele>141.563</ele>
				<time>2015-07-04T02:25:27Z</time>
				<extensions>
				</extensions>
			</trkpt>
			<trkpt lat="-28.601793" lon="153.038046">
				<ele>141.703</ele>
				<time>2015-07-04T02:25:29Z</time>
				<extensions>
				</extensions>
			</trkpt>
			<trkpt lat="-28.601667" lon="153.038300">
				<ele>143.072</ele>
				<time>2015-07-04T02:25:31Z</time>
				<extensions>
				</extensions>
			</trkpt>
			<trkpt lat="-28.601474" lon="153.038540">
				<ele>142.865</ele>
				<time>2015-07-04T02:25:33Z</time>
				<extensions>
				</extensions>
			</trkpt>
			<trkpt lat="-28.601326" lon="153.038806">
				<ele>143.414</ele>
				<time>2015-07-04T02:25:35Z</time>
				<extensions>
				</extensions>
			</trkpt>
			<trkpt lat="-28.601267" lon="153.039116">
				<ele>144.447</ele>
				<time>2015-07-04T02:25:37Z</time>
				<extensions>
				</extensions>
			</trkpt>
			<trkpt lat="-28.601288" lon="153.039500">
				<ele>147.981</ele>
				<time>2015-07-04T02:25:39Z</time>
				<extensions>
				</extensions>
			</trkpt>
			<trkpt lat="-28.601310" lon="153.039719">
				<ele>149.202</ele>
				<time>2015-07-04T02:25:40Z</time>
				<extensions>
				</extensions>
			</trkpt>
			<trkpt lat="-28.601338" lon="153.039944">
				<ele>151.077</ele>
				<time>2015-07-04T02:25:41Z</time>
				<extensions>
				</extensions>
			</trkpt>
			<trkpt lat="-28.601363" lon="153.040168">
				<ele>151.071</ele>
				<time>2015-07-04T02:25:42Z</time>
				<extensions>
				</extensions>
			</trkpt>
			<trkpt lat="-28.601376" lon="153.040393">
				<ele>150.762</ele>
				<time>2015-07-04T02:25:43Z</time>
				<extensions>
				</extensions>
			</trkpt>
			<trkpt lat="-28.601407" lon="153.040601">
				<ele>149.067</ele>
				<time>2015-07-04T02:25:44Z</time>
				<extensions>
				</extensions>
			</trkpt>
			<trkpt lat="-28.601421" lon="153.040816">
				<ele>147.740</ele>
				<time>2015-07-04T02:25:45Z</time>
				<extensions>
				</extensions>
			</trkpt>
			<trkpt lat="-28.601443" lon="153.041023">
				<ele>147.863</ele>
				<time>2015-07-04T02:25:46Z</time>
				<extensions>
				</extensions>
			</trkpt>
			<trkpt lat="-28.601447" lon="153.041400">
				<ele>147.390</ele>
				<time>2015-07-04T02:25:48Z</time>
				<extensions>
				</extensions>
			</trkpt>
			<trkpt lat="-28.601380" lon="153.041754">
				<ele>147.276</ele>
				<time>2015-07-04T02:25:50Z</time>
				<extensions>
				</extensions>
			</trkpt>
			<trkpt lat="-28.601250" lon="153.042065">
				<ele>147.409</ele>
				<time>2015-07-04T02:25:52Z</time>
				<extensions>
				</extensions>
			</trkpt>
			<trkpt lat="-28.601017" lon="153.042308">
				<ele>149.654</ele>
				<time>2015-07-04T02:25:54Z</time>
				<extensions>
				</extensions>
			</trkpt>
			<trkpt lat="-28.600730" lon="153.042481">
				<ele>148.901</ele>
				<time>2015-07-04T02:25:56Z</time>
				<extensions>
				</extensions>
			</trkpt>
			<trkpt lat="-28.600444" lon="153.042607">
				<ele>149.212</ele>
				<time>2015-07-04T02:25:58Z</time>
				<extensions>
				</extensions>
			</trkpt>
			<trkpt lat="-28.600186" lon="153.042715">
				<ele>147.920</ele>
				<time>2015-07-04T02:26:00Z</time>
				<extensions>
				</extensions>
			</trkpt>
			<trkpt lat="-28.599963" lon="153.042850">
				<ele>146.860</ele>
				<time>2015-07-04T02:26:02Z</time>
				<extensions>
				</extensions>
			</trkpt>
			<trkpt lat="-28.599783" lon="153.043076">
				<ele>147.752</ele>
				<time>2015-07-04T02:26:04Z</time>
				<extensions>
				</extensions>
			</trkpt>
			<trkpt lat="-28.599707" lon="153.043379">
				<ele>148.200</ele>
				<time>2015-07-04T02:26:06Z</time>
				<extensions>
				</extensions>
			</trkpt>
			<trkpt lat="-28.599778" lon="153.043723">
				<ele>149.323</ele>
				<time>2015-07-04T02:26:08Z</time>
				<extensions>
				</extensions>
			</trkpt>
			<trkpt lat="-28.599914" lon="153.044095">
				<ele>152.056</ele>
				<time>2015-07-04T02:26:10Z</time>
				<extensions>
				</extensions>
			</trkpt>
			<trkpt lat="-28.600052" lon="153.044452">
				<ele>151.803</ele>
				<time>2015-07-04T02:26:12Z</time>
				<extensions>
				</extensions>
			</trkpt>
			<trkpt lat="-28.600172" lon="153.044785">
				<ele>150.837</ele>
				<time>2015-07-04T02:26:14Z</time>
				<extensions>
				</extensions>
			</trkpt>
			<trkpt lat="-28.600287" lon="153.045089">
				<ele>150.181</ele>
				<time>2015-07-04T02:26:16Z</time>
				<extensions>
				</extensions>
			</trkpt>
			<trkpt lat="-28.600377" lon="153.045380">
				<ele>149.003</ele>
				<time>2015-07-04T02:26:18Z</time>
				<extensions>
				</extensions>
			</trkpt>
			<trkpt lat="-28.600395" lon="153.045652">
				<ele>147.387</ele>
				<time>2015-07-04T02:26:20Z</time>
				<extensions>
				</extensions>
			</trkpt>
			<trkpt lat="-28.600284" lon="153.045897">
				<ele>148.482</ele>
				<time>2015-07-04T02:26:22Z</time>
				<extensions>
				</extensions>
			</trkpt>
			<trkpt lat="-28.600047" lon="153.046157">
				<ele>151.703</ele>
				<time>2015-07-04T02:26:24Z</time>
				<extensions>
				</extensions>
			</trkpt>
			<trkpt lat="-28.599819" lon="153.046399">
				<ele>151.993</ele>
				<time>2015-07-04T02:26:26Z</time>
				<extensions>
				</extensions>
			</trkpt>
			<trkpt lat="-28.599593" lon="153.046642">
				<ele>153.327</ele>
				<time>2015-07-04T02:26:28Z</time>
				<extensions>
				</extensions>
			</trkpt>
			<trkpt lat="-28.599384" lon="153.046870">
				<ele>152.979</ele>
				<time>2015-07-04T02:26:30Z</time>
				<extensions>
				</extensions>
			</trkpt>
			<trkpt lat="-28.599193" lon="153.047087">
				<ele>152.739</ele>
				<time>2015-07-04T02:26:32Z</time>
				<extensions>
				</extensions>
			</trkpt>
			<trkpt lat="-28.599035" lon="153.047292">
				<ele>152.522</ele>
				<time>2015-07-04T02:26:34Z</time>
				<extensions>
				</extensions>
			</trkpt>
			<trkpt lat="-28.598922" lon="153.047542">
				<ele>153.987</ele>
				<time>2015-07-04T02:26:36Z</time>
				<extensions>
				</extensions>
			</trkpt>
			<trkpt lat="-28.598899" lon="153.047852">
				<ele>156.590</ele>
				<time>2015-07-04T02:26:38Z</time>
				<extensions>
				</extensions>
			</trkpt>
			<trkpt lat="-28.598984" lon="153.048147">
				<ele>157.846</ele>
				<time>2015-07-04T02:26:40Z</time>
				<extensions>
				</extensions>
			</trkpt>
			<trkpt lat="-28.599166" lon="153.048385">
				<ele>161.090</ele>
				<time>2015-07-04T02:26:42Z</time>
				<extensions>
				</extensions>
			</trkpt>
			<trkpt lat="-28.599446" lon="153.048543">
				<ele>163.607</ele>
				<time>2015-07-04T02:26:44Z</time>
				<extensions>
				</extensions>
			</trkpt>
			<trkpt lat="-28.599768" lon="153.048617">
				<ele>166.229</ele>
				<time>2015-07-04T02:26:46Z</time>
				<extensions>
				</extensions>
			</trkpt>
			<trkpt lat="-28.599970" lon="153.048621">
				<ele>168.124</ele>
				<time>2015-07-04T02:26:47Z</time>
				<extensions>
				</extensions>
			</trkpt>
			<trkpt lat="-28.600301" lon="153.048624">
				<ele>167.626</ele>
				<time>2015-07-04T02:26:49Z</time>
				<extensions>
				</extensions>
			</trkpt>
			<trkpt lat="-28.600609" lon="153.048626">
				<ele>166.935</ele>
				<time>2015-07-04T02:26:51Z</time>
				<extensions>
				</extensions>
			</trkpt>
			<trkpt lat="-28.600884" lon="153.048633">
				<ele>166.861</ele>
				<time>2015-07-04T02:26:53Z</time>
				<extensions>
				</extensions>
			</trkpt>
			<trkpt lat="-28.601134" lon="153.048650">
				<ele>166.553</ele>
				<time>2015-07-04T02:26:55Z</time>
				<extensions>
				</extensions>
			</trkpt>
			<trkpt lat="-28.601395" lon="153.048708">
				<ele>167.280</ele>
				<time>2015-07-04T02:26:57Z</time>
				<extensions>
				</extensions>
			</trkpt>
			<trkpt lat="-28.601611" lon="153.048855">
				<ele>166.288</ele>
				<time>2015-07-04T02:26:59Z</time>
				<extensions>
				</extensions>
			</trkpt>
			<trkpt lat="-28.601717" lon="153.049047">
				<ele>166.992</ele>
				<time>2015-07-04T02:27:01Z</time>
				<extensions>
				</extensions>
			</trkpt>
			<trkpt lat="-28.601762" lon="153.049274">
				<ele>168.040</ele>
				<time>2015-07-04T02:27:02Z</time>
				<extensions>
				</extensions>
			</trkpt>
			<trkpt lat="-28.601770" lon="153.049685">
				<ele>170.562</ele>
				<time>2015-07-04T02:27:04Z</time>
				<extensions>
				</extensions>
			</trkpt>
			<trkpt lat="-28.601771" lon="153.049889">
				<ele>170.661</ele>
				<time>2015-07-04T02:27:05Z</time>
				<extensions>
				</extensions>
			</trkpt>
			<trkpt lat="-28.601768" lon="153.050275">
				<ele>168.814</ele>
				<time>2015-07-04T02:27:07Z</time>
				<extensions>
				</extensions>
			</trkpt>
			<trkpt lat="-28.601756" lon="153.050616">
				<ele>166.879</ele>
				<time>2015-07-04T02:27:09Z</time>
				<extensions>
				</extensions>
			</trkpt>
			<trkpt lat="-28.601752" lon="153.050915">
				<ele>164.166</ele>
				<time>2015-07-04T02:27:11Z</time>
				<extensions>
				</extensions>
			</trkpt>
			<trkpt lat="-28.601774" lon="153.051194">
				<ele>163.666</ele>
				<time>2015-07-04T02:27:13Z</time>
				<extensions>
				</extensions>
			</trkpt>
			<trkpt lat="-28.601879" lon="153.051464">
				<ele>164.759</ele>
				<time>2015-07-04T02:27:15Z</time>
				<extensions>
				</extensions>
			</trkpt>
			<trkpt lat="-28.602068" lon="153.051667">
				<ele>164.988</ele>
				<time>2015-07-04T02:27:17Z</time>
				<extensions>
				</extensions>
			</trkpt>
			<trkpt lat="-28.602280" lon="153.051890">
				<ele>164.025</ele>
				<time>2015-07-04T02:27:19Z</time>
				<extensions>
				</extensions>
			</trkpt>
			<trkpt lat="-28.602435" lon="153.052184">
				<ele>166.110</ele>
				<time>2015-07-04T02:27:21Z</time>
				<extensions>
				</extensions>
			</trkpt>
			<trkpt lat="-28.602564" lon="153.052514">
				<ele>165.983</ele>
				<time>2015-07-04T02:27:23Z</time>
				<extensions>
				</extensions>
			</trkpt>
			<trkpt lat="-28.602683" lon="153.052816">
				<ele>165.023</ele>
				<time>2015-07-04T02:27:25Z</time>
				<extensions>
				</extensions>
			</trkpt>
			<trkpt lat="-28.602792" lon="153.053102">
				<ele>165.305</ele>
				<time>2015-07-04T02:27:27Z</time>
				<extensions>
				</extensions>
			</trkpt>
			<trkpt lat="-28.602838" lon="153.053409">
				<ele>168.247</ele>
				<time>2015-07-04T02:27:29Z</time>
				<extensions>
				</extensions>
			</trkpt>
			<trkpt lat="-28.602811" lon="153.053740">
				<ele>170.448</ele>
				<time>2015-07-04T02:27:31Z</time>
				<extensions>
				</extensions>
			</trkpt>
			<trkpt lat="-28.602716" lon="153.054111">
				<ele>173.713</ele>
				<time>2015-07-04T02:27:33Z</time>
				<extensions>
				</extensions>
			</trkpt>
			<trkpt lat="-28.602641" lon="153.054461">
				<ele>172.192</ele>
				<time>2015-07-04T02:27:35Z</time>
				<extensions>
				</extensions>
			</trkpt>
			<trkpt lat="-28.602620" lon="153.054803">
				<ele>173.848</ele>
				<time>2015-07-04T02:27:37Z</time>
				<extensions>
				</extensions>
			</trkpt>
			<trkpt lat="-28.602721" lon="153.055137">
				<ele>176.226</ele>
				<time>2015-07-04T02:27:39Z</time>
				<extensions>
				</extensions>
			</trkpt>
			<trkpt lat="-28.602839" lon="153.055431">
				<ele>176.907</ele>
				<time>2015-07-04T02:27:41Z</time>
				<extensions>
				</extensions>
			</trkpt>
			<trkpt lat="-28.602839" lon="153.055743">
				<ele>177.483</ele>
				<time>2015-07-04T02:27:43Z</time>
				<extensions>
				</extensions>
			</trkpt>
			<trkpt lat="-28.602754" lon="153.056057">
				<ele>178.283</ele>
				<time>2015-07-04T02:27:45Z</time>
				<extensions>
				</extensions>
			</trkpt>
			<trkpt lat="-28.602632" lon="153.056403">
				<ele>180.129</ele>
				<time>2015-07-04T02:27:47Z</time>
				<extensions>
				</extensions>
			</trkpt>
			<trkpt lat="-28.602459" lon="153.056727">
				<ele>179.891</ele>
				<time>2015-07-04T02:27:49Z</time>
				<extensions>
				</extensions>
			</trkpt>
			<trkpt lat="-28.602198" lon="153.056999">
				<ele>180.334</ele>
				<time>2015-07-04T02:27:51Z</time>
				<extensions>
				</extensions>
			</trkpt>
			<trkpt lat="-28.601923" lon="153.057243">
				<ele>180.997</ele>
				<time>2015-07-04T02:27:53Z</time>
				<extensions>
				</extensions>
			</trkpt>
			<trkpt lat="-28.601660" lon="153.057479">
				<ele>182.030</ele>
				<time>2015-07-04T02:27:55Z</time>
				<extensions>
				</extensions>
			</trkpt>
			<trkpt lat="-28.601408" lon="153.057715">
				<ele>182.559</ele>
				<time>2015-07-04T02:27:57Z</time>
				<extensions>
				</extensions>
			</trkpt>
			<trkpt lat="-28.601162" lon="153.057991">
				<ele>183.416</ele>
				<time>2015-07-04T02:27:59Z</time>
				<extensions>
				</extensions>
			</trkpt>
			<trkpt lat="-28.600912" lon="153.058284">
				<ele>183.064</ele>
				<time>2015-07-04T02:28:01Z</time>
				<extensions>
				</extensions>
			</trkpt>
			<trkpt lat="-28.600651" lon="153.058547">
				<ele>183.105</ele>
				<time>2015-07-04T02:28:03Z</time>
				<extensions>
				</extensions>
			</trkpt>
			<trkpt lat="-28.600355" lon="153.058753">
				<ele>185.753</ele>
				<time>2015-07-04T02:28:05Z</time>
				<extensions>
				</extensions>
			</trkpt>
			<trkpt lat="-28.600037" lon="153.058934">
				<ele>189.184</ele>
				<time>2015-07-04T02:28:07Z</time>
				<extensions>
				</extensions>
			</trkpt>
			<trkpt lat="-28.599865" lon="153.059024">
				<ele>190.045</ele>
				<time>2015-07-04T02:28:08Z</time>
				<extensions>
				</extensions>
			</trkpt>
			<trkpt lat="-28.599691" lon="153.059108">
				<ele>190.875</ele>
				<time>2015-07-04T02:28:09Z</time>
				<extensions>
				</extensions>
			</trkpt>
			<trkpt lat="-28.599519" lon="153.059187">
				<ele>192.138</ele>
				<time>2015-07-04T02:28:10Z</time>
				<extensions>
				</extensions>
			</trkpt>
			<trkpt lat="-28.599348" lon="153.059269">
				<ele>193.356</ele>
				<time>2015-07-04T02:28:11Z</time>
				<extensions>
				</extensions>
			</trkpt>
			<trkpt lat="-28.599181" lon="153.059346">
				<ele>195.819</ele>
				<time>2015-07-04T02:28:12Z</time>
				<extensions>
				</extensions>
			</trkpt>
			<trkpt lat="-28.599012" lon="153.059419">
				<ele>196.873</ele>
				<time>2015-07-04T02:28:13Z</time>
				<extensions>
				</extensions>
			</trkpt>
			<trkpt lat="-28.598682" lon="153.059552">
				<ele>199.041</ele>
				<time>2015-07-04T02:28:15Z</time>
				<extensions>
				</extensions>
			</trkpt>
			<trkpt lat="-28.598354" lon="153.059686">
				<ele>201.458</ele>
				<time>2015-07-04T02:28:17Z</time>
				<extensions>
				</extensions>
			</trkpt>
			<trkpt lat="-28.598058" lon="153.059807">
				<ele>202.130</ele>
				<time>2015-07-04T02:28:19Z</time>
				<extensions>
				</extensions>
			</trkpt>
			<trkpt lat="-28.597786" lon="153.059926">
				<ele>202.786</ele>
				<time>2015-07-04T02:28:21Z</time>
				<extensions>
				</extensions>
			</trkpt>
			<trkpt lat="-28.597539" lon="153.060082">
				<ele>203.018</ele>
				<time>2015-07-04T02:28:23Z</time>
				<extensions>
				</extensions>
			</trkpt>
			<trkpt lat="-28.597296" lon="153.060318">
				<ele>204.863</ele>
				<time>2015-07-04T02:28:25Z</time>
				<extensions>
				</extensions>
			</trkpt>
			<trkpt lat="-28.597075" lon="153.060647">
				<ele>207.981</ele>
				<time>2015-07-04T02:28:27Z</time>
				<extensions>
				</extensions>
			</trkpt>
			<trkpt lat="-28.596954" lon="153.060831">
				<ele>211.724</ele>
				<time>2015-07-04T02:28:28Z</time>
				<extensions>
				</extensions>
			</trkpt>
			<trkpt lat="-28.596837" lon="153.061016">
				<ele>211.778</ele>
				<time>2015-07-04T02:28:29Z</time>
				<extensions>
				</extensions>
			</trkpt>
			<trkpt lat="-28.596727" lon="153.061191">
				<ele>209.522</ele>
				<time>2015-07-04T02:28:30Z</time>
				<extensions>
				</extensions>
			</trkpt>
			<trkpt lat="-28.596612" lon="153.061374">
				<ele>208.502</ele>
				<time>2015-07-04T02:28:31Z</time>
				<extensions>
				</extensions>
			</trkpt>
			<trkpt lat="-28.596495" lon="153.061560">
				<ele>208.456</ele>
				<time>2015-07-04T02:28:32Z</time>
				<extensions>
				</extensions>
			</trkpt>
			<trkpt lat="-28.596371" lon="153.061752">
				<ele>209.622</ele>
				<time>2015-07-04T02:28:33Z</time>
				<extensions>
				</extensions>
			</trkpt>
			<trkpt lat="-28.596250" lon="153.061936">
				<ele>208.762</ele>
				<time>2015-07-04T02:28:34Z</time>
				<extensions>
				</extensions>
			</trkpt>
			<trkpt lat="-28.596136" lon="153.062115">
				<ele>207.625</ele>
				<time>2015-07-04T02:28:35Z</time>
				<extensions>
				</extensions>
			</trkpt>
			<trkpt lat="-28.596025" lon="153.062292">
				<ele>207.074</ele>
				<time>2015-07-04T02:28:36Z</time>
				<extensions>
				</extensions>
			</trkpt>
			<trkpt lat="-28.595915" lon="153.062466">
				<ele>208.152</ele>
				<time>2015-07-04T02:28:37Z</time>
				<extensions>
				</extensions>
			</trkpt>
			<trkpt lat="-28.595803" lon="153.062639">
				<ele>209.260</ele>
				<time>2015-07-04T02:28:38Z</time>
				<extensions>
				</extensions>
			</trkpt>
			<trkpt lat="-28.595690" lon="153.062814">
				<ele>209.218</ele>
				<time>2015-07-04T02:28:39Z</time>
				<extensions>
				</extensions>
			</trkpt>
			<trkpt lat="-28.595581" lon="153.062985">
				<ele>208.989</ele>
				<time>2015-07-04T02:28:40Z</time>
				<extensions>
				</extensions>
			</trkpt>
			<trkpt lat="-28.595473" lon="153.063154">
				<ele>209.554</ele>
				<time>2015-07-04T02:28:41Z</time>
				<extensions>
				</extensions>
			</trkpt>
			<trkpt lat="-28.595274" lon="153.063492">
				<ele>211.287</ele>
				<time>2015-07-04T02:28:43Z</time>
				<extensions>
				</extensions>
			</trkpt>
			<trkpt lat="-28.595115" lon="153.063850">
				<ele>211.073</ele>
				<time>2015-07-04T02:28:45Z</time>
				<extensions>
				</extensions>
			</trkpt>
			<trkpt lat="-28.595042" lon="153.064248">
				<ele>212.073</ele>
				<time>2015-07-04T02:28:47Z</time>
				<extensions>
				</extensions>
			</trkpt>
			<trkpt lat="-28.595022" lon="153.064456">
				<ele>213.812</ele>
				<time>2015-07-04T02:28:48Z</time>
				<extensions>
				</extensions>
			</trkpt>
			<trkpt lat="-28.594960" lon="153.064834">
				<ele>215.618</ele>
				<time>2015-07-04T02:28:50Z</time>
				<extensions>
				</extensions>
			</trkpt>
			<trkpt lat="-28.594832" lon="153.065203">
				<ele>218.917</ele>
				<time>2015-07-04T02:28:52Z</time>
				<extensions>
				</extensions>
			</trkpt>
			<trkpt lat="-28.594687" lon="153.065561">
				<ele>221.554</ele>
				<time>2015-07-04T02:28:54Z</time>
				<extensions>
				</extensions>
			</trkpt>
			<trkpt lat="-28.594535" lon="153.065905">
				<ele>223.800</ele>
				<time>2015-07-04T02:28:56Z</time>
				<extensions>
				</extensions>
			</trkpt>
			<trkpt lat="-28.594384" lon="153.066247">
				<ele>225.639</ele>
				<time>2015-07-04T02:28:58Z</time>
				<extensions>
				</extensions>
			</trkpt>
			<trkpt lat="-28.594244" lon="153.066560">
				<ele>225.878</ele>
				<time>2015-07-04T02:29:00Z</time>
				<extensions>
				</extensions>
			</trkpt>
			<trkpt lat="-28.594115" lon="153.066851">
				<ele>227.980</ele>
				<time>2015-07-04T02:29:02Z</time>
				<extensions>
				</extensions>
			</trkpt>
			<trkpt lat="-28.593993" lon="153.067117">
				<ele>229.900</ele>
				<time>2015-07-04T02:29:04Z</time>
				<extensions>
				</extensions>
			</trkpt>
			<trkpt lat="-28.593894" lon="153.067381">
				<ele>231.823</ele>
				<time>2015-07-04T02:29:06Z</time>
				<extensions>
				</extensions>
			</trkpt>
			<trkpt lat="-28.593852" lon="153.067668">
				<ele>233.046</ele>
				<time>2015-07-04T02:29:08Z</time>
				<extensions>
				</extensions>
			</trkpt>
			<trkpt lat="-28.593936" lon="153.067971">
				<ele>235.479</ele>
				<time>2015-07-04T02:29:10Z</time>
				<extensions>
				</extensions>
			</trkpt>
			<trkpt lat="-28.594142" lon="153.068248">
				<ele>240.080</ele>
				<time>2015-07-04T02:29:12Z</time>
				<extensions>
				</extensions>
			</trkpt>
			<trkpt lat="-28.594403" lon="153.068501">
				<ele>244.160</ele>
				<time>2015-07-04T02:29:14Z</time>
				<extensions>
				</extensions>
			</trkpt>
			<trkpt lat="-28.594621" lon="153.068754">
				<ele>245.932</ele>
				<time>2015-07-04T02:29:16Z</time>
				<extensions>
				</extensions>
			</trkpt>
			<trkpt lat="-28.594788" lon="153.069044">
				<ele>248.195</ele>
				<time>2015-07-04T02:29:18Z</time>
				<extensions>
				</extensions>
			</trkpt>
			<trkpt lat="-28.594934" lon="153.069336">
				<ele>249.476</ele>
				<time>2015-07-04T02:29:20Z</time>
				<extensions>
				</extensions>
			</trkpt>
			<trkpt lat="-28.595078" lon="153.069638">
				<ele>251.718</ele>
				<time>2015-07-04T02:29:22Z</time>
				<extensions>
				</extensions>
			</trkpt>
			<trkpt lat="-28.595218" lon="153.069913">
				<ele>253.246</ele>
				<time>2015-07-04T02:29:24Z</time>
				<extensions>
				</extensions>
			</trkpt>
			<trkpt lat="-28.595353" lon="153.070171">
				<ele>254.567</ele>
				<time>2015-07-04T02:29:26Z</time>
				<extensions>
				</extensions>
			</trkpt>
			<trkpt lat="-28.595493" lon="153.070387">
				<ele>255.566</ele>
				<time>2015-07-04T02:29:28Z</time>
				<extensions>
				</extensions>
			</trkpt>
			<trkpt lat="-28.595627" lon="153.070555">
				<ele>255.832</ele>
				<time>2015-07-04T02:29:30Z</time>
				<extensions>
				</extensions>
			</trkpt>
			<trkpt lat="-28.595733" lon="153.070725">
				<ele>257.842</ele>
				<time>2015-07-04T02:29:32Z</time>
				<extensions>
				</extensions>
			</trkpt>
			<trkpt lat="-28.595764" lon="153.070930">
				<ele>260.360</ele>
				<time>2015-07-04T02:29:34Z</time>
				<extensions>
				</extensions>
			</trkpt>
			<trkpt lat="-28.595606" lon="153.071119">
				<ele>264.076</ele>
				<time>2015-07-04T02:29:37Z</time>
				<extensions>
				</extensions>
			</trkpt>
			<trkpt lat="-28.595320" lon="153.071145">
				<ele>266.404</ele>
				<time>2015-07-04T02:29:39Z</time>
				<extensions>
				</extensions>
			</trkpt>
			<trkpt lat="-28.595027" lon="153.071082">
				<ele>269.199</ele>
				<time>2015-07-04T02:29:41Z</time>
				<extensions>
				</extensions>
			</trkpt>
			<trkpt lat="-28.594769" lon="153.070960">
				<ele>267.945</ele>
				<time>2015-07-04T02:29:43Z</time>
				<extensions>
				</extensions>
			</trkpt>
			<trkpt lat="-28.594557" lon="153.070874">
				<ele>267.486</ele>
				<time>2015-07-04T02:29:45Z</time>
				<extensions>
				</extensions>
			</trkpt>
			<trkpt lat="-28.594363" lon="153.070910">
				<ele>267.674</ele>
				<time>2015-07-04T02:29:47Z</time>
				<extensions>
				</extensions>
			</trkpt>
			<trkpt lat="-28.594240" lon="153.071064">
				<ele>269.195</ele>
				<time>2015-07-04T02:29:49Z</time>
				<extensions>
				</extensions>
			</trkpt>
			<trkpt lat="-28.594226" lon="153.071299">
				<ele>272.072</ele>
				<time>2015-07-04T02:29:51Z</time>
				<extensions>
				</extensions>
			</trkpt>
			<trkpt lat="-28.594264" lon="153.071627">
				<ele>275.285</ele>
				<time>2015-07-04T02:29:53Z</time>
				<extensions>
				</extensions>
			</trkpt>
			<trkpt lat="-28.594307" lon="153.071921">
				<ele>278.797</ele>
				<time>2015-07-04T02:29:55Z</time>
				<extensions>
				</extensions>
			</trkpt>
			<trkpt lat="-28.594394" lon="153.072163">
				<ele>279.479</ele>
				<time>2015-07-04T02:29:57Z</time>
				<extensions>
				</extensions>
			</trkpt>
			<trkpt lat="-28.594562" lon="153.072365">
				<ele>282.906</ele>
				<time>2015-07-04T02:29:59Z</time>
				<extensions>
				</extensions>
			</trkpt>
			<trkpt lat="-28.594787" lon="153.072513">
				<ele>286.339</ele>
				<time>2015-07-04T02:30:01Z</time>
				<extensions>
				</extensions>
			</trkpt>
			<trkpt lat="-28.595019" lon="153.072659">
				<ele>288.192</ele>
				<time>2015-07-04T02:30:03Z</time>
				<extensions>
				</extensions>
			</trkpt>
			<trkpt lat="-28.595221" lon="153.072815">
				<ele>289.102</ele>
				<time>2015-07-04T02:30:05Z</time>
				<extensions>
				</extensions>
			</trkpt>
			<trkpt lat="-28.595422" lon="153.072952">
				<ele>290.530</ele>
				<time>2015-07-04T02:30:07Z</time>
				<extensions>
				</extensions>
			</trkpt>
			<trkpt lat="-28.595589" lon="153.073063">
				<ele>291.399</ele>
				<time>2015-07-04T02:30:09Z</time>
				<extensions>
				</extensions>
			</trkpt>
			<trkpt lat="-28.595731" lon="153.073215">
				<ele>293.083</ele>
				<time>2015-07-04T02:30:11Z</time>
				<extensions>
				</extensions>
			</trkpt>
			<trkpt lat="-28.595799" lon="153.073418">
				<ele>295.804</ele>
				<time>2015-07-04T02:30:13Z</time>
				<extensions>
				</extensions>
			</trkpt>
			<trkpt lat="-28.595714" lon="153.073606">
				<ele>297.728</ele>
				<time>2015-07-04T02:30:15Z</time>
				<extensions>
				</extensions>
			</trkpt>
			<trkpt lat="-28.595488" lon="153.073711">
				<ele>300.660</ele>
				<time>2015-07-04T02:30:17Z</time>
				<extensions>
				</extensions>
			</trkpt>
			<trkpt lat="-28.595244" lon="153.073802">
				<ele>302.536</ele>
				<time>2015-07-04T02:30:19Z</time>
				<extensions>
				</extensions>
			</trkpt>
			<trkpt lat="-28.595053" lon="153.073889">
				<ele>302.571</ele>
				<time>2015-07-04T02:30:21Z</time>
				<extensions>
				</extensions>
			</trkpt>
			<trkpt lat="-28.594923" lon="153.074043">
				<ele>302.520</ele>
				<time>2015-07-04T02:30:23Z</time>
				<extensions>
				</extensions>
			</trkpt>
			<trkpt lat="-28.594913" lon="153.074257">
				<ele>302.539</ele>
				<time>2015-07-04T02:30:25Z</time>
				<extensions>
				</extensions>
			</trkpt>
			<trkpt lat="-28.595033" lon="153.074413">
				<ele>303.158</ele>
				<time>2015-07-04T02:30:27Z</time>
				<extensions>
				</extensions>
			</trkpt>
			<trkpt lat="-28.595168" lon="153.074590">
				<ele>302.731</ele>
				<time>2015-07-04T02:30:29Z</time>
				<extensions>
				</extensions>
			</trkpt>
			<trkpt lat="-28.595190" lon="153.074844">
				<ele>304.688</ele>
				<time>2015-07-04T02:30:31Z</time>
				<extensions>
				</extensions>
			</trkpt>
			<trkpt lat="-28.595081" lon="153.075109">
				<ele>307.733</ele>
				<time>2015-07-04T02:30:33Z</time>
				<extensions>
				</extensions>
			</trkpt>
			<trkpt lat="-28.594984" lon="153.075368">
				<ele>308.521</ele>
				<time>2015-07-04T02:30:35Z</time>
				<extensions>
				</extensions>
			</trkpt>
			<trkpt lat="-28.594952" lon="153.075647">
				<ele>309.424</ele>
				<time>2015-07-04T02:30:37Z</time>
				<extensions>
				</extensions>
			</trkpt>
			<trkpt lat="-28.594960" lon="153.075920">
				<ele>309.011</ele>
				<time>2015-07-04T02:30:39Z</time>
				<extensions>
				</extensions>
			</trkpt>
			<trkpt lat="-28.594899" lon="153.076197">
				<ele>309.253</ele>
				<time>2015-07-04T02:30:41Z</time>
				<extensions>
				</extensions>
			</trkpt>
			<trkpt lat="-28.594782" lon="153.076438">
				<ele>309.181</ele>
				<time>2015-07-04T02:30:43Z</time>
				<extensions>
				</extensions>
			</trkpt>
			<trkpt lat="-28.594701" lon="153.076668">
				<ele>308.210</ele>
				<time>2015-07-04T02:30:45Z</time>
				<extensions>
				</extensions>
			</trkpt>
			<trkpt lat="-28.594707" lon="153.076919">
				<ele>309.754</ele>
				<time>2015-07-04T02:30:47Z</time>
				<extensions>
				</extensions>
			</trkpt>
			<trkpt lat="-28.594778" lon="153.077198">
				<ele>311.565</ele>
				<time>2015-07-04T02:30:49Z</time>
				<extensions>
				</extensions>
			</trkpt>
			<trkpt lat="-28.594876" lon="153.077466">
				<ele>310.969</ele>
				<time>2015-07-04T02:30:51Z</time>
				<extensions>
				</extensions>
			</trkpt>
			<trkpt lat="-28.594936" lon="153.077766">
				<ele>310.872</ele>
				<time>2015-07-04T02:30:53Z</time>
				<extensions>
				</extensions>
			</trkpt>
			<trkpt lat="-28.594937" lon="153.078069">
				<ele>309.827</ele>
				<time>2015-07-04T02:30:55Z</time>
				<extensions>
				</extensions>
			</trkpt>
			<trkpt lat="-28.594870" lon="153.078379">
				<ele>308.179</ele>
				<time>2015-07-04T02:30:57Z</time>
				<extensions>
				</extensions>
			</trkpt>
			<trkpt lat="-28.594747" lon="153.078695">
				<ele>305.628</ele>
				<time>2015-07-04T02:30:59Z</time>
				<extensions>
				</extensions>
			</trkpt>
			<trkpt lat="-28.594599" lon="153.078988">
				<ele>301.997</ele>
				<time>2015-07-04T02:31:01Z</time>
				<extensions>
				</extensions>
			</trkpt>
			<trkpt lat="-28.594447" lon="153.079253">
				<ele>297.904</ele>
				<time>2015-07-04T02:31:03Z</time>
				<extensions>
				</extensions>
			</trkpt>
			<trkpt lat="-28.594325" lon="153.079505">
				<ele>295.896</ele>
				<time>2015-07-04T02:31:05Z</time>
				<extensions>
				</extensions>
			</trkpt>
			<trkpt lat="-28.594248" lon="153.079751">
				<ele>294.308</ele>
				<time>2015-07-04T02:31:07Z</time>
				<extensions>
				</extensions>
			</trkpt>
			<trkpt lat="-28.594167" lon="153.079978">
				<ele>293.205</ele>
				<time>2015-07-04T02:31:09Z</time>
				<extensions>
				</extensions>
			</trkpt>
			<trkpt lat="-28.594066" lon="153.080179">
				<ele>291.821</ele>
				<time>2015-07-04T02:31:11Z</time>
				<extensions>
				</extensions>
			</trkpt>
			<trkpt lat="-28.593956" lon="153.080350">
				<ele>290.400</ele>
				<time>2015-07-04T02:31:13Z</time>
				<extensions>
				</extensions>
			</trkpt>
			<trkpt lat="-28.593864" lon="153.080553">
				<ele>288.908</ele>
				<time>2015-07-04T02:31:15Z</time>
				<extensions>
				</extensions>
			</trkpt>
			<trkpt lat="-28.593820" lon="153.080764">
				<ele>288.264</ele>
				<time>2015-07-04T02:31:17Z</time>
				<extensions>
				</extensions>
			</trkpt>
			<trkpt lat="-28.593843" lon="153.081009">
				<ele>287.986</ele>
				<time>2015-07-04T02:31:19Z</time>
				<extensions>
				</extensions>
			</trkpt>
			<trkpt lat="-28.593960" lon="153.081214">
				<ele>286.898</ele>
				<time>2015-07-04T02:31:21Z</time>
				<extensions>
				</extensions>
			</trkpt>
			<trkpt lat="-28.594122" lon="153.081406">
				<ele>284.097</ele>
				<time>2015-07-04T02:31:23Z</time>
				<extensions>
				</extensions>
			</trkpt>
			<trkpt lat="-28.594321" lon="153.081618">
				<ele>282.439</ele>
				<time>2015-07-04T02:31:25Z</time>
				<extensions>
				</extensions>
			</trkpt>
			<trkpt lat="-28.594488" lon="153.081809">
				<ele>277.725</ele>
				<time>2015-07-04T02:31:27Z</time>
				<extensions>
				</extensions>
			</trkpt>
			<trkpt lat="-28.594604" lon="153.081988">
				<ele>274.096</ele>
				<time>2015-07-04T02:31:29Z</time>
				<extensions>
				</extensions>
			</trkpt>
			<trkpt lat="-28.594529" lon="153.082217">
				<ele>271.217</ele>
				<time>2015-07-04T02:31:32Z</time>
				<extensions>
				</extensions>
			</trkpt>
			<trkpt lat="-28.594315" lon="153.082262">
				<ele>268.260</ele>
				<time>2015-07-04T02:31:34Z</time>
				<extensions>
				</extensions>
			</trkpt>
			<trkpt lat="-28.594107" lon="153.082260">
				<ele>265.683</ele>
				<time>2015-07-04T02:31:37Z</time>
				<extensions>
				</extensions>
			</trkpt>
			<trkpt lat="-28.593938" lon="153.082422">
				<ele>263.745</ele>
				<time>2015-07-04T02:31:39Z</time>
				<extensions>
				</extensions>
			</trkpt>
			<trkpt lat="-28.593835" lon="153.082607">
				<ele>263.721</ele>
				<time>2015-07-04T02:31:41Z</time>
				<extensions>
				</extensions>
			</trkpt>
			<trkpt lat="-28.593774" lon="153.082883">
				<ele>263.161</ele>
				<time>2015-07-04T02:31:43Z</time>
				<extensions>
				</extensions>
			</trkpt>
			<trkpt lat="-28.593726" lon="153.083135">
				<ele>261.095</ele>
				<time>2015-07-04T02:31:45Z</time>
				<extensions>
				</extensions>
			</trkpt>
			<trkpt lat="-28.593672" lon="153.083380">
				<ele>258.756</ele>
				<time>2015-07-04T02:31:47Z</time>
				<extensions>
				</extensions>
			</trkpt>
			<trkpt lat="-28.593645" lon="153.083590">
				<ele>257.558</ele>
				<time>2015-07-04T02:31:49Z</time>
				<extensions>
				</extensions>
			</trkpt>
			<trkpt lat="-28.593579" lon="153.083815">
				<ele>256.707</ele>
				<time>2015-07-04T02:31:51Z</time>
				<extensions>
				</extensions>
			</trkpt>
			<trkpt lat="-28.593492" lon="153.084050">
				<ele>255.960</ele>
				<time>2015-07-04T02:31:53Z</time>
				<extensions>
				</extensions>
			</trkpt>
			<trkpt lat="-28.593433" lon="153.084396">
				<ele>253.860</ele>
				<time>2015-07-04T02:31:56Z</time>
				<extensions>
				</extensions>
			</trkpt>
			<trkpt lat="-28.593451" lon="153.084620">
				<ele>253.387</ele>
				<time>2015-07-04T02:31:58Z</time>
				<extensions>
				</extensions>
			</trkpt>
			<trkpt lat="-28.593490" lon="153.084876">
				<ele>252.384</ele>
				<time>2015-07-04T02:32:00Z</time>
				<extensions>
				</extensions>
			</trkpt>
			<trkpt lat="-28.593555" lon="153.085128">
				<ele>250.864</ele>
				<time>2015-07-04T02:32:02Z</time>
				<extensions>
				</extensions>
			</trkpt>
			<trkpt lat="-28.593607" lon="153.085353">
				<ele>249.011</ele>
				<time>2015-07-04T02:32:04Z</time>
				<extensions>
				</extensions>
			</trkpt>
			<trkpt lat="-28.593620" lon="153.085603">
				<ele>246.090</ele>
				<time>2015-07-04T02:32:06Z</time>
				<extensions>
				</extensions>
			</trkpt>
			<trkpt lat="-28.593557" lon="153.085813">
				<ele>244.112</ele>
				<time>2015-07-04T02:32:08Z</time>
				<extensions>
				</extensions>
			</trkpt>
			<trkpt lat="-28.593438" lon="153.085985">
				<ele>242.458</ele>
				<time>2015-07-04T02:32:10Z</time>
				<extensions>
				</extensions>
			</trkpt>
			<trkpt lat="-28.593317" lon="153.086199">
				<ele>240.485</ele>
				<time>2015-07-04T02:32:12Z</time>
				<extensions>
				</extensions>
			</trkpt>
			<trkpt lat="-28.593310" lon="153.086448">
				<ele>239.072</ele>
				<time>2015-07-04T02:32:14Z</time>
				<extensions>
				</extensions>
			</trkpt>
			<trkpt lat="-28.593340" lon="153.086685">
				<ele>237.404</ele>
				<time>2015-07-04T02:32:16Z</time>
				<extensions>
				</extensions>
			</trkpt>
			<trkpt lat="-28.593452" lon="153.086873">
				<ele>235.892</ele>
				<time>2015-07-04T02:32:18Z</time>
				<extensions>
				</extensions>
			</trkpt>
			<trkpt lat="-28.593598" lon="153.087049">
				<ele>234.302</ele>
				<time>2015-07-04T02:32:20Z</time>
				<extensions>
				</extensions>
			</trkpt>
			<trkpt lat="-28.593744" lon="153.087225">
				<ele>232.352</ele>
				<time>2015-07-04T02:32:22Z</time>
				<extensions>
				</extensions>
			</trkpt>
			<trkpt lat="-28.593857" lon="153.087418">
				<ele>230.806</ele>
				<time>2015-07-04T02:32:24Z</time>
				<extensions>
				</extensions>
			</trkpt>
			<trkpt lat="-28.593910" lon="153.087626">
				<ele>229.256</ele>
				<time>2015-07-04T02:32:26Z</time>
				<extensions>
				</extensions>
			</trkpt>
			<trkpt lat="-28.593888" lon="153.087839">
				<ele>228.461</ele>
				<time>2015-07-04T02:32:28Z</time>
				<extensions>
				</extensions>
			</trkpt>
			<trkpt lat="-28.593819" lon="153.088038">
				<ele>228.370</ele>
				<time>2015-07-04T02:32:30Z</time>
				<extensions>
				</extensions>
			</trkpt>
			<trkpt lat="-28.593689" lon="153.088216">
				<ele>228.026</ele>
				<time>2015-07-04T02:32:32Z</time>
				<extensions>
				</extensions>
			</trkpt>
			<trkpt lat="-28.593514" lon="153.088359">
				<ele>227.937</ele>
				<time>2015-07-04T02:32:34Z</time>
				<extensions>
				</extensions>
			</trkpt>
			<trkpt lat="-28.593344" lon="153.088476">
				<ele>226.060</ele>
				<time>2015-07-04T02:32:36Z</time>
				<extensions>
				</extensions>
			</trkpt>
			<trkpt lat="-28.593155" lon="153.088620">
				<ele>224.322</ele>
				<time>2015-07-04T02:32:38Z</time>
				<extensions>
				</extensions>
			</trkpt>
			<trkpt lat="-28.592998" lon="153.088803">
				<ele>222.693</ele>
				<time>2015-07-04T02:32:40Z</time>
				<extensions>
				</extensions>
			</trkpt>
			<trkpt lat="-28.592902" lon="153.089014">
				<ele>221.256</ele>
				<time>2015-07-04T02:32:42Z</time>
				<extensions>
				</extensions>
			</trkpt>
			<trkpt lat="-28.592884" lon="153.089246">
				<ele>219.731</ele>
				<time>2015-07-04T02:32:44Z</time>
				<extensions>
				</extensions>
			</trkpt>
			<trkpt lat="-28.592933" lon="153.089524">
				<ele>219.327</ele>
				<time>2015-07-04T02:32:46Z</time>
				<extensions>
				</extensions>
			</trkpt>
			<trkpt lat="-28.593061" lon="153.089736">
				<ele>218.033</ele>
				<time>2015-07-04T02:32:48Z</time>
				<extensions>
				</extensions>
			</trkpt>
			<trkpt lat="-28.593240" lon="153.089925">
				<ele>218.370</ele>
				<time>2015-07-04T02:32:50Z</time>
				<extensions>
				</extensions>
			</trkpt>
			<trkpt lat="-28.593428" lon="153.090101">
				<ele>216.020</ele>
				<time>2015-07-04T02:32:52Z</time>
				<extensions>
				</extensions>
			</trkpt>
			<trkpt lat="-28.593617" lon="153.090275">
				<ele>214.079</ele>
				<time>2015-07-04T02:32:54Z</time>
				<extensions>
				</extensions>
			</trkpt>
			<trkpt lat="-28.593819" lon="153.090377">
				<ele>212.598</ele>
				<time>2015-07-04T02:32:56Z</time>
				<extensions>
				</extensions>
			</trkpt>
			<trkpt lat="-28.594038" lon="153.090395">
				<ele>211.414</ele>
				<time>2015-07-04T02:32:58Z</time>
				<extensions>
				</extensions>
			</trkpt>
			<trkpt lat="-28.594253" lon="153.090329">
				<ele>211.049</ele>
				<time>2015-07-04T02:33:00Z</time>
				<extensions>
				</extensions>
			</trkpt>
			<trkpt lat="-28.594458" lon="153.090174">
				<ele>210.018</ele>
				<time>2015-07-04T02:33:02Z</time>
				<extensions>
				</extensions>
			</trkpt>
			<trkpt lat="-28.594653" lon="153.089984">
				<ele>209.720</ele>
				<time>2015-07-04T02:33:04Z</time>
				<extensions>
				</extensions>
			</trkpt>
			<trkpt lat="-28.594837" lon="153.089760">
				<ele>208.705</ele>
				<time>2015-07-04T02:33:06Z</time>
				<extensions>
				</extensions>
			</trkpt>
			<trkpt lat="-28.594999" lon="153.089498">
				<ele>207.869</ele>
				<time>2015-07-04T02:33:08Z</time>
				<extensions>
				</extensions>
			</trkpt>
			<trkpt lat="-28.595121" lon="153.089215">
				<ele>206.731</ele>
				<time>2015-07-04T02:33:10Z</time>
				<extensions>
				</extensions>
			</trkpt>
			<trkpt lat="-28.595211" lon="153.088912">
				<ele>205.035</ele>
				<time>2015-07-04T02:33:12Z</time>
				<extensions>
				</extensions>
			</trkpt>
			<trkpt lat="-28.595256" lon="153.088623">
				<ele>203.449</ele>
				<time>2015-07-04T02:33:14Z</time>
				<extensions>
				</extensions>
			</trkpt>
			<trkpt lat="-28.595265" lon="153.088325">
				<ele>201.844</ele>
				<time>2015-07-04T02:33:16Z</time>
				<extensions>
				</extensions>
			</trkpt>
			<trkpt lat="-28.595234" lon="153.088058">
				<ele>200.674</ele>
				<time>2015-07-04T02:33:18Z</time>
				<extensions>
				</extensions>
			</trkpt>
			<trkpt lat="-28.595184" lon="153.087748">
				<ele>199.344</ele>
				<time>2015-07-04T02:33:20Z</time>
				<extensions>
				</extensions>
			</trkpt>
			<trkpt lat="-28.595172" lon="153.087517">
				<ele>196.522</ele>
				<time>2015-07-04T02:33:22Z</time>
				<extensions>
				</extensions>
			</trkpt>
			<trkpt lat="-28.595169" lon="153.087233">
				<ele>193.820</ele>
				<time>2015-07-04T02:33:25Z</time>
				<extensions>
				</extensions>
			</trkpt>
			<trkpt lat="-28.595369" lon="153.087102">
				<ele>192.424</ele>
				<time>2015-07-04T02:33:28Z</time>
				<extensions>
				</extensions>
			</trkpt>
			<trkpt lat="-28.595538" lon="153.087211">
				<ele>192.250</ele>
				<time>2015-07-04T02:33:30Z</time>
				<extensions>
				</extensions>
			</trkpt>
			<trkpt lat="-28.595676" lon="153.087428">
				<ele>194.029</ele>
				<time>2015-07-04T02:33:32Z</time>
				<extensions>
				</extensions>
			</trkpt>
			<trkpt lat="-28.595854" lon="153.087712">
				<ele>192.718</ele>
				<time>2015-07-04T02:33:34Z</time>
				<extensions>
				</extensions>
			</trkpt>
			<trkpt lat="-28.595998" lon="153.087968">
				<ele>191.636</ele>
				<time>2015-07-04T02:33:36Z</time>
				<extensions>
				</extensions>
			</trkpt>
			<trkpt lat="-28.596116" lon="153.088243">
				<ele>190.103</ele>
				<time>2015-07-04T02:33:38Z</time>
				<extensions>
				</extensions>
			</trkpt>
			<trkpt lat="-28.596205" lon="153.088539">
				<ele>187.925</ele>
				<time>2015-07-04T02:33:40Z</time>
				<extensions>
				</extensions>
			</trkpt>
			<trkpt lat="-28.596284" lon="153.088810">
				<ele>186.038</ele>
				<time>2015-07-04T02:33:42Z</time>
				<extensions>
				</extensions>
			</trkpt>
			<trkpt lat="-28.596409" lon="153.089064">
				<ele>183.359</ele>
				<time>2015-07-04T02:33:44Z</time>
				<extensions>
				</extensions>
			</trkpt>
			<trkpt lat="-28.596583" lon="153.089248">
				<ele>182.483</ele>
				<time>2015-07-04T02:33:46Z</time>
				<extensions>
				</extensions>
			</trkpt>
			<trkpt lat="-28.596789" lon="153.089426">
				<ele>181.329</ele>
				<time>2015-07-04T02:33:48Z</time>
				<extensions>
				</extensions>
			</trkpt>
			<trkpt lat="-28.596980" lon="153.089614">
				<ele>179.829</ele>
				<time>2015-07-04T02:33:50Z</time>
				<extensions>
				</extensions>
			</trkpt>
			<trkpt lat="-28.597173" lon="153.089798">
				<ele>178.156</ele>
				<time>2015-07-04T02:33:52Z</time>
				<extensions>
				</extensions>
			</trkpt>
			<trkpt lat="-28.597342" lon="153.089987">
				<ele>176.810</ele>
				<time>2015-07-04T02:33:54Z</time>
				<extensions>
				</extensions>
			</trkpt>
			<trkpt lat="-28.597430" lon="153.090234">
				<ele>176.383</ele>
				<time>2015-07-04T02:33:56Z</time>
				<extensions>
				</extensions>
			</trkpt>
			<trkpt lat="-28.597468" lon="153.090526">
				<ele>175.870</ele>
				<time>2015-07-04T02:33:58Z</time>
				<extensions>
				</extensions>
			</trkpt>
			<trkpt lat="-28.597488" lon="153.090818">
				<ele>174.023</ele>
				<time>2015-07-04T02:34:00Z</time>
				<extensions>
				</extensions>
			</trkpt>
			<trkpt lat="-28.597521" lon="153.091114">
				<ele>170.374</ele>
				<time>2015-07-04T02:34:02Z</time>
				<extensions>
				</extensions>
			</trkpt>
			<trkpt lat="-28.597569" lon="153.091416">
				<ele>167.832</ele>
				<time>2015-07-04T02:34:04Z</time>
				<extensions>
				</extensions>
			</trkpt>
			<trkpt lat="-28.597643" lon="153.091677">
				<ele>166.239</ele>
				<time>2015-07-04T02:34:06Z</time>
				<extensions>
				</extensions>
			</trkpt>
			<trkpt lat="-28.597781" lon="153.091909">
				<ele>164.989</ele>
				<time>2015-07-04T02:34:08Z</time>
				<extensions>
				</extensions>
			</trkpt>
			<trkpt lat="-28.597962" lon="153.092099">
				<ele>164.614</ele>
				<time>2015-07-04T02:34:10Z</time>
				<extensions>
				</extensions>
			</trkpt>
			<trkpt lat="-28.598190" lon="153.092247">
				<ele>163.708</ele>
				<time>2015-07-04T02:34:12Z</time>
				<extensions>
				</extensions>
			</trkpt>
			<trkpt lat="-28.598396" lon="153.092403">
				<ele>162.872</ele>
				<time>2015-07-04T02:34:14Z</time>
				<extensions>
				</extensions>
			</trkpt>
			<trkpt lat="-28.598581" lon="153.092547">
				<ele>160.524</ele>
				<time>2015-07-04T02:34:16Z</time>
				<extensions>
				</extensions>
			</trkpt>
			<trkpt lat="-28.598773" lon="153.092682">
				<ele>159.210</ele>
				<time>2015-07-04T02:34:18Z</time>
				<extensions>
				</extensions>
			</trkpt>
			<trkpt lat="-28.598979" lon="153.092775">
				<ele>157.195</ele>
				<time>2015-07-04T02:34:20Z</time>
				<extensions>
				</extensions>
			</trkpt>
			<trkpt lat="-28.599195" lon="153.092803">
				<ele>155.637</ele>
				<time>2015-07-04T02:34:22Z</time>
				<extensions>
				</extensions>
			</trkpt>
			<trkpt lat="-28.599413" lon="153.092728">
				<ele>153.715</ele>
				<time>2015-07-04T02:34:24Z</time>
				<extensions>
				</extensions>
			</trkpt>
			<trkpt lat="-28.599590" lon="153.092597">
				<ele>152.555</ele>
				<time>2015-07-04T02:34:26Z</time>
				<extensions>
				</extensions>
			</trkpt>
			<trkpt lat="-28.599724" lon="153.092430">
				<ele>151.902</ele>
				<time>2015-07-04T02:34:28Z</time>
				<extensions>
				</extensions>
			</trkpt>
			<trkpt lat="-28.599850" lon="153.092267">
				<ele>150.212</ele>
				<time>2015-07-04T02:34:30Z</time>
				<extensions>
				</extensions>
			</trkpt>
			<trkpt lat="-28.600104" lon="153.092139">
				<ele>148.197</ele>
				<time>2015-07-04T02:34:33Z</time>
				<extensions>
				</extensions>
			</trkpt>
			<trkpt lat="-28.600380" lon="153.092314">
				<ele>148.519</ele>
				<time>2015-07-04T02:34:36Z</time>
				<extensions>
				</extensions>
			</trkpt>
			<trkpt lat="-28.600539" lon="153.092526">
				<ele>148.100</ele>
				<time>2015-07-04T02:34:38Z</time>
				<extensions>
				</extensions>
			</trkpt>
			<trkpt lat="-28.600676" lon="153.092717">
				<ele>145.708</ele>
				<time>2015-07-04T02:34:40Z</time>
				<extensions>
				</extensions>
			</trkpt>
			<trkpt lat="-28.600774" lon="153.092909">
				<ele>144.246</ele>
				<time>2015-07-04T02:34:42Z</time>
				<extensions>
				</extensions>
			</trkpt>
			<trkpt lat="-28.600690" lon="153.093203">
				<ele>144.716</ele>
				<time>2015-07-04T02:34:45Z</time>
				<extensions>
				</extensions>
			</trkpt>
			<trkpt lat="-28.600565" lon="153.093419">
				<ele>144.283</ele>
				<time>2015-07-04T02:34:47Z</time>
				<extensions>
				</extensions>
			</trkpt>
			<trkpt lat="-28.600507" lon="153.093664">
				<ele>143.517</ele>
				<time>2015-07-04T02:34:49Z</time>
				<extensions>
				</extensions>
			</trkpt>
			<trkpt lat="-28.600509" lon="153.093941">
				<ele>142.706</ele>
				<time>2015-07-04T02:34:51Z</time>
				<extensions>
				</extensions>
			</trkpt>
			<trkpt lat="-28.600532" lon="153.094218">
				<ele>141.062</ele>
				<time>2015-07-04T02:34:53Z</time>
				<extensions>
				</extensions>
			</trkpt>
			<trkpt lat="-28.600570" lon="153.094457">
				<ele>139.903</ele>
				<time>2015-07-04T02:34:55Z</time>
				<extensions>
				</extensions>
			</trkpt>
			<trkpt lat="-28.600641" lon="153.094695">
				<ele>138.970</ele>
				<time>2015-07-04T02:34:57Z</time>
				<extensions>
				</extensions>
			</trkpt>
			<trkpt lat="-28.600721" lon="153.094903">
				<ele>139.361</ele>
				<time>2015-07-04T02:34:59Z</time>
				<extensions>
				</extensions>
			</trkpt>
			<trkpt lat="-28.600784" lon="153.095140">
				<ele>136.249</ele>
				<time>2015-07-04T02:35:01Z</time>
				<extensions>
				</extensions>
			</trkpt>
			<trkpt lat="-28.600838" lon="153.095365">
				<ele>133.095</ele>
				<time>2015-07-04T02:35:04Z</time>
				<extensions>
				</extensions>
			</trkpt>
			<trkpt lat="-28.600984" lon="153.095493">
				<ele>131.845</ele>
				<time>2015-07-04T02:35:07Z</time>
				<extensions>
				</extensions>
			</trkpt>
			<trkpt lat="-28.601203" lon="153.095444">
				<ele>131.957</ele>
				<time>2015-07-04T02:35:10Z</time>
				<extensions>
				</extensions>
			</trkpt>
			<trkpt lat="-28.601471" lon="153.095369">
				<ele>128.946</ele>
				<time>2015-07-04T02:35:13Z</time>
				<extensions>
				</extensions>
			</trkpt>
			<trkpt lat="-28.601680" lon="153.095339">
				<ele>126.995</ele>
				<time>2015-07-04T02:35:16Z</time>
				<extensions>
				</extensions>
			</trkpt>
			<trkpt lat="-28.601809" lon="153.095490">
				<ele>125.422</ele>
				<time>2015-07-04T02:35:19Z</time>
				<extensions>
				</extensions>
			</trkpt>
			<trkpt lat="-28.601755" lon="153.095719">
				<ele>125.481</ele>
				<time>2015-07-04T02:35:22Z</time>
				<extensions>
				</extensions>
			</trkpt>
			<trkpt lat="-28.601606" lon="153.095949">
				<ele>123.182</ele>
				<time>2015-07-04T02:35:24Z</time>
				<extensions>
				</extensions>
			</trkpt>
			<trkpt lat="-28.601479" lon="153.096121">
				<ele>119.814</ele>
				<time>2015-07-04T02:35:26Z</time>
				<extensions>
				</extensions>
			</trkpt>
			<trkpt lat="-28.601362" lon="153.096298">
				<ele>118.663</ele>
				<time>2015-07-04T02:35:28Z</time>
				<extensions>
				</extensions>
			</trkpt>
			<trkpt lat="-28.601254" lon="153.096472">
				<ele>115.741</ele>
				<time>2015-07-04T02:35:30Z</time>
				<extensions>
				</extensions>
			</trkpt>
			<trkpt lat="-28.601140" lon="153.096671">
				<ele>114.055</ele>
				<time>2015-07-04T02:35:32Z</time>
				<extensions>
				</extensions>
			</trkpt>
			<trkpt lat="-28.601049" lon="153.096865">
				<ele>110.827</ele>
				<time>2015-07-04T02:35:34Z</time>
				<extensions>
				</extensions>
			</trkpt>
			<trkpt lat="-28.600950" lon="153.097069">
				<ele>108.596</ele>
				<time>2015-07-04T02:35:36Z</time>
				<extensions>
				</extensions>
			</trkpt>
			<trkpt lat="-28.600838" lon="153.097241">
				<ele>104.656</ele>
				<time>2015-07-04T02:35:38Z</time>
				<extensions>
				</extensions>
			</trkpt>
			<trkpt lat="-28.600716" lon="153.097399">
				<ele>102.563</ele>
				<time>2015-07-04T02:35:40Z</time>
				<extensions>
				</extensions>
			</trkpt>
			<trkpt lat="-28.600583" lon="153.097551">
				<ele>100.756</ele>
				<time>2015-07-04T02:35:42Z</time>
				<extensions>
				</extensions>
			</trkpt>
			<trkpt lat="-28.600440" lon="153.097696">
				<ele>98.276</ele>
				<time>2015-07-04T02:35:44Z</time>
				<extensions>
				</extensions>
			</trkpt>
			<trkpt lat="-28.600307" lon="153.097835">
				<ele>97.054</ele>
				<time>2015-07-04T02:35:46Z</time>
				<extensions>
				</extensions>
			</trkpt>
			<trkpt lat="-28.600105" lon="153.098032">
				<ele>94.418</ele>
				<time>2015-07-04T02:35:49Z</time>
				<extensions>
				</extensions>
			</trkpt>
			<trkpt lat="-28.599930" lon="153.098161">
				<ele>93.578</ele>
				<time>2015-07-04T02:35:51Z</time>
				<extensions>
				</extensions>
			</trkpt>
			<trkpt lat="-28.599710" lon="153.098285">
				<ele>93.427</ele>
				<time>2015-07-04T02:35:53Z</time>
				<extensions>
				</extensions>
			</trkpt>
			<trkpt lat="-28.599479" lon="153.098407">
				<ele>92.323</ele>
				<time>2015-07-04T02:35:55Z</time>
				<extensions>
				</extensions>
			</trkpt>
			<trkpt lat="-28.599252" lon="153.098534">
				<ele>90.124</ele>
				<time>2015-07-04T02:35:57Z</time>
				<extensions>
				</extensions>
			</trkpt>
			<trkpt lat="-28.599036" lon="153.098658">
				<ele>88.581</ele>
				<time>2015-07-04T02:35:59Z</time>
				<extensions>
				</extensions>
			</trkpt>
			<trkpt lat="-28.598809" lon="153.098782">
				<ele>88.138</ele>
				<time>2015-07-04T02:36:01Z</time>
				<extensions>
				</extensions>
			</trkpt>
			<trkpt lat="-28.598584" lon="153.098901">
				<ele>87.083</ele>
				<time>2015-07-04T02:36:03Z</time>
				<extensions>
				</extensions>
			</trkpt>
			<trkpt lat="-28.598361" lon="153.099028">
				<ele>85.777</ele>
				<time>2015-07-04T02:36:05Z</time>
				<extensions>
				</extensions>
			</trkpt>
			<trkpt lat="-28.598128" lon="153.099158">
				<ele>86.452</ele>
				<time>2015-07-04T02:36:07Z</time>
				<extensions>
				</extensions>
			</trkpt>
			<trkpt lat="-28.597881" lon="153.099297">
				<ele>86.199</ele>
				<time>2015-07-04T02:36:09Z</time>
				<extensions>
				</extensions>
			</trkpt>
			<trkpt lat="-28.597634" lon="153.099425">
				<ele>85.665</ele>
				<time>2015-07-04T02:36:11Z</time>
				<extensions>
				</extensions>
			</trkpt>
			<trkpt lat="-28.597388" lon="153.099556">
				<ele>83.545</ele>
				<time>2015-07-04T02:36:13Z</time>
				<extensions>
				</extensions>
			</trkpt>
			<trkpt lat="-28.597133" lon="153.099693">
				<ele>81.262</ele>
				<time>2015-07-04T02:36:15Z</time>
				<extensions>
				</extensions>
			</trkpt>
			<trkpt lat="-28.596890" lon="153.099827">
				<ele>79.269</ele>
				<time>2015-07-04T02:36:17Z</time>
				<extensions>
				</extensions>
			</trkpt>
			<trkpt lat="-28.596629" lon="153.099970">
				<ele>78.926</ele>
				<time>2015-07-04T02:36:19Z</time>
				<extensions>
				</extensions>
			</trkpt>
			<trkpt lat="-28.596313" lon="153.100138">
				<ele>82.215</ele>
				<time>2015-07-04T02:36:21Z</time>
				<extensions>
				</extensions>
			</trkpt>
			<trkpt lat="-28.596137" lon="153.100236">
				<ele>83.658</ele>
				<time>2015-07-04T02:36:22Z</time>
				<extensions>
				</extensions>
			</trkpt>
			<trkpt lat="-28.595942" lon="153.100344">
				<ele>86.475</ele>
				<time>2015-07-04T02:36:23Z</time>
				<extensions>
				</extensions>
			</trkpt>
			<trkpt lat="-28.595739" lon="153.100455">
				<ele>89.079</ele>
				<time>2015-07-04T02:36:24Z</time>
				<extensions>
				</extensions>
			</trkpt>
			<trkpt lat="-28.595527" lon="153.100572">
				<ele>90.362</ele>
				<time>2015-07-04T02:36:25Z</time>
				<extensions>
				</extensions>
			</trkpt>
			<trkpt lat="-28.595304" lon="153.100696">
				<ele>90.788</ele>
				<time>2015-07-04T02:36:26Z</time>
				<extensions>
				</extensions>
			</trkpt>
			<trkpt lat="-28.595081" lon="153.100819">
				<ele>90.444</ele>
				<time>2015-07-04T02:36:27Z</time>
				<extensions>
				</extensions>
			</trkpt>
			<trkpt lat="-28.594876" lon="153.100931">
				<ele>88.954</ele>
				<time>2015-07-04T02:36:28Z</time>
				<extensions>
				</extensions>
			</trkpt>
			<trkpt lat="-28.594680" lon="153.101040">
				<ele>88.867</ele>
				<time>2015-07-04T02:36:29Z</time>
				<extensions>
				</extensions>
			</trkpt>
			<trkpt lat="-28.594482" lon="153.101151">
				<ele>91.691</ele>
				<time>2015-07-04T02:36:30Z</time>
				<extensions>
				</extensions>
			</trkpt>
			<trkpt lat="-28.594281" lon="153.101261">
				<ele>93.565</ele>
				<time>2015-07-04T02:36:31Z</time>
				<extensions>
				</extensions>
			</trkpt>
			<trkpt lat="-28.594089" lon="153.101362">
				<ele>93.759</ele>
				<time>2015-07-04T02:36:32Z</time>
				<extensions>
				</extensions>
			</trkpt>
			<trkpt lat="-28.593907" lon="153.101457">
				<ele>93.780</ele>
				<time>2015-07-04T02:36:33Z</time>
				<extensions>
				</extensions>
			</trkpt>
			<trkpt lat="-28.593726" lon="153.101558">
				<ele>95.354</ele>
				<time>2015-07-04T02:36:34Z</time>
				<extensions>
				</extensions>
			</trkpt>
			<trkpt lat="-28.593553" lon="153.101658">
				<ele>96.885</ele>
				<time>2015-07-04T02:36:35Z</time>
				<extensions>
				</extensions>
			</trkpt>
			<trkpt lat="-28.593382" lon="153.101757">
				<ele>100.115</ele>
				<time>2015-07-04T02:36:36Z</time>
				<extensions>
				</extensions>
			</trkpt>
			<trkpt lat="-28.593212" lon="153.101866">
				<ele>101.318</ele>
				<time>2015-07-04T02:36:37Z</time>
				<extensions>
				</extensions>
			</trkpt>
			<trkpt lat="-28.593035" lon="153.101988">
				<ele>102.138</ele>
				<time>2015-07-04T02:36:38Z</time>
				<extensions>
				</extensions>
			</trkpt>
			<trkpt lat="-28.592862" lon="153.102114">
				<ele>102.551</ele>
				<time>2015-07-04T02:36:39Z</time>
				<extensions>
				</extensions>
			</trkpt>
			<trkpt lat="-28.592697" lon="153.102247">
				<ele>102.562</ele>
				<time>2015-07-04T02:36:40Z</time>
				<extensions>
				</extensions>
			</trkpt>
			<trkpt lat="-28.592533" lon="153.102391">
				<ele>101.696</ele>
				<time>2015-07-04T02:36:41Z</time>
				<extensions>
				</extensions>
			</trkpt>
			<trkpt lat="-28.592373" lon="153.102541">
				<ele>101.007</ele>
				<time>2015-07-04T02:36:42Z</time>
				<extensions>
				</extensions>
			</trkpt>
			<trkpt lat="-28.592217" lon="153.102695">
				<ele>101.732</ele>
				<time>2015-07-04T02:36:43Z</time>
				<extensions>
				</extensions>
			</trkpt>
			<trkpt lat="-28.592067" lon="153.102858">
				<ele>102.780</ele>
				<time>2015-07-04T02:36:44Z</time>
				<extensions>
				</extensions>
			</trkpt>
			<trkpt lat="-28.591920" lon="153.103026">
				<ele>102.347</ele>
				<time>2015-07-04T02:36:45Z</time>
				<extensions>
				</extensions>
			</trkpt>
			<trkpt lat="-28.591779" lon="153.103196">
				<ele>102.962</ele>
				<time>2015-07-04T02:36:46Z</time>
				<extensions>
				</extensions>
			</trkpt>
			<trkpt lat="-28.591642" lon="153.103373">
				<ele>103.926</ele>
				<time>2015-07-04T02:36:47Z</time>
				<extensions>
				</extensions>
			</trkpt>
			<trkpt lat="-28.591505" lon="153.103551">
				<ele>103.965</ele>
				<time>2015-07-04T02:36:48Z</time>
				<extensions>
				</extensions>
			</trkpt>
			<trkpt lat="-28.591363" lon="153.103731">
				<ele>104.801</ele>
				<time>2015-07-04T02:36:49Z</time>
				<extensions>
				</extensions>
			</trkpt>
			<trkpt lat="-28.591216" lon="153.103908">
				<ele>105.277</ele>
				<time>2015-07-04T02:36:50Z</time>
				<extensions>
				</extensions>
			</trkpt>
			<trkpt lat="-28.591078" lon="153.104084">
				<ele>106.963</ele>
				<time>2015-07-04T02:36:51Z</time>
				<extensions>
				</extensions>
			</trkpt>
			<trkpt lat="-28.590935" lon="153.104264">
				<ele>106.958</ele>
				<time>2015-07-04T02:36:52Z</time>
				<extensions>
				</extensions>
			</trkpt>
			<trkpt lat="-28.590801" lon="153.104442">
				<ele>106.958</ele>
				<time>2015-07-04T02:36:53Z</time>
				<extensions>
				</extensions>
			</trkpt>
			<trkpt lat="-28.590668" lon="153.104618">
				<ele>106.446</ele>
				<time>2015-07-04T02:36:54Z</time>
				<extensions>
				</extensions>
			</trkpt>
			<trkpt lat="-28.590535" lon="153.104793">
				<ele>107.309</ele>
				<time>2015-07-04T02:36:55Z</time>
				<extensions>
				</extensions>
			</trkpt>
			<trkpt lat="-28.590405" lon="153.104955">
				<ele>108.014</ele>
				<time>2015-07-04T02:36:56Z</time>
				<extensions>
				</extensions>
			</trkpt>
			<trkpt lat="-28.590271" lon="153.105116">
				<ele>109.059</ele>
				<time>2015-07-04T02:36:57Z</time>
				<extensions>
				</extensions>
			</trkpt>
			<trkpt lat="-28.590139" lon="153.105277">
				<ele>109.748</ele>
				<time>2015-07-04T02:36:58Z</time>
				<extensions>
				</extensions>
			</trkpt>
			<trkpt lat="-28.590007" lon="153.105438">
				<ele>112.002</ele>
				<time>2015-07-04T02:36:59Z</time>
				<extensions>
				</extensions>
			</trkpt>
			<trkpt lat="-28.589880" lon="153.105593">
				<ele>112.927</ele>
				<time>2015-07-04T02:37:00Z</time>
				<extensions>
				</extensions>
			</trkpt>
			<trkpt lat="-28.589754" lon="153.105747">
				<ele>113.920</ele>
				<time>2015-07-04T02:37:01Z</time>
				<extensions>
				</extensions>
			</trkpt>
			<trkpt lat="-28.589523" lon="153.106050">
				<ele>115.505</ele>
				<time>2015-07-04T02:37:03Z</time>
				<extensions>
				</extensions>
			</trkpt>
			<trkpt lat="-28.589303" lon="153.106365">
				<ele>117.520</ele>
				<time>2015-07-04T02:37:05Z</time>
				<extensions>
				</extensions>
			</trkpt>
			<trkpt lat="-28.589153" lon="153.106731">
				<ele>119.636</ele>
				<time>2015-07-04T02:37:07Z</time>
				<extensions>
				</extensions>
			</trkpt>
			<trkpt lat="-28.589104" lon="153.106929">
				<ele>120.742</ele>
				<time>2015-07-04T02:37:08Z</time>
				<extensions>
				</extensions>
			</trkpt>
			<trkpt lat="-28.589084" lon="153.107133">
				<ele>121.304</ele>
				<time>2015-07-04T02:37:09Z</time>
				<extensions>
				</extensions>
			</trkpt>
			<trkpt lat="-28.589092" lon="153.107344">
				<ele>121.336</ele>
				<time>2015-07-04T02:37:10Z</time>
				<extensions>
				</extensions>
			</trkpt>
			<trkpt lat="-28.589125" lon="153.107552">
				<ele>122.620</ele>
				<time>2015-07-04T02:37:11Z</time>
				<extensions>
				</extensions>
			</trkpt>
			<trkpt lat="-28.589253" lon="153.107938">
				<ele>125.227</ele>
				<time>2015-07-04T02:37:13Z</time>
				<extensions>
				</extensions>
			</trkpt>
			<trkpt lat="-28.589355" lon="153.108125">
				<ele>127.490</ele>
				<time>2015-07-04T02:37:14Z</time>
				<extensions>
				</extensions>
			</trkpt>
			<trkpt lat="-28.589467" lon="153.108306">
				<ele>128.040</ele>
				<time>2015-07-04T02:37:15Z</time>
				<extensions>
				</extensions>
			</trkpt>
			<trkpt lat="-28.589598" lon="153.108499">
				<ele>129.803</ele>
				<time>2015-07-04T02:37:16Z</time>
				<extensions>
				</extensions>
			</trkpt>
			<trkpt lat="-28.589726" lon="153.108678">
				<ele>130.472</ele>
				<time>2015-07-04T02:37:17Z</time>
				<extensions>
				</extensions>
			</trkpt>
			<trkpt lat="-28.589849" lon="153.108848">
				<ele>130.833</ele>
				<time>2015-07-04T02:37:18Z</time>
				<extensions>
				</extensions>
			</trkpt>
			<trkpt lat="-28.589963" lon="153.109014">
				<ele>129.634</ele>
				<time>2015-07-04T02:37:19Z</time>
				<extensions>
				</extensions>
			</trkpt>
			<trkpt lat="-28.590079" lon="153.109180">
				<ele>129.417</ele>
				<time>2015-07-04T02:37:20Z</time>
				<extensions>
				</extensions>
			</trkpt>
			<trkpt lat="-28.590197" lon="153.109346">
				<ele>129.856</ele>
				<time>2015-07-04T02:37:21Z</time>
				<extensions>
				</extensions>
			</trkpt>
			<trkpt lat="-28.590319" lon="153.109516">
				<ele>130.534</ele>
				<time>2015-07-04T02:37:22Z</time>
				<extensions>
				</extensions>
			</trkpt>
			<trkpt lat="-28.590439" lon="153.109688">
				<ele>131.099</ele>
				<time>2015-07-04T02:37:23Z</time>
				<extensions>
				</extensions>
			</trkpt>
			<trkpt lat="-28.590559" lon="153.109859">
				<ele>133.098</ele>
				<time>2015-07-04T02:37:24Z</time>
				<extensions>
				</extensions>
			</trkpt>
			<trkpt lat="-28.590674" lon="153.110035">
				<ele>133.959</ele>
				<time>2015-07-04T02:37:25Z</time>
				<extensions>
				</extensions>
			</trkpt>
			<trkpt lat="-28.590783" lon="153.110207">
				<ele>134.834</ele>
				<time>2015-07-04T02:37:26Z</time>
				<extensions>
				</extensions>
			</trkpt>
			<trkpt lat="-28.590891" lon="153.110389">
				<ele>135.629</ele>
				<time>2015-07-04T02:37:27Z</time>
				<extensions>
				</extensions>
			</trkpt>
			<trkpt lat="-28.590992" lon="153.110566">
				<ele>136.075</ele>
				<time>2015-07-04T02:37:28Z</time>
				<extensions>
				</extensions>
			</trkpt>
			<trkpt lat="-28.591090" lon="153.110753">
				<ele>138.341</ele>
				<time>2015-07-04T02:37:29Z</time>
				<extensions>
				</extensions>
			</trkpt>
			<trkpt lat="-28.591190" lon="153.110931">
				<ele>138.864</ele>
				<time>2015-07-04T02:37:30Z</time>
				<extensions>
				</extensions>
			</trkpt>
			<trkpt lat="-28.591284" lon="153.111111">
				<ele>138.907</ele>
				<time>2015-07-04T02:37:31Z</time>
				<extensions>
				</extensions>
			</trkpt>
			<trkpt lat="-28.591384" lon="153.111291">
				<ele>138.943</ele>
				<time>2015-07-04T02:37:32Z</time>
				<extensions>
				</extensions>
			</trkpt>
			<trkpt lat="-28.591574" lon="153.111640">
				<ele>139.219</ele>
				<time>2015-07-04T02:37:34Z</time>
				<extensions>
				</extensions>
			</trkpt>
			<trkpt lat="-28.591757" lon="153.111985">
				<ele>140.386</ele>
				<time>2015-07-04T02:37:36Z</time>
				<extensions>
				</extensions>
			</trkpt>
			<trkpt lat="-28.591938" lon="153.112319">
				<ele>140.365</ele>
				<time>2015-07-04T02:37:38Z</time>
				<extensions>
				</extensions>
			</trkpt>
			<trkpt lat="-28.592096" lon="153.112665">
				<ele>142.322</ele>
				<time>2015-07-04T02:37:40Z</time>
				<extensions>
				</extensions>
			</trkpt>
			<trkpt lat="-28.592199" lon="153.113043">
				<ele>143.050</ele>
				<time>2015-07-04T02:37:42Z</time>
				<extensions>
				</extensions>
			</trkpt>
			<trkpt lat="-28.592209" lon="153.113254">
				<ele>143.737</ele>
				<time>2015-07-04T02:37:43Z</time>
				<extensions>
				</extensions>
			</trkpt>
			<trkpt lat="-28.592190" lon="153.113463">
				<ele>144.174</ele>
				<time>2015-07-04T02:37:44Z</time>
				<extensions>
				</extensions>
			</trkpt>
			<trkpt lat="-28.592140" lon="153.113670">
				<ele>144.725</ele>
				<time>2015-07-04T02:37:45Z</time>
				<extensions>
				</extensions>
			</trkpt>
			<trkpt lat="-28.592068" lon="153.113860">
				<ele>143.937</ele>
				<time>2015-07-04T02:37:46Z</time>
				<extensions>
				</extensions>
			</trkpt>
			<trkpt lat="-28.591971" lon="153.114034">
				<ele>143.703</ele>
				<time>2015-07-04T02:37:47Z</time>
				<extensions>
				</extensions>
			</trkpt>
			<trkpt lat="-28.591714" lon="153.114327">
				<ele>143.298</ele>
				<time>2015-07-04T02:37:49Z</time>
				<extensions>
				</extensions>
			</trkpt>
			<trkpt lat="-28.591557" lon="153.114449">
				<ele>144.633</ele>
				<time>2015-07-04T02:37:50Z</time>
				<extensions>
				</extensions>
			</trkpt>
			<trkpt lat="-28.591382" lon="153.114579">
				<ele>145.921</ele>
				<time>2015-07-04T02:37:51Z</time>
				<extensions>
				</extensions>
			</trkpt>
			<trkpt lat="-28.591211" lon="153.114699">
				<ele>146.195</ele>
				<time>2015-07-04T02:37:52Z</time>
				<extensions>
				</extensions>
			</trkpt>
			<trkpt lat="-28.591038" lon="153.114812">
				<ele>146.876</ele>
				<time>2015-07-04T02:37:53Z</time>
				<extensions>
				</extensions>
			</trkpt>
			<trkpt lat="-28.590869" lon="153.114922">
				<ele>146.421</ele>
				<time>2015-07-04T02:37:54Z</time>
				<extensions>
				</extensions>
			</trkpt>
			<trkpt lat="-28.590708" lon="153.115030">
				<ele>145.725</ele>
				<time>2015-07-04T02:37:55Z</time>
				<extensions>
				</extensions>
			</trkpt>
			<trkpt lat="-28.590550" lon="153.115133">
				<ele>144.589</ele>
				<time>2015-07-04T02:37:56Z</time>
				<extensions>
				</extensions>
			</trkpt>
			<trkpt lat="-28.590394" lon="153.115241">
				<ele>144.664</ele>
				<time>2015-07-04T02:37:57Z</time>
				<extensions>
				</extensions>
			</trkpt>
			<trkpt lat="-28.590089" lon="153.115471">
				<ele>147.751</ele>
				<time>2015-07-04T02:37:59Z</time>
				<extensions>
				</extensions>
			</trkpt>
			<trkpt lat="-28.589945" lon="153.115607">
				<ele>147.450</ele>
				<time>2015-07-04T02:38:00Z</time>
				<extensions>
				</extensions>
			</trkpt>
			<trkpt lat="-28.589800" lon="153.115756">
				<ele>148.111</ele>
				<time>2015-07-04T02:38:01Z</time>
				<extensions>
				</extensions>
			</trkpt>
			<trkpt lat="-28.589656" lon="153.115908">
				<ele>149.157</ele>
				<time>2015-07-04T02:38:02Z</time>
				<extensions>
				</extensions>
			</trkpt>
			<trkpt lat="-28.589511" lon="153.116057">
				<ele>149.566</ele>
				<time>2015-07-04T02:38:03Z</time>
				<extensions>
				</extensions>
			</trkpt>
			<trkpt lat="-28.589376" lon="153.116202">
				<ele>149.057</ele>
				<time>2015-07-04T02:38:04Z</time>
				<extensions>
				</extensions>
			</trkpt>
			<trkpt lat="-28.589242" lon="153.116341">
				<ele>148.929</ele>
				<time>2015-07-04T02:38:05Z</time>
				<extensions>
				</extensions>
			</trkpt>
			<trkpt lat="-28.588983" lon="153.116620">
				<ele>150.145</ele>
				<time>2015-07-04T02:38:07Z</time>
				<extensions>
				</extensions>
			</trkpt>
			<trkpt lat="-28.588748" lon="153.116929">
				<ele>151.792</ele>
				<time>2015-07-04T02:38:09Z</time>
				<extensions>
				</extensions>
			</trkpt>
			<trkpt lat="-28.588648" lon="153.117107">
				<ele>152.255</ele>
				<time>2015-07-04T02:38:10Z</time>
				<extensions>
				</extensions>
			</trkpt>
			<trkpt lat="-28.588558" lon="153.117288">
				<ele>153.761</ele>
				<time>2015-07-04T02:38:11Z</time>
				<extensions>
				</extensions>
			</trkpt>
			<trkpt lat="-28.588485" lon="153.117481">
				<ele>153.707</ele>
				<time>2015-07-04T02:38:12Z</time>
				<extensions>
				</extensions>
			</trkpt>
			<trkpt lat="-28.588409" lon="153.117686">
				<ele>153.707</ele>
				<time>2015-07-04T02:38:13Z</time>
				<extensions>
				</extensions>
			</trkpt>
			<trkpt lat="-28.588344" lon="153.117881">
				<ele>154.622</ele>
				<time>2015-07-04T02:38:14Z</time>
				<extensions>
				</extensions>
			</trkpt>
			<trkpt lat="-28.588264" lon="153.118074">
				<ele>156.531</ele>
				<time>2015-07-04T02:38:15Z</time>
				<extensions>
				</extensions>
			</trkpt>
			<trkpt lat="-28.588068" lon="153.118401">
				<ele>157.262</ele>
				<time>2015-07-04T02:38:17Z</time>
				<extensions>
				</extensions>
			</trkpt>
			<trkpt lat="-28.587796" lon="153.118668">
				<ele>159.984</ele>
				<time>2015-07-04T02:38:19Z</time>
				<extensions>
				</extensions>
			</trkpt>
			<trkpt lat="-28.587470" lon="153.118850">
				<ele>162.436</ele>
				<time>2015-07-04T02:38:21Z</time>
				<extensions>
				</extensions>
			</trkpt>
			<trkpt lat="-28.587301" lon="153.118924">
				<ele>163.734</ele>
				<time>2015-07-04T02:38:22Z</time>
				<extensions>
				</extensions>
			</trkpt>
			<trkpt lat="-28.586994" lon="153.119067">
				<ele>161.520</ele>
				<time>2015-07-04T02:38:24Z</time>
				<extensions>
				</extensions>
			</trkpt>
			<trkpt lat="-28.586737" lon="153.119268">
				<ele>159.510</ele>
				<time>2015-07-04T02:38:26Z</time>
				<extensions>
				</extensions>
			</trkpt>
			<trkpt lat="-28.586526" lon="153.119518">
				<ele>159.269</ele>
				<time>2015-07-04T02:38:28Z</time>
				<extensions>
				</extensions>
			</trkpt>
			<trkpt lat="-28.586285" lon="153.119730">
				<ele>158.386</ele>
				<time>2015-07-04T02:38:30Z</time>
				<extensions>
				</extensions>
			</trkpt>
			<trkpt lat="-28.586003" lon="153.119867">
				<ele>156.359</ele>
				<time>2015-07-04T02:38:32Z</time>
				<extensions>
				</extensions>
			</trkpt>
			<trkpt lat="-28.585713" lon="153.119976">
				<ele>154.578</ele>
				<time>2015-07-04T02:38:34Z</time>
				<extensions>
				</extensions>
			</trkpt>
			<trkpt lat="-28.585427" lon="153.120080">
				<ele>152.013</ele>
				<time>2015-07-04T02:38:36Z</time>
				<extensions>
				</extensions>
			</trkpt>
			<trkpt lat="-28.585132" lon="153.120165">
				<ele>149.756</ele>
				<time>2015-07-04T02:38:38Z</time>
				<extensions>
				</extensions>
			</trkpt>
			<trkpt lat="-28.584842" lon="153.120204">
				<ele>148.024</ele>
				<time>2015-07-04T02:38:40Z</time>
				<extensions>
				</extensions>
			</trkpt>
			<trkpt lat="-28.584554" lon="153.120182">
				<ele>147.068</ele>
				<time>2015-07-04T02:38:42Z</time>
				<extensions>
				</extensions>
			</trkpt>
			<trkpt lat="-28.584278" lon="153.120162">
				<ele>144.808</ele>
				<time>2015-07-04T02:38:44Z</time>
				<extensions>
				</extensions>
			</trkpt>
			<trkpt lat="-28.583993" lon="153.120150">
				<ele>142.923</ele>
				<time>2015-07-04T02:38:46Z</time>
				<extensions>
				</extensions>
			</trkpt>
			<trkpt lat="-28.583712" lon="153.120165">
				<ele>141.643</ele>
				<time>2015-07-04T02:38:48Z</time>
				<extensions>
				</extensions>
			</trkpt>
			<trkpt lat="-28.583417" lon="153.120194">
				<ele>141.492</ele>
				<time>2015-07-04T02:38:50Z</time>
				<extensions>
				</extensions>
			</trkpt>
			<trkpt lat="-28.583111" lon="153.120244">
				<ele>142.400</ele>
				<time>2015-07-04T02:38:52Z</time>
				<extensions>
				</extensions>
			</trkpt>
			<trkpt lat="-28.582799" lon="153.120351">
				<ele>142.084</ele>
				<time>2015-07-04T02:38:54Z</time>
				<extensions>
				</extensions>
			</trkpt>
			<trkpt lat="-28.582499" lon="153.120535">
				<ele>143.699</ele>
				<time>2015-07-04T02:38:56Z</time>
				<extensions>
				</extensions>
			</trkpt>
			<trkpt lat="-28.582352" lon="153.120658">
				<ele>144.735</ele>
				<time>2015-07-04T02:38:57Z</time>
				<extensions>
				</extensions>
			</trkpt>
			<trkpt lat="-28.582203" lon="153.120782">
				<ele>146.120</ele>
				<time>2015-07-04T02:38:58Z</time>
				<extensions>
				</extensions>
			</trkpt>
			<trkpt lat="-28.581934" lon="153.121018">
				<ele>146.658</ele>
				<time>2015-07-04T02:39:00Z</time>
				<extensions>
				</extensions>
			</trkpt>
			<trkpt lat="-28.581686" lon="153.121237">
				<ele>148.266</ele>
				<time>2015-07-04T02:39:02Z</time>
				<extensions>
				</extensions>
			</trkpt>
			<trkpt lat="-28.581460" lon="153.121437">
				<ele>149.246</ele>
				<time>2015-07-04T02:39:04Z</time>
				<extensions>
				</extensions>
			</trkpt>
			<trkpt lat="-28.581242" lon="153.121626">
				<ele>152.002</ele>
				<time>2015-07-04T02:39:06Z</time>
				<extensions>
				</extensions>
			</trkpt>
			<trkpt lat="-28.581019" lon="153.121822">
				<ele>155.665</ele>
				<time>2015-07-04T02:39:08Z</time>
				<extensions>
				</extensions>
			</trkpt>
			<trkpt lat="-28.580791" lon="153.122016">
				<ele>157.094</ele>
				<time>2015-07-04T02:39:10Z</time>
				<extensions>
				</extensions>
			</trkpt>
			<trkpt lat="-28.580566" lon="153.122192">
				<ele>158.210</ele>
				<time>2015-07-04T02:39:12Z</time>
				<extensions>
				</extensions>
			</trkpt>
			<trkpt lat="-28.580365" lon="153.122354">
				<ele>158.817</ele>
				<time>2015-07-04T02:39:14Z</time>
				<extensions>
				</extensions>
			</trkpt>
			<trkpt lat="-28.580183" lon="153.122536">
				<ele>160.561</ele>
				<time>2015-07-04T02:39:16Z</time>
				<extensions>
				</extensions>
			</trkpt>
			<trkpt lat="-28.580073" lon="153.122823">
				<ele>163.169</ele>
				<time>2015-07-04T02:39:18Z</time>
				<extensions>
				</extensions>
			</trkpt>
			<trkpt lat="-28.580035" lon="153.123137">
				<ele>166.093</ele>
				<time>2015-07-04T02:39:20Z</time>
				<extensions>
				</extensions>
			</trkpt>
			<trkpt lat="-28.579985" lon="153.123427">
				<ele>167.235</ele>
				<time>2015-07-04T02:39:22Z</time>
				<extensions>
				</extensions>
			</trkpt>
			<trkpt lat="-28.579867" lon="153.123670">
				<ele>168.855</ele>
				<time>2015-07-04T02:39:24Z</time>
				<extensions>
				</extensions>
			</trkpt>
			<trkpt lat="-28.579660" lon="153.123861">
				<ele>172.386</ele>
				<time>2015-07-04T02:39:26Z</time>
				<extensions>
				</extensions>
			</trkpt>
			<trkpt lat="-28.579376" lon="153.124025">
				<ele>175.647</ele>
				<time>2015-07-04T02:39:28Z</time>
				<extensions>
				</extensions>
			</trkpt>
			<trkpt lat="-28.579078" lon="153.124191">
				<ele>178.824</ele>
				<time>2015-07-04T02:39:30Z</time>
				<extensions>
				</extensions>
			</trkpt>
			<trkpt lat="-28.578782" lon="153.124351">
				<ele>181.410</ele>
				<time>2015-07-04T02:39:32Z</time>
				<extensions>
				</extensions>
			</trkpt>
			<trkpt lat="-28.578505" lon="153.124476">
				<ele>181.145</ele>
				<time>2015-07-04T02:39:34Z</time>
				<extensions>
				</extensions>
			</trkpt>
			<trkpt lat="-28.578233" lon="153.124591">
				<ele>181.718</ele>
				<time>2015-07-04T02:39:36Z</time>
				<extensions>
				</extensions>
			</trkpt>
			<trkpt lat="-28.577962" lon="153.124727">
				<ele>183.365</ele>
				<time>2015-07-04T02:39:38Z</time>
				<extensions>
				</extensions>
			</trkpt>
			<trkpt lat="-28.577699" lon="153.124911">
				<ele>185.962</ele>
				<time>2015-07-04T02:39:40Z</time>
				<extensions>
				</extensions>
			</trkpt>
			<trkpt lat="-28.577443" lon="153.125142">
				<ele>189.556</ele>
				<time>2015-07-04T02:39:42Z</time>
				<extensions>
				</extensions>
			</trkpt>
			<trkpt lat="-28.577203" lon="153.125366">
				<ele>190.154</ele>
				<time>2015-07-04T02:39:44Z</time>
				<extensions>
				</extensions>
			</trkpt>
			<trkpt lat="-28.576986" lon="153.125574">
				<ele>191.747</ele>
				<time>2015-07-04T02:39:46Z</time>
				<extensions>
				</extensions>
			</trkpt>
			<trkpt lat="-28.576798" lon="153.125754">
				<ele>193.848</ele>
				<time>2015-07-04T02:39:48Z</time>
				<extensions>
				</extensions>
			</trkpt>
			<trkpt lat="-28.576616" lon="153.125927">
				<ele>194.837</ele>
				<time>2015-07-04T02:39:50Z</time>
				<extensions>
				</extensions>
			</trkpt>
			<trkpt lat="-28.576422" lon="153.126093">
				<ele>197.674</ele>
				<time>2015-07-04T02:39:52Z</time>
				<extensions>
				</extensions>
			</trkpt>
			<trkpt lat="-28.576216" lon="153.126257">
				<ele>201.134</ele>
				<time>2015-07-04T02:39:54Z</time>
				<extensions>
				</extensions>
			</trkpt>
			<trkpt lat="-28.575996" lon="153.126372">
				<ele>203.538</ele>
				<time>2015-07-04T02:39:56Z</time>
				<extensions>
				</extensions>
			</trkpt>
			<trkpt lat="-28.575749" lon="153.126401">
				<ele>207.167</ele>
				<time>2015-07-04T02:39:58Z</time>
				<extensions>
				</extensions>
			</trkpt>
			<trkpt lat="-28.575471" lon="153.126339">
				<ele>211.287</ele>
				<time>2015-07-04T02:40:00Z</time>
				<extensions>
				</extensions>
			</trkpt>
			<trkpt lat="-28.575195" lon="153.126178">
				<ele>215.555</ele>
				<time>2015-07-04T02:40:02Z</time>
				<extensions>
				</extensions>
			</trkpt>
			<trkpt lat="-28.574961" lon="153.125985">
				<ele>218.094</ele>
				<time>2015-07-04T02:40:04Z</time>
				<extensions>
				</extensions>
			</trkpt>
			<trkpt lat="-28.574741" lon="153.125818">
				<ele>217.292</ele>
				<time>2015-07-04T02:40:06Z</time>
				<extensions>
				</extensions>
			</trkpt>
			<trkpt lat="-28.574482" lon="153.125742">
				<ele>219.009</ele>
				<time>2015-07-04T02:40:08Z</time>
				<extensions>
				</extensions>
			</trkpt>
			<trkpt lat="-28.574220" lon="153.125765">
				<ele>218.762</ele>
				<time>2015-07-04T02:40:10Z</time>
				<extensions>
				</extensions>
			</trkpt>
			<trkpt lat="-28.573942" lon="153.125877">
				<ele>219.158</ele>
				<time>2015-07-04T02:40:12Z</time>
				<extensions>
				</extensions>
			</trkpt>
			<trkpt lat="-28.573645" lon="153.126030">
				<ele>218.844</ele>
				<time>2015-07-04T02:40:14Z</time>
				<extensions>
				</extensions>
			</trkpt>
			<trkpt lat="-28.573338" lon="153.126192">
				<ele>218.850</ele>
				<time>2015-07-04T02:40:16Z</time>
				<extensions>
				</extensions>
			</trkpt>
			<trkpt lat="-28.573033" lon="153.126355">
				<ele>219.574</ele>
				<time>2015-07-04T02:40:18Z</time>
				<extensions>
				</extensions>
			</trkpt>
			<trkpt lat="-28.572738" lon="153.126497">
				<ele>219.021</ele>
				<time>2015-07-04T02:40:20Z</time>
				<extensions>
				</extensions>
			</trkpt>
			<trkpt lat="-28.572457" lon="153.126643">
				<ele>216.720</ele>
				<time>2015-07-04T02:40:22Z</time>
				<extensions>
				</extensions>
			</trkpt>
			<trkpt lat="-28.572182" lon="153.126777">
				<ele>214.989</ele>
				<time>2015-07-04T02:40:24Z</time>
				<extensions>
				</extensions>
			</trkpt>
			<trkpt lat="-28.571899" lon="153.126885">
				<ele>212.843</ele>
				<time>2015-07-04T02:40:26Z</time>
				<extensions>
				</extensions>
			</trkpt>
			<trkpt lat="-28.571573" lon="153.126933">
				<ele>213.580</ele>
				<time>2015-07-04T02:40:28Z</time>
				<extensions>
				</extensions>
			</trkpt>
			<trkpt lat="-28.571204" lon="153.126951">
				<ele>214.152</ele>
				<time>2015-07-04T02:40:30Z</time>
				<extensions>
				</extensions>
			</trkpt>
			<trkpt lat="-28.571020" lon="153.126948">
				<ele>214.274</ele>
				<time>2015-07-04T02:40:31Z</time>
				<extensions>
				</extensions>
			</trkpt>
			<trkpt lat="-28.570679" lon="153.126946">
				<ele>213.660</ele>
				<time>2015-07-04T02:40:33Z</time>
				<extensions>
				</extensions>
			</trkpt>
			<trkpt lat="-28.570359" lon="153.126946">
				<ele>214.880</ele>
				<time>2015-07-04T02:40:35Z</time>
				<extensions>
				</extensions>
			</trkpt>
			<trkpt lat="-28.570043" lon="153.126971">
				<ele>215.821</ele>
				<time>2015-07-04T02:40:37Z</time>
				<extensions>
				</extensions>
			</trkpt>
			<trkpt lat="-28.569738" lon="153.127042">
				<ele>216.569</ele>
				<time>2015-07-04T02:40:39Z</time>
				<extensions>
				</extensions>
			</trkpt>
			<trkpt lat="-28.569417" lon="153.127175">
				<ele>219.477</ele>
				<time>2015-07-04T02:40:41Z</time>
				<extensions>
				</extensions>
			</trkpt>
			<trkpt lat="-28.569118" lon="153.127370">
				<ele>222.982</ele>
				<time>2015-07-04T02:40:43Z</time>
				<extensions>
				</extensions>
			</trkpt>
			<trkpt lat="-28.568970" lon="153.127491">
				<ele>224.699</ele>
				<time>2015-07-04T02:40:44Z</time>
				<extensions>
				</extensions>
			</trkpt>
			<trkpt lat="-28.568825" lon="153.127626">
				<ele>225.388</ele>
				<time>2015-07-04T02:40:45Z</time>
				<extensions>
				</extensions>
			</trkpt>
			<trkpt lat="-28.568683" lon="153.127768">
				<ele>225.592</ele>
				<time>2015-07-04T02:40:46Z</time>
				<extensions>
				</extensions>
			</trkpt>
			<trkpt lat="-28.568549" lon="153.127910">
				<ele>224.317</ele>
				<time>2015-07-04T02:40:47Z</time>
				<extensions>
				</extensions>
			</trkpt>
			<trkpt lat="-28.568273" lon="153.128176">
				<ele>223.215</ele>
				<time>2015-07-04T02:40:49Z</time>
				<extensions>
				</extensions>
			</trkpt>
			<trkpt lat="-28.568006" lon="153.128445">
				<ele>223.079</ele>
				<time>2015-07-04T02:40:51Z</time>
				<extensions>
				</extensions>
			</trkpt>
			<trkpt lat="-28.567872" lon="153.128585">
				<ele>223.404</ele>
				<time>2015-07-04T02:40:52Z</time>
				<extensions>
				</extensions>
			</trkpt>
			<trkpt lat="-28.567626" lon="153.128844">
				<ele>224.432</ele>
				<time>2015-07-04T02:40:54Z</time>
				<extensions>
				</extensions>
			</trkpt>
			<trkpt lat="-28.567381" lon="153.129113">
				<ele>224.600</ele>
				<time>2015-07-04T02:40:56Z</time>
				<extensions>
				</extensions>
			</trkpt>
			<trkpt lat="-28.567137" lon="153.129407">
				<ele>226.933</ele>
				<time>2015-07-04T02:40:58Z</time>
				<extensions>
				</extensions>
			</trkpt>
			<trkpt lat="-28.567009" lon="153.129556">
				<ele>226.933</ele>
				<time>2015-07-04T02:40:59Z</time>
				<extensions>
				</extensions>
			</trkpt>
			<trkpt lat="-28.566880" lon="153.129708">
				<ele>227.207</ele>
				<time>2015-07-04T02:41:00Z</time>
				<extensions>
				</extensions>
			</trkpt>
			<trkpt lat="-28.566755" lon="153.129858">
				<ele>227.711</ele>
				<time>2015-07-04T02:41:01Z</time>
				<extensions>
				</extensions>
			</trkpt>
			<trkpt lat="-28.566512" lon="153.130151">
				<ele>226.317</ele>
				<time>2015-07-04T02:41:03Z</time>
				<extensions>
				</extensions>
			</trkpt>
			<trkpt lat="-28.566387" lon="153.130302">
				<ele>226.621</ele>
				<time>2015-07-04T02:41:04Z</time>
				<extensions>
				</extensions>
			</trkpt>
			<trkpt lat="-28.566254" lon="153.130451">
				<ele>226.056</ele>
				<time>2015-07-04T02:41:05Z</time>
				<extensions>
				</extensions>
			</trkpt>
			<trkpt lat="-28.566123" lon="153.130596">
				<ele>225.596</ele>
				<time>2015-07-04T02:41:06Z</time>
				<extensions>
				</extensions>
			</trkpt>
			<trkpt lat="-28.565984" lon="153.130736">
				<ele>224.546</ele>
				<time>2015-07-04T02:41:07Z</time>
				<extensions>
				</extensions>
			</trkpt>
			<trkpt lat="-28.565838" lon="153.130869">
				<ele>223.825</ele>
				<time>2015-07-04T02:41:08Z</time>
				<extensions>
				</extensions>
			</trkpt>
			<trkpt lat="-28.565687" lon="153.130994">
				<ele>224.667</ele>
				<time>2015-07-04T02:41:09Z</time>
				<extensions>
				</extensions>
			</trkpt>
			<trkpt lat="-28.565530" lon="153.131109">
				<ele>225.740</ele>
				<time>2015-07-04T02:41:10Z</time>
				<extensions>
				</extensions>
			</trkpt>
			<trkpt lat="-28.565363" lon="153.131220">
				<ele>226.975</ele>
				<time>2015-07-04T02:41:11Z</time>
				<extensions>
				</extensions>
			</trkpt>
			<trkpt lat="-28.565184" lon="153.131324">
				<ele>228.108</ele>
				<time>2015-07-04T02:41:12Z</time>
				<extensions>
				</extensions>
			</trkpt>
			<trkpt lat="-28.564998" lon="153.131425">
				<ele>230.855</ele>
				<time>2015-07-04T02:41:13Z</time>
				<extensions>
				</extensions>
			</trkpt>
			<trkpt lat="-28.564808" lon="153.131529">
				<ele>234.013</ele>
				<time>2015-07-04T02:41:14Z</time>
				<extensions>
				</extensions>
			</trkpt>
			<trkpt lat="-28.564620" lon="153.131631">
				<ele>235.095</ele>
				<time>2015-07-04T02:41:15Z</time>
				<extensions>
				</extensions>
			</trkpt>
			<trkpt lat="-28.564436" lon="153.131731">
				<ele>235.781</ele>
				<time>2015-07-04T02:41:16Z</time>
				<extensions>
				</extensions>
			</trkpt>
			<trkpt lat="-28.564261" lon="153.131828">
				<ele>236.161</ele>
				<time>2015-07-04T02:41:17Z</time>
				<extensions>
				</extensions>
			</trkpt>
			<trkpt lat="-28.564089" lon="153.131925">
				<ele>235.789</ele>
				<time>2015-07-04T02:41:18Z</time>
				<extensions>
				</extensions>
			</trkpt>
			<trkpt lat="-28.563923" lon="153.132019">
				<ele>236.588</ele>
				<time>2015-07-04T02:41:19Z</time>
				<extensions>
				</extensions>
			</trkpt>
			<trkpt lat="-28.563758" lon="153.132110">
				<ele>235.558</ele>
				<time>2015-07-04T02:41:20Z</time>
				<extensions>
				</extensions>
			</trkpt>
			<trkpt lat="-28.563436" lon="153.132284">
				<ele>234.207</ele>
				<time>2015-07-04T02:41:22Z</time>
				<extensions>
				</extensions>
			</trkpt>
			<trkpt lat="-28.563272" lon="153.132373">
				<ele>234.369</ele>
				<time>2015-07-04T02:41:23Z</time>
				<extensions>
				</extensions>
			</trkpt>
			<trkpt lat="-28.563110" lon="153.132469">
				<ele>233.738</ele>
				<time>2015-07-04T02:41:24Z</time>
				<extensions>
				</extensions>
			</trkpt>
			<trkpt lat="-28.562944" lon="153.132577">
				<ele>233.197</ele>
				<time>2015-07-04T02:41:25Z</time>
				<extensions>
				</extensions>
			</trkpt>
			<trkpt lat="-28.562778" lon="153.132694">
				<ele>234.596</ele>
				<time>2015-07-04T02:41:26Z</time>
				<extensions>
				</extensions>
			</trkpt>
			<trkpt lat="-28.562613" lon="153.132820">
				<ele>234.086</ele>
				<time>2015-07-04T02:41:27Z</time>
				<extensions>
				</extensions>
			</trkpt>
			<trkpt lat="-28.562449" lon="153.132960">
				<ele>233.769</ele>
				<time>2015-07-04T02:41:28Z</time>
				<extensions>
				</extensions>
			</trkpt>
			<trkpt lat="-28.562289" lon="153.133112">
				<ele>232.880</ele>
				<time>2015-07-04T02:41:29Z</time>
				<extensions>
				</extensions>
			</trkpt>
			<trkpt lat="-28.562130" lon="153.133272">
				<ele>233.054</ele>
				<time>2015-07-04T02:41:30Z</time>
				<extensions>
				</extensions>
			</trkpt>
			<trkpt lat="-28.561987" lon="153.133442">
				<ele>232.875</ele>
				<time>2015-07-04T02:41:31Z</time>
				<extensions>
				</extensions>
			</trkpt>
			<trkpt lat="-28.561850" lon="153.133622">
				<ele>233.227</ele>
				<time>2015-07-04T02:41:32Z</time>
				<extensions>
				</extensions>
			</trkpt>
			<trkpt lat="-28.561719" lon="153.133810">
				<ele>233.054</ele>
				<time>2015-07-04T02:41:33Z</time>
				<extensions>
				</extensions>
			</trkpt>
			<trkpt lat="-28.561593" lon="153.134002">
				<ele>232.918</ele>
				<time>2015-07-04T02:41:34Z</time>
				<extensions>
				</extensions>
			</trkpt>
			<trkpt lat="-28.561476" lon="153.134195">
				<ele>234.000</ele>
				<time>2015-07-04T02:41:35Z</time>
				<extensions>
				</extensions>
			</trkpt>
			<trkpt lat="-28.561368" lon="153.134388">
				<ele>233.498</ele>
				<time>2015-07-04T02:41:36Z</time>
				<extensions>
				</extensions>
			</trkpt>
			<trkpt lat="-28.561267" lon="153.134592">
				<ele>233.891</ele>
				<time>2015-07-04T02:41:37Z</time>
				<extensions>
				</extensions>
			</trkpt>
			<trkpt lat="-28.561171" lon="153.134794">
				<ele>233.721</ele>
				<time>2015-07-04T02:41:38Z</time>
				<extensions>
				</extensions>
			</trkpt>
			<trkpt lat="-28.561083" lon="153.135000">
				<ele>234.494</ele>
				<time>2015-07-04T02:41:39Z</time>
				<extensions>
				</extensions>
			</trkpt>
			<trkpt lat="-28.561010" lon="153.135207">
				<ele>233.921</ele>
				<time>2015-07-04T02:41:40Z</time>
				<extensions>
				</extensions>
			</trkpt>
			<trkpt lat="-28.560942" lon="153.135412">
				<ele>234.432</ele>
				<time>2015-07-04T02:41:41Z</time>
				<extensions>
				</extensions>
			</trkpt>
			<trkpt lat="-28.560880" lon="153.135612">
				<ele>234.647</ele>
				<time>2015-07-04T02:41:42Z</time>
				<extensions>
				</extensions>
			</trkpt>
			<trkpt lat="-28.560766" lon="153.135992">
				<ele>235.482</ele>
				<time>2015-07-04T02:41:44Z</time>
				<extensions>
				</extensions>
			</trkpt>
			<trkpt lat="-28.560706" lon="153.136187">
				<ele>234.621</ele>
				<time>2015-07-04T02:41:45Z</time>
				<extensions>
				</extensions>
			</trkpt>
			<trkpt lat="-28.560643" lon="153.136381">
				<ele>235.445</ele>
				<time>2015-07-04T02:41:46Z</time>
				<extensions>
				</extensions>
			</trkpt>
			<trkpt lat="-28.560506" lon="153.136757">
				<ele>235.341</ele>
				<time>2015-07-04T02:41:48Z</time>
				<extensions>
				</extensions>
			</trkpt>
			<trkpt lat="-28.560406" lon="153.136938">
				<ele>235.372</ele>
				<time>2015-07-04T02:41:49Z</time>
				<extensions>
				</extensions>
			</trkpt>
			<trkpt lat="-28.560293" lon="153.137114">
				<ele>236.186</ele>
				<time>2015-07-04T02:41:50Z</time>
				<extensions>
				</extensions>
			</trkpt>
			<trkpt lat="-28.560169" lon="153.137287">
				<ele>236.260</ele>
				<time>2015-07-04T02:41:51Z</time>
				<extensions>
				</extensions>
			</trkpt>
			<trkpt lat="-28.560046" lon="153.137449">
				<ele>237.108</ele>
				<time>2015-07-04T02:41:52Z</time>
				<extensions>
				</extensions>
			</trkpt>
			<trkpt lat="-28.559813" lon="153.137738">
				<ele>236.348</ele>
				<time>2015-07-04T02:41:54Z</time>
				<extensions>
				</extensions>
			</trkpt>
			<trkpt lat="-28.559608" lon="153.138018">
				<ele>236.979</ele>
				<time>2015-07-04T02:41:56Z</time>
				<extensions>
				</extensions>
			</trkpt>
			<trkpt lat="-28.559478" lon="153.138339">
				<ele>237.919</ele>
				<time>2015-07-04T02:41:58Z</time>
				<extensions>
				</extensions>
			</trkpt>
			<trkpt lat="-28.559452" lon="153.138694">
				<ele>239.892</ele>
				<time>2015-07-04T02:42:00Z</time>
				<extensions>
				</extensions>
			</trkpt>
			<trkpt lat="-28.559520" lon="153.139088">
				<ele>244.950</ele>
				<time>2015-07-04T02:42:02Z</time>
				<extensions>
				</extensions>
			</trkpt>
			<trkpt lat="-28.559571" lon="153.139291">
				<ele>246.839</ele>
				<time>2015-07-04T02:42:03Z</time>
				<extensions>
				</extensions>
			</trkpt>
			<trkpt lat="-28.559662" lon="153.139678">
				<ele>247.384</ele>
				<time>2015-07-04T02:42:05Z</time>
				<extensions>
				</extensions>
			</trkpt>
			<trkpt lat="-28.559714" lon="153.140061">
				<ele>247.929</ele>
				<time>2015-07-04T02:42:07Z</time>
				<extensions>
				</extensions>
			</trkpt>
			<trkpt lat="-28.559700" lon="153.140461">
				<ele>249.491</ele>
				<time>2015-07-04T02:42:09Z</time>
				<extensions>
				</extensions>
			</trkpt>
			<trkpt lat="-28.559662" lon="153.140867">
				<ele>249.871</ele>
				<time>2015-07-04T02:42:11Z</time>
				<extensions>
				</extensions>
			</trkpt>
			<trkpt lat="-28.559648" lon="153.141083">
				<ele>249.817</ele>
				<time>2015-07-04T02:42:12Z</time>
				<extensions>
				</extensions>
			</trkpt>
			<trkpt lat="-28.559637" lon="153.141291">
				<ele>250.508</ele>
				<time>2015-07-04T02:42:13Z</time>
				<extensions>
				</extensions>
			</trkpt>
			<trkpt lat="-28.559640" lon="153.141499">
				<ele>251.671</ele>
				<time>2015-07-04T02:42:14Z</time>
				<extensions>
				</extensions>
			</trkpt>
			<trkpt lat="-28.559657" lon="153.141705">
				<ele>252.640</ele>
				<time>2015-07-04T02:42:15Z</time>
				<extensions>
				</extensions>
			</trkpt>
			<trkpt lat="-28.559692" lon="153.141912">
				<ele>253.130</ele>
				<time>2015-07-04T02:42:16Z</time>
				<extensions>
				</extensions>
			</trkpt>
			<trkpt lat="-28.559746" lon="153.142118">
				<ele>255.704</ele>
				<time>2015-07-04T02:42:17Z</time>
				<extensions>
				</extensions>
			</trkpt>
			<trkpt lat="-28.559810" lon="153.142317">
				<ele>257.389</ele>
				<time>2015-07-04T02:42:18Z</time>
				<extensions>
				</extensions>
			</trkpt>
			<trkpt lat="-28.559938" lon="153.142693">
				<ele>259.874</ele>
				<time>2015-07-04T02:42:20Z</time>
				<extensions>
				</extensions>
			</trkpt>
			<trkpt lat="-28.560056" lon="153.143043">
				<ele>261.569</ele>
				<time>2015-07-04T02:42:22Z</time>
				<extensions>
				</extensions>
			</trkpt>
			<trkpt lat="-28.560114" lon="153.143408">
				<ele>265.527</ele>
				<time>2015-07-04T02:42:24Z</time>
				<extensions>
				</extensions>
			</trkpt>
			<trkpt lat="-28.560081" lon="153.143792">
				<ele>270.193</ele>
				<time>2015-07-04T02:42:26Z</time>
				<extensions>
				</extensions>
			</trkpt>
			<trkpt lat="-28.559944" lon="153.144150">
				<ele>275.898</ele>
				<time>2015-07-04T02:42:28Z</time>
				<extensions>
				</extensions>
			</trkpt>
			<trkpt lat="-28.559719" lon="153.144464">
				<ele>280.803</ele>
				<time>2015-07-04T02:42:30Z</time>
				<extensions>
				</extensions>
			</trkpt>
			<trkpt lat="-28.559579" lon="153.144602">
				<ele>283.762</ele>
				<time>2015-07-04T02:42:31Z</time>
				<extensions>
				</extensions>
			</trkpt>
			<trkpt lat="-28.559430" lon="153.144751">
				<ele>286.206</ele>
				<time>2015-07-04T02:42:32Z</time>
				<extensions>
				</extensions>
			</trkpt>
			<trkpt lat="-28.559276" lon="153.144903">
				<ele>288.846</ele>
				<time>2015-07-04T02:42:33Z</time>
				<extensions>
				</extensions>
			</trkpt>
			<trkpt lat="-28.559118" lon="153.145054">
				<ele>291.035</ele>
				<time>2015-07-04T02:42:34Z</time>
				<extensions>
				</extensions>
			</trkpt>
			<trkpt lat="-28.558965" lon="153.145203">
				<ele>291.842</ele>
				<time>2015-07-04T02:42:35Z</time>
				<extensions>
				</extensions>
			</trkpt>
			<trkpt lat="-28.558815" lon="153.145346">
				<ele>291.960</ele>
				<time>2015-07-04T02:42:36Z</time>
				<extensions>
				</extensions>
			</trkpt>
			<trkpt lat="-28.558670" lon="153.145491">
				<ele>292.176</ele>
				<time>2015-07-04T02:42:37Z</time>
				<extensions>
				</extensions>
			</trkpt>
			<trkpt lat="-28.558533" lon="153.145635">
				<ele>293.351</ele>
				<time>2015-07-04T02:42:38Z</time>
				<extensions>
				</extensions>
			</trkpt>
			<trkpt lat="-28.558392" lon="153.145767">
				<ele>292.588</ele>
				<time>2015-07-04T02:42:39Z</time>
				<extensions>
				</extensions>
			</trkpt>
			<trkpt lat="-28.558132" lon="153.146023">
				<ele>290.405</ele>
				<time>2015-07-04T02:42:41Z</time>
				<extensions>
				</extensions>
			</trkpt>
			<trkpt lat="-28.557877" lon="153.146269">
				<ele>288.916</ele>
				<time>2015-07-04T02:42:43Z</time>
				<extensions>
				</extensions>
			</trkpt>
			<trkpt lat="-28.557623" lon="153.146501">
				<ele>287.656</ele>
				<time>2015-07-04T02:42:45Z</time>
				<extensions>
				</extensions>
			</trkpt>
			<trkpt lat="-28.557331" lon="153.146715">
				<ele>285.950</ele>
				<time>2015-07-04T02:42:47Z</time>
				<extensions>
				</extensions>
			</trkpt>
			<trkpt lat="-28.557170" lon="153.146813">
				<ele>285.369</ele>
				<time>2015-07-04T02:42:48Z</time>
				<extensions>
				</extensions>
			</trkpt>
			<trkpt lat="-28.557000" lon="153.146898">
				<ele>284.464</ele>
				<time>2015-07-04T02:42:49Z</time>
				<extensions>
				</extensions>
			</trkpt>
			<trkpt lat="-28.556815" lon="153.146986">
				<ele>283.198</ele>
				<time>2015-07-04T02:42:50Z</time>
				<extensions>
				</extensions>
			</trkpt>
			<trkpt lat="-28.556625" lon="153.147061">
				<ele>282.565</ele>
				<time>2015-07-04T02:42:51Z</time>
				<extensions>
				</extensions>
			</trkpt>
			<trkpt lat="-28.556429" lon="153.147123">
				<ele>281.315</ele>
				<time>2015-07-04T02:42:52Z</time>
				<extensions>
				</extensions>
			</trkpt>
			<trkpt lat="-28.556228" lon="153.147179">
				<ele>279.285</ele>
				<time>2015-07-04T02:42:53Z</time>
				<extensions>
				</extensions>
			</trkpt>
			<trkpt lat="-28.556018" lon="153.147237">
				<ele>278.680</ele>
				<time>2015-07-04T02:42:54Z</time>
				<extensions>
				</extensions>
			</trkpt>
			<trkpt lat="-28.555815" lon="153.147280">
				<ele>276.625</ele>
				<time>2015-07-04T02:42:55Z</time>
				<extensions>
				</extensions>
			</trkpt>
			<trkpt lat="-28.555611" lon="153.147320">
				<ele>274.588</ele>
				<time>2015-07-04T02:42:56Z</time>
				<extensions>
				</extensions>
			</trkpt>
			<trkpt lat="-28.555409" lon="153.147359">
				<ele>272.138</ele>
				<time>2015-07-04T02:42:57Z</time>
				<extensions>
				</extensions>
			</trkpt>
			<trkpt lat="-28.555205" lon="153.147396">
				<ele>271.370</ele>
				<time>2015-07-04T02:42:58Z</time>
				<extensions>
				</extensions>
			</trkpt>
			<trkpt lat="-28.555009" lon="153.147429">
				<ele>269.784</ele>
				<time>2015-07-04T02:42:59Z</time>
				<extensions>
				</extensions>
			</trkpt>
			<trkpt lat="-28.554801" lon="153.147463">
				<ele>269.473</ele>
				<time>2015-07-04T02:43:00Z</time>
				<extensions>
				</extensions>
			</trkpt>
			<trkpt lat="-28.554597" lon="153.147494">
				<ele>266.849</ele>
				<time>2015-07-04T02:43:01Z</time>
				<extensions>
				</extensions>
			</trkpt>
			<trkpt lat="-28.554399" lon="153.147524">
				<ele>265.108</ele>
				<time>2015-07-04T02:43:02Z</time>
				<extensions>
				</extensions>
			</trkpt>
			<trkpt lat="-28.554204" lon="153.147549">
				<ele>263.105</ele>
				<time>2015-07-04T02:43:03Z</time>
				<extensions>
				</extensions>
			</trkpt>
			<trkpt lat="-28.554011" lon="153.147577">
				<ele>261.263</ele>
				<time>2015-07-04T02:43:04Z</time>
				<extensions>
				</extensions>
			</trkpt>
			<trkpt lat="-28.553820" lon="153.147603">
				<ele>261.160</ele>
				<time>2015-07-04T02:43:05Z</time>
				<extensions>
				</extensions>
			</trkpt>
			<trkpt lat="-28.553626" lon="153.147630">
				<ele>260.454</ele>
				<time>2015-07-04T02:43:06Z</time>
				<extensions>
				</extensions>
			</trkpt>
			<trkpt lat="-28.553433" lon="153.147661">
				<ele>259.655</ele>
				<time>2015-07-04T02:43:07Z</time>
				<extensions>
				</extensions>
			</trkpt>
			<trkpt lat="-28.553244" lon="153.147701">
				<ele>257.545</ele>
				<time>2015-07-04T02:43:08Z</time>
				<extensions>
				</extensions>
			</trkpt>
			<trkpt lat="-28.553049" lon="153.147756">
				<ele>256.988</ele>
				<time>2015-07-04T02:43:09Z</time>
				<extensions>
				</extensions>
			</trkpt>
			<trkpt lat="-28.552854" lon="153.147819">
				<ele>257.820</ele>
				<time>2015-07-04T02:43:10Z</time>
				<extensions>
				</extensions>
			</trkpt>
			<trkpt lat="-28.552668" lon="153.147884">
				<ele>257.537</ele>
				<time>2015-07-04T02:43:11Z</time>
				<extensions>
				</extensions>
			</trkpt>
			<trkpt lat="-28.552482" lon="153.147956">
				<ele>257.227</ele>
				<time>2015-07-04T02:43:12Z</time>
				<extensions>
				</extensions>
			</trkpt>
			<trkpt lat="-28.552302" lon="153.148043">
				<ele>257.790</ele>
				<time>2015-07-04T02:43:13Z</time>
				<extensions>
				</extensions>
			</trkpt>
			<trkpt lat="-28.552122" lon="153.148133">
				<ele>258.109</ele>
				<time>2015-07-04T02:43:14Z</time>
				<extensions>
				</extensions>
			</trkpt>
			<trkpt lat="-28.551945" lon="153.148214">
				<ele>258.527</ele>
				<time>2015-07-04T02:43:15Z</time>
				<extensions>
				</extensions>
			</trkpt>
			<trkpt lat="-28.551772" lon="153.148292">
				<ele>258.816</ele>
				<time>2015-07-04T02:43:16Z</time>
				<extensions>
				</extensions>
			</trkpt>
			<trkpt lat="-28.551602" lon="153.148375">
				<ele>259.205</ele>
				<time>2015-07-04T02:43:17Z</time>
				<extensions>
				</extensions>
			</trkpt>
			<trkpt lat="-28.551280" lon="153.148533">
				<ele>259.661</ele>
				<time>2015-07-04T02:43:19Z</time>
				<extensions>
				</extensions>
			</trkpt>
			<trkpt lat="-28.550975" lon="153.148658">
				<ele>259.110</ele>
				<time>2015-07-04T02:43:21Z</time>
				<extensions>
				</extensions>
			</trkpt>
			<trkpt lat="-28.550666" lon="153.148782">
				<ele>258.815</ele>
				<time>2015-07-04T02:43:23Z</time>
				<extensions>
				</extensions>
			</trkpt>
			<trkpt lat="-28.550337" lon="153.148877">
				<ele>258.301</ele>
				<time>2015-07-04T02:43:25Z</time>
				<extensions>
				</extensions>
			</trkpt>
			<trkpt lat="-28.549985" lon="153.148933">
				<ele>258.497</ele>
				<time>2015-07-04T02:43:27Z</time>
				<extensions>
				</extensions>
			</trkpt>
			<trkpt lat="-28.549800" lon="153.148944">
				<ele>259.874</ele>
				<time>2015-07-04T02:43:28Z</time>
				<extensions>
				</extensions>
			</trkpt>
			<trkpt lat="-28.549605" lon="153.148942">
				<ele>260.143</ele>
				<time>2015-07-04T02:43:29Z</time>
				<extensions>
				</extensions>
			</trkpt>
			<trkpt lat="-28.549404" lon="153.148929">
				<ele>260.737</ele>
				<time>2015-07-04T02:43:30Z</time>
				<extensions>
				</extensions>
			</trkpt>
			<trkpt lat="-28.549203" lon="153.148900">
				<ele>260.684</ele>
				<time>2015-07-04T02:43:31Z</time>
				<extensions>
				</extensions>
			</trkpt>
			<trkpt lat="-28.549005" lon="153.148859">
				<ele>261.139</ele>
				<time>2015-07-04T02:43:32Z</time>
				<extensions>
				</extensions>
			</trkpt>
			<trkpt lat="-28.548797" lon="153.148813">
				<ele>263.102</ele>
				<time>2015-07-04T02:43:33Z</time>
				<extensions>
				</extensions>
			</trkpt>
			<trkpt lat="-28.548593" lon="153.148755">
				<ele>261.679</ele>
				<time>2015-07-04T02:43:34Z</time>
				<extensions>
				</extensions>
			</trkpt>
			<trkpt lat="-28.548391" lon="153.148701">
				<ele>260.769</ele>
				<time>2015-07-04T02:43:35Z</time>
				<extensions>
				</extensions>
			</trkpt>
			<trkpt lat="-28.548195" lon="153.148647">
				<ele>261.498</ele>
				<time>2015-07-04T02:43:36Z</time>
				<extensions>
				</extensions>
			</trkpt>
			<trkpt lat="-28.547997" lon="153.148584">
				<ele>262.184</ele>
				<time>2015-07-04T02:43:37Z</time>
				<extensions>
				</extensions>
			</trkpt>
			<trkpt lat="-28.547811" lon="153.148527">
				<ele>261.831</ele>
				<time>2015-07-04T02:43:38Z</time>
				<extensions>
				</extensions>
			</trkpt>
			<trkpt lat="-28.547632" lon="153.148472">
				<ele>260.161</ele>
				<time>2015-07-04T02:43:39Z</time>
				<extensions>
				</extensions>
			</trkpt>
			<trkpt lat="-28.547285" lon="153.148372">
				<ele>260.677</ele>
				<time>2015-07-04T02:43:41Z</time>
				<extensions>
				</extensions>
			</trkpt>
			<trkpt lat="-28.546948" lon="153.148285">
				<ele>259.853</ele>
				<time>2015-07-04T02:43:43Z</time>
				<extensions>
				</extensions>
			</trkpt>
			<trkpt lat="-28.546628" lon="153.148204">
				<ele>257.419</ele>
				<time>2015-07-04T02:43:45Z</time>
				<extensions>
				</extensions>
			</trkpt>
			<trkpt lat="-28.546287" lon="153.148123">
				<ele>257.844</ele>
				<time>2015-07-04T02:43:47Z</time>
				<extensions>
				</extensions>
			</trkpt>
			<trkpt lat="-28.546101" lon="153.148078">
				<ele>259.758</ele>
				<time>2015-07-04T02:43:48Z</time>
				<extensions>
				</extensions>
			</trkpt>
			<trkpt lat="-28.545901" lon="153.148033">
				<ele>261.383</ele>
				<time>2015-07-04T02:43:49Z</time>
				<extensions>
				</extensions>
			</trkpt>
			<trkpt lat="-28.545694" lon="153.147990">
				<ele>261.720</ele>
				<time>2015-07-04T02:43:50Z</time>
				<extensions>
				</extensions>
			</trkpt>
			<trkpt lat="-28.545487" lon="153.147957">
				<ele>263.494</ele>
				<time>2015-07-04T02:43:51Z</time>
				<extensions>
				</extensions>
			</trkpt>
			<trkpt lat="-28.545279" lon="153.147936">
				<ele>263.787</ele>
				<time>2015-07-04T02:43:52Z</time>
				<extensions>
				</extensions>
			</trkpt>
			<trkpt lat="-28.545066" lon="153.147921">
				<ele>264.024</ele>
				<time>2015-07-04T02:43:53Z</time>
				<extensions>
				</extensions>
			</trkpt>
			<trkpt lat="-28.544848" lon="153.147915">
				<ele>265.403</ele>
				<time>2015-07-04T02:43:54Z</time>
				<extensions>
				</extensions>
			</trkpt>
			<trkpt lat="-28.544632" lon="153.147918">
				<ele>266.791</ele>
				<time>2015-07-04T02:43:55Z</time>
				<extensions>
				</extensions>
			</trkpt>
			<trkpt lat="-28.544420" lon="153.147918">
				<ele>268.325</ele>
				<time>2015-07-04T02:43:56Z</time>
				<extensions>
				</extensions>
			</trkpt>
			<trkpt lat="-28.544214" lon="153.147919">
				<ele>269.769</ele>
				<time>2015-07-04T02:43:57Z</time>
				<extensions>
				</extensions>
			</trkpt>
			<trkpt lat="-28.544013" lon="153.147923">
				<ele>268.980</ele>
				<time>2015-07-04T02:43:58Z</time>
				<extensions>
				</extensions>
			</trkpt>
			<trkpt lat="-28.543816" lon="153.147918">
				<ele>269.267</ele>
				<time>2015-07-04T02:43:59Z</time>
				<extensions>
				</extensions>
			</trkpt>
			<trkpt lat="-28.543617" lon="153.147921">
				<ele>271.505</ele>
				<time>2015-07-04T02:44:00Z</time>
				<extensions>
				</extensions>
			</trkpt>
			<trkpt lat="-28.543422" lon="153.147924">
				<ele>273.058</ele>
				<time>2015-07-04T02:44:01Z</time>
				<extensions>
				</extensions>
			</trkpt>
			<trkpt lat="-28.543238" lon="153.147925">
				<ele>275.439</ele>
				<time>2015-07-04T02:44:02Z</time>
				<extensions>
				</extensions>
			</trkpt>
			<trkpt lat="-28.542888" lon="153.147908">
				<ele>277.297</ele>
				<time>2015-07-04T02:44:04Z</time>
				<extensions>
				</extensions>
			</trkpt>
			<trkpt lat="-28.542536" lon="153.147875">
				<ele>279.953</ele>
				<time>2015-07-04T02:44:06Z</time>
				<extensions>
				</extensions>
			</trkpt>
			<trkpt lat="-28.542353" lon="153.147846">
				<ele>280.958</ele>
				<time>2015-07-04T02:44:07Z</time>
				<extensions>
				</extensions>
			</trkpt>
			<trkpt lat="-28.542167" lon="153.147817">
				<ele>281.615</ele>
				<time>2015-07-04T02:44:08Z</time>
				<extensions>
				</extensions>
			</trkpt>
			<trkpt lat="-28.541989" lon="153.147781">
				<ele>280.318</ele>
				<time>2015-07-04T02:44:09Z</time>
				<extensions>
				</extensions>
			</trkpt>
			<trkpt lat="-28.541804" lon="153.147742">
				<ele>280.165</ele>
				<time>2015-07-04T02:44:10Z</time>
				<extensions>
				</extensions>
			</trkpt>
			<trkpt lat="-28.541615" lon="153.147705">
				<ele>278.742</ele>
				<time>2015-07-04T02:44:11Z</time>
				<extensions>
				</extensions>
			</trkpt>
			<trkpt lat="-28.541426" lon="153.147671">
				<ele>278.109</ele>
				<time>2015-07-04T02:44:12Z</time>
				<extensions>
				</extensions>
			</trkpt>
			<trkpt lat="-28.541221" lon="153.147639">
				<ele>277.677</ele>
				<time>2015-07-04T02:44:13Z</time>
				<extensions>
				</extensions>
			</trkpt>
			<trkpt lat="-28.541010" lon="153.147607">
				<ele>277.016</ele>
				<time>2015-07-04T02:44:14Z</time>
				<extensions>
				</extensions>
			</trkpt>
			<trkpt lat="-28.540800" lon="153.147575">
				<ele>276.517</ele>
				<time>2015-07-04T02:44:15Z</time>
				<extensions>
				</extensions>
			</trkpt>
			<trkpt lat="-28.540583" lon="153.147545">
				<ele>275.560</ele>
				<time>2015-07-04T02:44:16Z</time>
				<extensions>
				</extensions>
			</trkpt>
			<trkpt lat="-28.540368" lon="153.147506">
				<ele>275.591</ele>
				<time>2015-07-04T02:44:17Z</time>
				<extensions>
				</extensions>
			</trkpt>
			<trkpt lat="-28.540153" lon="153.147472">
				<ele>273.939</ele>
				<time>2015-07-04T02:44:18Z</time>
				<extensions>
				</extensions>
			</trkpt>
			<trkpt lat="-28.539931" lon="153.147434">
				<ele>273.239</ele>
				<time>2015-07-04T02:44:19Z</time>
				<extensions>
				</extensions>
			</trkpt>
			<trkpt lat="-28.539702" lon="153.147391">
				<ele>274.245</ele>
				<time>2015-07-04T02:44:20Z</time>
				<extensions>
				</extensions>
			</trkpt>
			<trkpt lat="-28.539458" lon="153.147342">
				<ele>275.233</ele>
				<time>2015-07-04T02:44:21Z</time>
				<extensions>
				</extensions>
			</trkpt>
			<trkpt lat="-28.539217" lon="153.147290">
				<ele>277.325</ele>
				<time>2015-07-04T02:44:22Z</time>
				<extensions>
				</extensions>
			</trkpt>
			<trkpt lat="-28.538990" lon="153.147247">
				<ele>275.416</ele>
				<time>2015-07-04T02:44:23Z</time>
				<extensions>
				</extensions>
			</trkpt>
			<trkpt lat="-28.538767" lon="153.147202">
				<ele>275.853</ele>
				<time>2015-07-04T02:44:24Z</time>
				<extensions>
				</extensions>
			</trkpt>
			<trkpt lat="-28.538547" lon="153.147156">
				<ele>277.819</ele>
				<time>2015-07-04T02:44:25Z</time>
				<extensions>
				</extensions>
			</trkpt>
			<trkpt lat="-28.538359" lon="153.147119">
				<ele>279.512</ele>
				<time>2015-07-04T02:44:26Z</time>
				<extensions>
				</extensions>
			</trkpt>
			<trkpt lat="-28.538178" lon="153.147085">
				<ele>280.206</ele>
				<time>2015-07-04T02:44:27Z</time>
				<extensions>
				</extensions>
			</trkpt>
			<trkpt lat="-28.537827" lon="153.147071">
				<ele>282.378</ele>
				<time>2015-07-04T02:44:29Z</time>
				<extensions>
				</extensions>
			</trkpt>
			<trkpt lat="-28.537475" lon="153.147131">
				<ele>287.810</ele>
				<time>2015-07-04T02:44:31Z</time>
				<extensions>
				</extensions>
			</trkpt>
			<trkpt lat="-28.537288" lon="153.147197">
				<ele>289.722</ele>
				<time>2015-07-04T02:44:32Z</time>
				<extensions>
				</extensions>
			</trkpt>
			<trkpt lat="-28.537110" lon="153.147269">
				<ele>291.782</ele>
				<time>2015-07-04T02:44:33Z</time>
				<extensions>
				</extensions>
			</trkpt>
			<trkpt lat="-28.536925" lon="153.147351">
				<ele>295.127</ele>
				<time>2015-07-04T02:44:34Z</time>
				<extensions>
				</extensions>
			</trkpt>
			<trkpt lat="-28.536733" lon="153.147438">
				<ele>297.553</ele>
				<time>2015-07-04T02:44:35Z</time>
				<extensions>
				</extensions>
			</trkpt>
			<trkpt lat="-28.536533" lon="153.147533">
				<ele>299.796</ele>
				<time>2015-07-04T02:44:36Z</time>
				<extensions>
				</extensions>
			</trkpt>
			<trkpt lat="-28.536353" lon="153.147621">
				<ele>298.831</ele>
				<time>2015-07-04T02:44:37Z</time>
				<extensions>
				</extensions>
			</trkpt>
			<trkpt lat="-28.536170" lon="153.147719">
				<ele>298.304</ele>
				<time>2015-07-04T02:44:38Z</time>
				<extensions>
				</extensions>
			</trkpt>
			<trkpt lat="-28.535990" lon="153.147828">
				<ele>297.933</ele>
				<time>2015-07-04T02:44:39Z</time>
				<extensions>
				</extensions>
			</trkpt>
			<trkpt lat="-28.535809" lon="153.147938">
				<ele>297.435</ele>
				<time>2015-07-04T02:44:40Z</time>
				<extensions>
				</extensions>
			</trkpt>
			<trkpt lat="-28.535616" lon="153.148067">
				<ele>299.054</ele>
				<time>2015-07-04T02:44:41Z</time>
				<extensions>
				</extensions>
			</trkpt>
			<trkpt lat="-28.535425" lon="153.148200">
				<ele>298.993</ele>
				<time>2015-07-04T02:44:42Z</time>
				<extensions>
				</extensions>
			</trkpt>
			<trkpt lat="-28.535251" lon="153.148322">
				<ele>299.222</ele>
				<time>2015-07-04T02:44:43Z</time>
				<extensions>
				</extensions>
			</trkpt>
			<trkpt lat="-28.535075" lon="153.148450">
				<ele>297.554</ele>
				<time>2015-07-04T02:44:44Z</time>
				<extensions>
				</extensions>
			</trkpt>
			<trkpt lat="-28.534894" lon="153.148575">
				<ele>297.244</ele>
				<time>2015-07-04T02:44:45Z</time>
				<extensions>
				</extensions>
			</trkpt>
			<trkpt lat="-28.534711" lon="153.148689">
				<ele>297.407</ele>
				<time>2015-07-04T02:44:46Z</time>
				<extensions>
				</extensions>
			</trkpt>
			<trkpt lat="-28.534517" lon="153.148805">
				<ele>300.156</ele>
				<time>2015-07-04T02:44:47Z</time>
				<extensions>
				</extensions>
			</trkpt>
			<trkpt lat="-28.534328" lon="153.148917">
				<ele>299.955</ele>
				<time>2015-07-04T02:44:48Z</time>
				<extensions>
				</extensions>
			</trkpt>
			<trkpt lat="-28.534131" lon="153.149029">
				<ele>301.001</ele>
				<time>2015-07-04T02:44:49Z</time>
				<extensions>
				</extensions>
			</trkpt>
			<trkpt lat="-28.533941" lon="153.149128">
				<ele>301.634</ele>
				<time>2015-07-04T02:44:50Z</time>
				<extensions>
				</extensions>
			</trkpt>
			<trkpt lat="-28.533734" lon="153.149217">
				<ele>302.183</ele>
				<time>2015-07-04T02:44:51Z</time>
				<extensions>
				</extensions>
			</trkpt>
			<trkpt lat="-28.533535" lon="153.149308">
				<ele>304.388</ele>
				<time>2015-07-04T02:44:52Z</time>
				<extensions>
				</extensions>
			</trkpt>
			<trkpt lat="-28.533309" lon="153.149398">
				<ele>305.278</ele>
				<time>2015-07-04T02:44:53Z</time>
				<extensions>
				</extensions>
			</trkpt>
			<trkpt lat="-28.533080" lon="153.149491">
				<ele>306.100</ele>
				<time>2015-07-04T02:44:54Z</time>
				<extensions>
				</extensions>
			</trkpt>
			<trkpt lat="-28.532853" lon="153.149575">
				<ele>305.094</ele>
				<time>2015-07-04T02:44:55Z</time>
				<extensions>
				</extensions>
			</trkpt>
			<trkpt lat="-28.532635" lon="153.149641">
				<ele>305.913</ele>
				<time>2015-07-04T02:44:56Z</time>
				<extensions>
				</extensions>
			</trkpt>
			<trkpt lat="-28.532416" lon="153.149696">
				<ele>307.297</ele>
				<time>2015-07-04T02:44:57Z</time>
				<extensions>
				</extensions>
			</trkpt>
			<trkpt lat="-28.532203" lon="153.149765">
				<ele>307.393</ele>
				<time>2015-07-04T02:44:58Z</time>
				<extensions>
				</extensions>
			</trkpt>
			<trkpt lat="-28.531996" lon="153.149821">
				<ele>307.980</ele>
				<time>2015-07-04T02:44:59Z</time>
				<extensions>
				</extensions>
			</trkpt>
			<trkpt lat="-28.531795" lon="153.149886">
				<ele>309.829</ele>
				<time>2015-07-04T02:45:00Z</time>
				<extensions>
				</extensions>
			</trkpt>
			<trkpt lat="-28.531607" lon="153.149958">
				<ele>312.148</ele>
				<time>2015-07-04T02:45:01Z</time>
				<extensions>
				</extensions>
			</trkpt>
			<trkpt lat="-28.531411" lon="153.150043">
				<ele>314.421</ele>
				<time>2015-07-04T02:45:02Z</time>
				<extensions>
				</extensions>
			</trkpt>
			<trkpt lat="-28.531240" lon="153.150148">
				<ele>314.421</ele>
				<time>2015-07-04T02:45:03Z</time>
				<extensions>
				</extensions>
			</trkpt>
			<trkpt lat="-28.531066" lon="153.150264">
				<ele>315.514</ele>
				<time>2015-07-04T02:45:04Z</time>
				<extensions>
				</extensions>
			</trkpt>
			<trkpt lat="-28.530897" lon="153.150400">
				<ele>317.838</ele>
				<time>2015-07-04T02:45:05Z</time>
				<extensions>
				</extensions>
			</trkpt>
			<trkpt lat="-28.530724" lon="153.150541">
				<ele>321.694</ele>
				<time>2015-07-04T02:45:06Z</time>
				<extensions>
				</extensions>
			</trkpt>
			<trkpt lat="-28.530553" lon="153.150687">
				<ele>324.412</ele>
				<time>2015-07-04T02:45:07Z</time>
				<extensions>
				</extensions>
			</trkpt>
			<trkpt lat="-28.530391" lon="153.150833">
				<ele>326.881</ele>
				<time>2015-07-04T02:45:08Z</time>
				<extensions>
				</extensions>
			</trkpt>
			<trkpt lat="-28.530230" lon="153.150967">
				<ele>328.552</ele>
				<time>2015-07-04T02:45:09Z</time>
				<extensions>
				</extensions>
			</trkpt>
			<trkpt lat="-28.530074" lon="153.151101">
				<ele>329.450</ele>
				<time>2015-07-04T02:45:10Z</time>
				<extensions>
				</extensions>
			</trkpt>
			<trkpt lat="-28.529919" lon="153.151233">
				<ele>330.352</ele>
				<time>2015-07-04T02:45:11Z</time>
				<extensions>
				</extensions>
			</trkpt>
			<trkpt lat="-28.529767" lon="153.151359">
				<ele>330.016</ele>
				<time>2015-07-04T02:45:12Z</time>
				<extensions>
				</extensions>
			</trkpt>
			<trkpt lat="-28.529618" lon="153.151484">
				<ele>328.004</ele>
				<time>2015-07-04T02:45:13Z</time>
				<extensions>
				</extensions>
			</trkpt>
			<trkpt lat="-28.529349" lon="153.151722">
				<ele>327.629</ele>
				<time>2015-07-04T02:45:15Z</time>
				<extensions>
				</extensions>
			</trkpt>
			<trkpt lat="-28.529114" lon="153.151976">
				<ele>327.202</ele>
				<time>2015-07-04T02:45:17Z</time>
				<extensions>
				</extensions>
			</trkpt>
			<trkpt lat="-28.528944" lon="153.152265">
				<ele>328.053</ele>
				<time>2015-07-04T02:45:19Z</time>
				<extensions>
				</extensions>
			</trkpt>
			<trkpt lat="-28.528846" lon="153.152626">
				<ele>330.863</ele>
				<time>2015-07-04T02:45:21Z</time>
				<extensions>
				</extensions>
			</trkpt>
			<trkpt lat="-28.528812" lon="153.152832">
				<ele>334.023</ele>
				<time>2015-07-04T02:45:22Z</time>
				<extensions>
				</extensions>
			</trkpt>
			<trkpt lat="-28.528755" lon="153.153209">
				<ele>335.113</ele>
				<time>2015-07-04T02:45:24Z</time>
				<extensions>
				</extensions>
			</trkpt>
			<trkpt lat="-28.528709" lon="153.153553">
				<ele>334.420</ele>
				<time>2015-07-04T02:45:26Z</time>
				<extensions>
				</extensions>
			</trkpt>
			<trkpt lat="-28.528658" lon="153.153879">
				<ele>331.841</ele>
				<time>2015-07-04T02:45:28Z</time>
				<extensions>
				</extensions>
			</trkpt>
			<trkpt lat="-28.528548" lon="153.154170">
				<ele>328.801</ele>
				<time>2015-07-04T02:45:30Z</time>
				<extensions>
				</extensions>
			</trkpt>
			<trkpt lat="-28.528341" lon="153.154401">
				<ele>327.129</ele>
				<time>2015-07-04T02:45:32Z</time>
				<extensions>
				</extensions>
			</trkpt>
			<trkpt lat="-28.528078" lon="153.154479">
				<ele>325.249</ele>
				<time>2015-07-04T02:45:34Z</time>
				<extensions>
				</extensions>
			</trkpt>
			<trkpt lat="-28.527822" lon="153.154364">
				<ele>325.658</ele>
				<time>2015-07-04T02:45:36Z</time>
				<extensions>
				</extensions>
			</trkpt>
			<trkpt lat="-28.527576" lon="153.154197">
				<ele>326.038</ele>
				<time>2015-07-04T02:45:38Z</time>
				<extensions>
				</extensions>
			</trkpt>
			<trkpt lat="-28.527308" lon="153.154128">
				<ele>324.140</ele>
				<time>2015-07-04T02:45:40Z</time>
				<extensions>
				</extensions>
			</trkpt>
			<trkpt lat="-28.527007" lon="153.154165">
				<ele>323.787</ele>
				<time>2015-07-04T02:45:42Z</time>
				<extensions>
				</extensions>
			</trkpt>
			<trkpt lat="-28.526709" lon="153.154333">
				<ele>324.079</ele>
				<time>2015-07-04T02:45:44Z</time>
				<extensions>
				</extensions>
			</trkpt>
			<trkpt lat="-28.526432" lon="153.154515">
				<ele>322.595</ele>
				<time>2015-07-04T02:45:46Z</time>
				<extensions>
				</extensions>
			</trkpt>
			<trkpt lat="-28.526198" lon="153.154704">
				<ele>319.636</ele>
				<time>2015-07-04T02:45:48Z</time>
				<extensions>
				</extensions>
			</trkpt>
			<trkpt lat="-28.526039" lon="153.154968">
				<ele>319.700</ele>
				<time>2015-07-04T02:45:50Z</time>
				<extensions>
				</extensions>
			</trkpt>
			<trkpt lat="-28.525981" lon="153.155310">
				<ele>318.701</ele>
				<time>2015-07-04T02:45:52Z</time>
				<extensions>
				</extensions>
			</trkpt>
			<trkpt lat="-28.525921" lon="153.155624">
				<ele>316.760</ele>
				<time>2015-07-04T02:45:54Z</time>
				<extensions>
				</extensions>
			</trkpt>
			<trkpt lat="-28.525778" lon="153.155883">
				<ele>316.830</ele>
				<time>2015-07-04T02:45:56Z</time>
				<extensions>
				</extensions>
			</trkpt>
			<trkpt lat="-28.525512" lon="153.156044">
				<ele>318.738</ele>
				<time>2015-07-04T02:45:58Z</time>
				<extensions>
				</extensions>
			</trkpt>
			<trkpt lat="-28.525233" lon="153.156139">
				<ele>316.936</ele>
				<time>2015-07-04T02:46:00Z</time>
				<extensions>
				</extensions>
			</trkpt>
			<trkpt lat="-28.524950" lon="153.156155">
				<ele>316.921</ele>
				<time>2015-07-04T02:46:02Z</time>
				<extensions>
				</extensions>
			</trkpt>
			<trkpt lat="-28.524672" lon="153.156033">
				<ele>317.106</ele>
				<time>2015-07-04T02:46:04Z</time>
				<extensions>
				</extensions>
			</trkpt>
			<trkpt lat="-28.524413" lon="153.155808">
				<ele>318.133</ele>
				<time>2015-07-04T02:46:06Z</time>
				<extensions>
				</extensions>
			</trkpt>
			<trkpt lat="-28.524143" lon="153.155586">
				<ele>317.686</ele>
				<time>2015-07-04T02:46:08Z</time>
				<extensions>
				</extensions>
			</trkpt>
			<trkpt lat="-28.523839" lon="153.155433">
				<ele>316.699</ele>
				<time>2015-07-04T02:46:10Z</time>
				<extensions>
				</extensions>
			</trkpt>
			<trkpt lat="-28.523508" lon="153.155370">
				<ele>314.893</ele>
				<time>2015-07-04T02:46:12Z</time>
				<extensions>
				</extensions>
			</trkpt>
			<trkpt lat="-28.523163" lon="153.155392">
				<ele>314.054</ele>
				<time>2015-07-04T02:46:14Z</time>
				<extensions>
				</extensions>
			</trkpt>
			<trkpt lat="-28.522981" lon="153.155440">
				<ele>311.940</ele>
				<time>2015-07-04T02:46:15Z</time>
				<extensions>
				</extensions>
			</trkpt>
			<trkpt lat="-28.522806" lon="153.155510">
				<ele>311.545</ele>
				<time>2015-07-04T02:46:16Z</time>
				<extensions>
				</extensions>
			</trkpt>
			<trkpt lat="-28.522632" lon="153.155578">
				<ele>310.668</ele>
				<time>2015-07-04T02:46:17Z</time>
				<extensions>
				</extensions>
			</trkpt>
			<trkpt lat="-28.522458" lon="153.155646">
				<ele>308.708</ele>
				<time>2015-07-04T02:46:18Z</time>
				<extensions>
				</extensions>
			</trkpt>
			<trkpt lat="-28.522287" lon="153.155712">
				<ele>306.907</ele>
				<time>2015-07-04T02:46:19Z</time>
				<extensions>
				</extensions>
			</trkpt>
			<trkpt lat="-28.522119" lon="153.155792">
				<ele>306.907</ele>
				<time>2015-07-04T02:46:20Z</time>
				<extensions>
				</extensions>
			</trkpt>
			<trkpt lat="-28.521826" lon="153.156000">
				<ele>302.755</ele>
				<time>2015-07-04T02:46:22Z</time>
				<extensions>
				</extensions>
			</trkpt>
			<trkpt lat="-28.521585" lon="153.156279">
				<ele>301.980</ele>
				<time>2015-07-04T02:46:24Z</time>
				<extensions>
				</extensions>
			</trkpt>
			<trkpt lat="-28.521347" lon="153.156540">
				<ele>299.289</ele>
				<time>2015-07-04T02:46:26Z</time>
				<extensions>
				</extensions>
			</trkpt>
			<trkpt lat="-28.521114" lon="153.156796">
				<ele>296.436</ele>
				<time>2015-07-04T02:46:28Z</time>
				<extensions>
				</extensions>
			</trkpt>
			<trkpt lat="-28.520882" lon="153.157031">
				<ele>295.174</ele>
				<time>2015-07-04T02:46:30Z</time>
				<extensions>
				</extensions>
			</trkpt>
			<trkpt lat="-28.520613" lon="153.157243">
				<ele>294.026</ele>
				<time>2015-07-04T02:46:32Z</time>
				<extensions>
				</extensions>
			</trkpt>
			<trkpt lat="-28.520306" lon="153.157434">
				<ele>292.927</ele>
				<time>2015-07-04T02:46:34Z</time>
				<extensions>
				</extensions>
			</trkpt>
			<trkpt lat="-28.519982" lon="153.157613">
				<ele>291.732</ele>
				<time>2015-07-04T02:46:36Z</time>
				<extensions>
				</extensions>
			</trkpt>
			<trkpt lat="-28.519822" lon="153.157709">
				<ele>289.497</ele>
				<time>2015-07-04T02:46:37Z</time>
				<extensions>
				</extensions>
			</trkpt>
			<trkpt lat="-28.519492" lon="153.157879">
				<ele>286.442</ele>
				<time>2015-07-04T02:46:39Z</time>
				<extensions>
				</extensions>
			</trkpt>
			<trkpt lat="-28.519174" lon="153.158011">
				<ele>285.138</ele>
				<time>2015-07-04T02:46:41Z</time>
				<extensions>
				</extensions>
			</trkpt>
			<trkpt lat="-28.518858" lon="153.158105">
				<ele>283.610</ele>
				<time>2015-07-04T02:46:43Z</time>
				<extensions>
				</extensions>
			</trkpt>
			<trkpt lat="-28.518599" lon="153.158181">
				<ele>281.291</ele>
				<time>2015-07-04T02:46:45Z</time>
				<extensions>
				</extensions>
			</trkpt>
			<trkpt lat="-28.518389" lon="153.158291">
				<ele>279.514</ele>
				<time>2015-07-04T02:46:47Z</time>
				<extensions>
				</extensions>
			</trkpt>
			<trkpt lat="-28.518264" lon="153.158467">
				<ele>279.991</ele>
				<time>2015-07-04T02:46:49Z</time>
				<extensions>
				</extensions>
			</trkpt>
			<trkpt lat="-28.518259" lon="153.158711">
				<ele>281.139</ele>
				<time>2015-07-04T02:46:51Z</time>
				<extensions>
				</extensions>
			</trkpt>
			<trkpt lat="-28.518391" lon="153.158949">
				<ele>282.043</ele>
				<time>2015-07-04T02:46:53Z</time>
				<extensions>
				</extensions>
			</trkpt>
			<trkpt lat="-28.518590" lon="153.159170">
				<ele>283.675</ele>
				<time>2015-07-04T02:46:55Z</time>
				<extensions>
				</extensions>
			</trkpt>
			<trkpt lat="-28.518873" lon="153.159393">
				<ele>283.152</ele>
				<time>2015-07-04T02:46:57Z</time>
				<extensions>
				</extensions>
			</trkpt>
			<trkpt lat="-28.519154" lon="153.159564">
				<ele>284.384</ele>
				<time>2015-07-04T02:46:59Z</time>
				<extensions>
				</extensions>
			</trkpt>
			<trkpt lat="-28.519435" lon="153.159744">
				<ele>283.432</ele>
				<time>2015-07-04T02:47:01Z</time>
				<extensions>
				</extensions>
			</trkpt>
			<trkpt lat="-28.519707" lon="153.159949">
				<ele>282.370</ele>
				<time>2015-07-04T02:47:03Z</time>
				<extensions>
				</extensions>
			</trkpt>
			<trkpt lat="-28.519958" lon="153.160144">
				<ele>280.644</ele>
				<time>2015-07-04T02:47:05Z</time>
				<extensions>
				</extensions>
			</trkpt>
			<trkpt lat="-28.520203" lon="153.160270">
				<ele>279.813</ele>
				<time>2015-07-04T02:47:07Z</time>
				<extensions>
				</extensions>
			</trkpt>
			<trkpt lat="-28.520445" lon="153.160364">
				<ele>278.628</ele>
				<time>2015-07-04T02:47:09Z</time>
				<extensions>
				</extensions>
			</trkpt>
			<trkpt lat="-28.520675" lon="153.160500">
				<ele>276.997</ele>
				<time>2015-07-04T02:47:11Z</time>
				<extensions>
				</extensions>
			</trkpt>
			<trkpt lat="-28.520870" lon="153.160694">
				<ele>276.225</ele>
				<time>2015-07-04T02:47:13Z</time>
				<extensions>
				</extensions>
			</trkpt>
			<trkpt lat="-28.521071" lon="153.160917">
				<ele>274.805</ele>
				<time>2015-07-04T02:47:15Z</time>
				<extensions>
				</extensions>
			</trkpt>
			<trkpt lat="-28.521271" lon="153.161135">
				<ele>273.020</ele>
				<time>2015-07-04T02:47:17Z</time>
				<extensions>
				</extensions>
			</trkpt>
			<trkpt lat="-28.521450" lon="153.161369">
				<ele>270.193</ele>
				<time>2015-07-04T02:47:19Z</time>
				<extensions>
				</extensions>
			</trkpt>
			<trkpt lat="-28.521598" lon="153.161617">
				<ele>268.329</ele>
				<time>2015-07-04T02:47:21Z</time>
				<extensions>
				</extensions>
			</trkpt>
			<trkpt lat="-28.521675" lon="153.161883">
				<ele>263.230</ele>
				<time>2015-07-04T02:47:23Z</time>
				<extensions>
				</extensions>
			</trkpt>
			<trkpt lat="-28.521632" lon="153.162134">
				<ele>263.027</ele>
				<time>2015-07-04T02:47:25Z</time>
				<extensions>
				</extensions>
			</trkpt>
			<trkpt lat="-28.521466" lon="153.162346">
				<ele>261.590</ele>
				<time>2015-07-04T02:47:27Z</time>
				<extensions>
				</extensions>
			</trkpt>
			<trkpt lat="-28.521279" lon="153.162524">
				<ele>258.426</ele>
				<time>2015-07-04T02:47:29Z</time>
				<extensions>
				</extensions>
			</trkpt>
			<trkpt lat="-28.521134" lon="153.162729">
				<ele>257.628</ele>
				<time>2015-07-04T02:47:31Z</time>
				<extensions>
				</extensions>
			</trkpt>
			<trkpt lat="-28.521087" lon="153.162965">
				<ele>255.548</ele>
				<time>2015-07-04T02:47:33Z</time>
				<extensions>
				</extensions>
			</trkpt>
			<trkpt lat="-28.521148" lon="153.163200">
				<ele>255.510</ele>
				<time>2015-07-04T02:47:35Z</time>
				<extensions>
				</extensions>
			</trkpt>
			<trkpt lat="-28.521298" lon="153.163365">
				<ele>255.751</ele>
				<time>2015-07-04T02:47:37Z</time>
				<extensions>
				</extensions>
			</trkpt>
			<trkpt lat="-28.521517" lon="153.163452">
				<ele>257.066</ele>
				<time>2015-07-04T02:47:39Z</time>
				<extensions>
				</extensions>
			</trkpt>
			<trkpt lat="-28.521758" lon="153.163491">
				<ele>256.152</ele>
				<time>2015-07-04T02:47:41Z</time>
				<extensions>
				</extensions>
			</trkpt>
			<trkpt lat="-28.522014" lon="153.163559">
				<ele>256.163</ele>
				<time>2015-07-04T02:47:43Z</time>
				<extensions>
				</extensions>
			</trkpt>
			<trkpt lat="-28.522258" lon="153.163662">
				<ele>255.601</ele>
				<time>2015-07-04T02:47:45Z</time>
				<extensions>
				</extensions>
			</trkpt>
			<trkpt lat="-28.522488" lon="153.163757">
				<ele>254.313</ele>
				<time>2015-07-04T02:47:47Z</time>
				<extensions>
				</extensions>
			</trkpt>
			<trkpt lat="-28.522717" lon="153.163859">
				<ele>252.666</ele>
				<time>2015-07-04T02:47:49Z</time>
				<extensions>
				</extensions>
			</trkpt>
			<trkpt lat="-28.522936" lon="153.163997">
				<ele>250.314</ele>
				<time>2015-07-04T02:47:51Z</time>
				<extensions>
				</extensions>
			</trkpt>
			<trkpt lat="-28.523166" lon="153.164153">
				<ele>247.138</ele>
				<time>2015-07-04T02:47:53Z</time>
				<extensions>
				</extensions>
			</trkpt>
			<trkpt lat="-28.523401" lon="153.164272">
				<ele>245.734</ele>
				<time>2015-07-04T02:47:55Z</time>
				<extensions>
				</extensions>
			</trkpt>
			<trkpt lat="-28.523615" lon="153.164394">
				<ele>244.121</ele>
				<time>2015-07-04T02:47:57Z</time>
				<extensions>
				</extensions>
			</trkpt>
			<trkpt lat="-28.523772" lon="153.164581">
				<ele>242.542</ele>
				<time>2015-07-04T02:47:59Z</time>
				<extensions>
				</extensions>
			</trkpt>
			<trkpt lat="-28.523846" lon="153.164870">
				<ele>243.692</ele>
				<time>2015-07-04T02:48:01Z</time>
				<extensions>
				</extensions>
			</trkpt>
			<trkpt lat="-28.523854" lon="153.165210">
				<ele>243.896</ele>
				<time>2015-07-04T02:48:03Z</time>
				<extensions>
				</extensions>
			</trkpt>
			<trkpt lat="-28.523806" lon="153.165556">
				<ele>243.110</ele>
				<time>2015-07-04T02:48:05Z</time>
				<extensions>
				</extensions>
			</trkpt>
			<trkpt lat="-28.523750" lon="153.165893">
				<ele>241.524</ele>
				<time>2015-07-04T02:48:07Z</time>
				<extensions>
				</extensions>
			</trkpt>
			<trkpt lat="-28.523705" lon="153.166235">
				<ele>239.715</ele>
				<time>2015-07-04T02:48:09Z</time>
				<extensions>
				</extensions>
			</trkpt>
			<trkpt lat="-28.523664" lon="153.166589">
				<ele>237.946</ele>
				<time>2015-07-04T02:48:11Z</time>
				<extensions>
				</extensions>
			</trkpt>
			<trkpt lat="-28.523621" lon="153.166947">
				<ele>235.652</ele>
				<time>2015-07-04T02:48:13Z</time>
				<extensions>
				</extensions>
			</trkpt>
			<trkpt lat="-28.523554" lon="153.167302">
				<ele>233.333</ele>
				<time>2015-07-04T02:48:15Z</time>
				<extensions>
				</extensions>
			</trkpt>
			<trkpt lat="-28.523474" lon="153.167649">
				<ele>230.446</ele>
				<time>2015-07-04T02:48:17Z</time>
				<extensions>
				</extensions>
			</trkpt>
			<trkpt lat="-28.523414" lon="153.167962">
				<ele>227.219</ele>
				<time>2015-07-04T02:48:19Z</time>
				<extensions>
				</extensions>
			</trkpt>
			<trkpt lat="-28.523363" lon="153.168257">
				<ele>224.623</ele>
				<time>2015-07-04T02:48:21Z</time>
				<extensions>
				</extensions>
			</trkpt>
			<trkpt lat="-28.523328" lon="153.168529">
				<ele>223.153</ele>
				<time>2015-07-04T02:48:23Z</time>
				<extensions>
				</extensions>
			</trkpt>
			<trkpt lat="-28.523295" lon="153.168808">
				<ele>221.561</ele>
				<time>2015-07-04T02:48:25Z</time>
				<extensions>
				</extensions>
			</trkpt>
			<trkpt lat="-28.523244" lon="153.169091">
				<ele>220.995</ele>
				<time>2015-07-04T02:48:27Z</time>
				<extensions>
				</extensions>
			</trkpt>
			<trkpt lat="-28.523139" lon="153.169351">
				<ele>221.327</ele>
				<time>2015-07-04T02:48:29Z</time>
				<extensions>
				</extensions>
			</trkpt>
			<trkpt lat="-28.522958" lon="153.169582">
				<ele>222.884</ele>
				<time>2015-07-04T02:48:31Z</time>
				<extensions>
				</extensions>
			</trkpt>
			<trkpt lat="-28.522694" lon="153.169735">
				<ele>225.349</ele>
				<time>2015-07-04T02:48:33Z</time>
				<extensions>
				</extensions>
			</trkpt>
			<trkpt lat="-28.522376" lon="153.169847">
				<ele>226.845</ele>
				<time>2015-07-04T02:48:35Z</time>
				<extensions>
				</extensions>
			</trkpt>
			<trkpt lat="-28.522068" lon="153.169939">
				<ele>226.417</ele>
				<time>2015-07-04T02:48:37Z</time>
				<extensions>
				</extensions>
			</trkpt>
			<trkpt lat="-28.521776" lon="153.170028">
				<ele>226.601</ele>
				<time>2015-07-04T02:48:39Z</time>
				<extensions>
				</extensions>
			</trkpt>
			<trkpt lat="-28.521518" lon="153.170148">
				<ele>225.207</ele>
				<time>2015-07-04T02:48:41Z</time>
				<extensions>
				</extensions>
			</trkpt>
			<trkpt lat="-28.521322" lon="153.170348">
				<ele>223.379</ele>
				<time>2015-07-04T02:48:43Z</time>
				<extensions>
				</extensions>
			</trkpt>
			<trkpt lat="-28.521191" lon="153.170594">
				<ele>221.410</ele>
				<time>2015-07-04T02:48:45Z</time>
				<extensions>
				</extensions>
			</trkpt>
			<trkpt lat="-28.521053" lon="153.170824">
				<ele>218.804</ele>
				<time>2015-07-04T02:48:47Z</time>
				<extensions>
				</extensions>
			</trkpt>
			<trkpt lat="-28.520867" lon="153.170971">
				<ele>217.442</ele>
				<time>2015-07-04T02:48:49Z</time>
				<extensions>
				</extensions>
			</trkpt>
			<trkpt lat="-28.520635" lon="153.171019">
				<ele>215.943</ele>
				<time>2015-07-04T02:48:51Z</time>
				<extensions>
				</extensions>
			</trkpt>
			<trkpt lat="-28.520404" lon="153.170937">
				<ele>215.327</ele>
				<time>2015-07-04T02:48:53Z</time>
				<extensions>
				</extensions>
			</trkpt>
			<trkpt lat="-28.520195" lon="153.170789">
				<ele>214.694</ele>
				<time>2015-07-04T02:48:55Z</time>
				<extensions>
				</extensions>
			</trkpt>
			<trkpt lat="-28.519980" lon="153.170684">
				<ele>211.398</ele>
				<time>2015-07-04T02:48:57Z</time>
				<extensions>
				</extensions>
			</trkpt>
			<trkpt lat="-28.519755" lon="153.170707">
				<ele>209.448</ele>
				<time>2015-07-04T02:48:59Z</time>
				<extensions>
				</extensions>
			</trkpt>
			<trkpt lat="-28.519576" lon="153.170855">
				<ele>207.631</ele>
				<time>2015-07-04T02:49:01Z</time>
				<extensions>
				</extensions>
			</trkpt>
			<trkpt lat="-28.519478" lon="153.171083">
				<ele>205.718</ele>
				<time>2015-07-04T02:49:03Z</time>
				<extensions>
				</extensions>
			</trkpt>
			<trkpt lat="-28.519445" lon="153.171367">
				<ele>205.020</ele>
				<time>2015-07-04T02:49:05Z</time>
				<extensions>
				</extensions>
			</trkpt>
			<trkpt lat="-28.519378" lon="153.171660">
				<ele>203.734</ele>
				<time>2015-07-04T02:49:07Z</time>
				<extensions>
				</extensions>
			</trkpt>
			<trkpt lat="-28.519219" lon="153.171897">
				<ele>203.603</ele>
				<time>2015-07-04T02:49:09Z</time>
				<extensions>
				</extensions>
			</trkpt>
			<trkpt lat="-28.518999" lon="153.172053">
				<ele>201.755</ele>
				<time>2015-07-04T02:49:11Z</time>
				<extensions>
				</extensions>
			</trkpt>
			<trkpt lat="-28.518756" lon="153.172111">
				<ele>199.919</ele>
				<time>2015-07-04T02:49:13Z</time>
				<extensions>
				</extensions>
			</trkpt>
			<trkpt lat="-28.518532" lon="153.172138">
				<ele>197.911</ele>
				<time>2015-07-04T02:49:15Z</time>
				<extensions>
				</extensions>
			</trkpt>
			<trkpt lat="-28.518323" lon="153.172200">
				<ele>195.713</ele>
				<time>2015-07-04T02:49:17Z</time>
				<extensions>
				</extensions>
			</trkpt>
			<trkpt lat="-28.518159" lon="153.172342">
				<ele>193.440</ele>
				<time>2015-07-04T02:49:19Z</time>
				<extensions>
				</extensions>
			</trkpt>
			<trkpt lat="-28.518045" lon="153.172550">
				<ele>192.330</ele>
				<time>2015-07-04T02:49:21Z</time>
				<extensions>
				</extensions>
			</trkpt>
			<trkpt lat="-28.518038" lon="153.172921">
				<ele>188.582</ele>
				<time>2015-07-04T02:49:24Z</time>
				<extensions>
				</extensions>
			</trkpt>
			<trkpt lat="-28.518126" lon="153.173177">
				<ele>185.811</ele>
				<time>2015-07-04T02:49:26Z</time>
				<extensions>
				</extensions>
			</trkpt>
			<trkpt lat="-28.518176" lon="153.173499">
				<ele>183.368</ele>
				<time>2015-07-04T02:49:28Z</time>
				<extensions>
				</extensions>
			</trkpt>
			<trkpt lat="-28.518119" lon="153.173790">
				<ele>181.136</ele>
				<time>2015-07-04T02:49:30Z</time>
				<extensions>
				</extensions>
			</trkpt>
			<trkpt lat="-28.517982" lon="153.174030">
				<ele>180.292</ele>
				<time>2015-07-04T02:49:32Z</time>
				<extensions>
				</extensions>
			</trkpt>
			<trkpt lat="-28.517766" lon="153.174215">
				<ele>180.719</ele>
				<time>2015-07-04T02:49:34Z</time>
				<extensions>
				</extensions>
			</trkpt>
			<trkpt lat="-28.517533" lon="153.174394">
				<ele>180.103</ele>
				<time>2015-07-04T02:49:36Z</time>
				<extensions>
				</extensions>
			</trkpt>
			<trkpt lat="-28.517296" lon="153.174538">
				<ele>180.721</ele>
				<time>2015-07-04T02:49:38Z</time>
				<extensions>
				</extensions>
			</trkpt>
			<trkpt lat="-28.517060" lon="153.174679">
				<ele>179.385</ele>
				<time>2015-07-04T02:49:40Z</time>
				<extensions>
				</extensions>
			</trkpt>
			<trkpt lat="-28.516820" lon="153.174820">
				<ele>177.794</ele>
				<time>2015-07-04T02:49:42Z</time>
				<extensions>
				</extensions>
			</trkpt>
			<trkpt lat="-28.516580" lon="153.174963">
				<ele>177.050</ele>
				<time>2015-07-04T02:49:44Z</time>
				<extensions>
				</extensions>
			</trkpt>
			<trkpt lat="-28.516322" lon="153.175141">
				<ele>176.718</ele>
				<time>2015-07-04T02:49:46Z</time>
				<extensions>
				</extensions>
			</trkpt>
			<trkpt lat="-28.516072" lon="153.175331">
				<ele>174.227</ele>
				<time>2015-07-04T02:49:48Z</time>
				<extensions>
				</extensions>
			</trkpt>
			<trkpt lat="-28.515815" lon="153.175544">
				<ele>171.921</ele>
				<time>2015-07-04T02:49:50Z</time>
				<extensions>
				</extensions>
			</trkpt>
			<trkpt lat="-28.515544" lon="153.175776">
				<ele>171.164</ele>
				<time>2015-07-04T02:49:52Z</time>
				<extensions>
				</extensions>
			</trkpt>
			<trkpt lat="-28.515279" lon="153.176007">
				<ele>168.665</ele>
				<time>2015-07-04T02:49:54Z</time>
				<extensions>
				</extensions>
			</trkpt>
			<trkpt lat="-28.515027" lon="153.176224">
				<ele>166.607</ele>
				<time>2015-07-04T02:49:56Z</time>
				<extensions>
				</extensions>
			</trkpt>
			<trkpt lat="-28.514770" lon="153.176445">
				<ele>163.263</ele>
				<time>2015-07-04T02:49:58Z</time>
				<extensions>
				</extensions>
			</trkpt>
			<trkpt lat="-28.514508" lon="153.176666">
				<ele>160.995</ele>
				<time>2015-07-04T02:50:00Z</time>
				<extensions>
				</extensions>
			</trkpt>
			<trkpt lat="-28.514281" lon="153.176867">
				<ele>158.651</ele>
				<time>2015-07-04T02:50:02Z</time>
				<extensions>
				</extensions>
			</trkpt>
			<trkpt lat="-28.514073" lon="153.177050">
				<ele>156.932</ele>
				<time>2015-07-04T02:50:04Z</time>
				<extensions>
				</extensions>
			</trkpt>
			<trkpt lat="-28.513839" lon="153.177231">
				<ele>155.649</ele>
				<time>2015-07-04T02:50:06Z</time>
				<extensions>
				</extensions>
			</trkpt>
			<trkpt lat="-28.513560" lon="153.177394">
				<ele>154.763</ele>
				<time>2015-07-04T02:50:08Z</time>
				<extensions>
				</extensions>
			</trkpt>
			<trkpt lat="-28.513233" lon="153.177516">
				<ele>153.212</ele>
				<time>2015-07-04T02:50:10Z</time>
				<extensions>
				</extensions>
			</trkpt>
			<trkpt lat="-28.512895" lon="153.177657">
				<ele>151.264</ele>
				<time>2015-07-04T02:50:12Z</time>
				<extensions>
				</extensions>
			</trkpt>
			<trkpt lat="-28.512728" lon="153.177751">
				<ele>151.248</ele>
				<time>2015-07-04T02:50:13Z</time>
				<extensions>
				</extensions>
			</trkpt>
			<trkpt lat="-28.512561" lon="153.177851">
				<ele>150.554</ele>
				<time>2015-07-04T02:50:14Z</time>
				<extensions>
				</extensions>
			</trkpt>
			<trkpt lat="-28.512398" lon="153.177952">
				<ele>150.664</ele>
				<time>2015-07-04T02:50:15Z</time>
				<extensions>
				</extensions>
			</trkpt>
			<trkpt lat="-28.512239" lon="153.178059">
				<ele>150.113</ele>
				<time>2015-07-04T02:50:16Z</time>
				<extensions>
				</extensions>
			</trkpt>
			<trkpt lat="-28.511935" lon="153.178273">
				<ele>150.430</ele>
				<time>2015-07-04T02:50:18Z</time>
				<extensions>
				</extensions>
			</trkpt>
			<trkpt lat="-28.511644" lon="153.178464">
				<ele>148.817</ele>
				<time>2015-07-04T02:50:20Z</time>
				<extensions>
				</extensions>
			</trkpt>
			<trkpt lat="-28.511380" lon="153.178647">
				<ele>148.538</ele>
				<time>2015-07-04T02:50:22Z</time>
				<extensions>
				</extensions>
			</trkpt>
			<trkpt lat="-28.511139" lon="153.178842">
				<ele>148.273</ele>
				<time>2015-07-04T02:50:24Z</time>
				<extensions>
				</extensions>
			</trkpt>
			<trkpt lat="-28.510914" lon="153.179094">
				<ele>148.386</ele>
				<time>2015-07-04T02:50:26Z</time>
				<extensions>
				</extensions>
			</trkpt>
			<trkpt lat="-28.510716" lon="153.179386">
				<ele>148.202</ele>
				<time>2015-07-04T02:50:28Z</time>
				<extensions>
				</extensions>
			</trkpt>
			<trkpt lat="-28.510533" lon="153.179692">
				<ele>147.709</ele>
				<time>2015-07-04T02:50:30Z</time>
				<extensions>
				</extensions>
			</trkpt>
			<trkpt lat="-28.510353" lon="153.179991">
				<ele>147.566</ele>
				<time>2015-07-04T02:50:32Z</time>
				<extensions>
				</extensions>
			</trkpt>
			<trkpt lat="-28.510188" lon="153.180275">
				<ele>147.527</ele>
				<time>2015-07-04T02:50:34Z</time>
				<extensions>
				</extensions>
			</trkpt>
			<trkpt lat="-28.510012" lon="153.180571">
				<ele>148.786</ele>
				<time>2015-07-04T02:50:36Z</time>
				<extensions>
				</extensions>
			</trkpt>
			<trkpt lat="-28.509817" lon="153.180825">
				<ele>149.474</ele>
				<time>2015-07-04T02:50:38Z</time>
				<extensions>
				</extensions>
			</trkpt>
			<trkpt lat="-28.509626" lon="153.181005">
				<ele>148.102</ele>
				<time>2015-07-04T02:50:40Z</time>
				<extensions>
				</extensions>
			</trkpt>
			<trkpt lat="-28.509456" lon="153.181133">
				<ele>146.866</ele>
				<time>2015-07-04T02:50:42Z</time>
				<extensions>
				</extensions>
			</trkpt>
			<trkpt lat="-28.509268" lon="153.181255">
				<ele>145.399</ele>
				<time>2015-07-04T02:50:45Z</time>
				<extensions>
				</extensions>
			</trkpt>
			<trkpt lat="-28.509135" lon="153.181453">
				<ele>144.876</ele>
				<time>2015-07-04T02:50:50Z</time>
				<extensions>
				</extensions>
			</trkpt>
			<trkpt lat="-28.509297" lon="153.181621">
				<ele>146.217</ele>
				<time>2015-07-04T02:50:53Z</time>
				<extensions>
				</extensions>
			</trkpt>
			<trkpt lat="-28.509456" lon="153.181765">
				<ele>148.544</ele>
				<time>2015-07-04T02:50:55Z</time>
				<extensions>
				</extensions>
			</trkpt>
			<trkpt lat="-28.509667" lon="153.181850">
				<ele>150.484</ele>
				<time>2015-07-04T02:50:57Z</time>
				<extensions>
				</extensions>
			</trkpt>
			<trkpt lat="-28.509913" lon="153.181866">
				<ele>153.424</ele>
				<time>2015-07-04T02:50:59Z</time>
				<extensions>
				</extensions>
			</trkpt>
			<trkpt lat="-28.510157" lon="153.181807">
				<ele>155.049</ele>
				<time>2015-07-04T02:51:01Z</time>
				<extensions>
				</extensions>
			</trkpt>
			<trkpt lat="-28.510422" lon="153.181740">
				<ele>158.397</ele>
				<time>2015-07-04T02:51:03Z</time>
				<extensions>
				</extensions>
			</trkpt>
			<trkpt lat="-28.510704" lon="153.181670">
				<ele>161.381</ele>
				<time>2015-07-04T02:51:05Z</time>
				<extensions>
				</extensions>
			</trkpt>
			<trkpt lat="-28.510955" lon="153.181625">
				<ele>162.286</ele>
				<time>2015-07-04T02:51:07Z</time>
				<extensions>
				</extensions>
			</trkpt>
			<trkpt lat="-28.511201" lon="153.181618">
				<ele>164.472</ele>
				<time>2015-07-04T02:51:09Z</time>
				<extensions>
				</extensions>
			</trkpt>
			<trkpt lat="-28.511461" lon="153.181642">
				<ele>167.622</ele>
				<time>2015-07-04T02:51:11Z</time>
				<extensions>
				</extensions>
			</trkpt>
			<trkpt lat="-28.511722" lon="153.181723">
				<ele>169.739</ele>
				<time>2015-07-04T02:51:13Z</time>
				<extensions>
				</extensions>
			</trkpt>
			<trkpt lat="-28.511971" lon="153.181851">
				<ele>172.345</ele>
				<time>2015-07-04T02:51:15Z</time>
				<extensions>
				</extensions>
			</trkpt>
			<trkpt lat="-28.512186" lon="153.182048">
				<ele>175.330</ele>
				<time>2015-07-04T02:51:17Z</time>
				<extensions>
				</extensions>
			</trkpt>
			<trkpt lat="-28.512393" lon="153.182286">
				<ele>178.347</ele>
				<time>2015-07-04T02:51:19Z</time>
				<extensions>
				</extensions>
			</trkpt>
			<trkpt lat="-28.512613" lon="153.182552">
				<ele>180.413</ele>
				<time>2015-07-04T02:51:21Z</time>
				<extensions>
				</extensions>
			</trkpt>
			<trkpt lat="-28.512823" lon="153.182818">
				<ele>180.186</ele>
				<time>2015-07-04T02:51:23Z</time>
				<extensions>
				</extensions>
			</trkpt>
			<trkpt lat="-28.513030" lon="153.183079">
				<ele>181.063</ele>
				<time>2015-07-04T02:51:25Z</time>
				<extensions>
				</extensions>
			</trkpt>
			<trkpt lat="-28.513243" lon="153.183345">
				<ele>169.670</ele>
				<time>2015-07-04T02:51:27Z</time>
				<extensions>
				</extensions>
			</trkpt>
			<trkpt lat="-28.513447" lon="153.183596">
				<ele>172.150</ele>
				<time>2015-07-04T02:51:29Z</time>
				<extensions>
				</extensions>
			</trkpt>
			<trkpt lat="-28.513667" lon="153.183815">
				<ele>184.905</ele>
				<time>2015-07-04T02:51:31Z</time>
				<extensions>
				</extensions>
			</trkpt>
			<trkpt lat="-28.513897" lon="153.183988">
				<ele>187.082</ele>
				<time>2015-07-04T02:51:33Z</time>
				<extensions>
				</extensions>
			</trkpt>
			<trkpt lat="-28.514148" lon="153.184108">
				<ele>189.675</ele>
				<time>2015-07-04T02:51:35Z</time>
				<extensions>
				</extensions>
			</trkpt>
			<trkpt lat="-28.514416" lon="153.184178">
				<ele>192.168</ele>
				<time>2015-07-04T02:51:37Z</time>
				<extensions>
				</extensions>
			</trkpt>
			<trkpt lat="-28.514698" lon="153.184182">
				<ele>178.155</ele>
				<time>2015-07-04T02:51:39Z</time>
				<extensions>
				</extensions>
			</trkpt>
			<trkpt lat="-28.514994" lon="153.184117">
				<ele>197.170</ele>
				<time>2015-07-04T02:51:41Z</time>
				<extensions>
				</extensions>
			</trkpt>
			<trkpt lat="-28.515291" lon="153.183997">
				<ele>185.989</ele>
				<time>2015-07-04T02:51:43Z</time>
				<extensions>
				</extensions>
			</trkpt>
			<trkpt lat="-28.515579" lon="153.183863">
				<ele>190.130</ele>
				<time>2015-07-04T02:51:45Z</time>
				<extensions>
				</extensions>
			</trkpt>
			<trkpt lat="-28.515855" lon="153.183734">
				<ele>195.056</ele>
				<time>2015-07-04T02:51:47Z</time>
				<extensions>
				</extensions>
			</trkpt>
			<trkpt lat="-28.516141" lon="153.183654">
				<ele>197.624</ele>
				<time>2015-07-04T02:51:49Z</time>
				<extensions>
				</extensions>
			</trkpt>
			<trkpt lat="-28.516443" lon="153.183641">
				<ele>199.245</ele>
				<time>2015-07-04T02:51:51Z</time>
				<extensions>
				</extensions>
			</trkpt>
			<trkpt lat="-28.516740" lon="153.183686">
				<ele>198.809</ele>
				<time>2015-07-04T02:51:53Z</time>
				<extensions>
				</extensions>
			</trkpt>
			<trkpt lat="-28.517021" lon="153.183794">
				<ele>199.793</ele>
				<time>2015-07-04T02:51:55Z</time>
				<extensions>
				</extensions>
			</trkpt>
			<trkpt lat="-28.517263" lon="153.183975">
				<ele>200.823</ele>
				<time>2015-07-04T02:51:57Z</time>
				<extensions>
				</extensions>
			</trkpt>
			<trkpt lat="-28.517491" lon="153.184231">
				<ele>202.237</ele>
				<time>2015-07-04T02:51:59Z</time>
				<extensions>
				</extensions>
			</trkpt>
			<trkpt lat="-28.517715" lon="153.184513">
				<ele>201.383</ele>
				<time>2015-07-04T02:52:01Z</time>
				<extensions>
				</extensions>
			</trkpt>
			<trkpt lat="-28.517916" lon="153.184777">
				<ele>202.272</ele>
				<time>2015-07-04T02:52:03Z</time>
				<extensions>
				</extensions>
			</trkpt>
			<trkpt lat="-28.518110" lon="153.185038">
				<ele>203.654</ele>
				<time>2015-07-04T02:52:05Z</time>
				<extensions>
				</extensions>
			</trkpt>
			<trkpt lat="-28.518287" lon="153.185278">
				<ele>213.804</ele>
				<time>2015-07-04T02:52:07Z</time>
				<extensions>
				</extensions>
			</trkpt>
			<trkpt lat="-28.518459" lon="153.185508">
				<ele>214.532</ele>
				<time>2015-07-04T02:52:09Z</time>
				<extensions>
				</extensions>
			</trkpt>
			<trkpt lat="-28.518644" lon="153.185743">
				<ele>215.359</ele>
				<time>2015-07-04T02:52:11Z</time>
				<extensions>
				</extensions>
			</trkpt>
			<trkpt lat="-28.518867" lon="153.185948">
				<ele>214.670</ele>
				<time>2015-07-04T02:52:13Z</time>
				<extensions>
				</extensions>
			</trkpt>
			<trkpt lat="-28.519109" lon="153.186107">
				<ele>214.165</ele>
				<time>2015-07-04T02:52:15Z</time>
				<extensions>
				</extensions>
			</trkpt>
			<trkpt lat="-28.519388" lon="153.186203">
				<ele>213.798</ele>
				<time>2015-07-04T02:52:17Z</time>
				<extensions>
				</extensions>
			</trkpt>
			<trkpt lat="-28.519697" lon="153.186201">
				<ele>213.348</ele>
				<time>2015-07-04T02:52:19Z</time>
				<extensions>
				</extensions>
			</trkpt>
			<trkpt lat="-28.520021" lon="153.186099">
				<ele>215.415</ele>
				<time>2015-07-04T02:52:21Z</time>
				<extensions>
				</extensions>
			</trkpt>
			<trkpt lat="-28.520345" lon="153.185983">
				<ele>215.466</ele>
				<time>2015-07-04T02:52:23Z</time>
				<extensions>
				</extensions>
			</trkpt>
			<trkpt lat="-28.520653" lon="153.185910">
				<ele>216.409</ele>
				<time>2015-07-04T02:52:25Z</time>
				<extensions>
				</extensions>
			</trkpt>
			<trkpt lat="-28.520941" lon="153.185902">
				<ele>216.356</ele>
				<time>2015-07-04T02:52:27Z</time>
				<extensions>
				</extensions>
			</trkpt>
			<trkpt lat="-28.521210" lon="153.185989">
				<ele>217.801</ele>
				<time>2015-07-04T02:52:29Z</time>
				<extensions>
				</extensions>
			</trkpt>
			<trkpt lat="-28.521438" lon="153.186169">
				<ele>218.543</ele>
				<time>2015-07-04T02:52:31Z</time>
				<extensions>
				</extensions>
			</trkpt>
			<trkpt lat="-28.521616" lon="153.186457">
				<ele>218.286</ele>
				<time>2015-07-04T02:52:33Z</time>
				<extensions>
				</extensions>
			</trkpt>
			<trkpt lat="-28.521736" lon="153.186797">
				<ele>219.546</ele>
				<time>2015-07-04T02:52:35Z</time>
				<extensions>
				</extensions>
			</trkpt>
			<trkpt lat="-28.521853" lon="153.187180">
				<ele>219.525</ele>
				<time>2015-07-04T02:52:37Z</time>
				<extensions>
				</extensions>
			</trkpt>
			<trkpt lat="-28.521956" lon="153.187548">
				<ele>217.939</ele>
				<time>2015-07-04T02:52:39Z</time>
				<extensions>
				</extensions>
			</trkpt>
			<trkpt lat="-28.522048" lon="153.187922">
				<ele>215.418</ele>
				<time>2015-07-04T02:52:41Z</time>
				<extensions>
				</extensions>
			</trkpt>
			<trkpt lat="-28.522142" lon="153.188314">
				<ele>215.630</ele>
				<time>2015-07-04T02:52:43Z</time>
				<extensions>
				</extensions>
			</trkpt>
			<trkpt lat="-28.522201" lon="153.188705">
				<ele>216.867</ele>
				<time>2015-07-04T02:52:45Z</time>
				<extensions>
				</extensions>
			</trkpt>
			<trkpt lat="-28.522215" lon="153.188920">
				<ele>217.394</ele>
				<time>2015-07-04T02:52:46Z</time>
				<extensions>
				</extensions>
			</trkpt>
			<trkpt lat="-28.522227" lon="153.189129">
				<ele>218.466</ele>
				<time>2015-07-04T02:52:47Z</time>
				<extensions>
				</extensions>
			</trkpt>
			<trkpt lat="-28.522233" lon="153.189338">
				<ele>218.810</ele>
				<time>2015-07-04T02:52:48Z</time>
				<extensions>
				</extensions>
			</trkpt>
			<trkpt lat="-28.522236" lon="153.189551">
				<ele>218.941</ele>
				<time>2015-07-04T02:52:49Z</time>
				<extensions>
				</extensions>
			</trkpt>
			<trkpt lat="-28.522229" lon="153.189925">
				<ele>220.614</ele>
				<time>2015-07-04T02:52:51Z</time>
				<extensions>
				</extensions>
			</trkpt>
			<trkpt lat="-28.522226" lon="153.190279">
				<ele>223.713</ele>
				<time>2015-07-04T02:52:53Z</time>
				<extensions>
				</extensions>
			</trkpt>
			<trkpt lat="-28.522239" lon="153.190624">
				<ele>227.047</ele>
				<time>2015-07-04T02:52:55Z</time>
				<extensions>
				</extensions>
			</trkpt>
			<trkpt lat="-28.522306" lon="153.190957">
				<ele>230.167</ele>
				<time>2015-07-04T02:52:57Z</time>
				<extensions>
				</extensions>
			</trkpt>
			<trkpt lat="-28.522398" lon="153.191268">
				<ele>232.625</ele>
				<time>2015-07-04T02:52:59Z</time>
				<extensions>
				</extensions>
			</trkpt>
			<trkpt lat="-28.522501" lon="153.191530">
				<ele>232.677</ele>
				<time>2015-07-04T02:53:01Z</time>
				<extensions>
				</extensions>
			</trkpt>
			<trkpt lat="-28.522613" lon="153.191796">
				<ele>233.308</ele>
				<time>2015-07-04T02:53:03Z</time>
				<extensions>
				</extensions>
			</trkpt>
			<trkpt lat="-28.522724" lon="153.192067">
				<ele>234.300</ele>
				<time>2015-07-04T02:53:05Z</time>
				<extensions>
				</extensions>
			</trkpt>
			<trkpt lat="-28.522828" lon="153.192358">
				<ele>236.441</ele>
				<time>2015-07-04T02:53:07Z</time>
				<extensions>
				</extensions>
			</trkpt>
			<trkpt lat="-28.522943" lon="153.192668">
				<ele>238.221</ele>
				<time>2015-07-04T02:53:09Z</time>
				<extensions>
				</extensions>
			</trkpt>
			<trkpt lat="-28.523083" lon="153.192956">
				<ele>238.878</ele>
				<time>2015-07-04T02:53:11Z</time>
				<extensions>
				</extensions>
			</trkpt>
			<trkpt lat="-28.523272" lon="153.193240">
				<ele>239.975</ele>
				<time>2015-07-04T02:53:13Z</time>
				<extensions>
				</extensions>
			</trkpt>
			<trkpt lat="-28.523506" lon="153.193480">
				<ele>240.049</ele>
				<time>2015-07-04T02:53:15Z</time>
				<extensions>
				</extensions>
			</trkpt>
			<trkpt lat="-28.523750" lon="153.193686">
				<ele>238.898</ele>
				<time>2015-07-04T02:53:17Z</time>
				<extensions>
				</extensions>
			</trkpt>
			<trkpt lat="-28.524005" lon="153.193890">
				<ele>235.975</ele>
				<time>2015-07-04T02:53:19Z</time>
				<extensions>
				</extensions>
			</trkpt>
			<trkpt lat="-28.524285" lon="153.194106">
				<ele>233.132</ele>
				<time>2015-07-04T02:53:21Z</time>
				<extensions>
				</extensions>
			</trkpt>
			<trkpt lat="-28.524534" lon="153.194303">
				<ele>225.403</ele>
				<time>2015-07-04T02:53:23Z</time>
				<extensions>
				</extensions>
			</trkpt>
			<trkpt lat="-28.524782" lon="153.194494">
				<ele>231.139</ele>
				<time>2015-07-04T02:53:25Z</time>
				<extensions>
				</extensions>
			</trkpt>
			<trkpt lat="-28.525030" lon="153.194689">
				<ele>231.170</ele>
				<time>2015-07-04T02:53:27Z</time>
				<extensions>
				</extensions>
			</trkpt>
			<trkpt lat="-28.525303" lon="153.194882">
				<ele>233.091</ele>
				<time>2015-07-04T02:53:29Z</time>
				<extensions>
				</extensions>
			</trkpt>
			<trkpt lat="-28.525602" lon="153.195071">
				<ele>228.576</ele>
				<time>2015-07-04T02:53:31Z</time>
				<extensions>
				</extensions>
			</trkpt>
			<trkpt lat="-28.525915" lon="153.195241">
				<ele>240.314</ele>
				<time>2015-07-04T02:53:33Z</time>
				<extensions>
				</extensions>
			</trkpt>
			<trkpt lat="-28.526234" lon="153.195395">
				<ele>243.794</ele>
				<time>2015-07-04T02:53:35Z</time>
				<extensions>
				</extensions>
			</trkpt>
			<trkpt lat="-28.526544" lon="153.195515">
				<ele>234.389</ele>
				<time>2015-07-04T02:53:37Z</time>
				<extensions>
				</extensions>
			</trkpt>
			<trkpt lat="-28.526864" lon="153.195619">
				<ele>236.946</ele>
				<time>2015-07-04T02:53:39Z</time>
				<extensions>
				</extensions>
			</trkpt>
			<trkpt lat="-28.527041" lon="153.195665">
				<ele>238.717</ele>
				<time>2015-07-04T02:53:40Z</time>
				<extensions>
				</extensions>
			</trkpt>
			<trkpt lat="-28.527373" lon="153.195742">
				<ele>242.941</ele>
				<time>2015-07-04T02:53:42Z</time>
				<extensions>
				</extensions>
			</trkpt>
			<trkpt lat="-28.527642" lon="153.195785">
				<ele>250.283</ele>
				<time>2015-07-04T02:53:44Z</time>
				<extensions>
				</extensions>
			</trkpt>
			<trkpt lat="-28.527836" lon="153.195818">
				<ele>246.338</ele>
				<time>2015-07-04T02:53:47Z</time>
				<extensions>
				</extensions>
			</trkpt>
			<trkpt lat="-28.528040" lon="153.195862">
				<ele>246.453</ele>
				<time>2015-07-04T02:53:57Z</time>
				<extensions>
				</extensions>
			</trkpt>
			<trkpt lat="-28.528224" lon="153.195880">
				<ele>249.102</ele>
				<time>2015-07-04T02:54:09Z</time>
				<extensions>
				</extensions>
			</trkpt>
			<trkpt lat="-28.528418" lon="153.195878">
				<ele>250.710</ele>
				<time>2015-07-04T02:54:11Z</time>
				<extensions>
				</extensions>
			</trkpt>
			<trkpt lat="-28.528680" lon="153.195900">
				<ele>253.201</ele>
				<time>2015-07-04T02:54:13Z</time>
				<extensions>
				</extensions>
			</trkpt>
			<trkpt lat="-28.528982" lon="153.195931">
				<ele>254.710</ele>
				<time>2015-07-04T02:54:15Z</time>
				<extensions>
				</extensions>
			</trkpt>
			<trkpt lat="-28.529328" lon="153.195966">
				<ele>255.949</ele>
				<time>2015-07-04T02:54:17Z</time>
				<extensions>
				</extensions>
			</trkpt>
			<trkpt lat="-28.529665" lon="153.195999">
				<ele>253.784</ele>
				<time>2015-07-04T02:54:19Z</time>
				<extensions>
				</extensions>
			</trkpt>
			<trkpt lat="-28.530009" lon="153.196031">
				<ele>251.965</ele>
				<time>2015-07-04T02:54:21Z</time>
				<extensions>
				</extensions>
			</trkpt>
			<trkpt lat="-28.530353" lon="153.196068">
				<ele>249.793</ele>
				<time>2015-07-04T02:54:23Z</time>
				<extensions>
				</extensions>
			</trkpt>
			<trkpt lat="-28.530700" lon="153.196091">
				<ele>246.738</ele>
				<time>2015-07-04T02:54:25Z</time>
				<extensions>
				</extensions>
			</trkpt>
			<trkpt lat="-28.531047" lon="153.196076">
				<ele>245.126</ele>
				<time>2015-07-04T02:54:27Z</time>
				<extensions>
				</extensions>
			</trkpt>
			<trkpt lat="-28.531400" lon="153.196011">
				<ele>242.690</ele>
				<time>2015-07-04T02:54:29Z</time>
				<extensions>
				</extensions>
			</trkpt>
			<trkpt lat="-28.531586" lon="153.195959">
				<ele>241.721</ele>
				<time>2015-07-04T02:54:30Z</time>
				<extensions>
				</extensions>
			</trkpt>
			<trkpt lat="-28.531780" lon="153.195894">
				<ele>240.205</ele>
				<time>2015-07-04T02:54:31Z</time>
				<extensions>
				</extensions>
			</trkpt>
			<trkpt lat="-28.531974" lon="153.195815">
				<ele>238.239</ele>
				<time>2015-07-04T02:54:32Z</time>
				<extensions>
				</extensions>
			</trkpt>
			<trkpt lat="-28.532173" lon="153.195736">
				<ele>236.669</ele>
				<time>2015-07-04T02:54:33Z</time>
				<extensions>
				</extensions>
			</trkpt>
			<trkpt lat="-28.532357" lon="153.195629">
				<ele>234.557</ele>
				<time>2015-07-04T02:54:34Z</time>
				<extensions>
				</extensions>
			</trkpt>
			<trkpt lat="-28.532538" lon="153.195510">
				<ele>233.016</ele>
				<time>2015-07-04T02:54:35Z</time>
				<extensions>
				</extensions>
			</trkpt>
			<trkpt lat="-28.532712" lon="153.195376">
				<ele>230.367</ele>
				<time>2015-07-04T02:54:36Z</time>
				<extensions>
				</extensions>
			</trkpt>
			<trkpt lat="-28.532882" lon="153.195228">
				<ele>228.354</ele>
				<time>2015-07-04T02:54:37Z</time>
				<extensions>
				</extensions>
			</trkpt>
			<trkpt lat="-28.533041" lon="153.195070">
				<ele>227.004</ele>
				<time>2015-07-04T02:54:38Z</time>
				<extensions>
				</extensions>
			</trkpt>
			<trkpt lat="-28.533192" lon="153.194905">
				<ele>224.609</ele>
				<time>2015-07-04T02:54:39Z</time>
				<extensions>
				</extensions>
			</trkpt>
			<trkpt lat="-28.533336" lon="153.194736">
				<ele>223.647</ele>
				<time>2015-07-04T02:54:40Z</time>
				<extensions>
				</extensions>
			</trkpt>
			<trkpt lat="-28.533465" lon="153.194557">
				<ele>223.647</ele>
				<time>2015-07-04T02:54:41Z</time>
				<extensions>
				</extensions>
			</trkpt>
			<trkpt lat="-28.533584" lon="153.194365">
				<ele>222.045</ele>
				<time>2015-07-04T02:54:42Z</time>
				<extensions>
				</extensions>
			</trkpt>
			<trkpt lat="-28.533692" lon="153.194159">
				<ele>221.547</ele>
				<time>2015-07-04T02:54:43Z</time>
				<extensions>
				</extensions>
			</trkpt>
			<trkpt lat="-28.533797" lon="153.193950">
				<ele>221.222</ele>
				<time>2015-07-04T02:54:44Z</time>
				<extensions>
				</extensions>
			</trkpt>
			<trkpt lat="-28.533911" lon="153.193725">
				<ele>220.977</ele>
				<time>2015-07-04T02:54:45Z</time>
				<extensions>
				</extensions>
			</trkpt>
			<trkpt lat="-28.534004" lon="153.193537">
				<ele>219.235</ele>
				<time>2015-07-04T02:54:46Z</time>
				<extensions>
				</extensions>
			</trkpt>
			<trkpt lat="-28.534115" lon="153.193333">
				<ele>218.560</ele>
				<time>2015-07-04T02:54:47Z</time>
				<extensions>
				</extensions>
			</trkpt>
			<trkpt lat="-28.534221" lon="153.193133">
				<ele>218.047</ele>
				<time>2015-07-04T02:54:48Z</time>
				<extensions>
				</extensions>
			</trkpt>
			<trkpt lat="-28.534328" lon="153.192948">
				<ele>216.603</ele>
				<time>2015-07-04T02:54:49Z</time>
				<extensions>
				</extensions>
			</trkpt>
			<trkpt lat="-28.534438" lon="153.192758">
				<ele>215.691</ele>
				<time>2015-07-04T02:54:50Z</time>
				<extensions>
				</extensions>
			</trkpt>
			<trkpt lat="-28.534550" lon="153.192584">
				<ele>214.957</ele>
				<time>2015-07-04T02:54:51Z</time>
				<extensions>
				</extensions>
			</trkpt>
			<trkpt lat="-28.534672" lon="153.192409">
				<ele>215.403</ele>
				<time>2015-07-04T02:54:52Z</time>
				<extensions>
				</extensions>
			</trkpt>
			<trkpt lat="-28.534817" lon="153.192249">
				<ele>216.626</ele>
				<time>2015-07-04T02:54:53Z</time>
				<extensions>
				</extensions>
			</trkpt>
			<trkpt lat="-28.534972" lon="153.192082">
				<ele>217.095</ele>
				<time>2015-07-04T02:54:54Z</time>
				<extensions>
				</extensions>
			</trkpt>
			<trkpt lat="-28.535123" lon="153.191903">
				<ele>218.329</ele>
				<time>2015-07-04T02:54:55Z</time>
				<extensions>
				</extensions>
			</trkpt>
			<trkpt lat="-28.535269" lon="153.191735">
				<ele>218.018</ele>
				<time>2015-07-04T02:54:56Z</time>
				<extensions>
				</extensions>
			</trkpt>
			<trkpt lat="-28.535417" lon="153.191577">
				<ele>217.639</ele>
				<time>2015-07-04T02:54:57Z</time>
				<extensions>
				</extensions>
			</trkpt>
			<trkpt lat="-28.535570" lon="153.191416">
				<ele>217.324</ele>
				<time>2015-07-04T02:54:58Z</time>
				<extensions>
				</extensions>
			</trkpt>
			<trkpt lat="-28.535731" lon="153.191261">
				<ele>217.541</ele>
				<time>2015-07-04T02:54:59Z</time>
				<extensions>
				</extensions>
			</trkpt>
			<trkpt lat="-28.535891" lon="153.191116">
				<ele>215.918</ele>
				<time>2015-07-04T02:55:00Z</time>
				<extensions>
				</extensions>
			</trkpt>
			<trkpt lat="-28.536050" lon="153.190974">
				<ele>215.445</ele>
				<time>2015-07-04T02:55:01Z</time>
				<extensions>
				</extensions>
			</trkpt>
			<trkpt lat="-28.536213" lon="153.190833">
				<ele>214.797</ele>
				<time>2015-07-04T02:55:02Z</time>
				<extensions>
				</extensions>
			</trkpt>
			<trkpt lat="-28.536378" lon="153.190701">
				<ele>215.277</ele>
				<time>2015-07-04T02:55:03Z</time>
				<extensions>
				</extensions>
			</trkpt>
			<trkpt lat="-28.536552" lon="153.190566">
				<ele>215.158</ele>
				<time>2015-07-04T02:55:04Z</time>
				<extensions>
				</extensions>
			</trkpt>
			<trkpt lat="-28.536729" lon="153.190444">
				<ele>215.817</ele>
				<time>2015-07-04T02:55:05Z</time>
				<extensions>
				</extensions>
			</trkpt>
			<trkpt lat="-28.536903" lon="153.190321">
				<ele>216.062</ele>
				<time>2015-07-04T02:55:06Z</time>
				<extensions>
				</extensions>
			</trkpt>
			<trkpt lat="-28.537086" lon="153.190203">
				<ele>216.398</ele>
				<time>2015-07-04T02:55:07Z</time>
				<extensions>
				</extensions>
			</trkpt>
			<trkpt lat="-28.537276" lon="153.190090">
				<ele>216.547</ele>
				<time>2015-07-04T02:55:08Z</time>
				<extensions>
				</extensions>
			</trkpt>
			<trkpt lat="-28.537465" lon="153.189994">
				<ele>218.131</ele>
				<time>2015-07-04T02:55:09Z</time>
				<extensions>
				</extensions>
			</trkpt>
			<trkpt lat="-28.537669" lon="153.189898">
				<ele>220.099</ele>
				<time>2015-07-04T02:55:10Z</time>
				<extensions>
				</extensions>
			</trkpt>
			<trkpt lat="-28.537881" lon="153.189807">
				<ele>220.138</ele>
				<time>2015-07-04T02:55:11Z</time>
				<extensions>
				</extensions>
			</trkpt>
			<trkpt lat="-28.538098" lon="153.189723">
				<ele>220.063</ele>
				<time>2015-07-04T02:55:12Z</time>
				<extensions>
				</extensions>
			</trkpt>
			<trkpt lat="-28.538306" lon="153.189638">
				<ele>219.241</ele>
				<time>2015-07-04T02:55:13Z</time>
				<extensions>
				</extensions>
			</trkpt>
			<trkpt lat="-28.538513" lon="153.189547">
				<ele>218.681</ele>
				<time>2015-07-04T02:55:14Z</time>
				<extensions>
				</extensions>
			</trkpt>
			<trkpt lat="-28.538716" lon="153.189462">
				<ele>217.090</ele>
				<time>2015-07-04T02:55:15Z</time>
				<extensions>
				</extensions>
			</trkpt>
			<trkpt lat="-28.538914" lon="153.189388">
				<ele>215.771</ele>
				<time>2015-07-04T02:55:16Z</time>
				<extensions>
				</extensions>
			</trkpt>
			<trkpt lat="-28.539110" lon="153.189311">
				<ele>215.537</ele>
				<time>2015-07-04T02:55:17Z</time>
				<extensions>
				</extensions>
			</trkpt>
			<trkpt lat="-28.539318" lon="153.189233">
				<ele>215.651</ele>
				<time>2015-07-04T02:55:18Z</time>
				<extensions>
				</extensions>
			</trkpt>
			<trkpt lat="-28.539507" lon="153.189149">
				<ele>215.656</ele>
				<time>2015-07-04T02:55:19Z</time>
				<extensions>
				</extensions>
			</trkpt>
			<trkpt lat="-28.539704" lon="153.189058">
				<ele>215.331</ele>
				<time>2015-07-04T02:55:20Z</time>
				<extensions>
				</extensions>
			</trkpt>
			<trkpt lat="-28.539920" lon="153.188969">
				<ele>214.243</ele>
				<time>2015-07-04T02:55:21Z</time>
				<extensions>
				</extensions>
			</trkpt>
			<trkpt lat="-28.540128" lon="153.188883">
				<ele>213.161</ele>
				<time>2015-07-04T02:55:22Z</time>
				<extensions>
				</extensions>
			</trkpt>
			<trkpt lat="-28.540328" lon="153.188802">
				<ele>211.367</ele>
				<time>2015-07-04T02:55:23Z</time>
				<extensions>
				</extensions>
			</trkpt>
			<trkpt lat="-28.540529" lon="153.188717">
				<ele>210.379</ele>
				<time>2015-07-04T02:55:24Z</time>
				<extensions>
				</extensions>
			</trkpt>
			<trkpt lat="-28.540738" lon="153.188637">
				<ele>210.406</ele>
				<time>2015-07-04T02:55:25Z</time>
				<extensions>
				</extensions>
			</trkpt>
			<trkpt lat="-28.540944" lon="153.188557">
				<ele>211.460</ele>
				<time>2015-07-04T02:55:26Z</time>
				<extensions>
				</extensions>
			</trkpt>
			<trkpt lat="-28.541154" lon="153.188468">
				<ele>212.964</ele>
				<time>2015-07-04T02:55:27Z</time>
				<extensions>
				</extensions>
			</trkpt>
			<trkpt lat="-28.541366" lon="153.188384">
				<ele>214.188</ele>
				<time>2015-07-04T02:55:28Z</time>
				<extensions>
				</extensions>
			</trkpt>
			<trkpt lat="-28.541575" lon="153.188302">
				<ele>213.532</ele>
				<time>2015-07-04T02:55:29Z</time>
				<extensions>
				</extensions>
			</trkpt>
			<trkpt lat="-28.541783" lon="153.188218">
				<ele>212.418</ele>
				<time>2015-07-04T02:55:30Z</time>
				<extensions>
				</extensions>
			</trkpt>
			<trkpt lat="-28.541991" lon="153.188135">
				<ele>212.183</ele>
				<time>2015-07-04T02:55:31Z</time>
				<extensions>
				</extensions>
			</trkpt>
			<trkpt lat="-28.542191" lon="153.188054">
				<ele>211.148</ele>
				<time>2015-07-04T02:55:32Z</time>
				<extensions>
				</extensions>
			</trkpt>
			<trkpt lat="-28.542382" lon="153.187972">
				<ele>210.024</ele>
				<time>2015-07-04T02:55:33Z</time>
				<extensions>
				</extensions>
			</trkpt>
			<trkpt lat="-28.542577" lon="153.187890">
				<ele>209.700</ele>
				<time>2015-07-04T02:55:34Z</time>
				<extensions>
				</extensions>
			</trkpt>
			<trkpt lat="-28.542763" lon="153.187819">
				<ele>209.290</ele>
				<time>2015-07-04T02:55:35Z</time>
				<extensions>
				</extensions>
			</trkpt>
			<trkpt lat="-28.542944" lon="153.187750">
				<ele>208.253</ele>
				<time>2015-07-04T02:55:36Z</time>
				<extensions>
				</extensions>
			</trkpt>
			<trkpt lat="-28.543118" lon="153.187690">
				<ele>206.866</ele>
				<time>2015-07-04T02:55:37Z</time>
				<extensions>
				</extensions>
			</trkpt>
			<trkpt lat="-28.543452" lon="153.187578">
				<ele>204.113</ele>
				<time>2015-07-04T02:55:39Z</time>
				<extensions>
				</extensions>
			</trkpt>
			<trkpt lat="-28.543779" lon="153.187502">
				<ele>202.390</ele>
				<time>2015-07-04T02:55:41Z</time>
				<extensions>
				</extensions>
			</trkpt>
			<trkpt lat="-28.544067" lon="153.187461">
				<ele>198.678</ele>
				<time>2015-07-04T02:55:43Z</time>
				<extensions>
				</extensions>
			</trkpt>
			<trkpt lat="-28.544315" lon="153.187434">
				<ele>196.147</ele>
				<time>2015-07-04T02:55:45Z</time>
				<extensions>
				</extensions>
			</trkpt>
			<trkpt lat="-28.544518" lon="153.187414">
				<ele>194.234</ele>
				<time>2015-07-04T02:55:47Z</time>
				<extensions>
				</extensions>
			</trkpt>
			<trkpt lat="-28.544700" lon="153.187400">
				<ele>192.945</ele>
				<time>2015-07-04T02:55:49Z</time>
				<extensions>
				</extensions>
			</trkpt>
			<trkpt lat="-28.544906" lon="153.187409">
				<ele>191.094</ele>
				<time>2015-07-04T02:55:52Z</time>
				<extensions>
				</extensions>
			</trkpt>
			<trkpt lat="-28.545034" lon="153.187208">
				<ele>196.007</ele>
				<time>2015-07-04T02:57:00Z</time>
				<extensions>
				</extensions>
			</trkpt>
			<trkpt lat="-28.545063" lon="153.186993">
				<ele>198.613</ele>
				<time>2015-07-04T02:57:06Z</time>
				<extensions>
				</extensions>
			</trkpt>
			<trkpt lat="-28.544955" lon="153.186823">
				<ele>200.470</ele>
				<time>2015-07-04T03:04:29Z</time>
				<extensions>
				</extensions>
			</trkpt>
			<trkpt lat="-28.544804" lon="153.186950">
				<ele>199.946</ele>
				<time>2015-07-04T03:04:50Z</time>
				<extensions>
				</extensions>
			</trkpt>
			<trkpt lat="-28.544941" lon="153.186812">
				<ele>205.657</ele>
				<time>2015-07-04T04:12:07Z</time>
				<extensions>
				</extensions>
			</trkpt>
			<trkpt lat="-28.544760" lon="153.186810">
				<ele>206.283</ele>
				<time>2015-07-04T04:22:22Z</time>
				<extensions>
				</extensions>
			</trkpt>
			<trkpt lat="-28.544938" lon="153.186869">
				<ele>207.021</ele>
				<time>2015-07-04T04:27:24Z</time>
				<extensions>
				</extensions>
			</trkpt>
			<trkpt lat="-28.545028" lon="153.187088">
				<ele>196.960</ele>
				<time>2015-07-04T04:35:59Z</time>
				<extensions>
				</extensions>
			</trkpt>
			<trkpt lat="-28.544909" lon="153.187246">
				<ele>194.855</ele>
				<time>2015-07-04T04:36:09Z</time>
				<extensions>
				</extensions>
			</trkpt>
			<trkpt lat="-28.544724" lon="153.187227">
				<ele>195.375</ele>
				<time>2015-07-04T04:37:19Z</time>
				<extensions>
				</extensions>
			</trkpt>
			<trkpt lat="-28.544658" lon="153.187426">
				<ele>191.935</ele>
				<time>2015-07-04T04:38:55Z</time>
				<extensions>
				</extensions>
			</trkpt>
			<trkpt lat="-28.544419" lon="153.187442">
				<ele>194.980</ele>
				<time>2015-07-04T04:38:59Z</time>
				<extensions>
				</extensions>
			</trkpt>
			<trkpt lat="-28.544175" lon="153.187459">
				<ele>196.346</ele>
				<time>2015-07-04T04:39:01Z</time>
				<extensions>
				</extensions>
			</trkpt>
			<trkpt lat="-28.543917" lon="153.187480">
				<ele>198.157</ele>
				<time>2015-07-04T04:39:03Z</time>
				<extensions>
				</extensions>
			</trkpt>
			<trkpt lat="-28.543667" lon="153.187480">
				<ele>197.418</ele>
				<time>2015-07-04T04:39:05Z</time>
				<extensions>
				</extensions>
			</trkpt>
			<trkpt lat="-28.543424" lon="153.187570">
				<ele>199.071</ele>
				<time>2015-07-04T04:39:07Z</time>
				<extensions>
				</extensions>
			</trkpt>
			<trkpt lat="-28.543245" lon="153.187751">
				<ele>200.540</ele>
				<time>2015-07-04T04:39:09Z</time>
				<extensions>
				</extensions>
			</trkpt>
			<trkpt lat="-28.542994" lon="153.187878">
				<ele>200.796</ele>
				<time>2015-07-04T04:39:11Z</time>
				<extensions>
				</extensions>
			</trkpt>
			<trkpt lat="-28.542698" lon="153.187853">
				<ele>199.863</ele>
				<time>2015-07-04T04:39:13Z</time>
				<extensions>
				</extensions>
			</trkpt>
			<trkpt lat="-28.542465" lon="153.187957">
				<ele>200.144</ele>
				<time>2015-07-04T04:39:15Z</time>
				<extensions>
				</extensions>
			</trkpt>
			<trkpt lat="-28.542219" lon="153.188049">
				<ele>199.786</ele>
				<time>2015-07-04T04:39:17Z</time>
				<extensions>
				</extensions>
			</trkpt>
			<trkpt lat="-28.541990" lon="153.188152">
				<ele>200.311</ele>
				<time>2015-07-04T04:39:19Z</time>
				<extensions>
				</extensions>
			</trkpt>
			<trkpt lat="-28.541731" lon="153.188259">
				<ele>201.117</ele>
				<time>2015-07-04T04:39:21Z</time>
				<extensions>
				</extensions>
			</trkpt>
			<trkpt lat="-28.541439" lon="153.188379">
				<ele>201.745</ele>
				<time>2015-07-04T04:39:23Z</time>
				<extensions>
				</extensions>
			</trkpt>
			<trkpt lat="-28.541125" lon="153.188497">
				<ele>201.652</ele>
				<time>2015-07-04T04:39:25Z</time>
				<extensions>
				</extensions>
			</trkpt>
			<trkpt lat="-28.540818" lon="153.188606">
				<ele>202.508</ele>
				<time>2015-07-04T04:39:27Z</time>
				<extensions>
				</extensions>
			</trkpt>
			<trkpt lat="-28.540504" lon="153.188738">
				<ele>203.911</ele>
				<time>2015-07-04T04:39:29Z</time>
				<extensions>
				</extensions>
			</trkpt>
			<trkpt lat="-28.540191" lon="153.188869">
				<ele>203.739</ele>
				<time>2015-07-04T04:39:31Z</time>
				<extensions>
				</extensions>
			</trkpt>
			<trkpt lat="-28.539868" lon="153.188994">
				<ele>204.339</ele>
				<time>2015-07-04T04:39:33Z</time>
				<extensions>
				</extensions>
			</trkpt>
			<trkpt lat="-28.539556" lon="153.189094">
				<ele>205.198</ele>
				<time>2015-07-04T04:39:35Z</time>
				<extensions>
				</extensions>
			</trkpt>
			<trkpt lat="-28.539222" lon="153.189220">
				<ele>206.573</ele>
				<time>2015-07-04T04:39:37Z</time>
				<extensions>
				</extensions>
			</trkpt>
			<trkpt lat="-28.538881" lon="153.189350">
				<ele>208.136</ele>
				<time>2015-07-04T04:39:39Z</time>
				<extensions>
				</extensions>
			</trkpt>
			<trkpt lat="-28.538704" lon="153.189430">
				<ele>208.105</ele>
				<time>2015-07-04T04:39:40Z</time>
				<extensions>
				</extensions>
			</trkpt>
			<trkpt lat="-28.538375" lon="153.189578">
				<ele>209.767</ele>
				<time>2015-07-04T04:39:42Z</time>
				<extensions>
				</extensions>
			</trkpt>
			<trkpt lat="-28.538206" lon="153.189678">
				<ele>209.971</ele>
				<time>2015-07-04T04:39:43Z</time>
				<extensions>
				</extensions>
			</trkpt>
			<trkpt lat="-28.538027" lon="153.189762">
				<ele>209.657</ele>
				<time>2015-07-04T04:39:44Z</time>
				<extensions>
				</extensions>
			</trkpt>
			<trkpt lat="-28.537847" lon="153.189827">
				<ele>209.612</ele>
				<time>2015-07-04T04:39:45Z</time>
				<extensions>
				</extensions>
			</trkpt>
			<trkpt lat="-28.537678" lon="153.189904">
				<ele>210.670</ele>
				<time>2015-07-04T04:39:46Z</time>
				<extensions>
				</extensions>
			</trkpt>
			<trkpt lat="-28.537355" lon="153.190064">
				<ele>210.820</ele>
				<time>2015-07-04T04:39:48Z</time>
				<extensions>
				</extensions>
			</trkpt>
			<trkpt lat="-28.537031" lon="153.190261">
				<ele>211.899</ele>
				<time>2015-07-04T04:39:50Z</time>
				<extensions>
				</extensions>
			</trkpt>
			<trkpt lat="-28.536863" lon="153.190366">
				<ele>212.047</ele>
				<time>2015-07-04T04:39:51Z</time>
				<extensions>
				</extensions>
			</trkpt>
			<trkpt lat="-28.536702" lon="153.190474">
				<ele>211.865</ele>
				<time>2015-07-04T04:39:52Z</time>
				<extensions>
				</extensions>
			</trkpt>
			<trkpt lat="-28.536536" lon="153.190578">
				<ele>210.531</ele>
				<time>2015-07-04T04:39:53Z</time>
				<extensions>
				</extensions>
			</trkpt>
			<trkpt lat="-28.536375" lon="153.190692">
				<ele>211.033</ele>
				<time>2015-07-04T04:39:54Z</time>
				<extensions>
				</extensions>
			</trkpt>
			<trkpt lat="-28.536210" lon="153.190835">
				<ele>211.036</ele>
				<time>2015-07-04T04:39:55Z</time>
				<extensions>
				</extensions>
			</trkpt>
			<trkpt lat="-28.536048" lon="153.190958">
				<ele>210.841</ele>
				<time>2015-07-04T04:39:56Z</time>
				<extensions>
				</extensions>
			</trkpt>
			<trkpt lat="-28.535783" lon="153.191217">
				<ele>211.949</ele>
				<time>2015-07-04T04:39:58Z</time>
				<extensions>
				</extensions>
			</trkpt>
			<trkpt lat="-28.535628" lon="153.191364">
				<ele>211.457</ele>
				<time>2015-07-04T04:39:59Z</time>
				<extensions>
				</extensions>
			</trkpt>
			<trkpt lat="-28.535486" lon="153.191499">
				<ele>210.980</ele>
				<time>2015-07-04T04:40:00Z</time>
				<extensions>
				</extensions>
			</trkpt>
			<trkpt lat="-28.535353" lon="153.191653">
				<ele>210.985</ele>
				<time>2015-07-04T04:40:01Z</time>
				<extensions>
				</extensions>
			</trkpt>
			<trkpt lat="-28.535108" lon="153.191929">
				<ele>210.783</ele>
				<time>2015-07-04T04:40:03Z</time>
				<extensions>
				</extensions>
			</trkpt>
			<trkpt lat="-28.534979" lon="153.192075">
				<ele>211.147</ele>
				<time>2015-07-04T04:40:04Z</time>
				<extensions>
				</extensions>
			</trkpt>
			<trkpt lat="-28.534845" lon="153.192228">
				<ele>211.154</ele>
				<time>2015-07-04T04:40:05Z</time>
				<extensions>
				</extensions>
			</trkpt>
			<trkpt lat="-28.534602" lon="153.192519">
				<ele>211.828</ele>
				<time>2015-07-04T04:40:07Z</time>
				<extensions>
				</extensions>
			</trkpt>
			<trkpt lat="-28.534486" lon="153.192693">
				<ele>211.506</ele>
				<time>2015-07-04T04:40:08Z</time>
				<extensions>
				</extensions>
			</trkpt>
			<trkpt lat="-28.534386" lon="153.192865">
				<ele>212.770</ele>
				<time>2015-07-04T04:40:09Z</time>
				<extensions>
				</extensions>
			</trkpt>
			<trkpt lat="-28.534280" lon="153.193061">
				<ele>213.473</ele>
				<time>2015-07-04T04:40:10Z</time>
				<extensions>
				</extensions>
			</trkpt>
			<trkpt lat="-28.534178" lon="153.193249">
				<ele>213.324</ele>
				<time>2015-07-04T04:40:11Z</time>
				<extensions>
				</extensions>
			</trkpt>
			<trkpt lat="-28.534076" lon="153.193438">
				<ele>212.970</ele>
				<time>2015-07-04T04:40:12Z</time>
				<extensions>
				</extensions>
			</trkpt>
			<trkpt lat="-28.533983" lon="153.193614">
				<ele>213.224</ele>
				<time>2015-07-04T04:40:13Z</time>
				<extensions>
				</extensions>
			</trkpt>
			<trkpt lat="-28.533804" lon="153.193968">
				<ele>213.304</ele>
				<time>2015-07-04T04:40:15Z</time>
				<extensions>
				</extensions>
			</trkpt>
			<trkpt lat="-28.533627" lon="153.194305">
				<ele>212.981</ele>
				<time>2015-07-04T04:40:17Z</time>
				<extensions>
				</extensions>
			</trkpt>
			<trkpt lat="-28.533432" lon="153.194620">
				<ele>215.241</ele>
				<time>2015-07-04T04:40:19Z</time>
				<extensions>
				</extensions>
			</trkpt>
			<trkpt lat="-28.533317" lon="153.194780">
				<ele>216.664</ele>
				<time>2015-07-04T04:40:20Z</time>
				<extensions>
				</extensions>
			</trkpt>
			<trkpt lat="-28.533186" lon="153.194944">
				<ele>217.877</ele>
				<time>2015-07-04T04:40:21Z</time>
				<extensions>
				</extensions>
			</trkpt>
			<trkpt lat="-28.533033" lon="153.195111">
				<ele>220.480</ele>
				<time>2015-07-04T04:40:22Z</time>
				<extensions>
				</extensions>
			</trkpt>
			<trkpt lat="-28.532884" lon="153.195250">
				<ele>221.906</ele>
				<time>2015-07-04T04:40:23Z</time>
				<extensions>
				</extensions>
			</trkpt>
			<trkpt lat="-28.532733" lon="153.195382">
				<ele>224.091</ele>
				<time>2015-07-04T04:40:24Z</time>
				<extensions>
				</extensions>
			</trkpt>
			<trkpt lat="-28.532571" lon="153.195505">
				<ele>226.561</ele>
				<time>2015-07-04T04:40:25Z</time>
				<extensions>
				</extensions>
			</trkpt>
			<trkpt lat="-28.532394" lon="153.195628">
				<ele>228.933</ele>
				<time>2015-07-04T04:40:26Z</time>
				<extensions>
				</extensions>
			</trkpt>
			<trkpt lat="-28.532214" lon="153.195731">
				<ele>230.582</ele>
				<time>2015-07-04T04:40:27Z</time>
				<extensions>
				</extensions>
			</trkpt>
			<trkpt lat="-28.532039" lon="153.195815">
				<ele>232.148</ele>
				<time>2015-07-04T04:40:28Z</time>
				<extensions>
				</extensions>
			</trkpt>
			<trkpt lat="-28.531853" lon="153.195891">
				<ele>234.231</ele>
				<time>2015-07-04T04:40:29Z</time>
				<extensions>
				</extensions>
			</trkpt>
			<trkpt lat="-28.531479" lon="153.196005">
				<ele>235.497</ele>
				<time>2015-07-04T04:40:31Z</time>
				<extensions>
				</extensions>
			</trkpt>
			<trkpt lat="-28.531289" lon="153.196041">
				<ele>236.916</ele>
				<time>2015-07-04T04:40:32Z</time>
				<extensions>
				</extensions>
			</trkpt>
			<trkpt lat="-28.531109" lon="153.196066">
				<ele>238.769</ele>
				<time>2015-07-04T04:40:33Z</time>
				<extensions>
				</extensions>
			</trkpt>
			<trkpt lat="-28.530920" lon="153.196083">
				<ele>239.262</ele>
				<time>2015-07-04T04:40:34Z</time>
				<extensions>
				</extensions>
			</trkpt>
			<trkpt lat="-28.530721" lon="153.196075">
				<ele>241.166</ele>
				<time>2015-07-04T04:40:35Z</time>
				<extensions>
				</extensions>
			</trkpt>
			<trkpt lat="-28.530521" lon="153.196064">
				<ele>243.024</ele>
				<time>2015-07-04T04:40:36Z</time>
				<extensions>
				</extensions>
			</trkpt>
			<trkpt lat="-28.530334" lon="153.196047">
				<ele>245.545</ele>
				<time>2015-07-04T04:40:37Z</time>
				<extensions>
				</extensions>
			</trkpt>
			<trkpt lat="-28.530142" lon="153.196028">
				<ele>246.703</ele>
				<time>2015-07-04T04:40:38Z</time>
				<extensions>
				</extensions>
			</trkpt>
			<trkpt lat="-28.529954" lon="153.196009">
				<ele>247.775</ele>
				<time>2015-07-04T04:40:39Z</time>
				<extensions>
				</extensions>
			</trkpt>
			<trkpt lat="-28.529634" lon="153.195978">
				<ele>249.355</ele>
				<time>2015-07-04T04:40:41Z</time>
				<extensions>
				</extensions>
			</trkpt>
			<trkpt lat="-28.529304" lon="153.195943">
				<ele>251.797</ele>
				<time>2015-07-04T04:40:43Z</time>
				<extensions>
				</extensions>
			</trkpt>
			<trkpt lat="-28.528975" lon="153.195907">
				<ele>252.964</ele>
				<time>2015-07-04T04:40:45Z</time>
				<extensions>
				</extensions>
			</trkpt>
			<trkpt lat="-28.528639" lon="153.195871">
				<ele>254.083</ele>
				<time>2015-07-04T04:40:47Z</time>
				<extensions>
				</extensions>
			</trkpt>
			<trkpt lat="-28.528278" lon="153.195832">
				<ele>254.957</ele>
				<time>2015-07-04T04:40:49Z</time>
				<extensions>
				</extensions>
			</trkpt>
			<trkpt lat="-28.527929" lon="153.195794">
				<ele>254.568</ele>
				<time>2015-07-04T04:40:51Z</time>
				<extensions>
				</extensions>
			</trkpt>
			<trkpt lat="-28.527578" lon="153.195752">
				<ele>253.634</ele>
				<time>2015-07-04T04:40:53Z</time>
				<extensions>
				</extensions>
			</trkpt>
			<trkpt lat="-28.527225" lon="153.195686">
				<ele>251.105</ele>
				<time>2015-07-04T04:40:55Z</time>
				<extensions>
				</extensions>
			</trkpt>
			<trkpt lat="-28.527040" lon="153.195686">
				<ele>250.253</ele>
				<time>2015-07-04T04:40:56Z</time>
				<extensions>
				</extensions>
			</trkpt>
			<trkpt lat="-28.526862" lon="153.195639">
				<ele>249.175</ele>
				<time>2015-07-04T04:40:57Z</time>
				<extensions>
				</extensions>
			</trkpt>
			<trkpt lat="-28.526687" lon="153.195575">
				<ele>247.754</ele>
				<time>2015-07-04T04:40:58Z</time>
				<extensions>
				</extensions>
			</trkpt>
			<trkpt lat="-28.526499" lon="153.195521">
				<ele>246.283</ele>
				<time>2015-07-04T04:40:59Z</time>
				<extensions>
				</extensions>
			</trkpt>
			<trkpt lat="-28.526315" lon="153.195466">
				<ele>244.747</ele>
				<time>2015-07-04T04:41:00Z</time>
				<extensions>
				</extensions>
			</trkpt>
			<trkpt lat="-28.526138" lon="153.195399">
				<ele>243.494</ele>
				<time>2015-07-04T04:41:01Z</time>
				<extensions>
				</extensions>
			</trkpt>
			<trkpt lat="-28.525951" lon="153.195302">
				<ele>242.155</ele>
				<time>2015-07-04T04:41:02Z</time>
				<extensions>
				</extensions>
			</trkpt>
			<trkpt lat="-28.525781" lon="153.195212">
				<ele>240.405</ele>
				<time>2015-07-04T04:41:03Z</time>
				<extensions>
				</extensions>
			</trkpt>
			<trkpt lat="-28.525607" lon="153.195097">
				<ele>239.369</ele>
				<time>2015-07-04T04:41:04Z</time>
				<extensions>
				</extensions>
			</trkpt>
			<trkpt lat="-28.525436" lon="153.194976">
				<ele>237.619</ele>
				<time>2015-07-04T04:41:05Z</time>
				<extensions>
				</extensions>
			</trkpt>
			<trkpt lat="-28.525265" lon="153.194858">
				<ele>235.390</ele>
				<time>2015-07-04T04:41:06Z</time>
				<extensions>
				</extensions>
			</trkpt>
			<trkpt lat="-28.525099" lon="153.194747">
				<ele>234.188</ele>
				<time>2015-07-04T04:41:07Z</time>
				<extensions>
				</extensions>
			</trkpt>
			<trkpt lat="-28.524940" lon="153.194625">
				<ele>233.129</ele>
				<time>2015-07-04T04:41:08Z</time>
				<extensions>
				</extensions>
			</trkpt>
			<trkpt lat="-28.524792" lon="153.194489">
				<ele>231.248</ele>
				<time>2015-07-04T04:41:09Z</time>
				<extensions>
				</extensions>
			</trkpt>
			<trkpt lat="-28.524643" lon="153.194363">
				<ele>230.901</ele>
				<time>2015-07-04T04:41:10Z</time>
				<extensions>
				</extensions>
			</trkpt>
			<trkpt lat="-28.524358" lon="153.194114">
				<ele>231.705</ele>
				<time>2015-07-04T04:41:12Z</time>
				<extensions>
				</extensions>
			</trkpt>
			<trkpt lat="-28.524206" lon="153.193986">
				<ele>232.507</ele>
				<time>2015-07-04T04:41:13Z</time>
				<extensions>
				</extensions>
			</trkpt>
			<trkpt lat="-28.523899" lon="153.193782">
				<ele>235.125</ele>
				<time>2015-07-04T04:41:15Z</time>
				<extensions>
				</extensions>
			</trkpt>
			<trkpt lat="-28.523635" lon="153.193547">
				<ele>237.955</ele>
				<time>2015-07-04T04:41:17Z</time>
				<extensions>
				</extensions>
			</trkpt>
			<trkpt lat="-28.523392" lon="153.193306">
				<ele>238.999</ele>
				<time>2015-07-04T04:41:19Z</time>
				<extensions>
				</extensions>
			</trkpt>
			<trkpt lat="-28.523197" lon="153.193037">
				<ele>240.632</ele>
				<time>2015-07-04T04:41:21Z</time>
				<extensions>
				</extensions>
			</trkpt>
			<trkpt lat="-28.523027" lon="153.192743">
				<ele>239.952</ele>
				<time>2015-07-04T04:41:23Z</time>
				<extensions>
				</extensions>
			</trkpt>
			<trkpt lat="-28.522886" lon="153.192384">
				<ele>237.372</ele>
				<time>2015-07-04T04:41:25Z</time>
				<extensions>
				</extensions>
			</trkpt>
			<trkpt lat="-28.522812" lon="153.192192">
				<ele>236.602</ele>
				<time>2015-07-04T04:41:26Z</time>
				<extensions>
				</extensions>
			</trkpt>
			<trkpt lat="-28.522687" lon="153.191857">
				<ele>235.463</ele>
				<time>2015-07-04T04:41:28Z</time>
				<extensions>
				</extensions>
			</trkpt>
			<trkpt lat="-28.522577" lon="153.191536">
				<ele>234.815</ele>
				<time>2015-07-04T04:41:30Z</time>
				<extensions>
				</extensions>
			</trkpt>
			<trkpt lat="-28.522470" lon="153.191232">
				<ele>233.324</ele>
				<time>2015-07-04T04:41:32Z</time>
				<extensions>
				</extensions>
			</trkpt>
			<trkpt lat="-28.522367" lon="153.190933">
				<ele>231.984</ele>
				<time>2015-07-04T04:41:34Z</time>
				<extensions>
				</extensions>
			</trkpt>
			<trkpt lat="-28.522326" lon="153.190545">
				<ele>230.178</ele>
				<time>2015-07-04T04:41:36Z</time>
				<extensions>
				</extensions>
			</trkpt>
			<trkpt lat="-28.522339" lon="153.190100">
				<ele>225.848</ele>
				<time>2015-07-04T04:41:38Z</time>
				<extensions>
				</extensions>
			</trkpt>
			<trkpt lat="-28.522344" lon="153.189853">
				<ele>223.719</ele>
				<time>2015-07-04T04:41:39Z</time>
				<extensions>
				</extensions>
			</trkpt>
			<trkpt lat="-28.522360" lon="153.189613">
				<ele>221.507</ele>
				<time>2015-07-04T04:41:40Z</time>
				<extensions>
				</extensions>
			</trkpt>
			<trkpt lat="-28.522354" lon="153.189175">
				<ele>218.215</ele>
				<time>2015-07-04T04:41:42Z</time>
				<extensions>
				</extensions>
			</trkpt>
			<trkpt lat="-28.522344" lon="153.188964">
				<ele>216.559</ele>
				<time>2015-07-04T04:41:43Z</time>
				<extensions>
				</extensions>
			</trkpt>
			<trkpt lat="-28.522328" lon="153.188735">
				<ele>215.417</ele>
				<time>2015-07-04T04:41:44Z</time>
				<extensions>
				</extensions>
			</trkpt>
			<trkpt lat="-28.522293" lon="153.188511">
				<ele>214.991</ele>
				<time>2015-07-04T04:41:45Z</time>
				<extensions>
				</extensions>
			</trkpt>
			<trkpt lat="-28.522249" lon="153.188294">
				<ele>215.828</ele>
				<time>2015-07-04T04:41:46Z</time>
				<extensions>
				</extensions>
			</trkpt>
			<trkpt lat="-28.522204" lon="153.188072">
				<ele>216.672</ele>
				<time>2015-07-04T04:41:47Z</time>
				<extensions>
				</extensions>
			</trkpt>
			<trkpt lat="-28.522142" lon="153.187855">
				<ele>217.481</ele>
				<time>2015-07-04T04:41:48Z</time>
				<extensions>
				</extensions>
			</trkpt>
			<trkpt lat="-28.522092" lon="153.187639">
				<ele>217.377</ele>
				<time>2015-07-04T04:41:49Z</time>
				<extensions>
				</extensions>
			</trkpt>
			<trkpt lat="-28.522026" lon="153.187435">
				<ele>217.609</ele>
				<time>2015-07-04T04:41:50Z</time>
				<extensions>
				</extensions>
			</trkpt>
			<trkpt lat="-28.521925" lon="153.187056">
				<ele>217.471</ele>
				<time>2015-07-04T04:41:52Z</time>
				<extensions>
				</extensions>
			</trkpt>
			<trkpt lat="-28.521821" lon="153.186694">
				<ele>217.598</ele>
				<time>2015-07-04T04:41:54Z</time>
				<extensions>
				</extensions>
			</trkpt>
			<trkpt lat="-28.521691" lon="153.186380">
				<ele>218.736</ele>
				<time>2015-07-04T04:41:56Z</time>
				<extensions>
				</extensions>
			</trkpt>
			<trkpt lat="-28.521507" lon="153.186113">
				<ele>218.384</ele>
				<time>2015-07-04T04:41:58Z</time>
				<extensions>
				</extensions>
			</trkpt>
			<trkpt lat="-28.521237" lon="153.185947">
				<ele>218.577</ele>
				<time>2015-07-04T04:42:00Z</time>
				<extensions>
				</extensions>
			</trkpt>
			<trkpt lat="-28.520952" lon="153.185887">
				<ele>218.550</ele>
				<time>2015-07-04T04:42:02Z</time>
				<extensions>
				</extensions>
			</trkpt>
			<trkpt lat="-28.520615" lon="153.185918">
				<ele>217.659</ele>
				<time>2015-07-04T04:42:04Z</time>
				<extensions>
				</extensions>
			</trkpt>
			<trkpt lat="-28.520427" lon="153.185945">
				<ele>217.666</ele>
				<time>2015-07-04T04:42:05Z</time>
				<extensions>
				</extensions>
			</trkpt>
			<trkpt lat="-28.520235" lon="153.186010">
				<ele>217.329</ele>
				<time>2015-07-04T04:42:06Z</time>
				<extensions>
				</extensions>
			</trkpt>
			<trkpt lat="-28.519905" lon="153.186134">
				<ele>215.338</ele>
				<time>2015-07-04T04:42:08Z</time>
				<extensions>
				</extensions>
			</trkpt>
			<trkpt lat="-28.519568" lon="153.186190">
				<ele>214.962</ele>
				<time>2015-07-04T04:42:10Z</time>
				<extensions>
				</extensions>
			</trkpt>
			<trkpt lat="-28.519260" lon="153.186139">
				<ele>214.563</ele>
				<time>2015-07-04T04:42:12Z</time>
				<extensions>
				</extensions>
			</trkpt>
			<trkpt lat="-28.518952" lon="153.185975">
				<ele>215.106</ele>
				<time>2015-07-04T04:42:14Z</time>
				<extensions>
				</extensions>
			</trkpt>
			<trkpt lat="-28.518710" lon="153.185755">
				<ele>216.161</ele>
				<time>2015-07-04T04:42:16Z</time>
				<extensions>
				</extensions>
			</trkpt>
			<trkpt lat="-28.518586" lon="153.185604">
				<ele>216.120</ele>
				<time>2015-07-04T04:42:17Z</time>
				<extensions>
				</extensions>
			</trkpt>
			<trkpt lat="-28.518367" lon="153.185315">
				<ele>216.761</ele>
				<time>2015-07-04T04:42:19Z</time>
				<extensions>
				</extensions>
			</trkpt>
			<trkpt lat="-28.518152" lon="153.185022">
				<ele>218.237</ele>
				<time>2015-07-04T04:42:21Z</time>
				<extensions>
				</extensions>
			</trkpt>
			<trkpt lat="-28.517927" lon="153.184701">
				<ele>216.374</ele>
				<time>2015-07-04T04:42:23Z</time>
				<extensions>
				</extensions>
			</trkpt>
			<trkpt lat="-28.517810" lon="153.184540">
				<ele>214.839</ele>
				<time>2015-07-04T04:42:24Z</time>
				<extensions>
				</extensions>
			</trkpt>
			<trkpt lat="-28.517585" lon="153.184241">
				<ele>212.789</ele>
				<time>2015-07-04T04:42:26Z</time>
				<extensions>
				</extensions>
			</trkpt>
			<trkpt lat="-28.517350" lon="153.183986">
				<ele>212.072</ele>
				<time>2015-07-04T04:42:28Z</time>
				<extensions>
				</extensions>
			</trkpt>
			<trkpt lat="-28.517088" lon="153.183807">
				<ele>211.273</ele>
				<time>2015-07-04T04:42:30Z</time>
				<extensions>
				</extensions>
			</trkpt>
			<trkpt lat="-28.516800" lon="153.183713">
				<ele>209.763</ele>
				<time>2015-07-04T04:42:32Z</time>
				<extensions>
				</extensions>
			</trkpt>
			<trkpt lat="-28.516495" lon="153.183667">
				<ele>208.825</ele>
				<time>2015-07-04T04:42:34Z</time>
				<extensions>
				</extensions>
			</trkpt>
			<trkpt lat="-28.516182" lon="153.183702">
				<ele>207.643</ele>
				<time>2015-07-04T04:42:36Z</time>
				<extensions>
				</extensions>
			</trkpt>
			<trkpt lat="-28.515847" lon="153.183788">
				<ele>205.853</ele>
				<time>2015-07-04T04:42:38Z</time>
				<extensions>
				</extensions>
			</trkpt>
			<trkpt lat="-28.515519" lon="153.183921">
				<ele>202.998</ele>
				<time>2015-07-04T04:42:40Z</time>
				<extensions>
				</extensions>
			</trkpt>
			<trkpt lat="-28.515197" lon="153.184067">
				<ele>201.004</ele>
				<time>2015-07-04T04:42:42Z</time>
				<extensions>
				</extensions>
			</trkpt>
			<trkpt lat="-28.514854" lon="153.184143">
				<ele>197.292</ele>
				<time>2015-07-04T04:42:44Z</time>
				<extensions>
				</extensions>
			</trkpt>
			<trkpt lat="-28.514505" lon="153.184169">
				<ele>193.913</ele>
				<time>2015-07-04T04:42:46Z</time>
				<extensions>
				</extensions>
			</trkpt>
			<trkpt lat="-28.514172" lon="153.184089">
				<ele>192.177</ele>
				<time>2015-07-04T04:42:48Z</time>
				<extensions>
				</extensions>
			</trkpt>
			<trkpt lat="-28.513859" lon="153.183919">
				<ele>188.269</ele>
				<time>2015-07-04T04:42:50Z</time>
				<extensions>
				</extensions>
			</trkpt>
			<trkpt lat="-28.513586" lon="153.183676">
				<ele>186.060</ele>
				<time>2015-07-04T04:42:52Z</time>
				<extensions>
				</extensions>
			</trkpt>
			<trkpt lat="-28.513456" lon="153.183525">
				<ele>183.996</ele>
				<time>2015-07-04T04:42:53Z</time>
				<extensions>
				</extensions>
			</trkpt>
			<trkpt lat="-28.513321" lon="153.183376">
				<ele>182.292</ele>
				<time>2015-07-04T04:42:54Z</time>
				<extensions>
				</extensions>
			</trkpt>
			<trkpt lat="-28.513192" lon="153.183226">
				<ele>180.576</ele>
				<time>2015-07-04T04:42:55Z</time>
				<extensions>
				</extensions>
			</trkpt>
			<trkpt lat="-28.512971" lon="153.182914">
				<ele>178.291</ele>
				<time>2015-07-04T04:42:57Z</time>
				<extensions>
				</extensions>
			</trkpt>
			<trkpt lat="-28.512730" lon="153.182618">
				<ele>174.596</ele>
				<time>2015-07-04T04:42:59Z</time>
				<extensions>
				</extensions>
			</trkpt>
			<trkpt lat="-28.512519" lon="153.182355">
				<ele>170.250</ele>
				<time>2015-07-04T04:43:01Z</time>
				<extensions>
				</extensions>
			</trkpt>
			<trkpt lat="-28.512321" lon="153.182113">
				<ele>167.995</ele>
				<time>2015-07-04T04:43:03Z</time>
				<extensions>
				</extensions>
			</trkpt>
			<trkpt lat="-28.512100" lon="153.181891">
				<ele>164.984</ele>
				<time>2015-07-04T04:43:05Z</time>
				<extensions>
				</extensions>
			</trkpt>
			<trkpt lat="-28.511853" lon="153.181731">
				<ele>163.058</ele>
				<time>2015-07-04T04:43:07Z</time>
				<extensions>
				</extensions>
			</trkpt>
			<trkpt lat="-28.511568" lon="153.181659">
				<ele>161.051</ele>
				<time>2015-07-04T04:43:09Z</time>
				<extensions>
				</extensions>
			</trkpt>
			<trkpt lat="-28.511285" lon="153.181608">
				<ele>157.509</ele>
				<time>2015-07-04T04:43:11Z</time>
				<extensions>
				</extensions>
			</trkpt>
			<trkpt lat="-28.511007" lon="153.181632">
				<ele>155.785</ele>
				<time>2015-07-04T04:43:13Z</time>
				<extensions>
				</extensions>
			</trkpt>
			<trkpt lat="-28.510728" lon="153.181667">
				<ele>154.384</ele>
				<time>2015-07-04T04:43:15Z</time>
				<extensions>
				</extensions>
			</trkpt>
			<trkpt lat="-28.510452" lon="153.181732">
				<ele>152.437</ele>
				<time>2015-07-04T04:43:17Z</time>
				<extensions>
				</extensions>
			</trkpt>
			<trkpt lat="-28.510171" lon="153.181831">
				<ele>149.682</ele>
				<time>2015-07-04T04:43:19Z</time>
				<extensions>
				</extensions>
			</trkpt>
			<trkpt lat="-28.509916" lon="153.181871">
				<ele>146.472</ele>
				<time>2015-07-04T04:43:21Z</time>
				<extensions>
				</extensions>
			</trkpt>
			<trkpt lat="-28.509685" lon="153.181836">
				<ele>143.206</ele>
				<time>2015-07-04T04:43:23Z</time>
				<extensions>
				</extensions>
			</trkpt>
			<trkpt lat="-28.509502" lon="153.181782">
				<ele>141.586</ele>
				<time>2015-07-04T04:43:25Z</time>
				<extensions>
				</extensions>
			</trkpt>
			<trkpt lat="-28.509313" lon="153.181650">
				<ele>139.137</ele>
				<time>2015-07-04T04:43:28Z</time>
				<extensions>
				</extensions>
			</trkpt>
			<trkpt lat="-28.509187" lon="153.181498">
				<ele>137.708</ele>
				<time>2015-07-04T04:43:35Z</time>
				<extensions>
				</extensions>
			</trkpt>
			<trkpt lat="-28.508987" lon="153.181441">
				<ele>137.925</ele>
				<time>2015-07-04T04:43:42Z</time>
				<extensions>
				</extensions>
			</trkpt>
			<trkpt lat="-28.508776" lon="153.181588">
				<ele>137.357</ele>
				<time>2015-07-04T04:43:45Z</time>
				<extensions>
				</extensions>
			</trkpt>
			<trkpt lat="-28.508630" lon="153.181728">
				<ele>136.562</ele>
				<time>2015-07-04T04:43:47Z</time>
				<extensions>
				</extensions>
			</trkpt>
			<trkpt lat="-28.508478" lon="153.181902">
				<ele>136.006</ele>
				<time>2015-07-04T04:43:49Z</time>
				<extensions>
				</extensions>
			</trkpt>
			<trkpt lat="-28.508310" lon="153.182139">
				<ele>136.426</ele>
				<time>2015-07-04T04:43:51Z</time>
				<extensions>
				</extensions>
			</trkpt>
			<trkpt lat="-28.508166" lon="153.182433">
				<ele>135.698</ele>
				<time>2015-07-04T04:43:53Z</time>
				<extensions>
				</extensions>
			</trkpt>
			<trkpt lat="-28.507978" lon="153.182725">
				<ele>135.761</ele>
				<time>2015-07-04T04:43:55Z</time>
				<extensions>
				</extensions>
			</trkpt>
			<trkpt lat="-28.507785" lon="153.183060">
				<ele>137.748</ele>
				<time>2015-07-04T04:43:57Z</time>
				<extensions>
				</extensions>
			</trkpt>
			<trkpt lat="-28.507678" lon="153.183235">
				<ele>138.063</ele>
				<time>2015-07-04T04:43:58Z</time>
				<extensions>
				</extensions>
			</trkpt>
			<trkpt lat="-28.507573" lon="153.183415">
				<ele>137.538</ele>
				<time>2015-07-04T04:43:59Z</time>
				<extensions>
				</extensions>
			</trkpt>
			<trkpt lat="-28.507467" lon="153.183592">
				<ele>137.116</ele>
				<time>2015-07-04T04:44:00Z</time>
				<extensions>
				</extensions>
			</trkpt>
			<trkpt lat="-28.507354" lon="153.183776">
				<ele>136.162</ele>
				<time>2015-07-04T04:44:01Z</time>
				<extensions>
				</extensions>
			</trkpt>
			<trkpt lat="-28.507249" lon="153.183970">
				<ele>135.462</ele>
				<time>2015-07-04T04:44:02Z</time>
				<extensions>
				</extensions>
			</trkpt>
			<trkpt lat="-28.507143" lon="153.184159">
				<ele>134.407</ele>
				<time>2015-07-04T04:44:03Z</time>
				<extensions>
				</extensions>
			</trkpt>
			<trkpt lat="-28.507028" lon="153.184349">
				<ele>134.672</ele>
				<time>2015-07-04T04:44:04Z</time>
				<extensions>
				</extensions>
			</trkpt>
			<trkpt lat="-28.506911" lon="153.184540">
				<ele>134.529</ele>
				<time>2015-07-04T04:44:05Z</time>
				<extensions>
				</extensions>
			</trkpt>
			<trkpt lat="-28.506798" lon="153.184738">
				<ele>133.724</ele>
				<time>2015-07-04T04:44:06Z</time>
				<extensions>
				</extensions>
			</trkpt>
			<trkpt lat="-28.506690" lon="153.184923">
				<ele>133.328</ele>
				<time>2015-07-04T04:44:07Z</time>
				<extensions>
				</extensions>
			</trkpt>
			<trkpt lat="-28.506573" lon="153.185120">
				<ele>131.685</ele>
				<time>2015-07-04T04:44:08Z</time>
				<extensions>
				</extensions>
			</trkpt>
			<trkpt lat="-28.506463" lon="153.185316">
				<ele>132.185</ele>
				<time>2015-07-04T04:44:09Z</time>
				<extensions>
				</extensions>
			</trkpt>
			<trkpt lat="-28.506355" lon="153.185505">
				<ele>132.230</ele>
				<time>2015-07-04T04:44:10Z</time>
				<extensions>
				</extensions>
			</trkpt>
			<trkpt lat="-28.506164" lon="153.185852">
				<ele>131.351</ele>
				<time>2015-07-04T04:44:12Z</time>
				<extensions>
				</extensions>
			</trkpt>
			<trkpt lat="-28.505956" lon="153.186147">
				<ele>129.801</ele>
				<time>2015-07-04T04:44:14Z</time>
				<extensions>
				</extensions>
			</trkpt>
			<trkpt lat="-28.505722" lon="153.186381">
				<ele>128.521</ele>
				<time>2015-07-04T04:44:16Z</time>
				<extensions>
				</extensions>
			</trkpt>
			<trkpt lat="-28.505469" lon="153.186557">
				<ele>128.422</ele>
				<time>2015-07-04T04:44:18Z</time>
				<extensions>
				</extensions>
			</trkpt>
			<trkpt lat="-28.505176" lon="153.186698">
				<ele>130.416</ele>
				<time>2015-07-04T04:44:20Z</time>
				<extensions>
				</extensions>
			</trkpt>
			<trkpt lat="-28.504844" lon="153.186839">
				<ele>132.571</ele>
				<time>2015-07-04T04:44:22Z</time>
				<extensions>
				</extensions>
			</trkpt>
			<trkpt lat="-28.504670" lon="153.186920">
				<ele>132.295</ele>
				<time>2015-07-04T04:44:23Z</time>
				<extensions>
				</extensions>
			</trkpt>
			<trkpt lat="-28.504493" lon="153.186995">
				<ele>131.648</ele>
				<time>2015-07-04T04:44:24Z</time>
				<extensions>
				</extensions>
			</trkpt>
			<trkpt lat="-28.504315" lon="153.187073">
				<ele>131.222</ele>
				<time>2015-07-04T04:44:25Z</time>
				<extensions>
				</extensions>
			</trkpt>
			<trkpt lat="-28.504138" lon="153.187158">
				<ele>130.228</ele>
				<time>2015-07-04T04:44:26Z</time>
				<extensions>
				</extensions>
			</trkpt>
			<trkpt lat="-28.503958" lon="153.187242">
				<ele>130.007</ele>
				<time>2015-07-04T04:44:27Z</time>
				<extensions>
				</extensions>
			</trkpt>
			<trkpt lat="-28.503631" lon="153.187379">
				<ele>128.074</ele>
				<time>2015-07-04T04:44:29Z</time>
				<extensions>
				</extensions>
			</trkpt>
			<trkpt lat="-28.503309" lon="153.187526">
				<ele>126.837</ele>
				<time>2015-07-04T04:44:31Z</time>
				<extensions>
				</extensions>
			</trkpt>
			<trkpt lat="-28.503017" lon="153.187726">
				<ele>126.671</ele>
				<time>2015-07-04T04:44:33Z</time>
				<extensions>
				</extensions>
			</trkpt>
			<trkpt lat="-28.502780" lon="153.188018">
				<ele>125.230</ele>
				<time>2015-07-04T04:44:35Z</time>
				<extensions>
				</extensions>
			</trkpt>
			<trkpt lat="-28.502625" lon="153.188361">
				<ele>123.281</ele>
				<time>2015-07-04T04:44:37Z</time>
				<extensions>
				</extensions>
			</trkpt>
			<trkpt lat="-28.502536" lon="153.188582">
				<ele>122.394</ele>
				<time>2015-07-04T04:44:38Z</time>
				<extensions>
				</extensions>
			</trkpt>
			<trkpt lat="-28.502498" lon="153.188807">
				<ele>121.892</ele>
				<time>2015-07-04T04:44:39Z</time>
				<extensions>
				</extensions>
			</trkpt>
			<trkpt lat="-28.502460" lon="153.189050">
				<ele>122.139</ele>
				<time>2015-07-04T04:44:40Z</time>
				<extensions>
				</extensions>
			</trkpt>
			<trkpt lat="-28.502444" lon="153.189315">
				<ele>121.902</ele>
				<time>2015-07-04T04:44:41Z</time>
				<extensions>
				</extensions>
			</trkpt>
			<trkpt lat="-28.502423" lon="153.189565">
				<ele>121.755</ele>
				<time>2015-07-04T04:44:42Z</time>
				<extensions>
				</extensions>
			</trkpt>
			<trkpt lat="-28.502401" lon="153.189816">
				<ele>120.522</ele>
				<time>2015-07-04T04:44:43Z</time>
				<extensions>
				</extensions>
			</trkpt>
			<trkpt lat="-28.502388" lon="153.190057">
				<ele>119.701</ele>
				<time>2015-07-04T04:44:44Z</time>
				<extensions>
				</extensions>
			</trkpt>
			<trkpt lat="-28.502368" lon="153.190289">
				<ele>120.095</ele>
				<time>2015-07-04T04:44:45Z</time>
				<extensions>
				</extensions>
			</trkpt>
			<trkpt lat="-28.502341" lon="153.190504">
				<ele>119.583</ele>
				<time>2015-07-04T04:44:46Z</time>
				<extensions>
				</extensions>
			</trkpt>
			<trkpt lat="-28.502169" lon="153.190858">
				<ele>119.074</ele>
				<time>2015-07-04T04:44:48Z</time>
				<extensions>
				</extensions>
			</trkpt>
			<trkpt lat="-28.501905" lon="153.191122">
				<ele>116.707</ele>
				<time>2015-07-04T04:44:50Z</time>
				<extensions>
				</extensions>
			</trkpt>
			<trkpt lat="-28.501681" lon="153.191380">
				<ele>114.601</ele>
				<time>2015-07-04T04:44:52Z</time>
				<extensions>
				</extensions>
			</trkpt>
			<trkpt lat="-28.501562" lon="153.191661">
				<ele>113.194</ele>
				<time>2015-07-04T04:44:54Z</time>
				<extensions>
				</extensions>
			</trkpt>
			<trkpt lat="-28.501512" lon="153.191940">
				<ele>111.847</ele>
				<time>2015-07-04T04:44:56Z</time>
				<extensions>
				</extensions>
			</trkpt>
			<trkpt lat="-28.501579" lon="153.192227">
				<ele>111.024</ele>
				<time>2015-07-04T04:44:58Z</time>
				<extensions>
				</extensions>
			</trkpt>
			<trkpt lat="-28.501657" lon="153.192504">
				<ele>110.084</ele>
				<time>2015-07-04T04:45:00Z</time>
				<extensions>
				</extensions>
			</trkpt>
			<trkpt lat="-28.501673" lon="153.192751">
				<ele>109.707</ele>
				<time>2015-07-04T04:45:02Z</time>
				<extensions>
				</extensions>
			</trkpt>
			<trkpt lat="-28.501729" lon="153.193024">
				<ele>109.790</ele>
				<time>2015-07-04T04:45:04Z</time>
				<extensions>
				</extensions>
			</trkpt>
			<trkpt lat="-28.501718" lon="153.193313">
				<ele>110.531</ele>
				<time>2015-07-04T04:45:06Z</time>
				<extensions>
				</extensions>
			</trkpt>
			<trkpt lat="-28.501632" lon="153.193613">
				<ele>111.564</ele>
				<time>2015-07-04T04:45:08Z</time>
				<extensions>
				</extensions>
			</trkpt>
			<trkpt lat="-28.501490" lon="153.193926">
				<ele>110.818</ele>
				<time>2015-07-04T04:45:10Z</time>
				<extensions>
				</extensions>
			</trkpt>
			<trkpt lat="-28.501303" lon="153.194220">
				<ele>111.707</ele>
				<time>2015-07-04T04:45:12Z</time>
				<extensions>
				</extensions>
			</trkpt>
			<trkpt lat="-28.501080" lon="153.194528">
				<ele>112.469</ele>
				<time>2015-07-04T04:45:14Z</time>
				<extensions>
				</extensions>
			</trkpt>
			<trkpt lat="-28.500831" lon="153.194797">
				<ele>113.470</ele>
				<time>2015-07-04T04:45:16Z</time>
				<extensions>
				</extensions>
			</trkpt>
			<trkpt lat="-28.500543" lon="153.195003">
				<ele>115.532</ele>
				<time>2015-07-04T04:45:18Z</time>
				<extensions>
				</extensions>
			</trkpt>
			<trkpt lat="-28.500199" lon="153.195196">
				<ele>118.002</ele>
				<time>2015-07-04T04:45:20Z</time>
				<extensions>
				</extensions>
			</trkpt>
			<trkpt lat="-28.500033" lon="153.195299">
				<ele>117.792</ele>
				<time>2015-07-04T04:45:21Z</time>
				<extensions>
				</extensions>
			</trkpt>
			<trkpt lat="-28.499844" lon="153.195393">
				<ele>118.135</ele>
				<time>2015-07-04T04:45:22Z</time>
				<extensions>
				</extensions>
			</trkpt>
			<trkpt lat="-28.499673" lon="153.195493">
				<ele>116.085</ele>
				<time>2015-07-04T04:45:23Z</time>
				<extensions>
				</extensions>
			</trkpt>
			<trkpt lat="-28.499493" lon="153.195579">
				<ele>115.951</ele>
				<time>2015-07-04T04:45:24Z</time>
				<extensions>
				</extensions>
			</trkpt>
			<trkpt lat="-28.499331" lon="153.195669">
				<ele>116.538</ele>
				<time>2015-07-04T04:45:25Z</time>
				<extensions>
				</extensions>
			</trkpt>
			<trkpt lat="-28.499159" lon="153.195765">
				<ele>117.834</ele>
				<time>2015-07-04T04:45:26Z</time>
				<extensions>
				</extensions>
			</trkpt>
			<trkpt lat="-28.498980" lon="153.195873">
				<ele>117.363</ele>
				<time>2015-07-04T04:45:27Z</time>
				<extensions>
				</extensions>
			</trkpt>
			<trkpt lat="-28.498801" lon="153.195969">
				<ele>118.095</ele>
				<time>2015-07-04T04:45:28Z</time>
				<extensions>
				</extensions>
			</trkpt>
			<trkpt lat="-28.498633" lon="153.196064">
				<ele>117.200</ele>
				<time>2015-07-04T04:45:29Z</time>
				<extensions>
				</extensions>
			</trkpt>
			<trkpt lat="-28.498470" lon="153.196160">
				<ele>117.656</ele>
				<time>2015-07-04T04:45:30Z</time>
				<extensions>
				</extensions>
			</trkpt>
			<trkpt lat="-28.498311" lon="153.196266">
				<ele>117.029</ele>
				<time>2015-07-04T04:45:31Z</time>
				<extensions>
				</extensions>
			</trkpt>
			<trkpt lat="-28.498164" lon="153.196386">
				<ele>117.656</ele>
				<time>2015-07-04T04:45:32Z</time>
				<extensions>
				</extensions>
			</trkpt>
			<trkpt lat="-28.498023" lon="153.196519">
				<ele>117.958</ele>
				<time>2015-07-04T04:45:33Z</time>
				<extensions>
				</extensions>
			</trkpt>
			<trkpt lat="-28.497890" lon="153.196677">
				<ele>118.633</ele>
				<time>2015-07-04T04:45:34Z</time>
				<extensions>
				</extensions>
			</trkpt>
			<trkpt lat="-28.497755" lon="153.196846">
				<ele>120.807</ele>
				<time>2015-07-04T04:45:35Z</time>
				<extensions>
				</extensions>
			</trkpt>
			<trkpt lat="-28.497602" lon="153.197023">
				<ele>120.636</ele>
				<time>2015-07-04T04:45:36Z</time>
				<extensions>
				</extensions>
			</trkpt>
			<trkpt lat="-28.497463" lon="153.197211">
				<ele>121.289</ele>
				<time>2015-07-04T04:45:37Z</time>
				<extensions>
				</extensions>
			</trkpt>
			<trkpt lat="-28.497324" lon="153.197393">
				<ele>119.791</ele>
				<time>2015-07-04T04:45:38Z</time>
				<extensions>
				</extensions>
			</trkpt>
			<trkpt lat="-28.497180" lon="153.197580">
				<ele>119.992</ele>
				<time>2015-07-04T04:45:39Z</time>
				<extensions>
				</extensions>
			</trkpt>
			<trkpt lat="-28.497040" lon="153.197771">
				<ele>120.419</ele>
				<time>2015-07-04T04:45:40Z</time>
				<extensions>
				</extensions>
			</trkpt>
			<trkpt lat="-28.496901" lon="153.197956">
				<ele>118.938</ele>
				<time>2015-07-04T04:45:41Z</time>
				<extensions>
				</extensions>
			</trkpt>
			<trkpt lat="-28.496764" lon="153.198148">
				<ele>118.055</ele>
				<time>2015-07-04T04:45:42Z</time>
				<extensions>
				</extensions>
			</trkpt>
			<trkpt lat="-28.496632" lon="153.198343">
				<ele>115.806</ele>
				<time>2015-07-04T04:45:43Z</time>
				<extensions>
				</extensions>
			</trkpt>
			<trkpt lat="-28.496491" lon="153.198521">
				<ele>115.247</ele>
				<time>2015-07-04T04:45:44Z</time>
				<extensions>
				</extensions>
			</trkpt>
			<trkpt lat="-28.496354" lon="153.198696">
				<ele>115.678</ele>
				<time>2015-07-04T04:45:45Z</time>
				<extensions>
				</extensions>
			</trkpt>
			<trkpt lat="-28.496237" lon="153.198888">
				<ele>114.841</ele>
				<time>2015-07-04T04:45:46Z</time>
				<extensions>
				</extensions>
			</trkpt>
			<trkpt lat="-28.496109" lon="153.199062">
				<ele>113.509</ele>
				<time>2015-07-04T04:45:47Z</time>
				<extensions>
				</extensions>
			</trkpt>
			<trkpt lat="-28.495982" lon="153.199243">
				<ele>113.411</ele>
				<time>2015-07-04T04:45:48Z</time>
				<extensions>
				</extensions>
			</trkpt>
			<trkpt lat="-28.495857" lon="153.199416">
				<ele>112.107</ele>
				<time>2015-07-04T04:45:49Z</time>
				<extensions>
				</extensions>
			</trkpt>
			<trkpt lat="-28.495738" lon="153.199581">
				<ele>110.736</ele>
				<time>2015-07-04T04:45:50Z</time>
				<extensions>
				</extensions>
			</trkpt>
			<trkpt lat="-28.495622" lon="153.199739">
				<ele>110.465</ele>
				<time>2015-07-04T04:45:51Z</time>
				<extensions>
				</extensions>
			</trkpt>
			<trkpt lat="-28.495429" lon="153.200072">
				<ele>109.258</ele>
				<time>2015-07-04T04:45:53Z</time>
				<extensions>
				</extensions>
			</trkpt>
			<trkpt lat="-28.495266" lon="153.200412">
				<ele>108.851</ele>
				<time>2015-07-04T04:45:55Z</time>
				<extensions>
				</extensions>
			</trkpt>
			<trkpt lat="-28.495152" lon="153.200793">
				<ele>108.331</ele>
				<time>2015-07-04T04:45:57Z</time>
				<extensions>
				</extensions>
			</trkpt>
			<trkpt lat="-28.495037" lon="153.201181">
				<ele>106.963</ele>
				<time>2015-07-04T04:45:59Z</time>
				<extensions>
				</extensions>
			</trkpt>
			<trkpt lat="-28.494959" lon="153.201388">
				<ele>106.279</ele>
				<time>2015-07-04T04:46:00Z</time>
				<extensions>
				</extensions>
			</trkpt>
			<trkpt lat="-28.494865" lon="153.201575">
				<ele>105.387</ele>
				<time>2015-07-04T04:46:01Z</time>
				<extensions>
				</extensions>
			</trkpt>
			<trkpt lat="-28.494764" lon="153.201761">
				<ele>105.132</ele>
				<time>2015-07-04T04:46:02Z</time>
				<extensions>
				</extensions>
			</trkpt>
			<trkpt lat="-28.494648" lon="153.201934">
				<ele>105.036</ele>
				<time>2015-07-04T04:46:03Z</time>
				<extensions>
				</extensions>
			</trkpt>
			<trkpt lat="-28.494541" lon="153.202118">
				<ele>104.823</ele>
				<time>2015-07-04T04:46:04Z</time>
				<extensions>
				</extensions>
			</trkpt>
			<trkpt lat="-28.494436" lon="153.202313">
				<ele>105.996</ele>
				<time>2015-07-04T04:46:05Z</time>
				<extensions>
				</extensions>
			</trkpt>
			<trkpt lat="-28.494308" lon="153.202499">
				<ele>108.678</ele>
				<time>2015-07-04T04:46:06Z</time>
				<extensions>
				</extensions>
			</trkpt>
			<trkpt lat="-28.494162" lon="153.202695">
				<ele>109.429</ele>
				<time>2015-07-04T04:46:07Z</time>
				<extensions>
				</extensions>
			</trkpt>
			<trkpt lat="-28.494025" lon="153.202892">
				<ele>112.383</ele>
				<time>2015-07-04T04:46:08Z</time>
				<extensions>
				</extensions>
			</trkpt>
			<trkpt lat="-28.493880" lon="153.203075">
				<ele>113.326</ele>
				<time>2015-07-04T04:46:09Z</time>
				<extensions>
				</extensions>
			</trkpt>
			<trkpt lat="-28.493763" lon="153.203258">
				<ele>114.233</ele>
				<time>2015-07-04T04:46:10Z</time>
				<extensions>
				</extensions>
			</trkpt>
			<trkpt lat="-28.493636" lon="153.203434">
				<ele>114.632</ele>
				<time>2015-07-04T04:46:11Z</time>
				<extensions>
				</extensions>
			</trkpt>
			<trkpt lat="-28.493523" lon="153.203616">
				<ele>116.169</ele>
				<time>2015-07-04T04:46:12Z</time>
				<extensions>
				</extensions>
			</trkpt>
			<trkpt lat="-28.493415" lon="153.203785">
				<ele>116.492</ele>
				<time>2015-07-04T04:46:13Z</time>
				<extensions>
				</extensions>
			</trkpt>
			<trkpt lat="-28.493302" lon="153.203952">
				<ele>115.896</ele>
				<time>2015-07-04T04:46:14Z</time>
				<extensions>
				</extensions>
			</trkpt>
			<trkpt lat="-28.493098" lon="153.204198">
				<ele>115.774</ele>
				<time>2015-07-04T04:46:16Z</time>
				<extensions>
				</extensions>
			</trkpt>
			<trkpt lat="-28.492832" lon="153.204428">
				<ele>116.317</ele>
				<time>2015-07-04T04:46:18Z</time>
				<extensions>
				</extensions>
			</trkpt>
			<trkpt lat="-28.492677" lon="153.204559">
				<ele>116.222</ele>
				<time>2015-07-04T04:46:19Z</time>
				<extensions>
				</extensions>
			</trkpt>
			<trkpt lat="-28.492511" lon="153.204687">
				<ele>115.007</ele>
				<time>2015-07-04T04:46:20Z</time>
				<extensions>
				</extensions>
			</trkpt>
			<trkpt lat="-28.492353" lon="153.204812">
				<ele>113.495</ele>
				<time>2015-07-04T04:46:21Z</time>
				<extensions>
				</extensions>
			</trkpt>
			<trkpt lat="-28.492194" lon="153.204939">
				<ele>112.178</ele>
				<time>2015-07-04T04:46:22Z</time>
				<extensions>
				</extensions>
			</trkpt>
			<trkpt lat="-28.492027" lon="153.205073">
				<ele>111.275</ele>
				<time>2015-07-04T04:46:23Z</time>
				<extensions>
				</extensions>
			</trkpt>
			<trkpt lat="-28.491864" lon="153.205207">
				<ele>111.029</ele>
				<time>2015-07-04T04:46:24Z</time>
				<extensions>
				</extensions>
			</trkpt>
			<trkpt lat="-28.491692" lon="153.205342">
				<ele>108.776</ele>
				<time>2015-07-04T04:46:25Z</time>
				<extensions>
				</extensions>
			</trkpt>
			<trkpt lat="-28.491525" lon="153.205483">
				<ele>109.149</ele>
				<time>2015-07-04T04:46:26Z</time>
				<extensions>
				</extensions>
			</trkpt>
			<trkpt lat="-28.491357" lon="153.205631">
				<ele>108.652</ele>
				<time>2015-07-04T04:46:27Z</time>
				<extensions>
				</extensions>
			</trkpt>
			<trkpt lat="-28.491201" lon="153.205784">
				<ele>109.188</ele>
				<time>2015-07-04T04:46:28Z</time>
				<extensions>
				</extensions>
			</trkpt>
			<trkpt lat="-28.491065" lon="153.205955">
				<ele>109.883</ele>
				<time>2015-07-04T04:46:29Z</time>
				<extensions>
				</extensions>
			</trkpt>
			<trkpt lat="-28.490942" lon="153.206126">
				<ele>109.492</ele>
				<time>2015-07-04T04:46:30Z</time>
				<extensions>
				</extensions>
			</trkpt>
			<trkpt lat="-28.490806" lon="153.206310">
				<ele>109.195</ele>
				<time>2015-07-04T04:46:31Z</time>
				<extensions>
				</extensions>
			</trkpt>
			<trkpt lat="-28.490687" lon="153.206499">
				<ele>110.305</ele>
				<time>2015-07-04T04:46:32Z</time>
				<extensions>
				</extensions>
			</trkpt>
			<trkpt lat="-28.490566" lon="153.206679">
				<ele>110.481</ele>
				<time>2015-07-04T04:46:33Z</time>
				<extensions>
				</extensions>
			</trkpt>
			<trkpt lat="-28.490445" lon="153.206854">
				<ele>110.787</ele>
				<time>2015-07-04T04:46:34Z</time>
				<extensions>
				</extensions>
			</trkpt>
			<trkpt lat="-28.490309" lon="153.207026">
				<ele>112.254</ele>
				<time>2015-07-04T04:46:35Z</time>
				<extensions>
				</extensions>
			</trkpt>
			<trkpt lat="-28.490178" lon="153.207188">
				<ele>112.214</ele>
				<time>2015-07-04T04:46:36Z</time>
				<extensions>
				</extensions>
			</trkpt>
			<trkpt lat="-28.490029" lon="153.207347">
				<ele>111.535</ele>
				<time>2015-07-04T04:46:37Z</time>
				<extensions>
				</extensions>
			</trkpt>
			<trkpt lat="-28.489870" lon="153.207493">
				<ele>113.334</ele>
				<time>2015-07-04T04:46:38Z</time>
				<extensions>
				</extensions>
			</trkpt>
			<trkpt lat="-28.489695" lon="153.207627">
				<ele>114.142</ele>
				<time>2015-07-04T04:46:39Z</time>
				<extensions>
				</extensions>
			</trkpt>
			<trkpt lat="-28.489501" lon="153.207751">
				<ele>114.560</ele>
				<time>2015-07-04T04:46:40Z</time>
				<extensions>
				</extensions>
			</trkpt>
			<trkpt lat="-28.489321" lon="153.207868">
				<ele>115.796</ele>
				<time>2015-07-04T04:46:41Z</time>
				<extensions>
				</extensions>
			</trkpt>
			<trkpt lat="-28.489133" lon="153.207977">
				<ele>116.187</ele>
				<time>2015-07-04T04:46:42Z</time>
				<extensions>
				</extensions>
			</trkpt>
			<trkpt lat="-28.488945" lon="153.208080">
				<ele>115.427</ele>
				<time>2015-07-04T04:46:43Z</time>
				<extensions>
				</extensions>
			</trkpt>
			<trkpt lat="-28.488769" lon="153.208173">
				<ele>116.210</ele>
				<time>2015-07-04T04:46:44Z</time>
				<extensions>
				</extensions>
			</trkpt>
			<trkpt lat="-28.488599" lon="153.208266">
				<ele>115.737</ele>
				<time>2015-07-04T04:46:45Z</time>
				<extensions>
				</extensions>
			</trkpt>
			<trkpt lat="-28.488438" lon="153.208374">
				<ele>116.144</ele>
				<time>2015-07-04T04:46:46Z</time>
				<extensions>
				</extensions>
			</trkpt>
			<trkpt lat="-28.488263" lon="153.208473">
				<ele>115.117</ele>
				<time>2015-07-04T04:46:47Z</time>
				<extensions>
				</extensions>
			</trkpt>
			<trkpt lat="-28.488089" lon="153.208567">
				<ele>114.946</ele>
				<time>2015-07-04T04:46:48Z</time>
				<extensions>
				</extensions>
			</trkpt>
			<trkpt lat="-28.487923" lon="153.208663">
				<ele>114.471</ele>
				<time>2015-07-04T04:46:49Z</time>
				<extensions>
				</extensions>
			</trkpt>
			<trkpt lat="-28.487597" lon="153.208846">
				<ele>112.454</ele>
				<time>2015-07-04T04:46:51Z</time>
				<extensions>
				</extensions>
			</trkpt>
			<trkpt lat="-28.487307" lon="153.209054">
				<ele>111.838</ele>
				<time>2015-07-04T04:46:53Z</time>
				<extensions>
				</extensions>
			</trkpt>
			<trkpt lat="-28.487176" lon="153.209196">
				<ele>112.364</ele>
				<time>2015-07-04T04:46:54Z</time>
				<extensions>
				</extensions>
			</trkpt>
			<trkpt lat="-28.487061" lon="153.209369">
				<ele>113.597</ele>
				<time>2015-07-04T04:46:55Z</time>
				<extensions>
				</extensions>
			</trkpt>
			<trkpt lat="-28.486946" lon="153.209544">
				<ele>113.713</ele>
				<time>2015-07-04T04:46:56Z</time>
				<extensions>
				</extensions>
			</trkpt>
			<trkpt lat="-28.486831" lon="153.209725">
				<ele>113.019</ele>
				<time>2015-07-04T04:46:57Z</time>
				<extensions>
				</extensions>
			</trkpt>
			<trkpt lat="-28.486714" lon="153.209920">
				<ele>111.588</ele>
				<time>2015-07-04T04:46:58Z</time>
				<extensions>
				</extensions>
			</trkpt>
			<trkpt lat="-28.486602" lon="153.210094">
				<ele>109.742</ele>
				<time>2015-07-04T04:46:59Z</time>
				<extensions>
				</extensions>
			</trkpt>
			<trkpt lat="-28.486494" lon="153.210269">
				<ele>108.597</ele>
				<time>2015-07-04T04:47:00Z</time>
				<extensions>
				</extensions>
			</trkpt>
			<trkpt lat="-28.486390" lon="153.210436">
				<ele>107.371</ele>
				<time>2015-07-04T04:47:01Z</time>
				<extensions>
				</extensions>
			</trkpt>
			<trkpt lat="-28.486226" lon="153.210794">
				<ele>106.281</ele>
				<time>2015-07-04T04:47:03Z</time>
				<extensions>
				</extensions>
			</trkpt>
			<trkpt lat="-28.486174" lon="153.210990">
				<ele>104.777</ele>
				<time>2015-07-04T04:47:04Z</time>
				<extensions>
				</extensions>
			</trkpt>
			<trkpt lat="-28.486135" lon="153.211190">
				<ele>105.872</ele>
				<time>2015-07-04T04:47:05Z</time>
				<extensions>
				</extensions>
			</trkpt>
			<trkpt lat="-28.486103" lon="153.211410">
				<ele>103.657</ele>
				<time>2015-07-04T04:47:06Z</time>
				<extensions>
				</extensions>
			</trkpt>
			<trkpt lat="-28.486074" lon="153.211624">
				<ele>102.144</ele>
				<time>2015-07-04T04:47:07Z</time>
				<extensions>
				</extensions>
			</trkpt>
			<trkpt lat="-28.486054" lon="153.211839">
				<ele>99.821</ele>
				<time>2015-07-04T04:47:08Z</time>
				<extensions>
				</extensions>
			</trkpt>
			<trkpt lat="-28.486049" lon="153.212059">
				<ele>98.359</ele>
				<time>2015-07-04T04:47:09Z</time>
				<extensions>
				</extensions>
			</trkpt>
			<trkpt lat="-28.486065" lon="153.212283">
				<ele>97.062</ele>
				<time>2015-07-04T04:47:10Z</time>
				<extensions>
				</extensions>
			</trkpt>
			<trkpt lat="-28.486105" lon="153.212509">
				<ele>96.595</ele>
				<time>2015-07-04T04:47:11Z</time>
				<extensions>
				</extensions>
			</trkpt>
			<trkpt lat="-28.486154" lon="153.212724">
				<ele>97.891</ele>
				<time>2015-07-04T04:47:12Z</time>
				<extensions>
				</extensions>
			</trkpt>
			<trkpt lat="-28.486210" lon="153.212956">
				<ele>97.891</ele>
				<time>2015-07-04T04:47:13Z</time>
				<extensions>
				</extensions>
			</trkpt>
			<trkpt lat="-28.486257" lon="153.213196">
				<ele>98.636</ele>
				<time>2015-07-04T04:47:14Z</time>
				<extensions>
				</extensions>
			</trkpt>
			<trkpt lat="-28.486283" lon="153.213438">
				<ele>97.916</ele>
				<time>2015-07-04T04:47:15Z</time>
				<extensions>
				</extensions>
			</trkpt>
			<trkpt lat="-28.486319" lon="153.213691">
				<ele>97.689</ele>
				<time>2015-07-04T04:47:16Z</time>
				<extensions>
				</extensions>
			</trkpt>
			<trkpt lat="-28.486347" lon="153.213924">
				<ele>98.000</ele>
				<time>2015-07-04T04:47:17Z</time>
				<extensions>
				</extensions>
			</trkpt>
			<trkpt lat="-28.486360" lon="153.214151">
				<ele>95.944</ele>
				<time>2015-07-04T04:47:18Z</time>
				<extensions>
				</extensions>
			</trkpt>
			<trkpt lat="-28.486366" lon="153.214372">
				<ele>95.062</ele>
				<time>2015-07-04T04:47:19Z</time>
				<extensions>
				</extensions>
			</trkpt>
			<trkpt lat="-28.486374" lon="153.214589">
				<ele>95.576</ele>
				<time>2015-07-04T04:47:20Z</time>
				<extensions>
				</extensions>
			</trkpt>
			<trkpt lat="-28.486396" lon="153.214820">
				<ele>95.295</ele>
				<time>2015-07-04T04:47:21Z</time>
				<extensions>
				</extensions>
			</trkpt>
			<trkpt lat="-28.486423" lon="153.215058">
				<ele>96.429</ele>
				<time>2015-07-04T04:47:22Z</time>
				<extensions>
				</extensions>
			</trkpt>
			<trkpt lat="-28.486437" lon="153.215286">
				<ele>97.473</ele>
				<time>2015-07-04T04:47:23Z</time>
				<extensions>
				</extensions>
			</trkpt>
			<trkpt lat="-28.486465" lon="153.215516">
				<ele>98.907</ele>
				<time>2015-07-04T04:47:24Z</time>
				<extensions>
				</extensions>
			</trkpt>
			<trkpt lat="-28.486501" lon="153.215740">
				<ele>99.932</ele>
				<time>2015-07-04T04:47:25Z</time>
				<extensions>
				</extensions>
			</trkpt>
			<trkpt lat="-28.486542" lon="153.215947">
				<ele>101.096</ele>
				<time>2015-07-04T04:47:26Z</time>
				<extensions>
				</extensions>
			</trkpt>
			<trkpt lat="-28.486567" lon="153.216152">
				<ele>101.516</ele>
				<time>2015-07-04T04:47:27Z</time>
				<extensions>
				</extensions>
			</trkpt>
			<trkpt lat="-28.486594" lon="153.216360">
				<ele>104.128</ele>
				<time>2015-07-04T04:47:28Z</time>
				<extensions>
				</extensions>
			</trkpt>
			<trkpt lat="-28.486621" lon="153.216570">
				<ele>104.868</ele>
				<time>2015-07-04T04:47:29Z</time>
				<extensions>
				</extensions>
			</trkpt>
			<trkpt lat="-28.486661" lon="153.216956">
				<ele>106.311</ele>
				<time>2015-07-04T04:47:31Z</time>
				<extensions>
				</extensions>
			</trkpt>
			<trkpt lat="-28.486726" lon="153.217287">
				<ele>105.697</ele>
				<time>2015-07-04T04:47:33Z</time>
				<extensions>
				</extensions>
			</trkpt>
			<trkpt lat="-28.486790" lon="153.217589">
				<ele>105.421</ele>
				<time>2015-07-04T04:47:35Z</time>
				<extensions>
				</extensions>
			</trkpt>
			<trkpt lat="-28.486894" lon="153.217880">
				<ele>104.035</ele>
				<time>2015-07-04T04:47:37Z</time>
				<extensions>
				</extensions>
			</trkpt>
			<trkpt lat="-28.487038" lon="153.218154">
				<ele>104.297</ele>
				<time>2015-07-04T04:47:39Z</time>
				<extensions>
				</extensions>
			</trkpt>
			<trkpt lat="-28.487154" lon="153.218438">
				<ele>101.841</ele>
				<time>2015-07-04T04:47:41Z</time>
				<extensions>
				</extensions>
			</trkpt>
			<trkpt lat="-28.487284" lon="153.218729">
				<ele>97.994</ele>
				<time>2015-07-04T04:47:43Z</time>
				<extensions>
				</extensions>
			</trkpt>
			<trkpt lat="-28.487369" lon="153.219077">
				<ele>93.792</ele>
				<time>2015-07-04T04:47:45Z</time>
				<extensions>
				</extensions>
			</trkpt>
			<trkpt lat="-28.487399" lon="153.219420">
				<ele>90.147</ele>
				<time>2015-07-04T04:47:47Z</time>
				<extensions>
				</extensions>
			</trkpt>
			<trkpt lat="-28.487366" lon="153.219759">
				<ele>88.651</ele>
				<time>2015-07-04T04:47:49Z</time>
				<extensions>
				</extensions>
			</trkpt>
			<trkpt lat="-28.487307" lon="153.220063">
				<ele>87.887</ele>
				<time>2015-07-04T04:47:51Z</time>
				<extensions>
				</extensions>
			</trkpt>
			<trkpt lat="-28.487211" lon="153.220323">
				<ele>87.037</ele>
				<time>2015-07-04T04:47:53Z</time>
				<extensions>
				</extensions>
			</trkpt>
			<trkpt lat="-28.487087" lon="153.220554">
				<ele>86.822</ele>
				<time>2015-07-04T04:47:55Z</time>
				<extensions>
				</extensions>
			</trkpt>
			<trkpt lat="-28.486932" lon="153.220764">
				<ele>87.884</ele>
				<time>2015-07-04T04:47:57Z</time>
				<extensions>
				</extensions>
			</trkpt>
			<trkpt lat="-28.486738" lon="153.221036">
				<ele>88.497</ele>
				<time>2015-07-04T04:47:59Z</time>
				<extensions>
				</extensions>
			</trkpt>
			<trkpt lat="-28.486581" lon="153.221321">
				<ele>88.397</ele>
				<time>2015-07-04T04:48:01Z</time>
				<extensions>
				</extensions>
			</trkpt>
			<trkpt lat="-28.486438" lon="153.221610">
				<ele>86.829</ele>
				<time>2015-07-04T04:48:03Z</time>
				<extensions>
				</extensions>
			</trkpt>
			<trkpt lat="-28.486265" lon="153.221938">
				<ele>87.905</ele>
				<time>2015-07-04T04:48:05Z</time>
				<extensions>
				</extensions>
			</trkpt>
			<trkpt lat="-28.486118" lon="153.222291">
				<ele>87.941</ele>
				<time>2015-07-04T04:48:07Z</time>
				<extensions>
				</extensions>
			</trkpt>
			<trkpt lat="-28.485970" lon="153.222624">
				<ele>87.347</ele>
				<time>2015-07-04T04:48:09Z</time>
				<extensions>
				</extensions>
			</trkpt>
			<trkpt lat="-28.485821" lon="153.222942">
				<ele>87.340</ele>
				<time>2015-07-04T04:48:11Z</time>
				<extensions>
				</extensions>
			</trkpt>
			<trkpt lat="-28.485674" lon="153.223274">
				<ele>87.555</ele>
				<time>2015-07-04T04:48:13Z</time>
				<extensions>
				</extensions>
			</trkpt>
			<trkpt lat="-28.485525" lon="153.223584">
				<ele>87.717</ele>
				<time>2015-07-04T04:48:15Z</time>
				<extensions>
				</extensions>
			</trkpt>
			<trkpt lat="-28.485331" lon="153.223841">
				<ele>86.769</ele>
				<time>2015-07-04T04:48:17Z</time>
				<extensions>
				</extensions>
			</trkpt>
			<trkpt lat="-28.485127" lon="153.224040">
				<ele>87.786</ele>
				<time>2015-07-04T04:48:19Z</time>
				<extensions>
				</extensions>
			</trkpt>
			<trkpt lat="-28.484855" lon="153.224158">
				<ele>88.621</ele>
				<time>2015-07-04T04:48:21Z</time>
				<extensions>
				</extensions>
			</trkpt>
			<trkpt lat="-28.484542" lon="153.224222">
				<ele>89.284</ele>
				<time>2015-07-04T04:48:23Z</time>
				<extensions>
				</extensions>
			</trkpt>
			<trkpt lat="-28.484226" lon="153.224284">
				<ele>88.272</ele>
				<time>2015-07-04T04:48:25Z</time>
				<extensions>
				</extensions>
			</trkpt>
			<trkpt lat="-28.483939" lon="153.224313">
				<ele>86.913</ele>
				<time>2015-07-04T04:48:27Z</time>
				<extensions>
				</extensions>
			</trkpt>
			<trkpt lat="-28.483656" lon="153.224342">
				<ele>86.190</ele>
				<time>2015-07-04T04:48:29Z</time>
				<extensions>
				</extensions>
			</trkpt>
			<trkpt lat="-28.483354" lon="153.224367">
				<ele>84.983</ele>
				<time>2015-07-04T04:48:31Z</time>
				<extensions>
				</extensions>
			</trkpt>
			<trkpt lat="-28.483066" lon="153.224381">
				<ele>84.267</ele>
				<time>2015-07-04T04:48:33Z</time>
				<extensions>
				</extensions>
			</trkpt>
			<trkpt lat="-28.482806" lon="153.224443">
				<ele>83.489</ele>
				<time>2015-07-04T04:48:35Z</time>
				<extensions>
				</extensions>
			</trkpt>
			<trkpt lat="-28.482542" lon="153.224567">
				<ele>84.353</ele>
				<time>2015-07-04T04:48:37Z</time>
				<extensions>
				</extensions>
			</trkpt>
			<trkpt lat="-28.482274" lon="153.224768">
				<ele>84.547</ele>
				<time>2015-07-04T04:48:39Z</time>
				<extensions>
				</extensions>
			</trkpt>
			<trkpt lat="-28.481995" lon="153.224979">
				<ele>85.524</ele>
				<time>2015-07-04T04:48:41Z</time>
				<extensions>
				</extensions>
			</trkpt>
			<trkpt lat="-28.481723" lon="153.225184">
				<ele>86.473</ele>
				<time>2015-07-04T04:48:43Z</time>
				<extensions>
				</extensions>
			</trkpt>
			<trkpt lat="-28.481434" lon="153.225352">
				<ele>85.771</ele>
				<time>2015-07-04T04:48:45Z</time>
				<extensions>
				</extensions>
			</trkpt>
			<trkpt lat="-28.481135" lon="153.225491">
				<ele>85.504</ele>
				<time>2015-07-04T04:48:47Z</time>
				<extensions>
				</extensions>
			</trkpt>
			<trkpt lat="-28.480817" lon="153.225634">
				<ele>85.858</ele>
				<time>2015-07-04T04:48:49Z</time>
				<extensions>
				</extensions>
			</trkpt>
			<trkpt lat="-28.480527" lon="153.225784">
				<ele>86.354</ele>
				<time>2015-07-04T04:48:51Z</time>
				<extensions>
				</extensions>
			</trkpt>
			<trkpt lat="-28.480231" lon="153.225951">
				<ele>87.195</ele>
				<time>2015-07-04T04:48:53Z</time>
				<extensions>
				</extensions>
			</trkpt>
			<trkpt lat="-28.479963" lon="153.226171">
				<ele>88.085</ele>
				<time>2015-07-04T04:48:55Z</time>
				<extensions>
				</extensions>
			</trkpt>
			<trkpt lat="-28.479707" lon="153.226430">
				<ele>89.834</ele>
				<time>2015-07-04T04:48:57Z</time>
				<extensions>
				</extensions>
			</trkpt>
			<trkpt lat="-28.479503" lon="153.226743">
				<ele>90.763</ele>
				<time>2015-07-04T04:48:59Z</time>
				<extensions>
				</extensions>
			</trkpt>
			<trkpt lat="-28.479375" lon="153.227094">
				<ele>90.815</ele>
				<time>2015-07-04T04:49:01Z</time>
				<extensions>
				</extensions>
			</trkpt>
			<trkpt lat="-28.479293" lon="153.227485">
				<ele>89.986</ele>
				<time>2015-07-04T04:49:03Z</time>
				<extensions>
				</extensions>
			</trkpt>
			<trkpt lat="-28.479278" lon="153.227690">
				<ele>88.570</ele>
				<time>2015-07-04T04:49:04Z</time>
				<extensions>
				</extensions>
			</trkpt>
			<trkpt lat="-28.479275" lon="153.227899">
				<ele>88.378</ele>
				<time>2015-07-04T04:49:05Z</time>
				<extensions>
				</extensions>
			</trkpt>
			<trkpt lat="-28.479290" lon="153.228109">
				<ele>86.996</ele>
				<time>2015-07-04T04:49:06Z</time>
				<extensions>
				</extensions>
			</trkpt>
			<trkpt lat="-28.479300" lon="153.228326">
				<ele>85.809</ele>
				<time>2015-07-04T04:49:07Z</time>
				<extensions>
				</extensions>
			</trkpt>
			<trkpt lat="-28.479310" lon="153.228540">
				<ele>84.531</ele>
				<time>2015-07-04T04:49:08Z</time>
				<extensions>
				</extensions>
			</trkpt>
			<trkpt lat="-28.479330" lon="153.228941">
				<ele>84.065</ele>
				<time>2015-07-04T04:49:10Z</time>
				<extensions>
				</extensions>
			</trkpt>
			<trkpt lat="-28.479370" lon="153.229353">
				<ele>84.000</ele>
				<time>2015-07-04T04:49:12Z</time>
				<extensions>
				</extensions>
			</trkpt>
			<trkpt lat="-28.479386" lon="153.229560">
				<ele>85.376</ele>
				<time>2015-07-04T04:49:13Z</time>
				<extensions>
				</extensions>
			</trkpt>
			<trkpt lat="-28.479370" lon="153.229954">
				<ele>85.864</ele>
				<time>2015-07-04T04:49:15Z</time>
				<extensions>
				</extensions>
			</trkpt>
			<trkpt lat="-28.479302" lon="153.230342">
				<ele>86.322</ele>
				<time>2015-07-04T04:49:17Z</time>
				<extensions>
				</extensions>
			</trkpt>
			<trkpt lat="-28.479224" lon="153.230528">
				<ele>86.309</ele>
				<time>2015-07-04T04:49:18Z</time>
				<extensions>
				</extensions>
			</trkpt>
			<trkpt lat="-28.479077" lon="153.230867">
				<ele>88.354</ele>
				<time>2015-07-04T04:49:20Z</time>
				<extensions>
				</extensions>
			</trkpt>
			<trkpt lat="-28.478846" lon="153.231178">
				<ele>88.096</ele>
				<time>2015-07-04T04:49:22Z</time>
				<extensions>
				</extensions>
			</trkpt>
			<trkpt lat="-28.478589" lon="153.231438">
				<ele>87.727</ele>
				<time>2015-07-04T04:49:24Z</time>
				<extensions>
				</extensions>
			</trkpt>
			<trkpt lat="-28.478277" lon="153.231634">
				<ele>87.633</ele>
				<time>2015-07-04T04:49:26Z</time>
				<extensions>
				</extensions>
			</trkpt>
			<trkpt lat="-28.478108" lon="153.231707">
				<ele>87.347</ele>
				<time>2015-07-04T04:49:27Z</time>
				<extensions>
				</extensions>
			</trkpt>
			<trkpt lat="-28.477781" lon="153.231792">
				<ele>86.260</ele>
				<time>2015-07-04T04:49:29Z</time>
				<extensions>
				</extensions>
			</trkpt>
			<trkpt lat="-28.477419" lon="153.231786">
				<ele>85.028</ele>
				<time>2015-07-04T04:49:31Z</time>
				<extensions>
				</extensions>
			</trkpt>
			<trkpt lat="-28.477225" lon="153.231751">
				<ele>84.302</ele>
				<time>2015-07-04T04:49:32Z</time>
				<extensions>
				</extensions>
			</trkpt>
			<trkpt lat="-28.477013" lon="153.231713">
				<ele>83.195</ele>
				<time>2015-07-04T04:49:33Z</time>
				<extensions>
				</extensions>
			</trkpt>
			<trkpt lat="-28.476791" lon="153.231660">
				<ele>83.062</ele>
				<time>2015-07-04T04:49:34Z</time>
				<extensions>
				</extensions>
			</trkpt>
			<trkpt lat="-28.476582" lon="153.231606">
				<ele>82.886</ele>
				<time>2015-07-04T04:49:35Z</time>
				<extensions>
				</extensions>
			</trkpt>
			<trkpt lat="-28.476377" lon="153.231561">
				<ele>82.117</ele>
				<time>2015-07-04T04:49:36Z</time>
				<extensions>
				</extensions>
			</trkpt>
			<trkpt lat="-28.476174" lon="153.231524">
				<ele>82.399</ele>
				<time>2015-07-04T04:49:37Z</time>
				<extensions>
				</extensions>
			</trkpt>
			<trkpt lat="-28.475962" lon="153.231471">
				<ele>83.610</ele>
				<time>2015-07-04T04:49:38Z</time>
				<extensions>
				</extensions>
			</trkpt>
			<trkpt lat="-28.475757" lon="153.231423">
				<ele>85.653</ele>
				<time>2015-07-04T04:49:39Z</time>
				<extensions>
				</extensions>
			</trkpt>
			<trkpt lat="-28.475558" lon="153.231385">
				<ele>85.993</ele>
				<time>2015-07-04T04:49:40Z</time>
				<extensions>
				</extensions>
			</trkpt>
			<trkpt lat="-28.475375" lon="153.231353">
				<ele>86.838</ele>
				<time>2015-07-04T04:49:41Z</time>
				<extensions>
				</extensions>
			</trkpt>
			<trkpt lat="-28.475037" lon="153.231335">
				<ele>89.181</ele>
				<time>2015-07-04T04:49:43Z</time>
				<extensions>
				</extensions>
			</trkpt>
			<trkpt lat="-28.474857" lon="153.231350">
				<ele>90.952</ele>
				<time>2015-07-04T04:49:44Z</time>
				<extensions>
				</extensions>
			</trkpt>
			<trkpt lat="-28.474503" lon="153.231446">
				<ele>93.542</ele>
				<time>2015-07-04T04:49:46Z</time>
				<extensions>
				</extensions>
			</trkpt>
			<trkpt lat="-28.474189" lon="153.231597">
				<ele>95.778</ele>
				<time>2015-07-04T04:49:48Z</time>
				<extensions>
				</extensions>
			</trkpt>
			<trkpt lat="-28.473901" lon="153.231825">
				<ele>96.614</ele>
				<time>2015-07-04T04:49:50Z</time>
				<extensions>
				</extensions>
			</trkpt>
			<trkpt lat="-28.473665" lon="153.232103">
				<ele>96.672</ele>
				<time>2015-07-04T04:49:52Z</time>
				<extensions>
				</extensions>
			</trkpt>
			<trkpt lat="-28.473565" lon="153.232288">
				<ele>96.494</ele>
				<time>2015-07-04T04:49:53Z</time>
				<extensions>
				</extensions>
			</trkpt>
			<trkpt lat="-28.473464" lon="153.232465">
				<ele>96.763</ele>
				<time>2015-07-04T04:49:54Z</time>
				<extensions>
				</extensions>
			</trkpt>
			<trkpt lat="-28.473371" lon="153.232655">
				<ele>96.763</ele>
				<time>2015-07-04T04:49:55Z</time>
				<extensions>
				</extensions>
			</trkpt>
			<trkpt lat="-28.473296" lon="153.232914">
				<ele>96.941</ele>
				<time>2015-07-04T04:49:56Z</time>
				<extensions>
				</extensions>
			</trkpt>
			<trkpt lat="-28.473219" lon="153.233144">
				<ele>95.979</ele>
				<time>2015-07-04T04:49:57Z</time>
				<extensions>
				</extensions>
			</trkpt>
			<trkpt lat="-28.473134" lon="153.233341">
				<ele>93.968</ele>
				<time>2015-07-04T04:49:58Z</time>
				<extensions>
				</extensions>
			</trkpt>
			<trkpt lat="-28.473047" lon="153.233557">
				<ele>92.340</ele>
				<time>2015-07-04T04:49:59Z</time>
				<extensions>
				</extensions>
			</trkpt>
			<trkpt lat="-28.472988" lon="153.233786">
				<ele>90.836</ele>
				<time>2015-07-04T04:50:00Z</time>
				<extensions>
				</extensions>
			</trkpt>
			<trkpt lat="-28.472924" lon="153.234012">
				<ele>89.231</ele>
				<time>2015-07-04T04:50:01Z</time>
				<extensions>
				</extensions>
			</trkpt>
			<trkpt lat="-28.472846" lon="153.234221">
				<ele>87.451</ele>
				<time>2015-07-04T04:50:02Z</time>
				<extensions>
				</extensions>
			</trkpt>
			<trkpt lat="-28.472744" lon="153.234427">
				<ele>85.357</ele>
				<time>2015-07-04T04:50:03Z</time>
				<extensions>
				</extensions>
			</trkpt>
			<trkpt lat="-28.472665" lon="153.234628">
				<ele>83.931</ele>
				<time>2015-07-04T04:50:04Z</time>
				<extensions>
				</extensions>
			</trkpt>
			<trkpt lat="-28.472589" lon="153.234842">
				<ele>82.549</ele>
				<time>2015-07-04T04:50:05Z</time>
				<extensions>
				</extensions>
			</trkpt>
			<trkpt lat="-28.472490" lon="153.235072">
				<ele>80.857</ele>
				<time>2015-07-04T04:50:06Z</time>
				<extensions>
				</extensions>
			</trkpt>
			<trkpt lat="-28.472397" lon="153.235294">
				<ele>78.616</ele>
				<time>2015-07-04T04:50:07Z</time>
				<extensions>
				</extensions>
			</trkpt>
			<trkpt lat="-28.472322" lon="153.235506">
				<ele>77.550</ele>
				<time>2015-07-04T04:50:08Z</time>
				<extensions>
				</extensions>
			</trkpt>
			<trkpt lat="-28.472246" lon="153.235721">
				<ele>76.445</ele>
				<time>2015-07-04T04:50:09Z</time>
				<extensions>
				</extensions>
			</trkpt>
			<trkpt lat="-28.472176" lon="153.235926">
				<ele>74.690</ele>
				<time>2015-07-04T04:50:10Z</time>
				<extensions>
				</extensions>
			</trkpt>
			<trkpt lat="-28.472103" lon="153.236130">
				<ele>73.071</ele>
				<time>2015-07-04T04:50:11Z</time>
				<extensions>
				</extensions>
			</trkpt>
			<trkpt lat="-28.471977" lon="153.236523">
				<ele>73.291</ele>
				<time>2015-07-04T04:50:13Z</time>
				<extensions>
				</extensions>
			</trkpt>
			<trkpt lat="-28.471841" lon="153.236912">
				<ele>72.758</ele>
				<time>2015-07-04T04:50:15Z</time>
				<extensions>
				</extensions>
			</trkpt>
			<trkpt lat="-28.471775" lon="153.237124">
				<ele>72.398</ele>
				<time>2015-07-04T04:50:16Z</time>
				<extensions>
				</extensions>
			</trkpt>
			<trkpt lat="-28.471717" lon="153.237336">
				<ele>72.773</ele>
				<time>2015-07-04T04:50:17Z</time>
				<extensions>
				</extensions>
			</trkpt>
			<trkpt lat="-28.471646" lon="153.237547">
				<ele>75.100</ele>
				<time>2015-07-04T04:50:18Z</time>
				<extensions>
				</extensions>
			</trkpt>
			<trkpt lat="-28.471573" lon="153.237760">
				<ele>74.447</ele>
				<time>2015-07-04T04:50:19Z</time>
				<extensions>
				</extensions>
			</trkpt>
			<trkpt lat="-28.471501" lon="153.237978">
				<ele>74.594</ele>
				<time>2015-07-04T04:50:20Z</time>
				<extensions>
				</extensions>
			</trkpt>
			<trkpt lat="-28.471427" lon="153.238191">
				<ele>73.860</ele>
				<time>2015-07-04T04:50:21Z</time>
				<extensions>
				</extensions>
			</trkpt>
			<trkpt lat="-28.471347" lon="153.238398">
				<ele>73.437</ele>
				<time>2015-07-04T04:50:22Z</time>
				<extensions>
				</extensions>
			</trkpt>
			<trkpt lat="-28.471271" lon="153.238600">
				<ele>74.103</ele>
				<time>2015-07-04T04:50:23Z</time>
				<extensions>
				</extensions>
			</trkpt>
			<trkpt lat="-28.471173" lon="153.238803">
				<ele>74.812</ele>
				<time>2015-07-04T04:50:24Z</time>
				<extensions>
				</extensions>
			</trkpt>
			<trkpt lat="-28.471057" lon="153.239003">
				<ele>74.899</ele>
				<time>2015-07-04T04:50:25Z</time>
				<extensions>
				</extensions>
			</trkpt>
			<trkpt lat="-28.470924" lon="153.239198">
				<ele>75.516</ele>
				<time>2015-07-04T04:50:26Z</time>
				<extensions>
				</extensions>
			</trkpt>
			<trkpt lat="-28.470788" lon="153.239391">
				<ele>75.873</ele>
				<time>2015-07-04T04:50:27Z</time>
				<extensions>
				</extensions>
			</trkpt>
			<trkpt lat="-28.470658" lon="153.239576">
				<ele>76.485</ele>
				<time>2015-07-04T04:50:28Z</time>
				<extensions>
				</extensions>
			</trkpt>
			<trkpt lat="-28.470456" lon="153.239926">
				<ele>77.852</ele>
				<time>2015-07-04T04:50:30Z</time>
				<extensions>
				</extensions>
			</trkpt>
			<trkpt lat="-28.470339" lon="153.240103">
				<ele>79.438</ele>
				<time>2015-07-04T04:50:31Z</time>
				<extensions>
				</extensions>
			</trkpt>
			<trkpt lat="-28.470238" lon="153.240281">
				<ele>80.410</ele>
				<time>2015-07-04T04:50:32Z</time>
				<extensions>
				</extensions>
			</trkpt>
			<trkpt lat="-28.470145" lon="153.240462">
				<ele>81.140</ele>
				<time>2015-07-04T04:50:33Z</time>
				<extensions>
				</extensions>
			</trkpt>
			<trkpt lat="-28.470068" lon="153.240657">
				<ele>81.626</ele>
				<time>2015-07-04T04:50:34Z</time>
				<extensions>
				</extensions>
			</trkpt>
			<trkpt lat="-28.469970" lon="153.241052">
				<ele>82.429</ele>
				<time>2015-07-04T04:50:36Z</time>
				<extensions>
				</extensions>
			</trkpt>
			<trkpt lat="-28.469945" lon="153.241260">
				<ele>83.122</ele>
				<time>2015-07-04T04:50:37Z</time>
				<extensions>
				</extensions>
			</trkpt>
			<trkpt lat="-28.469950" lon="153.241467">
				<ele>83.371</ele>
				<time>2015-07-04T04:50:38Z</time>
				<extensions>
				</extensions>
			</trkpt>
			<trkpt lat="-28.469979" lon="153.241677">
				<ele>83.311</ele>
				<time>2015-07-04T04:50:39Z</time>
				<extensions>
				</extensions>
			</trkpt>
			<trkpt lat="-28.470021" lon="153.241897">
				<ele>83.415</ele>
				<time>2015-07-04T04:50:40Z</time>
				<extensions>
				</extensions>
			</trkpt>
			<trkpt lat="-28.470073" lon="153.242124">
				<ele>82.203</ele>
				<time>2015-07-04T04:50:41Z</time>
				<extensions>
				</extensions>
			</trkpt>
			<trkpt lat="-28.470144" lon="153.242343">
				<ele>80.212</ele>
				<time>2015-07-04T04:50:42Z</time>
				<extensions>
				</extensions>
			</trkpt>
			<trkpt lat="-28.470197" lon="153.242543">
				<ele>79.834</ele>
				<time>2015-07-04T04:50:43Z</time>
				<extensions>
				</extensions>
			</trkpt>
			<trkpt lat="-28.470254" lon="153.242762">
				<ele>79.278</ele>
				<time>2015-07-04T04:50:44Z</time>
				<extensions>
				</extensions>
			</trkpt>
			<trkpt lat="-28.470302" lon="153.242978">
				<ele>78.071</ele>
				<time>2015-07-04T04:50:45Z</time>
				<extensions>
				</extensions>
			</trkpt>
			<trkpt lat="-28.470327" lon="153.243201">
				<ele>76.033</ele>
				<time>2015-07-04T04:50:46Z</time>
				<extensions>
				</extensions>
			</trkpt>
			<trkpt lat="-28.470340" lon="153.243426">
				<ele>74.871</ele>
				<time>2015-07-04T04:50:47Z</time>
				<extensions>
				</extensions>
			</trkpt>
			<trkpt lat="-28.470311" lon="153.243641">
				<ele>73.513</ele>
				<time>2015-07-04T04:50:48Z</time>
				<extensions>
				</extensions>
			</trkpt>
			<trkpt lat="-28.470287" lon="153.243849">
				<ele>71.604</ele>
				<time>2015-07-04T04:50:49Z</time>
				<extensions>
				</extensions>
			</trkpt>
			<trkpt lat="-28.470168" lon="153.244233">
				<ele>70.358</ele>
				<time>2015-07-04T04:50:51Z</time>
				<extensions>
				</extensions>
			</trkpt>
			<trkpt lat="-28.470078" lon="153.244441">
				<ele>70.073</ele>
				<time>2015-07-04T04:50:52Z</time>
				<extensions>
				</extensions>
			</trkpt>
			<trkpt lat="-28.469972" lon="153.244622">
				<ele>70.304</ele>
				<time>2015-07-04T04:50:53Z</time>
				<extensions>
				</extensions>
			</trkpt>
			<trkpt lat="-28.469829" lon="153.244774">
				<ele>72.261</ele>
				<time>2015-07-04T04:50:54Z</time>
				<extensions>
				</extensions>
			</trkpt>
			<trkpt lat="-28.469675" lon="153.244914">
				<ele>74.213</ele>
				<time>2015-07-04T04:50:55Z</time>
				<extensions>
				</extensions>
			</trkpt>
			<trkpt lat="-28.469518" lon="153.245052">
				<ele>75.275</ele>
				<time>2015-07-04T04:50:56Z</time>
				<extensions>
				</extensions>
			</trkpt>
			<trkpt lat="-28.469342" lon="153.245178">
				<ele>76.145</ele>
				<time>2015-07-04T04:50:57Z</time>
				<extensions>
				</extensions>
			</trkpt>
			<trkpt lat="-28.469053" lon="153.245414">
				<ele>75.607</ele>
				<time>2015-07-04T04:50:59Z</time>
				<extensions>
				</extensions>
			</trkpt>
			<trkpt lat="-28.468905" lon="153.245534">
				<ele>75.301</ele>
				<time>2015-07-04T04:51:00Z</time>
				<extensions>
				</extensions>
			</trkpt>
			<trkpt lat="-28.468623" lon="153.245772">
				<ele>75.215</ele>
				<time>2015-07-04T04:51:02Z</time>
				<extensions>
				</extensions>
			</trkpt>
			<trkpt lat="-28.468493" lon="153.245915">
				<ele>75.675</ele>
				<time>2015-07-04T04:51:03Z</time>
				<extensions>
				</extensions>
			</trkpt>
			<trkpt lat="-28.468376" lon="153.246084">
				<ele>75.184</ele>
				<time>2015-07-04T04:51:04Z</time>
				<extensions>
				</extensions>
			</trkpt>
			<trkpt lat="-28.468278" lon="153.246268">
				<ele>75.283</ele>
				<time>2015-07-04T04:51:05Z</time>
				<extensions>
				</extensions>
			</trkpt>
			<trkpt lat="-28.468199" lon="153.246464">
				<ele>74.774</ele>
				<time>2015-07-04T04:51:06Z</time>
				<extensions>
				</extensions>
			</trkpt>
			<trkpt lat="-28.468144" lon="153.246673">
				<ele>73.800</ele>
				<time>2015-07-04T04:51:07Z</time>
				<extensions>
				</extensions>
			</trkpt>
			<trkpt lat="-28.468104" lon="153.246890">
				<ele>73.735</ele>
				<time>2015-07-04T04:51:08Z</time>
				<extensions>
				</extensions>
			</trkpt>
			<trkpt lat="-28.468089" lon="153.247112">
				<ele>73.410</ele>
				<time>2015-07-04T04:51:09Z</time>
				<extensions>
				</extensions>
			</trkpt>
			<trkpt lat="-28.468104" lon="153.247344">
				<ele>72.713</ele>
				<time>2015-07-04T04:51:10Z</time>
				<extensions>
				</extensions>
			</trkpt>
			<trkpt lat="-28.468133" lon="153.247572">
				<ele>73.361</ele>
				<time>2015-07-04T04:51:11Z</time>
				<extensions>
				</extensions>
			</trkpt>
			<trkpt lat="-28.468201" lon="153.247805">
				<ele>73.361</ele>
				<time>2015-07-04T04:51:12Z</time>
				<extensions>
				</extensions>
			</trkpt>
			<trkpt lat="-28.468253" lon="153.248022">
				<ele>70.389</ele>
				<time>2015-07-04T04:51:13Z</time>
				<extensions>
				</extensions>
			</trkpt>
			<trkpt lat="-28.468316" lon="153.248222">
				<ele>70.389</ele>
				<time>2015-07-04T04:51:14Z</time>
				<extensions>
				</extensions>
			</trkpt>
			<trkpt lat="-28.468386" lon="153.248427">
				<ele>70.108</ele>
				<time>2015-07-04T04:51:15Z</time>
				<extensions>
				</extensions>
			</trkpt>
			<trkpt lat="-28.468460" lon="153.248640">
				<ele>68.678</ele>
				<time>2015-07-04T04:51:16Z</time>
				<extensions>
				</extensions>
			</trkpt>
			<trkpt lat="-28.468525" lon="153.248847">
				<ele>66.565</ele>
				<time>2015-07-04T04:51:17Z</time>
				<extensions>
				</extensions>
			</trkpt>
			<trkpt lat="-28.468599" lon="153.249047">
				<ele>67.132</ele>
				<time>2015-07-04T04:51:18Z</time>
				<extensions>
				</extensions>
			</trkpt>
			<trkpt lat="-28.468661" lon="153.249254">
				<ele>66.907</ele>
				<time>2015-07-04T04:51:19Z</time>
				<extensions>
				</extensions>
			</trkpt>
			<trkpt lat="-28.468703" lon="153.249463">
				<ele>66.764</ele>
				<time>2015-07-04T04:51:20Z</time>
				<extensions>
				</extensions>
			</trkpt>
			<trkpt lat="-28.468732" lon="153.249668">
				<ele>66.327</ele>
				<time>2015-07-04T04:51:21Z</time>
				<extensions>
				</extensions>
			</trkpt>
			<trkpt lat="-28.468755" lon="153.250062">
				<ele>64.541</ele>
				<time>2015-07-04T04:51:23Z</time>
				<extensions>
				</extensions>
			</trkpt>
			<trkpt lat="-28.468765" lon="153.250394">
				<ele>64.561</ele>
				<time>2015-07-04T04:51:25Z</time>
				<extensions>
				</extensions>
			</trkpt>
			<trkpt lat="-28.468788" lon="153.250738">
				<ele>63.916</ele>
				<time>2015-07-04T04:51:27Z</time>
				<extensions>
				</extensions>
			</trkpt>
			<trkpt lat="-28.468768" lon="153.251070">
				<ele>63.754</ele>
				<time>2015-07-04T04:51:29Z</time>
				<extensions>
				</extensions>
			</trkpt>
			<trkpt lat="-28.468791" lon="153.251366">
				<ele>63.384</ele>
				<time>2015-07-04T04:51:31Z</time>
				<extensions>
				</extensions>
			</trkpt>
			<trkpt lat="-28.468852" lon="153.251633">
				<ele>62.789</ele>
				<time>2015-07-04T04:51:33Z</time>
				<extensions>
				</extensions>
			</trkpt>
			<trkpt lat="-28.468987" lon="153.251900">
				<ele>63.091</ele>
				<time>2015-07-04T04:51:35Z</time>
				<extensions>
				</extensions>
			</trkpt>
			<trkpt lat="-28.469133" lon="153.252121">
				<ele>62.743</ele>
				<time>2015-07-04T04:51:37Z</time>
				<extensions>
				</extensions>
			</trkpt>
			<trkpt lat="-28.469282" lon="153.252326">
				<ele>62.374</ele>
				<time>2015-07-04T04:51:39Z</time>
				<extensions>
				</extensions>
			</trkpt>
			<trkpt lat="-28.469432" lon="153.252548">
				<ele>64.248</ele>
				<time>2015-07-04T04:51:41Z</time>
				<extensions>
				</extensions>
			</trkpt>
			<trkpt lat="-28.469579" lon="153.252793">
				<ele>66.756</ele>
				<time>2015-07-04T04:51:43Z</time>
				<extensions>
				</extensions>
			</trkpt>
			<trkpt lat="-28.469700" lon="153.253026">
				<ele>68.296</ele>
				<time>2015-07-04T04:51:45Z</time>
				<extensions>
				</extensions>
			</trkpt>
			<trkpt lat="-28.469848" lon="153.253222">
				<ele>71.356</ele>
				<time>2015-07-04T04:51:47Z</time>
				<extensions>
				</extensions>
			</trkpt>
			<trkpt lat="-28.470059" lon="153.253366">
				<ele>73.747</ele>
				<time>2015-07-04T04:51:49Z</time>
				<extensions>
				</extensions>
			</trkpt>
			<trkpt lat="-28.470318" lon="153.253437">
				<ele>74.689</ele>
				<time>2015-07-04T04:51:51Z</time>
				<extensions>
				</extensions>
			</trkpt>
			<trkpt lat="-28.470594" lon="153.253486">
				<ele>74.504</ele>
				<time>2015-07-04T04:51:53Z</time>
				<extensions>
				</extensions>
			</trkpt>
			<trkpt lat="-28.470846" lon="153.253518">
				<ele>74.284</ele>
				<time>2015-07-04T04:51:55Z</time>
				<extensions>
				</extensions>
			</trkpt>
			<trkpt lat="-28.471103" lon="153.253553">
				<ele>73.420</ele>
				<time>2015-07-04T04:51:57Z</time>
				<extensions>
				</extensions>
			</trkpt>
			<trkpt lat="-28.471362" lon="153.253635">
				<ele>72.108</ele>
				<time>2015-07-04T04:51:59Z</time>
				<extensions>
				</extensions>
			</trkpt>
			<trkpt lat="-28.471609" lon="153.253770">
				<ele>70.260</ele>
				<time>2015-07-04T04:52:01Z</time>
				<extensions>
				</extensions>
			</trkpt>
			<trkpt lat="-28.471805" lon="153.253976">
				<ele>69.776</ele>
				<time>2015-07-04T04:52:03Z</time>
				<extensions>
				</extensions>
			</trkpt>
			<trkpt lat="-28.471981" lon="153.254268">
				<ele>68.085</ele>
				<time>2015-07-04T04:52:05Z</time>
				<extensions>
				</extensions>
			</trkpt>
			<trkpt lat="-28.472103" lon="153.254603">
				<ele>65.717</ele>
				<time>2015-07-04T04:52:07Z</time>
				<extensions>
				</extensions>
			</trkpt>
			<trkpt lat="-28.472159" lon="153.254940">
				<ele>64.983</ele>
				<time>2015-07-04T04:52:09Z</time>
				<extensions>
				</extensions>
			</trkpt>
			<trkpt lat="-28.472154" lon="153.255287">
				<ele>63.064</ele>
				<time>2015-07-04T04:52:11Z</time>
				<extensions>
				</extensions>
			</trkpt>
			<trkpt lat="-28.472114" lon="153.255620">
				<ele>62.322</ele>
				<time>2015-07-04T04:52:13Z</time>
				<extensions>
				</extensions>
			</trkpt>
			<trkpt lat="-28.472068" lon="153.255972">
				<ele>61.570</ele>
				<time>2015-07-04T04:52:15Z</time>
				<extensions>
				</extensions>
			</trkpt>
			<trkpt lat="-28.472011" lon="153.256311">
				<ele>60.116</ele>
				<time>2015-07-04T04:52:17Z</time>
				<extensions>
				</extensions>
			</trkpt>
			<trkpt lat="-28.471944" lon="153.256651">
				<ele>59.582</ele>
				<time>2015-07-04T04:52:19Z</time>
				<extensions>
				</extensions>
			</trkpt>
			<trkpt lat="-28.471876" lon="153.257008">
				<ele>58.938</ele>
				<time>2015-07-04T04:52:21Z</time>
				<extensions>
				</extensions>
			</trkpt>
			<trkpt lat="-28.471807" lon="153.257356">
				<ele>58.498</ele>
				<time>2015-07-04T04:52:23Z</time>
				<extensions>
				</extensions>
			</trkpt>
			<trkpt lat="-28.471703" lon="153.257719">
				<ele>59.038</ele>
				<time>2015-07-04T04:52:25Z</time>
				<extensions>
				</extensions>
			</trkpt>
			<trkpt lat="-28.471571" lon="153.258058">
				<ele>58.913</ele>
				<time>2015-07-04T04:52:27Z</time>
				<extensions>
				</extensions>
			</trkpt>
			<trkpt lat="-28.471383" lon="153.258384">
				<ele>60.995</ele>
				<time>2015-07-04T04:52:29Z</time>
				<extensions>
				</extensions>
			</trkpt>
			<trkpt lat="-28.471159" lon="153.258693">
				<ele>61.461</ele>
				<time>2015-07-04T04:52:31Z</time>
				<extensions>
				</extensions>
			</trkpt>
			<trkpt lat="-28.471032" lon="153.258841">
				<ele>61.334</ele>
				<time>2015-07-04T04:52:32Z</time>
				<extensions>
				</extensions>
			</trkpt>
			<trkpt lat="-28.470894" lon="153.258992">
				<ele>61.334</ele>
				<time>2015-07-04T04:52:33Z</time>
				<extensions>
				</extensions>
			</trkpt>
			<trkpt lat="-28.470761" lon="153.259131">
				<ele>61.497</ele>
				<time>2015-07-04T04:52:34Z</time>
				<extensions>
				</extensions>
			</trkpt>
			<trkpt lat="-28.470624" lon="153.259264">
				<ele>61.700</ele>
				<time>2015-07-04T04:52:35Z</time>
				<extensions>
				</extensions>
			</trkpt>
			<trkpt lat="-28.470476" lon="153.259383">
				<ele>62.234</ele>
				<time>2015-07-04T04:52:36Z</time>
				<extensions>
				</extensions>
			</trkpt>
			<trkpt lat="-28.470324" lon="153.259494">
				<ele>61.935</ele>
				<time>2015-07-04T04:52:37Z</time>
				<extensions>
				</extensions>
			</trkpt>
			<trkpt lat="-28.470151" lon="153.259582">
				<ele>60.625</ele>
				<time>2015-07-04T04:52:38Z</time>
				<extensions>
				</extensions>
			</trkpt>
			<trkpt lat="-28.469984" lon="153.259667">
				<ele>59.462</ele>
				<time>2015-07-04T04:52:39Z</time>
				<extensions>
				</extensions>
			</trkpt>
			<trkpt lat="-28.469818" lon="153.259769">
				<ele>59.998</ele>
				<time>2015-07-04T04:52:40Z</time>
				<extensions>
				</extensions>
			</trkpt>
			<trkpt lat="-28.469645" lon="153.259828">
				<ele>60.285</ele>
				<time>2015-07-04T04:52:41Z</time>
				<extensions>
				</extensions>
			</trkpt>
			<trkpt lat="-28.469281" lon="153.259926">
				<ele>59.414</ele>
				<time>2015-07-04T04:52:43Z</time>
				<extensions>
				</extensions>
			</trkpt>
			<trkpt lat="-28.469096" lon="153.259964">
				<ele>59.248</ele>
				<time>2015-07-04T04:52:44Z</time>
				<extensions>
				</extensions>
			</trkpt>
			<trkpt lat="-28.468907" lon="153.259996">
				<ele>58.843</ele>
				<time>2015-07-04T04:52:45Z</time>
				<extensions>
				</extensions>
			</trkpt>
			<trkpt lat="-28.468726" lon="153.260020">
				<ele>58.449</ele>
				<time>2015-07-04T04:52:46Z</time>
				<extensions>
				</extensions>
			</trkpt>
			<trkpt lat="-28.468540" lon="153.260070">
				<ele>57.972</ele>
				<time>2015-07-04T04:52:47Z</time>
				<extensions>
				</extensions>
			</trkpt>
			<trkpt lat="-28.468349" lon="153.260135">
				<ele>58.114</ele>
				<time>2015-07-04T04:52:48Z</time>
				<extensions>
				</extensions>
			</trkpt>
			<trkpt lat="-28.468157" lon="153.260209">
				<ele>58.635</ele>
				<time>2015-07-04T04:52:49Z</time>
				<extensions>
				</extensions>
			</trkpt>
			<trkpt lat="-28.467964" lon="153.260299">
				<ele>58.681</ele>
				<time>2015-07-04T04:52:50Z</time>
				<extensions>
				</extensions>
			</trkpt>
			<trkpt lat="-28.467781" lon="153.260408">
				<ele>60.463</ele>
				<time>2015-07-04T04:52:51Z</time>
				<extensions>
				</extensions>
			</trkpt>
			<trkpt lat="-28.467607" lon="153.260530">
				<ele>60.178</ele>
				<time>2015-07-04T04:52:52Z</time>
				<extensions>
				</extensions>
			</trkpt>
			<trkpt lat="-28.467444" lon="153.260668">
				<ele>60.586</ele>
				<time>2015-07-04T04:52:53Z</time>
				<extensions>
				</extensions>
			</trkpt>
			<trkpt lat="-28.467282" lon="153.260824">
				<ele>61.231</ele>
				<time>2015-07-04T04:52:54Z</time>
				<extensions>
				</extensions>
			</trkpt>
			<trkpt lat="-28.467119" lon="153.260994">
				<ele>61.161</ele>
				<time>2015-07-04T04:52:55Z</time>
				<extensions>
				</extensions>
			</trkpt>
			<trkpt lat="-28.466975" lon="153.261172">
				<ele>62.017</ele>
				<time>2015-07-04T04:52:56Z</time>
				<extensions>
				</extensions>
			</trkpt>
			<trkpt lat="-28.466813" lon="153.261346">
				<ele>62.771</ele>
				<time>2015-07-04T04:52:57Z</time>
				<extensions>
				</extensions>
			</trkpt>
			<trkpt lat="-28.466670" lon="153.261525">
				<ele>61.871</ele>
				<time>2015-07-04T04:52:58Z</time>
				<extensions>
				</extensions>
			</trkpt>
			<trkpt lat="-28.466533" lon="153.261695">
				<ele>61.889</ele>
				<time>2015-07-04T04:52:59Z</time>
				<extensions>
				</extensions>
			</trkpt>
			<trkpt lat="-28.466396" lon="153.261857">
				<ele>60.069</ele>
				<time>2015-07-04T04:53:00Z</time>
				<extensions>
				</extensions>
			</trkpt>
			<trkpt lat="-28.466254" lon="153.262010">
				<ele>60.009</ele>
				<time>2015-07-04T04:53:01Z</time>
				<extensions>
				</extensions>
			</trkpt>
			<trkpt lat="-28.466116" lon="153.262167">
				<ele>60.494</ele>
				<time>2015-07-04T04:53:02Z</time>
				<extensions>
				</extensions>
			</trkpt>
			<trkpt lat="-28.465983" lon="153.262329">
				<ele>59.205</ele>
				<time>2015-07-04T04:53:03Z</time>
				<extensions>
				</extensions>
			</trkpt>
			<trkpt lat="-28.465863" lon="153.262482">
				<ele>58.773</ele>
				<time>2015-07-04T04:53:04Z</time>
				<extensions>
				</extensions>
			</trkpt>
			<trkpt lat="-28.465616" lon="153.262772">
				<ele>58.264</ele>
				<time>2015-07-04T04:53:06Z</time>
				<extensions>
				</extensions>
			</trkpt>
			<trkpt lat="-28.465341" lon="153.263045">
				<ele>58.651</ele>
				<time>2015-07-04T04:53:08Z</time>
				<extensions>
				</extensions>
			</trkpt>
			<trkpt lat="-28.465038" lon="153.263255">
				<ele>57.457</ele>
				<time>2015-07-04T04:53:10Z</time>
				<extensions>
				</extensions>
			</trkpt>
			<trkpt lat="-28.464866" lon="153.263345">
				<ele>56.882</ele>
				<time>2015-07-04T04:53:11Z</time>
				<extensions>
				</extensions>
			</trkpt>
			<trkpt lat="-28.464542" lon="153.263488">
				<ele>56.574</ele>
				<time>2015-07-04T04:53:13Z</time>
				<extensions>
				</extensions>
			</trkpt>
			<trkpt lat="-28.464366" lon="153.263553">
				<ele>57.046</ele>
				<time>2015-07-04T04:53:14Z</time>
				<extensions>
				</extensions>
			</trkpt>
			<trkpt lat="-28.464040" lon="153.263682">
				<ele>56.877</ele>
				<time>2015-07-04T04:53:16Z</time>
				<extensions>
				</extensions>
			</trkpt>
			<trkpt lat="-28.463690" lon="153.263814">
				<ele>58.392</ele>
				<time>2015-07-04T04:53:18Z</time>
				<extensions>
				</extensions>
			</trkpt>
			<trkpt lat="-28.463395" lon="153.263937">
				<ele>59.067</ele>
				<time>2015-07-04T04:53:20Z</time>
				<extensions>
				</extensions>
			</trkpt>
			<trkpt lat="-28.463149" lon="153.264106">
				<ele>61.433</ele>
				<time>2015-07-04T04:53:22Z</time>
				<extensions>
				</extensions>
			</trkpt>
			<trkpt lat="-28.462946" lon="153.264345">
				<ele>63.559</ele>
				<time>2015-07-04T04:53:24Z</time>
				<extensions>
				</extensions>
			</trkpt>
			<trkpt lat="-28.462798" lon="153.264630">
				<ele>63.381</ele>
				<time>2015-07-04T04:53:26Z</time>
				<extensions>
				</extensions>
			</trkpt>
			<trkpt lat="-28.462722" lon="153.264961">
				<ele>62.938</ele>
				<time>2015-07-04T04:53:28Z</time>
				<extensions>
				</extensions>
			</trkpt>
			<trkpt lat="-28.462712" lon="153.265168">
				<ele>63.148</ele>
				<time>2015-07-04T04:53:29Z</time>
				<extensions>
				</extensions>
			</trkpt>
			<trkpt lat="-28.462768" lon="153.265580">
				<ele>62.537</ele>
				<time>2015-07-04T04:53:31Z</time>
				<extensions>
				</extensions>
			</trkpt>
			<trkpt lat="-28.462791" lon="153.265791">
				<ele>62.573</ele>
				<time>2015-07-04T04:53:32Z</time>
				<extensions>
				</extensions>
			</trkpt>
			<trkpt lat="-28.462833" lon="153.265999">
				<ele>62.159</ele>
				<time>2015-07-04T04:53:33Z</time>
				<extensions>
				</extensions>
			</trkpt>
			<trkpt lat="-28.462917" lon="153.266381">
				<ele>61.469</ele>
				<time>2015-07-04T04:53:35Z</time>
				<extensions>
				</extensions>
			</trkpt>
			<trkpt lat="-28.462938" lon="153.266595">
				<ele>61.463</ele>
				<time>2015-07-04T04:53:36Z</time>
				<extensions>
				</extensions>
			</trkpt>
			<trkpt lat="-28.463024" lon="153.266972">
				<ele>60.831</ele>
				<time>2015-07-04T04:53:38Z</time>
				<extensions>
				</extensions>
			</trkpt>
			<trkpt lat="-28.463068" lon="153.267176">
				<ele>59.532</ele>
				<time>2015-07-04T04:53:39Z</time>
				<extensions>
				</extensions>
			</trkpt>
			<trkpt lat="-28.463085" lon="153.267389">
				<ele>58.746</ele>
				<time>2015-07-04T04:53:40Z</time>
				<extensions>
				</extensions>
			</trkpt>
			<trkpt lat="-28.463108" lon="153.267606">
				<ele>58.875</ele>
				<time>2015-07-04T04:53:41Z</time>
				<extensions>
				</extensions>
			</trkpt>
			<trkpt lat="-28.463110" lon="153.267818">
				<ele>58.186</ele>
				<time>2015-07-04T04:53:42Z</time>
				<extensions>
				</extensions>
			</trkpt>
			<trkpt lat="-28.463141" lon="153.268025">
				<ele>57.492</ele>
				<time>2015-07-04T04:53:43Z</time>
				<extensions>
				</extensions>
			</trkpt>
			<trkpt lat="-28.463173" lon="153.268239">
				<ele>56.806</ele>
				<time>2015-07-04T04:53:44Z</time>
				<extensions>
				</extensions>
			</trkpt>
			<trkpt lat="-28.463213" lon="153.268456">
				<ele>55.603</ele>
				<time>2015-07-04T04:53:45Z</time>
				<extensions>
				</extensions>
			</trkpt>
			<trkpt lat="-28.463238" lon="153.268668">
				<ele>55.068</ele>
				<time>2015-07-04T04:53:46Z</time>
				<extensions>
				</extensions>
			</trkpt>
			<trkpt lat="-28.463265" lon="153.268882">
				<ele>54.668</ele>
				<time>2015-07-04T04:53:47Z</time>
				<extensions>
				</extensions>
			</trkpt>
			<trkpt lat="-28.463319" lon="153.269290">
				<ele>54.487</ele>
				<time>2015-07-04T04:53:49Z</time>
				<extensions>
				</extensions>
			</trkpt>
			<trkpt lat="-28.463346" lon="153.269497">
				<ele>54.506</ele>
				<time>2015-07-04T04:53:50Z</time>
				<extensions>
				</extensions>
			</trkpt>
			<trkpt lat="-28.463374" lon="153.269719">
				<ele>54.221</ele>
				<time>2015-07-04T04:53:51Z</time>
				<extensions>
				</extensions>
			</trkpt>
			<trkpt lat="-28.463373" lon="153.269929">
				<ele>54.221</ele>
				<time>2015-07-04T04:53:52Z</time>
				<extensions>
				</extensions>
			</trkpt>
			<trkpt lat="-28.463347" lon="153.270142">
				<ele>53.299</ele>
				<time>2015-07-04T04:53:53Z</time>
				<extensions>
				</extensions>
			</trkpt>
			<trkpt lat="-28.463312" lon="153.270346">
				<ele>53.934</ele>
				<time>2015-07-04T04:53:54Z</time>
				<extensions>
				</extensions>
			</trkpt>
			<trkpt lat="-28.463235" lon="153.270542">
				<ele>53.830</ele>
				<time>2015-07-04T04:53:55Z</time>
				<extensions>
				</extensions>
			</trkpt>
			<trkpt lat="-28.463040" lon="153.270878">
				<ele>53.124</ele>
				<time>2015-07-04T04:53:57Z</time>
				<extensions>
				</extensions>
			</trkpt>
			<trkpt lat="-28.462909" lon="153.271024">
				<ele>53.340</ele>
				<time>2015-07-04T04:53:58Z</time>
				<extensions>
				</extensions>
			</trkpt>
			<trkpt lat="-28.462640" lon="153.271230">
				<ele>52.867</ele>
				<time>2015-07-04T04:54:00Z</time>
				<extensions>
				</extensions>
			</trkpt>
			<trkpt lat="-28.462273" lon="153.271312">
				<ele>52.846</ele>
				<time>2015-07-04T04:54:02Z</time>
				<extensions>
				</extensions>
			</trkpt>
			<trkpt lat="-28.461927" lon="153.271312">
				<ele>53.428</ele>
				<time>2015-07-04T04:54:04Z</time>
				<extensions>
				</extensions>
			</trkpt>
			<trkpt lat="-28.461583" lon="153.271221">
				<ele>53.722</ele>
				<time>2015-07-04T04:54:06Z</time>
				<extensions>
				</extensions>
			</trkpt>
			<trkpt lat="-28.461286" lon="153.271052">
				<ele>55.356</ele>
				<time>2015-07-04T04:54:08Z</time>
				<extensions>
				</extensions>
			</trkpt>
			<trkpt lat="-28.461142" lon="153.270922">
				<ele>56.154</ele>
				<time>2015-07-04T04:54:09Z</time>
				<extensions>
				</extensions>
			</trkpt>
			<trkpt lat="-28.460886" lon="153.270644">
				<ele>57.366</ele>
				<time>2015-07-04T04:54:11Z</time>
				<extensions>
				</extensions>
			</trkpt>
			<trkpt lat="-28.460638" lon="153.270404">
				<ele>56.829</ele>
				<time>2015-07-04T04:54:13Z</time>
				<extensions>
				</extensions>
			</trkpt>
			<trkpt lat="-28.460366" lon="153.270214">
				<ele>57.075</ele>
				<time>2015-07-04T04:54:15Z</time>
				<extensions>
				</extensions>
			</trkpt>
			<trkpt lat="-28.460045" lon="153.270077">
				<ele>58.311</ele>
				<time>2015-07-04T04:54:17Z</time>
				<extensions>
				</extensions>
			</trkpt>
			<trkpt lat="-28.459716" lon="153.269994">
				<ele>58.904</ele>
				<time>2015-07-04T04:54:19Z</time>
				<extensions>
				</extensions>
			</trkpt>
			<trkpt lat="-28.459409" lon="153.269986">
				<ele>58.562</ele>
				<time>2015-07-04T04:54:21Z</time>
				<extensions>
				</extensions>
			</trkpt>
			<trkpt lat="-28.459076" lon="153.270060">
				<ele>59.466</ele>
				<time>2015-07-04T04:54:23Z</time>
				<extensions>
				</extensions>
			</trkpt>
			<trkpt lat="-28.458907" lon="153.270135">
				<ele>59.199</ele>
				<time>2015-07-04T04:54:24Z</time>
				<extensions>
				</extensions>
			</trkpt>
			<trkpt lat="-28.458745" lon="153.270232">
				<ele>58.848</ele>
				<time>2015-07-04T04:54:25Z</time>
				<extensions>
				</extensions>
			</trkpt>
			<trkpt lat="-28.458592" lon="153.270347">
				<ele>58.034</ele>
				<time>2015-07-04T04:54:26Z</time>
				<extensions>
				</extensions>
			</trkpt>
			<trkpt lat="-28.458474" lon="153.270517">
				<ele>58.022</ele>
				<time>2015-07-04T04:54:27Z</time>
				<extensions>
				</extensions>
			</trkpt>
			<trkpt lat="-28.458362" lon="153.270696">
				<ele>57.702</ele>
				<time>2015-07-04T04:54:28Z</time>
				<extensions>
				</extensions>
			</trkpt>
			<trkpt lat="-28.458252" lon="153.270886">
				<ele>57.586</ele>
				<time>2015-07-04T04:54:29Z</time>
				<extensions>
				</extensions>
			</trkpt>
			<trkpt lat="-28.458135" lon="153.271052">
				<ele>57.501</ele>
				<time>2015-07-04T04:54:30Z</time>
				<extensions>
				</extensions>
			</trkpt>
			<trkpt lat="-28.458014" lon="153.271237">
				<ele>57.669</ele>
				<time>2015-07-04T04:54:31Z</time>
				<extensions>
				</extensions>
			</trkpt>
			<trkpt lat="-28.457921" lon="153.271433">
				<ele>58.710</ele>
				<time>2015-07-04T04:54:32Z</time>
				<extensions>
				</extensions>
			</trkpt>
			<trkpt lat="-28.457815" lon="153.271613">
				<ele>57.832</ele>
				<time>2015-07-04T04:54:33Z</time>
				<extensions>
				</extensions>
			</trkpt>
			<trkpt lat="-28.457624" lon="153.271937">
				<ele>59.845</ele>
				<time>2015-07-04T04:54:35Z</time>
				<extensions>
				</extensions>
			</trkpt>
			<trkpt lat="-28.457376" lon="153.272228">
				<ele>60.585</ele>
				<time>2015-07-04T04:54:37Z</time>
				<extensions>
				</extensions>
			</trkpt>
			<trkpt lat="-28.457101" lon="153.272472">
				<ele>60.199</ele>
				<time>2015-07-04T04:54:39Z</time>
				<extensions>
				</extensions>
			</trkpt>
			<trkpt lat="-28.456815" lon="153.272669">
				<ele>60.945</ele>
				<time>2015-07-04T04:54:41Z</time>
				<extensions>
				</extensions>
			</trkpt>
			<trkpt lat="-28.456521" lon="153.272816">
				<ele>61.981</ele>
				<time>2015-07-04T04:54:43Z</time>
				<extensions>
				</extensions>
			</trkpt>
			<trkpt lat="-28.456210" lon="153.272881">
				<ele>63.693</ele>
				<time>2015-07-04T04:54:45Z</time>
				<extensions>
				</extensions>
			</trkpt>
			<trkpt lat="-28.455999" lon="153.272945">
				<ele>64.138</ele>
				<time>2015-07-04T04:54:46Z</time>
				<extensions>
				</extensions>
			</trkpt>
			<trkpt lat="-28.455802" lon="153.273005">
				<ele>64.496</ele>
				<time>2015-07-04T04:54:47Z</time>
				<extensions>
				</extensions>
			</trkpt>
			<trkpt lat="-28.455597" lon="153.273049">
				<ele>64.868</ele>
				<time>2015-07-04T04:54:48Z</time>
				<extensions>
				</extensions>
			</trkpt>
			<trkpt lat="-28.455249" lon="153.273124">
				<ele>66.852</ele>
				<time>2015-07-04T04:54:50Z</time>
				<extensions>
				</extensions>
			</trkpt>
			<trkpt lat="-28.454893" lon="153.273226">
				<ele>69.567</ele>
				<time>2015-07-04T04:54:52Z</time>
				<extensions>
				</extensions>
			</trkpt>
			<trkpt lat="-28.454561" lon="153.273362">
				<ele>70.916</ele>
				<time>2015-07-04T04:54:54Z</time>
				<extensions>
				</extensions>
			</trkpt>
			<trkpt lat="-28.454386" lon="153.273465">
				<ele>71.379</ele>
				<time>2015-07-04T04:54:55Z</time>
				<extensions>
				</extensions>
			</trkpt>
			<trkpt lat="-28.454224" lon="153.273577">
				<ele>72.088</ele>
				<time>2015-07-04T04:54:56Z</time>
				<extensions>
				</extensions>
			</trkpt>
			<trkpt lat="-28.454061" lon="153.273694">
				<ele>72.810</ele>
				<time>2015-07-04T04:54:57Z</time>
				<extensions>
				</extensions>
			</trkpt>
			<trkpt lat="-28.453916" lon="153.273835">
				<ele>71.838</ele>
				<time>2015-07-04T04:54:58Z</time>
				<extensions>
				</extensions>
			</trkpt>
			<trkpt lat="-28.453779" lon="153.273990">
				<ele>71.662</ele>
				<time>2015-07-04T04:54:59Z</time>
				<extensions>
				</extensions>
			</trkpt>
			<trkpt lat="-28.453635" lon="153.274148">
				<ele>70.701</ele>
				<time>2015-07-04T04:55:00Z</time>
				<extensions>
				</extensions>
			</trkpt>
			<trkpt lat="-28.453496" lon="153.274327">
				<ele>70.160</ele>
				<time>2015-07-04T04:55:01Z</time>
				<extensions>
				</extensions>
			</trkpt>
			<trkpt lat="-28.453358" lon="153.274502">
				<ele>69.089</ele>
				<time>2015-07-04T04:55:02Z</time>
				<extensions>
				</extensions>
			</trkpt>
			<trkpt lat="-28.453239" lon="153.274696">
				<ele>67.824</ele>
				<time>2015-07-04T04:55:03Z</time>
				<extensions>
				</extensions>
			</trkpt>
			<trkpt lat="-28.453111" lon="153.274877">
				<ele>66.277</ele>
				<time>2015-07-04T04:55:04Z</time>
				<extensions>
				</extensions>
			</trkpt>
			<trkpt lat="-28.452989" lon="153.275054">
				<ele>65.746</ele>
				<time>2015-07-04T04:55:05Z</time>
				<extensions>
				</extensions>
			</trkpt>
			<trkpt lat="-28.452870" lon="153.275224">
				<ele>64.993</ele>
				<time>2015-07-04T04:55:06Z</time>
				<extensions>
				</extensions>
			</trkpt>
			<trkpt lat="-28.452763" lon="153.275389">
				<ele>64.778</ele>
				<time>2015-07-04T04:55:07Z</time>
				<extensions>
				</extensions>
			</trkpt>
			<trkpt lat="-28.452643" lon="153.275554">
				<ele>64.778</ele>
				<time>2015-07-04T04:55:08Z</time>
				<extensions>
				</extensions>
			</trkpt>
			<trkpt lat="-28.452530" lon="153.275717">
				<ele>63.590</ele>
				<time>2015-07-04T04:55:09Z</time>
				<extensions>
				</extensions>
			</trkpt>
			<trkpt lat="-28.452429" lon="153.275889">
				<ele>65.248</ele>
				<time>2015-07-04T04:55:10Z</time>
				<extensions>
				</extensions>
			</trkpt>
			<trkpt lat="-28.452319" lon="153.276064">
				<ele>65.906</ele>
				<time>2015-07-04T04:55:11Z</time>
				<extensions>
				</extensions>
			</trkpt>
			<trkpt lat="-28.452208" lon="153.276232">
				<ele>66.023</ele>
				<time>2015-07-04T04:55:12Z</time>
				<extensions>
				</extensions>
			</trkpt>
			<trkpt lat="-28.452097" lon="153.276396">
				<ele>67.019</ele>
				<time>2015-07-04T04:55:13Z</time>
				<extensions>
				</extensions>
			</trkpt>
			<trkpt lat="-28.451982" lon="153.276557">
				<ele>68.427</ele>
				<time>2015-07-04T04:55:14Z</time>
				<extensions>
				</extensions>
			</trkpt>
			<trkpt lat="-28.451867" lon="153.276722">
				<ele>68.544</ele>
				<time>2015-07-04T04:55:15Z</time>
				<extensions>
				</extensions>
			</trkpt>
			<trkpt lat="-28.451749" lon="153.276888">
				<ele>68.854</ele>
				<time>2015-07-04T04:55:16Z</time>
				<extensions>
				</extensions>
			</trkpt>
			<trkpt lat="-28.451506" lon="153.277206">
				<ele>69.837</ele>
				<time>2015-07-04T04:55:18Z</time>
				<extensions>
				</extensions>
			</trkpt>
			<trkpt lat="-28.451401" lon="153.277377">
				<ele>69.702</ele>
				<time>2015-07-04T04:55:19Z</time>
				<extensions>
				</extensions>
			</trkpt>
			<trkpt lat="-28.451290" lon="153.277565">
				<ele>69.591</ele>
				<time>2015-07-04T04:55:20Z</time>
				<extensions>
				</extensions>
			</trkpt>
			<trkpt lat="-28.451190" lon="153.277742">
				<ele>68.886</ele>
				<time>2015-07-04T04:55:21Z</time>
				<extensions>
				</extensions>
			</trkpt>
			<trkpt lat="-28.451102" lon="153.277941">
				<ele>68.355</ele>
				<time>2015-07-04T04:55:22Z</time>
				<extensions>
				</extensions>
			</trkpt>
			<trkpt lat="-28.451017" lon="153.278148">
				<ele>67.907</ele>
				<time>2015-07-04T04:55:23Z</time>
				<extensions>
				</extensions>
			</trkpt>
			<trkpt lat="-28.450936" lon="153.278354">
				<ele>67.197</ele>
				<time>2015-07-04T04:55:24Z</time>
				<extensions>
				</extensions>
			</trkpt>
			<trkpt lat="-28.450854" lon="153.278548">
				<ele>65.888</ele>
				<time>2015-07-04T04:55:25Z</time>
				<extensions>
				</extensions>
			</trkpt>
			<trkpt lat="-28.450777" lon="153.278754">
				<ele>64.822</ele>
				<time>2015-07-04T04:55:26Z</time>
				<extensions>
				</extensions>
			</trkpt>
			<trkpt lat="-28.450709" lon="153.278961">
				<ele>63.711</ele>
				<time>2015-07-04T04:55:27Z</time>
				<extensions>
				</extensions>
			</trkpt>
			<trkpt lat="-28.450640" lon="153.279164">
				<ele>62.153</ele>
				<time>2015-07-04T04:55:28Z</time>
				<extensions>
				</extensions>
			</trkpt>
			<trkpt lat="-28.450544" lon="153.279360">
				<ele>62.073</ele>
				<time>2015-07-04T04:55:29Z</time>
				<extensions>
				</extensions>
			</trkpt>
			<trkpt lat="-28.450431" lon="153.279540">
				<ele>60.302</ele>
				<time>2015-07-04T04:55:30Z</time>
				<extensions>
				</extensions>
			</trkpt>
			<trkpt lat="-28.450303" lon="153.279707">
				<ele>59.696</ele>
				<time>2015-07-04T04:55:31Z</time>
				<extensions>
				</extensions>
			</trkpt>
			<trkpt lat="-28.450154" lon="153.279859">
				<ele>59.064</ele>
				<time>2015-07-04T04:55:32Z</time>
				<extensions>
				</extensions>
			</trkpt>
			<trkpt lat="-28.449998" lon="153.280011">
				<ele>59.048</ele>
				<time>2015-07-04T04:55:33Z</time>
				<extensions>
				</extensions>
			</trkpt>
			<trkpt lat="-28.449812" lon="153.280143">
				<ele>58.783</ele>
				<time>2015-07-04T04:55:34Z</time>
				<extensions>
				</extensions>
			</trkpt>
			<trkpt lat="-28.449628" lon="153.280254">
				<ele>58.120</ele>
				<time>2015-07-04T04:55:35Z</time>
				<extensions>
				</extensions>
			</trkpt>
			<trkpt lat="-28.449306" lon="153.280408">
				<ele>57.344</ele>
				<time>2015-07-04T04:55:37Z</time>
				<extensions>
				</extensions>
			</trkpt>
			<trkpt lat="-28.449119" lon="153.280472">
				<ele>56.126</ele>
				<time>2015-07-04T04:55:38Z</time>
				<extensions>
				</extensions>
			</trkpt>
			<trkpt lat="-28.448935" lon="153.280545">
				<ele>56.369</ele>
				<time>2015-07-04T04:55:39Z</time>
				<extensions>
				</extensions>
			</trkpt>
			<trkpt lat="-28.448757" lon="153.280632">
				<ele>56.376</ele>
				<time>2015-07-04T04:55:40Z</time>
				<extensions>
				</extensions>
			</trkpt>
			<trkpt lat="-28.448590" lon="153.280738">
				<ele>55.307</ele>
				<time>2015-07-04T04:55:41Z</time>
				<extensions>
				</extensions>
			</trkpt>
			<trkpt lat="-28.448416" lon="153.280823">
				<ele>54.067</ele>
				<time>2015-07-04T04:55:42Z</time>
				<extensions>
				</extensions>
			</trkpt>
			<trkpt lat="-28.448245" lon="153.280917">
				<ele>51.859</ele>
				<time>2015-07-04T04:55:43Z</time>
				<extensions>
				</extensions>
			</trkpt>
			<trkpt lat="-28.448067" lon="153.281002">
				<ele>50.860</ele>
				<time>2015-07-04T04:55:44Z</time>
				<extensions>
				</extensions>
			</trkpt>
			<trkpt lat="-28.447722" lon="153.281136">
				<ele>48.855</ele>
				<time>2015-07-04T04:55:46Z</time>
				<extensions>
				</extensions>
			</trkpt>
			<trkpt lat="-28.447540" lon="153.281179">
				<ele>47.886</ele>
				<time>2015-07-04T04:55:47Z</time>
				<extensions>
				</extensions>
			</trkpt>
			<trkpt lat="-28.447353" lon="153.281161">
				<ele>46.677</ele>
				<time>2015-07-04T04:55:48Z</time>
				<extensions>
				</extensions>
			</trkpt>
			<trkpt lat="-28.447152" lon="153.281165">
				<ele>44.949</ele>
				<time>2015-07-04T04:55:49Z</time>
				<extensions>
				</extensions>
			</trkpt>
			<trkpt lat="-28.446820" lon="153.281152">
				<ele>44.123</ele>
				<time>2015-07-04T04:55:51Z</time>
				<extensions>
				</extensions>
			</trkpt>
			<trkpt lat="-28.446480" lon="153.281202">
				<ele>42.056</ele>
				<time>2015-07-04T04:55:53Z</time>
				<extensions>
				</extensions>
			</trkpt>
			<trkpt lat="-28.446147" lon="153.281307">
				<ele>40.998</ele>
				<time>2015-07-04T04:55:55Z</time>
				<extensions>
				</extensions>
			</trkpt>
			<trkpt lat="-28.445843" lon="153.281485">
				<ele>38.963</ele>
				<time>2015-07-04T04:55:57Z</time>
				<extensions>
				</extensions>
			</trkpt>
			<trkpt lat="-28.445576" lon="153.281754">
				<ele>40.657</ele>
				<time>2015-07-04T04:55:59Z</time>
				<extensions>
				</extensions>
			</trkpt>
			<trkpt lat="-28.445448" lon="153.281902">
				<ele>41.339</ele>
				<time>2015-07-04T04:56:00Z</time>
				<extensions>
				</extensions>
			</trkpt>
			<trkpt lat="-28.445335" lon="153.282065">
				<ele>41.836</ele>
				<time>2015-07-04T04:56:01Z</time>
				<extensions>
				</extensions>
			</trkpt>
			<trkpt lat="-28.445213" lon="153.282240">
				<ele>43.273</ele>
				<time>2015-07-04T04:56:02Z</time>
				<extensions>
				</extensions>
			</trkpt>
			<trkpt lat="-28.444997" lon="153.282584">
				<ele>44.812</ele>
				<time>2015-07-04T04:56:04Z</time>
				<extensions>
				</extensions>
			</trkpt>
			<trkpt lat="-28.444797" lon="153.282939">
				<ele>46.341</ele>
				<time>2015-07-04T04:56:06Z</time>
				<extensions>
				</extensions>
			</trkpt>
			<trkpt lat="-28.444663" lon="153.283076">
				<ele>47.071</ele>
				<time>2015-07-04T04:56:07Z</time>
				<extensions>
				</extensions>
			</trkpt>
			<trkpt lat="-28.444363" lon="153.283290">
				<ele>47.020</ele>
				<time>2015-07-04T04:56:09Z</time>
				<extensions>
				</extensions>
			</trkpt>
			<trkpt lat="-28.444193" lon="153.283369">
				<ele>46.594</ele>
				<time>2015-07-04T04:56:10Z</time>
				<extensions>
				</extensions>
			</trkpt>
			<trkpt lat="-28.444013" lon="153.283421">
				<ele>45.982</ele>
				<time>2015-07-04T04:56:11Z</time>
				<extensions>
				</extensions>
			</trkpt>
			<trkpt lat="-28.443632" lon="153.283461">
				<ele>45.350</ele>
				<time>2015-07-04T04:56:13Z</time>
				<extensions>
				</extensions>
			</trkpt>
			<trkpt lat="-28.443420" lon="153.283453">
				<ele>44.666</ele>
				<time>2015-07-04T04:56:14Z</time>
				<extensions>
				</extensions>
			</trkpt>
			<trkpt lat="-28.443209" lon="153.283418">
				<ele>44.766</ele>
				<time>2015-07-04T04:56:15Z</time>
				<extensions>
				</extensions>
			</trkpt>
			<trkpt lat="-28.443013" lon="153.283401">
				<ele>44.481</ele>
				<time>2015-07-04T04:56:16Z</time>
				<extensions>
				</extensions>
			</trkpt>
			<trkpt lat="-28.442822" lon="153.283386">
				<ele>43.774</ele>
				<time>2015-07-04T04:56:17Z</time>
				<extensions>
				</extensions>
			</trkpt>
			<trkpt lat="-28.442626" lon="153.283350">
				<ele>42.272</ele>
				<time>2015-07-04T04:56:18Z</time>
				<extensions>
				</extensions>
			</trkpt>
			<trkpt lat="-28.442430" lon="153.283322">
				<ele>41.459</ele>
				<time>2015-07-04T04:56:19Z</time>
				<extensions>
				</extensions>
			</trkpt>
			<trkpt lat="-28.442241" lon="153.283298">
				<ele>40.837</ele>
				<time>2015-07-04T04:56:20Z</time>
				<extensions>
				</extensions>
			</trkpt>
			<trkpt lat="-28.442058" lon="153.283291">
				<ele>40.453</ele>
				<time>2015-07-04T04:56:21Z</time>
				<extensions>
				</extensions>
			</trkpt>
			<trkpt lat="-28.441873" lon="153.283252">
				<ele>40.253</ele>
				<time>2015-07-04T04:56:22Z</time>
				<extensions>
				</extensions>
			</trkpt>
			<trkpt lat="-28.441695" lon="153.283203">
				<ele>40.840</ele>
				<time>2015-07-04T04:56:23Z</time>
				<extensions>
				</extensions>
			</trkpt>
			<trkpt lat="-28.441528" lon="153.283122">
				<ele>41.488</ele>
				<time>2015-07-04T04:56:24Z</time>
				<extensions>
				</extensions>
			</trkpt>
			<trkpt lat="-28.441221" lon="153.282926">
				<ele>41.768</ele>
				<time>2015-07-04T04:56:26Z</time>
				<extensions>
				</extensions>
			</trkpt>
			<trkpt lat="-28.441068" lon="153.282808">
				<ele>43.241</ele>
				<time>2015-07-04T04:56:27Z</time>
				<extensions>
				</extensions>
			</trkpt>
			<trkpt lat="-28.440779" lon="153.282594">
				<ele>44.626</ele>
				<time>2015-07-04T04:56:29Z</time>
				<extensions>
				</extensions>
			</trkpt>
			<trkpt lat="-28.440461" lon="153.282426">
				<ele>45.199</ele>
				<time>2015-07-04T04:56:31Z</time>
				<extensions>
				</extensions>
			</trkpt>
			<trkpt lat="-28.440150" lon="153.282260">
				<ele>45.535</ele>
				<time>2015-07-04T04:56:33Z</time>
				<extensions>
				</extensions>
			</trkpt>
			<trkpt lat="-28.439837" lon="153.282104">
				<ele>45.077</ele>
				<time>2015-07-04T04:56:35Z</time>
				<extensions>
				</extensions>
			</trkpt>
			<trkpt lat="-28.439503" lon="153.281962">
				<ele>46.319</ele>
				<time>2015-07-04T04:56:37Z</time>
				<extensions>
				</extensions>
			</trkpt>
			<trkpt lat="-28.439317" lon="153.281914">
				<ele>46.633</ele>
				<time>2015-07-04T04:56:38Z</time>
				<extensions>
				</extensions>
			</trkpt>
			<trkpt lat="-28.438985" lon="153.281868">
				<ele>46.325</ele>
				<time>2015-07-04T04:56:40Z</time>
				<extensions>
				</extensions>
			</trkpt>
			<trkpt lat="-28.438631" lon="153.281858">
				<ele>43.300</ele>
				<time>2015-07-04T04:56:42Z</time>
				<extensions>
				</extensions>
			</trkpt>
			<trkpt lat="-28.438297" lon="153.281755">
				<ele>43.616</ele>
				<time>2015-07-04T04:56:44Z</time>
				<extensions>
				</extensions>
			</trkpt>
			<trkpt lat="-28.437987" lon="153.281594">
				<ele>43.608</ele>
				<time>2015-07-04T04:56:46Z</time>
				<extensions>
				</extensions>
			</trkpt>
			<trkpt lat="-28.437717" lon="153.281394">
				<ele>42.926</ele>
				<time>2015-07-04T04:56:48Z</time>
				<extensions>
				</extensions>
			</trkpt>
			<trkpt lat="-28.437557" lon="153.281284">
				<ele>43.303</ele>
				<time>2015-07-04T04:56:49Z</time>
				<extensions>
				</extensions>
			</trkpt>
			<trkpt lat="-28.437302" lon="153.281161">
				<ele>44.096</ele>
				<time>2015-07-04T04:56:51Z</time>
				<extensions>
				</extensions>
			</trkpt>
			<trkpt lat="-28.436965" lon="153.281087">
				<ele>44.131</ele>
				<time>2015-07-04T04:56:53Z</time>
				<extensions>
				</extensions>
			</trkpt>
			<trkpt lat="-28.436638" lon="153.281120">
				<ele>44.016</ele>
				<time>2015-07-04T04:56:55Z</time>
				<extensions>
				</extensions>
			</trkpt>
			<trkpt lat="-28.436306" lon="153.281246">
				<ele>42.475</ele>
				<time>2015-07-04T04:56:57Z</time>
				<extensions>
				</extensions>
			</trkpt>
			<trkpt lat="-28.436016" lon="153.281475">
				<ele>41.515</ele>
				<time>2015-07-04T04:56:59Z</time>
				<extensions>
				</extensions>
			</trkpt>
			<trkpt lat="-28.435788" lon="153.281776">
				<ele>42.435</ele>
				<time>2015-07-04T04:57:01Z</time>
				<extensions>
				</extensions>
			</trkpt>
			<trkpt lat="-28.435705" lon="153.281958">
				<ele>43.559</ele>
				<time>2015-07-04T04:57:02Z</time>
				<extensions>
				</extensions>
			</trkpt>
			<trkpt lat="-28.435641" lon="153.282162">
				<ele>44.381</ele>
				<time>2015-07-04T04:57:03Z</time>
				<extensions>
				</extensions>
			</trkpt>
			<trkpt lat="-28.435588" lon="153.282363">
				<ele>45.187</ele>
				<time>2015-07-04T04:57:04Z</time>
				<extensions>
				</extensions>
			</trkpt>
			<trkpt lat="-28.435552" lon="153.282584">
				<ele>45.424</ele>
				<time>2015-07-04T04:57:05Z</time>
				<extensions>
				</extensions>
			</trkpt>
			<trkpt lat="-28.435509" lon="153.282796">
				<ele>45.401</ele>
				<time>2015-07-04T04:57:06Z</time>
				<extensions>
				</extensions>
			</trkpt>
			<trkpt lat="-28.435442" lon="153.283024">
				<ele>45.912</ele>
				<time>2015-07-04T04:57:07Z</time>
				<extensions>
				</extensions>
			</trkpt>
			<trkpt lat="-28.435360" lon="153.283225">
				<ele>45.502</ele>
				<time>2015-07-04T04:57:08Z</time>
				<extensions>
				</extensions>
			</trkpt>
			<trkpt lat="-28.435280" lon="153.283434">
				<ele>46.173</ele>
				<time>2015-07-04T04:57:09Z</time>
				<extensions>
				</extensions>
			</trkpt>
			<trkpt lat="-28.435172" lon="153.283630">
				<ele>45.935</ele>
				<time>2015-07-04T04:57:10Z</time>
				<extensions>
				</extensions>
			</trkpt>
			<trkpt lat="-28.435069" lon="153.283834">
				<ele>46.545</ele>
				<time>2015-07-04T04:57:11Z</time>
				<extensions>
				</extensions>
			</trkpt>
			<trkpt lat="-28.434989" lon="153.284051">
				<ele>47.617</ele>
				<time>2015-07-04T04:57:12Z</time>
				<extensions>
				</extensions>
			</trkpt>
			<trkpt lat="-28.434924" lon="153.284272">
				<ele>47.760</ele>
				<time>2015-07-04T04:57:13Z</time>
				<extensions>
				</extensions>
			</trkpt>
			<trkpt lat="-28.434869" lon="153.284524">
				<ele>47.440</ele>
				<time>2015-07-04T04:57:14Z</time>
				<extensions>
				</extensions>
			</trkpt>
			<trkpt lat="-28.434801" lon="153.284759">
				<ele>45.905</ele>
				<time>2015-07-04T04:57:15Z</time>
				<extensions>
				</extensions>
			</trkpt>
			<trkpt lat="-28.434717" lon="153.284977">
				<ele>46.025</ele>
				<time>2015-07-04T04:57:16Z</time>
				<extensions>
				</extensions>
			</trkpt>
			<trkpt lat="-28.434614" lon="153.285199">
				<ele>45.967</ele>
				<time>2015-07-04T04:57:17Z</time>
				<extensions>
				</extensions>
			</trkpt>
			<trkpt lat="-28.434483" lon="153.285421">
				<ele>47.069</ele>
				<time>2015-07-04T04:57:18Z</time>
				<extensions>
				</extensions>
			</trkpt>
			<trkpt lat="-28.434359" lon="153.285642">
				<ele>48.317</ele>
				<time>2015-07-04T04:57:19Z</time>
				<extensions>
				</extensions>
			</trkpt>
			<trkpt lat="-28.434239" lon="153.285850">
				<ele>47.626</ele>
				<time>2015-07-04T04:57:20Z</time>
				<extensions>
				</extensions>
			</trkpt>
			<trkpt lat="-28.434124" lon="153.286066">
				<ele>47.434</ele>
				<time>2015-07-04T04:57:21Z</time>
				<extensions>
				</extensions>
			</trkpt>
			<trkpt lat="-28.434013" lon="153.286267">
				<ele>46.473</ele>
				<time>2015-07-04T04:57:22Z</time>
				<extensions>
				</extensions>
			</trkpt>
			<trkpt lat="-28.433901" lon="153.286468">
				<ele>45.662</ele>
				<time>2015-07-04T04:57:23Z</time>
				<extensions>
				</extensions>
			</trkpt>
			<trkpt lat="-28.433800" lon="153.286658">
				<ele>44.332</ele>
				<time>2015-07-04T04:57:24Z</time>
				<extensions>
				</extensions>
			</trkpt>
			<trkpt lat="-28.433700" lon="153.286858">
				<ele>45.542</ele>
				<time>2015-07-04T04:57:25Z</time>
				<extensions>
				</extensions>
			</trkpt>
			<trkpt lat="-28.433536" lon="153.287226">
				<ele>43.225</ele>
				<time>2015-07-04T04:57:27Z</time>
				<extensions>
				</extensions>
			</trkpt>
			<trkpt lat="-28.433454" lon="153.287414">
				<ele>42.911</ele>
				<time>2015-07-04T04:57:28Z</time>
				<extensions>
				</extensions>
			</trkpt>
			<trkpt lat="-28.433383" lon="153.287607">
				<ele>42.883</ele>
				<time>2015-07-04T04:57:29Z</time>
				<extensions>
				</extensions>
			</trkpt>
			<trkpt lat="-28.433282" lon="153.287986">
				<ele>41.122</ele>
				<time>2015-07-04T04:57:31Z</time>
				<extensions>
				</extensions>
			</trkpt>
			<trkpt lat="-28.433256" lon="153.288191">
				<ele>40.469</ele>
				<time>2015-07-04T04:57:32Z</time>
				<extensions>
				</extensions>
			</trkpt>
			<trkpt lat="-28.433228" lon="153.288583">
				<ele>41.192</ele>
				<time>2015-07-04T04:57:34Z</time>
				<extensions>
				</extensions>
			</trkpt>
			<trkpt lat="-28.433234" lon="153.288791">
				<ele>40.923</ele>
				<time>2015-07-04T04:57:35Z</time>
				<extensions>
				</extensions>
			</trkpt>
			<trkpt lat="-28.433260" lon="153.289003">
				<ele>40.026</ele>
				<time>2015-07-04T04:57:36Z</time>
				<extensions>
				</extensions>
			</trkpt>
			<trkpt lat="-28.433301" lon="153.289209">
				<ele>39.814</ele>
				<time>2015-07-04T04:57:37Z</time>
				<extensions>
				</extensions>
			</trkpt>
			<trkpt lat="-28.433358" lon="153.289419">
				<ele>38.809</ele>
				<time>2015-07-04T04:57:38Z</time>
				<extensions>
				</extensions>
			</trkpt>
			<trkpt lat="-28.433469" lon="153.289807">
				<ele>36.689</ele>
				<time>2015-07-04T04:57:40Z</time>
				<extensions>
				</extensions>
			</trkpt>
			<trkpt lat="-28.433562" lon="153.290188">
				<ele>34.922</ele>
				<time>2015-07-04T04:57:42Z</time>
				<extensions>
				</extensions>
			</trkpt>
			<trkpt lat="-28.433673" lon="153.290560">
				<ele>34.701</ele>
				<time>2015-07-04T04:57:44Z</time>
				<extensions>
				</extensions>
			</trkpt>
			<trkpt lat="-28.433782" lon="153.290938">
				<ele>35.131</ele>
				<time>2015-07-04T04:57:46Z</time>
				<extensions>
				</extensions>
			</trkpt>
			<trkpt lat="-28.433874" lon="153.291312">
				<ele>35.432</ele>
				<time>2015-07-04T04:57:48Z</time>
				<extensions>
				</extensions>
			</trkpt>
			<trkpt lat="-28.433982" lon="153.291680">
				<ele>35.727</ele>
				<time>2015-07-04T04:57:50Z</time>
				<extensions>
				</extensions>
			</trkpt>
			<trkpt lat="-28.434025" lon="153.292019">
				<ele>35.986</ele>
				<time>2015-07-04T04:57:52Z</time>
				<extensions>
				</extensions>
			</trkpt>
			<trkpt lat="-28.434050" lon="153.292345">
				<ele>36.066</ele>
				<time>2015-07-04T04:57:54Z</time>
				<extensions>
				</extensions>
			</trkpt>
			<trkpt lat="-28.434044" lon="153.292673">
				<ele>36.000</ele>
				<time>2015-07-04T04:57:56Z</time>
				<extensions>
				</extensions>
			</trkpt>
			<trkpt lat="-28.434023" lon="153.293005">
				<ele>36.068</ele>
				<time>2015-07-04T04:57:58Z</time>
				<extensions>
				</extensions>
			</trkpt>
			<trkpt lat="-28.433994" lon="153.293343">
				<ele>36.578</ele>
				<time>2015-07-04T04:58:00Z</time>
				<extensions>
				</extensions>
			</trkpt>
			<trkpt lat="-28.433986" lon="153.293697">
				<ele>36.634</ele>
				<time>2015-07-04T04:58:02Z</time>
				<extensions>
				</extensions>
			</trkpt>
			<trkpt lat="-28.434000" lon="153.294043">
				<ele>36.786</ele>
				<time>2015-07-04T04:58:04Z</time>
				<extensions>
				</extensions>
			</trkpt>
			<trkpt lat="-28.434038" lon="153.294402">
				<ele>37.169</ele>
				<time>2015-07-04T04:58:06Z</time>
				<extensions>
				</extensions>
			</trkpt>
			<trkpt lat="-28.434079" lon="153.294734">
				<ele>36.527</ele>
				<time>2015-07-04T04:58:08Z</time>
				<extensions>
				</extensions>
			</trkpt>
			<trkpt lat="-28.434034" lon="153.295072">
				<ele>36.133</ele>
				<time>2015-07-04T04:58:10Z</time>
				<extensions>
				</extensions>
			</trkpt>
			<trkpt lat="-28.433954" lon="153.295401">
				<ele>36.409</ele>
				<time>2015-07-04T04:58:12Z</time>
				<extensions>
				</extensions>
			</trkpt>
			<trkpt lat="-28.433856" lon="153.295768">
				<ele>38.419</ele>
				<time>2015-07-04T04:58:14Z</time>
				<extensions>
				</extensions>
			</trkpt>
			<trkpt lat="-28.433817" lon="153.296143">
				<ele>38.667</ele>
				<time>2015-07-04T04:58:16Z</time>
				<extensions>
				</extensions>
			</trkpt>
			<trkpt lat="-28.433777" lon="153.296533">
				<ele>38.210</ele>
				<time>2015-07-04T04:58:18Z</time>
				<extensions>
				</extensions>
			</trkpt>
			<trkpt lat="-28.433707" lon="153.296873">
				<ele>37.943</ele>
				<time>2015-07-04T04:58:20Z</time>
				<extensions>
				</extensions>
			</trkpt>
			<trkpt lat="-28.433634" lon="153.297212">
				<ele>38.027</ele>
				<time>2015-07-04T04:58:22Z</time>
				<extensions>
				</extensions>
			</trkpt>
			<trkpt lat="-28.433601" lon="153.297566">
				<ele>37.634</ele>
				<time>2015-07-04T04:58:24Z</time>
				<extensions>
				</extensions>
			</trkpt>
			<trkpt lat="-28.433594" lon="153.297902">
				<ele>37.110</ele>
				<time>2015-07-04T04:58:26Z</time>
				<extensions>
				</extensions>
			</trkpt>
			<trkpt lat="-28.433548" lon="153.298223">
				<ele>35.901</ele>
				<time>2015-07-04T04:58:28Z</time>
				<extensions>
				</extensions>
			</trkpt>
			<trkpt lat="-28.433421" lon="153.298499">
				<ele>35.963</ele>
				<time>2015-07-04T04:58:30Z</time>
				<extensions>
				</extensions>
			</trkpt>
			<trkpt lat="-28.433292" lon="153.298648">
				<ele>36.010</ele>
				<time>2015-07-04T04:58:31Z</time>
				<extensions>
				</extensions>
			</trkpt>
			<trkpt lat="-28.433050" lon="153.298888">
				<ele>37.541</ele>
				<time>2015-07-04T04:58:33Z</time>
				<extensions>
				</extensions>
			</trkpt>
			<trkpt lat="-28.432877" lon="153.299173">
				<ele>36.905</ele>
				<time>2015-07-04T04:58:35Z</time>
				<extensions>
				</extensions>
			</trkpt>
			<trkpt lat="-28.432791" lon="153.299526">
				<ele>37.643</ele>
				<time>2015-07-04T04:58:37Z</time>
				<extensions>
				</extensions>
			</trkpt>
			<trkpt lat="-28.432701" lon="153.299903">
				<ele>36.353</ele>
				<time>2015-07-04T04:58:39Z</time>
				<extensions>
				</extensions>
			</trkpt>
			<trkpt lat="-28.432567" lon="153.300251">
				<ele>35.356</ele>
				<time>2015-07-04T04:58:41Z</time>
				<extensions>
				</extensions>
			</trkpt>
			<trkpt lat="-28.432389" lon="153.300521">
				<ele>35.302</ele>
				<time>2015-07-04T04:58:43Z</time>
				<extensions>
				</extensions>
			</trkpt>
			<trkpt lat="-28.432217" lon="153.300615">
				<ele>35.479</ele>
				<time>2015-07-04T04:58:44Z</time>
				<extensions>
				</extensions>
			</trkpt>
			<trkpt lat="-28.432052" lon="153.300724">
				<ele>35.447</ele>
				<time>2015-07-04T04:58:45Z</time>
				<extensions>
				</extensions>
			</trkpt>
			<trkpt lat="-28.431847" lon="153.300785">
				<ele>34.708</ele>
				<time>2015-07-04T04:58:46Z</time>
				<extensions>
				</extensions>
			</trkpt>
			<trkpt lat="-28.431669" lon="153.300847">
				<ele>34.395</ele>
				<time>2015-07-04T04:58:47Z</time>
				<extensions>
				</extensions>
			</trkpt>
			<trkpt lat="-28.431331" lon="153.300956">
				<ele>32.757</ele>
				<time>2015-07-04T04:58:49Z</time>
				<extensions>
				</extensions>
			</trkpt>
			<trkpt lat="-28.431020" lon="153.301075">
				<ele>32.326</ele>
				<time>2015-07-04T04:58:51Z</time>
				<extensions>
				</extensions>
			</trkpt>
			<trkpt lat="-28.430784" lon="153.301262">
				<ele>32.741</ele>
				<time>2015-07-04T04:58:53Z</time>
				<extensions>
				</extensions>
			</trkpt>
			<trkpt lat="-28.430556" lon="153.301537">
				<ele>33.912</ele>
				<time>2015-07-04T04:58:55Z</time>
				<extensions>
				</extensions>
			</trkpt>
			<trkpt lat="-28.430305" lon="153.301791">
				<ele>31.953</ele>
				<time>2015-07-04T04:58:57Z</time>
				<extensions>
				</extensions>
			</trkpt>
			<trkpt lat="-28.430031" lon="153.301970">
				<ele>32.025</ele>
				<time>2015-07-04T04:58:59Z</time>
				<extensions>
				</extensions>
			</trkpt>
			<trkpt lat="-28.429722" lon="153.302127">
				<ele>32.968</ele>
				<time>2015-07-04T04:59:01Z</time>
				<extensions>
				</extensions>
			</trkpt>
			<trkpt lat="-28.429486" lon="153.302427">
				<ele>33.260</ele>
				<time>2015-07-04T04:59:03Z</time>
				<extensions>
				</extensions>
			</trkpt>
			<trkpt lat="-28.429344" lon="153.302580">
				<ele>32.091</ele>
				<time>2015-07-04T04:59:04Z</time>
				<extensions>
				</extensions>
			</trkpt>
			<trkpt lat="-28.429207" lon="153.302722">
				<ele>31.978</ele>
				<time>2015-07-04T04:59:05Z</time>
				<extensions>
				</extensions>
			</trkpt>
			<trkpt lat="-28.429075" lon="153.302864">
				<ele>31.770</ele>
				<time>2015-07-04T04:59:06Z</time>
				<extensions>
				</extensions>
			</trkpt>
			<trkpt lat="-28.428831" lon="153.303113">
				<ele>30.702</ele>
				<time>2015-07-04T04:59:08Z</time>
				<extensions>
				</extensions>
			</trkpt>
			<trkpt lat="-28.428567" lon="153.303258">
				<ele>30.034</ele>
				<time>2015-07-04T04:59:10Z</time>
				<extensions>
				</extensions>
			</trkpt>
			<trkpt lat="-28.428349" lon="153.303393">
				<ele>30.705</ele>
				<time>2015-07-04T04:59:12Z</time>
				<extensions>
				</extensions>
			</trkpt>
			<trkpt lat="-28.428147" lon="153.303657">
				<ele>31.797</ele>
				<time>2015-07-04T04:59:14Z</time>
				<extensions>
				</extensions>
			</trkpt>
			<trkpt lat="-28.428002" lon="153.303965">
				<ele>30.994</ele>
				<time>2015-07-04T04:59:16Z</time>
				<extensions>
				</extensions>
			</trkpt>
			<trkpt lat="-28.427974" lon="153.304324">
				<ele>30.945</ele>
				<time>2015-07-04T04:59:18Z</time>
				<extensions>
				</extensions>
			</trkpt>
			<trkpt lat="-28.428033" lon="153.304724">
				<ele>31.265</ele>
				<time>2015-07-04T04:59:20Z</time>
				<extensions>
				</extensions>
			</trkpt>
			<trkpt lat="-28.428052" lon="153.304932">
				<ele>31.194</ele>
				<time>2015-07-04T04:59:21Z</time>
				<extensions>
				</extensions>
			</trkpt>
			<trkpt lat="-28.428093" lon="153.305154">
				<ele>31.534</ele>
				<time>2015-07-04T04:59:22Z</time>
				<extensions>
				</extensions>
			</trkpt>
			<trkpt lat="-28.428121" lon="153.305358">
				<ele>32.087</ele>
				<time>2015-07-04T04:59:23Z</time>
				<extensions>
				</extensions>
			</trkpt>
			<trkpt lat="-28.428158" lon="153.305566">
				<ele>31.333</ele>
				<time>2015-07-04T04:59:24Z</time>
				<extensions>
				</extensions>
			</trkpt>
			<trkpt lat="-28.428207" lon="153.305767">
				<ele>32.465</ele>
				<time>2015-07-04T04:59:25Z</time>
				<extensions>
				</extensions>
			</trkpt>
			<trkpt lat="-28.428277" lon="153.305958">
				<ele>32.549</ele>
				<time>2015-07-04T04:59:26Z</time>
				<extensions>
				</extensions>
			</trkpt>
			<trkpt lat="-28.428359" lon="153.306145">
				<ele>32.352</ele>
				<time>2015-07-04T04:59:27Z</time>
				<extensions>
				</extensions>
			</trkpt>
			<trkpt lat="-28.428453" lon="153.306321">
				<ele>32.779</ele>
				<time>2015-07-04T04:59:28Z</time>
				<extensions>
				</extensions>
			</trkpt>
			<trkpt lat="-28.428565" lon="153.306494">
				<ele>32.539</ele>
				<time>2015-07-04T04:59:29Z</time>
				<extensions>
				</extensions>
			</trkpt>
			<trkpt lat="-28.428696" lon="153.306664">
				<ele>32.149</ele>
				<time>2015-07-04T04:59:30Z</time>
				<extensions>
				</extensions>
			</trkpt>
			<trkpt lat="-28.428841" lon="153.306802">
				<ele>31.892</ele>
				<time>2015-07-04T04:59:31Z</time>
				<extensions>
				</extensions>
			</trkpt>
			<trkpt lat="-28.428998" lon="153.306938">
				<ele>31.344</ele>
				<time>2015-07-04T04:59:32Z</time>
				<extensions>
				</extensions>
			</trkpt>
			<trkpt lat="-28.429157" lon="153.307076">
				<ele>29.846</ele>
				<time>2015-07-04T04:59:33Z</time>
				<extensions>
				</extensions>
			</trkpt>
			<trkpt lat="-28.429313" lon="153.307187">
				<ele>28.674</ele>
				<time>2015-07-04T04:59:34Z</time>
				<extensions>
				</extensions>
			</trkpt>
			<trkpt lat="-28.429480" lon="153.307297">
				<ele>28.109</ele>
				<time>2015-07-04T04:59:35Z</time>
				<extensions>
				</extensions>
			</trkpt>
			<trkpt lat="-28.429655" lon="153.307429">
				<ele>28.228</ele>
				<time>2015-07-04T04:59:36Z</time>
				<extensions>
				</extensions>
			</trkpt>
			<trkpt lat="-28.429824" lon="153.307574">
				<ele>26.986</ele>
				<time>2015-07-04T04:59:37Z</time>
				<extensions>
				</extensions>
			</trkpt>
			<trkpt lat="-28.429994" lon="153.307703">
				<ele>26.701</ele>
				<time>2015-07-04T04:59:38Z</time>
				<extensions>
				</extensions>
			</trkpt>
			<trkpt lat="-28.430164" lon="153.307830">
				<ele>26.315</ele>
				<time>2015-07-04T04:59:39Z</time>
				<extensions>
				</extensions>
			</trkpt>
			<trkpt lat="-28.430332" lon="153.307947">
				<ele>26.157</ele>
				<time>2015-07-04T04:59:40Z</time>
				<extensions>
				</extensions>
			</trkpt>
			<trkpt lat="-28.430489" lon="153.308056">
				<ele>27.200</ele>
				<time>2015-07-04T04:59:41Z</time>
				<extensions>
				</extensions>
			</trkpt>
			<trkpt lat="-28.430634" lon="153.308196">
				<ele>27.654</ele>
				<time>2015-07-04T04:59:42Z</time>
				<extensions>
				</extensions>
			</trkpt>
			<trkpt lat="-28.430774" lon="153.308353">
				<ele>27.112</ele>
				<time>2015-07-04T04:59:43Z</time>
				<extensions>
				</extensions>
			</trkpt>
			<trkpt lat="-28.430906" lon="153.308512">
				<ele>27.749</ele>
				<time>2015-07-04T04:59:44Z</time>
				<extensions>
				</extensions>
			</trkpt>
			<trkpt lat="-28.431144" lon="153.308825">
				<ele>27.480</ele>
				<time>2015-07-04T04:59:46Z</time>
				<extensions>
				</extensions>
			</trkpt>
			<trkpt lat="-28.431352" lon="153.309122">
				<ele>26.669</ele>
				<time>2015-07-04T04:59:48Z</time>
				<extensions>
				</extensions>
			</trkpt>
			<trkpt lat="-28.431466" lon="153.309467">
				<ele>25.423</ele>
				<time>2015-07-04T04:59:50Z</time>
				<extensions>
				</extensions>
			</trkpt>
			<trkpt lat="-28.431504" lon="153.309815">
				<ele>26.937</ele>
				<time>2015-07-04T04:59:52Z</time>
				<extensions>
				</extensions>
			</trkpt>
			<trkpt lat="-28.431484" lon="153.310022">
				<ele>26.685</ele>
				<time>2015-07-04T04:59:53Z</time>
				<extensions>
				</extensions>
			</trkpt>
			<trkpt lat="-28.431400" lon="153.310373">
				<ele>27.475</ele>
				<time>2015-07-04T04:59:55Z</time>
				<extensions>
				</extensions>
			</trkpt>
			<trkpt lat="-28.431305" lon="153.310551">
				<ele>27.910</ele>
				<time>2015-07-04T04:59:56Z</time>
				<extensions>
				</extensions>
			</trkpt>
			<trkpt lat="-28.431056" lon="153.310873">
				<ele>27.063</ele>
				<time>2015-07-04T04:59:58Z</time>
				<extensions>
				</extensions>
			</trkpt>
			<trkpt lat="-28.430921" lon="153.311011">
				<ele>27.302</ele>
				<time>2015-07-04T04:59:59Z</time>
				<extensions>
				</extensions>
			</trkpt>
			<trkpt lat="-28.430769" lon="153.311142">
				<ele>27.868</ele>
				<time>2015-07-04T05:00:00Z</time>
				<extensions>
				</extensions>
			</trkpt>
			<trkpt lat="-28.430618" lon="153.311273">
				<ele>27.406</ele>
				<time>2015-07-04T05:00:01Z</time>
				<extensions>
				</extensions>
			</trkpt>
			<trkpt lat="-28.430473" lon="153.311400">
				<ele>27.306</ele>
				<time>2015-07-04T05:00:02Z</time>
				<extensions>
				</extensions>
			</trkpt>
			<trkpt lat="-28.430210" lon="153.311693">
				<ele>27.831</ele>
				<time>2015-07-04T05:00:04Z</time>
				<extensions>
				</extensions>
			</trkpt>
			<trkpt lat="-28.430068" lon="153.311864">
				<ele>28.704</ele>
				<time>2015-07-04T05:00:05Z</time>
				<extensions>
				</extensions>
			</trkpt>
			<trkpt lat="-28.429938" lon="153.312043">
				<ele>28.400</ele>
				<time>2015-07-04T05:00:06Z</time>
				<extensions>
				</extensions>
			</trkpt>
			<trkpt lat="-28.429819" lon="153.312239">
				<ele>27.940</ele>
				<time>2015-07-04T05:00:07Z</time>
				<extensions>
				</extensions>
			</trkpt>
			<trkpt lat="-28.429702" lon="153.312441">
				<ele>27.918</ele>
				<time>2015-07-04T05:00:08Z</time>
				<extensions>
				</extensions>
			</trkpt>
			<trkpt lat="-28.429597" lon="153.312646">
				<ele>27.518</ele>
				<time>2015-07-04T05:00:09Z</time>
				<extensions>
				</extensions>
			</trkpt>
			<trkpt lat="-28.429500" lon="153.312854">
				<ele>26.558</ele>
				<time>2015-07-04T05:00:10Z</time>
				<extensions>
				</extensions>
			</trkpt>
			<trkpt lat="-28.429418" lon="153.313060">
				<ele>25.810</ele>
				<time>2015-07-04T05:00:11Z</time>
				<extensions>
				</extensions>
			</trkpt>
			<trkpt lat="-28.429350" lon="153.313276">
				<ele>25.633</ele>
				<time>2015-07-04T05:00:12Z</time>
				<extensions>
				</extensions>
			</trkpt>
			<trkpt lat="-28.429301" lon="153.313509">
				<ele>25.784</ele>
				<time>2015-07-04T05:00:13Z</time>
				<extensions>
				</extensions>
			</trkpt>
			<trkpt lat="-28.429257" lon="153.313731">
				<ele>26.087</ele>
				<time>2015-07-04T05:00:14Z</time>
				<extensions>
				</extensions>
			</trkpt>
			<trkpt lat="-28.429213" lon="153.313959">
				<ele>26.176</ele>
				<time>2015-07-04T05:00:15Z</time>
				<extensions>
				</extensions>
			</trkpt>
			<trkpt lat="-28.429151" lon="153.314177">
				<ele>27.181</ele>
				<time>2015-07-04T05:00:16Z</time>
				<extensions>
				</extensions>
			</trkpt>
			<trkpt lat="-28.429100" lon="153.314390">
				<ele>26.740</ele>
				<time>2015-07-04T05:00:17Z</time>
				<extensions>
				</extensions>
			</trkpt>
			<trkpt lat="-28.429040" lon="153.314611">
				<ele>25.917</ele>
				<time>2015-07-04T05:00:18Z</time>
				<extensions>
				</extensions>
			</trkpt>
			<trkpt lat="-28.428994" lon="153.314824">
				<ele>25.718</ele>
				<time>2015-07-04T05:00:19Z</time>
				<extensions>
				</extensions>
			</trkpt>
			<trkpt lat="-28.428946" lon="153.315035">
				<ele>24.037</ele>
				<time>2015-07-04T05:00:20Z</time>
				<extensions>
				</extensions>
			</trkpt>
			<trkpt lat="-28.428892" lon="153.315234">
				<ele>23.969</ele>
				<time>2015-07-04T05:00:21Z</time>
				<extensions>
				</extensions>
			</trkpt>
			<trkpt lat="-28.428837" lon="153.315444">
				<ele>23.808</ele>
				<time>2015-07-04T05:00:22Z</time>
				<extensions>
				</extensions>
			</trkpt>
			<trkpt lat="-28.428788" lon="153.315648">
				<ele>22.835</ele>
				<time>2015-07-04T05:00:23Z</time>
				<extensions>
				</extensions>
			</trkpt>
			<trkpt lat="-28.428739" lon="153.315852">
				<ele>22.822</ele>
				<time>2015-07-04T05:00:24Z</time>
				<extensions>
				</extensions>
			</trkpt>
			<trkpt lat="-28.428687" lon="153.316055">
				<ele>23.279</ele>
				<time>2015-07-04T05:00:25Z</time>
				<extensions>
				</extensions>
			</trkpt>
			<trkpt lat="-28.428630" lon="153.316260">
				<ele>22.917</ele>
				<time>2015-07-04T05:00:26Z</time>
				<extensions>
				</extensions>
			</trkpt>
			<trkpt lat="-28.428553" lon="153.316459">
				<ele>22.753</ele>
				<time>2015-07-04T05:00:27Z</time>
				<extensions>
				</extensions>
			</trkpt>
			<trkpt lat="-28.428470" lon="153.316647">
				<ele>22.367</ele>
				<time>2015-07-04T05:00:28Z</time>
				<extensions>
				</extensions>
			</trkpt>
			<trkpt lat="-28.428375" lon="153.316822">
				<ele>22.367</ele>
				<time>2015-07-04T05:00:29Z</time>
				<extensions>
				</extensions>
			</trkpt>
			<trkpt lat="-28.428136" lon="153.317136">
				<ele>23.443</ele>
				<time>2015-07-04T05:00:31Z</time>
				<extensions>
				</extensions>
			</trkpt>
			<trkpt lat="-28.427995" lon="153.317303">
				<ele>24.019</ele>
				<time>2015-07-04T05:00:32Z</time>
				<extensions>
				</extensions>
			</trkpt>
			<trkpt lat="-28.427705" lon="153.317495">
				<ele>26.100</ele>
				<time>2015-07-04T05:00:34Z</time>
				<extensions>
				</extensions>
			</trkpt>
			<trkpt lat="-28.427523" lon="153.317585">
				<ele>27.140</ele>
				<time>2015-07-04T05:00:35Z</time>
				<extensions>
				</extensions>
			</trkpt>
			<trkpt lat="-28.427346" lon="153.317665">
				<ele>27.850</ele>
				<time>2015-07-04T05:00:36Z</time>
				<extensions>
				</extensions>
			</trkpt>
			<trkpt lat="-28.427034" lon="153.317785">
				<ele>29.622</ele>
				<time>2015-07-04T05:00:38Z</time>
				<extensions>
				</extensions>
			</trkpt>
			<trkpt lat="-28.426728" lon="153.317859">
				<ele>29.596</ele>
				<time>2015-07-04T05:00:40Z</time>
				<extensions>
				</extensions>
			</trkpt>
			<trkpt lat="-28.426391" lon="153.317957">
				<ele>31.987</ele>
				<time>2015-07-04T05:00:42Z</time>
				<extensions>
				</extensions>
			</trkpt>
			<trkpt lat="-28.426060" lon="153.318137">
				<ele>32.912</ele>
				<time>2015-07-04T05:00:44Z</time>
				<extensions>
				</extensions>
			</trkpt>
			<trkpt lat="-28.425894" lon="153.318225">
				<ele>32.890</ele>
				<time>2015-07-04T05:00:45Z</time>
				<extensions>
				</extensions>
			</trkpt>
			<trkpt lat="-28.425728" lon="153.318310">
				<ele>32.780</ele>
				<time>2015-07-04T05:00:46Z</time>
				<extensions>
				</extensions>
			</trkpt>
			<trkpt lat="-28.425556" lon="153.318398">
				<ele>32.730</ele>
				<time>2015-07-04T05:00:47Z</time>
				<extensions>
				</extensions>
			</trkpt>
			<trkpt lat="-28.425212" lon="153.318573">
				<ele>31.635</ele>
				<time>2015-07-04T05:00:49Z</time>
				<extensions>
				</extensions>
			</trkpt>
			<trkpt lat="-28.425029" lon="153.318671">
				<ele>31.724</ele>
				<time>2015-07-04T05:00:50Z</time>
				<extensions>
				</extensions>
			</trkpt>
			<trkpt lat="-28.424846" lon="153.318776">
				<ele>31.839</ele>
				<time>2015-07-04T05:00:51Z</time>
				<extensions>
				</extensions>
			</trkpt>
			<trkpt lat="-28.424673" lon="153.318873">
				<ele>31.896</ele>
				<time>2015-07-04T05:00:52Z</time>
				<extensions>
				</extensions>
			</trkpt>
			<trkpt lat="-28.424488" lon="153.318998">
				<ele>30.655</ele>
				<time>2015-07-04T05:00:53Z</time>
				<extensions>
				</extensions>
			</trkpt>
			<trkpt lat="-28.424319" lon="153.319128">
				<ele>29.981</ele>
				<time>2015-07-04T05:00:54Z</time>
				<extensions>
				</extensions>
			</trkpt>
			<trkpt lat="-28.424153" lon="153.319265">
				<ele>29.783</ele>
				<time>2015-07-04T05:00:55Z</time>
				<extensions>
				</extensions>
			</trkpt>
			<trkpt lat="-28.423993" lon="153.319410">
				<ele>28.229</ele>
				<time>2015-07-04T05:00:56Z</time>
				<extensions>
				</extensions>
			</trkpt>
			<trkpt lat="-28.423844" lon="153.319569">
				<ele>26.690</ele>
				<time>2015-07-04T05:00:57Z</time>
				<extensions>
				</extensions>
			</trkpt>
			<trkpt lat="-28.423697" lon="153.319733">
				<ele>25.430</ele>
				<time>2015-07-04T05:00:58Z</time>
				<extensions>
				</extensions>
			</trkpt>
			<trkpt lat="-28.423559" lon="153.319899">
				<ele>24.304</ele>
				<time>2015-07-04T05:00:59Z</time>
				<extensions>
				</extensions>
			</trkpt>
			<trkpt lat="-28.423427" lon="153.320067">
				<ele>23.562</ele>
				<time>2015-07-04T05:01:00Z</time>
				<extensions>
				</extensions>
			</trkpt>
			<trkpt lat="-28.423290" lon="153.320245">
				<ele>23.583</ele>
				<time>2015-07-04T05:01:01Z</time>
				<extensions>
				</extensions>
			</trkpt>
			<trkpt lat="-28.423160" lon="153.320416">
				<ele>22.937</ele>
				<time>2015-07-04T05:01:02Z</time>
				<extensions>
				</extensions>
			</trkpt>
			<trkpt lat="-28.423032" lon="153.320588">
				<ele>23.388</ele>
				<time>2015-07-04T05:01:03Z</time>
				<extensions>
				</extensions>
			</trkpt>
			<trkpt lat="-28.422907" lon="153.320767">
				<ele>23.681</ele>
				<time>2015-07-04T05:01:04Z</time>
				<extensions>
				</extensions>
			</trkpt>
			<trkpt lat="-28.422791" lon="153.320942">
				<ele>23.961</ele>
				<time>2015-07-04T05:01:05Z</time>
				<extensions>
				</extensions>
			</trkpt>
			<trkpt lat="-28.422680" lon="153.321118">
				<ele>23.650</ele>
				<time>2015-07-04T05:01:06Z</time>
				<extensions>
				</extensions>
			</trkpt>
			<trkpt lat="-28.422573" lon="153.321287">
				<ele>21.942</ele>
				<time>2015-07-04T05:01:07Z</time>
				<extensions>
				</extensions>
			</trkpt>
			<trkpt lat="-28.422459" lon="153.321461">
				<ele>21.231</ele>
				<time>2015-07-04T05:01:08Z</time>
				<extensions>
				</extensions>
			</trkpt>
			<trkpt lat="-28.422344" lon="153.321638">
				<ele>21.162</ele>
				<time>2015-07-04T05:01:09Z</time>
				<extensions>
				</extensions>
			</trkpt>
			<trkpt lat="-28.422112" lon="153.321937">
				<ele>20.521</ele>
				<time>2015-07-04T05:01:11Z</time>
				<extensions>
				</extensions>
			</trkpt>
			<trkpt lat="-28.421844" lon="153.322148">
				<ele>18.497</ele>
				<time>2015-07-04T05:01:13Z</time>
				<extensions>
				</extensions>
			</trkpt>
			<trkpt lat="-28.421554" lon="153.322240">
				<ele>18.514</ele>
				<time>2015-07-04T05:01:15Z</time>
				<extensions>
				</extensions>
			</trkpt>
			<trkpt lat="-28.421272" lon="153.322237">
				<ele>18.049</ele>
				<time>2015-07-04T05:01:17Z</time>
				<extensions>
				</extensions>
			</trkpt>
			<trkpt lat="-28.421003" lon="153.322306">
				<ele>18.491</ele>
				<time>2015-07-04T05:01:19Z</time>
				<extensions>
				</extensions>
			</trkpt>
			<trkpt lat="-28.420743" lon="153.322493">
				<ele>18.474</ele>
				<time>2015-07-04T05:01:21Z</time>
				<extensions>
				</extensions>
			</trkpt>
			<trkpt lat="-28.420450" lon="153.322655">
				<ele>18.644</ele>
				<time>2015-07-04T05:01:23Z</time>
				<extensions>
				</extensions>
			</trkpt>
			<trkpt lat="-28.420125" lon="153.322734">
				<ele>17.702</ele>
				<time>2015-07-04T05:01:25Z</time>
				<extensions>
				</extensions>
			</trkpt>
			<trkpt lat="-28.419807" lon="153.322832">
				<ele>17.909</ele>
				<time>2015-07-04T05:01:27Z</time>
				<extensions>
				</extensions>
			</trkpt>
			<trkpt lat="-28.419639" lon="153.322944">
				<ele>18.708</ele>
				<time>2015-07-04T05:01:28Z</time>
				<extensions>
				</extensions>
			</trkpt>
			<trkpt lat="-28.419383" lon="153.323240">
				<ele>18.464</ele>
				<time>2015-07-04T05:01:30Z</time>
				<extensions>
				</extensions>
			</trkpt>
			<trkpt lat="-28.419251" lon="153.323394">
				<ele>17.070</ele>
				<time>2015-07-04T05:01:31Z</time>
				<extensions>
				</extensions>
			</trkpt>
			<trkpt lat="-28.419121" lon="153.323543">
				<ele>16.412</ele>
				<time>2015-07-04T05:01:32Z</time>
				<extensions>
				</extensions>
			</trkpt>
			<trkpt lat="-28.418987" lon="153.323699">
				<ele>16.256</ele>
				<time>2015-07-04T05:01:33Z</time>
				<extensions>
				</extensions>
			</trkpt>
			<trkpt lat="-28.418855" lon="153.323848">
				<ele>16.358</ele>
				<time>2015-07-04T05:01:34Z</time>
				<extensions>
				</extensions>
			</trkpt>
			<trkpt lat="-28.418710" lon="153.324005">
				<ele>16.866</ele>
				<time>2015-07-04T05:01:35Z</time>
				<extensions>
				</extensions>
			</trkpt>
			<trkpt lat="-28.418563" lon="153.324165">
				<ele>16.478</ele>
				<time>2015-07-04T05:01:36Z</time>
				<extensions>
				</extensions>
			</trkpt>
			<trkpt lat="-28.418419" lon="153.324328">
				<ele>16.141</ele>
				<time>2015-07-04T05:01:37Z</time>
				<extensions>
				</extensions>
			</trkpt>
			<trkpt lat="-28.418287" lon="153.324472">
				<ele>15.501</ele>
				<time>2015-07-04T05:01:38Z</time>
				<extensions>
				</extensions>
			</trkpt>
			<trkpt lat="-28.418139" lon="153.324622">
				<ele>15.488</ele>
				<time>2015-07-04T05:01:39Z</time>
				<extensions>
				</extensions>
			</trkpt>
			<trkpt lat="-28.417900" lon="153.324887">
				<ele>15.474</ele>
				<time>2015-07-04T05:01:41Z</time>
				<extensions>
				</extensions>
			</trkpt>
			<trkpt lat="-28.417767" lon="153.325032">
				<ele>15.057</ele>
				<time>2015-07-04T05:01:42Z</time>
				<extensions>
				</extensions>
			</trkpt>
			<trkpt lat="-28.417504" lon="153.325312">
				<ele>15.353</ele>
				<time>2015-07-04T05:01:44Z</time>
				<extensions>
				</extensions>
			</trkpt>
			<trkpt lat="-28.417252" lon="153.325562">
				<ele>15.179</ele>
				<time>2015-07-04T05:01:46Z</time>
				<extensions>
				</extensions>
			</trkpt>
			<trkpt lat="-28.416991" lon="153.325814">
				<ele>14.522</ele>
				<time>2015-07-04T05:01:48Z</time>
				<extensions>
				</extensions>
			</trkpt>
			<trkpt lat="-28.416745" lon="153.326053">
				<ele>12.765</ele>
				<time>2015-07-04T05:01:50Z</time>
				<extensions>
				</extensions>
			</trkpt>
			<trkpt lat="-28.416535" lon="153.326273">
				<ele>12.614</ele>
				<time>2015-07-04T05:01:52Z</time>
				<extensions>
				</extensions>
			</trkpt>
			<trkpt lat="-28.416341" lon="153.326494">
				<ele>11.701</ele>
				<time>2015-07-04T05:01:54Z</time>
				<extensions>
				</extensions>
			</trkpt>
			<trkpt lat="-28.416161" lon="153.326717">
				<ele>11.366</ele>
				<time>2015-07-04T05:01:56Z</time>
				<extensions>
				</extensions>
			</trkpt>
			<trkpt lat="-28.416011" lon="153.326923">
				<ele>10.760</ele>
				<time>2015-07-04T05:01:58Z</time>
				<extensions>
				</extensions>
			</trkpt>
			<trkpt lat="-28.415868" lon="153.327126">
				<ele>10.238</ele>
				<time>2015-07-04T05:02:00Z</time>
				<extensions>
				</extensions>
			</trkpt>
			<trkpt lat="-28.415721" lon="153.327323">
				<ele>9.309</ele>
				<time>2015-07-04T05:02:02Z</time>
				<extensions>
				</extensions>
			</trkpt>
			<trkpt lat="-28.415578" lon="153.327534">
				<ele>9.506</ele>
				<time>2015-07-04T05:02:04Z</time>
				<extensions>
				</extensions>
			</trkpt>
			<trkpt lat="-28.415450" lon="153.327742">
				<ele>9.403</ele>
				<time>2015-07-04T05:02:06Z</time>
				<extensions>
				</extensions>
			</trkpt>
			<trkpt lat="-28.415310" lon="153.327965">
				<ele>9.147</ele>
				<time>2015-07-04T05:02:08Z</time>
				<extensions>
				</extensions>
			</trkpt>
			<trkpt lat="-28.415179" lon="153.328170">
				<ele>9.030</ele>
				<time>2015-07-04T05:02:10Z</time>
				<extensions>
				</extensions>
			</trkpt>
			<trkpt lat="-28.415050" lon="153.328388">
				<ele>8.994</ele>
				<time>2015-07-04T05:02:12Z</time>
				<extensions>
				</extensions>
			</trkpt>
			<trkpt lat="-28.414919" lon="153.328595">
				<ele>9.190</ele>
				<time>2015-07-04T05:02:14Z</time>
				<extensions>
				</extensions>
			</trkpt>
			<trkpt lat="-28.414789" lon="153.328801">
				<ele>9.397</ele>
				<time>2015-07-04T05:02:16Z</time>
				<extensions>
				</extensions>
			</trkpt>
			<trkpt lat="-28.414677" lon="153.329018">
				<ele>9.956</ele>
				<time>2015-07-04T05:02:18Z</time>
				<extensions>
				</extensions>
			</trkpt>
			<trkpt lat="-28.414576" lon="153.329228">
				<ele>11.159</ele>
				<time>2015-07-04T05:02:20Z</time>
				<extensions>
				</extensions>
			</trkpt>
			<trkpt lat="-28.414494" lon="153.329471">
				<ele>12.193</ele>
				<time>2015-07-04T05:02:22Z</time>
				<extensions>
				</extensions>
			</trkpt>
			<trkpt lat="-28.414449" lon="153.329739">
				<ele>13.549</ele>
				<time>2015-07-04T05:02:24Z</time>
				<extensions>
				</extensions>
			</trkpt>
			<trkpt lat="-28.414463" lon="153.330003">
				<ele>12.946</ele>
				<time>2015-07-04T05:02:26Z</time>
				<extensions>
				</extensions>
			</trkpt>
			<trkpt lat="-28.414509" lon="153.330284">
				<ele>11.391</ele>
				<time>2015-07-04T05:02:28Z</time>
				<extensions>
				</extensions>
			</trkpt>
			<trkpt lat="-28.414548" lon="153.330558">
				<ele>10.999</ele>
				<time>2015-07-04T05:02:30Z</time>
				<extensions>
				</extensions>
			</trkpt>
			<trkpt lat="-28.414569" lon="153.330838">
				<ele>9.936</ele>
				<time>2015-07-04T05:02:32Z</time>
				<extensions>
				</extensions>
			</trkpt>
			<trkpt lat="-28.414611" lon="153.331134">
				<ele>9.724</ele>
				<time>2015-07-04T05:02:34Z</time>
				<extensions>
				</extensions>
			</trkpt>
			<trkpt lat="-28.414625" lon="153.331403">
				<ele>10.179</ele>
				<time>2015-07-04T05:02:36Z</time>
				<extensions>
				</extensions>
			</trkpt>
			<trkpt lat="-28.414563" lon="153.331695">
				<ele>10.302</ele>
				<time>2015-07-04T05:02:38Z</time>
				<extensions>
				</extensions>
			</trkpt>
			<trkpt lat="-28.414523" lon="153.331975">
				<ele>10.801</ele>
				<time>2015-07-04T05:02:40Z</time>
				<extensions>
				</extensions>
			</trkpt>
			<trkpt lat="-28.414457" lon="153.332242">
				<ele>10.627</ele>
				<time>2015-07-04T05:02:42Z</time>
				<extensions>
				</extensions>
			</trkpt>
			<trkpt lat="-28.414385" lon="153.332527">
				<ele>10.957</ele>
				<time>2015-07-04T05:02:44Z</time>
				<extensions>
				</extensions>
			</trkpt>
			<trkpt lat="-28.414318" lon="153.332812">
				<ele>10.629</ele>
				<time>2015-07-04T05:02:46Z</time>
				<extensions>
				</extensions>
			</trkpt>
			<trkpt lat="-28.414252" lon="153.333087">
				<ele>11.001</ele>
				<time>2015-07-04T05:02:48Z</time>
				<extensions>
				</extensions>
			</trkpt>
			<trkpt lat="-28.414189" lon="153.333380">
				<ele>10.864</ele>
				<time>2015-07-04T05:02:50Z</time>
				<extensions>
				</extensions>
			</trkpt>
			<trkpt lat="-28.414157" lon="153.333678">
				<ele>10.551</ele>
				<time>2015-07-04T05:02:52Z</time>
				<extensions>
				</extensions>
			</trkpt>
			<trkpt lat="-28.414127" lon="153.333953">
				<ele>10.087</ele>
				<time>2015-07-04T05:02:54Z</time>
				<extensions>
				</extensions>
			</trkpt>
			<trkpt lat="-28.414093" lon="153.334231">
				<ele>10.950</ele>
				<time>2015-07-04T05:02:56Z</time>
				<extensions>
				</extensions>
			</trkpt>
			<trkpt lat="-28.414046" lon="153.334514">
				<ele>12.267</ele>
				<time>2015-07-04T05:02:58Z</time>
				<extensions>
				</extensions>
			</trkpt>
			<trkpt lat="-28.414006" lon="153.334778">
				<ele>13.051</ele>
				<time>2015-07-04T05:03:00Z</time>
				<extensions>
				</extensions>
			</trkpt>
			<trkpt lat="-28.413971" lon="153.335006">
				<ele>12.536</ele>
				<time>2015-07-04T05:03:02Z</time>
				<extensions>
				</extensions>
			</trkpt>
			<trkpt lat="-28.413922" lon="153.335294">
				<ele>11.983</ele>
				<time>2015-07-04T05:03:05Z</time>
				<extensions>
				</extensions>
			</trkpt>
			<trkpt lat="-28.413886" lon="153.335544">
				<ele>11.550</ele>
				<time>2015-07-04T05:03:08Z</time>
				<extensions>
				</extensions>
			</trkpt>
			<trkpt lat="-28.413883" lon="153.335852">
				<ele>11.762</ele>
				<time>2015-07-04T05:03:11Z</time>
				<extensions>
				</extensions>
			</trkpt>
			<trkpt lat="-28.413840" lon="153.336064">
				<ele>11.583</ele>
				<time>2015-07-04T05:03:13Z</time>
				<extensions>
				</extensions>
			</trkpt>
			<trkpt lat="-28.413819" lon="153.336284">
				<ele>11.265</ele>
				<time>2015-07-04T05:03:15Z</time>
				<extensions>
				</extensions>
			</trkpt>
			<trkpt lat="-28.413757" lon="153.336522">
				<ele>11.273</ele>
				<time>2015-07-04T05:03:17Z</time>
				<extensions>
				</extensions>
			</trkpt>
			<trkpt lat="-28.413657" lon="153.336756">
				<ele>11.942</ele>
				<time>2015-07-04T05:03:19Z</time>
				<extensions>
				</extensions>
			</trkpt>
			<trkpt lat="-28.413514" lon="153.336961">
				<ele>11.965</ele>
				<time>2015-07-04T05:03:21Z</time>
				<extensions>
				</extensions>
			</trkpt>
			<trkpt lat="-28.413365" lon="153.337121">
				<ele>14.128</ele>
				<time>2015-07-04T05:03:23Z</time>
				<extensions>
				</extensions>
			</trkpt>
			<trkpt lat="-28.413233" lon="153.337314">
				<ele>16.124</ele>
				<time>2015-07-04T05:03:25Z</time>
				<extensions>
				</extensions>
			</trkpt>
			<trkpt lat="-28.413142" lon="153.337532">
				<ele>17.633</ele>
				<time>2015-07-04T05:03:27Z</time>
				<extensions>
				</extensions>
			</trkpt>
			<trkpt lat="-28.413053" lon="153.337753">
				<ele>18.581</ele>
				<time>2015-07-04T05:03:29Z</time>
				<extensions>
				</extensions>
			</trkpt>
			<trkpt lat="-28.412895" lon="153.337972">
				<ele>19.194</ele>
				<time>2015-07-04T05:03:31Z</time>
				<extensions>
				</extensions>
			</trkpt>
			<trkpt lat="-28.412751" lon="153.338193">
				<ele>18.181</ele>
				<time>2015-07-04T05:03:33Z</time>
				<extensions>
				</extensions>
			</trkpt>
			<trkpt lat="-28.412584" lon="153.338423">
				<ele>17.709</ele>
				<time>2015-07-04T05:03:35Z</time>
				<extensions>
				</extensions>
			</trkpt>
			<trkpt lat="-28.412408" lon="153.338632">
				<ele>15.722</ele>
				<time>2015-07-04T05:03:37Z</time>
				<extensions>
				</extensions>
			</trkpt>
			<trkpt lat="-28.412205" lon="153.338826">
				<ele>14.408</ele>
				<time>2015-07-04T05:03:39Z</time>
				<extensions>
				</extensions>
			</trkpt>
			<trkpt lat="-28.411977" lon="153.338987">
				<ele>11.986</ele>
				<time>2015-07-04T05:03:41Z</time>
				<extensions>
				</extensions>
			</trkpt>
			<trkpt lat="-28.411747" lon="153.339081">
				<ele>9.687</ele>
				<time>2015-07-04T05:03:43Z</time>
				<extensions>
				</extensions>
			</trkpt>
			<trkpt lat="-28.411483" lon="153.339066">
				<ele>8.578</ele>
				<time>2015-07-04T05:03:45Z</time>
				<extensions>
				</extensions>
			</trkpt>
			<trkpt lat="-28.411203" lon="153.339024">
				<ele>8.567</ele>
				<time>2015-07-04T05:03:47Z</time>
				<extensions>
				</extensions>
			</trkpt>
			<trkpt lat="-28.410913" lon="153.338966">
				<ele>10.063</ele>
				<time>2015-07-04T05:03:49Z</time>
				<extensions>
				</extensions>
			</trkpt>
			<trkpt lat="-28.410594" lon="153.338883">
				<ele>10.017</ele>
				<time>2015-07-04T05:03:51Z</time>
				<extensions>
				</extensions>
			</trkpt>
			<trkpt lat="-28.410280" lon="153.338784">
				<ele>10.139</ele>
				<time>2015-07-04T05:03:53Z</time>
				<extensions>
				</extensions>
			</trkpt>
			<trkpt lat="-28.410000" lon="153.338662">
				<ele>9.757</ele>
				<time>2015-07-04T05:03:55Z</time>
				<extensions>
				</extensions>
			</trkpt>
			<trkpt lat="-28.409753" lon="153.338480">
				<ele>10.165</ele>
				<time>2015-07-04T05:03:57Z</time>
				<extensions>
				</extensions>
			</trkpt>
			<trkpt lat="-28.409491" lon="153.338258">
				<ele>10.685</ele>
				<time>2015-07-04T05:03:59Z</time>
				<extensions>
				</extensions>
			</trkpt>
			<trkpt lat="-28.409227" lon="153.338017">
				<ele>10.959</ele>
				<time>2015-07-04T05:04:01Z</time>
				<extensions>
				</extensions>
			</trkpt>
			<trkpt lat="-28.408995" lon="153.337781">
				<ele>10.832</ele>
				<time>2015-07-04T05:04:03Z</time>
				<extensions>
				</extensions>
			</trkpt>
			<trkpt lat="-28.408736" lon="153.337566">
				<ele>9.847</ele>
				<time>2015-07-04T05:04:05Z</time>
				<extensions>
				</extensions>
			</trkpt>
			<trkpt lat="-28.408472" lon="153.337345">
				<ele>9.483</ele>
				<time>2015-07-04T05:04:07Z</time>
				<extensions>
				</extensions>
			</trkpt>
			<trkpt lat="-28.408211" lon="153.337116">
				<ele>9.767</ele>
				<time>2015-07-04T05:04:09Z</time>
				<extensions>
				</extensions>
			</trkpt>
			<trkpt lat="-28.407932" lon="153.336893">
				<ele>10.518</ele>
				<time>2015-07-04T05:04:11Z</time>
				<extensions>
				</extensions>
			</trkpt>
			<trkpt lat="-28.407634" lon="153.336703">
				<ele>9.746</ele>
				<time>2015-07-04T05:04:13Z</time>
				<extensions>
				</extensions>
			</trkpt>
			<trkpt lat="-28.407468" lon="153.336615">
				<ele>9.567</ele>
				<time>2015-07-04T05:04:14Z</time>
				<extensions>
				</extensions>
			</trkpt>
			<trkpt lat="-28.407306" lon="153.336522">
				<ele>9.206</ele>
				<time>2015-07-04T05:04:15Z</time>
				<extensions>
				</extensions>
			</trkpt>
			<trkpt lat="-28.406968" lon="153.336407">
				<ele>9.170</ele>
				<time>2015-07-04T05:04:17Z</time>
				<extensions>
				</extensions>
			</trkpt>
			<trkpt lat="-28.406630" lon="153.336309">
				<ele>9.309</ele>
				<time>2015-07-04T05:04:19Z</time>
				<extensions>
				</extensions>
			</trkpt>
			<trkpt lat="-28.406253" lon="153.336281">
				<ele>9.823</ele>
				<time>2015-07-04T05:04:21Z</time>
				<extensions>
				</extensions>
			</trkpt>
			<trkpt lat="-28.406067" lon="153.336273">
				<ele>9.370</ele>
				<time>2015-07-04T05:04:22Z</time>
				<extensions>
				</extensions>
			</trkpt>
			<trkpt lat="-28.405881" lon="153.336258">
				<ele>9.370</ele>
				<time>2015-07-04T05:04:23Z</time>
				<extensions>
				</extensions>
			</trkpt>
			<trkpt lat="-28.405526" lon="153.336241">
				<ele>9.917</ele>
				<time>2015-07-04T05:04:25Z</time>
				<extensions>
				</extensions>
			</trkpt>
			<trkpt lat="-28.405346" lon="153.336228">
				<ele>10.453</ele>
				<time>2015-07-04T05:04:26Z</time>
				<extensions>
				</extensions>
			</trkpt>
			<trkpt lat="-28.405154" lon="153.336197">
				<ele>10.000</ele>
				<time>2015-07-04T05:04:27Z</time>
				<extensions>
				</extensions>
			</trkpt>
			<trkpt lat="-28.404962" lon="153.336167">
				<ele>9.501</ele>
				<time>2015-07-04T05:04:28Z</time>
				<extensions>
				</extensions>
			</trkpt>
			<trkpt lat="-28.404609" lon="153.336104">
				<ele>7.523</ele>
				<time>2015-07-04T05:04:30Z</time>
				<extensions>
				</extensions>
			</trkpt>
			<trkpt lat="-28.404253" lon="153.336029">
				<ele>8.286</ele>
				<time>2015-07-04T05:04:32Z</time>
				<extensions>
				</extensions>
			</trkpt>
			<trkpt lat="-28.404062" lon="153.335988">
				<ele>8.276</ele>
				<time>2015-07-04T05:04:33Z</time>
				<extensions>
				</extensions>
			</trkpt>
			<trkpt lat="-28.403724" lon="153.335916">
				<ele>8.297</ele>
				<time>2015-07-04T05:04:35Z</time>
				<extensions>
				</extensions>
			</trkpt>
			<trkpt lat="-28.403387" lon="153.335847">
				<ele>8.347</ele>
				<time>2015-07-04T05:04:37Z</time>
				<extensions>
				</extensions>
			</trkpt>
			<trkpt lat="-28.403069" lon="153.335806">
				<ele>8.243</ele>
				<time>2015-07-04T05:04:39Z</time>
				<extensions>
				</extensions>
			</trkpt>
			<trkpt lat="-28.402751" lon="153.335824">
				<ele>8.452</ele>
				<time>2015-07-04T05:04:41Z</time>
				<extensions>
				</extensions>
			</trkpt>
			<trkpt lat="-28.402413" lon="153.335934">
				<ele>10.532</ele>
				<time>2015-07-04T05:04:43Z</time>
				<extensions>
				</extensions>
			</trkpt>
			<trkpt lat="-28.402242" lon="153.336007">
				<ele>11.967</ele>
				<time>2015-07-04T05:04:44Z</time>
				<extensions>
				</extensions>
			</trkpt>
			<trkpt lat="-28.401890" lon="153.336129">
				<ele>12.354</ele>
				<time>2015-07-04T05:04:46Z</time>
				<extensions>
				</extensions>
			</trkpt>
			<trkpt lat="-28.401547" lon="153.336153">
				<ele>11.847</ele>
				<time>2015-07-04T05:04:48Z</time>
				<extensions>
				</extensions>
			</trkpt>
			<trkpt lat="-28.401211" lon="153.336074">
				<ele>11.941</ele>
				<time>2015-07-04T05:04:50Z</time>
				<extensions>
				</extensions>
			</trkpt>
			<trkpt lat="-28.401039" lon="153.336011">
				<ele>11.400</ele>
				<time>2015-07-04T05:04:51Z</time>
				<extensions>
				</extensions>
			</trkpt>
			<trkpt lat="-28.400724" lon="153.335846">
				<ele>11.517</ele>
				<time>2015-07-04T05:04:53Z</time>
				<extensions>
				</extensions>
			</trkpt>
			<trkpt lat="-28.400405" lon="153.335692">
				<ele>9.934</ele>
				<time>2015-07-04T05:04:55Z</time>
				<extensions>
				</extensions>
			</trkpt>
			<trkpt lat="-28.400083" lon="153.335568">
				<ele>9.344</ele>
				<time>2015-07-04T05:04:57Z</time>
				<extensions>
				</extensions>
			</trkpt>
			<trkpt lat="-28.399755" lon="153.335484">
				<ele>9.638</ele>
				<time>2015-07-04T05:04:59Z</time>
				<extensions>
				</extensions>
			</trkpt>
			<trkpt lat="-28.399422" lon="153.335491">
				<ele>10.180</ele>
				<time>2015-07-04T05:05:01Z</time>
				<extensions>
				</extensions>
			</trkpt>
			<trkpt lat="-28.399136" lon="153.335569">
				<ele>11.114</ele>
				<time>2015-07-04T05:05:03Z</time>
				<extensions>
				</extensions>
			</trkpt>
			<trkpt lat="-28.398829" lon="153.335744">
				<ele>12.678</ele>
				<time>2015-07-04T05:05:05Z</time>
				<extensions>
				</extensions>
			</trkpt>
			<trkpt lat="-28.398667" lon="153.335843">
				<ele>12.967</ele>
				<time>2015-07-04T05:05:06Z</time>
				<extensions>
				</extensions>
			</trkpt>
			<trkpt lat="-28.398502" lon="153.335950">
				<ele>13.211</ele>
				<time>2015-07-04T05:05:07Z</time>
				<extensions>
				</extensions>
			</trkpt>
			<trkpt lat="-28.398351" lon="153.336065">
				<ele>14.199</ele>
				<time>2015-07-04T05:05:08Z</time>
				<extensions>
				</extensions>
			</trkpt>
			<trkpt lat="-28.398028" lon="153.336278">
				<ele>11.712</ele>
				<time>2015-07-04T05:05:10Z</time>
				<extensions>
				</extensions>
			</trkpt>
			<trkpt lat="-28.397717" lon="153.336474">
				<ele>9.296</ele>
				<time>2015-07-04T05:05:12Z</time>
				<extensions>
				</extensions>
			</trkpt>
			<trkpt lat="-28.397555" lon="153.336572">
				<ele>8.903</ele>
				<time>2015-07-04T05:05:13Z</time>
				<extensions>
				</extensions>
			</trkpt>
			<trkpt lat="-28.397392" lon="153.336666">
				<ele>8.364</ele>
				<time>2015-07-04T05:05:14Z</time>
				<extensions>
				</extensions>
			</trkpt>
			<trkpt lat="-28.397223" lon="153.336748">
				<ele>7.296</ele>
				<time>2015-07-04T05:05:15Z</time>
				<extensions>
				</extensions>
			</trkpt>
			<trkpt lat="-28.396907" lon="153.336933">
				<ele>7.347</ele>
				<time>2015-07-04T05:05:17Z</time>
				<extensions>
				</extensions>
			</trkpt>
			<trkpt lat="-28.396588" lon="153.337114">
				<ele>7.125</ele>
				<time>2015-07-04T05:05:19Z</time>
				<extensions>
				</extensions>
			</trkpt>
			<trkpt lat="-28.396263" lon="153.337190">
				<ele>7.219</ele>
				<time>2015-07-04T05:05:21Z</time>
				<extensions>
				</extensions>
			</trkpt>
			<trkpt lat="-28.395917" lon="153.337144">
				<ele>7.780</ele>
				<time>2015-07-04T05:05:23Z</time>
				<extensions>
				</extensions>
			</trkpt>
			<trkpt lat="-28.395622" lon="153.337068">
				<ele>6.955</ele>
				<time>2015-07-04T05:05:25Z</time>
				<extensions>
				</extensions>
			</trkpt>
			<trkpt lat="-28.395334" lon="153.336904">
				<ele>6.146</ele>
				<time>2015-07-04T05:05:27Z</time>
				<extensions>
				</extensions>
			</trkpt>
			<trkpt lat="-28.395074" lon="153.336717">
				<ele>7.066</ele>
				<time>2015-07-04T05:05:29Z</time>
				<extensions>
				</extensions>
			</trkpt>
			<trkpt lat="-28.394858" lon="153.336487">
				<ele>6.545</ele>
				<time>2015-07-04T05:05:31Z</time>
				<extensions>
				</extensions>
			</trkpt>
			<trkpt lat="-28.394722" lon="153.336252">
				<ele>6.359</ele>
				<time>2015-07-04T05:05:33Z</time>
				<extensions>
				</extensions>
			</trkpt>
			<trkpt lat="-28.394654" lon="153.335932">
				<ele>6.972</ele>
				<time>2015-07-04T05:05:35Z</time>
				<extensions>
				</extensions>
			</trkpt>
			<trkpt lat="-28.394577" lon="153.335647">
				<ele>8.170</ele>
				<time>2015-07-04T05:05:37Z</time>
				<extensions>
				</extensions>
			</trkpt>
			<trkpt lat="-28.394481" lon="153.335470">
				<ele>8.183</ele>
				<time>2015-07-04T05:05:38Z</time>
				<extensions>
				</extensions>
			</trkpt>
			<trkpt lat="-28.394240" lon="153.335226">
				<ele>8.772</ele>
				<time>2015-07-04T05:05:40Z</time>
				<extensions>
				</extensions>
			</trkpt>
			<trkpt lat="-28.394031" lon="153.335019">
				<ele>8.695</ele>
				<time>2015-07-04T05:05:42Z</time>
				<extensions>
				</extensions>
			</trkpt>
			<trkpt lat="-28.393842" lon="153.334741">
				<ele>7.691</ele>
				<time>2015-07-04T05:05:44Z</time>
				<extensions>
				</extensions>
			</trkpt>
			<trkpt lat="-28.393630" lon="153.334431">
				<ele>7.326</ele>
				<time>2015-07-04T05:05:46Z</time>
				<extensions>
				</extensions>
			</trkpt>
			<trkpt lat="-28.393416" lon="153.334138">
				<ele>7.327</ele>
				<time>2015-07-04T05:05:48Z</time>
				<extensions>
				</extensions>
			</trkpt>
			<trkpt lat="-28.393205" lon="153.333855">
				<ele>6.868</ele>
				<time>2015-07-04T05:05:50Z</time>
				<extensions>
				</extensions>
			</trkpt>
			<trkpt lat="-28.392995" lon="153.333574">
				<ele>6.616</ele>
				<time>2015-07-04T05:05:52Z</time>
				<extensions>
				</extensions>
			</trkpt>
			<trkpt lat="-28.392770" lon="153.333291">
				<ele>7.192</ele>
				<time>2015-07-04T05:05:54Z</time>
				<extensions>
				</extensions>
			</trkpt>
			<trkpt lat="-28.392533" lon="153.333020">
				<ele>7.594</ele>
				<time>2015-07-04T05:05:56Z</time>
				<extensions>
				</extensions>
			</trkpt>
			<trkpt lat="-28.392279" lon="153.332768">
				<ele>7.810</ele>
				<time>2015-07-04T05:05:58Z</time>
				<extensions>
				</extensions>
			</trkpt>
			<trkpt lat="-28.392132" lon="153.332639">
				<ele>7.727</ele>
				<time>2015-07-04T05:05:59Z</time>
				<extensions>
				</extensions>
			</trkpt>
			<trkpt lat="-28.391980" lon="153.332518">
				<ele>7.687</ele>
				<time>2015-07-04T05:06:00Z</time>
				<extensions>
				</extensions>
			</trkpt>
			<trkpt lat="-28.391825" lon="153.332411">
				<ele>8.019</ele>
				<time>2015-07-04T05:06:01Z</time>
				<extensions>
				</extensions>
			</trkpt>
			<trkpt lat="-28.391664" lon="153.332317">
				<ele>8.371</ele>
				<time>2015-07-04T05:06:02Z</time>
				<extensions>
				</extensions>
			</trkpt>
			<trkpt lat="-28.391328" lon="153.332181">
				<ele>10.113</ele>
				<time>2015-07-04T05:06:04Z</time>
				<extensions>
				</extensions>
			</trkpt>
			<trkpt lat="-28.390946" lon="153.332145">
				<ele>11.412</ele>
				<time>2015-07-04T05:06:06Z</time>
				<extensions>
				</extensions>
			</trkpt>
			<trkpt lat="-28.390747" lon="153.332149">
				<ele>12.623</ele>
				<time>2015-07-04T05:06:07Z</time>
				<extensions>
				</extensions>
			</trkpt>
			<trkpt lat="-28.390547" lon="153.332157">
				<ele>12.857</ele>
				<time>2015-07-04T05:06:08Z</time>
				<extensions>
				</extensions>
			</trkpt>
			<trkpt lat="-28.390349" lon="153.332165">
				<ele>11.022</ele>
				<time>2015-07-04T05:06:09Z</time>
				<extensions>
				</extensions>
			</trkpt>
			<trkpt lat="-28.390157" lon="153.332173">
				<ele>11.037</ele>
				<time>2015-07-04T05:06:10Z</time>
				<extensions>
				</extensions>
			</trkpt>
			<trkpt lat="-28.389965" lon="153.332180">
				<ele>10.819</ele>
				<time>2015-07-04T05:06:11Z</time>
				<extensions>
				</extensions>
			</trkpt>
			<trkpt lat="-28.389604" lon="153.332194">
				<ele>10.892</ele>
				<time>2015-07-04T05:06:13Z</time>
				<extensions>
				</extensions>
			</trkpt>
			<trkpt lat="-28.389234" lon="153.332265">
				<ele>9.918</ele>
				<time>2015-07-04T05:06:15Z</time>
				<extensions>
				</extensions>
			</trkpt>
			<trkpt lat="-28.389053" lon="153.332344">
				<ele>9.876</ele>
				<time>2015-07-04T05:06:16Z</time>
				<extensions>
				</extensions>
			</trkpt>
			<trkpt lat="-28.388878" lon="153.332439">
				<ele>9.828</ele>
				<time>2015-07-04T05:06:17Z</time>
				<extensions>
				</extensions>
			</trkpt>
			<trkpt lat="-28.388718" lon="153.332550">
				<ele>10.466</ele>
				<time>2015-07-04T05:06:18Z</time>
				<extensions>
				</extensions>
			</trkpt>
			<trkpt lat="-28.388561" lon="153.332680">
				<ele>10.389</ele>
				<time>2015-07-04T05:06:19Z</time>
				<extensions>
				</extensions>
			</trkpt>
			<trkpt lat="-28.388432" lon="153.332823">
				<ele>10.068</ele>
				<time>2015-07-04T05:06:20Z</time>
				<extensions>
				</extensions>
			</trkpt>
			<trkpt lat="-28.388227" lon="153.333134">
				<ele>11.013</ele>
				<time>2015-07-04T05:06:22Z</time>
				<extensions>
				</extensions>
			</trkpt>
			<trkpt lat="-28.388130" lon="153.333310">
				<ele>11.666</ele>
				<time>2015-07-04T05:06:23Z</time>
				<extensions>
				</extensions>
			</trkpt>
			<trkpt lat="-28.388003" lon="153.333683">
				<ele>11.226</ele>
				<time>2015-07-04T05:06:25Z</time>
				<extensions>
				</extensions>
			</trkpt>
			<trkpt lat="-28.387856" lon="153.334032">
				<ele>9.802</ele>
				<time>2015-07-04T05:06:27Z</time>
				<extensions>
				</extensions>
			</trkpt>
			<trkpt lat="-28.387639" lon="153.334360">
				<ele>7.586</ele>
				<time>2015-07-04T05:06:29Z</time>
				<extensions>
				</extensions>
			</trkpt>
			<trkpt lat="-28.387512" lon="153.334517">
				<ele>7.100</ele>
				<time>2015-07-04T05:06:30Z</time>
				<extensions>
				</extensions>
			</trkpt>
			<trkpt lat="-28.387374" lon="153.334683">
				<ele>7.681</ele>
				<time>2015-07-04T05:06:31Z</time>
				<extensions>
				</extensions>
			</trkpt>
			<trkpt lat="-28.387231" lon="153.334855">
				<ele>7.259</ele>
				<time>2015-07-04T05:06:32Z</time>
				<extensions>
				</extensions>
			</trkpt>
			<trkpt lat="-28.387086" lon="153.335022">
				<ele>6.067</ele>
				<time>2015-07-04T05:06:33Z</time>
				<extensions>
				</extensions>
			</trkpt>
			<trkpt lat="-28.386945" lon="153.335185">
				<ele>6.498</ele>
				<time>2015-07-04T05:06:34Z</time>
				<extensions>
				</extensions>
			</trkpt>
			<trkpt lat="-28.386814" lon="153.335328">
				<ele>6.247</ele>
				<time>2015-07-04T05:06:35Z</time>
				<extensions>
				</extensions>
			</trkpt>
			<trkpt lat="-28.386682" lon="153.335472">
				<ele>7.209</ele>
				<time>2015-07-04T05:06:36Z</time>
				<extensions>
				</extensions>
			</trkpt>
			<trkpt lat="-28.386429" lon="153.335730">
				<ele>8.832</ele>
				<time>2015-07-04T05:06:38Z</time>
				<extensions>
				</extensions>
			</trkpt>
			<trkpt lat="-28.386181" lon="153.335944">
				<ele>10.373</ele>
				<time>2015-07-04T05:06:40Z</time>
				<extensions>
				</extensions>
			</trkpt>
			<trkpt lat="-28.385925" lon="153.336082">
				<ele>11.313</ele>
				<time>2015-07-04T05:06:42Z</time>
				<extensions>
				</extensions>
			</trkpt>
			<trkpt lat="-28.385647" lon="153.336155">
				<ele>11.196</ele>
				<time>2015-07-04T05:06:44Z</time>
				<extensions>
				</extensions>
			</trkpt>
			<trkpt lat="-28.385320" lon="153.336233">
				<ele>12.624</ele>
				<time>2015-07-04T05:06:46Z</time>
				<extensions>
				</extensions>
			</trkpt>
			<trkpt lat="-28.385008" lon="153.336356">
				<ele>12.597</ele>
				<time>2015-07-04T05:06:48Z</time>
				<extensions>
				</extensions>
			</trkpt>
			<trkpt lat="-28.384840" lon="153.336446">
				<ele>11.731</ele>
				<time>2015-07-04T05:06:49Z</time>
				<extensions>
				</extensions>
			</trkpt>
			<trkpt lat="-28.384676" lon="153.336550">
				<ele>10.768</ele>
				<time>2015-07-04T05:06:50Z</time>
				<extensions>
				</extensions>
			</trkpt>
			<trkpt lat="-28.384359" lon="153.336767">
				<ele>8.429</ele>
				<time>2015-07-04T05:06:52Z</time>
				<extensions>
				</extensions>
			</trkpt>
			<trkpt lat="-28.384201" lon="153.336880">
				<ele>7.584</ele>
				<time>2015-07-04T05:06:53Z</time>
				<extensions>
				</extensions>
			</trkpt>
			<trkpt lat="-28.384047" lon="153.336998">
				<ele>7.063</ele>
				<time>2015-07-04T05:06:54Z</time>
				<extensions>
				</extensions>
			</trkpt>
			<trkpt lat="-28.383757" lon="153.337270">
				<ele>7.556</ele>
				<time>2015-07-04T05:06:56Z</time>
				<extensions>
				</extensions>
			</trkpt>
			<trkpt lat="-28.383638" lon="153.337437">
				<ele>7.843</ele>
				<time>2015-07-04T05:06:57Z</time>
				<extensions>
				</extensions>
			</trkpt>
			<trkpt lat="-28.383551" lon="153.337627">
				<ele>7.667</ele>
				<time>2015-07-04T05:06:58Z</time>
				<extensions>
				</extensions>
			</trkpt>
			<trkpt lat="-28.383443" lon="153.338002">
				<ele>8.951</ele>
				<time>2015-07-04T05:07:00Z</time>
				<extensions>
				</extensions>
			</trkpt>
			<trkpt lat="-28.383398" lon="153.338210">
				<ele>9.765</ele>
				<time>2015-07-04T05:07:01Z</time>
				<extensions>
				</extensions>
			</trkpt>
			<trkpt lat="-28.383361" lon="153.338421">
				<ele>10.222</ele>
				<time>2015-07-04T05:07:02Z</time>
				<extensions>
				</extensions>
			</trkpt>
			<trkpt lat="-28.383324" lon="153.338635">
				<ele>10.222</ele>
				<time>2015-07-04T05:07:03Z</time>
				<extensions>
				</extensions>
			</trkpt>
			<trkpt lat="-28.383292" lon="153.338838">
				<ele>8.474</ele>
				<time>2015-07-04T05:07:04Z</time>
				<extensions>
				</extensions>
			</trkpt>
			<trkpt lat="-28.383227" lon="153.339229">
				<ele>7.368</ele>
				<time>2015-07-04T05:07:06Z</time>
				<extensions>
				</extensions>
			</trkpt>
			<trkpt lat="-28.383110" lon="153.339603">
				<ele>6.040</ele>
				<time>2015-07-04T05:07:08Z</time>
				<extensions>
				</extensions>
			</trkpt>
			<trkpt lat="-28.383027" lon="153.339789">
				<ele>4.126</ele>
				<time>2015-07-04T05:07:09Z</time>
				<extensions>
				</extensions>
			</trkpt>
			<trkpt lat="-28.382834" lon="153.340113">
				<ele>2.979</ele>
				<time>2015-07-04T05:07:11Z</time>
				<extensions>
				</extensions>
			</trkpt>
			<trkpt lat="-28.382586" lon="153.340409">
				<ele>3.878</ele>
				<time>2015-07-04T05:07:13Z</time>
				<extensions>
				</extensions>
			</trkpt>
			<trkpt lat="-28.382453" lon="153.340556">
				<ele>4.401</ele>
				<time>2015-07-04T05:07:14Z</time>
				<extensions>
				</extensions>
			</trkpt>
			<trkpt lat="-28.382313" lon="153.340710">
				<ele>5.126</ele>
				<time>2015-07-04T05:07:15Z</time>
				<extensions>
				</extensions>
			</trkpt>
			<trkpt lat="-28.382217" lon="153.340904">
				<ele>6.201</ele>
				<time>2015-07-04T05:07:16Z</time>
				<extensions>
				</extensions>
			</trkpt>
			<trkpt lat="-28.382066" lon="153.341057">
				<ele>6.611</ele>
				<time>2015-07-04T05:07:17Z</time>
				<extensions>
				</extensions>
			</trkpt>
			<trkpt lat="-28.381919" lon="153.341221">
				<ele>7.969</ele>
				<time>2015-07-04T05:07:18Z</time>
				<extensions>
				</extensions>
			</trkpt>
			<trkpt lat="-28.381789" lon="153.341378">
				<ele>7.824</ele>
				<time>2015-07-04T05:07:19Z</time>
				<extensions>
				</extensions>
			</trkpt>
			<trkpt lat="-28.381653" lon="153.341541">
				<ele>8.336</ele>
				<time>2015-07-04T05:07:20Z</time>
				<extensions>
				</extensions>
			</trkpt>
			<trkpt lat="-28.381532" lon="153.341706">
				<ele>8.730</ele>
				<time>2015-07-04T05:07:21Z</time>
				<extensions>
				</extensions>
			</trkpt>
			<trkpt lat="-28.381412" lon="153.341868">
				<ele>9.940</ele>
				<time>2015-07-04T05:07:22Z</time>
				<extensions>
				</extensions>
			</trkpt>
			<trkpt lat="-28.381288" lon="153.342031">
				<ele>11.320</ele>
				<time>2015-07-04T05:07:23Z</time>
				<extensions>
				</extensions>
			</trkpt>
			<trkpt lat="-28.381168" lon="153.342196">
				<ele>11.575</ele>
				<time>2015-07-04T05:07:24Z</time>
				<extensions>
				</extensions>
			</trkpt>
			<trkpt lat="-28.381045" lon="153.342363">
				<ele>11.038</ele>
				<time>2015-07-04T05:07:25Z</time>
				<extensions>
				</extensions>
			</trkpt>
			<trkpt lat="-28.380926" lon="153.342533">
				<ele>10.361</ele>
				<time>2015-07-04T05:07:26Z</time>
				<extensions>
				</extensions>
			</trkpt>
			<trkpt lat="-28.380800" lon="153.342701">
				<ele>10.292</ele>
				<time>2015-07-04T05:07:27Z</time>
				<extensions>
				</extensions>
			</trkpt>
			<trkpt lat="-28.380673" lon="153.342880">
				<ele>9.958</ele>
				<time>2015-07-04T05:07:28Z</time>
				<extensions>
				</extensions>
			</trkpt>
			<trkpt lat="-28.380546" lon="153.343047">
				<ele>9.758</ele>
				<time>2015-07-04T05:07:29Z</time>
				<extensions>
				</extensions>
			</trkpt>
			<trkpt lat="-28.380412" lon="153.343204">
				<ele>9.124</ele>
				<time>2015-07-04T05:07:30Z</time>
				<extensions>
				</extensions>
			</trkpt>
			<trkpt lat="-28.380277" lon="153.343367">
				<ele>9.475</ele>
				<time>2015-07-04T05:07:31Z</time>
				<extensions>
				</extensions>
			</trkpt>
			<trkpt lat="-28.380132" lon="153.343514">
				<ele>8.857</ele>
				<time>2015-07-04T05:07:32Z</time>
				<extensions>
				</extensions>
			</trkpt>
			<trkpt lat="-28.379974" lon="153.343654">
				<ele>7.582</ele>
				<time>2015-07-04T05:07:33Z</time>
				<extensions>
				</extensions>
			</trkpt>
			<trkpt lat="-28.379815" lon="153.343789">
				<ele>6.515</ele>
				<time>2015-07-04T05:07:34Z</time>
				<extensions>
				</extensions>
			</trkpt>
			<trkpt lat="-28.379643" lon="153.343901">
				<ele>5.528</ele>
				<time>2015-07-04T05:07:35Z</time>
				<extensions>
				</extensions>
			</trkpt>
			<trkpt lat="-28.379314" lon="153.344101">
				<ele>4.265</ele>
				<time>2015-07-04T05:07:37Z</time>
				<extensions>
				</extensions>
			</trkpt>
			<trkpt lat="-28.379142" lon="153.344201">
				<ele>3.794</ele>
				<time>2015-07-04T05:07:38Z</time>
				<extensions>
				</extensions>
			</trkpt>
			<trkpt lat="-28.378978" lon="153.344310">
				<ele>3.718</ele>
				<time>2015-07-04T05:07:39Z</time>
				<extensions>
				</extensions>
			</trkpt>
			<trkpt lat="-28.378690" lon="153.344549">
				<ele>1.949</ele>
				<time>2015-07-04T05:07:41Z</time>
				<extensions>
				</extensions>
			</trkpt>
			<trkpt lat="-28.378452" lon="153.344847">
				<ele>0.893</ele>
				<time>2015-07-04T05:07:43Z</time>
				<extensions>
				</extensions>
			</trkpt>
			<trkpt lat="-28.378357" lon="153.345022">
				<ele>1.700</ele>
				<time>2015-07-04T05:07:44Z</time>
				<extensions>
				</extensions>
			</trkpt>
			<trkpt lat="-28.378279" lon="153.345215">
				<ele>2.824</ele>
				<time>2015-07-04T05:07:45Z</time>
				<extensions>
				</extensions>
			</trkpt>
			<trkpt lat="-28.378174" lon="153.345404">
				<ele>3.513</ele>
				<time>2015-07-04T05:07:46Z</time>
				<extensions>
				</extensions>
			</trkpt>
			<trkpt lat="-28.378107" lon="153.345612">
				<ele>1.955</ele>
				<time>2015-07-04T05:07:47Z</time>
				<extensions>
				</extensions>
			</trkpt>
			<trkpt lat="-28.378032" lon="153.345813">
				<ele>0.840</ele>
				<time>2015-07-04T05:07:48Z</time>
				<extensions>
				</extensions>
			</trkpt>
			<trkpt lat="-28.377859" lon="153.346161">
				<ele>-0.086</ele>
				<time>2015-07-04T05:07:50Z</time>
				<extensions>
				</extensions>
			</trkpt>
			<trkpt lat="-28.377648" lon="153.346453">
				<ele>-0.433</ele>
				<time>2015-07-04T05:07:52Z</time>
				<extensions>
				</extensions>
			</trkpt>
			<trkpt lat="-28.377359" lon="153.346611">
				<ele>0.855</ele>
				<time>2015-07-04T05:07:54Z</time>
				<extensions>
				</extensions>
			</trkpt>
			<trkpt lat="-28.377183" lon="153.346672">
				<ele>1.801</ele>
				<time>2015-07-04T05:07:55Z</time>
				<extensions>
				</extensions>
			</trkpt>
			<trkpt lat="-28.376855" lon="153.346697">
				<ele>3.062</ele>
				<time>2015-07-04T05:07:57Z</time>
				<extensions>
				</extensions>
			</trkpt>
			<trkpt lat="-28.376537" lon="153.346693">
				<ele>3.433</ele>
				<time>2015-07-04T05:07:59Z</time>
				<extensions>
				</extensions>
			</trkpt>
			<trkpt lat="-28.376352" lon="153.346689">
				<ele>4.704</ele>
				<time>2015-07-04T05:08:00Z</time>
				<extensions>
				</extensions>
			</trkpt>
			<trkpt lat="-28.376162" lon="153.346685">
				<ele>5.709</ele>
				<time>2015-07-04T05:08:01Z</time>
				<extensions>
				</extensions>
			</trkpt>
			<trkpt lat="-28.375963" lon="153.346682">
				<ele>4.734</ele>
				<time>2015-07-04T05:08:02Z</time>
				<extensions>
				</extensions>
			</trkpt>
			<trkpt lat="-28.375607" lon="153.346679">
				<ele>3.526</ele>
				<time>2015-07-04T05:08:04Z</time>
				<extensions>
				</extensions>
			</trkpt>
			<trkpt lat="-28.375419" lon="153.346677">
				<ele>3.292</ele>
				<time>2015-07-04T05:08:05Z</time>
				<extensions>
				</extensions>
			</trkpt>
			<trkpt lat="-28.375234" lon="153.346672">
				<ele>3.322</ele>
				<time>2015-07-04T05:08:06Z</time>
				<extensions>
				</extensions>
			</trkpt>
			<trkpt lat="-28.374883" lon="153.346662">
				<ele>0.413</ele>
				<time>2015-07-04T05:08:08Z</time>
				<extensions>
				</extensions>
			</trkpt>
			<trkpt lat="-28.374526" lon="153.346647">
				<ele>0.396</ele>
				<time>2015-07-04T05:08:10Z</time>
				<extensions>
				</extensions>
			</trkpt>
			<trkpt lat="-28.374343" lon="153.346640">
				<ele>0.168</ele>
				<time>2015-07-04T05:08:11Z</time>
				<extensions>
				</extensions>
			</trkpt>
			<trkpt lat="-28.373989" lon="153.346631">
				<ele>0.482</ele>
				<time>2015-07-04T05:08:13Z</time>
				<extensions>
				</extensions>
			</trkpt>
			<trkpt lat="-28.373641" lon="153.346646">
				<ele>-0.652</ele>
				<time>2015-07-04T05:08:15Z</time>
				<extensions>
				</extensions>
			</trkpt>
			<trkpt lat="-28.373340" lon="153.346756">
				<ele>0.361</ele>
				<time>2015-07-04T05:08:17Z</time>
				<extensions>
				</extensions>
			</trkpt>
			<trkpt lat="-28.373028" lon="153.346964">
				<ele>1.238</ele>
				<time>2015-07-04T05:08:19Z</time>
				<extensions>
				</extensions>
			</trkpt>
			<trkpt lat="-28.372879" lon="153.347104">
				<ele>1.598</ele>
				<time>2015-07-04T05:08:20Z</time>
				<extensions>
				</extensions>
			</trkpt>
			<trkpt lat="-28.372736" lon="153.347251">
				<ele>1.495</ele>
				<time>2015-07-04T05:08:21Z</time>
				<extensions>
				</extensions>
			</trkpt>
			<trkpt lat="-28.372601" lon="153.347400">
				<ele>1.654</ele>
				<time>2015-07-04T05:08:22Z</time>
				<extensions>
				</extensions>
			</trkpt>
			<trkpt lat="-28.372454" lon="153.347552">
				<ele>1.654</ele>
				<time>2015-07-04T05:08:23Z</time>
				<extensions>
				</extensions>
			</trkpt>
			<trkpt lat="-28.372220" lon="153.347853">
				<ele>1.266</ele>
				<time>2015-07-04T05:08:25Z</time>
				<extensions>
				</extensions>
			</trkpt>
			<trkpt lat="-28.372085" lon="153.347998">
				<ele>1.437</ele>
				<time>2015-07-04T05:08:26Z</time>
				<extensions>
				</extensions>
			</trkpt>
			<trkpt lat="-28.371950" lon="153.348151">
				<ele>2.979</ele>
				<time>2015-07-04T05:08:27Z</time>
				<extensions>
				</extensions>
			</trkpt>
			<trkpt lat="-28.371814" lon="153.348305">
				<ele>3.830</ele>
				<time>2015-07-04T05:08:28Z</time>
				<extensions>
				</extensions>
			</trkpt>
			<trkpt lat="-28.371668" lon="153.348446">
				<ele>4.361</ele>
				<time>2015-07-04T05:08:29Z</time>
				<extensions>
				</extensions>
			</trkpt>
			<trkpt lat="-28.371530" lon="153.348581">
				<ele>5.170</ele>
				<time>2015-07-04T05:08:30Z</time>
				<extensions>
				</extensions>
			</trkpt>
			<trkpt lat="-28.371384" lon="153.348709">
				<ele>4.719</ele>
				<time>2015-07-04T05:08:31Z</time>
				<extensions>
				</extensions>
			</trkpt>
			<trkpt lat="-28.371236" lon="153.348828">
				<ele>4.872</ele>
				<time>2015-07-04T05:08:32Z</time>
				<extensions>
				</extensions>
			</trkpt>
			<trkpt lat="-28.371075" lon="153.348922">
				<ele>5.448</ele>
				<time>2015-07-04T05:08:33Z</time>
				<extensions>
				</extensions>
			</trkpt>
			<trkpt lat="-28.370895" lon="153.348998">
				<ele>4.456</ele>
				<time>2015-07-04T05:08:34Z</time>
				<extensions>
				</extensions>
			</trkpt>
			<trkpt lat="-28.370718" lon="153.349070">
				<ele>5.074</ele>
				<time>2015-07-04T05:08:35Z</time>
				<extensions>
				</extensions>
			</trkpt>
			<trkpt lat="-28.370529" lon="153.349126">
				<ele>4.154</ele>
				<time>2015-07-04T05:08:36Z</time>
				<extensions>
				</extensions>
			</trkpt>
			<trkpt lat="-28.370345" lon="153.349188">
				<ele>3.745</ele>
				<time>2015-07-04T05:08:37Z</time>
				<extensions>
				</extensions>
			</trkpt>
			<trkpt lat="-28.370147" lon="153.349238">
				<ele>2.957</ele>
				<time>2015-07-04T05:08:38Z</time>
				<extensions>
				</extensions>
			</trkpt>
			<trkpt lat="-28.369945" lon="153.349236">
				<ele>3.732</ele>
				<time>2015-07-04T05:08:39Z</time>
				<extensions>
				</extensions>
			</trkpt>
			<trkpt lat="-28.369757" lon="153.349280">
				<ele>2.785</ele>
				<time>2015-07-04T05:08:40Z</time>
				<extensions>
				</extensions>
			</trkpt>
			<trkpt lat="-28.369567" lon="153.349320">
				<ele>2.503</ele>
				<time>2015-07-04T05:08:41Z</time>
				<extensions>
				</extensions>
			</trkpt>
			<trkpt lat="-28.369389" lon="153.349367">
				<ele>1.659</ele>
				<time>2015-07-04T05:08:42Z</time>
				<extensions>
				</extensions>
			</trkpt>
			<trkpt lat="-28.369029" lon="153.349487">
				<ele>1.453</ele>
				<time>2015-07-04T05:08:44Z</time>
				<extensions>
				</extensions>
			</trkpt>
			<trkpt lat="-28.368823" lon="153.349580">
				<ele>1.492</ele>
				<time>2015-07-04T05:08:45Z</time>
				<extensions>
				</extensions>
			</trkpt>
			<trkpt lat="-28.368646" lon="153.349690">
				<ele>1.760</ele>
				<time>2015-07-04T05:08:46Z</time>
				<extensions>
				</extensions>
			</trkpt>
			<trkpt lat="-28.368449" lon="153.349813">
				<ele>3.281</ele>
				<time>2015-07-04T05:08:47Z</time>
				<extensions>
				</extensions>
			</trkpt>
			<trkpt lat="-28.368251" lon="153.349945">
				<ele>4.514</ele>
				<time>2015-07-04T05:08:48Z</time>
				<extensions>
				</extensions>
			</trkpt>
			<trkpt lat="-28.368056" lon="153.350081">
				<ele>5.733</ele>
				<time>2015-07-04T05:08:49Z</time>
				<extensions>
				</extensions>
			</trkpt>
			<trkpt lat="-28.367831" lon="153.350230">
				<ele>6.746</ele>
				<time>2015-07-04T05:08:50Z</time>
				<extensions>
				</extensions>
			</trkpt>
			<trkpt lat="-28.367605" lon="153.350379">
				<ele>7.146</ele>
				<time>2015-07-04T05:08:51Z</time>
				<extensions>
				</extensions>
			</trkpt>
			<trkpt lat="-28.367394" lon="153.350517">
				<ele>5.535</ele>
				<time>2015-07-04T05:08:52Z</time>
				<extensions>
				</extensions>
			</trkpt>
			<trkpt lat="-28.367187" lon="153.350655">
				<ele>4.588</ele>
				<time>2015-07-04T05:08:53Z</time>
				<extensions>
				</extensions>
			</trkpt>
			<trkpt lat="-28.366987" lon="153.350789">
				<ele>4.446</ele>
				<time>2015-07-04T05:08:54Z</time>
				<extensions>
				</extensions>
			</trkpt>
			<trkpt lat="-28.366788" lon="153.350922">
				<ele>3.739</ele>
				<time>2015-07-04T05:08:55Z</time>
				<extensions>
				</extensions>
			</trkpt>
			<trkpt lat="-28.366597" lon="153.351050">
				<ele>2.713</ele>
				<time>2015-07-04T05:08:56Z</time>
				<extensions>
				</extensions>
			</trkpt>
			<trkpt lat="-28.366419" lon="153.351165">
				<ele>1.959</ele>
				<time>2015-07-04T05:08:57Z</time>
				<extensions>
				</extensions>
			</trkpt>
			<trkpt lat="-28.366238" lon="153.351280">
				<ele>0.895</ele>
				<time>2015-07-04T05:08:58Z</time>
				<extensions>
				</extensions>
			</trkpt>
			<trkpt lat="-28.366059" lon="153.351381">
				<ele>1.291</ele>
				<time>2015-07-04T05:08:59Z</time>
				<extensions>
				</extensions>
			</trkpt>
			<trkpt lat="-28.365708" lon="153.351505">
				<ele>1.639</ele>
				<time>2015-07-04T05:09:01Z</time>
				<extensions>
				</extensions>
			</trkpt>
			<trkpt lat="-28.365506" lon="153.351541">
				<ele>1.330</ele>
				<time>2015-07-04T05:09:02Z</time>
				<extensions>
				</extensions>
			</trkpt>
			<trkpt lat="-28.365310" lon="153.351552">
				<ele>2.702</ele>
				<time>2015-07-04T05:09:03Z</time>
				<extensions>
				</extensions>
			</trkpt>
			<trkpt lat="-28.365123" lon="153.351546">
				<ele>2.994</ele>
				<time>2015-07-04T05:09:04Z</time>
				<extensions>
				</extensions>
			</trkpt>
			<trkpt lat="-28.364907" lon="153.351526">
				<ele>2.865</ele>
				<time>2015-07-04T05:09:05Z</time>
				<extensions>
				</extensions>
			</trkpt>
			<trkpt lat="-28.364714" lon="153.351508">
				<ele>2.359</ele>
				<time>2015-07-04T05:09:06Z</time>
				<extensions>
				</extensions>
			</trkpt>
			<trkpt lat="-28.364501" lon="153.351491">
				<ele>3.288</ele>
				<time>2015-07-04T05:09:07Z</time>
				<extensions>
				</extensions>
			</trkpt>
			<trkpt lat="-28.364294" lon="153.351488">
				<ele>3.125</ele>
				<time>2015-07-04T05:09:08Z</time>
				<extensions>
				</extensions>
			</trkpt>
			<trkpt lat="-28.364089" lon="153.351493">
				<ele>1.670</ele>
				<time>2015-07-04T05:09:09Z</time>
				<extensions>
				</extensions>
			</trkpt>
			<trkpt lat="-28.363882" lon="153.351508">
				<ele>1.861</ele>
				<time>2015-07-04T05:09:10Z</time>
				<extensions>
				</extensions>
			</trkpt>
			<trkpt lat="-28.363667" lon="153.351539">
				<ele>1.965</ele>
				<time>2015-07-04T05:09:11Z</time>
				<extensions>
				</extensions>
			</trkpt>
			<trkpt lat="-28.363464" lon="153.351590">
				<ele>1.327</ele>
				<time>2015-07-04T05:09:12Z</time>
				<extensions>
				</extensions>
			</trkpt>
			<trkpt lat="-28.363260" lon="153.351670">
				<ele>1.390</ele>
				<time>2015-07-04T05:09:13Z</time>
				<extensions>
				</extensions>
			</trkpt>
			<trkpt lat="-28.363073" lon="153.351768">
				<ele>1.757</ele>
				<time>2015-07-04T05:09:14Z</time>
				<extensions>
				</extensions>
			</trkpt>
			<trkpt lat="-28.362917" lon="153.351921">
				<ele>1.354</ele>
				<time>2015-07-04T05:09:15Z</time>
				<extensions>
				</extensions>
			</trkpt>
			<trkpt lat="-28.362748" lon="153.352049">
				<ele>1.079</ele>
				<time>2015-07-04T05:09:16Z</time>
				<extensions>
				</extensions>
			</trkpt>
			<trkpt lat="-28.362594" lon="153.352193">
				<ele>1.803</ele>
				<time>2015-07-04T05:09:17Z</time>
				<extensions>
				</extensions>
			</trkpt>
			<trkpt lat="-28.362450" lon="153.352354">
				<ele>2.312</ele>
				<time>2015-07-04T05:09:18Z</time>
				<extensions>
				</extensions>
			</trkpt>
			<trkpt lat="-28.362314" lon="153.352530">
				<ele>2.889</ele>
				<time>2015-07-04T05:09:19Z</time>
				<extensions>
				</extensions>
			</trkpt>
			<trkpt lat="-28.362180" lon="153.352710">
				<ele>2.632</ele>
				<time>2015-07-04T05:09:20Z</time>
				<extensions>
				</extensions>
			</trkpt>
			<trkpt lat="-28.362052" lon="153.352894">
				<ele>2.204</ele>
				<time>2015-07-04T05:09:21Z</time>
				<extensions>
				</extensions>
			</trkpt>
			<trkpt lat="-28.361929" lon="153.353089">
				<ele>2.284</ele>
				<time>2015-07-04T05:09:22Z</time>
				<extensions>
				</extensions>
			</trkpt>
			<trkpt lat="-28.361810" lon="153.353302">
				<ele>2.748</ele>
				<time>2015-07-04T05:09:23Z</time>
				<extensions>
				</extensions>
			</trkpt>
			<trkpt lat="-28.361695" lon="153.353532">
				<ele>2.865</ele>
				<time>2015-07-04T05:09:24Z</time>
				<extensions>
				</extensions>
			</trkpt>
			<trkpt lat="-28.361592" lon="153.353771">
				<ele>2.085</ele>
				<time>2015-07-04T05:09:25Z</time>
				<extensions>
				</extensions>
			</trkpt>
			<trkpt lat="-28.361497" lon="153.354010">
				<ele>0.330</ele>
				<time>2015-07-04T05:09:26Z</time>
				<extensions>
				</extensions>
			</trkpt>
			<trkpt lat="-28.361410" lon="153.354242">
				<ele>-0.593</ele>
				<time>2015-07-04T05:09:27Z</time>
				<extensions>
				</extensions>
			</trkpt>
			<trkpt lat="-28.361328" lon="153.354476">
				<ele>-0.728</ele>
				<time>2015-07-04T05:09:28Z</time>
				<extensions>
				</extensions>
			</trkpt>
			<trkpt lat="-28.361251" lon="153.354711">
				<ele>-0.810</ele>
				<time>2015-07-04T05:09:29Z</time>
				<extensions>
				</extensions>
			</trkpt>
			<trkpt lat="-28.361171" lon="153.354945">
				<ele>-1.780</ele>
				<time>2015-07-04T05:09:30Z</time>
				<extensions>
				</extensions>
			</trkpt>
			<trkpt lat="-28.361093" lon="153.355170">
				<ele>-1.405</ele>
				<time>2015-07-04T05:09:31Z</time>
				<extensions>
				</extensions>
			</trkpt>
			<trkpt lat="-28.361013" lon="153.355399">
				<ele>-1.306</ele>
				<time>2015-07-04T05:09:32Z</time>
				<extensions>
				</extensions>
			</trkpt>
			<trkpt lat="-28.360921" lon="153.355610">
				<ele>-1.306</ele>
				<time>2015-07-04T05:09:33Z</time>
				<extensions>
				</extensions>
			</trkpt>
			<trkpt lat="-28.360826" lon="153.355813">
				<ele>-0.907</ele>
				<time>2015-07-04T05:09:34Z</time>
				<extensions>
				</extensions>
			</trkpt>
			<trkpt lat="-28.360729" lon="153.356013">
				<ele>-0.924</ele>
				<time>2015-07-04T05:09:35Z</time>
				<extensions>
				</extensions>
			</trkpt>
			<trkpt lat="-28.360604" lon="153.356198">
				<ele>-0.238</ele>
				<time>2015-07-04T05:09:36Z</time>
				<extensions>
				</extensions>
			</trkpt>
			<trkpt lat="-28.360480" lon="153.356394">
				<ele>2.253</ele>
				<time>2015-07-04T05:09:37Z</time>
				<extensions>
				</extensions>
			</trkpt>
			<trkpt lat="-28.360267" lon="153.356533">
				<ele>2.869</ele>
				<time>2015-07-04T05:09:38Z</time>
				<extensions>
				</extensions>
			</trkpt>
			<trkpt lat="-28.360100" lon="153.356699">
				<ele>3.842</ele>
				<time>2015-07-04T05:09:39Z</time>
				<extensions>
				</extensions>
			</trkpt>
			<trkpt lat="-28.359906" lon="153.356832">
				<ele>4.059</ele>
				<time>2015-07-04T05:09:40Z</time>
				<extensions>
				</extensions>
			</trkpt>
			<trkpt lat="-28.359719" lon="153.356962">
				<ele>3.404</ele>
				<time>2015-07-04T05:09:41Z</time>
				<extensions>
				</extensions>
			</trkpt>
			<trkpt lat="-28.359525" lon="153.357082">
				<ele>3.187</ele>
				<time>2015-07-04T05:09:42Z</time>
				<extensions>
				</extensions>
			</trkpt>
			<trkpt lat="-28.359321" lon="153.357183">
				<ele>2.600</ele>
				<time>2015-07-04T05:09:43Z</time>
				<extensions>
				</extensions>
			</trkpt>
			<trkpt lat="-28.359119" lon="153.357282">
				<ele>2.306</ele>
				<time>2015-07-04T05:09:44Z</time>
				<extensions>
				</extensions>
			</trkpt>
			<trkpt lat="-28.358929" lon="153.357387">
				<ele>2.124</ele>
				<time>2015-07-04T05:09:45Z</time>
				<extensions>
				</extensions>
			</trkpt>
			<trkpt lat="-28.358760" lon="153.357508">
				<ele>1.200</ele>
				<time>2015-07-04T05:09:46Z</time>
				<extensions>
				</extensions>
			</trkpt>
			<trkpt lat="-28.358598" lon="153.357618">
				<ele>0.685</ele>
				<time>2015-07-04T05:09:47Z</time>
				<extensions>
				</extensions>
			</trkpt>
			<trkpt lat="-28.358443" lon="153.357736">
				<ele>-0.822</ele>
				<time>2015-07-04T05:09:48Z</time>
				<extensions>
				</extensions>
			</trkpt>
			<trkpt lat="-28.358387" lon="153.357942">
				<ele>-1.390</ele>
				<time>2015-07-04T05:09:49Z</time>
				<extensions>
				</extensions>
			</trkpt>
			<trkpt lat="-28.358293" lon="153.358124">
				<ele>-0.966</ele>
				<time>2015-07-04T05:09:50Z</time>
				<extensions>
				</extensions>
			</trkpt>
			<trkpt lat="-28.358210" lon="153.358325">
				<ele>-0.163</ele>
				<time>2015-07-04T05:09:51Z</time>
				<extensions>
				</extensions>
			</trkpt>
			<trkpt lat="-28.358126" lon="153.358530">
				<ele>-0.463</ele>
				<time>2015-07-04T05:09:52Z</time>
				<extensions>
				</extensions>
			</trkpt>
			<trkpt lat="-28.358035" lon="153.358721">
				<ele>-1.405</ele>
				<time>2015-07-04T05:09:53Z</time>
				<extensions>
				</extensions>
			</trkpt>
			<trkpt lat="-28.357907" lon="153.358889">
				<ele>-2.830</ele>
				<time>2015-07-04T05:09:54Z</time>
				<extensions>
				</extensions>
			</trkpt>
			<trkpt lat="-28.357764" lon="153.359038">
				<ele>-2.362</ele>
				<time>2015-07-04T05:09:55Z</time>
				<extensions>
				</extensions>
			</trkpt>
			<trkpt lat="-28.357604" lon="153.359194">
				<ele>-0.518</ele>
				<time>2015-07-04T05:09:56Z</time>
				<extensions>
				</extensions>
			</trkpt>
			<trkpt lat="-28.357441" lon="153.359348">
				<ele>-1.512</ele>
				<time>2015-07-04T05:09:57Z</time>
				<extensions>
				</extensions>
			</trkpt>
			<trkpt lat="-28.357282" lon="153.359505">
				<ele>-2.013</ele>
				<time>2015-07-04T05:09:58Z</time>
				<extensions>
				</extensions>
			</trkpt>
			<trkpt lat="-28.357131" lon="153.359672">
				<ele>-1.076</ele>
				<time>2015-07-04T05:09:59Z</time>
				<extensions>
				</extensions>
			</trkpt>
			<trkpt lat="-28.356993" lon="153.359858">
				<ele>-1.116</ele>
				<time>2015-07-04T05:10:00Z</time>
				<extensions>
				</extensions>
			</trkpt>
			<trkpt lat="-28.356865" lon="153.360032">
				<ele>-1.640</ele>
				<time>2015-07-04T05:10:01Z</time>
				<extensions>
				</extensions>
			</trkpt>
			<trkpt lat="-28.356649" lon="153.360333">
				<ele>-3.404</ele>
				<time>2015-07-04T05:10:03Z</time>
				<extensions>
				</extensions>
			</trkpt>
			<trkpt lat="-28.356427" lon="153.360606">
				<ele>-4.041</ele>
				<time>2015-07-04T05:10:05Z</time>
				<extensions>
				</extensions>
			</trkpt>
			<trkpt lat="-28.356209" lon="153.360852">
				<ele>-4.701</ele>
				<time>2015-07-04T05:10:07Z</time>
				<extensions>
				</extensions>
			</trkpt>
			<trkpt lat="-28.355981" lon="153.361044">
				<ele>-4.982</ele>
				<time>2015-07-04T05:10:09Z</time>
				<extensions>
				</extensions>
			</trkpt>
			<trkpt lat="-28.355540" lon="153.361443">
				<ele>-4.017</ele>
				<time>2015-07-04T05:10:11Z</time>
				<extensions>
				</extensions>
			</trkpt>
			<trkpt lat="-28.355330" lon="153.361356">
				<ele>-3.563</ele>
				<time>2015-07-04T05:10:12Z</time>
				<extensions>
				</extensions>
			</trkpt>
			<trkpt lat="-28.355279" lon="153.360992">
				<ele>-3.658</ele>
				<time>2015-07-04T05:10:13Z</time>
				<extensions>
				</extensions>
			</trkpt>
			<trkpt lat="-28.355099" lon="153.360974">
				<ele>-3.363</ele>
				<time>2015-07-04T05:10:14Z</time>
				<extensions>
				</extensions>
			</trkpt>
			<trkpt lat="-28.354775" lon="153.360936">
				<ele>-4.205</ele>
				<time>2015-07-04T05:10:16Z</time>
				<extensions>
				</extensions>
			</trkpt>
			<trkpt lat="-28.354461" lon="153.360927">
				<ele>-4.245</ele>
				<time>2015-07-04T05:10:18Z</time>
				<extensions>
				</extensions>
			</trkpt>
			<trkpt lat="-28.354123" lon="153.360964">
				<ele>-3.637</ele>
				<time>2015-07-04T05:10:20Z</time>
				<extensions>
				</extensions>
			</trkpt>
			<trkpt lat="-28.353805" lon="153.361032">
				<ele>-3.730</ele>
				<time>2015-07-04T05:10:22Z</time>
				<extensions>
				</extensions>
			</trkpt>
			<trkpt lat="-28.353465" lon="153.361088">
				<ele>-3.997</ele>
				<time>2015-07-04T05:10:24Z</time>
				<extensions>
				</extensions>
			</trkpt>
			<trkpt lat="-28.353122" lon="153.361162">
				<ele>-3.642</ele>
				<time>2015-07-04T05:10:26Z</time>
				<extensions>
				</extensions>
			</trkpt>
			<trkpt lat="-28.352931" lon="153.361206">
				<ele>-2.137</ele>
				<time>2015-07-04T05:10:27Z</time>
				<extensions>
				</extensions>
			</trkpt>
			<trkpt lat="-28.352730" lon="153.361252">
				<ele>-1.547</ele>
				<time>2015-07-04T05:10:28Z</time>
				<extensions>
				</extensions>
			</trkpt>
			<trkpt lat="-28.352522" lon="153.361300">
				<ele>-1.171</ele>
				<time>2015-07-04T05:10:29Z</time>
				<extensions>
				</extensions>
			</trkpt>
			<trkpt lat="-28.352316" lon="153.361348">
				<ele>-1.863</ele>
				<time>2015-07-04T05:10:30Z</time>
				<extensions>
				</extensions>
			</trkpt>
			<trkpt lat="-28.352115" lon="153.361395">
				<ele>-2.696</ele>
				<time>2015-07-04T05:10:31Z</time>
				<extensions>
				</extensions>
			</trkpt>
			<trkpt lat="-28.351917" lon="153.361441">
				<ele>-3.480</ele>
				<time>2015-07-04T05:10:32Z</time>
				<extensions>
				</extensions>
			</trkpt>
			<trkpt lat="-28.351723" lon="153.361491">
				<ele>-3.744</ele>
				<time>2015-07-04T05:10:33Z</time>
				<extensions>
				</extensions>
			</trkpt>
			<trkpt lat="-28.351524" lon="153.361542">
				<ele>-3.721</ele>
				<time>2015-07-04T05:10:34Z</time>
				<extensions>
				</extensions>
			</trkpt>
			<trkpt lat="-28.351327" lon="153.361593">
				<ele>-4.189</ele>
				<time>2015-07-04T05:10:35Z</time>
				<extensions>
				</extensions>
			</trkpt>
			<trkpt lat="-28.351131" lon="153.361641">
				<ele>-4.016</ele>
				<time>2015-07-04T05:10:36Z</time>
				<extensions>
				</extensions>
			</trkpt>
			<trkpt lat="-28.350950" lon="153.361685">
				<ele>-5.115</ele>
				<time>2015-07-04T05:10:37Z</time>
				<extensions>
				</extensions>
			</trkpt>
			<trkpt lat="-28.350764" lon="153.361731">
				<ele>-4.684</ele>
				<time>2015-07-04T05:10:38Z</time>
				<extensions>
				</extensions>
			</trkpt>
			<trkpt lat="-28.350588" lon="153.361778">
				<ele>-5.549</ele>
				<time>2015-07-04T05:10:39Z</time>
				<extensions>
				</extensions>
			</trkpt>
			<trkpt lat="-28.350403" lon="153.361832">
				<ele>-4.894</ele>
				<time>2015-07-04T05:10:40Z</time>
				<extensions>
				</extensions>
			</trkpt>
			<trkpt lat="-28.350065" lon="153.361939">
				<ele>-4.073</ele>
				<time>2015-07-04T05:10:42Z</time>
				<extensions>
				</extensions>
			</trkpt>
			<trkpt lat="-28.349758" lon="153.362122">
				<ele>-4.723</ele>
				<time>2015-07-04T05:10:44Z</time>
				<extensions>
				</extensions>
			</trkpt>
			<trkpt lat="-28.349488" lon="153.362388">
				<ele>-3.611</ele>
				<time>2015-07-04T05:10:46Z</time>
				<extensions>
				</extensions>
			</trkpt>
			<trkpt lat="-28.349346" lon="153.362540">
				<ele>-5.186</ele>
				<time>2015-07-04T05:10:47Z</time>
				<extensions>
				</extensions>
			</trkpt>
			<trkpt lat="-28.349195" lon="153.362702">
				<ele>-4.927</ele>
				<time>2015-07-04T05:10:48Z</time>
				<extensions>
				</extensions>
			</trkpt>
			<trkpt lat="-28.349047" lon="153.362861">
				<ele>-4.564</ele>
				<time>2015-07-04T05:10:49Z</time>
				<extensions>
				</extensions>
			</trkpt>
			<trkpt lat="-28.348887" lon="153.363032">
				<ele>-4.742</ele>
				<time>2015-07-04T05:10:50Z</time>
				<extensions>
				</extensions>
			</trkpt>
			<trkpt lat="-28.348733" lon="153.363197">
				<ele>-4.742</ele>
				<time>2015-07-04T05:10:51Z</time>
				<extensions>
				</extensions>
			</trkpt>
			<trkpt lat="-28.348579" lon="153.363362">
				<ele>-5.436</ele>
				<time>2015-07-04T05:10:52Z</time>
				<extensions>
				</extensions>
			</trkpt>
			<trkpt lat="-28.348434" lon="153.363518">
				<ele>-6.260</ele>
				<time>2015-07-04T05:10:53Z</time>
				<extensions>
				</extensions>
			</trkpt>
			<trkpt lat="-28.348293" lon="153.363670">
				<ele>-7.187</ele>
				<time>2015-07-04T05:10:54Z</time>
				<extensions>
				</extensions>
			</trkpt>
			<trkpt lat="-28.348144" lon="153.363831">
				<ele>-6.432</ele>
				<time>2015-07-04T05:10:55Z</time>
				<extensions>
				</extensions>
			</trkpt>
			<trkpt lat="-28.347995" lon="153.363993">
				<ele>-7.006</ele>
				<time>2015-07-04T05:10:56Z</time>
				<extensions>
				</extensions>
			</trkpt>
			<trkpt lat="-28.347853" lon="153.364150">
				<ele>-6.473</ele>
				<time>2015-07-04T05:10:57Z</time>
				<extensions>
				</extensions>
			</trkpt>
			<trkpt lat="-28.347706" lon="153.364314">
				<ele>-6.661</ele>
				<time>2015-07-04T05:10:58Z</time>
				<extensions>
				</extensions>
			</trkpt>
			<trkpt lat="-28.347561" lon="153.364474">
				<ele>-7.090</ele>
				<time>2015-07-04T05:10:59Z</time>
				<extensions>
				</extensions>
			</trkpt>
			<trkpt lat="-28.347415" lon="153.364636">
				<ele>-6.914</ele>
				<time>2015-07-04T05:11:00Z</time>
				<extensions>
				</extensions>
			</trkpt>
			<trkpt lat="-28.347269" lon="153.364799">
				<ele>-6.805</ele>
				<time>2015-07-04T05:11:01Z</time>
				<extensions>
				</extensions>
			</trkpt>
			<trkpt lat="-28.347128" lon="153.364956">
				<ele>-6.598</ele>
				<time>2015-07-04T05:11:02Z</time>
				<extensions>
				</extensions>
			</trkpt>
			<trkpt lat="-28.346994" lon="153.365105">
				<ele>-6.906</ele>
				<time>2015-07-04T05:11:03Z</time>
				<extensions>
				</extensions>
			</trkpt>
			<trkpt lat="-28.346853" lon="153.365262">
				<ele>-6.757</ele>
				<time>2015-07-04T05:11:04Z</time>
				<extensions>
				</extensions>
			</trkpt>
			<trkpt lat="-28.346708" lon="153.365425">
				<ele>-6.230</ele>
				<time>2015-07-04T05:11:05Z</time>
				<extensions>
				</extensions>
			</trkpt>
			<trkpt lat="-28.346575" lon="153.365577">
				<ele>-6.326</ele>
				<time>2015-07-04T05:11:06Z</time>
				<extensions>
				</extensions>
			</trkpt>
			<trkpt lat="-28.346438" lon="153.365742">
				<ele>-6.412</ele>
				<time>2015-07-04T05:11:07Z</time>
				<extensions>
				</extensions>
			</trkpt>
			<trkpt lat="-28.346297" lon="153.365911">
				<ele>-6.988</ele>
				<time>2015-07-04T05:11:08Z</time>
				<extensions>
				</extensions>
			</trkpt>
			<trkpt lat="-28.346155" lon="153.366082">
				<ele>-6.339</ele>
				<time>2015-07-04T05:11:09Z</time>
				<extensions>
				</extensions>
			</trkpt>
			<trkpt lat="-28.346006" lon="153.366263">
				<ele>-6.076</ele>
				<time>2015-07-04T05:11:10Z</time>
				<extensions>
				</extensions>
			</trkpt>
			<trkpt lat="-28.345864" lon="153.366438">
				<ele>-5.981</ele>
				<time>2015-07-04T05:11:11Z</time>
				<extensions>
				</extensions>
			</trkpt>
			<trkpt lat="-28.345725" lon="153.366609">
				<ele>-5.815</ele>
				<time>2015-07-04T05:11:12Z</time>
				<extensions>
				</extensions>
			</trkpt>
			<trkpt lat="-28.345575" lon="153.366793">
				<ele>-5.865</ele>
				<time>2015-07-04T05:11:13Z</time>
				<extensions>
				</extensions>
			</trkpt>
			<trkpt lat="-28.345429" lon="153.366975">
				<ele>-6.290</ele>
				<time>2015-07-04T05:11:14Z</time>
				<extensions>
				</extensions>
			</trkpt>
			<trkpt lat="-28.345282" lon="153.367161">
				<ele>-6.137</ele>
				<time>2015-07-04T05:11:15Z</time>
				<extensions>
				</extensions>
			</trkpt>
			<trkpt lat="-28.345134" lon="153.367348">
				<ele>-5.231</ele>
				<time>2015-07-04T05:11:16Z</time>
				<extensions>
				</extensions>
			</trkpt>
			<trkpt lat="-28.344988" lon="153.367530">
				<ele>-5.732</ele>
				<time>2015-07-04T05:11:17Z</time>
				<extensions>
				</extensions>
			</trkpt>
			<trkpt lat="-28.344846" lon="153.367706">
				<ele>-6.405</ele>
				<time>2015-07-04T05:11:18Z</time>
				<extensions>
				</extensions>
			</trkpt>
			<trkpt lat="-28.344707" lon="153.367880">
				<ele>-6.898</ele>
				<time>2015-07-04T05:11:19Z</time>
				<extensions>
				</extensions>
			</trkpt>
			<trkpt lat="-28.344564" lon="153.368060">
				<ele>-7.719</ele>
				<time>2015-07-04T05:11:20Z</time>
				<extensions>
				</extensions>
			</trkpt>
			<trkpt lat="-28.344421" lon="153.368246">
				<ele>-7.242</ele>
				<time>2015-07-04T05:11:21Z</time>
				<extensions>
				</extensions>
			</trkpt>
			<trkpt lat="-28.344272" lon="153.368434">
				<ele>-7.080</ele>
				<time>2015-07-04T05:11:22Z</time>
				<extensions>
				</extensions>
			</trkpt>
			<trkpt lat="-28.344129" lon="153.368618">
				<ele>-7.013</ele>
				<time>2015-07-04T05:11:23Z</time>
				<extensions>
				</extensions>
			</trkpt>
			<trkpt lat="-28.344045" lon="153.368851">
				<ele>-5.924</ele>
				<time>2015-07-04T05:11:24Z</time>
				<extensions>
				</extensions>
			</trkpt>
			<trkpt lat="-28.343923" lon="153.369041">
				<ele>-6.646</ele>
				<time>2015-07-04T05:11:25Z</time>
				<extensions>
				</extensions>
			</trkpt>
			<trkpt lat="-28.343811" lon="153.369236">
				<ele>-6.545</ele>
				<time>2015-07-04T05:11:26Z</time>
				<extensions>
				</extensions>
			</trkpt>
			<trkpt lat="-28.343709" lon="153.369442">
				<ele>-5.966</ele>
				<time>2015-07-04T05:11:27Z</time>
				<extensions>
				</extensions>
			</trkpt>
			<trkpt lat="-28.343617" lon="153.369646">
				<ele>-6.167</ele>
				<time>2015-07-04T05:11:28Z</time>
				<extensions>
				</extensions>
			</trkpt>
			<trkpt lat="-28.343534" lon="153.369842">
				<ele>-6.692</ele>
				<time>2015-07-04T05:11:29Z</time>
				<extensions>
				</extensions>
			</trkpt>
			<trkpt lat="-28.343446" lon="153.370039">
				<ele>-7.846</ele>
				<time>2015-07-04T05:11:30Z</time>
				<extensions>
				</extensions>
			</trkpt>
			<trkpt lat="-28.343283" lon="153.370386">
				<ele>-9.269</ele>
				<time>2015-07-04T05:11:32Z</time>
				<extensions>
				</extensions>
			</trkpt>
			<trkpt lat="-28.343148" lon="153.370714">
				<ele>-10.020</ele>
				<time>2015-07-04T05:11:34Z</time>
				<extensions>
				</extensions>
			</trkpt>
			<trkpt lat="-28.343055" lon="153.370989">
				<ele>-11.431</ele>
				<time>2015-07-04T05:11:36Z</time>
				<extensions>
				</extensions>
			</trkpt>
			<trkpt lat="-28.342948" lon="153.371263">
				<ele>-11.940</ele>
				<time>2015-07-04T05:11:38Z</time>
				<extensions>
				</extensions>
			</trkpt>
			<trkpt lat="-28.342826" lon="153.371531">
				<ele>-11.948</ele>
				<time>2015-07-04T05:11:40Z</time>
				<extensions>
				</extensions>
			</trkpt>
			<trkpt lat="-28.342710" lon="153.371794">
				<ele>-11.258</ele>
				<time>2015-07-04T05:11:42Z</time>
				<extensions>
				</extensions>
			</trkpt>
			<trkpt lat="-28.342606" lon="153.372052">
				<ele>-10.778</ele>
				<time>2015-07-04T05:11:44Z</time>
				<extensions>
				</extensions>
			</trkpt>
			<trkpt lat="-28.342492" lon="153.372303">
				<ele>-9.535</ele>
				<time>2015-07-04T05:11:46Z</time>
				<extensions>
				</extensions>
			</trkpt>
			<trkpt lat="-28.342371" lon="153.372553">
				<ele>-8.269</ele>
				<time>2015-07-04T05:11:48Z</time>
				<extensions>
				</extensions>
			</trkpt>
			<trkpt lat="-28.342239" lon="153.372789">
				<ele>-5.888</ele>
				<time>2015-07-04T05:11:50Z</time>
				<extensions>
				</extensions>
			</trkpt>
			<trkpt lat="-28.342077" lon="153.373022">
				<ele>-3.776</ele>
				<time>2015-07-04T05:11:52Z</time>
				<extensions>
				</extensions>
			</trkpt>
			<trkpt lat="-28.341905" lon="153.373262">
				<ele>-2.242</ele>
				<time>2015-07-04T05:11:54Z</time>
				<extensions>
				</extensions>
			</trkpt>
			<trkpt lat="-28.341751" lon="153.373519">
				<ele>-0.088</ele>
				<time>2015-07-04T05:11:56Z</time>
				<extensions>
				</extensions>
			</trkpt>
			<trkpt lat="-28.341587" lon="153.373746">
				<ele>0.582</ele>
				<time>2015-07-04T05:11:58Z</time>
				<extensions>
				</extensions>
			</trkpt>
			<trkpt lat="-28.341394" lon="153.373969">
				<ele>1.449</ele>
				<time>2015-07-04T05:12:00Z</time>
				<extensions>
				</extensions>
			</trkpt>
			<trkpt lat="-28.341213" lon="153.374182">
				<ele>-0.076</ele>
				<time>2015-07-04T05:12:02Z</time>
				<extensions>
				</extensions>
			</trkpt>
			<trkpt lat="-28.341058" lon="153.374386">
				<ele>-0.951</ele>
				<time>2015-07-04T05:12:04Z</time>
				<extensions>
				</extensions>
			</trkpt>
			<trkpt lat="-28.340914" lon="153.374577">
				<ele>-2.571</ele>
				<time>2015-07-04T05:12:06Z</time>
				<extensions>
				</extensions>
			</trkpt>
			<trkpt lat="-28.340785" lon="153.374757">
				<ele>-3.047</ele>
				<time>2015-07-04T05:12:08Z</time>
				<extensions>
				</extensions>
			</trkpt>
			<trkpt lat="-28.340652" lon="153.374936">
				<ele>-4.632</ele>
				<time>2015-07-04T05:12:10Z</time>
				<extensions>
				</extensions>
			</trkpt>
			<trkpt lat="-28.340517" lon="153.375131">
				<ele>-5.134</ele>
				<time>2015-07-04T05:12:12Z</time>
				<extensions>
				</extensions>
			</trkpt>
			<trkpt lat="-28.340411" lon="153.375347">
				<ele>-6.376</ele>
				<time>2015-07-04T05:12:14Z</time>
				<extensions>
				</extensions>
			</trkpt>
			<trkpt lat="-28.340335" lon="153.375572">
				<ele>-7.672</ele>
				<time>2015-07-04T05:12:16Z</time>
				<extensions>
				</extensions>
			</trkpt>
			<trkpt lat="-28.340297" lon="153.375824">
				<ele>-9.313</ele>
				<time>2015-07-04T05:12:18Z</time>
				<extensions>
				</extensions>
			</trkpt>
			<trkpt lat="-28.340282" lon="153.376079">
				<ele>-10.642</ele>
				<time>2015-07-04T05:12:20Z</time>
				<extensions>
				</extensions>
			</trkpt>
			<trkpt lat="-28.340273" lon="153.376325">
				<ele>-11.602</ele>
				<time>2015-07-04T05:12:22Z</time>
				<extensions>
				</extensions>
			</trkpt>
			<trkpt lat="-28.340247" lon="153.376579">
				<ele>-12.185</ele>
				<time>2015-07-04T05:12:24Z</time>
				<extensions>
				</extensions>
			</trkpt>
			<trkpt lat="-28.340208" lon="153.376839">
				<ele>-12.472</ele>
				<time>2015-07-04T05:12:26Z</time>
				<extensions>
				</extensions>
			</trkpt>
			<trkpt lat="-28.340158" lon="153.377099">
				<ele>-14.171</ele>
				<time>2015-07-04T05:12:28Z</time>
				<extensions>
				</extensions>
			</trkpt>
			<trkpt lat="-28.340081" lon="153.377352">
				<ele>-14.357</ele>
				<time>2015-07-04T05:12:30Z</time>
				<extensions>
				</extensions>
			</trkpt>
			<trkpt lat="-28.339931" lon="153.377587">
				<ele>-13.461</ele>
				<time>2015-07-04T05:12:32Z</time>
				<extensions>
				</extensions>
			</trkpt>
			<trkpt lat="-28.339765" lon="153.377796">
				<ele>-13.650</ele>
				<time>2015-07-04T05:12:34Z</time>
				<extensions>
				</extensions>
			</trkpt>
			<trkpt lat="-28.339573" lon="153.377998">
				<ele>-11.843</ele>
				<time>2015-07-04T05:12:36Z</time>
				<extensions>
				</extensions>
			</trkpt>
			<trkpt lat="-28.339361" lon="153.378204">
				<ele>-11.406</ele>
				<time>2015-07-04T05:12:38Z</time>
				<extensions>
				</extensions>
			</trkpt>
			<trkpt lat="-28.339167" lon="153.378397">
				<ele>-11.382</ele>
				<time>2015-07-04T05:12:40Z</time>
				<extensions>
				</extensions>
			</trkpt>
			<trkpt lat="-28.338982" lon="153.378600">
				<ele>-11.528</ele>
				<time>2015-07-04T05:12:42Z</time>
				<extensions>
				</extensions>
			</trkpt>
			<trkpt lat="-28.338785" lon="153.378804">
				<ele>-12.966</ele>
				<time>2015-07-04T05:12:44Z</time>
				<extensions>
				</extensions>
			</trkpt>
			<trkpt lat="-28.338610" lon="153.378991">
				<ele>-13.829</ele>
				<time>2015-07-04T05:12:46Z</time>
				<extensions>
				</extensions>
			</trkpt>
			<trkpt lat="-28.338398" lon="153.379141">
				<ele>-13.578</ele>
				<time>2015-07-04T05:12:48Z</time>
				<extensions>
				</extensions>
			</trkpt>
			<trkpt lat="-28.338173" lon="153.379283">
				<ele>-14.037</ele>
				<time>2015-07-04T05:12:50Z</time>
				<extensions>
				</extensions>
			</trkpt>
			<trkpt lat="-28.337940" lon="153.379408">
				<ele>-13.788</ele>
				<time>2015-07-04T05:12:52Z</time>
				<extensions>
				</extensions>
			</trkpt>
			<trkpt lat="-28.337678" lon="153.379523">
				<ele>-13.776</ele>
				<time>2015-07-04T05:12:54Z</time>
				<extensions>
				</extensions>
			</trkpt>
			<trkpt lat="-28.337432" lon="153.379630">
				<ele>-14.193</ele>
				<time>2015-07-04T05:12:56Z</time>
				<extensions>
				</extensions>
			</trkpt>
			<trkpt lat="-28.337191" lon="153.379759">
				<ele>-14.247</ele>
				<time>2015-07-04T05:12:58Z</time>
				<extensions>
				</extensions>
			</trkpt>
			<trkpt lat="-28.336964" lon="153.379875">
				<ele>-14.321</ele>
				<time>2015-07-04T05:13:00Z</time>
				<extensions>
				</extensions>
			</trkpt>
			<trkpt lat="-28.336727" lon="153.379974">
				<ele>-14.681</ele>
				<time>2015-07-04T05:13:02Z</time>
				<extensions>
				</extensions>
			</trkpt>
			<trkpt lat="-28.336495" lon="153.380074">
				<ele>-13.895</ele>
				<time>2015-07-04T05:13:04Z</time>
				<extensions>
				</extensions>
			</trkpt>
			<trkpt lat="-28.336245" lon="153.380192">
				<ele>-12.969</ele>
				<time>2015-07-04T05:13:06Z</time>
				<extensions>
				</extensions>
			</trkpt>
			<trkpt lat="-28.335996" lon="153.380317">
				<ele>-12.630</ele>
				<time>2015-07-04T05:13:08Z</time>
				<extensions>
				</extensions>
			</trkpt>
			<trkpt lat="-28.335760" lon="153.380454">
				<ele>-13.820</ele>
				<time>2015-07-04T05:13:10Z</time>
				<extensions>
				</extensions>
			</trkpt>
			<trkpt lat="-28.335547" lon="153.380664">
				<ele>-13.466</ele>
				<time>2015-07-04T05:13:12Z</time>
				<extensions>
				</extensions>
			</trkpt>
			<trkpt lat="-28.335359" lon="153.380912">
				<ele>-13.295</ele>
				<time>2015-07-04T05:13:14Z</time>
				<extensions>
				</extensions>
			</trkpt>
			<trkpt lat="-28.335172" lon="153.381248">
				<ele>-10.191</ele>
				<time>2015-07-04T05:13:16Z</time>
				<extensions>
				</extensions>
			</trkpt>
			<trkpt lat="-28.335065" lon="153.381437">
				<ele>-9.531</ele>
				<time>2015-07-04T05:13:17Z</time>
				<extensions>
				</extensions>
			</trkpt>
			<trkpt lat="-28.334966" lon="153.381625">
				<ele>-9.892</ele>
				<time>2015-07-04T05:13:18Z</time>
				<extensions>
				</extensions>
			</trkpt>
			<trkpt lat="-28.334864" lon="153.381810">
				<ele>-10.852</ele>
				<time>2015-07-04T05:13:19Z</time>
				<extensions>
				</extensions>
			</trkpt>
			<trkpt lat="-28.334763" lon="153.381986">
				<ele>-11.320</ele>
				<time>2015-07-04T05:13:20Z</time>
				<extensions>
				</extensions>
			</trkpt>
			<trkpt lat="-28.334565" lon="153.382328">
				<ele>-12.626</ele>
				<time>2015-07-04T05:13:22Z</time>
				<extensions>
				</extensions>
			</trkpt>
			<trkpt lat="-28.334388" lon="153.382679">
				<ele>-11.102</ele>
				<time>2015-07-04T05:13:24Z</time>
				<extensions>
				</extensions>
			</trkpt>
			<trkpt lat="-28.334246" lon="153.383049">
				<ele>-10.296</ele>
				<time>2015-07-04T05:13:26Z</time>
				<extensions>
				</extensions>
			</trkpt>
			<trkpt lat="-28.334146" lon="153.383429">
				<ele>-11.084</ele>
				<time>2015-07-04T05:13:28Z</time>
				<extensions>
				</extensions>
			</trkpt>
			<trkpt lat="-28.334054" lon="153.383790">
				<ele>-11.750</ele>
				<time>2015-07-04T05:13:30Z</time>
				<extensions>
				</extensions>
			</trkpt>
			<trkpt lat="-28.333953" lon="153.384155">
				<ele>-12.274</ele>
				<time>2015-07-04T05:13:32Z</time>
				<extensions>
				</extensions>
			</trkpt>
			<trkpt lat="-28.333830" lon="153.384512">
				<ele>-11.589</ele>
				<time>2015-07-04T05:13:34Z</time>
				<extensions>
				</extensions>
			</trkpt>
			<trkpt lat="-28.333681" lon="153.384826">
				<ele>-11.975</ele>
				<time>2015-07-04T05:13:36Z</time>
				<extensions>
				</extensions>
			</trkpt>
			<trkpt lat="-28.333501" lon="153.385100">
				<ele>-13.260</ele>
				<time>2015-07-04T05:13:38Z</time>
				<extensions>
				</extensions>
			</trkpt>
			<trkpt lat="-28.333333" lon="153.385333">
				<ele>-13.813</ele>
				<time>2015-07-04T05:13:40Z</time>
				<extensions>
				</extensions>
			</trkpt>
			<trkpt lat="-28.333192" lon="153.385565">
				<ele>-14.214</ele>
				<time>2015-07-04T05:13:42Z</time>
				<extensions>
				</extensions>
			</trkpt>
			<trkpt lat="-28.333075" lon="153.385807">
				<ele>-13.618</ele>
				<time>2015-07-04T05:13:44Z</time>
				<extensions>
				</extensions>
			</trkpt>
			<trkpt lat="-28.333007" lon="153.386075">
				<ele>-13.802</ele>
				<time>2015-07-04T05:13:46Z</time>
				<extensions>
				</extensions>
			</trkpt>
			<trkpt lat="-28.333030" lon="153.386361">
				<ele>-13.008</ele>
				<time>2015-07-04T05:13:48Z</time>
				<extensions>
				</extensions>
			</trkpt>
			<trkpt lat="-28.333129" lon="153.386623">
				<ele>-12.093</ele>
				<time>2015-07-04T05:13:50Z</time>
				<extensions>
				</extensions>
			</trkpt>
			<trkpt lat="-28.333256" lon="153.386873">
				<ele>-10.868</ele>
				<time>2015-07-04T05:13:52Z</time>
				<extensions>
				</extensions>
			</trkpt>
			<trkpt lat="-28.333408" lon="153.387096">
				<ele>-10.643</ele>
				<time>2015-07-04T05:13:54Z</time>
				<extensions>
				</extensions>
			</trkpt>
			<trkpt lat="-28.333546" lon="153.387308">
				<ele>-9.744</ele>
				<time>2015-07-04T05:13:56Z</time>
				<extensions>
				</extensions>
			</trkpt>
			<trkpt lat="-28.333686" lon="153.387508">
				<ele>-9.579</ele>
				<time>2015-07-04T05:13:58Z</time>
				<extensions>
				</extensions>
			</trkpt>
			<trkpt lat="-28.333814" lon="153.387716">
				<ele>-8.877</ele>
				<time>2015-07-04T05:14:00Z</time>
				<extensions>
				</extensions>
			</trkpt>
			<trkpt lat="-28.333922" lon="153.387933">
				<ele>-7.490</ele>
				<time>2015-07-04T05:14:02Z</time>
				<extensions>
				</extensions>
			</trkpt>
			<trkpt lat="-28.333975" lon="153.388207">
				<ele>-6.596</ele>
				<time>2015-07-04T05:14:04Z</time>
				<extensions>
				</extensions>
			</trkpt>
			<trkpt lat="-28.334003" lon="153.388500">
				<ele>-5.646</ele>
				<time>2015-07-04T05:14:06Z</time>
				<extensions>
				</extensions>
			</trkpt>
			<trkpt lat="-28.334058" lon="153.388767">
				<ele>-4.308</ele>
				<time>2015-07-04T05:14:08Z</time>
				<extensions>
				</extensions>
			</trkpt>
			<trkpt lat="-28.334115" lon="153.389006">
				<ele>-3.978</ele>
				<time>2015-07-04T05:14:10Z</time>
				<extensions>
				</extensions>
			</trkpt>
			<trkpt lat="-28.334164" lon="153.389213">
				<ele>-3.868</ele>
				<time>2015-07-04T05:14:12Z</time>
				<extensions>
				</extensions>
			</trkpt>
			<trkpt lat="-28.334063" lon="153.389496">
				<ele>-1.758</ele>
				<time>2015-07-04T05:14:15Z</time>
				<extensions>
				</extensions>
			</trkpt>
			<trkpt lat="-28.333899" lon="153.389665">
				<ele>-1.266</ele>
				<time>2015-07-04T05:14:17Z</time>
				<extensions>
				</extensions>
			</trkpt>
			<trkpt lat="-28.333719" lon="153.389854">
				<ele>-1.555</ele>
				<time>2015-07-04T05:14:19Z</time>
				<extensions>
				</extensions>
			</trkpt>
			<trkpt lat="-28.333541" lon="153.390047">
				<ele>-1.616</ele>
				<time>2015-07-04T05:14:21Z</time>
				<extensions>
				</extensions>
			</trkpt>
			<trkpt lat="-28.333374" lon="153.390219">
				<ele>-2.533</ele>
				<time>2015-07-04T05:14:23Z</time>
				<extensions>
				</extensions>
			</trkpt>
			<trkpt lat="-28.333215" lon="153.390375">
				<ele>-2.794</ele>
				<time>2015-07-04T05:14:25Z</time>
				<extensions>
				</extensions>
			</trkpt>
			<trkpt lat="-28.333054" lon="153.390528">
				<ele>-2.806</ele>
				<time>2015-07-04T05:14:27Z</time>
				<extensions>
				</extensions>
			</trkpt>
			<trkpt lat="-28.332898" lon="153.390693">
				<ele>-2.686</ele>
				<time>2015-07-04T05:14:29Z</time>
				<extensions>
				</extensions>
			</trkpt>
			<trkpt lat="-28.332740" lon="153.390851">
				<ele>-3.562</ele>
				<time>2015-07-04T05:14:31Z</time>
				<extensions>
				</extensions>
			</trkpt>
			<trkpt lat="-28.332605" lon="153.390995">
				<ele>-3.920</ele>
				<time>2015-07-04T05:14:33Z</time>
				<extensions>
				</extensions>
			</trkpt>
			<trkpt lat="-28.332453" lon="153.391138">
				<ele>-4.192</ele>
				<time>2015-07-04T05:14:35Z</time>
				<extensions>
				</extensions>
			</trkpt>
			<trkpt lat="-28.332282" lon="153.391259">
				<ele>-4.807</ele>
				<time>2015-07-04T05:14:37Z</time>
				<extensions>
				</extensions>
			</trkpt>
			<trkpt lat="-28.332098" lon="153.391316">
				<ele>-5.503</ele>
				<time>2015-07-04T05:14:39Z</time>
				<extensions>
				</extensions>
			</trkpt>
			<trkpt lat="-28.331891" lon="153.391355">
				<ele>-5.073</ele>
				<time>2015-07-04T05:14:41Z</time>
				<extensions>
				</extensions>
			</trkpt>
			<trkpt lat="-28.331657" lon="153.391387">
				<ele>-5.616</ele>
				<time>2015-07-04T05:14:43Z</time>
				<extensions>
				</extensions>
			</trkpt>
			<trkpt lat="-28.331429" lon="153.391425">
				<ele>-6.948</ele>
				<time>2015-07-04T05:14:45Z</time>
				<extensions>
				</extensions>
			</trkpt>
			<trkpt lat="-28.331198" lon="153.391465">
				<ele>-7.362</ele>
				<time>2015-07-04T05:14:47Z</time>
				<extensions>
				</extensions>
			</trkpt>
			<trkpt lat="-28.330979" lon="153.391515">
				<ele>-7.904</ele>
				<time>2015-07-04T05:14:49Z</time>
				<extensions>
				</extensions>
			</trkpt>
			<trkpt lat="-28.330750" lon="153.391556">
				<ele>-7.700</ele>
				<time>2015-07-04T05:14:51Z</time>
				<extensions>
				</extensions>
			</trkpt>
			<trkpt lat="-28.330531" lon="153.391601">
				<ele>-8.307</ele>
				<time>2015-07-04T05:14:53Z</time>
				<extensions>
				</extensions>
			</trkpt>
			<trkpt lat="-28.330311" lon="153.391642">
				<ele>-8.949</ele>
				<time>2015-07-04T05:14:55Z</time>
				<extensions>
				</extensions>
			</trkpt>
			<trkpt lat="-28.330085" lon="153.391685">
				<ele>-9.996</ele>
				<time>2015-07-04T05:14:57Z</time>
				<extensions>
				</extensions>
			</trkpt>
			<trkpt lat="-28.329867" lon="153.391724">
				<ele>-10.900</ele>
				<time>2015-07-04T05:14:59Z</time>
				<extensions>
				</extensions>
			</trkpt>
			<trkpt lat="-28.329655" lon="153.391762">
				<ele>-10.959</ele>
				<time>2015-07-04T05:15:01Z</time>
				<extensions>
				</extensions>
			</trkpt>
			<trkpt lat="-28.329426" lon="153.391800">
				<ele>-11.807</ele>
				<time>2015-07-04T05:15:03Z</time>
				<extensions>
				</extensions>
			</trkpt>
			<trkpt lat="-28.329205" lon="153.391844">
				<ele>-10.659</ele>
				<time>2015-07-04T05:15:05Z</time>
				<extensions>
				</extensions>
			</trkpt>
			<trkpt lat="-28.328980" lon="153.391880">
				<ele>-10.122</ele>
				<time>2015-07-04T05:15:07Z</time>
				<extensions>
				</extensions>
			</trkpt>
			<trkpt lat="-28.328774" lon="153.391909">
				<ele>-9.536</ele>
				<time>2015-07-04T05:15:09Z</time>
				<extensions>
				</extensions>
			</trkpt>
			<trkpt lat="-28.328542" lon="153.391932">
				<ele>-8.496</ele>
				<time>2015-07-04T05:15:11Z</time>
				<extensions>
				</extensions>
			</trkpt>
			<trkpt lat="-28.328322" lon="153.391970">
				<ele>-9.056</ele>
				<time>2015-07-04T05:15:13Z</time>
				<extensions>
				</extensions>
			</trkpt>
			<trkpt lat="-28.328115" lon="153.392006">
				<ele>-9.199</ele>
				<time>2015-07-04T05:15:15Z</time>
				<extensions>
				</extensions>
			</trkpt>
			<trkpt lat="-28.327927" lon="153.392040">
				<ele>-9.665</ele>
				<time>2015-07-04T05:15:17Z</time>
				<extensions>
				</extensions>
			</trkpt>
			<trkpt lat="-28.327690" lon="153.392086">
				<ele>-9.636</ele>
				<time>2015-07-04T05:15:20Z</time>
				<extensions>
				</extensions>
			</trkpt>
			<trkpt lat="-28.327505" lon="153.392124">
				<ele>-9.250</ele>
				<time>2015-07-04T05:15:30Z</time>
				<extensions>
				</extensions>
			</trkpt>
			<trkpt lat="-28.327311" lon="153.392163">
				<ele>-7.735</ele>
				<time>2015-07-04T05:15:43Z</time>
				<extensions>
				</extensions>
			</trkpt>
			<trkpt lat="-28.327118" lon="153.392184">
				<ele>-5.856</ele>
				<time>2015-07-04T05:15:57Z</time>
				<extensions>
				</extensions>
			</trkpt>
			<trkpt lat="-28.327103" lon="153.392400">
				<ele>-5.940</ele>
				<time>2015-07-04T05:16:00Z</time>
				<extensions>
				</extensions>
			</trkpt>
			<trkpt lat="-28.327136" lon="153.392698">
				<ele>-8.136</ele>
				<time>2015-07-04T05:16:03Z</time>
				<extensions>
				</extensions>
			</trkpt>
			<trkpt lat="-28.327177" lon="153.392994">
				<ele>-9.731</ele>
				<time>2015-07-04T05:16:06Z</time>
				<extensions>
				</extensions>
			</trkpt>
			<trkpt lat="-28.327215" lon="153.393269">
				<ele>-11.730</ele>
				<time>2015-07-04T05:16:09Z</time>
				<extensions>
				</extensions>
			</trkpt>
			<trkpt lat="-28.327249" lon="153.393522">
				<ele>-12.682</ele>
				<time>2015-07-04T05:16:12Z</time>
				<extensions>
				</extensions>
			</trkpt>
			<trkpt lat="-28.327291" lon="153.393808">
				<ele>-11.991</ele>
				<time>2015-07-04T05:16:15Z</time>
				<extensions>
				</extensions>
			</trkpt>
			<trkpt lat="-28.327333" lon="153.394098">
				<ele>-13.266</ele>
				<time>2015-07-04T05:16:18Z</time>
				<extensions>
				</extensions>
			</trkpt>
			<trkpt lat="-28.327373" lon="153.394368">
				<ele>-12.836</ele>
				<time>2015-07-04T05:16:21Z</time>
				<extensions>
				</extensions>
			</trkpt>
			<trkpt lat="-28.327411" lon="153.394626">
				<ele>-12.126</ele>
				<time>2015-07-04T05:16:24Z</time>
				<extensions>
				</extensions>
			</trkpt>
			<trkpt lat="-28.327450" lon="153.394889">
				<ele>-11.899</ele>
				<time>2015-07-04T05:16:27Z</time>
				<extensions>
				</extensions>
			</trkpt>
			<trkpt lat="-28.327484" lon="153.395140">
				<ele>-12.601</ele>
				<time>2015-07-04T05:16:30Z</time>
				<extensions>
				</extensions>
			</trkpt>
			<trkpt lat="-28.327518" lon="153.395388">
				<ele>-12.883</ele>
				<time>2015-07-04T05:16:33Z</time>
				<extensions>
				</extensions>
			</trkpt>
			<trkpt lat="-28.327547" lon="153.395594">
				<ele>-13.754</ele>
				<time>2015-07-04T05:16:39Z</time>
				<extensions>
				</extensions>
			</trkpt>
			<trkpt lat="-28.327526" lon="153.395835">
				<ele>-13.328</ele>
				<time>2015-07-04T05:16:47Z</time>
				<extensions>
				</extensions>
			</trkpt>
			<trkpt lat="-28.327606" lon="153.396084">
				<ele>-13.004</ele>
				<time>2015-07-04T05:16:50Z</time>
				<extensions>
				</extensions>
			</trkpt>
			<trkpt lat="-28.327654" lon="153.396339">
				<ele>-12.756</ele>
				<time>2015-07-04T05:16:53Z</time>
				<extensions>
				</extensions>
			</trkpt>
			<trkpt lat="-28.327682" lon="153.396617">
				<ele>-12.266</ele>
				<time>2015-07-04T05:16:56Z</time>
				<extensions>
				</extensions>
			</trkpt>
			<trkpt lat="-28.327748" lon="153.396911">
				<ele>-11.697</ele>
				<time>2015-07-04T05:16:59Z</time>
				<extensions>
				</extensions>
			</trkpt>
			<trkpt lat="-28.327774" lon="153.397179">
				<ele>-11.942</ele>
				<time>2015-07-04T05:17:02Z</time>
				<extensions>
				</extensions>
			</trkpt>
			<trkpt lat="-28.327817" lon="153.397472">
				<ele>-11.692</ele>
				<time>2015-07-04T05:17:05Z</time>
				<extensions>
				</extensions>
			</trkpt>
			<trkpt lat="-28.327855" lon="153.397750">
				<ele>-11.835</ele>
				<time>2015-07-04T05:17:08Z</time>
				<extensions>
				</extensions>
			</trkpt>
			<trkpt lat="-28.327887" lon="153.397977">
				<ele>-12.358</ele>
				<time>2015-07-04T05:17:11Z</time>
				<extensions>
				</extensions>
			</trkpt>
			<trkpt lat="-28.327912" lon="153.398182">
				<ele>-12.747</ele>
				<time>2015-07-04T05:17:14Z</time>
				<extensions>
				</extensions>
			</trkpt>
			<trkpt lat="-28.327940" lon="153.398438">
				<ele>-12.105</ele>
				<time>2015-07-04T05:17:18Z</time>
				<extensions>
				</extensions>
			</trkpt>
			<trkpt lat="-28.327962" lon="153.398689">
				<ele>-11.392</ele>
				<time>2015-07-04T05:17:22Z</time>
				<extensions>
				</extensions>
			</trkpt>
			<trkpt lat="-28.327818" lon="153.398877">
				<ele>-11.931</ele>
				<time>2015-07-04T05:17:28Z</time>
				<extensions>
				</extensions>
			</trkpt>
			<trkpt lat="-28.327556" lon="153.399020">
				<ele>-11.918</ele>
				<time>2015-07-04T05:17:33Z</time>
				<extensions>
				</extensions>
			</trkpt>
			<trkpt lat="-28.327409" lon="153.399168">
				<ele>-12.462</ele>
				<time>2015-07-04T05:17:37Z</time>
				<extensions>
				</extensions>
			</trkpt>
			<trkpt lat="-28.327232" lon="153.399284">
				<ele>-12.811</ele>
				<time>2015-07-04T05:17:43Z</time>
				<extensions>
				</extensions>
			</trkpt>
			<trkpt lat="-28.327109" lon="153.399132">
				<ele>-12.828</ele>
				<time>2015-07-04T05:17:46Z</time>
				<extensions>
				</extensions>
			</trkpt>
			<trkpt lat="-28.326966" lon="153.398947">
				<ele>-12.395</ele>
				<time>2015-07-04T05:17:50Z</time>
				<extensions>
				</extensions>
			</trkpt>
			<trkpt lat="-28.326845" lon="153.398790">
				<ele>-12.087</ele>
				<time>2015-07-04T05:17:53Z</time>
				<extensions>
				</extensions>
			</trkpt>
			<trkpt lat="-28.326741" lon="153.398599">
				<ele>-12.036</ele>
				<time>2015-07-04T05:17:57Z</time>
				<extensions>
				</extensions>
			</trkpt>
			<trkpt lat="-28.326688" lon="153.398283">
				<ele>-11.908</ele>
				<time>2015-07-04T05:18:04Z</time>
				<extensions>
				</extensions>
			</trkpt>
			<trkpt lat="-28.326661" lon="153.398059">
				<ele>-11.172</ele>
				<time>2015-07-04T05:19:09Z</time>
				<extensions>
				</extensions>
			</trkpt>
			<trkpt lat="-28.326630" lon="153.397834">
				<ele>-11.167</ele>
				<time>2015-07-04T05:19:12Z</time>
				<extensions>
				</extensions>
			</trkpt>
			<trkpt lat="-28.326595" lon="153.397582">
				<ele>-11.031</ele>
				<time>2015-07-04T05:19:15Z</time>
				<extensions>
				</extensions>
			</trkpt>
			<trkpt lat="-28.326560" lon="153.397341">
				<ele>-11.402</ele>
				<time>2015-07-04T05:19:18Z</time>
				<extensions>
				</extensions>
			</trkpt>
			<trkpt lat="-28.326524" lon="153.397085">
				<ele>-11.371</ele>
				<time>2015-07-04T05:19:21Z</time>
				<extensions>
				</extensions>
			</trkpt>
			<trkpt lat="-28.326491" lon="153.396845">
				<ele>-11.527</ele>
				<time>2015-07-04T05:19:24Z</time>
				<extensions>
				</extensions>
			</trkpt>
			<trkpt lat="-28.326455" lon="153.396583">
				<ele>-11.488</ele>
				<time>2015-07-04T05:19:27Z</time>
				<extensions>
				</extensions>
			</trkpt>
			<trkpt lat="-28.326414" lon="153.396292">
				<ele>-11.083</ele>
				<time>2015-07-04T05:19:30Z</time>
				<extensions>
				</extensions>
			</trkpt>
			<trkpt lat="-28.326371" lon="153.395984">
				<ele>-10.881</ele>
				<time>2015-07-04T05:19:33Z</time>
				<extensions>
				</extensions>
			</trkpt>
			<trkpt lat="-28.326401" lon="153.395754">
				<ele>-10.528</ele>
				<time>2015-07-04T05:19:35Z</time>
				<extensions>
				</extensions>
			</trkpt>
			<trkpt lat="-28.326397" lon="153.395531">
				<ele>-11.092</ele>
				<time>2015-07-04T05:19:37Z</time>
				<extensions>
				</extensions>
			</trkpt>
			<trkpt lat="-28.326377" lon="153.395317">
				<ele>-10.504</ele>
				<time>2015-07-04T05:19:39Z</time>
				<extensions>
				</extensions>
			</trkpt>
			<trkpt lat="-28.326321" lon="153.395057">
				<ele>-9.452</ele>
				<time>2015-07-04T05:19:42Z</time>
				<extensions>
				</extensions>
			</trkpt>
			<trkpt lat="-28.326085" lon="153.395035">
				<ele>-7.985</ele>
				<time>2015-07-04T05:19:46Z</time>
				<extensions>
				</extensions>
			</trkpt>
			<trkpt lat="-28.325891" lon="153.395096">
				<ele>-7.115</ele>
				<time>2015-07-04T05:19:48Z</time>
				<extensions>
				</extensions>
			</trkpt>
			<trkpt lat="-28.325664" lon="153.395139">
				<ele>-7.749</ele>
				<time>2015-07-04T05:19:50Z</time>
				<extensions>
				</extensions>
			</trkpt>
			<trkpt lat="-28.325469" lon="153.395172">
				<ele>-7.814</ele>
				<time>2015-07-04T05:19:52Z</time>
				<extensions>
				</extensions>
			</trkpt>
			<trkpt lat="-28.325247" lon="153.395199">
				<ele>-10.206</ele>
				<time>2015-07-04T05:19:55Z</time>
				<extensions>
				</extensions>
			</trkpt>
			<trkpt lat="-28.325017" lon="153.395213">
				<ele>-10.705</ele>
				<time>2015-07-04T05:20:05Z</time>
				<extensions>
				</extensions>
			</trkpt>
			<trkpt lat="-28.324759" lon="153.395207">
				<ele>-10.337</ele>
				<time>2015-07-04T05:20:08Z</time>
				<extensions>
				</extensions>
			</trkpt>
			<trkpt lat="-28.324572" lon="153.395175">
				<ele>-11.082</ele>
				<time>2015-07-04T05:20:10Z</time>
				<extensions>
				</extensions>
			</trkpt>
			<trkpt lat="-28.324393" lon="153.395131">
				<ele>-11.979</ele>
				<time>2015-07-04T05:20:12Z</time>
				<extensions>
				</extensions>
			</trkpt>
			<trkpt lat="-28.324189" lon="153.394998">
				<ele>-14.098</ele>
				<time>2015-07-04T05:20:16Z</time>
				<extensions>
				</extensions>
			</trkpt>
			<trkpt lat="-28.324010" lon="153.395032">
				<ele>-12.750</ele>
				<time>2015-07-04T05:22:45Z</time>
				<extensions>
				</extensions>
			</trkpt>
			<trkpt lat="-28.324196" lon="153.395101">
				<ele>-11.845</ele>
				<time>2015-07-04T05:22:55Z</time>
				<extensions>
				</extensions>
			</trkpt>
			<trkpt lat="-28.324411" lon="153.395200">
				<ele>-10.482</ele>
				<time>2015-07-04T05:22:57Z</time>
				<extensions>
				</extensions>
			</trkpt>
			<trkpt lat="-28.324601" lon="153.395234">
				<ele>-8.885</ele>
				<time>2015-07-04T05:22:59Z</time>
				<extensions>
				</extensions>
			</trkpt>
			<trkpt lat="-28.324790" lon="153.395264">
				<ele>-8.148</ele>
				<time>2015-07-04T05:23:01Z</time>
				<extensions>
				</extensions>
			</trkpt>
			<trkpt lat="-28.324995" lon="153.395272">
				<ele>-7.863</ele>
				<time>2015-07-04T05:23:03Z</time>
				<extensions>
				</extensions>
			</trkpt>
			<trkpt lat="-28.325267" lon="153.395260">
				<ele>-7.414</ele>
				<time>2015-07-04T05:23:06Z</time>
				<extensions>
				</extensions>
			</trkpt>
			<trkpt lat="-28.325464" lon="153.395238">
				<ele>-6.962</ele>
				<time>2015-07-04T05:23:08Z</time>
				<extensions>
				</extensions>
			</trkpt>
			<trkpt lat="-28.325714" lon="153.395207">
				<ele>-6.483</ele>
				<time>2015-07-04T05:23:11Z</time>
				<extensions>
				</extensions>
			</trkpt>
			<trkpt lat="-28.325894" lon="153.395177">
				<ele>-6.200</ele>
				<time>2015-07-04T05:23:14Z</time>
				<extensions>
				</extensions>
			</trkpt>
			<trkpt lat="-28.326102" lon="153.395153">
				<ele>-7.377</ele>
				<time>2015-07-04T05:23:17Z</time>
				<extensions>
				</extensions>
			</trkpt>
			<trkpt lat="-28.326252" lon="153.395334">
				<ele>-8.348</ele>
				<time>2015-07-04T05:23:21Z</time>
				<extensions>
				</extensions>
			</trkpt>
			<trkpt lat="-28.326318" lon="153.395567">
				<ele>-8.759</ele>
				<time>2015-07-04T05:23:24Z</time>
				<extensions>
				</extensions>
			</trkpt>
			<trkpt lat="-28.326351" lon="153.395825">
				<ele>-8.595</ele>
				<time>2015-07-04T05:23:27Z</time>
				<extensions>
				</extensions>
			</trkpt>
			<trkpt lat="-28.326391" lon="153.396125">
				<ele>-9.002</ele>
				<time>2015-07-04T05:23:30Z</time>
				<extensions>
				</extensions>
			</trkpt>
			<trkpt lat="-28.326420" lon="153.396333">
				<ele>-8.869</ele>
				<time>2015-07-04T05:23:32Z</time>
				<extensions>
				</extensions>
			</trkpt>
			<trkpt lat="-28.326451" lon="153.396551">
				<ele>-8.233</ele>
				<time>2015-07-04T05:23:34Z</time>
				<extensions>
				</extensions>
			</trkpt>
			<trkpt lat="-28.326481" lon="153.396770">
				<ele>-8.347</ele>
				<time>2015-07-04T05:23:36Z</time>
				<extensions>
				</extensions>
			</trkpt>
			<trkpt lat="-28.326512" lon="153.396993">
				<ele>-8.157</ele>
				<time>2015-07-04T05:23:38Z</time>
				<extensions>
				</extensions>
			</trkpt>
			<trkpt lat="-28.326542" lon="153.397214">
				<ele>-8.507</ele>
				<time>2015-07-04T05:23:40Z</time>
				<extensions>
				</extensions>
			</trkpt>
			<trkpt lat="-28.326571" lon="153.397416">
				<ele>-8.710</ele>
				<time>2015-07-04T05:23:42Z</time>
				<extensions>
				</extensions>
			</trkpt>
			<trkpt lat="-28.326602" lon="153.397628">
				<ele>-8.681</ele>
				<time>2015-07-04T05:23:44Z</time>
				<extensions>
				</extensions>
			</trkpt>
			<trkpt lat="-28.326642" lon="153.397917">
				<ele>-8.604</ele>
				<time>2015-07-04T05:23:47Z</time>
				<extensions>
				</extensions>
			</trkpt>
			<trkpt lat="-28.326681" lon="153.398222">
				<ele>-8.145</ele>
				<time>2015-07-04T05:23:50Z</time>
				<extensions>
				</extensions>
			</trkpt>
			<trkpt lat="-28.326706" lon="153.398435">
				<ele>-8.842</ele>
				<time>2015-07-04T05:23:52Z</time>
				<extensions>
				</extensions>
			</trkpt>
			<trkpt lat="-28.326762" lon="153.398652">
				<ele>-9.546</ele>
				<time>2015-07-04T05:23:54Z</time>
				<extensions>
				</extensions>
			</trkpt>
			<trkpt lat="-28.326920" lon="153.398888">
				<ele>-8.920</ele>
				<time>2015-07-04T05:23:56Z</time>
				<extensions>
				</extensions>
			</trkpt>
			<trkpt lat="-28.327040" lon="153.399043">
				<ele>-10.164</ele>
				<time>2015-07-04T05:24:00Z</time>
				<extensions>
				</extensions>
			</trkpt>
			<trkpt lat="-28.327181" lon="153.399225">
				<ele>-10.691</ele>
				<time>2015-07-04T05:24:02Z</time>
				<extensions>
				</extensions>
			</trkpt>
			<trkpt lat="-28.327607" lon="153.398978">
				<ele>-10.686</ele>
				<time>2015-07-04T05:24:17Z</time>
				<extensions>
				</extensions>
			</trkpt>
			<trkpt lat="-28.327886" lon="153.398856">
				<ele>-10.017</ele>
				<time>2015-07-04T05:24:30Z</time>
				<extensions>
				</extensions>
			</trkpt>
			<trkpt lat="-28.328062" lon="153.399067">
				<ele>-8.215</ele>
				<time>2015-07-04T05:24:33Z</time>
				<extensions>
				</extensions>
			</trkpt>
			<trkpt lat="-28.328153" lon="153.399288">
				<ele>-6.840</ele>
				<time>2015-07-04T05:24:36Z</time>
				<extensions>
				</extensions>
			</trkpt>
			<trkpt lat="-28.328254" lon="153.399550">
				<ele>-6.220</ele>
				<time>2015-07-04T05:24:39Z</time>
				<extensions>
				</extensions>
			</trkpt>
			<trkpt lat="-28.328365" lon="153.399820">
				<ele>-5.734</ele>
				<time>2015-07-04T05:24:42Z</time>
				<extensions>
				</extensions>
			</trkpt>
			<trkpt lat="-28.328475" lon="153.400097">
				<ele>-6.166</ele>
				<time>2015-07-04T05:24:45Z</time>
				<extensions>
				</extensions>
			</trkpt>
			<trkpt lat="-28.328585" lon="153.400367">
				<ele>-6.582</ele>
				<time>2015-07-04T05:24:48Z</time>
				<extensions>
				</extensions>
			</trkpt>
			<trkpt lat="-28.328662" lon="153.400568">
				<ele>-6.930</ele>
				<time>2015-07-04T05:24:50Z</time>
				<extensions>
				</extensions>
			</trkpt>
			<trkpt lat="-28.328744" lon="153.400822">
				<ele>-8.262</ele>
				<time>2015-07-04T05:24:52Z</time>
				<extensions>
				</extensions>
			</trkpt>
			<trkpt lat="-28.328796" lon="153.401074">
				<ele>-5.597</ele>
				<time>2015-07-04T05:24:54Z</time>
				<extensions>
				</extensions>
			</trkpt>
			<trkpt lat="-28.328827" lon="153.401338">
				<ele>-4.576</ele>
				<time>2015-07-04T05:24:56Z</time>
				<extensions>
				</extensions>
			</trkpt>
			<trkpt lat="-28.328850" lon="153.401576">
				<ele>-2.662</ele>
				<time>2015-07-04T05:24:58Z</time>
				<extensions>
				</extensions>
			</trkpt>
			<trkpt lat="-28.328868" lon="153.401816">
				<ele>-2.201</ele>
				<time>2015-07-04T05:25:00Z</time>
				<extensions>
				</extensions>
			</trkpt>
			<trkpt lat="-28.328909" lon="153.402063">
				<ele>-2.067</ele>
				<time>2015-07-04T05:25:02Z</time>
				<extensions>
				</extensions>
			</trkpt>
			<trkpt lat="-28.328920" lon="153.402287">
				<ele>-2.742</ele>
				<time>2015-07-04T05:25:04Z</time>
				<extensions>
				</extensions>
			</trkpt>
			<trkpt lat="-28.328957" lon="153.402548">
				<ele>-3.482</ele>
				<time>2015-07-04T05:25:06Z</time>
				<extensions>
				</extensions>
			</trkpt>
			<trkpt lat="-28.329018" lon="153.402741">
				<ele>-3.619</ele>
				<time>2015-07-04T05:25:11Z</time>
				<extensions>
				</extensions>
			</trkpt>
			<trkpt lat="-28.328986" lon="153.403099">
				<ele>-2.386</ele>
				<time>2015-07-04T05:25:16Z</time>
				<extensions>
				</extensions>
			</trkpt>
			<trkpt lat="-28.328876" lon="153.403312">
				<ele>-0.831</ele>
				<time>2015-07-04T05:25:18Z</time>
				<extensions>
				</extensions>
			</trkpt>
			<trkpt lat="-28.328788" lon="153.403540">
				<ele>-0.238</ele>
				<time>2015-07-04T05:25:20Z</time>
				<extensions>
				</extensions>
			</trkpt>
			<trkpt lat="-28.328703" lon="153.403782">
				<ele>-0.582</ele>
				<time>2015-07-04T05:25:22Z</time>
				<extensions>
				</extensions>
			</trkpt>
			<trkpt lat="-28.328652" lon="153.404063">
				<ele>0.634</ele>
				<time>2015-07-04T05:25:24Z</time>
				<extensions>
				</extensions>
			</trkpt>
			<trkpt lat="-28.328583" lon="153.404367">
				<ele>1.623</ele>
				<time>2015-07-04T05:25:26Z</time>
				<extensions>
				</extensions>
			</trkpt>
			<trkpt lat="-28.328519" lon="153.404645">
				<ele>-0.367</ele>
				<time>2015-07-04T05:25:28Z</time>
				<extensions>
				</extensions>
			</trkpt>
			<trkpt lat="-28.328463" lon="153.404887">
				<ele>0.388</ele>
				<time>2015-07-04T05:25:30Z</time>
				<extensions>
				</extensions>
			</trkpt>
			<trkpt lat="-28.328391" lon="153.405155">
				<ele>-0.500</ele>
				<time>2015-07-04T05:25:32Z</time>
				<extensions>
				</extensions>
			</trkpt>
			<trkpt lat="-28.328309" lon="153.405426">
				<ele>-0.728</ele>
				<time>2015-07-04T05:25:34Z</time>
				<extensions>
				</extensions>
			</trkpt>
			<trkpt lat="-28.328232" lon="153.405718">
				<ele>0.971</ele>
				<time>2015-07-04T05:25:36Z</time>
				<extensions>
				</extensions>
			</trkpt>
			<trkpt lat="-28.328105" lon="153.406057">
				<ele>1.461</ele>
				<time>2015-07-04T05:25:38Z</time>
				<extensions>
				</extensions>
			</trkpt>
			<trkpt lat="-28.327988" lon="153.406356">
				<ele>0.778</ele>
				<time>2015-07-04T05:25:40Z</time>
				<extensions>
				</extensions>
			</trkpt>
			<trkpt lat="-28.327852" lon="153.406660">
				<ele>0.474</ele>
				<time>2015-07-04T05:25:42Z</time>
				<extensions>
				</extensions>
			</trkpt>
			<trkpt lat="-28.327735" lon="153.406955">
				<ele>-0.151</ele>
				<time>2015-07-04T05:25:44Z</time>
				<extensions>
				</extensions>
			</trkpt>
			<trkpt lat="-28.327619" lon="153.407230">
				<ele>-0.274</ele>
				<time>2015-07-04T05:25:46Z</time>
				<extensions>
				</extensions>
			</trkpt>
			<trkpt lat="-28.327516" lon="153.407490">
				<ele>-0.623</ele>
				<time>2015-07-04T05:25:48Z</time>
				<extensions>
				</extensions>
			</trkpt>
			<trkpt lat="-28.327423" lon="153.407728">
				<ele>-0.846</ele>
				<time>2015-07-04T05:25:50Z</time>
				<extensions>
				</extensions>
			</trkpt>
			<trkpt lat="-28.327326" lon="153.407938">
				<ele>-1.321</ele>
				<time>2015-07-04T05:25:52Z</time>
				<extensions>
				</extensions>
			</trkpt>
			<trkpt lat="-28.327197" lon="153.408161">
				<ele>-1.694</ele>
				<time>2015-07-04T05:25:55Z</time>
				<extensions>
				</extensions>
			</trkpt>
			<trkpt lat="-28.327073" lon="153.408362">
				<ele>-4.099</ele>
				<time>2015-07-04T05:25:59Z</time>
				<extensions>
				</extensions>
			</trkpt>
			<trkpt lat="-28.327153" lon="153.408549">
				<ele>-5.183</ele>
				<time>2015-07-04T05:26:11Z</time>
				<extensions>
				</extensions>
			</trkpt>
			<trkpt lat="-28.327281" lon="153.408401">
				<ele>-4.333</ele>
				<time>2015-07-04T05:32:41Z</time>
				<extensions>
				</extensions>
			</trkpt>
			<trkpt lat="-28.327226" lon="153.408206">
				<ele>-8.695</ele>
				<time>2015-07-04T05:33:59Z</time>
				<extensions>
				</extensions>
			</trkpt>
			<trkpt lat="-28.327165" lon="153.408319">
				<ele>-8.971</ele>
				<time>2015-07-04T05:34:06Z</time>
				<extensions>
				</extensions>
			</trkpt>
			<trkpt lat="-28.327354" lon="153.408269">
				<ele>-9.136</ele>
				<time>2015-07-04T05:37:09Z</time>
				<extensions>
				</extensions>
			</trkpt>
			<trkpt lat="-28.327355" lon="153.408048">
				<ele>-7.881</ele>
				<time>2015-07-04T05:37:44Z</time>
				<extensions>
				</extensions>
			</trkpt>
			<trkpt lat="-28.327464" lon="153.407806">
				<ele>-5.540</ele>
				<time>2015-07-04T05:37:47Z</time>
				<extensions>
				</extensions>
			</trkpt>
			<trkpt lat="-28.327563" lon="153.407590">
				<ele>-4.715</ele>
				<time>2015-07-04T05:37:49Z</time>
				<extensions>
				</extensions>
			</trkpt>
			<trkpt lat="-28.327657" lon="153.407348">
				<ele>-3.559</ele>
				<time>2015-07-04T05:37:51Z</time>
				<extensions>
				</extensions>
			</trkpt>
			<trkpt lat="-28.327767" lon="153.407078">
				<ele>-3.692</ele>
				<time>2015-07-04T05:37:53Z</time>
				<extensions>
				</extensions>
			</trkpt>
			<trkpt lat="-28.327881" lon="153.406817">
				<ele>-3.873</ele>
				<time>2015-07-04T05:37:55Z</time>
				<extensions>
				</extensions>
			</trkpt>
			<trkpt lat="-28.327981" lon="153.406564">
				<ele>-4.763</ele>
				<time>2015-07-04T05:37:57Z</time>
				<extensions>
				</extensions>
			</trkpt>
			<trkpt lat="-28.328086" lon="153.406307">
				<ele>-4.769</ele>
				<time>2015-07-04T05:37:59Z</time>
				<extensions>
				</extensions>
			</trkpt>
			<trkpt lat="-28.328191" lon="153.406057">
				<ele>-4.126</ele>
				<time>2015-07-04T05:38:01Z</time>
				<extensions>
				</extensions>
			</trkpt>
			<trkpt lat="-28.328287" lon="153.405801">
				<ele>-4.230</ele>
				<time>2015-07-04T05:38:03Z</time>
				<extensions>
				</extensions>
			</trkpt>
			<trkpt lat="-28.328365" lon="153.405535">
				<ele>-4.061</ele>
				<time>2015-07-04T05:38:05Z</time>
				<extensions>
				</extensions>
			</trkpt>
			<trkpt lat="-28.328432" lon="153.405280">
				<ele>-4.232</ele>
				<time>2015-07-04T05:38:07Z</time>
				<extensions>
				</extensions>
			</trkpt>
			<trkpt lat="-28.328495" lon="153.405015">
				<ele>-4.618</ele>
				<time>2015-07-04T05:38:09Z</time>
				<extensions>
				</extensions>
			</trkpt>
			<trkpt lat="-28.328563" lon="153.404762">
				<ele>-4.259</ele>
				<time>2015-07-04T05:38:11Z</time>
				<extensions>
				</extensions>
			</trkpt>
			<trkpt lat="-28.328631" lon="153.404499">
				<ele>-5.059</ele>
				<time>2015-07-04T05:38:13Z</time>
				<extensions>
				</extensions>
			</trkpt>
			<trkpt lat="-28.328695" lon="153.404224">
				<ele>-4.780</ele>
				<time>2015-07-04T05:38:15Z</time>
				<extensions>
				</extensions>
			</trkpt>
			<trkpt lat="-28.328760" lon="153.403959">
				<ele>-5.062</ele>
				<time>2015-07-04T05:38:17Z</time>
				<extensions>
				</extensions>
			</trkpt>
			<trkpt lat="-28.328837" lon="153.403709">
				<ele>-5.217</ele>
				<time>2015-07-04T05:38:19Z</time>
				<extensions>
				</extensions>
			</trkpt>
			<trkpt lat="-28.328923" lon="153.403468">
				<ele>-5.443</ele>
				<time>2015-07-04T05:38:21Z</time>
				<extensions>
				</extensions>
			</trkpt>
			<trkpt lat="-28.329024" lon="153.403262">
				<ele>-5.564</ele>
				<time>2015-07-04T05:38:23Z</time>
				<extensions>
				</extensions>
			</trkpt>
			<trkpt lat="-28.329148" lon="153.403084">
				<ele>-8.554</ele>
				<time>2015-07-04T05:38:27Z</time>
				<extensions>
				</extensions>
			</trkpt>
			<trkpt lat="-28.329303" lon="153.402961">
				<ele>-8.086</ele>
				<time>2015-07-04T05:38:33Z</time>
				<extensions>
				</extensions>
			</trkpt>
			<trkpt lat="-28.329276" lon="153.402745">
				<ele>-7.325</ele>
				<time>2015-07-04T05:38:37Z</time>
				<extensions>
				</extensions>
			</trkpt>
			<trkpt lat="-28.329100" lon="153.402584">
				<ele>-7.040</ele>
				<time>2015-07-04T05:38:40Z</time>
				<extensions>
				</extensions>
			</trkpt>
			<trkpt lat="-28.329009" lon="153.402311">
				<ele>-6.504</ele>
				<time>2015-07-04T05:38:43Z</time>
				<extensions>
				</extensions>
			</trkpt>
			<trkpt lat="-28.328990" lon="153.402068">
				<ele>-5.794</ele>
				<time>2015-07-04T05:38:45Z</time>
				<extensions>
				</extensions>
			</trkpt>
			<trkpt lat="-28.328971" lon="153.401818">
				<ele>-4.562</ele>
				<time>2015-07-04T05:38:47Z</time>
				<extensions>
				</extensions>
			</trkpt>
			<trkpt lat="-28.328943" lon="153.401578">
				<ele>-4.033</ele>
				<time>2015-07-04T05:38:49Z</time>
				<extensions>
				</extensions>
			</trkpt>
			<trkpt lat="-28.328913" lon="153.401340">
				<ele>-3.833</ele>
				<time>2015-07-04T05:38:51Z</time>
				<extensions>
				</extensions>
			</trkpt>
			<trkpt lat="-28.328865" lon="153.401047">
				<ele>-3.575</ele>
				<time>2015-07-04T05:38:53Z</time>
				<extensions>
				</extensions>
			</trkpt>
			<trkpt lat="-28.328791" lon="153.400796">
				<ele>-3.503</ele>
				<time>2015-07-04T05:38:55Z</time>
				<extensions>
				</extensions>
			</trkpt>
			<trkpt lat="-28.328693" lon="153.400546">
				<ele>-2.790</ele>
				<time>2015-07-04T05:38:57Z</time>
				<extensions>
				</extensions>
			</trkpt>
			<trkpt lat="-28.328589" lon="153.400311">
				<ele>-1.073</ele>
				<time>2015-07-04T05:38:59Z</time>
				<extensions>
				</extensions>
			</trkpt>
			<trkpt lat="-28.328490" lon="153.400069">
				<ele>-0.638</ele>
				<time>2015-07-04T05:39:01Z</time>
				<extensions>
				</extensions>
			</trkpt>
			<trkpt lat="-28.328401" lon="153.399834">
				<ele>-0.305</ele>
				<time>2015-07-04T05:39:03Z</time>
				<extensions>
				</extensions>
			</trkpt>
			<trkpt lat="-28.328325" lon="153.399605">
				<ele>-0.801</ele>
				<time>2015-07-04T05:39:05Z</time>
				<extensions>
				</extensions>
			</trkpt>
			<trkpt lat="-28.328237" lon="153.399397">
				<ele>-1.675</ele>
				<time>2015-07-04T05:39:07Z</time>
				<extensions>
				</extensions>
			</trkpt>
			<trkpt lat="-28.328163" lon="153.399200">
				<ele>-2.740</ele>
				<time>2015-07-04T05:39:09Z</time>
				<extensions>
				</extensions>
			</trkpt>
			<trkpt lat="-28.328076" lon="153.398960">
				<ele>-5.459</ele>
				<time>2015-07-04T05:39:12Z</time>
				<extensions>
				</extensions>
			</trkpt>
			<trkpt lat="-28.327880" lon="153.398857">
				<ele>-6.710</ele>
				<time>2015-07-04T05:39:19Z</time>
				<extensions>
				</extensions>
			</trkpt>
			<trkpt lat="-28.327676" lon="153.398929">
				<ele>-6.700</ele>
				<time>2015-07-04T05:39:23Z</time>
				<extensions>
				</extensions>
			</trkpt>
			<trkpt lat="-28.327523" lon="153.399052">
				<ele>-6.454</ele>
				<time>2015-07-04T05:39:25Z</time>
				<extensions>
				</extensions>
			</trkpt>
			<trkpt lat="-28.327377" lon="153.399202">
				<ele>-8.601</ele>
				<time>2015-07-04T05:39:28Z</time>
				<extensions>
				</extensions>
			</trkpt>
			<trkpt lat="-28.327201" lon="153.399251">
				<ele>-8.914</ele>
				<time>2015-07-04T05:39:32Z</time>
				<extensions>
				</extensions>
			</trkpt>
			<trkpt lat="-28.327054" lon="153.399060">
				<ele>-7.404</ele>
				<time>2015-07-04T05:39:36Z</time>
				<extensions>
				</extensions>
			</trkpt>
			<trkpt lat="-28.326881" lon="153.398836">
				<ele>-6.262</ele>
				<time>2015-07-04T05:39:39Z</time>
				<extensions>
				</extensions>
			</trkpt>
			<trkpt lat="-28.326736" lon="153.398584">
				<ele>-5.823</ele>
				<time>2015-07-04T05:39:42Z</time>
				<extensions>
				</extensions>
			</trkpt>
			<trkpt lat="-28.326699" lon="153.398375">
				<ele>-5.299</ele>
				<time>2015-07-04T05:39:44Z</time>
				<extensions>
				</extensions>
			</trkpt>
			<trkpt lat="-28.326661" lon="153.398062">
				<ele>-4.688</ele>
				<time>2015-07-04T05:39:47Z</time>
				<extensions>
				</extensions>
			</trkpt>
			<trkpt lat="-28.326631" lon="153.397835">
				<ele>-4.288</ele>
				<time>2015-07-04T05:39:49Z</time>
				<extensions>
				</extensions>
			</trkpt>
			<trkpt lat="-28.326598" lon="153.397606">
				<ele>-4.556</ele>
				<time>2015-07-04T05:39:51Z</time>
				<extensions>
				</extensions>
			</trkpt>
			<trkpt lat="-28.326568" lon="153.397394">
				<ele>-5.087</ele>
				<time>2015-07-04T05:39:53Z</time>
				<extensions>
				</extensions>
			</trkpt>
			<trkpt lat="-28.326534" lon="153.397153">
				<ele>-4.791</ele>
				<time>2015-07-04T05:39:55Z</time>
				<extensions>
				</extensions>
			</trkpt>
			<trkpt lat="-28.326502" lon="153.396924">
				<ele>-4.878</ele>
				<time>2015-07-04T05:39:57Z</time>
				<extensions>
				</extensions>
			</trkpt>
			<trkpt lat="-28.326473" lon="153.396715">
				<ele>-5.740</ele>
				<time>2015-07-04T05:39:59Z</time>
				<extensions>
				</extensions>
			</trkpt>
			<trkpt lat="-28.326444" lon="153.396505">
				<ele>-6.201</ele>
				<time>2015-07-04T05:40:01Z</time>
				<extensions>
				</extensions>
			</trkpt>
			<trkpt lat="-28.326402" lon="153.396199">
				<ele>-5.689</ele>
				<time>2015-07-04T05:40:04Z</time>
				<extensions>
				</extensions>
			</trkpt>
			<trkpt lat="-28.326370" lon="153.395975">
				<ele>-5.910</ele>
				<time>2015-07-04T05:40:06Z</time>
				<extensions>
				</extensions>
			</trkpt>
			<trkpt lat="-28.326400" lon="153.395740">
				<ele>-5.188</ele>
				<time>2015-07-04T05:40:08Z</time>
				<extensions>
				</extensions>
			</trkpt>
			<trkpt lat="-28.326378" lon="153.395517">
				<ele>-5.550</ele>
				<time>2015-07-04T05:40:10Z</time>
				<extensions>
				</extensions>
			</trkpt>
			<trkpt lat="-28.326344" lon="153.395310">
				<ele>-5.713</ele>
				<time>2015-07-04T05:40:12Z</time>
				<extensions>
				</extensions>
			</trkpt>
			<trkpt lat="-28.326292" lon="153.395064">
				<ele>-5.698</ele>
				<time>2015-07-04T05:40:15Z</time>
				<extensions>
				</extensions>
			</trkpt>
			<trkpt lat="-28.326037" lon="153.395075">
				<ele>-2.908</ele>
				<time>2015-07-04T05:40:20Z</time>
				<extensions>
				</extensions>
			</trkpt>
			<trkpt lat="-28.325758" lon="153.395136">
				<ele>-1.216</ele>
				<time>2015-07-04T05:40:23Z</time>
				<extensions>
				</extensions>
			</trkpt>
			<trkpt lat="-28.325530" lon="153.395174">
				<ele>-1.134</ele>
				<time>2015-07-04T05:40:25Z</time>
				<extensions>
				</extensions>
			</trkpt>
			<trkpt lat="-28.325288" lon="153.395211">
				<ele>-1.246</ele>
				<time>2015-07-04T05:40:27Z</time>
				<extensions>
				</extensions>
			</trkpt>
			<trkpt lat="-28.325029" lon="153.395228">
				<ele>-2.237</ele>
				<time>2015-07-04T05:40:29Z</time>
				<extensions>
				</extensions>
			</trkpt>
			<trkpt lat="-28.324775" lon="153.395211">
				<ele>-2.792</ele>
				<time>2015-07-04T05:40:31Z</time>
				<extensions>
				</extensions>
			</trkpt>
			<trkpt lat="-28.324540" lon="153.395171">
				<ele>-4.516</ele>
				<time>2015-07-04T05:40:33Z</time>
				<extensions>
				</extensions>
			</trkpt>
			<trkpt lat="-28.324320" lon="153.395106">
				<ele>-5.706</ele>
				<time>2015-07-04T05:40:35Z</time>
				<extensions>
				</extensions>
			</trkpt>
			<trkpt lat="-28.324126" lon="153.394989">
				<ele>-5.661</ele>
				<time>2015-07-04T05:40:37Z</time>
				<extensions>
				</extensions>
			</trkpt>
			<trkpt lat="-28.323919" lon="153.394820">
				<ele>-5.625</ele>
				<time>2015-07-04T05:40:39Z</time>
				<extensions>
				</extensions>
			</trkpt>
			<trkpt lat="-28.323719" lon="153.394647">
				<ele>-5.766</ele>
				<time>2015-07-04T05:40:41Z</time>
				<extensions>
				</extensions>
			</trkpt>
			<trkpt lat="-28.323538" lon="153.394480">
				<ele>-6.727</ele>
				<time>2015-07-04T05:40:43Z</time>
				<extensions>
				</extensions>
			</trkpt>
			<trkpt lat="-28.323386" lon="153.394359">
				<ele>-9.682</ele>
				<time>2015-07-04T05:40:45Z</time>
				<extensions>
				</extensions>
			</trkpt>
			<trkpt lat="-28.323197" lon="153.394207">
				<ele>-9.191</ele>
				<time>2015-07-04T05:40:48Z</time>
				<extensions>
				</extensions>
			</trkpt>
			<trkpt lat="-28.323037" lon="153.394095">
				<ele>-7.210</ele>
				<time>2015-07-04T05:40:50Z</time>
				<extensions>
				</extensions>
			</trkpt>
			<trkpt lat="-28.322838" lon="153.393998">
				<ele>-6.627</ele>
				<time>2015-07-04T05:40:52Z</time>
				<extensions>
				</extensions>
			</trkpt>
			<trkpt lat="-28.322621" lon="153.393933">
				<ele>-5.565</ele>
				<time>2015-07-04T05:40:54Z</time>
				<extensions>
				</extensions>
			</trkpt>
			<trkpt lat="-28.322383" lon="153.393879">
				<ele>-4.311</ele>
				<time>2015-07-04T05:40:56Z</time>
				<extensions>
				</extensions>
			</trkpt>
			<trkpt lat="-28.322202" lon="153.393828">
				<ele>-3.907</ele>
				<time>2015-07-04T05:40:57Z</time>
				<extensions>
				</extensions>
			</trkpt>
			<trkpt lat="-28.321919" lon="153.393747">
				<ele>-3.648</ele>
				<time>2015-07-04T05:40:59Z</time>
				<extensions>
				</extensions>
			</trkpt>
			<trkpt lat="-28.321625" lon="153.393665">
				<ele>-3.457</ele>
				<time>2015-07-04T05:41:01Z</time>
				<extensions>
				</extensions>
			</trkpt>
			<trkpt lat="-28.321327" lon="153.393568">
				<ele>-3.604</ele>
				<time>2015-07-04T05:41:03Z</time>
				<extensions>
				</extensions>
			</trkpt>
			<trkpt lat="-28.321012" lon="153.393481">
				<ele>-3.391</ele>
				<time>2015-07-04T05:41:05Z</time>
				<extensions>
				</extensions>
			</trkpt>
			<trkpt lat="-28.320723" lon="153.393404">
				<ele>-3.043</ele>
				<time>2015-07-04T05:41:07Z</time>
				<extensions>
				</extensions>
			</trkpt>
			<trkpt lat="-28.320446" lon="153.393336">
				<ele>-3.621</ele>
				<time>2015-07-04T05:41:09Z</time>
				<extensions>
				</extensions>
			</trkpt>
			<trkpt lat="-28.320124" lon="153.393247">
				<ele>-1.621</ele>
				<time>2015-07-04T05:41:11Z</time>
				<extensions>
				</extensions>
			</trkpt>
			<trkpt lat="-28.319944" lon="153.393191">
				<ele>-1.439</ele>
				<time>2015-07-04T05:41:12Z</time>
				<extensions>
				</extensions>
			</trkpt>
			<trkpt lat="-28.319763" lon="153.393138">
				<ele>-1.118</ele>
				<time>2015-07-04T05:41:13Z</time>
				<extensions>
				</extensions>
			</trkpt>
			<trkpt lat="-28.319579" lon="153.393084">
				<ele>-0.127</ele>
				<time>2015-07-04T05:41:14Z</time>
				<extensions>
				</extensions>
			</trkpt>
			<trkpt lat="-28.319388" lon="153.393031">
				<ele>1.428</ele>
				<time>2015-07-04T05:41:15Z</time>
				<extensions>
				</extensions>
			</trkpt>
			<trkpt lat="-28.319168" lon="153.392971">
				<ele>2.549</ele>
				<time>2015-07-04T05:41:16Z</time>
				<extensions>
				</extensions>
			</trkpt>
			<trkpt lat="-28.318961" lon="153.392910">
				<ele>4.052</ele>
				<time>2015-07-04T05:41:17Z</time>
				<extensions>
				</extensions>
			</trkpt>
			<trkpt lat="-28.318752" lon="153.392854">
				<ele>4.579</ele>
				<time>2015-07-04T05:41:18Z</time>
				<extensions>
				</extensions>
			</trkpt>
			<trkpt lat="-28.318557" lon="153.392803">
				<ele>3.315</ele>
				<time>2015-07-04T05:41:19Z</time>
				<extensions>
				</extensions>
			</trkpt>
			<trkpt lat="-28.318363" lon="153.392746">
				<ele>1.640</ele>
				<time>2015-07-04T05:41:20Z</time>
				<extensions>
				</extensions>
			</trkpt>
			<trkpt lat="-28.318177" lon="153.392693">
				<ele>1.886</ele>
				<time>2015-07-04T05:41:21Z</time>
				<extensions>
				</extensions>
			</trkpt>
			<trkpt lat="-28.317985" lon="153.392635">
				<ele>1.862</ele>
				<time>2015-07-04T05:41:22Z</time>
				<extensions>
				</extensions>
			</trkpt>
			<trkpt lat="-28.317785" lon="153.392583">
				<ele>2.001</ele>
				<time>2015-07-04T05:41:23Z</time>
				<extensions>
				</extensions>
			</trkpt>
			<trkpt lat="-28.317594" lon="153.392527">
				<ele>1.875</ele>
				<time>2015-07-04T05:41:24Z</time>
				<extensions>
				</extensions>
			</trkpt>
			<trkpt lat="-28.317409" lon="153.392478">
				<ele>0.910</ele>
				<time>2015-07-04T05:41:25Z</time>
				<extensions>
				</extensions>
			</trkpt>
			<trkpt lat="-28.317231" lon="153.392432">
				<ele>0.410</ele>
				<time>2015-07-04T05:41:26Z</time>
				<extensions>
				</extensions>
			</trkpt>
			<trkpt lat="-28.316893" lon="153.392339">
				<ele>0.100</ele>
				<time>2015-07-04T05:41:28Z</time>
				<extensions>
				</extensions>
			</trkpt>
			<trkpt lat="-28.316580" lon="153.392258">
				<ele>-1.561</ele>
				<time>2015-07-04T05:41:30Z</time>
				<extensions>
				</extensions>
			</trkpt>
			<trkpt lat="-28.316275" lon="153.392164">
				<ele>-2.412</ele>
				<time>2015-07-04T05:41:32Z</time>
				<extensions>
				</extensions>
			</trkpt>
			<trkpt lat="-28.316008" lon="153.391992">
				<ele>-3.513</ele>
				<time>2015-07-04T05:41:34Z</time>
				<extensions>
				</extensions>
			</trkpt>
			<trkpt lat="-28.315765" lon="153.391756">
				<ele>-3.350</ele>
				<time>2015-07-04T05:41:36Z</time>
				<extensions>
				</extensions>
			</trkpt>
			<trkpt lat="-28.315522" lon="153.391512">
				<ele>-2.929</ele>
				<time>2015-07-04T05:41:38Z</time>
				<extensions>
				</extensions>
			</trkpt>
			<trkpt lat="-28.315286" lon="153.391269">
				<ele>-3.673</ele>
				<time>2015-07-04T05:41:40Z</time>
				<extensions>
				</extensions>
			</trkpt>
			<trkpt lat="-28.315102" lon="153.391016">
				<ele>-5.291</ele>
				<time>2015-07-04T05:41:42Z</time>
				<extensions>
				</extensions>
			</trkpt>
			<trkpt lat="-28.315000" lon="153.390730">
				<ele>-5.575</ele>
				<time>2015-07-04T05:41:44Z</time>
				<extensions>
				</extensions>
			</trkpt>
			<trkpt lat="-28.314937" lon="153.390443">
				<ele>-5.329</ele>
				<time>2015-07-04T05:41:46Z</time>
				<extensions>
				</extensions>
			</trkpt>
			<trkpt lat="-28.314887" lon="153.390175">
				<ele>-6.194</ele>
				<time>2015-07-04T05:41:48Z</time>
				<extensions>
				</extensions>
			</trkpt>
			<trkpt lat="-28.314799" lon="153.389944">
				<ele>-5.918</ele>
				<time>2015-07-04T05:41:50Z</time>
				<extensions>
				</extensions>
			</trkpt>
			<trkpt lat="-28.314678" lon="153.389719">
				<ele>-4.622</ele>
				<time>2015-07-04T05:41:52Z</time>
				<extensions>
				</extensions>
			</trkpt>
			<trkpt lat="-28.314524" lon="153.389496">
				<ele>-3.648</ele>
				<time>2015-07-04T05:41:54Z</time>
				<extensions>
				</extensions>
			</trkpt>
			<trkpt lat="-28.314364" lon="153.389300">
				<ele>-4.051</ele>
				<time>2015-07-04T05:41:56Z</time>
				<extensions>
				</extensions>
			</trkpt>
			<trkpt lat="-28.314216" lon="153.389123">
				<ele>-5.492</ele>
				<time>2015-07-04T05:41:58Z</time>
				<extensions>
				</extensions>
			</trkpt>
			<trkpt lat="-28.314057" lon="153.388984">
				<ele>-7.552</ele>
				<time>2015-07-04T05:42:01Z</time>
				<extensions>
				</extensions>
			</trkpt>
			<trkpt lat="-28.313980" lon="153.388774">
				<ele>-7.563</ele>
				<time>2015-07-04T05:42:04Z</time>
				<extensions>
				</extensions>
			</trkpt>
			<trkpt lat="-28.314012" lon="153.388568">
				<ele>-6.570</ele>
				<time>2015-07-04T05:42:06Z</time>
				<extensions>
				</extensions>
			</trkpt>
			<trkpt lat="-28.314099" lon="153.388309">
				<ele>-4.095</ele>
				<time>2015-07-04T05:42:08Z</time>
				<extensions>
				</extensions>
			</trkpt>
			<trkpt lat="-28.314241" lon="153.388031">
				<ele>-3.123</ele>
				<time>2015-07-04T05:42:10Z</time>
				<extensions>
				</extensions>
			</trkpt>
			<trkpt lat="-28.314416" lon="153.387715">
				<ele>-0.851</ele>
				<time>2015-07-04T05:42:12Z</time>
				<extensions>
				</extensions>
			</trkpt>
			<trkpt lat="-28.314633" lon="153.387394">
				<ele>1.045</ele>
				<time>2015-07-04T05:42:14Z</time>
				<extensions>
				</extensions>
			</trkpt>
			<trkpt lat="-28.314769" lon="153.387231">
				<ele>2.056</ele>
				<time>2015-07-04T05:42:15Z</time>
				<extensions>
				</extensions>
			</trkpt>
			<trkpt lat="-28.315031" lon="153.386923">
				<ele>2.755</ele>
				<time>2015-07-04T05:42:17Z</time>
				<extensions>
				</extensions>
			</trkpt>
			<trkpt lat="-28.315168" lon="153.386757">
				<ele>3.676</ele>
				<time>2015-07-04T05:42:18Z</time>
				<extensions>
				</extensions>
			</trkpt>
			<trkpt lat="-28.315308" lon="153.386582">
				<ele>4.002</ele>
				<time>2015-07-04T05:42:19Z</time>
				<extensions>
				</extensions>
			</trkpt>
			<trkpt lat="-28.315442" lon="153.386411">
				<ele>4.714</ele>
				<time>2015-07-04T05:42:20Z</time>
				<extensions>
				</extensions>
			</trkpt>
			<trkpt lat="-28.315581" lon="153.386240">
				<ele>4.347</ele>
				<time>2015-07-04T05:42:21Z</time>
				<extensions>
				</extensions>
			</trkpt>
			<trkpt lat="-28.315715" lon="153.386067">
				<ele>5.102</ele>
				<time>2015-07-04T05:42:22Z</time>
				<extensions>
				</extensions>
			</trkpt>
			<trkpt lat="-28.315861" lon="153.385902">
				<ele>6.182</ele>
				<time>2015-07-04T05:42:23Z</time>
				<extensions>
				</extensions>
			</trkpt>
			<trkpt lat="-28.315999" lon="153.385727">
				<ele>5.574</ele>
				<time>2015-07-04T05:42:24Z</time>
				<extensions>
				</extensions>
			</trkpt>
			<trkpt lat="-28.316147" lon="153.385557">
				<ele>5.506</ele>
				<time>2015-07-04T05:42:25Z</time>
				<extensions>
				</extensions>
			</trkpt>
			<trkpt lat="-28.316290" lon="153.385376">
				<ele>4.596</ele>
				<time>2015-07-04T05:42:26Z</time>
				<extensions>
				</extensions>
			</trkpt>
			<trkpt lat="-28.316438" lon="153.385202">
				<ele>3.796</ele>
				<time>2015-07-04T05:42:27Z</time>
				<extensions>
				</extensions>
			</trkpt>
			<trkpt lat="-28.316583" lon="153.385016">
				<ele>4.053</ele>
				<time>2015-07-04T05:42:28Z</time>
				<extensions>
				</extensions>
			</trkpt>
			<trkpt lat="-28.316727" lon="153.384846">
				<ele>4.899</ele>
				<time>2015-07-04T05:42:29Z</time>
				<extensions>
				</extensions>
			</trkpt>
			<trkpt lat="-28.316872" lon="153.384669">
				<ele>5.298</ele>
				<time>2015-07-04T05:42:30Z</time>
				<extensions>
				</extensions>
			</trkpt>
			<trkpt lat="-28.317022" lon="153.384493">
				<ele>6.094</ele>
				<time>2015-07-04T05:42:31Z</time>
				<extensions>
				</extensions>
			</trkpt>
			<trkpt lat="-28.317160" lon="153.384320">
				<ele>5.039</ele>
				<time>2015-07-04T05:42:32Z</time>
				<extensions>
				</extensions>
			</trkpt>
			<trkpt lat="-28.317304" lon="153.384148">
				<ele>4.915</ele>
				<time>2015-07-04T05:42:33Z</time>
				<extensions>
				</extensions>
			</trkpt>
			<trkpt lat="-28.317461" lon="153.383963">
				<ele>5.631</ele>
				<time>2015-07-04T05:42:34Z</time>
				<extensions>
				</extensions>
			</trkpt>
			<trkpt lat="-28.317620" lon="153.383776">
				<ele>7.377</ele>
				<time>2015-07-04T05:42:35Z</time>
				<extensions>
				</extensions>
			</trkpt>
			<trkpt lat="-28.317787" lon="153.383591">
				<ele>8.438</ele>
				<time>2015-07-04T05:42:36Z</time>
				<extensions>
				</extensions>
			</trkpt>
			<trkpt lat="-28.317967" lon="153.383390">
				<ele>9.439</ele>
				<time>2015-07-04T05:42:37Z</time>
				<extensions>
				</extensions>
			</trkpt>
			<trkpt lat="-28.318152" lon="153.383178">
				<ele>8.921</ele>
				<time>2015-07-04T05:42:38Z</time>
				<extensions>
				</extensions>
			</trkpt>
			<trkpt lat="-28.318331" lon="153.382991">
				<ele>8.923</ele>
				<time>2015-07-04T05:42:39Z</time>
				<extensions>
				</extensions>
			</trkpt>
			<trkpt lat="-28.318512" lon="153.382802">
				<ele>8.724</ele>
				<time>2015-07-04T05:42:40Z</time>
				<extensions>
				</extensions>
			</trkpt>
			<trkpt lat="-28.318690" lon="153.382605">
				<ele>8.527</ele>
				<time>2015-07-04T05:42:41Z</time>
				<extensions>
				</extensions>
			</trkpt>
			<trkpt lat="-28.318862" lon="153.382406">
				<ele>8.890</ele>
				<time>2015-07-04T05:42:42Z</time>
				<extensions>
				</extensions>
			</trkpt>
			<trkpt lat="-28.319021" lon="153.382237">
				<ele>9.172</ele>
				<time>2015-07-04T05:42:43Z</time>
				<extensions>
				</extensions>
			</trkpt>
			<trkpt lat="-28.319196" lon="153.382026">
				<ele>9.232</ele>
				<time>2015-07-04T05:42:44Z</time>
				<extensions>
				</extensions>
			</trkpt>
			<trkpt lat="-28.319350" lon="153.381836">
				<ele>8.188</ele>
				<time>2015-07-04T05:42:45Z</time>
				<extensions>
				</extensions>
			</trkpt>
			<trkpt lat="-28.319505" lon="153.381641">
				<ele>6.290</ele>
				<time>2015-07-04T05:42:46Z</time>
				<extensions>
				</extensions>
			</trkpt>
			<trkpt lat="-28.319654" lon="153.381459">
				<ele>4.587</ele>
				<time>2015-07-04T05:42:47Z</time>
				<extensions>
				</extensions>
			</trkpt>
			<trkpt lat="-28.319799" lon="153.381283">
				<ele>3.845</ele>
				<time>2015-07-04T05:42:48Z</time>
				<extensions>
				</extensions>
			</trkpt>
			<trkpt lat="-28.319941" lon="153.381110">
				<ele>2.370</ele>
				<time>2015-07-04T05:42:49Z</time>
				<extensions>
				</extensions>
			</trkpt>
			<trkpt lat="-28.320073" lon="153.380940">
				<ele>2.361</ele>
				<time>2015-07-04T05:42:50Z</time>
				<extensions>
				</extensions>
			</trkpt>
			<trkpt lat="-28.320219" lon="153.380763">
				<ele>3.185</ele>
				<time>2015-07-04T05:42:51Z</time>
				<extensions>
				</extensions>
			</trkpt>
			<trkpt lat="-28.320355" lon="153.380587">
				<ele>3.469</ele>
				<time>2015-07-04T05:42:52Z</time>
				<extensions>
				</extensions>
			</trkpt>
			<trkpt lat="-28.320491" lon="153.380410">
				<ele>2.750</ele>
				<time>2015-07-04T05:42:53Z</time>
				<extensions>
				</extensions>
			</trkpt>
			<trkpt lat="-28.320634" lon="153.380234">
				<ele>3.228</ele>
				<time>2015-07-04T05:42:54Z</time>
				<extensions>
				</extensions>
			</trkpt>
			<trkpt lat="-28.320768" lon="153.380056">
				<ele>3.190</ele>
				<time>2015-07-04T05:42:55Z</time>
				<extensions>
				</extensions>
			</trkpt>
			<trkpt lat="-28.320906" lon="153.379882">
				<ele>2.964</ele>
				<time>2015-07-04T05:42:56Z</time>
				<extensions>
				</extensions>
			</trkpt>
			<trkpt lat="-28.321047" lon="153.379706">
				<ele>2.809</ele>
				<time>2015-07-04T05:42:57Z</time>
				<extensions>
				</extensions>
			</trkpt>
			<trkpt lat="-28.321194" lon="153.379536">
				<ele>3.221</ele>
				<time>2015-07-04T05:42:58Z</time>
				<extensions>
				</extensions>
			</trkpt>
			<trkpt lat="-28.321340" lon="153.379363">
				<ele>2.862</ele>
				<time>2015-07-04T05:42:59Z</time>
				<extensions>
				</extensions>
			</trkpt>
			<trkpt lat="-28.321482" lon="153.379201">
				<ele>2.143</ele>
				<time>2015-07-04T05:43:00Z</time>
				<extensions>
				</extensions>
			</trkpt>
			<trkpt lat="-28.321623" lon="153.379036">
				<ele>1.568</ele>
				<time>2015-07-04T05:43:01Z</time>
				<extensions>
				</extensions>
			</trkpt>
			<trkpt lat="-28.321764" lon="153.378865">
				<ele>2.251</ele>
				<time>2015-07-04T05:43:02Z</time>
				<extensions>
				</extensions>
			</trkpt>
			<trkpt lat="-28.321887" lon="153.378702">
				<ele>0.776</ele>
				<time>2015-07-04T05:43:03Z</time>
				<extensions>
				</extensions>
			</trkpt>
			<trkpt lat="-28.322027" lon="153.378552">
				<ele>1.055</ele>
				<time>2015-07-04T05:43:04Z</time>
				<extensions>
				</extensions>
			</trkpt>
			<trkpt lat="-28.322165" lon="153.378395">
				<ele>1.873</ele>
				<time>2015-07-04T05:43:05Z</time>
				<extensions>
				</extensions>
			</trkpt>
			<trkpt lat="-28.322293" lon="153.378242">
				<ele>1.306</ele>
				<time>2015-07-04T05:43:06Z</time>
				<extensions>
				</extensions>
			</trkpt>
			<trkpt lat="-28.322427" lon="153.378093">
				<ele>0.351</ele>
				<time>2015-07-04T05:43:07Z</time>
				<extensions>
				</extensions>
			</trkpt>
			<trkpt lat="-28.322557" lon="153.377950">
				<ele>-0.386</ele>
				<time>2015-07-04T05:43:08Z</time>
				<extensions>
				</extensions>
			</trkpt>
			<trkpt lat="-28.322787" lon="153.377645">
				<ele>-0.417</ele>
				<time>2015-07-04T05:43:10Z</time>
				<extensions>
				</extensions>
			</trkpt>
			<trkpt lat="-28.322992" lon="153.377320">
				<ele>-0.947</ele>
				<time>2015-07-04T05:43:12Z</time>
				<extensions>
				</extensions>
			</trkpt>
			<trkpt lat="-28.323079" lon="153.377141">
				<ele>-1.957</ele>
				<time>2015-07-04T05:43:13Z</time>
				<extensions>
				</extensions>
			</trkpt>
			<trkpt lat="-28.323195" lon="153.376763">
				<ele>-2.369</ele>
				<time>2015-07-04T05:43:15Z</time>
				<extensions>
				</extensions>
			</trkpt>
			<trkpt lat="-28.323237" lon="153.376375">
				<ele>-2.466</ele>
				<time>2015-07-04T05:43:17Z</time>
				<extensions>
				</extensions>
			</trkpt>
			<trkpt lat="-28.323193" lon="153.375997">
				<ele>-2.617</ele>
				<time>2015-07-04T05:43:19Z</time>
				<extensions>
				</extensions>
			</trkpt>
			<trkpt lat="-28.323089" lon="153.375649">
				<ele>-2.880</ele>
				<time>2015-07-04T05:43:21Z</time>
				<extensions>
				</extensions>
			</trkpt>
			<trkpt lat="-28.322996" lon="153.375325">
				<ele>-4.435</ele>
				<time>2015-07-04T05:43:23Z</time>
				<extensions>
				</extensions>
			</trkpt>
			<trkpt lat="-28.322988" lon="153.375004">
				<ele>-4.337</ele>
				<time>2015-07-04T05:43:25Z</time>
				<extensions>
				</extensions>
			</trkpt>
			<trkpt lat="-28.323099" lon="153.374692">
				<ele>-2.988</ele>
				<time>2015-07-04T05:43:27Z</time>
				<extensions>
				</extensions>
			</trkpt>
			<trkpt lat="-28.323296" lon="153.374461">
				<ele>-3.197</ele>
				<time>2015-07-04T05:43:29Z</time>
				<extensions>
				</extensions>
			</trkpt>
			<trkpt lat="-28.323548" lon="153.374281">
				<ele>-2.072</ele>
				<time>2015-07-04T05:43:31Z</time>
				<extensions>
				</extensions>
			</trkpt>
			<trkpt lat="-28.323753" lon="153.374051">
				<ele>-2.274</ele>
				<time>2015-07-04T05:43:33Z</time>
				<extensions>
				</extensions>
			</trkpt>
			<trkpt lat="-28.323906" lon="153.373745">
				<ele>-1.863</ele>
				<time>2015-07-04T05:43:35Z</time>
				<extensions>
				</extensions>
			</trkpt>
			<trkpt lat="-28.324025" lon="153.373372">
				<ele>-0.257</ele>
				<time>2015-07-04T05:43:37Z</time>
				<extensions>
				</extensions>
			</trkpt>
			<trkpt lat="-28.324094" lon="153.373183">
				<ele>0.650</ele>
				<time>2015-07-04T05:43:38Z</time>
				<extensions>
				</extensions>
			</trkpt>
			<trkpt lat="-28.324144" lon="153.372982">
				<ele>0.949</ele>
				<time>2015-07-04T05:43:39Z</time>
				<extensions>
				</extensions>
			</trkpt>
			<trkpt lat="-28.324201" lon="153.372785">
				<ele>1.098</ele>
				<time>2015-07-04T05:43:40Z</time>
				<extensions>
				</extensions>
			</trkpt>
			<trkpt lat="-28.324301" lon="153.372428">
				<ele>-0.384</ele>
				<time>2015-07-04T05:43:42Z</time>
				<extensions>
				</extensions>
			</trkpt>
			<trkpt lat="-28.324366" lon="153.372094">
				<ele>-2.267</ele>
				<time>2015-07-04T05:43:44Z</time>
				<extensions>
				</extensions>
			</trkpt>
			<trkpt lat="-28.324365" lon="153.371763">
				<ele>-2.954</ele>
				<time>2015-07-04T05:43:46Z</time>
				<extensions>
				</extensions>
			</trkpt>
			<trkpt lat="-28.324269" lon="153.371405">
				<ele>-1.692</ele>
				<time>2015-07-04T05:43:48Z</time>
				<extensions>
				</extensions>
			</trkpt>
			<trkpt lat="-28.324190" lon="153.371214">
				<ele>-0.402</ele>
				<time>2015-07-04T05:43:49Z</time>
				<extensions>
				</extensions>
			</trkpt>
			<trkpt lat="-28.324093" lon="153.371028">
				<ele>0.397</ele>
				<time>2015-07-04T05:43:50Z</time>
				<extensions>
				</extensions>
			</trkpt>
			<trkpt lat="-28.323917" lon="153.370694">
				<ele>-0.360</ele>
				<time>2015-07-04T05:43:52Z</time>
				<extensions>
				</extensions>
			</trkpt>
			<trkpt lat="-28.323705" lon="153.370384">
				<ele>-0.341</ele>
				<time>2015-07-04T05:43:54Z</time>
				<extensions>
				</extensions>
			</trkpt>
			<trkpt lat="-28.323577" lon="153.370233">
				<ele>-0.219</ele>
				<time>2015-07-04T05:43:55Z</time>
				<extensions>
				</extensions>
			</trkpt>
			<trkpt lat="-28.323437" lon="153.370098">
				<ele>0.966</ele>
				<time>2015-07-04T05:43:56Z</time>
				<extensions>
				</extensions>
			</trkpt>
			<trkpt lat="-28.323303" lon="153.369954">
				<ele>0.559</ele>
				<time>2015-07-04T05:43:57Z</time>
				<extensions>
				</extensions>
			</trkpt>
			<trkpt lat="-28.323171" lon="153.369813">
				<ele>-0.555</ele>
				<time>2015-07-04T05:43:58Z</time>
				<extensions>
				</extensions>
			</trkpt>
			<trkpt lat="-28.323030" lon="153.369670">
				<ele>0.029</ele>
				<time>2015-07-04T05:43:59Z</time>
				<extensions>
				</extensions>
			</trkpt>
			<trkpt lat="-28.322893" lon="153.369537">
				<ele>-0.058</ele>
				<time>2015-07-04T05:44:00Z</time>
				<extensions>
				</extensions>
			</trkpt>
			<trkpt lat="-28.322663" lon="153.369264">
				<ele>-1.414</ele>
				<time>2015-07-04T05:44:02Z</time>
				<extensions>
				</extensions>
			</trkpt>
			<trkpt lat="-28.322525" lon="153.368973">
				<ele>-2.224</ele>
				<time>2015-07-04T05:44:04Z</time>
				<extensions>
				</extensions>
			</trkpt>
			<trkpt lat="-28.322484" lon="153.368639">
				<ele>1.594</ele>
				<time>2015-07-04T05:44:06Z</time>
				<extensions>
				</extensions>
			</trkpt>
			<trkpt lat="-28.322492" lon="153.368421">
				<ele>3.252</ele>
				<time>2015-07-04T05:44:07Z</time>
				<extensions>
				</extensions>
			</trkpt>
			<trkpt lat="-28.322508" lon="153.368215">
				<ele>5.950</ele>
				<time>2015-07-04T05:44:08Z</time>
				<extensions>
				</extensions>
			</trkpt>
			<trkpt lat="-28.322519" lon="153.368007">
				<ele>6.609</ele>
				<time>2015-07-04T05:44:09Z</time>
				<extensions>
				</extensions>
			</trkpt>
			<trkpt lat="-28.322520" lon="153.367798">
				<ele>6.842</ele>
				<time>2015-07-04T05:44:10Z</time>
				<extensions>
				</extensions>
			</trkpt>
			<trkpt lat="-28.322554" lon="153.367403">
				<ele>5.367</ele>
				<time>2015-07-04T05:44:12Z</time>
				<extensions>
				</extensions>
			</trkpt>
			<trkpt lat="-28.322597" lon="153.367197">
				<ele>4.684</ele>
				<time>2015-07-04T05:44:13Z</time>
				<extensions>
				</extensions>
			</trkpt>
			<trkpt lat="-28.322662" lon="153.366823">
				<ele>2.589</ele>
				<time>2015-07-04T05:44:15Z</time>
				<extensions>
				</extensions>
			</trkpt>
			<trkpt lat="-28.322688" lon="153.366461">
				<ele>-0.037</ele>
				<time>2015-07-04T05:44:17Z</time>
				<extensions>
				</extensions>
			</trkpt>
			<trkpt lat="-28.322638" lon="153.366109">
				<ele>-0.905</ele>
				<time>2015-07-04T05:44:19Z</time>
				<extensions>
				</extensions>
			</trkpt>
			<trkpt lat="-28.322492" lon="153.365768">
				<ele>-1.467</ele>
				<time>2015-07-04T05:44:21Z</time>
				<extensions>
				</extensions>
			</trkpt>
			<trkpt lat="-28.322245" lon="153.365479">
				<ele>0.260</ele>
				<time>2015-07-04T05:44:23Z</time>
				<extensions>
				</extensions>
			</trkpt>
			<trkpt lat="-28.322093" lon="153.365355">
				<ele>0.825</ele>
				<time>2015-07-04T05:44:24Z</time>
				<extensions>
				</extensions>
			</trkpt>
			<trkpt lat="-28.321768" lon="153.365146">
				<ele>2.388</ele>
				<time>2015-07-04T05:44:26Z</time>
				<extensions>
				</extensions>
			</trkpt>
			<trkpt lat="-28.321608" lon="153.365037">
				<ele>2.077</ele>
				<time>2015-07-04T05:44:27Z</time>
				<extensions>
				</extensions>
			</trkpt>
			<trkpt lat="-28.321328" lon="153.364798">
				<ele>0.650</ele>
				<time>2015-07-04T05:44:29Z</time>
				<extensions>
				</extensions>
			</trkpt>
			<trkpt lat="-28.321074" lon="153.364532">
				<ele>-0.012</ele>
				<time>2015-07-04T05:44:31Z</time>
				<extensions>
				</extensions>
			</trkpt>
			<trkpt lat="-28.320857" lon="153.364294">
				<ele>-1.718</ele>
				<time>2015-07-04T05:44:33Z</time>
				<extensions>
				</extensions>
			</trkpt>
			<trkpt lat="-28.320726" lon="153.364020">
				<ele>-1.885</ele>
				<time>2015-07-04T05:44:35Z</time>
				<extensions>
				</extensions>
			</trkpt>
			<trkpt lat="-28.320706" lon="153.363692">
				<ele>-0.350</ele>
				<time>2015-07-04T05:44:37Z</time>
				<extensions>
				</extensions>
			</trkpt>
			<trkpt lat="-28.320739" lon="153.363304">
				<ele>1.898</ele>
				<time>2015-07-04T05:44:39Z</time>
				<extensions>
				</extensions>
			</trkpt>
			<trkpt lat="-28.320782" lon="153.362904">
				<ele>2.802</ele>
				<time>2015-07-04T05:44:41Z</time>
				<extensions>
				</extensions>
			</trkpt>
			<trkpt lat="-28.320836" lon="153.362505">
				<ele>0.958</ele>
				<time>2015-07-04T05:44:43Z</time>
				<extensions>
				</extensions>
			</trkpt>
			<trkpt lat="-28.320908" lon="153.362139">
				<ele>0.412</ele>
				<time>2015-07-04T05:44:45Z</time>
				<extensions>
				</extensions>
			</trkpt>
			<trkpt lat="-28.320988" lon="153.361789">
				<ele>1.038</ele>
				<time>2015-07-04T05:44:47Z</time>
				<extensions>
				</extensions>
			</trkpt>
			<trkpt lat="-28.321141" lon="153.361457">
				<ele>3.432</ele>
				<time>2015-07-04T05:44:49Z</time>
				<extensions>
				</extensions>
			</trkpt>
			<trkpt lat="-28.321273" lon="153.361309">
				<ele>4.620</ele>
				<time>2015-07-04T05:44:50Z</time>
				<extensions>
				</extensions>
			</trkpt>
			<trkpt lat="-28.321422" lon="153.361176">
				<ele>6.375</ele>
				<time>2015-07-04T05:44:51Z</time>
				<extensions>
				</extensions>
			</trkpt>
			<trkpt lat="-28.321588" lon="153.361024">
				<ele>8.512</ele>
				<time>2015-07-04T05:44:52Z</time>
				<extensions>
				</extensions>
			</trkpt>
			<trkpt lat="-28.321756" lon="153.360881">
				<ele>8.512</ele>
				<time>2015-07-04T05:44:53Z</time>
				<extensions>
				</extensions>
			</trkpt>
			<trkpt lat="-28.321922" lon="153.360741">
				<ele>9.214</ele>
				<time>2015-07-04T05:44:54Z</time>
				<extensions>
				</extensions>
			</trkpt>
			<trkpt lat="-28.322093" lon="153.360613">
				<ele>7.363</ele>
				<time>2015-07-04T05:44:55Z</time>
				<extensions>
				</extensions>
			</trkpt>
			<trkpt lat="-28.322255" lon="153.360493">
				<ele>7.082</ele>
				<time>2015-07-04T05:44:56Z</time>
				<extensions>
				</extensions>
			</trkpt>
			<trkpt lat="-28.322414" lon="153.360360">
				<ele>7.261</ele>
				<time>2015-07-04T05:44:57Z</time>
				<extensions>
				</extensions>
			</trkpt>
			<trkpt lat="-28.322571" lon="153.360226">
				<ele>6.331</ele>
				<time>2015-07-04T05:44:58Z</time>
				<extensions>
				</extensions>
			</trkpt>
			<trkpt lat="-28.322739" lon="153.360092">
				<ele>6.321</ele>
				<time>2015-07-04T05:44:59Z</time>
				<extensions>
				</extensions>
			</trkpt>
			<trkpt lat="-28.322907" lon="153.359960">
				<ele>6.088</ele>
				<time>2015-07-04T05:45:00Z</time>
				<extensions>
				</extensions>
			</trkpt>
			<trkpt lat="-28.323073" lon="153.359826">
				<ele>6.713</ele>
				<time>2015-07-04T05:45:01Z</time>
				<extensions>
				</extensions>
			</trkpt>
			<trkpt lat="-28.323230" lon="153.359693">
				<ele>8.041</ele>
				<time>2015-07-04T05:45:02Z</time>
				<extensions>
				</extensions>
			</trkpt>
			<trkpt lat="-28.323391" lon="153.359563">
				<ele>7.639</ele>
				<time>2015-07-04T05:45:03Z</time>
				<extensions>
				</extensions>
			</trkpt>
			<trkpt lat="-28.323551" lon="153.359435">
				<ele>6.743</ele>
				<time>2015-07-04T05:45:04Z</time>
				<extensions>
				</extensions>
			</trkpt>
			<trkpt lat="-28.323701" lon="153.359301">
				<ele>6.727</ele>
				<time>2015-07-04T05:45:05Z</time>
				<extensions>
				</extensions>
			</trkpt>
			<trkpt lat="-28.323843" lon="153.359157">
				<ele>6.338</ele>
				<time>2015-07-04T05:45:06Z</time>
				<extensions>
				</extensions>
			</trkpt>
			<trkpt lat="-28.323974" lon="153.359004">
				<ele>6.468</ele>
				<time>2015-07-04T05:45:07Z</time>
				<extensions>
				</extensions>
			</trkpt>
			<trkpt lat="-28.324096" lon="153.358830">
				<ele>7.953</ele>
				<time>2015-07-04T05:45:08Z</time>
				<extensions>
				</extensions>
			</trkpt>
			<trkpt lat="-28.324308" lon="153.358551">
				<ele>8.782</ele>
				<time>2015-07-04T05:45:10Z</time>
				<extensions>
				</extensions>
			</trkpt>
			<trkpt lat="-28.324493" lon="153.358288">
				<ele>9.222</ele>
				<time>2015-07-04T05:45:12Z</time>
				<extensions>
				</extensions>
			</trkpt>
			<trkpt lat="-28.324605" lon="153.357985">
				<ele>10.189</ele>
				<time>2015-07-04T05:45:14Z</time>
				<extensions>
				</extensions>
			</trkpt>
			<trkpt lat="-28.324627" lon="153.357676">
				<ele>11.147</ele>
				<time>2015-07-04T05:45:16Z</time>
				<extensions>
				</extensions>
			</trkpt>
			<trkpt lat="-28.324552" lon="153.357360">
				<ele>10.333</ele>
				<time>2015-07-04T05:45:18Z</time>
				<extensions>
				</extensions>
			</trkpt>
			<trkpt lat="-28.324419" lon="153.357068">
				<ele>7.981</ele>
				<time>2015-07-04T05:45:20Z</time>
				<extensions>
				</extensions>
			</trkpt>
			<trkpt lat="-28.324339" lon="153.356716">
				<ele>5.510</ele>
				<time>2015-07-04T05:45:22Z</time>
				<extensions>
				</extensions>
			</trkpt>
			<trkpt lat="-28.324408" lon="153.356341">
				<ele>3.859</ele>
				<time>2015-07-04T05:45:24Z</time>
				<extensions>
				</extensions>
			</trkpt>
			<trkpt lat="-28.324571" lon="153.355990">
				<ele>2.498</ele>
				<time>2015-07-04T05:45:26Z</time>
				<extensions>
				</extensions>
			</trkpt>
			<trkpt lat="-28.324711" lon="153.355636">
				<ele>1.599</ele>
				<time>2015-07-04T05:45:28Z</time>
				<extensions>
				</extensions>
			</trkpt>
			<trkpt lat="-28.324791" lon="153.355261">
				<ele>3.717</ele>
				<time>2015-07-04T05:45:30Z</time>
				<extensions>
				</extensions>
			</trkpt>
			<trkpt lat="-28.324892" lon="153.354871">
				<ele>6.753</ele>
				<time>2015-07-04T05:45:32Z</time>
				<extensions>
				</extensions>
			</trkpt>
			<trkpt lat="-28.325056" lon="153.354531">
				<ele>7.754</ele>
				<time>2015-07-04T05:45:34Z</time>
				<extensions>
				</extensions>
			</trkpt>
			<trkpt lat="-28.325227" lon="153.354242">
				<ele>5.894</ele>
				<time>2015-07-04T05:45:36Z</time>
				<extensions>
				</extensions>
			</trkpt>
			<trkpt lat="-28.325340" lon="153.353931">
				<ele>2.165</ele>
				<time>2015-07-04T05:45:38Z</time>
				<extensions>
				</extensions>
			</trkpt>
			<trkpt lat="-28.325350" lon="153.353607">
				<ele>1.435</ele>
				<time>2015-07-04T05:45:40Z</time>
				<extensions>
				</extensions>
			</trkpt>
			<trkpt lat="-28.325272" lon="153.353215">
				<ele>2.595</ele>
				<time>2015-07-04T05:45:42Z</time>
				<extensions>
				</extensions>
			</trkpt>
			<trkpt lat="-28.325190" lon="153.352831">
				<ele>5.906</ele>
				<time>2015-07-04T05:45:44Z</time>
				<extensions>
				</extensions>
			</trkpt>
			<trkpt lat="-28.325164" lon="153.352611">
				<ele>6.847</ele>
				<time>2015-07-04T05:45:45Z</time>
				<extensions>
				</extensions>
			</trkpt>
			<trkpt lat="-28.325145" lon="153.352397">
				<ele>7.752</ele>
				<time>2015-07-04T05:45:46Z</time>
				<extensions>
				</extensions>
			</trkpt>
			<trkpt lat="-28.325125" lon="153.352164">
				<ele>7.506</ele>
				<time>2015-07-04T05:45:47Z</time>
				<extensions>
				</extensions>
			</trkpt>
			<trkpt lat="-28.325103" lon="153.351957">
				<ele>6.585</ele>
				<time>2015-07-04T05:45:48Z</time>
				<extensions>
				</extensions>
			</trkpt>
			<trkpt lat="-28.325054" lon="153.351565">
				<ele>6.498</ele>
				<time>2015-07-04T05:45:50Z</time>
				<extensions>
				</extensions>
			</trkpt>
			<trkpt lat="-28.325005" lon="153.351184">
				<ele>6.563</ele>
				<time>2015-07-04T05:45:52Z</time>
				<extensions>
				</extensions>
			</trkpt>
			<trkpt lat="-28.324948" lon="153.350978">
				<ele>7.187</ele>
				<time>2015-07-04T05:45:53Z</time>
				<extensions>
				</extensions>
			</trkpt>
			<trkpt lat="-28.324832" lon="153.350618">
				<ele>8.049</ele>
				<time>2015-07-04T05:45:55Z</time>
				<extensions>
				</extensions>
			</trkpt>
			<trkpt lat="-28.324669" lon="153.350275">
				<ele>6.734</ele>
				<time>2015-07-04T05:45:57Z</time>
				<extensions>
				</extensions>
			</trkpt>
			<trkpt lat="-28.324558" lon="153.350095">
				<ele>6.447</ele>
				<time>2015-07-04T05:45:58Z</time>
				<extensions>
				</extensions>
			</trkpt>
			<trkpt lat="-28.324343" lon="153.349815">
				<ele>6.580</ele>
				<time>2015-07-04T05:46:00Z</time>
				<extensions>
				</extensions>
			</trkpt>
			<trkpt lat="-28.324187" lon="153.349647">
				<ele>6.970</ele>
				<time>2015-07-04T05:46:01Z</time>
				<extensions>
				</extensions>
			</trkpt>
			<trkpt lat="-28.324013" lon="153.349475">
				<ele>6.485</ele>
				<time>2015-07-04T05:46:02Z</time>
				<extensions>
				</extensions>
			</trkpt>
			<trkpt lat="-28.323870" lon="153.349337">
				<ele>6.880</ele>
				<time>2015-07-04T05:46:03Z</time>
				<extensions>
				</extensions>
			</trkpt>
			<trkpt lat="-28.323703" lon="153.349188">
				<ele>6.553</ele>
				<time>2015-07-04T05:46:04Z</time>
				<extensions>
				</extensions>
			</trkpt>
			<trkpt lat="-28.323402" lon="153.348941">
				<ele>4.850</ele>
				<time>2015-07-04T05:46:06Z</time>
				<extensions>
				</extensions>
			</trkpt>
			<trkpt lat="-28.323123" lon="153.348696">
				<ele>4.796</ele>
				<time>2015-07-04T05:46:08Z</time>
				<extensions>
				</extensions>
			</trkpt>
			<trkpt lat="-28.322992" lon="153.348553">
				<ele>4.270</ele>
				<time>2015-07-04T05:46:09Z</time>
				<extensions>
				</extensions>
			</trkpt>
			<trkpt lat="-28.322750" lon="153.348297">
				<ele>3.721</ele>
				<time>2015-07-04T05:46:11Z</time>
				<extensions>
				</extensions>
			</trkpt>
			<trkpt lat="-28.322552" lon="153.347967">
				<ele>2.543</ele>
				<time>2015-07-04T05:46:13Z</time>
				<extensions>
				</extensions>
			</trkpt>
			<trkpt lat="-28.322411" lon="153.347608">
				<ele>1.345</ele>
				<time>2015-07-04T05:46:15Z</time>
				<extensions>
				</extensions>
			</trkpt>
			<trkpt lat="-28.322290" lon="153.347280">
				<ele>1.386</ele>
				<time>2015-07-04T05:46:17Z</time>
				<extensions>
				</extensions>
			</trkpt>
			<trkpt lat="-28.322181" lon="153.346965">
				<ele>0.412</ele>
				<time>2015-07-04T05:46:19Z</time>
				<extensions>
				</extensions>
			</trkpt>
			<trkpt lat="-28.322099" lon="153.346665">
				<ele>-0.878</ele>
				<time>2015-07-04T05:46:21Z</time>
				<extensions>
				</extensions>
			</trkpt>
			<trkpt lat="-28.322023" lon="153.346444">
				<ele>-2.597</ele>
				<time>2015-07-04T05:46:23Z</time>
				<extensions>
				</extensions>
			</trkpt>
			<trkpt lat="-28.321827" lon="153.346264">
				<ele>-4.859</ele>
				<time>2015-07-04T05:46:26Z</time>
				<extensions>
				</extensions>
			</trkpt>
			<trkpt lat="-28.321641" lon="153.346258">
				<ele>-3.944</ele>
				<time>2015-07-04T05:46:28Z</time>
				<extensions>
				</extensions>
			</trkpt>
			<trkpt lat="-28.321401" lon="153.346285">
				<ele>-1.496</ele>
				<time>2015-07-04T05:46:30Z</time>
				<extensions>
				</extensions>
			</trkpt>
			<trkpt lat="-28.321135" lon="153.346315">
				<ele>0.393</ele>
				<time>2015-07-04T05:46:32Z</time>
				<extensions>
				</extensions>
			</trkpt>
			<trkpt lat="-28.320861" lon="153.346277">
				<ele>1.166</ele>
				<time>2015-07-04T05:46:34Z</time>
				<extensions>
				</extensions>
			</trkpt>
			<trkpt lat="-28.320575" lon="153.346189">
				<ele>1.296</ele>
				<time>2015-07-04T05:46:36Z</time>
				<extensions>
				</extensions>
			</trkpt>
			<trkpt lat="-28.320364" lon="153.346067">
				<ele>-1.571</ele>
				<time>2015-07-04T05:46:38Z</time>
				<extensions>
				</extensions>
			</trkpt>
			<trkpt lat="-28.320251" lon="153.345819">
				<ele>-2.326</ele>
				<time>2015-07-04T05:46:40Z</time>
				<extensions>
				</extensions>
			</trkpt>
			<trkpt lat="-28.320249" lon="153.345525">
				<ele>-1.335</ele>
				<time>2015-07-04T05:46:42Z</time>
				<extensions>
				</extensions>
			</trkpt>
			<trkpt lat="-28.320235" lon="153.345205">
				<ele>-1.471</ele>
				<time>2015-07-04T05:46:44Z</time>
				<extensions>
				</extensions>
			</trkpt>
			<trkpt lat="-28.320135" lon="153.344879">
				<ele>-0.287</ele>
				<time>2015-07-04T05:46:46Z</time>
				<extensions>
				</extensions>
			</trkpt>
			<trkpt lat="-28.319956" lon="153.344574">
				<ele>2.272</ele>
				<time>2015-07-04T05:46:48Z</time>
				<extensions>
				</extensions>
			</trkpt>
			<trkpt lat="-28.319856" lon="153.344404">
				<ele>2.026</ele>
				<time>2015-07-04T05:46:49Z</time>
				<extensions>
				</extensions>
			</trkpt>
			<trkpt lat="-28.319755" lon="153.344233">
				<ele>2.273</ele>
				<time>2015-07-04T05:46:50Z</time>
				<extensions>
				</extensions>
			</trkpt>
			<trkpt lat="-28.319654" lon="153.344058">
				<ele>2.950</ele>
				<time>2015-07-04T05:46:51Z</time>
				<extensions>
				</extensions>
			</trkpt>
			<trkpt lat="-28.319562" lon="153.343882">
				<ele>3.209</ele>
				<time>2015-07-04T05:46:52Z</time>
				<extensions>
				</extensions>
			</trkpt>
			<trkpt lat="-28.319473" lon="153.343697">
				<ele>3.379</ele>
				<time>2015-07-04T05:46:53Z</time>
				<extensions>
				</extensions>
			</trkpt>
			<trkpt lat="-28.319389" lon="153.343511">
				<ele>2.832</ele>
				<time>2015-07-04T05:46:54Z</time>
				<extensions>
				</extensions>
			</trkpt>
			<trkpt lat="-28.319256" lon="153.343142">
				<ele>3.758</ele>
				<time>2015-07-04T05:46:56Z</time>
				<extensions>
				</extensions>
			</trkpt>
			<trkpt lat="-28.319127" lon="153.342745">
				<ele>5.534</ele>
				<time>2015-07-04T05:46:58Z</time>
				<extensions>
				</extensions>
			</trkpt>
			<trkpt lat="-28.319061" lon="153.342548">
				<ele>6.204</ele>
				<time>2015-07-04T05:46:59Z</time>
				<extensions>
				</extensions>
			</trkpt>
			<trkpt lat="-28.318942" lon="153.342167">
				<ele>6.730</ele>
				<time>2015-07-04T05:47:01Z</time>
				<extensions>
				</extensions>
			</trkpt>
			<trkpt lat="-28.318878" lon="153.341973">
				<ele>7.458</ele>
				<time>2015-07-04T05:47:02Z</time>
				<extensions>
				</extensions>
			</trkpt>
			<trkpt lat="-28.318745" lon="153.341593">
				<ele>7.835</ele>
				<time>2015-07-04T05:47:04Z</time>
				<extensions>
				</extensions>
			</trkpt>
			<trkpt lat="-28.318604" lon="153.341244">
				<ele>7.493</ele>
				<time>2015-07-04T05:47:06Z</time>
				<extensions>
				</extensions>
			</trkpt>
			<trkpt lat="-28.318433" lon="153.340901">
				<ele>6.827</ele>
				<time>2015-07-04T05:47:08Z</time>
				<extensions>
				</extensions>
			</trkpt>
			<trkpt lat="-28.318275" lon="153.340542">
				<ele>6.517</ele>
				<time>2015-07-04T05:47:10Z</time>
				<extensions>
				</extensions>
			</trkpt>
			<trkpt lat="-28.318187" lon="153.340171">
				<ele>5.681</ele>
				<time>2015-07-04T05:47:12Z</time>
				<extensions>
				</extensions>
			</trkpt>
			<trkpt lat="-28.318172" lon="153.339954">
				<ele>6.687</ele>
				<time>2015-07-04T05:47:13Z</time>
				<extensions>
				</extensions>
			</trkpt>
			<trkpt lat="-28.318153" lon="153.339743">
				<ele>8.232</ele>
				<time>2015-07-04T05:47:14Z</time>
				<extensions>
				</extensions>
			</trkpt>
			<trkpt lat="-28.318130" lon="153.339511">
				<ele>8.679</ele>
				<time>2015-07-04T05:47:15Z</time>
				<extensions>
				</extensions>
			</trkpt>
			<trkpt lat="-28.318109" lon="153.339291">
				<ele>8.564</ele>
				<time>2015-07-04T05:47:16Z</time>
				<extensions>
				</extensions>
			</trkpt>
			<trkpt lat="-28.318086" lon="153.339078">
				<ele>6.764</ele>
				<time>2015-07-04T05:47:17Z</time>
				<extensions>
				</extensions>
			</trkpt>
			<trkpt lat="-28.318070" lon="153.338855">
				<ele>6.407</ele>
				<time>2015-07-04T05:47:18Z</time>
				<extensions>
				</extensions>
			</trkpt>
			<trkpt lat="-28.318047" lon="153.338628">
				<ele>6.584</ele>
				<time>2015-07-04T05:47:19Z</time>
				<extensions>
				</extensions>
			</trkpt>
			<trkpt lat="-28.318029" lon="153.338234">
				<ele>4.539</ele>
				<time>2015-07-04T05:47:21Z</time>
				<extensions>
				</extensions>
			</trkpt>
			<trkpt lat="-28.318004" lon="153.338024">
				<ele>5.156</ele>
				<time>2015-07-04T05:47:22Z</time>
				<extensions>
				</extensions>
			</trkpt>
			<trkpt lat="-28.317936" lon="153.337627">
				<ele>3.013</ele>
				<time>2015-07-04T05:47:24Z</time>
				<extensions>
				</extensions>
			</trkpt>
			<trkpt lat="-28.317932" lon="153.337420">
				<ele>2.068</ele>
				<time>2015-07-04T05:47:25Z</time>
				<extensions>
				</extensions>
			</trkpt>
			<trkpt lat="-28.317935" lon="153.337010">
				<ele>4.848</ele>
				<time>2015-07-04T05:47:27Z</time>
				<extensions>
				</extensions>
			</trkpt>
			<trkpt lat="-28.317950" lon="153.336804">
				<ele>4.822</ele>
				<time>2015-07-04T05:47:28Z</time>
				<extensions>
				</extensions>
			</trkpt>
			<trkpt lat="-28.317964" lon="153.336596">
				<ele>5.838</ele>
				<time>2015-07-04T05:47:29Z</time>
				<extensions>
				</extensions>
			</trkpt>
			<trkpt lat="-28.317993" lon="153.336386">
				<ele>6.055</ele>
				<time>2015-07-04T05:47:30Z</time>
				<extensions>
				</extensions>
			</trkpt>
			<trkpt lat="-28.318033" lon="153.336179">
				<ele>6.838</ele>
				<time>2015-07-04T05:47:31Z</time>
				<extensions>
				</extensions>
			</trkpt>
			<trkpt lat="-28.318082" lon="153.335978">
				<ele>6.703</ele>
				<time>2015-07-04T05:47:32Z</time>
				<extensions>
				</extensions>
			</trkpt>
			<trkpt lat="-28.318208" lon="153.335595">
				<ele>8.091</ele>
				<time>2015-07-04T05:47:34Z</time>
				<extensions>
				</extensions>
			</trkpt>
			<trkpt lat="-28.318295" lon="153.335381">
				<ele>8.091</ele>
				<time>2015-07-04T05:47:35Z</time>
				<extensions>
				</extensions>
			</trkpt>
			<trkpt lat="-28.318379" lon="153.335184">
				<ele>10.133</ele>
				<time>2015-07-04T05:47:36Z</time>
				<extensions>
				</extensions>
			</trkpt>
			<trkpt lat="-28.318474" lon="153.334990">
				<ele>11.269</ele>
				<time>2015-07-04T05:47:37Z</time>
				<extensions>
				</extensions>
			</trkpt>
			<trkpt lat="-28.318563" lon="153.334790">
				<ele>11.269</ele>
				<time>2015-07-04T05:47:38Z</time>
				<extensions>
				</extensions>
			</trkpt>
			<trkpt lat="-28.318664" lon="153.334587">
				<ele>11.548</ele>
				<time>2015-07-04T05:47:39Z</time>
				<extensions>
				</extensions>
			</trkpt>
			<trkpt lat="-28.318759" lon="153.334397">
				<ele>11.883</ele>
				<time>2015-07-04T05:47:40Z</time>
				<extensions>
				</extensions>
			</trkpt>
			<trkpt lat="-28.318858" lon="153.334215">
				<ele>11.864</ele>
				<time>2015-07-04T05:47:41Z</time>
				<extensions>
				</extensions>
			</trkpt>
			<trkpt lat="-28.318935" lon="153.334029">
				<ele>10.990</ele>
				<time>2015-07-04T05:47:42Z</time>
				<extensions>
				</extensions>
			</trkpt>
			<trkpt lat="-28.319112" lon="153.333678">
				<ele>9.443</ele>
				<time>2015-07-04T05:47:44Z</time>
				<extensions>
				</extensions>
			</trkpt>
			<trkpt lat="-28.319167" lon="153.333297">
				<ele>10.558</ele>
				<time>2015-07-04T05:47:46Z</time>
				<extensions>
				</extensions>
			</trkpt>
			<trkpt lat="-28.319152" lon="153.333092">
				<ele>11.020</ele>
				<time>2015-07-04T05:47:47Z</time>
				<extensions>
				</extensions>
			</trkpt>
			<trkpt lat="-28.319110" lon="153.332873">
				<ele>11.955</ele>
				<time>2015-07-04T05:47:48Z</time>
				<extensions>
				</extensions>
			</trkpt>
			<trkpt lat="-28.319051" lon="153.332674">
				<ele>12.772</ele>
				<time>2015-07-04T05:47:49Z</time>
				<extensions>
				</extensions>
			</trkpt>
			<trkpt lat="-28.318974" lon="153.332484">
				<ele>13.870</ele>
				<time>2015-07-04T05:47:50Z</time>
				<extensions>
				</extensions>
			</trkpt>
			<trkpt lat="-28.318897" lon="153.332287">
				<ele>15.397</ele>
				<time>2015-07-04T05:47:51Z</time>
				<extensions>
				</extensions>
			</trkpt>
			<trkpt lat="-28.318800" lon="153.332095">
				<ele>17.395</ele>
				<time>2015-07-04T05:47:52Z</time>
				<extensions>
				</extensions>
			</trkpt>
			<trkpt lat="-28.318703" lon="153.331903">
				<ele>18.718</ele>
				<time>2015-07-04T05:47:53Z</time>
				<extensions>
				</extensions>
			</trkpt>
			<trkpt lat="-28.318604" lon="153.331710">
				<ele>18.750</ele>
				<time>2015-07-04T05:47:54Z</time>
				<extensions>
				</extensions>
			</trkpt>
			<trkpt lat="-28.318493" lon="153.331540">
				<ele>18.154</ele>
				<time>2015-07-04T05:47:55Z</time>
				<extensions>
				</extensions>
			</trkpt>
			<trkpt lat="-28.318378" lon="153.331380">
				<ele>16.107</ele>
				<time>2015-07-04T05:47:56Z</time>
				<extensions>
				</extensions>
			</trkpt>
			<trkpt lat="-28.318055" lon="153.331105">
				<ele>15.584</ele>
				<time>2015-07-04T05:47:58Z</time>
				<extensions>
				</extensions>
			</trkpt>
			<trkpt lat="-28.317874" lon="153.330976">
				<ele>17.274</ele>
				<time>2015-07-04T05:47:59Z</time>
				<extensions>
				</extensions>
			</trkpt>
			<trkpt lat="-28.317691" lon="153.330849">
				<ele>16.156</ele>
				<time>2015-07-04T05:48:00Z</time>
				<extensions>
				</extensions>
			</trkpt>
			<trkpt lat="-28.317502" lon="153.330734">
				<ele>14.610</ele>
				<time>2015-07-04T05:48:01Z</time>
				<extensions>
				</extensions>
			</trkpt>
			<trkpt lat="-28.317323" lon="153.330613">
				<ele>13.201</ele>
				<time>2015-07-04T05:48:02Z</time>
				<extensions>
				</extensions>
			</trkpt>
			<trkpt lat="-28.317141" lon="153.330493">
				<ele>12.882</ele>
				<time>2015-07-04T05:48:03Z</time>
				<extensions>
				</extensions>
			</trkpt>
			<trkpt lat="-28.316962" lon="153.330376">
				<ele>12.820</ele>
				<time>2015-07-04T05:48:04Z</time>
				<extensions>
				</extensions>
			</trkpt>
			<trkpt lat="-28.316784" lon="153.330250">
				<ele>13.003</ele>
				<time>2015-07-04T05:48:05Z</time>
				<extensions>
				</extensions>
			</trkpt>
			<trkpt lat="-28.316606" lon="153.330128">
				<ele>13.349</ele>
				<time>2015-07-04T05:48:06Z</time>
				<extensions>
				</extensions>
			</trkpt>
			<trkpt lat="-28.316421" lon="153.329981">
				<ele>13.357</ele>
				<time>2015-07-04T05:48:07Z</time>
				<extensions>
				</extensions>
			</trkpt>
			<trkpt lat="-28.316256" lon="153.329871">
				<ele>13.141</ele>
				<time>2015-07-04T05:48:08Z</time>
				<extensions>
				</extensions>
			</trkpt>
			<trkpt lat="-28.316091" lon="153.329736">
				<ele>11.833</ele>
				<time>2015-07-04T05:48:09Z</time>
				<extensions>
				</extensions>
			</trkpt>
			<trkpt lat="-28.315938" lon="153.329601">
				<ele>12.526</ele>
				<time>2015-07-04T05:48:10Z</time>
				<extensions>
				</extensions>
			</trkpt>
			<trkpt lat="-28.315776" lon="153.329472">
				<ele>12.445</ele>
				<time>2015-07-04T05:48:11Z</time>
				<extensions>
				</extensions>
			</trkpt>
			<trkpt lat="-28.315612" lon="153.329336">
				<ele>12.504</ele>
				<time>2015-07-04T05:48:12Z</time>
				<extensions>
				</extensions>
			</trkpt>
			<trkpt lat="-28.315452" lon="153.329215">
				<ele>13.124</ele>
				<time>2015-07-04T05:48:13Z</time>
				<extensions>
				</extensions>
			</trkpt>
			<trkpt lat="-28.315279" lon="153.329101">
				<ele>13.249</ele>
				<time>2015-07-04T05:48:14Z</time>
				<extensions>
				</extensions>
			</trkpt>
			<trkpt lat="-28.315107" lon="153.328984">
				<ele>13.291</ele>
				<time>2015-07-04T05:48:15Z</time>
				<extensions>
				</extensions>
			</trkpt>
			<trkpt lat="-28.314941" lon="153.328870">
				<ele>13.618</ele>
				<time>2015-07-04T05:48:16Z</time>
				<extensions>
				</extensions>
			</trkpt>
			<trkpt lat="-28.314773" lon="153.328764">
				<ele>13.372</ele>
				<time>2015-07-04T05:48:17Z</time>
				<extensions>
				</extensions>
			</trkpt>
			<trkpt lat="-28.314598" lon="153.328653">
				<ele>13.446</ele>
				<time>2015-07-04T05:48:18Z</time>
				<extensions>
				</extensions>
			</trkpt>
			<trkpt lat="-28.314416" lon="153.328551">
				<ele>13.115</ele>
				<time>2015-07-04T05:48:19Z</time>
				<extensions>
				</extensions>
			</trkpt>
			<trkpt lat="-28.314239" lon="153.328482">
				<ele>12.722</ele>
				<time>2015-07-04T05:48:20Z</time>
				<extensions>
				</extensions>
			</trkpt>
			<trkpt lat="-28.314049" lon="153.328408">
				<ele>13.228</ele>
				<time>2015-07-04T05:48:21Z</time>
				<extensions>
				</extensions>
			</trkpt>
			<trkpt lat="-28.313857" lon="153.328359">
				<ele>13.990</ele>
				<time>2015-07-04T05:48:22Z</time>
				<extensions>
				</extensions>
			</trkpt>
			<trkpt lat="-28.313657" lon="153.328311">
				<ele>15.463</ele>
				<time>2015-07-04T05:48:23Z</time>
				<extensions>
				</extensions>
			</trkpt>
			<trkpt lat="-28.313461" lon="153.328273">
				<ele>15.612</ele>
				<time>2015-07-04T05:48:24Z</time>
				<extensions>
				</extensions>
			</trkpt>
			<trkpt lat="-28.313261" lon="153.328228">
				<ele>15.273</ele>
				<time>2015-07-04T05:48:25Z</time>
				<extensions>
				</extensions>
			</trkpt>
			<trkpt lat="-28.313061" lon="153.328187">
				<ele>14.433</ele>
				<time>2015-07-04T05:48:26Z</time>
				<extensions>
				</extensions>
			</trkpt>
			<trkpt lat="-28.312745" lon="153.328116">
				<ele>14.201</ele>
				<time>2015-07-04T05:48:28Z</time>
				<extensions>
				</extensions>
			</trkpt>
			<trkpt lat="-28.312461" lon="153.328066">
				<ele>13.203</ele>
				<time>2015-07-04T05:48:30Z</time>
				<extensions>
				</extensions>
			</trkpt>
			<trkpt lat="-28.312221" lon="153.328004">
				<ele>12.728</ele>
				<time>2015-07-04T05:48:32Z</time>
				<extensions>
				</extensions>
			</trkpt>
			<trkpt lat="-28.312019" lon="153.327837">
				<ele>12.138</ele>
				<time>2015-07-04T05:48:34Z</time>
				<extensions>
				</extensions>
			</trkpt>
			<trkpt lat="-28.311863" lon="153.327574">
				<ele>12.371</ele>
				<time>2015-07-04T05:48:36Z</time>
				<extensions>
				</extensions>
			</trkpt>
			<trkpt lat="-28.311742" lon="153.327233">
				<ele>12.646</ele>
				<time>2015-07-04T05:48:38Z</time>
				<extensions>
				</extensions>
			</trkpt>
			<trkpt lat="-28.311664" lon="153.326840">
				<ele>14.320</ele>
				<time>2015-07-04T05:48:40Z</time>
				<extensions>
				</extensions>
			</trkpt>
			<trkpt lat="-28.311646" lon="153.326632">
				<ele>15.141</ele>
				<time>2015-07-04T05:48:41Z</time>
				<extensions>
				</extensions>
			</trkpt>
			<trkpt lat="-28.311630" lon="153.326420">
				<ele>16.260</ele>
				<time>2015-07-04T05:48:42Z</time>
				<extensions>
				</extensions>
			</trkpt>
			<trkpt lat="-28.311619" lon="153.326190">
				<ele>16.651</ele>
				<time>2015-07-04T05:48:43Z</time>
				<extensions>
				</extensions>
			</trkpt>
			<trkpt lat="-28.311605" lon="153.325966">
				<ele>16.102</ele>
				<time>2015-07-04T05:48:44Z</time>
				<extensions>
				</extensions>
			</trkpt>
			<trkpt lat="-28.311591" lon="153.325749">
				<ele>15.585</ele>
				<time>2015-07-04T05:48:45Z</time>
				<extensions>
				</extensions>
			</trkpt>
			<trkpt lat="-28.311580" lon="153.325538">
				<ele>15.960</ele>
				<time>2015-07-04T05:48:46Z</time>
				<extensions>
				</extensions>
			</trkpt>
			<trkpt lat="-28.311562" lon="153.325314">
				<ele>15.973</ele>
				<time>2015-07-04T05:48:47Z</time>
				<extensions>
				</extensions>
			</trkpt>
			<trkpt lat="-28.311550" lon="153.325090">
				<ele>15.844</ele>
				<time>2015-07-04T05:48:48Z</time>
				<extensions>
				</extensions>
			</trkpt>
			<trkpt lat="-28.311542" lon="153.324873">
				<ele>16.264</ele>
				<time>2015-07-04T05:48:49Z</time>
				<extensions>
				</extensions>
			</trkpt>
			<trkpt lat="-28.311529" lon="153.324643">
				<ele>15.448</ele>
				<time>2015-07-04T05:48:50Z</time>
				<extensions>
				</extensions>
			</trkpt>
			<trkpt lat="-28.311510" lon="153.324425">
				<ele>16.965</ele>
				<time>2015-07-04T05:48:51Z</time>
				<extensions>
				</extensions>
			</trkpt>
			<trkpt lat="-28.311496" lon="153.324201">
				<ele>17.143</ele>
				<time>2015-07-04T05:48:52Z</time>
				<extensions>
				</extensions>
			</trkpt>
			<trkpt lat="-28.311484" lon="153.323985">
				<ele>14.701</ele>
				<time>2015-07-04T05:48:53Z</time>
				<extensions>
				</extensions>
			</trkpt>
			<trkpt lat="-28.311451" lon="153.323578">
				<ele>14.132</ele>
				<time>2015-07-04T05:48:55Z</time>
				<extensions>
				</extensions>
			</trkpt>
			<trkpt lat="-28.311437" lon="153.323369">
				<ele>13.687</ele>
				<time>2015-07-04T05:48:56Z</time>
				<extensions>
				</extensions>
			</trkpt>
			<trkpt lat="-28.311424" lon="153.323161">
				<ele>13.637</ele>
				<time>2015-07-04T05:48:57Z</time>
				<extensions>
				</extensions>
			</trkpt>
			<trkpt lat="-28.311401" lon="153.322954">
				<ele>13.840</ele>
				<time>2015-07-04T05:48:58Z</time>
				<extensions>
				</extensions>
			</trkpt>
			<trkpt lat="-28.311378" lon="153.322748">
				<ele>12.437</ele>
				<time>2015-07-04T05:48:59Z</time>
				<extensions>
				</extensions>
			</trkpt>
			<trkpt lat="-28.311355" lon="153.322544">
				<ele>12.437</ele>
				<time>2015-07-04T05:49:00Z</time>
				<extensions>
				</extensions>
			</trkpt>
			<trkpt lat="-28.311334" lon="153.322337">
				<ele>12.071</ele>
				<time>2015-07-04T05:49:01Z</time>
				<extensions>
				</extensions>
			</trkpt>
			<trkpt lat="-28.311287" lon="153.321948">
				<ele>11.031</ele>
				<time>2015-07-04T05:49:03Z</time>
				<extensions>
				</extensions>
			</trkpt>
			<trkpt lat="-28.311284" lon="153.321590">
				<ele>10.082</ele>
				<time>2015-07-04T05:49:05Z</time>
				<extensions>
				</extensions>
			</trkpt>
			<trkpt lat="-28.311305" lon="153.321233">
				<ele>9.283</ele>
				<time>2015-07-04T05:49:07Z</time>
				<extensions>
				</extensions>
			</trkpt>
			<trkpt lat="-28.311307" lon="153.320918">
				<ele>7.509</ele>
				<time>2015-07-04T05:49:09Z</time>
				<extensions>
				</extensions>
			</trkpt>
			<trkpt lat="-28.311320" lon="153.320682">
				<ele>5.334</ele>
				<time>2015-07-04T05:49:11Z</time>
				<extensions>
				</extensions>
			</trkpt>
			<trkpt lat="-28.311278" lon="153.320448">
				<ele>4.828</ele>
				<time>2015-07-04T05:49:13Z</time>
				<extensions>
				</extensions>
			</trkpt>
			<trkpt lat="-28.311171" lon="153.320209">
				<ele>5.813</ele>
				<time>2015-07-04T05:49:15Z</time>
				<extensions>
				</extensions>
			</trkpt>
			<trkpt lat="-28.311018" lon="153.319919">
				<ele>8.490</ele>
				<time>2015-07-04T05:49:17Z</time>
				<extensions>
				</extensions>
			</trkpt>
			<trkpt lat="-28.310846" lon="153.319601">
				<ele>9.892</ele>
				<time>2015-07-04T05:49:19Z</time>
				<extensions>
				</extensions>
			</trkpt>
			<trkpt lat="-28.310686" lon="153.319289">
				<ele>9.690</ele>
				<time>2015-07-04T05:49:21Z</time>
				<extensions>
				</extensions>
			</trkpt>
			<trkpt lat="-28.310546" lon="153.318972">
				<ele>7.415</ele>
				<time>2015-07-04T05:49:23Z</time>
				<extensions>
				</extensions>
			</trkpt>
			<trkpt lat="-28.310418" lon="153.318684">
				<ele>7.006</ele>
				<time>2015-07-04T05:49:25Z</time>
				<extensions>
				</extensions>
			</trkpt>
			<trkpt lat="-28.310294" lon="153.318403">
				<ele>5.257</ele>
				<time>2015-07-04T05:49:27Z</time>
				<extensions>
				</extensions>
			</trkpt>
			<trkpt lat="-28.310184" lon="153.318124">
				<ele>5.527</ele>
				<time>2015-07-04T05:49:29Z</time>
				<extensions>
				</extensions>
			</trkpt>
			<trkpt lat="-28.310087" lon="153.317836">
				<ele>5.547</ele>
				<time>2015-07-04T05:49:31Z</time>
				<extensions>
				</extensions>
			</trkpt>
			<trkpt lat="-28.310019" lon="153.317551">
				<ele>5.406</ele>
				<time>2015-07-04T05:49:33Z</time>
				<extensions>
				</extensions>
			</trkpt>
			<trkpt lat="-28.309939" lon="153.317259">
				<ele>5.254</ele>
				<time>2015-07-04T05:49:35Z</time>
				<extensions>
				</extensions>
			</trkpt>
			<trkpt lat="-28.309888" lon="153.316963">
				<ele>4.835</ele>
				<time>2015-07-04T05:49:37Z</time>
				<extensions>
				</extensions>
			</trkpt>
			<trkpt lat="-28.309856" lon="153.316655">
				<ele>5.458</ele>
				<time>2015-07-04T05:49:39Z</time>
				<extensions>
				</extensions>
			</trkpt>
			<trkpt lat="-28.309825" lon="153.316325">
				<ele>7.107</ele>
				<time>2015-07-04T05:49:41Z</time>
				<extensions>
				</extensions>
			</trkpt>
			<trkpt lat="-28.309821" lon="153.316007">
				<ele>6.926</ele>
				<time>2015-07-04T05:49:43Z</time>
				<extensions>
				</extensions>
			</trkpt>
			<trkpt lat="-28.309815" lon="153.315676">
				<ele>6.850</ele>
				<time>2015-07-04T05:49:45Z</time>
				<extensions>
				</extensions>
			</trkpt>
			<trkpt lat="-28.309810" lon="153.315340">
				<ele>7.026</ele>
				<time>2015-07-04T05:49:47Z</time>
				<extensions>
				</extensions>
			</trkpt>
			<trkpt lat="-28.309838" lon="153.315014">
				<ele>6.899</ele>
				<time>2015-07-04T05:49:49Z</time>
				<extensions>
				</extensions>
			</trkpt>
			<trkpt lat="-28.309848" lon="153.314686">
				<ele>7.054</ele>
				<time>2015-07-04T05:49:51Z</time>
				<extensions>
				</extensions>
			</trkpt>
			<trkpt lat="-28.309856" lon="153.314373">
				<ele>6.990</ele>
				<time>2015-07-04T05:49:53Z</time>
				<extensions>
				</extensions>
			</trkpt>
			<trkpt lat="-28.309859" lon="153.314055">
				<ele>6.417</ele>
				<time>2015-07-04T05:49:55Z</time>
				<extensions>
				</extensions>
			</trkpt>
			<trkpt lat="-28.309867" lon="153.313757">
				<ele>6.629</ele>
				<time>2015-07-04T05:49:57Z</time>
				<extensions>
				</extensions>
			</trkpt>
			<trkpt lat="-28.309884" lon="153.313462">
				<ele>6.633</ele>
				<time>2015-07-04T05:49:59Z</time>
				<extensions>
				</extensions>
			</trkpt>
			<trkpt lat="-28.309910" lon="153.313174">
				<ele>6.524</ele>
				<time>2015-07-04T05:50:01Z</time>
				<extensions>
				</extensions>
			</trkpt>
			<trkpt lat="-28.309953" lon="153.312900">
				<ele>6.571</ele>
				<time>2015-07-04T05:50:03Z</time>
				<extensions>
				</extensions>
			</trkpt>
			<trkpt lat="-28.309993" lon="153.312629">
				<ele>6.037</ele>
				<time>2015-07-04T05:50:05Z</time>
				<extensions>
				</extensions>
			</trkpt>
			<trkpt lat="-28.310028" lon="153.312363">
				<ele>6.260</ele>
				<time>2015-07-04T05:50:07Z</time>
				<extensions>
				</extensions>
			</trkpt>
			<trkpt lat="-28.310055" lon="153.312103">
				<ele>5.876</ele>
				<time>2015-07-04T05:50:09Z</time>
				<extensions>
				</extensions>
			</trkpt>
			<trkpt lat="-28.310013" lon="153.311861">
				<ele>5.644</ele>
				<time>2015-07-04T05:50:12Z</time>
				<extensions>
				</extensions>
			</trkpt>
			<trkpt lat="-28.309909" lon="153.311666">
				<ele>5.827</ele>
				<time>2015-07-04T05:50:14Z</time>
				<extensions>
				</extensions>
			</trkpt>
			<trkpt lat="-28.309712" lon="153.311463">
				<ele>6.755</ele>
				<time>2015-07-04T05:50:16Z</time>
				<extensions>
				</extensions>
			</trkpt>
			<trkpt lat="-28.309515" lon="153.311289">
				<ele>6.887</ele>
				<time>2015-07-04T05:50:18Z</time>
				<extensions>
				</extensions>
			</trkpt>
			<trkpt lat="-28.309329" lon="153.311123">
				<ele>6.697</ele>
				<time>2015-07-04T05:50:20Z</time>
				<extensions>
				</extensions>
			</trkpt>
			<trkpt lat="-28.309158" lon="153.310957">
				<ele>7.390</ele>
				<time>2015-07-04T05:50:22Z</time>
				<extensions>
				</extensions>
			</trkpt>
			<trkpt lat="-28.308996" lon="153.310801">
				<ele>6.932</ele>
				<time>2015-07-04T05:50:24Z</time>
				<extensions>
				</extensions>
			</trkpt>
			<trkpt lat="-28.308858" lon="153.310615">
				<ele>7.162</ele>
				<time>2015-07-04T05:50:26Z</time>
				<extensions>
				</extensions>
			</trkpt>
			<trkpt lat="-28.308735" lon="153.310444">
				<ele>6.472</ele>
				<time>2015-07-04T05:50:28Z</time>
				<extensions>
				</extensions>
			</trkpt>
			<trkpt lat="-28.308598" lon="153.310242">
				<ele>4.342</ele>
				<time>2015-07-04T05:50:31Z</time>
				<extensions>
				</extensions>
			</trkpt>
			<trkpt lat="-28.308473" lon="153.310058">
				<ele>5.787</ele>
				<time>2015-07-04T05:50:44Z</time>
				<extensions>
				</extensions>
			</trkpt>
			<trkpt lat="-28.308321" lon="153.309855">
				<ele>8.737</ele>
				<time>2015-07-04T05:50:46Z</time>
				<extensions>
				</extensions>
			</trkpt>
			<trkpt lat="-28.308135" lon="153.309606">
				<ele>10.638</ele>
				<time>2015-07-04T05:50:48Z</time>
				<extensions>
				</extensions>
			</trkpt>
			<trkpt lat="-28.307938" lon="153.309344">
				<ele>11.949</ele>
				<time>2015-07-04T05:50:50Z</time>
				<extensions>
				</extensions>
			</trkpt>
			<trkpt lat="-28.307750" lon="153.309111">
				<ele>11.791</ele>
				<time>2015-07-04T05:50:52Z</time>
				<extensions>
				</extensions>
			</trkpt>
			<trkpt lat="-28.307552" lon="153.308881">
				<ele>11.205</ele>
				<time>2015-07-04T05:50:54Z</time>
				<extensions>
				</extensions>
			</trkpt>
			<trkpt lat="-28.307373" lon="153.308663">
				<ele>11.326</ele>
				<time>2015-07-04T05:50:56Z</time>
				<extensions>
				</extensions>
			</trkpt>
			<trkpt lat="-28.307221" lon="153.308414">
				<ele>10.944</ele>
				<time>2015-07-04T05:50:58Z</time>
				<extensions>
				</extensions>
			</trkpt>
			<trkpt lat="-28.307212" lon="153.308173">
				<ele>9.569</ele>
				<time>2015-07-04T05:51:00Z</time>
				<extensions>
				</extensions>
			</trkpt>
			<trkpt lat="-28.307307" lon="153.307889">
				<ele>12.602</ele>
				<time>2015-07-04T05:51:02Z</time>
				<extensions>
				</extensions>
			</trkpt>
			<trkpt lat="-28.307481" lon="153.307549">
				<ele>15.129</ele>
				<time>2015-07-04T05:51:04Z</time>
				<extensions>
				</extensions>
			</trkpt>
			<trkpt lat="-28.307560" lon="153.307363">
				<ele>17.221</ele>
				<time>2015-07-04T05:51:05Z</time>
				<extensions>
				</extensions>
			</trkpt>
			<trkpt lat="-28.307714" lon="153.306985">
				<ele>18.856</ele>
				<time>2015-07-04T05:51:07Z</time>
				<extensions>
				</extensions>
			</trkpt>
			<trkpt lat="-28.307785" lon="153.306776">
				<ele>18.844</ele>
				<time>2015-07-04T05:51:08Z</time>
				<extensions>
				</extensions>
			</trkpt>
			<trkpt lat="-28.307860" lon="153.306590">
				<ele>18.547</ele>
				<time>2015-07-04T05:51:09Z</time>
				<extensions>
				</extensions>
			</trkpt>
			<trkpt lat="-28.307937" lon="153.306396">
				<ele>17.873</ele>
				<time>2015-07-04T05:51:10Z</time>
				<extensions>
				</extensions>
			</trkpt>
			<trkpt lat="-28.308028" lon="153.306207">
				<ele>18.612</ele>
				<time>2015-07-04T05:51:11Z</time>
				<extensions>
				</extensions>
			</trkpt>
			<trkpt lat="-28.308110" lon="153.306012">
				<ele>18.264</ele>
				<time>2015-07-04T05:51:12Z</time>
				<extensions>
				</extensions>
			</trkpt>
			<trkpt lat="-28.308199" lon="153.305817">
				<ele>18.539</ele>
				<time>2015-07-04T05:51:13Z</time>
				<extensions>
				</extensions>
			</trkpt>
			<trkpt lat="-28.308281" lon="153.305629">
				<ele>18.699</ele>
				<time>2015-07-04T05:51:14Z</time>
				<extensions>
				</extensions>
			</trkpt>
			<trkpt lat="-28.308362" lon="153.305434">
				<ele>18.414</ele>
				<time>2015-07-04T05:51:15Z</time>
				<extensions>
				</extensions>
			</trkpt>
			<trkpt lat="-28.308441" lon="153.305243">
				<ele>18.999</ele>
				<time>2015-07-04T05:51:16Z</time>
				<extensions>
				</extensions>
			</trkpt>
			<trkpt lat="-28.308513" lon="153.305049">
				<ele>18.616</ele>
				<time>2015-07-04T05:51:17Z</time>
				<extensions>
				</extensions>
			</trkpt>
			<trkpt lat="-28.308672" lon="153.304697">
				<ele>18.314</ele>
				<time>2015-07-04T05:51:19Z</time>
				<extensions>
				</extensions>
			</trkpt>
			<trkpt lat="-28.308836" lon="153.304379">
				<ele>16.927</ele>
				<time>2015-07-04T05:51:21Z</time>
				<extensions>
				</extensions>
			</trkpt>
			<trkpt lat="-28.308944" lon="153.304075">
				<ele>15.932</ele>
				<time>2015-07-04T05:51:23Z</time>
				<extensions>
				</extensions>
			</trkpt>
			<trkpt lat="-28.308998" lon="153.303755">
				<ele>14.971</ele>
				<time>2015-07-04T05:51:25Z</time>
				<extensions>
				</extensions>
			</trkpt>
			<trkpt lat="-28.308987" lon="153.303483">
				<ele>14.864</ele>
				<time>2015-07-04T05:51:27Z</time>
				<extensions>
				</extensions>
			</trkpt>
			<trkpt lat="-28.308897" lon="153.303236">
				<ele>15.169</ele>
				<time>2015-07-04T05:51:29Z</time>
				<extensions>
				</extensions>
			</trkpt>
			<trkpt lat="-28.308644" lon="153.303026">
				<ele>17.302</ele>
				<time>2015-07-04T05:51:31Z</time>
				<extensions>
				</extensions>
			</trkpt>
			<trkpt lat="-28.308404" lon="153.302838">
				<ele>16.374</ele>
				<time>2015-07-04T05:51:33Z</time>
				<extensions>
				</extensions>
			</trkpt>
			<trkpt lat="-28.308178" lon="153.302713">
				<ele>16.637</ele>
				<time>2015-07-04T05:51:35Z</time>
				<extensions>
				</extensions>
			</trkpt>
			<trkpt lat="-28.307890" lon="153.302677">
				<ele>18.600</ele>
				<time>2015-07-04T05:51:37Z</time>
				<extensions>
				</extensions>
			</trkpt>
			<trkpt lat="-28.307559" lon="153.302651">
				<ele>20.406</ele>
				<time>2015-07-04T05:51:39Z</time>
				<extensions>
				</extensions>
			</trkpt>
			<trkpt lat="-28.307259" lon="153.302594">
				<ele>19.951</ele>
				<time>2015-07-04T05:51:41Z</time>
				<extensions>
				</extensions>
			</trkpt>
			<trkpt lat="-28.306985" lon="153.302466">
				<ele>18.726</ele>
				<time>2015-07-04T05:51:43Z</time>
				<extensions>
				</extensions>
			</trkpt>
			<trkpt lat="-28.306765" lon="153.302264">
				<ele>18.557</ele>
				<time>2015-07-04T05:51:45Z</time>
				<extensions>
				</extensions>
			</trkpt>
			<trkpt lat="-28.306576" lon="153.302081">
				<ele>18.353</ele>
				<time>2015-07-04T05:51:47Z</time>
				<extensions>
				</extensions>
			</trkpt>
			<trkpt lat="-28.306348" lon="153.301945">
				<ele>18.367</ele>
				<time>2015-07-04T05:51:49Z</time>
				<extensions>
				</extensions>
			</trkpt>
			<trkpt lat="-28.306193" lon="153.301806">
				<ele>17.441</ele>
				<time>2015-07-04T05:51:51Z</time>
				<extensions>
				</extensions>
			</trkpt>
			<trkpt lat="-28.306116" lon="153.301551">
				<ele>17.558</ele>
				<time>2015-07-04T05:51:53Z</time>
				<extensions>
				</extensions>
			</trkpt>
			<trkpt lat="-28.306111" lon="153.301278">
				<ele>19.995</ele>
				<time>2015-07-04T05:51:55Z</time>
				<extensions>
				</extensions>
			</trkpt>
			<trkpt lat="-28.306171" lon="153.300985">
				<ele>21.310</ele>
				<time>2015-07-04T05:51:57Z</time>
				<extensions>
				</extensions>
			</trkpt>
			<trkpt lat="-28.306289" lon="153.300709">
				<ele>22.248</ele>
				<time>2015-07-04T05:51:59Z</time>
				<extensions>
				</extensions>
			</trkpt>
			<trkpt lat="-28.306490" lon="153.300446">
				<ele>23.277</ele>
				<time>2015-07-04T05:52:01Z</time>
				<extensions>
				</extensions>
			</trkpt>
			<trkpt lat="-28.306704" lon="153.300154">
				<ele>21.305</ele>
				<time>2015-07-04T05:52:03Z</time>
				<extensions>
				</extensions>
			</trkpt>
			<trkpt lat="-28.306764" lon="153.299908">
				<ele>18.256</ele>
				<time>2015-07-04T05:52:05Z</time>
				<extensions>
				</extensions>
			</trkpt>
			<trkpt lat="-28.306786" lon="153.299568">
				<ele>17.594</ele>
				<time>2015-07-04T05:52:07Z</time>
				<extensions>
				</extensions>
			</trkpt>
			<trkpt lat="-28.306933" lon="153.299216">
				<ele>19.094</ele>
				<time>2015-07-04T05:52:09Z</time>
				<extensions>
				</extensions>
			</trkpt>
			<trkpt lat="-28.307153" lon="153.298895">
				<ele>20.407</ele>
				<time>2015-07-04T05:52:11Z</time>
				<extensions>
				</extensions>
			</trkpt>
			<trkpt lat="-28.307261" lon="153.298729">
				<ele>20.565</ele>
				<time>2015-07-04T05:52:12Z</time>
				<extensions>
				</extensions>
			</trkpt>
			<trkpt lat="-28.307471" lon="153.298404">
				<ele>20.234</ele>
				<time>2015-07-04T05:52:14Z</time>
				<extensions>
				</extensions>
			</trkpt>
			<trkpt lat="-28.307682" lon="153.298118">
				<ele>19.632</ele>
				<time>2015-07-04T05:52:16Z</time>
				<extensions>
				</extensions>
			</trkpt>
			<trkpt lat="-28.307879" lon="153.297833">
				<ele>19.334</ele>
				<time>2015-07-04T05:52:18Z</time>
				<extensions>
				</extensions>
			</trkpt>
			<trkpt lat="-28.308116" lon="153.297550">
				<ele>20.869</ele>
				<time>2015-07-04T05:52:20Z</time>
				<extensions>
				</extensions>
			</trkpt>
			<trkpt lat="-28.308396" lon="153.297294">
				<ele>23.211</ele>
				<time>2015-07-04T05:52:22Z</time>
				<extensions>
				</extensions>
			</trkpt>
			<trkpt lat="-28.308541" lon="153.297157">
				<ele>23.740</ele>
				<time>2015-07-04T05:52:23Z</time>
				<extensions>
				</extensions>
			</trkpt>
			<trkpt lat="-28.308689" lon="153.297028">
				<ele>23.726</ele>
				<time>2015-07-04T05:52:24Z</time>
				<extensions>
				</extensions>
			</trkpt>
			<trkpt lat="-28.308825" lon="153.296893">
				<ele>22.422</ele>
				<time>2015-07-04T05:52:25Z</time>
				<extensions>
				</extensions>
			</trkpt>
			<trkpt lat="-28.309097" lon="153.296640">
				<ele>21.683</ele>
				<time>2015-07-04T05:52:27Z</time>
				<extensions>
				</extensions>
			</trkpt>
			<trkpt lat="-28.309304" lon="153.296456">
				<ele>20.698</ele>
				<time>2015-07-04T05:52:29Z</time>
				<extensions>
				</extensions>
			</trkpt>
			<trkpt lat="-28.309490" lon="153.296226">
				<ele>18.920</ele>
				<time>2015-07-04T05:52:31Z</time>
				<extensions>
				</extensions>
			</trkpt>
			<trkpt lat="-28.309615" lon="153.295942">
				<ele>17.813</ele>
				<time>2015-07-04T05:52:33Z</time>
				<extensions>
				</extensions>
			</trkpt>
			<trkpt lat="-28.309668" lon="153.295634">
				<ele>16.993</ele>
				<time>2015-07-04T05:52:35Z</time>
				<extensions>
				</extensions>
			</trkpt>
			<trkpt lat="-28.309631" lon="153.295333">
				<ele>17.768</ele>
				<time>2015-07-04T05:52:37Z</time>
				<extensions>
				</extensions>
			</trkpt>
			<trkpt lat="-28.309505" lon="153.295013">
				<ele>18.196</ele>
				<time>2015-07-04T05:52:39Z</time>
				<extensions>
				</extensions>
			</trkpt>
			<trkpt lat="-28.309416" lon="153.294832">
				<ele>17.739</ele>
				<time>2015-07-04T05:52:40Z</time>
				<extensions>
				</extensions>
			</trkpt>
			<trkpt lat="-28.309257" lon="153.294512">
				<ele>18.707</ele>
				<time>2015-07-04T05:52:42Z</time>
				<extensions>
				</extensions>
			</trkpt>
			<trkpt lat="-28.309110" lon="153.294195">
				<ele>17.039</ele>
				<time>2015-07-04T05:52:44Z</time>
				<extensions>
				</extensions>
			</trkpt>
			<trkpt lat="-28.309016" lon="153.293869">
				<ele>13.763</ele>
				<time>2015-07-04T05:52:46Z</time>
				<extensions>
				</extensions>
			</trkpt>
			<trkpt lat="-28.309061" lon="153.293596">
				<ele>12.674</ele>
				<time>2015-07-04T05:52:48Z</time>
				<extensions>
				</extensions>
			</trkpt>
			<trkpt lat="-28.309208" lon="153.293299">
				<ele>14.536</ele>
				<time>2015-07-04T05:52:50Z</time>
				<extensions>
				</extensions>
			</trkpt>
			<trkpt lat="-28.309384" lon="153.293013">
				<ele>15.193</ele>
				<time>2015-07-04T05:52:52Z</time>
				<extensions>
				</extensions>
			</trkpt>
			<trkpt lat="-28.309620" lon="153.292755">
				<ele>14.617</ele>
				<time>2015-07-04T05:52:54Z</time>
				<extensions>
				</extensions>
			</trkpt>
			<trkpt lat="-28.309882" lon="153.292589">
				<ele>15.178</ele>
				<time>2015-07-04T05:52:56Z</time>
				<extensions>
				</extensions>
			</trkpt>
			<trkpt lat="-28.310192" lon="153.292476">
				<ele>15.534</ele>
				<time>2015-07-04T05:52:58Z</time>
				<extensions>
				</extensions>
			</trkpt>
			<trkpt lat="-28.310492" lon="153.292437">
				<ele>14.786</ele>
				<time>2015-07-04T05:53:00Z</time>
				<extensions>
				</extensions>
			</trkpt>
			<trkpt lat="-28.310714" lon="153.292398">
				<ele>13.838</ele>
				<time>2015-07-04T05:53:02Z</time>
				<extensions>
				</extensions>
			</trkpt>
			<trkpt lat="-28.310897" lon="153.292301">
				<ele>14.282</ele>
				<time>2015-07-04T05:53:04Z</time>
				<extensions>
				</extensions>
			</trkpt>
			<trkpt lat="-28.311045" lon="153.292039">
				<ele>16.746</ele>
				<time>2015-07-04T05:53:06Z</time>
				<extensions>
				</extensions>
			</trkpt>
			<trkpt lat="-28.311195" lon="153.291713">
				<ele>18.643</ele>
				<time>2015-07-04T05:53:08Z</time>
				<extensions>
				</extensions>
			</trkpt>
			<trkpt lat="-28.311378" lon="153.291395">
				<ele>19.754</ele>
				<time>2015-07-04T05:53:10Z</time>
				<extensions>
				</extensions>
			</trkpt>
			<trkpt lat="-28.311490" lon="153.291233">
				<ele>19.792</ele>
				<time>2015-07-04T05:53:11Z</time>
				<extensions>
				</extensions>
			</trkpt>
			<trkpt lat="-28.311724" lon="153.290921">
				<ele>21.285</ele>
				<time>2015-07-04T05:53:13Z</time>
				<extensions>
				</extensions>
			</trkpt>
			<trkpt lat="-28.311973" lon="153.290660">
				<ele>21.803</ele>
				<time>2015-07-04T05:53:15Z</time>
				<extensions>
				</extensions>
			</trkpt>
			<trkpt lat="-28.312224" lon="153.290410">
				<ele>20.577</ele>
				<time>2015-07-04T05:53:17Z</time>
				<extensions>
				</extensions>
			</trkpt>
			<trkpt lat="-28.312446" lon="153.290118">
				<ele>20.746</ele>
				<time>2015-07-04T05:53:19Z</time>
				<extensions>
				</extensions>
			</trkpt>
			<trkpt lat="-28.312605" lon="153.289742">
				<ele>22.440</ele>
				<time>2015-07-04T05:53:21Z</time>
				<extensions>
				</extensions>
			</trkpt>
			<trkpt lat="-28.312690" lon="153.289544">
				<ele>23.788</ele>
				<time>2015-07-04T05:53:22Z</time>
				<extensions>
				</extensions>
			</trkpt>
			<trkpt lat="-28.312742" lon="153.289336">
				<ele>25.759</ele>
				<time>2015-07-04T05:53:23Z</time>
				<extensions>
				</extensions>
			</trkpt>
			<trkpt lat="-28.312800" lon="153.289131">
				<ele>26.957</ele>
				<time>2015-07-04T05:53:24Z</time>
				<extensions>
				</extensions>
			</trkpt>
			<trkpt lat="-28.312913" lon="153.288767">
				<ele>24.957</ele>
				<time>2015-07-04T05:53:26Z</time>
				<extensions>
				</extensions>
			</trkpt>
			<trkpt lat="-28.313055" lon="153.288413">
				<ele>25.308</ele>
				<time>2015-07-04T05:53:28Z</time>
				<extensions>
				</extensions>
			</trkpt>
			<trkpt lat="-28.313193" lon="153.288066">
				<ele>23.639</ele>
				<time>2015-07-04T05:53:30Z</time>
				<extensions>
				</extensions>
			</trkpt>
			<trkpt lat="-28.313298" lon="153.287786">
				<ele>23.049</ele>
				<time>2015-07-04T05:53:32Z</time>
				<extensions>
				</extensions>
			</trkpt>
			<trkpt lat="-28.313388" lon="153.287532">
				<ele>22.398</ele>
				<time>2015-07-04T05:53:34Z</time>
				<extensions>
				</extensions>
			</trkpt>
			<trkpt lat="-28.313440" lon="153.287273">
				<ele>23.510</ele>
				<time>2015-07-04T05:53:36Z</time>
				<extensions>
				</extensions>
			</trkpt>
			<trkpt lat="-28.313420" lon="153.287035">
				<ele>23.213</ele>
				<time>2015-07-04T05:53:38Z</time>
				<extensions>
				</extensions>
			</trkpt>
			<trkpt lat="-28.313326" lon="153.286803">
				<ele>23.866</ele>
				<time>2015-07-04T05:53:40Z</time>
				<extensions>
				</extensions>
			</trkpt>
			<trkpt lat="-28.313081" lon="153.286628">
				<ele>23.755</ele>
				<time>2015-07-04T05:53:43Z</time>
				<extensions>
				</extensions>
			</trkpt>
			<trkpt lat="-28.312884" lon="153.286596">
				<ele>22.499</ele>
				<time>2015-07-04T05:53:45Z</time>
				<extensions>
				</extensions>
			</trkpt>
			<trkpt lat="-28.312664" lon="153.286539">
				<ele>20.556</ele>
				<time>2015-07-04T05:53:47Z</time>
				<extensions>
				</extensions>
			</trkpt>
			<trkpt lat="-28.312486" lon="153.286394">
				<ele>19.318</ele>
				<time>2015-07-04T05:53:49Z</time>
				<extensions>
				</extensions>
			</trkpt>
			<trkpt lat="-28.312329" lon="153.286164">
				<ele>18.911</ele>
				<time>2015-07-04T05:53:51Z</time>
				<extensions>
				</extensions>
			</trkpt>
			<trkpt lat="-28.312258" lon="153.285902">
				<ele>19.836</ele>
				<time>2015-07-04T05:53:53Z</time>
				<extensions>
				</extensions>
			</trkpt>
			<trkpt lat="-28.312242" lon="153.285605">
				<ele>21.841</ele>
				<time>2015-07-04T05:53:55Z</time>
				<extensions>
				</extensions>
			</trkpt>
			<trkpt lat="-28.312268" lon="153.285247">
				<ele>22.232</ele>
				<time>2015-07-04T05:53:57Z</time>
				<extensions>
				</extensions>
			</trkpt>
			<trkpt lat="-28.312339" lon="153.284907">
				<ele>21.263</ele>
				<time>2015-07-04T05:53:59Z</time>
				<extensions>
				</extensions>
			</trkpt>
			<trkpt lat="-28.312403" lon="153.284647">
				<ele>17.756</ele>
				<time>2015-07-04T05:54:01Z</time>
				<extensions>
				</extensions>
			</trkpt>
			<trkpt lat="-28.312381" lon="153.284422">
				<ele>17.483</ele>
				<time>2015-07-04T05:54:03Z</time>
				<extensions>
				</extensions>
			</trkpt>
			<trkpt lat="-28.312330" lon="153.284123">
				<ele>19.427</ele>
				<time>2015-07-04T05:54:05Z</time>
				<extensions>
				</extensions>
			</trkpt>
			<trkpt lat="-28.312405" lon="153.283865">
				<ele>20.034</ele>
				<time>2015-07-04T05:54:07Z</time>
				<extensions>
				</extensions>
			</trkpt>
			<trkpt lat="-28.312576" lon="153.283573">
				<ele>23.021</ele>
				<time>2015-07-04T05:54:09Z</time>
				<extensions>
				</extensions>
			</trkpt>
			<trkpt lat="-28.312782" lon="153.283270">
				<ele>24.890</ele>
				<time>2015-07-04T05:54:11Z</time>
				<extensions>
				</extensions>
			</trkpt>
			<trkpt lat="-28.313006" lon="153.282992">
				<ele>23.701</ele>
				<time>2015-07-04T05:54:13Z</time>
				<extensions>
				</extensions>
			</trkpt>
			<trkpt lat="-28.313232" lon="153.282770">
				<ele>23.436</ele>
				<time>2015-07-04T05:54:15Z</time>
				<extensions>
				</extensions>
			</trkpt>
			<trkpt lat="-28.313463" lon="153.282548">
				<ele>23.671</ele>
				<time>2015-07-04T05:54:17Z</time>
				<extensions>
				</extensions>
			</trkpt>
			<trkpt lat="-28.313708" lon="153.282343">
				<ele>25.121</ele>
				<time>2015-07-04T05:54:19Z</time>
				<extensions>
				</extensions>
			</trkpt>
			<trkpt lat="-28.313968" lon="153.282142">
				<ele>25.646</ele>
				<time>2015-07-04T05:54:21Z</time>
				<extensions>
				</extensions>
			</trkpt>
			<trkpt lat="-28.314225" lon="153.281943">
				<ele>25.456</ele>
				<time>2015-07-04T05:54:23Z</time>
				<extensions>
				</extensions>
			</trkpt>
			<trkpt lat="-28.314448" lon="153.281748">
				<ele>25.064</ele>
				<time>2015-07-04T05:54:25Z</time>
				<extensions>
				</extensions>
			</trkpt>
			<trkpt lat="-28.314616" lon="153.281540">
				<ele>27.888</ele>
				<time>2015-07-04T05:54:27Z</time>
				<extensions>
				</extensions>
			</trkpt>
			<trkpt lat="-28.314724" lon="153.281272">
				<ele>30.746</ele>
				<time>2015-07-04T05:54:29Z</time>
				<extensions>
				</extensions>
			</trkpt>
			<trkpt lat="-28.314793" lon="153.280978">
				<ele>33.500</ele>
				<time>2015-07-04T05:54:31Z</time>
				<extensions>
				</extensions>
			</trkpt>
			<trkpt lat="-28.314793" lon="153.280703">
				<ele>33.560</ele>
				<time>2015-07-04T05:54:33Z</time>
				<extensions>
				</extensions>
			</trkpt>
			<trkpt lat="-28.314764" lon="153.280425">
				<ele>35.508</ele>
				<time>2015-07-04T05:54:35Z</time>
				<extensions>
				</extensions>
			</trkpt>
			<trkpt lat="-28.314718" lon="153.280139">
				<ele>36.707</ele>
				<time>2015-07-04T05:54:37Z</time>
				<extensions>
				</extensions>
			</trkpt>
			<trkpt lat="-28.314691" lon="153.279842">
				<ele>35.318</ele>
				<time>2015-07-04T05:54:39Z</time>
				<extensions>
				</extensions>
			</trkpt>
			<trkpt lat="-28.314670" lon="153.279572">
				<ele>32.251</ele>
				<time>2015-07-04T05:54:41Z</time>
				<extensions>
				</extensions>
			</trkpt>
			<trkpt lat="-28.314634" lon="153.279309">
				<ele>29.718</ele>
				<time>2015-07-04T05:54:43Z</time>
				<extensions>
				</extensions>
			</trkpt>
			<trkpt lat="-28.314600" lon="153.279069">
				<ele>27.917</ele>
				<time>2015-07-04T05:54:45Z</time>
				<extensions>
				</extensions>
			</trkpt>
			<trkpt lat="-28.314547" lon="153.278816">
				<ele>26.745</ele>
				<time>2015-07-04T05:54:47Z</time>
				<extensions>
				</extensions>
			</trkpt>
			<trkpt lat="-28.314490" lon="153.278604">
				<ele>24.721</ele>
				<time>2015-07-04T05:54:49Z</time>
				<extensions>
				</extensions>
			</trkpt>
			<trkpt lat="-28.314425" lon="153.278366">
				<ele>22.802</ele>
				<time>2015-07-04T05:54:51Z</time>
				<extensions>
				</extensions>
			</trkpt>
			<trkpt lat="-28.314363" lon="153.278161">
				<ele>21.802</ele>
				<time>2015-07-04T05:54:53Z</time>
				<extensions>
				</extensions>
			</trkpt>
			<trkpt lat="-28.314296" lon="153.277905">
				<ele>20.668</ele>
				<time>2015-07-04T05:54:56Z</time>
				<extensions>
				</extensions>
			</trkpt>
			<trkpt lat="-28.314240" lon="153.277668">
				<ele>20.006</ele>
				<time>2015-07-04T05:54:59Z</time>
				<extensions>
				</extensions>
			</trkpt>
			<trkpt lat="-28.314192" lon="153.277469">
				<ele>19.023</ele>
				<time>2015-07-04T05:55:02Z</time>
				<extensions>
				</extensions>
			</trkpt>
			<trkpt lat="-28.314092" lon="153.277263">
				<ele>18.154</ele>
				<time>2015-07-04T05:55:05Z</time>
				<extensions>
				</extensions>
			</trkpt>
			<trkpt lat="-28.313945" lon="153.277084">
				<ele>18.228</ele>
				<time>2015-07-04T05:55:08Z</time>
				<extensions>
				</extensions>
			</trkpt>
			<trkpt lat="-28.313815" lon="153.276898">
				<ele>18.073</ele>
				<time>2015-07-04T05:55:11Z</time>
				<extensions>
				</extensions>
			</trkpt>
			<trkpt lat="-28.313726" lon="153.276662">
				<ele>18.136</ele>
				<time>2015-07-04T05:55:14Z</time>
				<extensions>
				</extensions>
			</trkpt>
			<trkpt lat="-28.313644" lon="153.276428">
				<ele>17.944</ele>
				<time>2015-07-04T05:55:17Z</time>
				<extensions>
				</extensions>
			</trkpt>
			<trkpt lat="-28.313569" lon="153.276163">
				<ele>18.912</ele>
				<time>2015-07-04T05:55:20Z</time>
				<extensions>
				</extensions>
			</trkpt>
			<trkpt lat="-28.313469" lon="153.275979">
				<ele>18.256</ele>
				<time>2015-07-04T05:55:23Z</time>
				<extensions>
				</extensions>
			</trkpt>
			<trkpt lat="-28.313353" lon="153.275813">
				<ele>17.794</ele>
				<time>2015-07-04T05:55:30Z</time>
				<extensions>
				</extensions>
			</trkpt>
			<trkpt lat="-28.313184" lon="153.275698">
				<ele>19.383</ele>
				<time>2015-07-04T05:55:33Z</time>
				<extensions>
				</extensions>
			</trkpt>
			<trkpt lat="-28.312974" lon="153.275537">
				<ele>21.326</ele>
				<time>2015-07-04T05:55:36Z</time>
				<extensions>
				</extensions>
			</trkpt>
			<trkpt lat="-28.312789" lon="153.275413">
				<ele>22.665</ele>
				<time>2015-07-04T05:55:38Z</time>
				<extensions>
				</extensions>
			</trkpt>
			<trkpt lat="-28.312591" lon="153.275274">
				<ele>23.953</ele>
				<time>2015-07-04T05:55:40Z</time>
				<extensions>
				</extensions>
			</trkpt>
			<trkpt lat="-28.312373" lon="153.275130">
				<ele>24.988</ele>
				<time>2015-07-04T05:55:42Z</time>
				<extensions>
				</extensions>
			</trkpt>
			<trkpt lat="-28.312160" lon="153.274990">
				<ele>24.979</ele>
				<time>2015-07-04T05:55:44Z</time>
				<extensions>
				</extensions>
			</trkpt>
			<trkpt lat="-28.311953" lon="153.274847">
				<ele>25.315</ele>
				<time>2015-07-04T05:55:46Z</time>
				<extensions>
				</extensions>
			</trkpt>
			<trkpt lat="-28.311729" lon="153.274755">
				<ele>25.981</ele>
				<time>2015-07-04T05:55:48Z</time>
				<extensions>
				</extensions>
			</trkpt>
			<trkpt lat="-28.311476" lon="153.274687">
				<ele>25.717</ele>
				<time>2015-07-04T05:55:50Z</time>
				<extensions>
				</extensions>
			</trkpt>
			<trkpt lat="-28.311230" lon="153.274603">
				<ele>25.274</ele>
				<time>2015-07-04T05:55:52Z</time>
				<extensions>
				</extensions>
			</trkpt>
			<trkpt lat="-28.310966" lon="153.274520">
				<ele>25.782</ele>
				<time>2015-07-04T05:55:54Z</time>
				<extensions>
				</extensions>
			</trkpt>
			<trkpt lat="-28.310703" lon="153.274460">
				<ele>26.225</ele>
				<time>2015-07-04T05:55:56Z</time>
				<extensions>
				</extensions>
			</trkpt>
			<trkpt lat="-28.310445" lon="153.274400">
				<ele>25.692</ele>
				<time>2015-07-04T05:55:58Z</time>
				<extensions>
				</extensions>
			</trkpt>
			<trkpt lat="-28.310181" lon="153.274358">
				<ele>25.489</ele>
				<time>2015-07-04T05:56:00Z</time>
				<extensions>
				</extensions>
			</trkpt>
			<trkpt lat="-28.309912" lon="153.274313">
				<ele>25.473</ele>
				<time>2015-07-04T05:56:02Z</time>
				<extensions>
				</extensions>
			</trkpt>
			<trkpt lat="-28.309667" lon="153.274287">
				<ele>25.005</ele>
				<time>2015-07-04T05:56:04Z</time>
				<extensions>
				</extensions>
			</trkpt>
			<trkpt lat="-28.309437" lon="153.274266">
				<ele>24.134</ele>
				<time>2015-07-04T05:56:06Z</time>
				<extensions>
				</extensions>
			</trkpt>
			<trkpt lat="-28.309182" lon="153.274234">
				<ele>24.686</ele>
				<time>2015-07-04T05:56:08Z</time>
				<extensions>
				</extensions>
			</trkpt>
			<trkpt lat="-28.308940" lon="153.274213">
				<ele>25.441</ele>
				<time>2015-07-04T05:56:10Z</time>
				<extensions>
				</extensions>
			</trkpt>
			<trkpt lat="-28.308683" lon="153.274195">
				<ele>25.741</ele>
				<time>2015-07-04T05:56:12Z</time>
				<extensions>
				</extensions>
			</trkpt>
			<trkpt lat="-28.308422" lon="153.274169">
				<ele>26.369</ele>
				<time>2015-07-04T05:56:14Z</time>
				<extensions>
				</extensions>
			</trkpt>
			<trkpt lat="-28.308144" lon="153.274124">
				<ele>27.045</ele>
				<time>2015-07-04T05:56:16Z</time>
				<extensions>
				</extensions>
			</trkpt>
			<trkpt lat="-28.307879" lon="153.274084">
				<ele>27.784</ele>
				<time>2015-07-04T05:56:18Z</time>
				<extensions>
				</extensions>
			</trkpt>
			<trkpt lat="-28.307589" lon="153.274047">
				<ele>28.259</ele>
				<time>2015-07-04T05:56:20Z</time>
				<extensions>
				</extensions>
			</trkpt>
			<trkpt lat="-28.307246" lon="153.274022">
				<ele>29.272</ele>
				<time>2015-07-04T05:56:22Z</time>
				<extensions>
				</extensions>
			</trkpt>
			<trkpt lat="-28.307054" lon="153.273994">
				<ele>29.707</ele>
				<time>2015-07-04T05:56:23Z</time>
				<extensions>
				</extensions>
			</trkpt>
			<trkpt lat="-28.306858" lon="153.273971">
				<ele>31.130</ele>
				<time>2015-07-04T05:56:24Z</time>
				<extensions>
				</extensions>
			</trkpt>
			<trkpt lat="-28.306667" lon="153.273941">
				<ele>31.491</ele>
				<time>2015-07-04T05:56:25Z</time>
				<extensions>
				</extensions>
			</trkpt>
			<trkpt lat="-28.306475" lon="153.273911">
				<ele>31.073</ele>
				<time>2015-07-04T05:56:26Z</time>
				<extensions>
				</extensions>
			</trkpt>
			<trkpt lat="-28.306284" lon="153.273886">
				<ele>30.834</ele>
				<time>2015-07-04T05:56:27Z</time>
				<extensions>
				</extensions>
			</trkpt>
			<trkpt lat="-28.306104" lon="153.273850">
				<ele>30.612</ele>
				<time>2015-07-04T05:56:28Z</time>
				<extensions>
				</extensions>
			</trkpt>
			<trkpt lat="-28.305918" lon="153.273819">
				<ele>30.633</ele>
				<time>2015-07-04T05:56:29Z</time>
				<extensions>
				</extensions>
			</trkpt>
			<trkpt lat="-28.305737" lon="153.273791">
				<ele>30.855</ele>
				<time>2015-07-04T05:56:30Z</time>
				<extensions>
				</extensions>
			</trkpt>
			<trkpt lat="-28.305552" lon="153.273761">
				<ele>31.367</ele>
				<time>2015-07-04T05:56:31Z</time>
				<extensions>
				</extensions>
			</trkpt>
			<trkpt lat="-28.305363" lon="153.273738">
				<ele>32.553</ele>
				<time>2015-07-04T05:56:32Z</time>
				<extensions>
				</extensions>
			</trkpt>
			<trkpt lat="-28.305173" lon="153.273716">
				<ele>33.635</ele>
				<time>2015-07-04T05:56:33Z</time>
				<extensions>
				</extensions>
			</trkpt>
			<trkpt lat="-28.304831" lon="153.273675">
				<ele>34.188</ele>
				<time>2015-07-04T05:56:35Z</time>
				<extensions>
				</extensions>
			</trkpt>
			<trkpt lat="-28.304481" lon="153.273616">
				<ele>35.676</ele>
				<time>2015-07-04T05:56:37Z</time>
				<extensions>
				</extensions>
			</trkpt>
			<trkpt lat="-28.304297" lon="153.273613">
				<ele>36.537</ele>
				<time>2015-07-04T05:56:38Z</time>
				<extensions>
				</extensions>
			</trkpt>
			<trkpt lat="-28.303947" lon="153.273632">
				<ele>38.296</ele>
				<time>2015-07-04T05:56:40Z</time>
				<extensions>
				</extensions>
			</trkpt>
			<trkpt lat="-28.303596" lon="153.273716">
				<ele>41.652</ele>
				<time>2015-07-04T05:56:42Z</time>
				<extensions>
				</extensions>
			</trkpt>
			<trkpt lat="-28.303414" lon="153.273777">
				<ele>43.849</ele>
				<time>2015-07-04T05:56:43Z</time>
				<extensions>
				</extensions>
			</trkpt>
			<trkpt lat="-28.303236" lon="153.273832">
				<ele>45.337</ele>
				<time>2015-07-04T05:56:44Z</time>
				<extensions>
				</extensions>
			</trkpt>
			<trkpt lat="-28.303063" lon="153.273891">
				<ele>47.125</ele>
				<time>2015-07-04T05:56:45Z</time>
				<extensions>
				</extensions>
			</trkpt>
			<trkpt lat="-28.302882" lon="153.273946">
				<ele>49.101</ele>
				<time>2015-07-04T05:56:46Z</time>
				<extensions>
				</extensions>
			</trkpt>
			<trkpt lat="-28.302560" lon="153.274018">
				<ele>51.520</ele>
				<time>2015-07-04T05:56:48Z</time>
				<extensions>
				</extensions>
			</trkpt>
			<trkpt lat="-28.302228" lon="153.274030">
				<ele>53.297</ele>
				<time>2015-07-04T05:56:50Z</time>
				<extensions>
				</extensions>
			</trkpt>
			<trkpt lat="-28.301872" lon="153.274009">
				<ele>55.976</ele>
				<time>2015-07-04T05:56:52Z</time>
				<extensions>
				</extensions>
			</trkpt>
			<trkpt lat="-28.301511" lon="153.273954">
				<ele>58.164</ele>
				<time>2015-07-04T05:56:54Z</time>
				<extensions>
				</extensions>
			</trkpt>
			<trkpt lat="-28.301325" lon="153.273936">
				<ele>57.826</ele>
				<time>2015-07-04T05:56:55Z</time>
				<extensions>
				</extensions>
			</trkpt>
			<trkpt lat="-28.300961" lon="153.273847">
				<ele>56.472</ele>
				<time>2015-07-04T05:56:57Z</time>
				<extensions>
				</extensions>
			</trkpt>
			<trkpt lat="-28.300773" lon="153.273798">
				<ele>54.844</ele>
				<time>2015-07-04T05:56:58Z</time>
				<extensions>
				</extensions>
			</trkpt>
			<trkpt lat="-28.300430" lon="153.273719">
				<ele>52.331</ele>
				<time>2015-07-04T05:57:00Z</time>
				<extensions>
				</extensions>
			</trkpt>
			<trkpt lat="-28.300249" lon="153.273668">
				<ele>51.743</ele>
				<time>2015-07-04T05:57:01Z</time>
				<extensions>
				</extensions>
			</trkpt>
			<trkpt lat="-28.300073" lon="153.273609">
				<ele>51.671</ele>
				<time>2015-07-04T05:57:02Z</time>
				<extensions>
				</extensions>
			</trkpt>
			<trkpt lat="-28.299751" lon="153.273475">
				<ele>48.815</ele>
				<time>2015-07-04T05:57:04Z</time>
				<extensions>
				</extensions>
			</trkpt>
			<trkpt lat="-28.299593" lon="153.273368">
				<ele>48.775</ele>
				<time>2015-07-04T05:57:05Z</time>
				<extensions>
				</extensions>
			</trkpt>
			<trkpt lat="-28.299306" lon="153.273117">
				<ele>50.073</ele>
				<time>2015-07-04T05:57:07Z</time>
				<extensions>
				</extensions>
			</trkpt>
			<trkpt lat="-28.299172" lon="153.272960">
				<ele>51.535</ele>
				<time>2015-07-04T05:57:08Z</time>
				<extensions>
				</extensions>
			</trkpt>
			<trkpt lat="-28.299033" lon="153.272804">
				<ele>49.955</ele>
				<time>2015-07-04T05:57:09Z</time>
				<extensions>
				</extensions>
			</trkpt>
			<trkpt lat="-28.298907" lon="153.272638">
				<ele>49.472</ele>
				<time>2015-07-04T05:57:10Z</time>
				<extensions>
				</extensions>
			</trkpt>
			<trkpt lat="-28.298767" lon="153.272477">
				<ele>48.431</ele>
				<time>2015-07-04T05:57:11Z</time>
				<extensions>
				</extensions>
			</trkpt>
			<trkpt lat="-28.298622" lon="153.272333">
				<ele>47.130</ele>
				<time>2015-07-04T05:57:12Z</time>
				<extensions>
				</extensions>
			</trkpt>
			<trkpt lat="-28.298489" lon="153.272195">
				<ele>47.130</ele>
				<time>2015-07-04T05:57:13Z</time>
				<extensions>
				</extensions>
			</trkpt>
			<trkpt lat="-28.298326" lon="153.272081">
				<ele>46.203</ele>
				<time>2015-07-04T05:57:14Z</time>
				<extensions>
				</extensions>
			</trkpt>
			<trkpt lat="-28.298167" lon="153.271963">
				<ele>46.015</ele>
				<time>2015-07-04T05:57:15Z</time>
				<extensions>
				</extensions>
			</trkpt>
			<trkpt lat="-28.297997" lon="153.271843">
				<ele>46.437</ele>
				<time>2015-07-04T05:57:16Z</time>
				<extensions>
				</extensions>
			</trkpt>
			<trkpt lat="-28.297829" lon="153.271726">
				<ele>45.927</ele>
				<time>2015-07-04T05:57:17Z</time>
				<extensions>
				</extensions>
			</trkpt>
			<trkpt lat="-28.297659" lon="153.271608">
				<ele>45.277</ele>
				<time>2015-07-04T05:57:18Z</time>
				<extensions>
				</extensions>
			</trkpt>
			<trkpt lat="-28.297494" lon="153.271487">
				<ele>44.578</ele>
				<time>2015-07-04T05:57:19Z</time>
				<extensions>
				</extensions>
			</trkpt>
			<trkpt lat="-28.297321" lon="153.271364">
				<ele>43.017</ele>
				<time>2015-07-04T05:57:20Z</time>
				<extensions>
				</extensions>
			</trkpt>
			<trkpt lat="-28.297151" lon="153.271240">
				<ele>42.146</ele>
				<time>2015-07-04T05:57:21Z</time>
				<extensions>
				</extensions>
			</trkpt>
			<trkpt lat="-28.296984" lon="153.271122">
				<ele>41.656</ele>
				<time>2015-07-04T05:57:22Z</time>
				<extensions>
				</extensions>
			</trkpt>
			<trkpt lat="-28.296815" lon="153.271006">
				<ele>40.770</ele>
				<time>2015-07-04T05:57:23Z</time>
				<extensions>
				</extensions>
			</trkpt>
			<trkpt lat="-28.296644" lon="153.270891">
				<ele>40.316</ele>
				<time>2015-07-04T05:57:24Z</time>
				<extensions>
				</extensions>
			</trkpt>
			<trkpt lat="-28.296474" lon="153.270774">
				<ele>39.644</ele>
				<time>2015-07-04T05:57:25Z</time>
				<extensions>
				</extensions>
			</trkpt>
			<trkpt lat="-28.296302" lon="153.270658">
				<ele>39.066</ele>
				<time>2015-07-04T05:57:26Z</time>
				<extensions>
				</extensions>
			</trkpt>
			<trkpt lat="-28.296135" lon="153.270543">
				<ele>38.916</ele>
				<time>2015-07-04T05:57:27Z</time>
				<extensions>
				</extensions>
			</trkpt>
			<trkpt lat="-28.295970" lon="153.270426">
				<ele>38.669</ele>
				<time>2015-07-04T05:57:28Z</time>
				<extensions>
				</extensions>
			</trkpt>
			<trkpt lat="-28.295790" lon="153.270312">
				<ele>38.461</ele>
				<time>2015-07-04T05:57:29Z</time>
				<extensions>
				</extensions>
			</trkpt>
			<trkpt lat="-28.295619" lon="153.270199">
				<ele>38.947</ele>
				<time>2015-07-04T05:57:30Z</time>
				<extensions>
				</extensions>
			</trkpt>
			<trkpt lat="-28.295456" lon="153.270082">
				<ele>38.749</ele>
				<time>2015-07-04T05:57:31Z</time>
				<extensions>
				</extensions>
			</trkpt>
			<trkpt lat="-28.295284" lon="153.269969">
				<ele>38.734</ele>
				<time>2015-07-04T05:57:32Z</time>
				<extensions>
				</extensions>
			</trkpt>
			<trkpt lat="-28.295120" lon="153.269857">
				<ele>39.137</ele>
				<time>2015-07-04T05:57:33Z</time>
				<extensions>
				</extensions>
			</trkpt>
			<trkpt lat="-28.294955" lon="153.269744">
				<ele>39.019</ele>
				<time>2015-07-04T05:57:34Z</time>
				<extensions>
				</extensions>
			</trkpt>
			<trkpt lat="-28.294796" lon="153.269635">
				<ele>38.766</ele>
				<time>2015-07-04T05:57:35Z</time>
				<extensions>
				</extensions>
			</trkpt>
			<trkpt lat="-28.294484" lon="153.269420">
				<ele>40.053</ele>
				<time>2015-07-04T05:57:37Z</time>
				<extensions>
				</extensions>
			</trkpt>
			<trkpt lat="-28.294319" lon="153.269307">
				<ele>40.664</ele>
				<time>2015-07-04T05:57:38Z</time>
				<extensions>
				</extensions>
			</trkpt>
			<trkpt lat="-28.294155" lon="153.269190">
				<ele>41.418</ele>
				<time>2015-07-04T05:57:39Z</time>
				<extensions>
				</extensions>
			</trkpt>
			<trkpt lat="-28.293992" lon="153.269074">
				<ele>41.999</ele>
				<time>2015-07-04T05:57:40Z</time>
				<extensions>
				</extensions>
			</trkpt>
			<trkpt lat="-28.293834" lon="153.268963">
				<ele>42.284</ele>
				<time>2015-07-04T05:57:41Z</time>
				<extensions>
				</extensions>
			</trkpt>
			<trkpt lat="-28.293664" lon="153.268852">
				<ele>42.480</ele>
				<time>2015-07-04T05:57:42Z</time>
				<extensions>
				</extensions>
			</trkpt>
			<trkpt lat="-28.293492" lon="153.268739">
				<ele>42.818</ele>
				<time>2015-07-04T05:57:43Z</time>
				<extensions>
				</extensions>
			</trkpt>
			<trkpt lat="-28.293173" lon="153.268521">
				<ele>42.336</ele>
				<time>2015-07-04T05:57:45Z</time>
				<extensions>
				</extensions>
			</trkpt>
			<trkpt lat="-28.293016" lon="153.268418">
				<ele>42.368</ele>
				<time>2015-07-04T05:57:46Z</time>
				<extensions>
				</extensions>
			</trkpt>
			<trkpt lat="-28.292710" lon="153.268272">
				<ele>42.964</ele>
				<time>2015-07-04T05:57:48Z</time>
				<extensions>
				</extensions>
			</trkpt>
			<trkpt lat="-28.292364" lon="153.268191">
				<ele>44.546</ele>
				<time>2015-07-04T05:57:50Z</time>
				<extensions>
				</extensions>
			</trkpt>
			<trkpt lat="-28.292009" lon="153.268176">
				<ele>46.557</ele>
				<time>2015-07-04T05:57:52Z</time>
				<extensions>
				</extensions>
			</trkpt>
			<trkpt lat="-28.291827" lon="153.268188">
				<ele>47.082</ele>
				<time>2015-07-04T05:57:53Z</time>
				<extensions>
				</extensions>
			</trkpt>
			<trkpt lat="-28.291494" lon="153.268256">
				<ele>49.298</ele>
				<time>2015-07-04T05:57:55Z</time>
				<extensions>
				</extensions>
			</trkpt>
			<trkpt lat="-28.291313" lon="153.268299">
				<ele>49.577</ele>
				<time>2015-07-04T05:57:56Z</time>
				<extensions>
				</extensions>
			</trkpt>
			<trkpt lat="-28.291009" lon="153.268382">
				<ele>49.463</ele>
				<time>2015-07-04T05:57:58Z</time>
				<extensions>
				</extensions>
			</trkpt>
			<trkpt lat="-28.290750" lon="153.268507">
				<ele>48.814</ele>
				<time>2015-07-04T05:58:00Z</time>
				<extensions>
				</extensions>
			</trkpt>
			<trkpt lat="-28.290558" lon="153.268717">
				<ele>50.253</ele>
				<time>2015-07-04T05:58:02Z</time>
				<extensions>
				</extensions>
			</trkpt>
			<trkpt lat="-28.290399" lon="153.269043">
				<ele>54.046</ele>
				<time>2015-07-04T05:58:04Z</time>
				<extensions>
				</extensions>
			</trkpt>
			<trkpt lat="-28.290277" lon="153.269419">
				<ele>57.476</ele>
				<time>2015-07-04T05:58:06Z</time>
				<extensions>
				</extensions>
			</trkpt>
			<trkpt lat="-28.290165" lon="153.269784">
				<ele>58.456</ele>
				<time>2015-07-04T05:58:08Z</time>
				<extensions>
				</extensions>
			</trkpt>
			<trkpt lat="-28.290061" lon="153.270124">
				<ele>57.717</ele>
				<time>2015-07-04T05:58:10Z</time>
				<extensions>
				</extensions>
			</trkpt>
			<trkpt lat="-28.289948" lon="153.270413">
				<ele>57.325</ele>
				<time>2015-07-04T05:58:12Z</time>
				<extensions>
				</extensions>
			</trkpt>
			<trkpt lat="-28.289763" lon="153.270640">
				<ele>58.538</ele>
				<time>2015-07-04T05:58:14Z</time>
				<extensions>
				</extensions>
			</trkpt>
			<trkpt lat="-28.289509" lon="153.270740">
				<ele>59.772</ele>
				<time>2015-07-04T05:58:16Z</time>
				<extensions>
				</extensions>
			</trkpt>
			<trkpt lat="-28.289223" lon="153.270698">
				<ele>61.807</ele>
				<time>2015-07-04T05:58:18Z</time>
				<extensions>
				</extensions>
			</trkpt>
			<trkpt lat="-28.288938" lon="153.270577">
				<ele>65.438</ele>
				<time>2015-07-04T05:58:20Z</time>
				<extensions>
				</extensions>
			</trkpt>
			<trkpt lat="-28.288625" lon="153.270449">
				<ele>69.542</ele>
				<time>2015-07-04T05:58:22Z</time>
				<extensions>
				</extensions>
			</trkpt>
			<trkpt lat="-28.288309" lon="153.270348">
				<ele>67.232</ele>
				<time>2015-07-04T05:58:24Z</time>
				<extensions>
				</extensions>
			</trkpt>
			<trkpt lat="-28.288029" lon="153.270287">
				<ele>66.389</ele>
				<time>2015-07-04T05:58:26Z</time>
				<extensions>
				</extensions>
			</trkpt>
			<trkpt lat="-28.287847" lon="153.270224">
				<ele>65.748</ele>
				<time>2015-07-04T05:58:27Z</time>
				<extensions>
				</extensions>
			</trkpt>
			<trkpt lat="-28.287688" lon="153.270126">
				<ele>66.178</ele>
				<time>2015-07-04T05:58:28Z</time>
				<extensions>
				</extensions>
			</trkpt>
			<trkpt lat="-28.287512" lon="153.270010">
				<ele>65.112</ele>
				<time>2015-07-04T05:58:29Z</time>
				<extensions>
				</extensions>
			</trkpt>
			<trkpt lat="-28.287360" lon="153.269892">
				<ele>64.049</ele>
				<time>2015-07-04T05:58:30Z</time>
				<extensions>
				</extensions>
			</trkpt>
			<trkpt lat="-28.287211" lon="153.269773">
				<ele>63.271</ele>
				<time>2015-07-04T05:58:31Z</time>
				<extensions>
				</extensions>
			</trkpt>
			<trkpt lat="-28.287052" lon="153.269664">
				<ele>62.087</ele>
				<time>2015-07-04T05:58:32Z</time>
				<extensions>
				</extensions>
			</trkpt>
			<trkpt lat="-28.286888" lon="153.269571">
				<ele>60.040</ele>
				<time>2015-07-04T05:58:33Z</time>
				<extensions>
				</extensions>
			</trkpt>
			<trkpt lat="-28.286573" lon="153.269457">
				<ele>57.485</ele>
				<time>2015-07-04T05:58:35Z</time>
				<extensions>
				</extensions>
			</trkpt>
			<trkpt lat="-28.286244" lon="153.269308">
				<ele>54.349</ele>
				<time>2015-07-04T05:58:37Z</time>
				<extensions>
				</extensions>
			</trkpt>
			<trkpt lat="-28.285964" lon="153.269068">
				<ele>54.017</ele>
				<time>2015-07-04T05:58:39Z</time>
				<extensions>
				</extensions>
			</trkpt>
			<trkpt lat="-28.285834" lon="153.268887">
				<ele>53.063</ele>
				<time>2015-07-04T05:58:40Z</time>
				<extensions>
				</extensions>
			</trkpt>
			<trkpt lat="-28.285624" lon="153.268572">
				<ele>50.265</ele>
				<time>2015-07-04T05:58:42Z</time>
				<extensions>
				</extensions>
			</trkpt>
			<trkpt lat="-28.285398" lon="153.268270">
				<ele>50.459</ele>
				<time>2015-07-04T05:58:44Z</time>
				<extensions>
				</extensions>
			</trkpt>
			<trkpt lat="-28.285128" lon="153.268016">
				<ele>51.781</ele>
				<time>2015-07-04T05:58:46Z</time>
				<extensions>
				</extensions>
			</trkpt>
			<trkpt lat="-28.284820" lon="153.267819">
				<ele>54.851</ele>
				<time>2015-07-04T05:58:48Z</time>
				<extensions>
				</extensions>
			</trkpt>
			<trkpt lat="-28.284515" lon="153.267632">
				<ele>53.411</ele>
				<time>2015-07-04T05:58:50Z</time>
				<extensions>
				</extensions>
			</trkpt>
			<trkpt lat="-28.284258" lon="153.267418">
				<ele>52.453</ele>
				<time>2015-07-04T05:58:52Z</time>
				<extensions>
				</extensions>
			</trkpt>
			<trkpt lat="-28.284013" lon="153.267104">
				<ele>51.813</ele>
				<time>2015-07-04T05:58:54Z</time>
				<extensions>
				</extensions>
			</trkpt>
			<trkpt lat="-28.283905" lon="153.266924">
				<ele>51.247</ele>
				<time>2015-07-04T05:58:55Z</time>
				<extensions>
				</extensions>
			</trkpt>
			<trkpt lat="-28.283798" lon="153.266749">
				<ele>50.207</ele>
				<time>2015-07-04T05:58:56Z</time>
				<extensions>
				</extensions>
			</trkpt>
			<trkpt lat="-28.283626" lon="153.266375">
				<ele>49.245</ele>
				<time>2015-07-04T05:58:58Z</time>
				<extensions>
				</extensions>
			</trkpt>
			<trkpt lat="-28.283454" lon="153.266032">
				<ele>51.098</ele>
				<time>2015-07-04T05:59:00Z</time>
				<extensions>
				</extensions>
			</trkpt>
			<trkpt lat="-28.283341" lon="153.265868">
				<ele>52.381</ele>
				<time>2015-07-04T05:59:01Z</time>
				<extensions>
				</extensions>
			</trkpt>
			<trkpt lat="-28.283094" lon="153.265581">
				<ele>54.043</ele>
				<time>2015-07-04T05:59:03Z</time>
				<extensions>
				</extensions>
			</trkpt>
			<trkpt lat="-28.282870" lon="153.265316">
				<ele>53.205</ele>
				<time>2015-07-04T05:59:05Z</time>
				<extensions>
				</extensions>
			</trkpt>
			<trkpt lat="-28.282663" lon="153.265088">
				<ele>52.225</ele>
				<time>2015-07-04T05:59:07Z</time>
				<extensions>
				</extensions>
			</trkpt>
			<trkpt lat="-28.282428" lon="153.264853">
				<ele>50.441</ele>
				<time>2015-07-04T05:59:09Z</time>
				<extensions>
				</extensions>
			</trkpt>
			<trkpt lat="-28.282185" lon="153.264594">
				<ele>50.252</ele>
				<time>2015-07-04T05:59:11Z</time>
				<extensions>
				</extensions>
			</trkpt>
			<trkpt lat="-28.281949" lon="153.264334">
				<ele>50.429</ele>
				<time>2015-07-04T05:59:13Z</time>
				<extensions>
				</extensions>
			</trkpt>
			<trkpt lat="-28.281717" lon="153.264069">
				<ele>51.584</ele>
				<time>2015-07-04T05:59:15Z</time>
				<extensions>
				</extensions>
			</trkpt>
			<trkpt lat="-28.281504" lon="153.263842">
				<ele>52.545</ele>
				<time>2015-07-04T05:59:17Z</time>
				<extensions>
				</extensions>
			</trkpt>
			<trkpt lat="-28.281318" lon="153.263617">
				<ele>53.482</ele>
				<time>2015-07-04T05:59:19Z</time>
				<extensions>
				</extensions>
			</trkpt>
			<trkpt lat="-28.281178" lon="153.263344">
				<ele>56.159</ele>
				<time>2015-07-04T05:59:22Z</time>
				<extensions>
				</extensions>
			</trkpt>
			<trkpt lat="-28.281095" lon="153.263123">
				<ele>58.804</ele>
				<time>2015-07-04T05:59:24Z</time>
				<extensions>
				</extensions>
			</trkpt>
			<trkpt lat="-28.281044" lon="153.262899">
				<ele>60.963</ele>
				<time>2015-07-04T05:59:26Z</time>
				<extensions>
				</extensions>
			</trkpt>
			<trkpt lat="-28.281027" lon="153.262670">
				<ele>63.380</ele>
				<time>2015-07-04T05:59:28Z</time>
				<extensions>
				</extensions>
			</trkpt>
			<trkpt lat="-28.280999" lon="153.262435">
				<ele>65.617</ele>
				<time>2015-07-04T05:59:30Z</time>
				<extensions>
				</extensions>
			</trkpt>
			<trkpt lat="-28.280957" lon="153.262188">
				<ele>66.016</ele>
				<time>2015-07-04T05:59:32Z</time>
				<extensions>
				</extensions>
			</trkpt>
			<trkpt lat="-28.280764" lon="153.261910">
				<ele>66.451</ele>
				<time>2015-07-04T05:59:35Z</time>
				<extensions>
				</extensions>
			</trkpt>
			<trkpt lat="-28.280554" lon="153.261790">
				<ele>66.765</ele>
				<time>2015-07-04T05:59:37Z</time>
				<extensions>
				</extensions>
			</trkpt>
			<trkpt lat="-28.280335" lon="153.261660">
				<ele>66.600</ele>
				<time>2015-07-04T05:59:39Z</time>
				<extensions>
				</extensions>
			</trkpt>
			<trkpt lat="-28.280084" lon="153.261496">
				<ele>65.393</ele>
				<time>2015-07-04T05:59:41Z</time>
				<extensions>
				</extensions>
			</trkpt>
			<trkpt lat="-28.279881" lon="153.261311">
				<ele>64.517</ele>
				<time>2015-07-04T05:59:43Z</time>
				<extensions>
				</extensions>
			</trkpt>
			<trkpt lat="-28.279659" lon="153.261107">
				<ele>63.909</ele>
				<time>2015-07-04T05:59:45Z</time>
				<extensions>
				</extensions>
			</trkpt>
			<trkpt lat="-28.279450" lon="153.260890">
				<ele>62.675</ele>
				<time>2015-07-04T05:59:47Z</time>
				<extensions>
				</extensions>
			</trkpt>
			<trkpt lat="-28.279253" lon="153.260679">
				<ele>61.341</ele>
				<time>2015-07-04T05:59:49Z</time>
				<extensions>
				</extensions>
			</trkpt>
			<trkpt lat="-28.279056" lon="153.260485">
				<ele>60.525</ele>
				<time>2015-07-04T05:59:51Z</time>
				<extensions>
				</extensions>
			</trkpt>
			<trkpt lat="-28.278870" lon="153.260283">
				<ele>60.419</ele>
				<time>2015-07-04T05:59:53Z</time>
				<extensions>
				</extensions>
			</trkpt>
			<trkpt lat="-28.278677" lon="153.260095">
				<ele>59.974</ele>
				<time>2015-07-04T05:59:55Z</time>
				<extensions>
				</extensions>
			</trkpt>
			<trkpt lat="-28.278481" lon="153.259910">
				<ele>58.875</ele>
				<time>2015-07-04T05:59:57Z</time>
				<extensions>
				</extensions>
			</trkpt>
			<trkpt lat="-28.278278" lon="153.259744">
				<ele>57.287</ele>
				<time>2015-07-04T05:59:59Z</time>
				<extensions>
				</extensions>
			</trkpt>
			<trkpt lat="-28.278102" lon="153.259575">
				<ele>56.718</ele>
				<time>2015-07-04T06:00:01Z</time>
				<extensions>
				</extensions>
			</trkpt>
			<trkpt lat="-28.277956" lon="153.259374">
				<ele>54.585</ele>
				<time>2015-07-04T06:00:03Z</time>
				<extensions>
				</extensions>
			</trkpt>
			<trkpt lat="-28.277856" lon="153.259132">
				<ele>52.879</ele>
				<time>2015-07-04T06:00:05Z</time>
				<extensions>
				</extensions>
			</trkpt>
			<trkpt lat="-28.277811" lon="153.258862">
				<ele>50.183</ele>
				<time>2015-07-04T06:00:07Z</time>
				<extensions>
				</extensions>
			</trkpt>
			<trkpt lat="-28.277816" lon="153.258595">
				<ele>48.537</ele>
				<time>2015-07-04T06:00:09Z</time>
				<extensions>
				</extensions>
			</trkpt>
			<trkpt lat="-28.277889" lon="153.258336">
				<ele>48.699</ele>
				<time>2015-07-04T06:00:11Z</time>
				<extensions>
				</extensions>
			</trkpt>
			<trkpt lat="-28.278030" lon="153.258112">
				<ele>51.159</ele>
				<time>2015-07-04T06:00:13Z</time>
				<extensions>
				</extensions>
			</trkpt>
			<trkpt lat="-28.278214" lon="153.257922">
				<ele>53.141</ele>
				<time>2015-07-04T06:00:15Z</time>
				<extensions>
				</extensions>
			</trkpt>
			<trkpt lat="-28.278387" lon="153.257750">
				<ele>54.171</ele>
				<time>2015-07-04T06:00:17Z</time>
				<extensions>
				</extensions>
			</trkpt>
			<trkpt lat="-28.278636" lon="153.257601">
				<ele>55.593</ele>
				<time>2015-07-04T06:00:19Z</time>
				<extensions>
				</extensions>
			</trkpt>
			<trkpt lat="-28.278811" lon="153.257402">
				<ele>57.184</ele>
				<time>2015-07-04T06:00:21Z</time>
				<extensions>
				</extensions>
			</trkpt>
			<trkpt lat="-28.278960" lon="153.257159">
				<ele>58.141</ele>
				<time>2015-07-04T06:00:23Z</time>
				<extensions>
				</extensions>
			</trkpt>
			<trkpt lat="-28.279029" lon="153.256898">
				<ele>60.453</ele>
				<time>2015-07-04T06:00:25Z</time>
				<extensions>
				</extensions>
			</trkpt>
			<trkpt lat="-28.279072" lon="153.256612">
				<ele>62.494</ele>
				<time>2015-07-04T06:00:27Z</time>
				<extensions>
				</extensions>
			</trkpt>
			<trkpt lat="-28.279096" lon="153.256316">
				<ele>63.999</ele>
				<time>2015-07-04T06:00:29Z</time>
				<extensions>
				</extensions>
			</trkpt>
			<trkpt lat="-28.279110" lon="153.256021">
				<ele>64.857</ele>
				<time>2015-07-04T06:00:31Z</time>
				<extensions>
				</extensions>
			</trkpt>
			<trkpt lat="-28.279137" lon="153.255709">
				<ele>65.713</ele>
				<time>2015-07-04T06:00:33Z</time>
				<extensions>
				</extensions>
			</trkpt>
			<trkpt lat="-28.279206" lon="153.255381">
				<ele>65.425</ele>
				<time>2015-07-04T06:00:35Z</time>
				<extensions>
				</extensions>
			</trkpt>
			<trkpt lat="-28.279260" lon="153.255091">
				<ele>63.784</ele>
				<time>2015-07-04T06:00:37Z</time>
				<extensions>
				</extensions>
			</trkpt>
			<trkpt lat="-28.279327" lon="153.254800">
				<ele>62.393</ele>
				<time>2015-07-04T06:00:39Z</time>
				<extensions>
				</extensions>
			</trkpt>
			<trkpt lat="-28.279379" lon="153.254544">
				<ele>60.776</ele>
				<time>2015-07-04T06:00:41Z</time>
				<extensions>
				</extensions>
			</trkpt>
			<trkpt lat="-28.279406" lon="153.254234">
				<ele>59.727</ele>
				<time>2015-07-04T06:00:43Z</time>
				<extensions>
				</extensions>
			</trkpt>
			<trkpt lat="-28.279336" lon="153.253905">
				<ele>59.042</ele>
				<time>2015-07-04T06:00:45Z</time>
				<extensions>
				</extensions>
			</trkpt>
			<trkpt lat="-28.279232" lon="153.253650">
				<ele>58.208</ele>
				<time>2015-07-04T06:00:47Z</time>
				<extensions>
				</extensions>
			</trkpt>
			<trkpt lat="-28.279078" lon="153.253415">
				<ele>59.123</ele>
				<time>2015-07-04T06:00:49Z</time>
				<extensions>
				</extensions>
			</trkpt>
			<trkpt lat="-28.278823" lon="153.253229">
				<ele>59.967</ele>
				<time>2015-07-04T06:00:51Z</time>
				<extensions>
				</extensions>
			</trkpt>
			<trkpt lat="-28.278555" lon="153.253133">
				<ele>61.691</ele>
				<time>2015-07-04T06:00:53Z</time>
				<extensions>
				</extensions>
			</trkpt>
			<trkpt lat="-28.278280" lon="153.253102">
				<ele>62.639</ele>
				<time>2015-07-04T06:00:55Z</time>
				<extensions>
				</extensions>
			</trkpt>
			<trkpt lat="-28.278024" lon="153.253100">
				<ele>61.374</ele>
				<time>2015-07-04T06:00:57Z</time>
				<extensions>
				</extensions>
			</trkpt>
			<trkpt lat="-28.277755" lon="153.253110">
				<ele>61.617</ele>
				<time>2015-07-04T06:00:59Z</time>
				<extensions>
				</extensions>
			</trkpt>
			<trkpt lat="-28.277458" lon="153.253123">
				<ele>61.579</ele>
				<time>2015-07-04T06:01:01Z</time>
				<extensions>
				</extensions>
			</trkpt>
			<trkpt lat="-28.277153" lon="153.253142">
				<ele>60.168</ele>
				<time>2015-07-04T06:01:03Z</time>
				<extensions>
				</extensions>
			</trkpt>
			<trkpt lat="-28.276858" lon="153.253124">
				<ele>59.446</ele>
				<time>2015-07-04T06:01:05Z</time>
				<extensions>
				</extensions>
			</trkpt>
			<trkpt lat="-28.276590" lon="153.253142">
				<ele>60.346</ele>
				<time>2015-07-04T06:01:07Z</time>
				<extensions>
				</extensions>
			</trkpt>
			<trkpt lat="-28.276316" lon="153.253109">
				<ele>61.824</ele>
				<time>2015-07-04T06:01:09Z</time>
				<extensions>
				</extensions>
			</trkpt>
			<trkpt lat="-28.276030" lon="153.253046">
				<ele>61.981</ele>
				<time>2015-07-04T06:01:11Z</time>
				<extensions>
				</extensions>
			</trkpt>
			<trkpt lat="-28.275778" lon="153.253004">
				<ele>62.202</ele>
				<time>2015-07-04T06:01:13Z</time>
				<extensions>
				</extensions>
			</trkpt>
			<trkpt lat="-28.275509" lon="153.252962">
				<ele>63.220</ele>
				<time>2015-07-04T06:01:15Z</time>
				<extensions>
				</extensions>
			</trkpt>
			<trkpt lat="-28.275251" lon="153.252975">
				<ele>64.666</ele>
				<time>2015-07-04T06:01:17Z</time>
				<extensions>
				</extensions>
			</trkpt>
			<trkpt lat="-28.274974" lon="153.252996">
				<ele>63.893</ele>
				<time>2015-07-04T06:01:19Z</time>
				<extensions>
				</extensions>
			</trkpt>
			<trkpt lat="-28.274703" lon="153.253036">
				<ele>64.289</ele>
				<time>2015-07-04T06:01:21Z</time>
				<extensions>
				</extensions>
			</trkpt>
			<trkpt lat="-28.274462" lon="153.253049">
				<ele>65.638</ele>
				<time>2015-07-04T06:01:23Z</time>
				<extensions>
				</extensions>
			</trkpt>
			<trkpt lat="-28.274240" lon="153.253006">
				<ele>68.320</ele>
				<time>2015-07-04T06:01:25Z</time>
				<extensions>
				</extensions>
			</trkpt>
			<trkpt lat="-28.274063" lon="153.252919">
				<ele>70.696</ele>
				<time>2015-07-04T06:01:27Z</time>
				<extensions>
				</extensions>
			</trkpt>
			<trkpt lat="-28.273859" lon="153.252723">
				<ele>73.584</ele>
				<time>2015-07-04T06:01:29Z</time>
				<extensions>
				</extensions>
			</trkpt>
			<trkpt lat="-28.273711" lon="153.252506">
				<ele>76.933</ele>
				<time>2015-07-04T06:01:31Z</time>
				<extensions>
				</extensions>
			</trkpt>
			<trkpt lat="-28.273583" lon="153.252250">
				<ele>79.920</ele>
				<time>2015-07-04T06:01:33Z</time>
				<extensions>
				</extensions>
			</trkpt>
			<trkpt lat="-28.273515" lon="153.252019">
				<ele>80.163</ele>
				<time>2015-07-04T06:01:35Z</time>
				<extensions>
				</extensions>
			</trkpt>
			<trkpt lat="-28.273426" lon="153.251742">
				<ele>81.170</ele>
				<time>2015-07-04T06:01:37Z</time>
				<extensions>
				</extensions>
			</trkpt>
			<trkpt lat="-28.273357" lon="153.251475">
				<ele>82.150</ele>
				<time>2015-07-04T06:01:39Z</time>
				<extensions>
				</extensions>
			</trkpt>
			<trkpt lat="-28.273323" lon="153.251159">
				<ele>84.018</ele>
				<time>2015-07-04T06:01:41Z</time>
				<extensions>
				</extensions>
			</trkpt>
			<trkpt lat="-28.273283" lon="153.250866">
				<ele>83.114</ele>
				<time>2015-07-04T06:01:43Z</time>
				<extensions>
				</extensions>
			</trkpt>
			<trkpt lat="-28.273252" lon="153.250571">
				<ele>82.517</ele>
				<time>2015-07-04T06:01:45Z</time>
				<extensions>
				</extensions>
			</trkpt>
			<trkpt lat="-28.273221" lon="153.250288">
				<ele>82.563</ele>
				<time>2015-07-04T06:01:47Z</time>
				<extensions>
				</extensions>
			</trkpt>
			<trkpt lat="-28.273204" lon="153.250010">
				<ele>82.935</ele>
				<time>2015-07-04T06:01:49Z</time>
				<extensions>
				</extensions>
			</trkpt>
			<trkpt lat="-28.273158" lon="153.249736">
				<ele>81.883</ele>
				<time>2015-07-04T06:01:51Z</time>
				<extensions>
				</extensions>
			</trkpt>
			<trkpt lat="-28.273078" lon="153.249452">
				<ele>80.992</ele>
				<time>2015-07-04T06:01:53Z</time>
				<extensions>
				</extensions>
			</trkpt>
			<trkpt lat="-28.272947" lon="153.249178">
				<ele>81.132</ele>
				<time>2015-07-04T06:01:55Z</time>
				<extensions>
				</extensions>
			</trkpt>
			<trkpt lat="-28.272781" lon="153.248979">
				<ele>82.676</ele>
				<time>2015-07-04T06:01:57Z</time>
				<extensions>
				</extensions>
			</trkpt>
			<trkpt lat="-28.272547" lon="153.248816">
				<ele>83.860</ele>
				<time>2015-07-04T06:01:59Z</time>
				<extensions>
				</extensions>
			</trkpt>
			<trkpt lat="-28.272281" lon="153.248716">
				<ele>85.589</ele>
				<time>2015-07-04T06:02:01Z</time>
				<extensions>
				</extensions>
			</trkpt>
			<trkpt lat="-28.272025" lon="153.248691">
				<ele>87.410</ele>
				<time>2015-07-04T06:02:03Z</time>
				<extensions>
				</extensions>
			</trkpt>
			<trkpt lat="-28.271770" lon="153.248717">
				<ele>88.556</ele>
				<time>2015-07-04T06:02:05Z</time>
				<extensions>
				</extensions>
			</trkpt>
			<trkpt lat="-28.271528" lon="153.248826">
				<ele>91.234</ele>
				<time>2015-07-04T06:02:07Z</time>
				<extensions>
				</extensions>
			</trkpt>
			<trkpt lat="-28.271318" lon="153.249007">
				<ele>92.776</ele>
				<time>2015-07-04T06:02:09Z</time>
				<extensions>
				</extensions>
			</trkpt>
			<trkpt lat="-28.271137" lon="153.249260">
				<ele>94.836</ele>
				<time>2015-07-04T06:02:11Z</time>
				<extensions>
				</extensions>
			</trkpt>
			<trkpt lat="-28.270992" lon="153.249494">
				<ele>95.987</ele>
				<time>2015-07-04T06:02:13Z</time>
				<extensions>
				</extensions>
			</trkpt>
			<trkpt lat="-28.270870" lon="153.249721">
				<ele>96.448</ele>
				<time>2015-07-04T06:02:15Z</time>
				<extensions>
				</extensions>
			</trkpt>
			<trkpt lat="-28.270707" lon="153.249907">
				<ele>97.723</ele>
				<time>2015-07-04T06:02:17Z</time>
				<extensions>
				</extensions>
			</trkpt>
			<trkpt lat="-28.270511" lon="153.249984">
				<ele>98.706</ele>
				<time>2015-07-04T06:02:19Z</time>
				<extensions>
				</extensions>
			</trkpt>
			<trkpt lat="-28.270296" lon="153.249977">
				<ele>100.138</ele>
				<time>2015-07-04T06:02:21Z</time>
				<extensions>
				</extensions>
			</trkpt>
			<trkpt lat="-28.270091" lon="153.249890">
				<ele>101.817</ele>
				<time>2015-07-04T06:02:23Z</time>
				<extensions>
				</extensions>
			</trkpt>
			<trkpt lat="-28.269971" lon="153.249723">
				<ele>103.080</ele>
				<time>2015-07-04T06:02:25Z</time>
				<extensions>
				</extensions>
			</trkpt>
			<trkpt lat="-28.269892" lon="153.249509">
				<ele>105.389</ele>
				<time>2015-07-04T06:02:27Z</time>
				<extensions>
				</extensions>
			</trkpt>
			<trkpt lat="-28.269883" lon="153.249279">
				<ele>108.831</ele>
				<time>2015-07-04T06:02:29Z</time>
				<extensions>
				</extensions>
			</trkpt>
			<trkpt lat="-28.269910" lon="153.249001">
				<ele>110.716</ele>
				<time>2015-07-04T06:02:31Z</time>
				<extensions>
				</extensions>
			</trkpt>
			<trkpt lat="-28.269936" lon="153.248744">
				<ele>112.693</ele>
				<time>2015-07-04T06:02:33Z</time>
				<extensions>
				</extensions>
			</trkpt>
			<trkpt lat="-28.269962" lon="153.248526">
				<ele>114.476</ele>
				<time>2015-07-04T06:02:35Z</time>
				<extensions>
				</extensions>
			</trkpt>
			<trkpt lat="-28.269995" lon="153.248307">
				<ele>116.359</ele>
				<time>2015-07-04T06:02:37Z</time>
				<extensions>
				</extensions>
			</trkpt>
			<trkpt lat="-28.270038" lon="153.248071">
				<ele>117.629</ele>
				<time>2015-07-04T06:02:39Z</time>
				<extensions>
				</extensions>
			</trkpt>
			<trkpt lat="-28.270111" lon="153.247851">
				<ele>117.939</ele>
				<time>2015-07-04T06:02:41Z</time>
				<extensions>
				</extensions>
			</trkpt>
			<trkpt lat="-28.270250" lon="153.247663">
				<ele>118.377</ele>
				<time>2015-07-04T06:02:43Z</time>
				<extensions>
				</extensions>
			</trkpt>
			<trkpt lat="-28.270454" lon="153.247546">
				<ele>118.852</ele>
				<time>2015-07-04T06:02:45Z</time>
				<extensions>
				</extensions>
			</trkpt>
			<trkpt lat="-28.270699" lon="153.247530">
				<ele>119.673</ele>
				<time>2015-07-04T06:02:47Z</time>
				<extensions>
				</extensions>
			</trkpt>
			<trkpt lat="-28.270950" lon="153.247613">
				<ele>120.940</ele>
				<time>2015-07-04T06:02:49Z</time>
				<extensions>
				</extensions>
			</trkpt>
			<trkpt lat="-28.271189" lon="153.247724">
				<ele>121.860</ele>
				<time>2015-07-04T06:02:51Z</time>
				<extensions>
				</extensions>
			</trkpt>
			<trkpt lat="-28.271442" lon="153.247806">
				<ele>122.945</ele>
				<time>2015-07-04T06:02:53Z</time>
				<extensions>
				</extensions>
			</trkpt>
			<trkpt lat="-28.271712" lon="153.247814">
				<ele>126.199</ele>
				<time>2015-07-04T06:02:55Z</time>
				<extensions>
				</extensions>
			</trkpt>
			<trkpt lat="-28.271965" lon="153.247746">
				<ele>128.481</ele>
				<time>2015-07-04T06:02:57Z</time>
				<extensions>
				</extensions>
			</trkpt>
			<trkpt lat="-28.272206" lon="153.247631">
				<ele>131.053</ele>
				<time>2015-07-04T06:02:59Z</time>
				<extensions>
				</extensions>
			</trkpt>
			<trkpt lat="-28.272424" lon="153.247521">
				<ele>132.415</ele>
				<time>2015-07-04T06:03:01Z</time>
				<extensions>
				</extensions>
			</trkpt>
			<trkpt lat="-28.272634" lon="153.247356">
				<ele>135.226</ele>
				<time>2015-07-04T06:03:03Z</time>
				<extensions>
				</extensions>
			</trkpt>
			<trkpt lat="-28.272804" lon="153.247126">
				<ele>137.191</ele>
				<time>2015-07-04T06:03:05Z</time>
				<extensions>
				</extensions>
			</trkpt>
			<trkpt lat="-28.272940" lon="153.246929">
				<ele>138.376</ele>
				<time>2015-07-04T06:03:07Z</time>
				<extensions>
				</extensions>
			</trkpt>
			<trkpt lat="-28.273063" lon="153.246683">
				<ele>140.276</ele>
				<time>2015-07-04T06:03:09Z</time>
				<extensions>
				</extensions>
			</trkpt>
			<trkpt lat="-28.273128" lon="153.246402">
				<ele>142.282</ele>
				<time>2015-07-04T06:03:11Z</time>
				<extensions>
				</extensions>
			</trkpt>
			<trkpt lat="-28.273122" lon="153.246097">
				<ele>145.299</ele>
				<time>2015-07-04T06:03:13Z</time>
				<extensions>
				</extensions>
			</trkpt>
			<trkpt lat="-28.273080" lon="153.245776">
				<ele>147.772</ele>
				<time>2015-07-04T06:03:15Z</time>
				<extensions>
				</extensions>
			</trkpt>
			<trkpt lat="-28.273010" lon="153.245466">
				<ele>148.979</ele>
				<time>2015-07-04T06:03:17Z</time>
				<extensions>
				</extensions>
			</trkpt>
			<trkpt lat="-28.272914" lon="153.245152">
				<ele>151.286</ele>
				<time>2015-07-04T06:03:19Z</time>
				<extensions>
				</extensions>
			</trkpt>
			<trkpt lat="-28.272811" lon="153.244894">
				<ele>152.950</ele>
				<time>2015-07-04T06:03:21Z</time>
				<extensions>
				</extensions>
			</trkpt>
			<trkpt lat="-28.272734" lon="153.244614">
				<ele>154.239</ele>
				<time>2015-07-04T06:03:23Z</time>
				<extensions>
				</extensions>
			</trkpt>
			<trkpt lat="-28.272724" lon="153.244337">
				<ele>156.847</ele>
				<time>2015-07-04T06:03:25Z</time>
				<extensions>
				</extensions>
			</trkpt>
			<trkpt lat="-28.272769" lon="153.244068">
				<ele>159.546</ele>
				<time>2015-07-04T06:03:27Z</time>
				<extensions>
				</extensions>
			</trkpt>
			<trkpt lat="-28.272886" lon="153.243838">
				<ele>161.755</ele>
				<time>2015-07-04T06:03:29Z</time>
				<extensions>
				</extensions>
			</trkpt>
			<trkpt lat="-28.273069" lon="153.243665">
				<ele>163.611</ele>
				<time>2015-07-04T06:03:31Z</time>
				<extensions>
				</extensions>
			</trkpt>
			<trkpt lat="-28.273303" lon="153.243569">
				<ele>165.829</ele>
				<time>2015-07-04T06:03:33Z</time>
				<extensions>
				</extensions>
			</trkpt>
			<trkpt lat="-28.273569" lon="153.243556">
				<ele>167.436</ele>
				<time>2015-07-04T06:03:35Z</time>
				<extensions>
				</extensions>
			</trkpt>
			<trkpt lat="-28.273806" lon="153.243637">
				<ele>170.485</ele>
				<time>2015-07-04T06:03:37Z</time>
				<extensions>
				</extensions>
			</trkpt>
			<trkpt lat="-28.274065" lon="153.243803">
				<ele>173.182</ele>
				<time>2015-07-04T06:03:39Z</time>
				<extensions>
				</extensions>
			</trkpt>
			<trkpt lat="-28.274275" lon="153.244010">
				<ele>174.708</ele>
				<time>2015-07-04T06:03:41Z</time>
				<extensions>
				</extensions>
			</trkpt>
			<trkpt lat="-28.274464" lon="153.244178">
				<ele>176.041</ele>
				<time>2015-07-04T06:03:43Z</time>
				<extensions>
				</extensions>
			</trkpt>
			<trkpt lat="-28.274674" lon="153.244337">
				<ele>176.889</ele>
				<time>2015-07-04T06:03:45Z</time>
				<extensions>
				</extensions>
			</trkpt>
			<trkpt lat="-28.274878" lon="153.244429">
				<ele>176.721</ele>
				<time>2015-07-04T06:03:47Z</time>
				<extensions>
				</extensions>
			</trkpt>
			<trkpt lat="-28.275106" lon="153.244450">
				<ele>177.064</ele>
				<time>2015-07-04T06:03:49Z</time>
				<extensions>
				</extensions>
			</trkpt>
			<trkpt lat="-28.275283" lon="153.244373">
				<ele>178.954</ele>
				<time>2015-07-04T06:03:51Z</time>
				<extensions>
				</extensions>
			</trkpt>
			<trkpt lat="-28.275459" lon="153.244250">
				<ele>179.486</ele>
				<time>2015-07-04T06:03:53Z</time>
				<extensions>
				</extensions>
			</trkpt>
			<trkpt lat="-28.275580" lon="153.244093">
				<ele>180.725</ele>
				<time>2015-07-04T06:03:55Z</time>
				<extensions>
				</extensions>
			</trkpt>
			<trkpt lat="-28.275685" lon="153.243836">
				<ele>182.373</ele>
				<time>2015-07-04T06:03:57Z</time>
				<extensions>
				</extensions>
			</trkpt>
			<trkpt lat="-28.275713" lon="153.243604">
				<ele>183.236</ele>
				<time>2015-07-04T06:03:59Z</time>
				<extensions>
				</extensions>
			</trkpt>
			<trkpt lat="-28.275749" lon="153.243359">
				<ele>182.956</ele>
				<time>2015-07-04T06:04:01Z</time>
				<extensions>
				</extensions>
			</trkpt>
			<trkpt lat="-28.275817" lon="153.243107">
				<ele>183.862</ele>
				<time>2015-07-04T06:04:03Z</time>
				<extensions>
				</extensions>
			</trkpt>
			<trkpt lat="-28.275952" lon="153.242844">
				<ele>185.048</ele>
				<time>2015-07-04T06:04:05Z</time>
				<extensions>
				</extensions>
			</trkpt>
			<trkpt lat="-28.276106" lon="153.242581">
				<ele>185.914</ele>
				<time>2015-07-04T06:04:07Z</time>
				<extensions>
				</extensions>
			</trkpt>
			<trkpt lat="-28.276251" lon="153.242342">
				<ele>185.901</ele>
				<time>2015-07-04T06:04:09Z</time>
				<extensions>
				</extensions>
			</trkpt>
			<trkpt lat="-28.276403" lon="153.242140">
				<ele>186.576</ele>
				<time>2015-07-04T06:04:11Z</time>
				<extensions>
				</extensions>
			</trkpt>
			<trkpt lat="-28.276536" lon="153.241916">
				<ele>187.912</ele>
				<time>2015-07-04T06:04:13Z</time>
				<extensions>
				</extensions>
			</trkpt>
			<trkpt lat="-28.276673" lon="153.241717">
				<ele>189.079</ele>
				<time>2015-07-04T06:04:15Z</time>
				<extensions>
				</extensions>
			</trkpt>
			<trkpt lat="-28.276883" lon="153.241538">
				<ele>189.900</ele>
				<time>2015-07-04T06:04:18Z</time>
				<extensions>
				</extensions>
			</trkpt>
			<trkpt lat="-28.277048" lon="153.241445">
				<ele>191.082</ele>
				<time>2015-07-04T06:04:20Z</time>
				<extensions>
				</extensions>
			</trkpt>
			<trkpt lat="-28.277252" lon="153.241256">
				<ele>192.782</ele>
				<time>2015-07-04T06:04:23Z</time>
				<extensions>
				</extensions>
			</trkpt>
			<trkpt lat="-28.277341" lon="153.241032">
				<ele>194.593</ele>
				<time>2015-07-04T06:04:26Z</time>
				<extensions>
				</extensions>
			</trkpt>
			<trkpt lat="-28.277262" lon="153.240816">
				<ele>196.213</ele>
				<time>2015-07-04T06:04:29Z</time>
				<extensions>
				</extensions>
			</trkpt>
			<trkpt lat="-28.276958" lon="153.240720">
				<ele>199.550</ele>
				<time>2015-07-04T06:04:33Z</time>
				<extensions>
				</extensions>
			</trkpt>
			<trkpt lat="-28.276742" lon="153.240767">
				<ele>201.382</ele>
				<time>2015-07-04T06:04:35Z</time>
				<extensions>
				</extensions>
			</trkpt>
			<trkpt lat="-28.276531" lon="153.240825">
				<ele>203.151</ele>
				<time>2015-07-04T06:04:37Z</time>
				<extensions>
				</extensions>
			</trkpt>
			<trkpt lat="-28.276349" lon="153.240880">
				<ele>204.432</ele>
				<time>2015-07-04T06:04:39Z</time>
				<extensions>
				</extensions>
			</trkpt>
			<trkpt lat="-28.276126" lon="153.240927">
				<ele>206.747</ele>
				<time>2015-07-04T06:04:41Z</time>
				<extensions>
				</extensions>
			</trkpt>
			<trkpt lat="-28.275908" lon="153.240922">
				<ele>209.050</ele>
				<time>2015-07-04T06:04:43Z</time>
				<extensions>
				</extensions>
			</trkpt>
			<trkpt lat="-28.275700" lon="153.240868">
				<ele>211.126</ele>
				<time>2015-07-04T06:04:45Z</time>
				<extensions>
				</extensions>
			</trkpt>
			<trkpt lat="-28.275453" lon="153.240768">
				<ele>214.047</ele>
				<time>2015-07-04T06:04:47Z</time>
				<extensions>
				</extensions>
			</trkpt>
			<trkpt lat="-28.275234" lon="153.240672">
				<ele>216.814</ele>
				<time>2015-07-04T06:04:49Z</time>
				<extensions>
				</extensions>
			</trkpt>
			<trkpt lat="-28.275006" lon="153.240567">
				<ele>218.810</ele>
				<time>2015-07-04T06:04:51Z</time>
				<extensions>
				</extensions>
			</trkpt>
			<trkpt lat="-28.274796" lon="153.240470">
				<ele>221.172</ele>
				<time>2015-07-04T06:04:53Z</time>
				<extensions>
				</extensions>
			</trkpt>
			<trkpt lat="-28.274578" lon="153.240384">
				<ele>224.088</ele>
				<time>2015-07-04T06:04:55Z</time>
				<extensions>
				</extensions>
			</trkpt>
			<trkpt lat="-28.274349" lon="153.240321">
				<ele>226.377</ele>
				<time>2015-07-04T06:04:57Z</time>
				<extensions>
				</extensions>
			</trkpt>
			<trkpt lat="-28.274105" lon="153.240292">
				<ele>228.667</ele>
				<time>2015-07-04T06:04:59Z</time>
				<extensions>
				</extensions>
			</trkpt>
			<trkpt lat="-28.273849" lon="153.240277">
				<ele>230.849</ele>
				<time>2015-07-04T06:05:01Z</time>
				<extensions>
				</extensions>
			</trkpt>
			<trkpt lat="-28.273589" lon="153.240266">
				<ele>231.963</ele>
				<time>2015-07-04T06:05:03Z</time>
				<extensions>
				</extensions>
			</trkpt>
			<trkpt lat="-28.273311" lon="153.240258">
				<ele>234.890</ele>
				<time>2015-07-04T06:05:05Z</time>
				<extensions>
				</extensions>
			</trkpt>
			<trkpt lat="-28.273014" lon="153.240237">
				<ele>238.084</ele>
				<time>2015-07-04T06:05:07Z</time>
				<extensions>
				</extensions>
			</trkpt>
			<trkpt lat="-28.272742" lon="153.240233">
				<ele>240.708</ele>
				<time>2015-07-04T06:05:09Z</time>
				<extensions>
				</extensions>
			</trkpt>
			<trkpt lat="-28.272454" lon="153.240260">
				<ele>244.732</ele>
				<time>2015-07-04T06:05:11Z</time>
				<extensions>
				</extensions>
			</trkpt>
			<trkpt lat="-28.272130" lon="153.240315">
				<ele>252.022</ele>
				<time>2015-07-04T06:05:13Z</time>
				<extensions>
				</extensions>
			</trkpt>
			<trkpt lat="-28.271945" lon="153.240346">
				<ele>255.432</ele>
				<time>2015-07-04T06:05:14Z</time>
				<extensions>
				</extensions>
			</trkpt>
			<trkpt lat="-28.271756" lon="153.240384">
				<ele>260.599</ele>
				<time>2015-07-04T06:05:15Z</time>
				<extensions>
				</extensions>
			</trkpt>
			<trkpt lat="-28.271538" lon="153.240430">
				<ele>262.645</ele>
				<time>2015-07-04T06:05:16Z</time>
				<extensions>
				</extensions>
			</trkpt>
			<trkpt lat="-28.271347" lon="153.240473">
				<ele>263.848</ele>
				<time>2015-07-04T06:05:17Z</time>
				<extensions>
				</extensions>
			</trkpt>
			<trkpt lat="-28.271160" lon="153.240514">
				<ele>265.119</ele>
				<time>2015-07-04T06:05:18Z</time>
				<extensions>
				</extensions>
			</trkpt>
			<trkpt lat="-28.270975" lon="153.240551">
				<ele>264.947</ele>
				<time>2015-07-04T06:05:19Z</time>
				<extensions>
				</extensions>
			</trkpt>
			<trkpt lat="-28.270678" lon="153.240608">
				<ele>265.936</ele>
				<time>2015-07-04T06:05:21Z</time>
				<extensions>
				</extensions>
			</trkpt>
			<trkpt lat="-28.270383" lon="153.240666">
				<ele>269.182</ele>
				<time>2015-07-04T06:05:23Z</time>
				<extensions>
				</extensions>
			</trkpt>
			<trkpt lat="-28.270121" lon="153.240717">
				<ele>269.662</ele>
				<time>2015-07-04T06:05:25Z</time>
				<extensions>
				</extensions>
			</trkpt>
			<trkpt lat="-28.269876" lon="153.240753">
				<ele>270.917</ele>
				<time>2015-07-04T06:05:27Z</time>
				<extensions>
				</extensions>
			</trkpt>
			<trkpt lat="-28.269644" lon="153.240724">
				<ele>272.764</ele>
				<time>2015-07-04T06:05:29Z</time>
				<extensions>
				</extensions>
			</trkpt>
			<trkpt lat="-28.269441" lon="153.240624">
				<ele>275.869</ele>
				<time>2015-07-04T06:05:31Z</time>
				<extensions>
				</extensions>
			</trkpt>
			<trkpt lat="-28.269216" lon="153.240485">
				<ele>279.999</ele>
				<time>2015-07-04T06:05:33Z</time>
				<extensions>
				</extensions>
			</trkpt>
			<trkpt lat="-28.268923" lon="153.240426">
				<ele>284.513</ele>
				<time>2015-07-04T06:05:35Z</time>
				<extensions>
				</extensions>
			</trkpt>
			<trkpt lat="-28.268597" lon="153.240401">
				<ele>289.589</ele>
				<time>2015-07-04T06:05:37Z</time>
				<extensions>
				</extensions>
			</trkpt>
			<trkpt lat="-28.268279" lon="153.240376">
				<ele>291.601</ele>
				<time>2015-07-04T06:05:39Z</time>
				<extensions>
				</extensions>
			</trkpt>
			<trkpt lat="-28.267981" lon="153.240302">
				<ele>295.178</ele>
				<time>2015-07-04T06:05:41Z</time>
				<extensions>
				</extensions>
			</trkpt>
			<trkpt lat="-28.267732" lon="153.240153">
				<ele>299.292</ele>
				<time>2015-07-04T06:05:43Z</time>
				<extensions>
				</extensions>
			</trkpt>
			<trkpt lat="-28.267476" lon="153.239925">
				<ele>304.487</ele>
				<time>2015-07-04T06:05:45Z</time>
				<extensions>
				</extensions>
			</trkpt>
			<trkpt lat="-28.267235" lon="153.239703">
				<ele>307.886</ele>
				<time>2015-07-04T06:05:47Z</time>
				<extensions>
				</extensions>
			</trkpt>
			<trkpt lat="-28.266981" lon="153.239532">
				<ele>310.678</ele>
				<time>2015-07-04T06:05:49Z</time>
				<extensions>
				</extensions>
			</trkpt>
			<trkpt lat="-28.266707" lon="153.239413">
				<ele>314.267</ele>
				<time>2015-07-04T06:05:51Z</time>
				<extensions>
				</extensions>
			</trkpt>
			<trkpt lat="-28.266444" lon="153.239320">
				<ele>316.913</ele>
				<time>2015-07-04T06:05:53Z</time>
				<extensions>
				</extensions>
			</trkpt>
			<trkpt lat="-28.266218" lon="153.239191">
				<ele>319.161</ele>
				<time>2015-07-04T06:05:55Z</time>
				<extensions>
				</extensions>
			</trkpt>
			<trkpt lat="-28.266067" lon="153.239000">
				<ele>320.981</ele>
				<time>2015-07-04T06:05:57Z</time>
				<extensions>
				</extensions>
			</trkpt>
			<trkpt lat="-28.266009" lon="153.238752">
				<ele>324.820</ele>
				<time>2015-07-04T06:05:59Z</time>
				<extensions>
				</extensions>
			</trkpt>
			<trkpt lat="-28.265958" lon="153.238501">
				<ele>327.620</ele>
				<time>2015-07-04T06:06:01Z</time>
				<extensions>
				</extensions>
			</trkpt>
			<trkpt lat="-28.265827" lon="153.238299">
				<ele>331.236</ele>
				<time>2015-07-04T06:06:03Z</time>
				<extensions>
				</extensions>
			</trkpt>
			<trkpt lat="-28.265636" lon="153.238108">
				<ele>335.888</ele>
				<time>2015-07-04T06:06:05Z</time>
				<extensions>
				</extensions>
			</trkpt>
			<trkpt lat="-28.265418" lon="153.237937">
				<ele>339.653</ele>
				<time>2015-07-04T06:06:07Z</time>
				<extensions>
				</extensions>
			</trkpt>
			<trkpt lat="-28.265203" lon="153.237770">
				<ele>343.183</ele>
				<time>2015-07-04T06:06:09Z</time>
				<extensions>
				</extensions>
			</trkpt>
			<trkpt lat="-28.265006" lon="153.237603">
				<ele>346.199</ele>
				<time>2015-07-04T06:06:11Z</time>
				<extensions>
				</extensions>
			</trkpt>
			<trkpt lat="-28.264799" lon="153.237441">
				<ele>349.655</ele>
				<time>2015-07-04T06:06:13Z</time>
				<extensions>
				</extensions>
			</trkpt>
			<trkpt lat="-28.264590" lon="153.237302">
				<ele>352.664</ele>
				<time>2015-07-04T06:06:15Z</time>
				<extensions>
				</extensions>
			</trkpt>
			<trkpt lat="-28.264372" lon="153.237259">
				<ele>355.368</ele>
				<time>2015-07-04T06:06:17Z</time>
				<extensions>
				</extensions>
			</trkpt>
			<trkpt lat="-28.264136" lon="153.237266">
				<ele>360.101</ele>
				<time>2015-07-04T06:06:19Z</time>
				<extensions>
				</extensions>
			</trkpt>
			<trkpt lat="-28.263880" lon="153.237272">
				<ele>364.092</ele>
				<time>2015-07-04T06:06:21Z</time>
				<extensions>
				</extensions>
			</trkpt>
			<trkpt lat="-28.263639" lon="153.237223">
				<ele>367.133</ele>
				<time>2015-07-04T06:06:23Z</time>
				<extensions>
				</extensions>
			</trkpt>
			<trkpt lat="-28.263430" lon="153.237107">
				<ele>371.097</ele>
				<time>2015-07-04T06:06:25Z</time>
				<extensions>
				</extensions>
			</trkpt>
			<trkpt lat="-28.263228" lon="153.236977">
				<ele>375.733</ele>
				<time>2015-07-04T06:06:27Z</time>
				<extensions>
				</extensions>
			</trkpt>
			<trkpt lat="-28.263002" lon="153.236849">
				<ele>379.551</ele>
				<time>2015-07-04T06:06:29Z</time>
				<extensions>
				</extensions>
			</trkpt>
			<trkpt lat="-28.262761" lon="153.236709">
				<ele>383.483</ele>
				<time>2015-07-04T06:06:31Z</time>
				<extensions>
				</extensions>
			</trkpt>
			<trkpt lat="-28.262543" lon="153.236576">
				<ele>386.991</ele>
				<time>2015-07-04T06:06:33Z</time>
				<extensions>
				</extensions>
			</trkpt>
			<trkpt lat="-28.262292" lon="153.236473">
				<ele>389.718</ele>
				<time>2015-07-04T06:06:35Z</time>
				<extensions>
				</extensions>
			</trkpt>
			<trkpt lat="-28.262026" lon="153.236398">
				<ele>392.938</ele>
				<time>2015-07-04T06:06:37Z</time>
				<extensions>
				</extensions>
			</trkpt>
			<trkpt lat="-28.261782" lon="153.236297">
				<ele>394.699</ele>
				<time>2015-07-04T06:06:39Z</time>
				<extensions>
				</extensions>
			</trkpt>
			<trkpt lat="-28.261554" lon="153.236190">
				<ele>395.689</ele>
				<time>2015-07-04T06:06:41Z</time>
				<extensions>
				</extensions>
			</trkpt>
			<trkpt lat="-28.261349" lon="153.236058">
				<ele>398.307</ele>
				<time>2015-07-04T06:06:43Z</time>
				<extensions>
				</extensions>
			</trkpt>
			<trkpt lat="-28.261124" lon="153.235888">
				<ele>400.781</ele>
				<time>2015-07-04T06:06:45Z</time>
				<extensions>
				</extensions>
			</trkpt>
			<trkpt lat="-28.260916" lon="153.235780">
				<ele>402.254</ele>
				<time>2015-07-04T06:06:47Z</time>
				<extensions>
				</extensions>
			</trkpt>
			<trkpt lat="-28.260707" lon="153.235716">
				<ele>403.188</ele>
				<time>2015-07-04T06:06:49Z</time>
				<extensions>
				</extensions>
			</trkpt>
			<trkpt lat="-28.260485" lon="153.235661">
				<ele>405.788</ele>
				<time>2015-07-04T06:06:51Z</time>
				<extensions>
				</extensions>
			</trkpt>
			<trkpt lat="-28.260273" lon="153.235589">
				<ele>408.898</ele>
				<time>2015-07-04T06:06:53Z</time>
				<extensions>
				</extensions>
			</trkpt>
			<trkpt lat="-28.260083" lon="153.235531">
				<ele>409.076</ele>
				<time>2015-07-04T06:06:55Z</time>
				<extensions>
				</extensions>
			</trkpt>
			<trkpt lat="-28.259852" lon="153.235465">
				<ele>408.504</ele>
				<time>2015-07-04T06:06:58Z</time>
				<extensions>
				</extensions>
			</trkpt>
			<trkpt lat="-28.259679" lon="153.235408">
				<ele>406.841</ele>
				<time>2015-07-04T06:07:20Z</time>
				<extensions>
				</extensions>
			</trkpt>
			<trkpt lat="-28.259497" lon="153.235352">
				<ele>407.744</ele>
				<time>2015-07-04T06:07:25Z</time>
				<extensions>
				</extensions>
			</trkpt>
			<trkpt lat="-28.259252" lon="153.235293">
				<ele>406.917</ele>
				<time>2015-07-04T06:07:28Z</time>
				<extensions>
				</extensions>
			</trkpt>
			<trkpt lat="-28.259074" lon="153.235257">
				<ele>406.007</ele>
				<time>2015-07-04T06:07:30Z</time>
				<extensions>
				</extensions>
			</trkpt>
			<trkpt lat="-28.258818" lon="153.235223">
				<ele>403.636</ele>
				<time>2015-07-04T06:07:33Z</time>
				<extensions>
				</extensions>
			</trkpt>
			<trkpt lat="-28.258634" lon="153.235261">
				<ele>402.383</ele>
				<time>2015-07-04T06:07:35Z</time>
				<extensions>
				</extensions>
			</trkpt>
			<trkpt lat="-28.258454" lon="153.235328">
				<ele>400.236</ele>
				<time>2015-07-04T06:07:37Z</time>
				<extensions>
				</extensions>
			</trkpt>
			<trkpt lat="-28.258261" lon="153.235421">
				<ele>397.790</ele>
				<time>2015-07-04T06:07:39Z</time>
				<extensions>
				</extensions>
			</trkpt>
			<trkpt lat="-28.258001" lon="153.235544">
				<ele>394.402</ele>
				<time>2015-07-04T06:07:41Z</time>
				<extensions>
				</extensions>
			</trkpt>
			<trkpt lat="-28.257754" lon="153.235645">
				<ele>391.745</ele>
				<time>2015-07-04T06:07:43Z</time>
				<extensions>
				</extensions>
			</trkpt>
			<trkpt lat="-28.257480" lon="153.235668">
				<ele>389.959</ele>
				<time>2015-07-04T06:07:45Z</time>
				<extensions>
				</extensions>
			</trkpt>
			<trkpt lat="-28.257281" lon="153.235579">
				<ele>388.716</ele>
				<time>2015-07-04T06:07:47Z</time>
				<extensions>
				</extensions>
			</trkpt>
			<trkpt lat="-28.257114" lon="153.235466">
				<ele>388.166</ele>
				<time>2015-07-04T06:07:49Z</time>
				<extensions>
				</extensions>
			</trkpt>
			<trkpt lat="-28.256947" lon="153.235372">
				<ele>388.247</ele>
				<time>2015-07-04T06:07:51Z</time>
				<extensions>
				</extensions>
			</trkpt>
			<trkpt lat="-28.256666" lon="153.235310">
				<ele>387.386</ele>
				<time>2015-07-04T06:07:54Z</time>
				<extensions>
				</extensions>
			</trkpt>
			<trkpt lat="-28.256459" lon="153.235369">
				<ele>388.364</ele>
				<time>2015-07-04T06:07:56Z</time>
				<extensions>
				</extensions>
			</trkpt>
			<trkpt lat="-28.256197" lon="153.235479">
				<ele>388.513</ele>
				<time>2015-07-04T06:07:58Z</time>
				<extensions>
				</extensions>
			</trkpt>
			<trkpt lat="-28.255920" lon="153.235604">
				<ele>388.344</ele>
				<time>2015-07-04T06:08:00Z</time>
				<extensions>
				</extensions>
			</trkpt>
			<trkpt lat="-28.255631" lon="153.235759">
				<ele>386.668</ele>
				<time>2015-07-04T06:08:02Z</time>
				<extensions>
				</extensions>
			</trkpt>
			<trkpt lat="-28.255311" lon="153.235905">
				<ele>384.730</ele>
				<time>2015-07-04T06:08:04Z</time>
				<extensions>
				</extensions>
			</trkpt>
			<trkpt lat="-28.255134" lon="153.235989">
				<ele>383.389</ele>
				<time>2015-07-04T06:08:05Z</time>
				<extensions>
				</extensions>
			</trkpt>
			<trkpt lat="-28.254811" lon="153.236150">
				<ele>381.103</ele>
				<time>2015-07-04T06:08:07Z</time>
				<extensions>
				</extensions>
			</trkpt>
			<trkpt lat="-28.254512" lon="153.236281">
				<ele>379.483</ele>
				<time>2015-07-04T06:08:09Z</time>
				<extensions>
				</extensions>
			</trkpt>
			<trkpt lat="-28.254210" lon="153.236422">
				<ele>376.732</ele>
				<time>2015-07-04T06:08:11Z</time>
				<extensions>
				</extensions>
			</trkpt>
			<trkpt lat="-28.253985" lon="153.236504">
				<ele>374.541</ele>
				<time>2015-07-04T06:08:13Z</time>
				<extensions>
				</extensions>
			</trkpt>
			<trkpt lat="-28.253711" lon="153.236593">
				<ele>372.030</ele>
				<time>2015-07-04T06:08:15Z</time>
				<extensions>
				</extensions>
			</trkpt>
			<trkpt lat="-28.253419" lon="153.236666">
				<ele>371.917</ele>
				<time>2015-07-04T06:08:17Z</time>
				<extensions>
				</extensions>
			</trkpt>
			<trkpt lat="-28.253129" lon="153.236701">
				<ele>372.337</ele>
				<time>2015-07-04T06:08:19Z</time>
				<extensions>
				</extensions>
			</trkpt>
			<trkpt lat="-28.252816" lon="153.236722">
				<ele>370.314</ele>
				<time>2015-07-04T06:08:21Z</time>
				<extensions>
				</extensions>
			</trkpt>
			<trkpt lat="-28.252508" lon="153.236742">
				<ele>368.763</ele>
				<time>2015-07-04T06:08:23Z</time>
				<extensions>
				</extensions>
			</trkpt>
			<trkpt lat="-28.252210" lon="153.236762">
				<ele>366.899</ele>
				<time>2015-07-04T06:08:25Z</time>
				<extensions>
				</extensions>
			</trkpt>
			<trkpt lat="-28.251902" lon="153.236783">
				<ele>365.403</ele>
				<time>2015-07-04T06:08:27Z</time>
				<extensions>
				</extensions>
			</trkpt>
			<trkpt lat="-28.251616" lon="153.236801">
				<ele>364.034</ele>
				<time>2015-07-04T06:08:29Z</time>
				<extensions>
				</extensions>
			</trkpt>
			<trkpt lat="-28.251322" lon="153.236817">
				<ele>362.450</ele>
				<time>2015-07-04T06:08:31Z</time>
				<extensions>
				</extensions>
			</trkpt>
			<trkpt lat="-28.251036" lon="153.236835">
				<ele>362.055</ele>
				<time>2015-07-04T06:08:33Z</time>
				<extensions>
				</extensions>
			</trkpt>
			<trkpt lat="-28.250746" lon="153.236852">
				<ele>361.538</ele>
				<time>2015-07-04T06:08:35Z</time>
				<extensions>
				</extensions>
			</trkpt>
			<trkpt lat="-28.250453" lon="153.236870">
				<ele>360.674</ele>
				<time>2015-07-04T06:08:37Z</time>
				<extensions>
				</extensions>
			</trkpt>
			<trkpt lat="-28.250164" lon="153.236887">
				<ele>359.010</ele>
				<time>2015-07-04T06:08:39Z</time>
				<extensions>
				</extensions>
			</trkpt>
			<trkpt lat="-28.249868" lon="153.236906">
				<ele>358.314</ele>
				<time>2015-07-04T06:08:41Z</time>
				<extensions>
				</extensions>
			</trkpt>
			<trkpt lat="-28.249577" lon="153.236922">
				<ele>356.790</ele>
				<time>2015-07-04T06:08:43Z</time>
				<extensions>
				</extensions>
			</trkpt>
			<trkpt lat="-28.249293" lon="153.236935">
				<ele>356.710</ele>
				<time>2015-07-04T06:08:45Z</time>
				<extensions>
				</extensions>
			</trkpt>
			<trkpt lat="-28.249009" lon="153.236957">
				<ele>357.403</ele>
				<time>2015-07-04T06:08:47Z</time>
				<extensions>
				</extensions>
			</trkpt>
			<trkpt lat="-28.248745" lon="153.236973">
				<ele>358.511</ele>
				<time>2015-07-04T06:08:49Z</time>
				<extensions>
				</extensions>
			</trkpt>
			<trkpt lat="-28.248458" lon="153.236989">
				<ele>359.974</ele>
				<time>2015-07-04T06:08:51Z</time>
				<extensions>
				</extensions>
			</trkpt>
			<trkpt lat="-28.248181" lon="153.237026">
				<ele>361.194</ele>
				<time>2015-07-04T06:08:53Z</time>
				<extensions>
				</extensions>
			</trkpt>
			<trkpt lat="-28.247921" lon="153.237112">
				<ele>363.114</ele>
				<time>2015-07-04T06:08:55Z</time>
				<extensions>
				</extensions>
			</trkpt>
			<trkpt lat="-28.247666" lon="153.237230">
				<ele>365.072</ele>
				<time>2015-07-04T06:08:57Z</time>
				<extensions>
				</extensions>
			</trkpt>
			<trkpt lat="-28.247406" lon="153.237352">
				<ele>365.092</ele>
				<time>2015-07-04T06:08:59Z</time>
				<extensions>
				</extensions>
			</trkpt>
			<trkpt lat="-28.247135" lon="153.237441">
				<ele>364.684</ele>
				<time>2015-07-04T06:09:01Z</time>
				<extensions>
				</extensions>
			</trkpt>
			<trkpt lat="-28.246859" lon="153.237475">
				<ele>365.969</ele>
				<time>2015-07-04T06:09:03Z</time>
				<extensions>
				</extensions>
			</trkpt>
			<trkpt lat="-28.246608" lon="153.237430">
				<ele>365.424</ele>
				<time>2015-07-04T06:09:05Z</time>
				<extensions>
				</extensions>
			</trkpt>
			<trkpt lat="-28.246310" lon="153.237382">
				<ele>363.536</ele>
				<time>2015-07-04T06:09:07Z</time>
				<extensions>
				</extensions>
			</trkpt>
			<trkpt lat="-28.245968" lon="153.237336">
				<ele>362.037</ele>
				<time>2015-07-04T06:09:09Z</time>
				<extensions>
				</extensions>
			</trkpt>
			<trkpt lat="-28.245670" lon="153.237355">
				<ele>360.287</ele>
				<time>2015-07-04T06:09:11Z</time>
				<extensions>
				</extensions>
			</trkpt>
			<trkpt lat="-28.245374" lon="153.237431">
				<ele>359.921</ele>
				<time>2015-07-04T06:09:13Z</time>
				<extensions>
				</extensions>
			</trkpt>
			<trkpt lat="-28.245071" lon="153.237528">
				<ele>358.956</ele>
				<time>2015-07-04T06:09:15Z</time>
				<extensions>
				</extensions>
			</trkpt>
			<trkpt lat="-28.244793" lon="153.237609">
				<ele>358.430</ele>
				<time>2015-07-04T06:09:17Z</time>
				<extensions>
				</extensions>
			</trkpt>
			<trkpt lat="-28.244522" lon="153.237643">
				<ele>357.657</ele>
				<time>2015-07-04T06:09:19Z</time>
				<extensions>
				</extensions>
			</trkpt>
			<trkpt lat="-28.244233" lon="153.237659">
				<ele>358.679</ele>
				<time>2015-07-04T06:09:21Z</time>
				<extensions>
				</extensions>
			</trkpt>
			<trkpt lat="-28.243950" lon="153.237661">
				<ele>359.749</ele>
				<time>2015-07-04T06:09:23Z</time>
				<extensions>
				</extensions>
			</trkpt>
			<trkpt lat="-28.243666" lon="153.237626">
				<ele>360.385</ele>
				<time>2015-07-04T06:09:25Z</time>
				<extensions>
				</extensions>
			</trkpt>
			<trkpt lat="-28.243437" lon="153.237570">
				<ele>360.084</ele>
				<time>2015-07-04T06:09:27Z</time>
				<extensions>
				</extensions>
			</trkpt>
			<trkpt lat="-28.243181" lon="153.237486">
				<ele>359.552</ele>
				<time>2015-07-04T06:09:29Z</time>
				<extensions>
				</extensions>
			</trkpt>
			<trkpt lat="-28.242946" lon="153.237406">
				<ele>358.500</ele>
				<time>2015-07-04T06:09:31Z</time>
				<extensions>
				</extensions>
			</trkpt>
			<trkpt lat="-28.242714" lon="153.237347">
				<ele>358.125</ele>
				<time>2015-07-04T06:09:33Z</time>
				<extensions>
				</extensions>
			</trkpt>
			<trkpt lat="-28.242489" lon="153.237331">
				<ele>357.060</ele>
				<time>2015-07-04T06:09:35Z</time>
				<extensions>
				</extensions>
			</trkpt>
			<trkpt lat="-28.242250" lon="153.237359">
				<ele>356.017</ele>
				<time>2015-07-04T06:09:37Z</time>
				<extensions>
				</extensions>
			</trkpt>
			<trkpt lat="-28.242039" lon="153.237415">
				<ele>354.420</ele>
				<time>2015-07-04T06:09:39Z</time>
				<extensions>
				</extensions>
			</trkpt>
			<trkpt lat="-28.241804" lon="153.237495">
				<ele>352.262</ele>
				<time>2015-07-04T06:09:41Z</time>
				<extensions>
				</extensions>
			</trkpt>
			<trkpt lat="-28.241586" lon="153.237566">
				<ele>350.805</ele>
				<time>2015-07-04T06:09:43Z</time>
				<extensions>
				</extensions>
			</trkpt>
			<trkpt lat="-28.241361" lon="153.237628">
				<ele>348.970</ele>
				<time>2015-07-04T06:09:45Z</time>
				<extensions>
				</extensions>
			</trkpt>
			<trkpt lat="-28.241115" lon="153.237693">
				<ele>347.186</ele>
				<time>2015-07-04T06:09:47Z</time>
				<extensions>
				</extensions>
			</trkpt>
			<trkpt lat="-28.240883" lon="153.237712">
				<ele>345.404</ele>
				<time>2015-07-04T06:09:49Z</time>
				<extensions>
				</extensions>
			</trkpt>
			<trkpt lat="-28.240645" lon="153.237711">
				<ele>344.044</ele>
				<time>2015-07-04T06:09:51Z</time>
				<extensions>
				</extensions>
			</trkpt>
			<trkpt lat="-28.240381" lon="153.237708">
				<ele>342.888</ele>
				<time>2015-07-04T06:09:53Z</time>
				<extensions>
				</extensions>
			</trkpt>
			<trkpt lat="-28.240104" lon="153.237720">
				<ele>342.886</ele>
				<time>2015-07-04T06:09:55Z</time>
				<extensions>
				</extensions>
			</trkpt>
			<trkpt lat="-28.239795" lon="153.237798">
				<ele>341.584</ele>
				<time>2015-07-04T06:09:57Z</time>
				<extensions>
				</extensions>
			</trkpt>
			<trkpt lat="-28.239526" lon="153.237893">
				<ele>339.563</ele>
				<time>2015-07-04T06:09:59Z</time>
				<extensions>
				</extensions>
			</trkpt>
			<trkpt lat="-28.239238" lon="153.237962">
				<ele>337.546</ele>
				<time>2015-07-04T06:10:01Z</time>
				<extensions>
				</extensions>
			</trkpt>
			<trkpt lat="-28.238941" lon="153.237972">
				<ele>335.633</ele>
				<time>2015-07-04T06:10:03Z</time>
				<extensions>
				</extensions>
			</trkpt>
			<trkpt lat="-28.238663" lon="153.237973">
				<ele>333.151</ele>
				<time>2015-07-04T06:10:05Z</time>
				<extensions>
				</extensions>
			</trkpt>
			<trkpt lat="-28.238367" lon="153.238000">
				<ele>330.835</ele>
				<time>2015-07-04T06:10:07Z</time>
				<extensions>
				</extensions>
			</trkpt>
			<trkpt lat="-28.238060" lon="153.238067">
				<ele>328.577</ele>
				<time>2015-07-04T06:10:09Z</time>
				<extensions>
				</extensions>
			</trkpt>
			<trkpt lat="-28.237760" lon="153.238143">
				<ele>327.071</ele>
				<time>2015-07-04T06:10:11Z</time>
				<extensions>
				</extensions>
			</trkpt>
			<trkpt lat="-28.237458" lon="153.238218">
				<ele>324.652</ele>
				<time>2015-07-04T06:10:13Z</time>
				<extensions>
				</extensions>
			</trkpt>
			<trkpt lat="-28.237182" lon="153.238292">
				<ele>322.728</ele>
				<time>2015-07-04T06:10:15Z</time>
				<extensions>
				</extensions>
			</trkpt>
			<trkpt lat="-28.237003" lon="153.238363">
				<ele>321.352</ele>
				<time>2015-07-04T06:10:16Z</time>
				<extensions>
				</extensions>
			</trkpt>
			<trkpt lat="-28.236699" lon="153.238439">
				<ele>319.541</ele>
				<time>2015-07-04T06:10:18Z</time>
				<extensions>
				</extensions>
			</trkpt>
			<trkpt lat="-28.236400" lon="153.238511">
				<ele>317.716</ele>
				<time>2015-07-04T06:10:20Z</time>
				<extensions>
				</extensions>
			</trkpt>
			<trkpt lat="-28.236075" lon="153.238579">
				<ele>317.016</ele>
				<time>2015-07-04T06:10:22Z</time>
				<extensions>
				</extensions>
			</trkpt>
			<trkpt lat="-28.235894" lon="153.238610">
				<ele>316.618</ele>
				<time>2015-07-04T06:10:23Z</time>
				<extensions>
				</extensions>
			</trkpt>
			<trkpt lat="-28.235559" lon="153.238669">
				<ele>315.056</ele>
				<time>2015-07-04T06:10:25Z</time>
				<extensions>
				</extensions>
			</trkpt>
			<trkpt lat="-28.235377" lon="153.238695">
				<ele>313.779</ele>
				<time>2015-07-04T06:10:26Z</time>
				<extensions>
				</extensions>
			</trkpt>
			<trkpt lat="-28.235040" lon="153.238746">
				<ele>310.623</ele>
				<time>2015-07-04T06:10:28Z</time>
				<extensions>
				</extensions>
			</trkpt>
			<trkpt lat="-28.234859" lon="153.238780">
				<ele>309.520</ele>
				<time>2015-07-04T06:10:29Z</time>
				<extensions>
				</extensions>
			</trkpt>
			<trkpt lat="-28.234529" lon="153.238833">
				<ele>306.925</ele>
				<time>2015-07-04T06:10:31Z</time>
				<extensions>
				</extensions>
			</trkpt>
			<trkpt lat="-28.234197" lon="153.238890">
				<ele>304.151</ele>
				<time>2015-07-04T06:10:33Z</time>
				<extensions>
				</extensions>
			</trkpt>
			<trkpt lat="-28.233859" lon="153.238963">
				<ele>300.706</ele>
				<time>2015-07-04T06:10:35Z</time>
				<extensions>
				</extensions>
			</trkpt>
			<trkpt lat="-28.233555" lon="153.239063">
				<ele>299.044</ele>
				<time>2015-07-04T06:10:37Z</time>
				<extensions>
				</extensions>
			</trkpt>
			<trkpt lat="-28.233247" lon="153.239221">
				<ele>297.981</ele>
				<time>2015-07-04T06:10:39Z</time>
				<extensions>
				</extensions>
			</trkpt>
			<trkpt lat="-28.232943" lon="153.239391">
				<ele>296.241</ele>
				<time>2015-07-04T06:10:41Z</time>
				<extensions>
				</extensions>
			</trkpt>
			<trkpt lat="-28.232648" lon="153.239534">
				<ele>295.126</ele>
				<time>2015-07-04T06:10:43Z</time>
				<extensions>
				</extensions>
			</trkpt>
			<trkpt lat="-28.232306" lon="153.239595">
				<ele>295.441</ele>
				<time>2015-07-04T06:10:45Z</time>
				<extensions>
				</extensions>
			</trkpt>
			<trkpt lat="-28.231970" lon="153.239568">
				<ele>295.658</ele>
				<time>2015-07-04T06:10:47Z</time>
				<extensions>
				</extensions>
			</trkpt>
			<trkpt lat="-28.231634" lon="153.239490">
				<ele>295.300</ele>
				<time>2015-07-04T06:10:49Z</time>
				<extensions>
				</extensions>
			</trkpt>
			<trkpt lat="-28.231458" lon="153.239443">
				<ele>294.379</ele>
				<time>2015-07-04T06:10:50Z</time>
				<extensions>
				</extensions>
			</trkpt>
			<trkpt lat="-28.231280" lon="153.239404">
				<ele>293.899</ele>
				<time>2015-07-04T06:10:51Z</time>
				<extensions>
				</extensions>
			</trkpt>
			<trkpt lat="-28.231098" lon="153.239380">
				<ele>293.519</ele>
				<time>2015-07-04T06:10:52Z</time>
				<extensions>
				</extensions>
			</trkpt>
			<trkpt lat="-28.230746" lon="153.239367">
				<ele>292.679</ele>
				<time>2015-07-04T06:10:54Z</time>
				<extensions>
				</extensions>
			</trkpt>
			<trkpt lat="-28.230562" lon="153.239361">
				<ele>291.515</ele>
				<time>2015-07-04T06:10:55Z</time>
				<extensions>
				</extensions>
			</trkpt>
			<trkpt lat="-28.230380" lon="153.239354">
				<ele>289.525</ele>
				<time>2015-07-04T06:10:56Z</time>
				<extensions>
				</extensions>
			</trkpt>
			<trkpt lat="-28.230192" lon="153.239339">
				<ele>288.198</ele>
				<time>2015-07-04T06:10:57Z</time>
				<extensions>
				</extensions>
			</trkpt>
			<trkpt lat="-28.229859" lon="153.239265">
				<ele>285.628</ele>
				<time>2015-07-04T06:10:59Z</time>
				<extensions>
				</extensions>
			</trkpt>
			<trkpt lat="-28.229545" lon="153.239102">
				<ele>283.081</ele>
				<time>2015-07-04T06:11:01Z</time>
				<extensions>
				</extensions>
			</trkpt>
			<trkpt lat="-28.229276" lon="153.238930">
				<ele>281.276</ele>
				<time>2015-07-04T06:11:03Z</time>
				<extensions>
				</extensions>
			</trkpt>
			<trkpt lat="-28.228997" lon="153.238734">
				<ele>279.830</ele>
				<time>2015-07-04T06:11:05Z</time>
				<extensions>
				</extensions>
			</trkpt>
			<trkpt lat="-28.228706" lon="153.238553">
				<ele>277.723</ele>
				<time>2015-07-04T06:11:07Z</time>
				<extensions>
				</extensions>
			</trkpt>
			<trkpt lat="-28.228401" lon="153.238405">
				<ele>275.536</ele>
				<time>2015-07-04T06:11:09Z</time>
				<extensions>
				</extensions>
			</trkpt>
			<trkpt lat="-28.228086" lon="153.238275">
				<ele>273.089</ele>
				<time>2015-07-04T06:11:11Z</time>
				<extensions>
				</extensions>
			</trkpt>
			<trkpt lat="-28.227797" lon="153.238136">
				<ele>269.803</ele>
				<time>2015-07-04T06:11:13Z</time>
				<extensions>
				</extensions>
			</trkpt>
			<trkpt lat="-28.227543" lon="153.237928">
				<ele>266.225</ele>
				<time>2015-07-04T06:11:15Z</time>
				<extensions>
				</extensions>
			</trkpt>
			<trkpt lat="-28.227335" lon="153.237660">
				<ele>263.310</ele>
				<time>2015-07-04T06:11:17Z</time>
				<extensions>
				</extensions>
			</trkpt>
			<trkpt lat="-28.227167" lon="153.237367">
				<ele>261.273</ele>
				<time>2015-07-04T06:11:19Z</time>
				<extensions>
				</extensions>
			</trkpt>
			<trkpt lat="-28.227008" lon="153.237082">
				<ele>257.817</ele>
				<time>2015-07-04T06:11:21Z</time>
				<extensions>
				</extensions>
			</trkpt>
			<trkpt lat="-28.226804" lon="153.236823">
				<ele>254.481</ele>
				<time>2015-07-04T06:11:23Z</time>
				<extensions>
				</extensions>
			</trkpt>
			<trkpt lat="-28.226556" lon="153.236641">
				<ele>252.071</ele>
				<time>2015-07-04T06:11:25Z</time>
				<extensions>
				</extensions>
			</trkpt>
			<trkpt lat="-28.226262" lon="153.236510">
				<ele>250.559</ele>
				<time>2015-07-04T06:11:27Z</time>
				<extensions>
				</extensions>
			</trkpt>
			<trkpt lat="-28.225938" lon="153.236402">
				<ele>250.871</ele>
				<time>2015-07-04T06:11:29Z</time>
				<extensions>
				</extensions>
			</trkpt>
			<trkpt lat="-28.225637" lon="153.236310">
				<ele>250.013</ele>
				<time>2015-07-04T06:11:31Z</time>
				<extensions>
				</extensions>
			</trkpt>
			<trkpt lat="-28.225348" lon="153.236216">
				<ele>249.574</ele>
				<time>2015-07-04T06:11:33Z</time>
				<extensions>
				</extensions>
			</trkpt>
			<trkpt lat="-28.225045" lon="153.236116">
				<ele>249.707</ele>
				<time>2015-07-04T06:11:35Z</time>
				<extensions>
				</extensions>
			</trkpt>
			<trkpt lat="-28.224760" lon="153.236015">
				<ele>249.897</ele>
				<time>2015-07-04T06:11:37Z</time>
				<extensions>
				</extensions>
			</trkpt>
			<trkpt lat="-28.224452" lon="153.235911">
				<ele>251.705</ele>
				<time>2015-07-04T06:11:39Z</time>
				<extensions>
				</extensions>
			</trkpt>
			<trkpt lat="-28.224238" lon="153.235846">
				<ele>251.340</ele>
				<time>2015-07-04T06:11:41Z</time>
				<extensions>
				</extensions>
			</trkpt>
			<trkpt lat="-28.224002" lon="153.235773">
				<ele>251.465</ele>
				<time>2015-07-04T06:11:43Z</time>
				<extensions>
				</extensions>
			</trkpt>
			<trkpt lat="-28.223789" lon="153.235704">
				<ele>251.064</ele>
				<time>2015-07-04T06:11:45Z</time>
				<extensions>
				</extensions>
			</trkpt>
			<trkpt lat="-28.223552" lon="153.235636">
				<ele>251.475</ele>
				<time>2015-07-04T06:11:47Z</time>
				<extensions>
				</extensions>
			</trkpt>
			<trkpt lat="-28.223287" lon="153.235549">
				<ele>251.558</ele>
				<time>2015-07-04T06:11:49Z</time>
				<extensions>
				</extensions>
			</trkpt>
			<trkpt lat="-28.223023" lon="153.235470">
				<ele>251.437</ele>
				<time>2015-07-04T06:11:51Z</time>
				<extensions>
				</extensions>
			</trkpt>
			<trkpt lat="-28.222734" lon="153.235415">
				<ele>251.532</ele>
				<time>2015-07-04T06:11:53Z</time>
				<extensions>
				</extensions>
			</trkpt>
			<trkpt lat="-28.222389" lon="153.235378">
				<ele>252.374</ele>
				<time>2015-07-04T06:11:55Z</time>
				<extensions>
				</extensions>
			</trkpt>
			<trkpt lat="-28.222054" lon="153.235353">
				<ele>251.858</ele>
				<time>2015-07-04T06:11:57Z</time>
				<extensions>
				</extensions>
			</trkpt>
			<trkpt lat="-28.221718" lon="153.235354">
				<ele>251.295</ele>
				<time>2015-07-04T06:11:59Z</time>
				<extensions>
				</extensions>
			</trkpt>
			<trkpt lat="-28.221386" lon="153.235350">
				<ele>250.303</ele>
				<time>2015-07-04T06:12:01Z</time>
				<extensions>
				</extensions>
			</trkpt>
			<trkpt lat="-28.221073" lon="153.235344">
				<ele>249.264</ele>
				<time>2015-07-04T06:12:03Z</time>
				<extensions>
				</extensions>
			</trkpt>
			<trkpt lat="-28.220863" lon="153.235391">
				<ele>248.194</ele>
				<time>2015-07-04T06:12:05Z</time>
				<extensions>
				</extensions>
			</trkpt>
			<trkpt lat="-28.220572" lon="153.235393">
				<ele>247.590</ele>
				<time>2015-07-04T06:12:07Z</time>
				<extensions>
				</extensions>
			</trkpt>
			<trkpt lat="-28.220272" lon="153.235399">
				<ele>246.298</ele>
				<time>2015-07-04T06:12:09Z</time>
				<extensions>
				</extensions>
			</trkpt>
			<trkpt lat="-28.219954" lon="153.235413">
				<ele>245.433</ele>
				<time>2015-07-04T06:12:11Z</time>
				<extensions>
				</extensions>
			</trkpt>
			<trkpt lat="-28.219638" lon="153.235421">
				<ele>244.439</ele>
				<time>2015-07-04T06:12:13Z</time>
				<extensions>
				</extensions>
			</trkpt>
			<trkpt lat="-28.219331" lon="153.235412">
				<ele>243.573</ele>
				<time>2015-07-04T06:12:15Z</time>
				<extensions>
				</extensions>
			</trkpt>
			<trkpt lat="-28.219024" lon="153.235360">
				<ele>242.112</ele>
				<time>2015-07-04T06:12:17Z</time>
				<extensions>
				</extensions>
			</trkpt>
			<trkpt lat="-28.218736" lon="153.235241">
				<ele>240.431</ele>
				<time>2015-07-04T06:12:19Z</time>
				<extensions>
				</extensions>
			</trkpt>
			<trkpt lat="-28.218479" lon="153.235061">
				<ele>238.383</ele>
				<time>2015-07-04T06:12:21Z</time>
				<extensions>
				</extensions>
			</trkpt>
			<trkpt lat="-28.218242" lon="153.234859">
				<ele>235.863</ele>
				<time>2015-07-04T06:12:23Z</time>
				<extensions>
				</extensions>
			</trkpt>
			<trkpt lat="-28.218009" lon="153.234645">
				<ele>233.944</ele>
				<time>2015-07-04T06:12:25Z</time>
				<extensions>
				</extensions>
			</trkpt>
			<trkpt lat="-28.217774" lon="153.234431">
				<ele>231.890</ele>
				<time>2015-07-04T06:12:27Z</time>
				<extensions>
				</extensions>
			</trkpt>
			<trkpt lat="-28.217539" lon="153.234216">
				<ele>228.812</ele>
				<time>2015-07-04T06:12:29Z</time>
				<extensions>
				</extensions>
			</trkpt>
			<trkpt lat="-28.217332" lon="153.233961">
				<ele>226.367</ele>
				<time>2015-07-04T06:12:31Z</time>
				<extensions>
				</extensions>
			</trkpt>
			<trkpt lat="-28.217179" lon="153.233680">
				<ele>224.228</ele>
				<time>2015-07-04T06:12:33Z</time>
				<extensions>
				</extensions>
			</trkpt>
			<trkpt lat="-28.217055" lon="153.233383">
				<ele>221.662</ele>
				<time>2015-07-04T06:12:35Z</time>
				<extensions>
				</extensions>
			</trkpt>
			<trkpt lat="-28.216922" lon="153.233089">
				<ele>219.289</ele>
				<time>2015-07-04T06:12:37Z</time>
				<extensions>
				</extensions>
			</trkpt>
			<trkpt lat="-28.216748" lon="153.232837">
				<ele>216.602</ele>
				<time>2015-07-04T06:12:39Z</time>
				<extensions>
				</extensions>
			</trkpt>
			<trkpt lat="-28.216530" lon="153.232655">
				<ele>213.940</ele>
				<time>2015-07-04T06:12:41Z</time>
				<extensions>
				</extensions>
			</trkpt>
			<trkpt lat="-28.216257" lon="153.232538">
				<ele>211.829</ele>
				<time>2015-07-04T06:12:43Z</time>
				<extensions>
				</extensions>
			</trkpt>
			<trkpt lat="-28.215955" lon="153.232453">
				<ele>210.980</ele>
				<time>2015-07-04T06:12:45Z</time>
				<extensions>
				</extensions>
			</trkpt>
			<trkpt lat="-28.215649" lon="153.232375">
				<ele>208.575</ele>
				<time>2015-07-04T06:12:47Z</time>
				<extensions>
				</extensions>
			</trkpt>
			<trkpt lat="-28.215322" lon="153.232293">
				<ele>208.213</ele>
				<time>2015-07-04T06:12:49Z</time>
				<extensions>
				</extensions>
			</trkpt>
			<trkpt lat="-28.215144" lon="153.232245">
				<ele>207.674</ele>
				<time>2015-07-04T06:12:50Z</time>
				<extensions>
				</extensions>
			</trkpt>
			<trkpt lat="-28.214784" lon="153.232153">
				<ele>205.313</ele>
				<time>2015-07-04T06:12:52Z</time>
				<extensions>
				</extensions>
			</trkpt>
			<trkpt lat="-28.214592" lon="153.232106">
				<ele>204.499</ele>
				<time>2015-07-04T06:12:53Z</time>
				<extensions>
				</extensions>
			</trkpt>
			<trkpt lat="-28.214234" lon="153.232014">
				<ele>200.717</ele>
				<time>2015-07-04T06:12:55Z</time>
				<extensions>
				</extensions>
			</trkpt>
			<trkpt lat="-28.214048" lon="153.231977">
				<ele>198.873</ele>
				<time>2015-07-04T06:12:56Z</time>
				<extensions>
				</extensions>
			</trkpt>
			<trkpt lat="-28.213864" lon="153.231956">
				<ele>197.545</ele>
				<time>2015-07-04T06:12:57Z</time>
				<extensions>
				</extensions>
			</trkpt>
			<trkpt lat="-28.213666" lon="153.231958">
				<ele>195.341</ele>
				<time>2015-07-04T06:12:58Z</time>
				<extensions>
				</extensions>
			</trkpt>
			<trkpt lat="-28.213485" lon="153.231989">
				<ele>193.858</ele>
				<time>2015-07-04T06:12:59Z</time>
				<extensions>
				</extensions>
			</trkpt>
			<trkpt lat="-28.213185" lon="153.232095">
				<ele>191.202</ele>
				<time>2015-07-04T06:13:01Z</time>
				<extensions>
				</extensions>
			</trkpt>
			<trkpt lat="-28.212894" lon="153.232301">
				<ele>187.868</ele>
				<time>2015-07-04T06:13:03Z</time>
				<extensions>
				</extensions>
			</trkpt>
			<trkpt lat="-28.212751" lon="153.232455">
				<ele>186.848</ele>
				<time>2015-07-04T06:13:04Z</time>
				<extensions>
				</extensions>
			</trkpt>
			<trkpt lat="-28.212625" lon="153.232612">
				<ele>186.309</ele>
				<time>2015-07-04T06:13:05Z</time>
				<extensions>
				</extensions>
			</trkpt>
			<trkpt lat="-28.212411" lon="153.232923">
				<ele>184.414</ele>
				<time>2015-07-04T06:13:07Z</time>
				<extensions>
				</extensions>
			</trkpt>
			<trkpt lat="-28.212304" lon="153.233088">
				<ele>182.730</ele>
				<time>2015-07-04T06:13:08Z</time>
				<extensions>
				</extensions>
			</trkpt>
			<trkpt lat="-28.212194" lon="153.233251">
				<ele>180.815</ele>
				<time>2015-07-04T06:13:09Z</time>
				<extensions>
				</extensions>
			</trkpt>
			<trkpt lat="-28.211965" lon="153.233525">
				<ele>177.621</ele>
				<time>2015-07-04T06:13:11Z</time>
				<extensions>
				</extensions>
			</trkpt>
			<trkpt lat="-28.211750" lon="153.233725">
				<ele>173.558</ele>
				<time>2015-07-04T06:13:13Z</time>
				<extensions>
				</extensions>
			</trkpt>
			<trkpt lat="-28.211551" lon="153.233881">
				<ele>171.065</ele>
				<time>2015-07-04T06:13:15Z</time>
				<extensions>
				</extensions>
			</trkpt>
			<trkpt lat="-28.211361" lon="153.234002">
				<ele>171.677</ele>
				<time>2015-07-04T06:13:17Z</time>
				<extensions>
				</extensions>
			</trkpt>
			<trkpt lat="-28.211091" lon="153.234056">
				<ele>174.027</ele>
				<time>2015-07-04T06:13:19Z</time>
				<extensions>
				</extensions>
			</trkpt>
			<trkpt lat="-28.210824" lon="153.233988">
				<ele>176.361</ele>
				<time>2015-07-04T06:13:21Z</time>
				<extensions>
				</extensions>
			</trkpt>
			<trkpt lat="-28.210533" lon="153.233876">
				<ele>177.719</ele>
				<time>2015-07-04T06:13:23Z</time>
				<extensions>
				</extensions>
			</trkpt>
			<trkpt lat="-28.210251" lon="153.233763">
				<ele>175.838</ele>
				<time>2015-07-04T06:13:25Z</time>
				<extensions>
				</extensions>
			</trkpt>
			<trkpt lat="-28.209973" lon="153.233620">
				<ele>177.255</ele>
				<time>2015-07-04T06:13:27Z</time>
				<extensions>
				</extensions>
			</trkpt>
			<trkpt lat="-28.209725" lon="153.233445">
				<ele>178.160</ele>
				<time>2015-07-04T06:13:29Z</time>
				<extensions>
				</extensions>
			</trkpt>
			<trkpt lat="-28.209512" lon="153.233218">
				<ele>177.977</ele>
				<time>2015-07-04T06:13:31Z</time>
				<extensions>
				</extensions>
			</trkpt>
			<trkpt lat="-28.209306" lon="153.232954">
				<ele>178.927</ele>
				<time>2015-07-04T06:13:33Z</time>
				<extensions>
				</extensions>
			</trkpt>
			<trkpt lat="-28.209104" lon="153.232725">
				<ele>178.998</ele>
				<time>2015-07-04T06:13:35Z</time>
				<extensions>
				</extensions>
			</trkpt>
			<trkpt lat="-28.208831" lon="153.232501">
				<ele>180.210</ele>
				<time>2015-07-04T06:13:37Z</time>
				<extensions>
				</extensions>
			</trkpt>
			<trkpt lat="-28.208539" lon="153.232293">
				<ele>180.442</ele>
				<time>2015-07-04T06:13:39Z</time>
				<extensions>
				</extensions>
			</trkpt>
			<trkpt lat="-28.208381" lon="153.232178">
				<ele>179.385</ele>
				<time>2015-07-04T06:13:40Z</time>
				<extensions>
				</extensions>
			</trkpt>
			<trkpt lat="-28.208219" lon="153.232058">
				<ele>179.442</ele>
				<time>2015-07-04T06:13:41Z</time>
				<extensions>
				</extensions>
			</trkpt>
			<trkpt lat="-28.208065" lon="153.231947">
				<ele>178.154</ele>
				<time>2015-07-04T06:13:42Z</time>
				<extensions>
				</extensions>
			</trkpt>
			<trkpt lat="-28.207908" lon="153.231834">
				<ele>176.685</ele>
				<time>2015-07-04T06:13:43Z</time>
				<extensions>
				</extensions>
			</trkpt>
			<trkpt lat="-28.207744" lon="153.231716">
				<ele>176.215</ele>
				<time>2015-07-04T06:13:44Z</time>
				<extensions>
				</extensions>
			</trkpt>
			<trkpt lat="-28.207582" lon="153.231600">
				<ele>175.951</ele>
				<time>2015-07-04T06:13:45Z</time>
				<extensions>
				</extensions>
			</trkpt>
			<trkpt lat="-28.207431" lon="153.231486">
				<ele>175.854</ele>
				<time>2015-07-04T06:13:46Z</time>
				<extensions>
				</extensions>
			</trkpt>
			<trkpt lat="-28.207277" lon="153.231374">
				<ele>175.806</ele>
				<time>2015-07-04T06:13:47Z</time>
				<extensions>
				</extensions>
			</trkpt>
			<trkpt lat="-28.206970" lon="153.231206">
				<ele>176.015</ele>
				<time>2015-07-04T06:13:49Z</time>
				<extensions>
				</extensions>
			</trkpt>
			<trkpt lat="-28.206607" lon="153.231057">
				<ele>177.867</ele>
				<time>2015-07-04T06:13:51Z</time>
				<extensions>
				</extensions>
			</trkpt>
			<trkpt lat="-28.206294" lon="153.230927">
				<ele>177.467</ele>
				<time>2015-07-04T06:13:53Z</time>
				<extensions>
				</extensions>
			</trkpt>
			<trkpt lat="-28.205986" lon="153.230794">
				<ele>174.968</ele>
				<time>2015-07-04T06:13:55Z</time>
				<extensions>
				</extensions>
			</trkpt>
			<trkpt lat="-28.205707" lon="153.230602">
				<ele>172.286</ele>
				<time>2015-07-04T06:13:57Z</time>
				<extensions>
				</extensions>
			</trkpt>
			<trkpt lat="-28.205486" lon="153.230362">
				<ele>174.407</ele>
				<time>2015-07-04T06:13:59Z</time>
				<extensions>
				</extensions>
			</trkpt>
			<trkpt lat="-28.205253" lon="153.230120">
				<ele>177.667</ele>
				<time>2015-07-04T06:14:01Z</time>
				<extensions>
				</extensions>
			</trkpt>
			<trkpt lat="-28.204997" lon="153.229908">
				<ele>178.449</ele>
				<time>2015-07-04T06:14:03Z</time>
				<extensions>
				</extensions>
			</trkpt>
			<trkpt lat="-28.204714" lon="153.229764">
				<ele>178.209</ele>
				<time>2015-07-04T06:14:05Z</time>
				<extensions>
				</extensions>
			</trkpt>
			<trkpt lat="-28.204389" lon="153.229693">
				<ele>180.290</ele>
				<time>2015-07-04T06:14:07Z</time>
				<extensions>
				</extensions>
			</trkpt>
			<trkpt lat="-28.204068" lon="153.229689">
				<ele>179.458</ele>
				<time>2015-07-04T06:14:09Z</time>
				<extensions>
				</extensions>
			</trkpt>
			<trkpt lat="-28.203723" lon="153.229736">
				<ele>180.223</ele>
				<time>2015-07-04T06:14:11Z</time>
				<extensions>
				</extensions>
			</trkpt>
			<trkpt lat="-28.203539" lon="153.229770">
				<ele>180.009</ele>
				<time>2015-07-04T06:14:12Z</time>
				<extensions>
				</extensions>
			</trkpt>
			<trkpt lat="-28.203357" lon="153.229806">
				<ele>178.500</ele>
				<time>2015-07-04T06:14:13Z</time>
				<extensions>
				</extensions>
			</trkpt>
			<trkpt lat="-28.203026" lon="153.229887">
				<ele>176.289</ele>
				<time>2015-07-04T06:14:15Z</time>
				<extensions>
				</extensions>
			</trkpt>
			<trkpt lat="-28.202847" lon="153.229928">
				<ele>175.208</ele>
				<time>2015-07-04T06:14:16Z</time>
				<extensions>
				</extensions>
			</trkpt>
			<trkpt lat="-28.202506" lon="153.230005">
				<ele>172.558</ele>
				<time>2015-07-04T06:14:18Z</time>
				<extensions>
				</extensions>
			</trkpt>
			<trkpt lat="-28.202196" lon="153.230067">
				<ele>172.887</ele>
				<time>2015-07-04T06:14:20Z</time>
				<extensions>
				</extensions>
			</trkpt>
			<trkpt lat="-28.201895" lon="153.230137">
				<ele>173.735</ele>
				<time>2015-07-04T06:14:22Z</time>
				<extensions>
				</extensions>
			</trkpt>
			<trkpt lat="-28.201550" lon="153.230198">
				<ele>173.838</ele>
				<time>2015-07-04T06:14:24Z</time>
				<extensions>
				</extensions>
			</trkpt>
			<trkpt lat="-28.201262" lon="153.230257">
				<ele>172.579</ele>
				<time>2015-07-04T06:14:26Z</time>
				<extensions>
				</extensions>
			</trkpt>
			<trkpt lat="-28.200981" lon="153.230321">
				<ele>170.060</ele>
				<time>2015-07-04T06:14:28Z</time>
				<extensions>
				</extensions>
			</trkpt>
			<trkpt lat="-28.200695" lon="153.230386">
				<ele>168.719</ele>
				<time>2015-07-04T06:14:30Z</time>
				<extensions>
				</extensions>
			</trkpt>
			<trkpt lat="-28.200336" lon="153.230471">
				<ele>166.537</ele>
				<time>2015-07-04T06:14:32Z</time>
				<extensions>
				</extensions>
			</trkpt>
			<trkpt lat="-28.200021" lon="153.230565">
				<ele>164.189</ele>
				<time>2015-07-04T06:14:34Z</time>
				<extensions>
				</extensions>
			</trkpt>
			<trkpt lat="-28.199674" lon="153.230678">
				<ele>161.643</ele>
				<time>2015-07-04T06:14:36Z</time>
				<extensions>
				</extensions>
			</trkpt>
			<trkpt lat="-28.199354" lon="153.230775">
				<ele>159.516</ele>
				<time>2015-07-04T06:14:38Z</time>
				<extensions>
				</extensions>
			</trkpt>
			<trkpt lat="-28.199035" lon="153.230864">
				<ele>157.743</ele>
				<time>2015-07-04T06:14:40Z</time>
				<extensions>
				</extensions>
			</trkpt>
			<trkpt lat="-28.198705" lon="153.230882">
				<ele>157.723</ele>
				<time>2015-07-04T06:14:42Z</time>
				<extensions>
				</extensions>
			</trkpt>
			<trkpt lat="-28.198373" lon="153.230859">
				<ele>156.689</ele>
				<time>2015-07-04T06:14:44Z</time>
				<extensions>
				</extensions>
			</trkpt>
			<trkpt lat="-28.198059" lon="153.230834">
				<ele>156.248</ele>
				<time>2015-07-04T06:14:46Z</time>
				<extensions>
				</extensions>
			</trkpt>
			<trkpt lat="-28.197750" lon="153.230799">
				<ele>156.161</ele>
				<time>2015-07-04T06:14:48Z</time>
				<extensions>
				</extensions>
			</trkpt>
			<trkpt lat="-28.197422" lon="153.230763">
				<ele>156.400</ele>
				<time>2015-07-04T06:14:50Z</time>
				<extensions>
				</extensions>
			</trkpt>
			<trkpt lat="-28.197079" lon="153.230727">
				<ele>155.153</ele>
				<time>2015-07-04T06:14:52Z</time>
				<extensions>
				</extensions>
			</trkpt>
			<trkpt lat="-28.196819" lon="153.230686">
				<ele>153.985</ele>
				<time>2015-07-04T06:14:54Z</time>
				<extensions>
				</extensions>
			</trkpt>
			<trkpt lat="-28.196526" lon="153.230569">
				<ele>154.372</ele>
				<time>2015-07-04T06:14:56Z</time>
				<extensions>
				</extensions>
			</trkpt>
			<trkpt lat="-28.196241" lon="153.230352">
				<ele>154.655</ele>
				<time>2015-07-04T06:14:58Z</time>
				<extensions>
				</extensions>
			</trkpt>
			<trkpt lat="-28.195991" lon="153.230084">
				<ele>154.835</ele>
				<time>2015-07-04T06:15:00Z</time>
				<extensions>
				</extensions>
			</trkpt>
			<trkpt lat="-28.195763" lon="153.229806">
				<ele>155.015</ele>
				<time>2015-07-04T06:15:02Z</time>
				<extensions>
				</extensions>
			</trkpt>
			<trkpt lat="-28.195535" lon="153.229519">
				<ele>154.671</ele>
				<time>2015-07-04T06:15:04Z</time>
				<extensions>
				</extensions>
			</trkpt>
			<trkpt lat="-28.195292" lon="153.229222">
				<ele>154.325</ele>
				<time>2015-07-04T06:15:06Z</time>
				<extensions>
				</extensions>
			</trkpt>
			<trkpt lat="-28.195069" lon="153.228965">
				<ele>154.121</ele>
				<time>2015-07-04T06:15:08Z</time>
				<extensions>
				</extensions>
			</trkpt>
			<trkpt lat="-28.194800" lon="153.228750">
				<ele>154.583</ele>
				<time>2015-07-04T06:15:10Z</time>
				<extensions>
				</extensions>
			</trkpt>
			<trkpt lat="-28.194480" lon="153.228604">
				<ele>156.085</ele>
				<time>2015-07-04T06:15:12Z</time>
				<extensions>
				</extensions>
			</trkpt>
			<trkpt lat="-28.194135" lon="153.228502">
				<ele>156.688</ele>
				<time>2015-07-04T06:15:14Z</time>
				<extensions>
				</extensions>
			</trkpt>
			<trkpt lat="-28.193786" lon="153.228407">
				<ele>157.876</ele>
				<time>2015-07-04T06:15:16Z</time>
				<extensions>
				</extensions>
			</trkpt>
			<trkpt lat="-28.193605" lon="153.228359">
				<ele>158.877</ele>
				<time>2015-07-04T06:15:17Z</time>
				<extensions>
				</extensions>
			</trkpt>
			<trkpt lat="-28.193256" lon="153.228260">
				<ele>161.758</ele>
				<time>2015-07-04T06:15:19Z</time>
				<extensions>
				</extensions>
			</trkpt>
			<trkpt lat="-28.193070" lon="153.228208">
				<ele>163.233</ele>
				<time>2015-07-04T06:15:20Z</time>
				<extensions>
				</extensions>
			</trkpt>
			<trkpt lat="-28.192731" lon="153.228117">
				<ele>165.882</ele>
				<time>2015-07-04T06:15:22Z</time>
				<extensions>
				</extensions>
			</trkpt>
			<trkpt lat="-28.192404" lon="153.228027">
				<ele>166.556</ele>
				<time>2015-07-04T06:15:24Z</time>
				<extensions>
				</extensions>
			</trkpt>
			<trkpt lat="-28.192080" lon="153.227952">
				<ele>167.244</ele>
				<time>2015-07-04T06:15:26Z</time>
				<extensions>
				</extensions>
			</trkpt>
			<trkpt lat="-28.191724" lon="153.227907">
				<ele>167.359</ele>
				<time>2015-07-04T06:15:28Z</time>
				<extensions>
				</extensions>
			</trkpt>
			<trkpt lat="-28.191357" lon="153.227885">
				<ele>165.742</ele>
				<time>2015-07-04T06:15:30Z</time>
				<extensions>
				</extensions>
			</trkpt>
			<trkpt lat="-28.191176" lon="153.227880">
				<ele>165.349</ele>
				<time>2015-07-04T06:15:31Z</time>
				<extensions>
				</extensions>
			</trkpt>
			<trkpt lat="-28.190989" lon="153.227872">
				<ele>165.035</ele>
				<time>2015-07-04T06:15:32Z</time>
				<extensions>
				</extensions>
			</trkpt>
			<trkpt lat="-28.190641" lon="153.227839">
				<ele>164.364</ele>
				<time>2015-07-04T06:15:34Z</time>
				<extensions>
				</extensions>
			</trkpt>
			<trkpt lat="-28.190442" lon="153.227823">
				<ele>163.974</ele>
				<time>2015-07-04T06:15:35Z</time>
				<extensions>
				</extensions>
			</trkpt>
			<trkpt lat="-28.190086" lon="153.227791">
				<ele>161.542</ele>
				<time>2015-07-04T06:15:37Z</time>
				<extensions>
				</extensions>
			</trkpt>
			<trkpt lat="-28.189788" lon="153.227735">
				<ele>159.312</ele>
				<time>2015-07-04T06:15:39Z</time>
				<extensions>
				</extensions>
			</trkpt>
			<trkpt lat="-28.189439" lon="153.227609">
				<ele>158.265</ele>
				<time>2015-07-04T06:15:41Z</time>
				<extensions>
				</extensions>
			</trkpt>
			<trkpt lat="-28.189135" lon="153.227437">
				<ele>157.151</ele>
				<time>2015-07-04T06:15:43Z</time>
				<extensions>
				</extensions>
			</trkpt>
			<trkpt lat="-28.188982" lon="153.227317">
				<ele>157.305</ele>
				<time>2015-07-04T06:15:44Z</time>
				<extensions>
				</extensions>
			</trkpt>
			<trkpt lat="-28.188699" lon="153.227074">
				<ele>154.098</ele>
				<time>2015-07-04T06:15:46Z</time>
				<extensions>
				</extensions>
			</trkpt>
			<trkpt lat="-28.188423" lon="153.226845">
				<ele>150.983</ele>
				<time>2015-07-04T06:15:48Z</time>
				<extensions>
				</extensions>
			</trkpt>
			<trkpt lat="-28.188275" lon="153.226719">
				<ele>149.278</ele>
				<time>2015-07-04T06:15:49Z</time>
				<extensions>
				</extensions>
			</trkpt>
			<trkpt lat="-28.187987" lon="153.226473">
				<ele>147.114</ele>
				<time>2015-07-04T06:15:51Z</time>
				<extensions>
				</extensions>
			</trkpt>
			<trkpt lat="-28.187826" lon="153.226355">
				<ele>146.770</ele>
				<time>2015-07-04T06:15:52Z</time>
				<extensions>
				</extensions>
			</trkpt>
			<trkpt lat="-28.187513" lon="153.226146">
				<ele>146.235</ele>
				<time>2015-07-04T06:15:54Z</time>
				<extensions>
				</extensions>
			</trkpt>
			<trkpt lat="-28.187334" lon="153.226038">
				<ele>146.612</ele>
				<time>2015-07-04T06:15:55Z</time>
				<extensions>
				</extensions>
			</trkpt>
			<trkpt lat="-28.187027" lon="153.225875">
				<ele>148.900</ele>
				<time>2015-07-04T06:15:57Z</time>
				<extensions>
				</extensions>
			</trkpt>
			<trkpt lat="-28.186712" lon="153.225745">
				<ele>150.511</ele>
				<time>2015-07-04T06:15:59Z</time>
				<extensions>
				</extensions>
			</trkpt>
			<trkpt lat="-28.186536" lon="153.225684">
				<ele>150.482</ele>
				<time>2015-07-04T06:16:00Z</time>
				<extensions>
				</extensions>
			</trkpt>
			<trkpt lat="-28.186216" lon="153.225601">
				<ele>151.328</ele>
				<time>2015-07-04T06:16:02Z</time>
				<extensions>
				</extensions>
			</trkpt>
			<trkpt lat="-28.185918" lon="153.225533">
				<ele>149.940</ele>
				<time>2015-07-04T06:16:04Z</time>
				<extensions>
				</extensions>
			</trkpt>
			<trkpt lat="-28.185613" lon="153.225479">
				<ele>148.715</ele>
				<time>2015-07-04T06:16:06Z</time>
				<extensions>
				</extensions>
			</trkpt>
			<trkpt lat="-28.185428" lon="153.225449">
				<ele>149.334</ele>
				<time>2015-07-04T06:16:07Z</time>
				<extensions>
				</extensions>
			</trkpt>
			<trkpt lat="-28.185240" lon="153.225418">
				<ele>148.387</ele>
				<time>2015-07-04T06:16:08Z</time>
				<extensions>
				</extensions>
			</trkpt>
			<trkpt lat="-28.184941" lon="153.225366">
				<ele>147.783</ele>
				<time>2015-07-04T06:16:09Z</time>
				<extensions>
				</extensions>
			</trkpt>
			<trkpt lat="-28.184750" lon="153.225332">
				<ele>147.578</ele>
				<time>2015-07-04T06:16:10Z</time>
				<extensions>
				</extensions>
			</trkpt>
			<trkpt lat="-28.184535" lon="153.225292">
				<ele>147.442</ele>
				<time>2015-07-04T06:16:11Z</time>
				<extensions>
				</extensions>
			</trkpt>
			<trkpt lat="-28.184170" lon="153.225236">
				<ele>146.261</ele>
				<time>2015-07-04T06:16:13Z</time>
				<extensions>
				</extensions>
			</trkpt>
			<trkpt lat="-28.183990" lon="153.225202">
				<ele>145.516</ele>
				<time>2015-07-04T06:16:14Z</time>
				<extensions>
				</extensions>
			</trkpt>
			<trkpt lat="-28.183809" lon="153.225166">
				<ele>145.144</ele>
				<time>2015-07-04T06:16:15Z</time>
				<extensions>
				</extensions>
			</trkpt>
			<trkpt lat="-28.183477" lon="153.225104">
				<ele>145.075</ele>
				<time>2015-07-04T06:16:17Z</time>
				<extensions>
				</extensions>
			</trkpt>
			<trkpt lat="-28.183290" lon="153.225083">
				<ele>145.008</ele>
				<time>2015-07-04T06:16:18Z</time>
				<extensions>
				</extensions>
			</trkpt>
			<trkpt lat="-28.182928" lon="153.225108">
				<ele>145.934</ele>
				<time>2015-07-04T06:16:20Z</time>
				<extensions>
				</extensions>
			</trkpt>
			<trkpt lat="-28.182739" lon="153.225121">
				<ele>145.512</ele>
				<time>2015-07-04T06:16:21Z</time>
				<extensions>
				</extensions>
			</trkpt>
			<trkpt lat="-28.182555" lon="153.225146">
				<ele>144.888</ele>
				<time>2015-07-04T06:16:22Z</time>
				<extensions>
				</extensions>
			</trkpt>
			<trkpt lat="-28.182362" lon="153.225173">
				<ele>144.022</ele>
				<time>2015-07-04T06:16:23Z</time>
				<extensions>
				</extensions>
			</trkpt>
			<trkpt lat="-28.182165" lon="153.225201">
				<ele>143.744</ele>
				<time>2015-07-04T06:16:24Z</time>
				<extensions>
				</extensions>
			</trkpt>
			<trkpt lat="-28.181975" lon="153.225226">
				<ele>143.744</ele>
				<time>2015-07-04T06:16:25Z</time>
				<extensions>
				</extensions>
			</trkpt>
			<trkpt lat="-28.181789" lon="153.225254">
				<ele>143.161</ele>
				<time>2015-07-04T06:16:26Z</time>
				<extensions>
				</extensions>
			</trkpt>
			<trkpt lat="-28.181566" lon="153.225285">
				<ele>143.036</ele>
				<time>2015-07-04T06:16:27Z</time>
				<extensions>
				</extensions>
			</trkpt>
			<trkpt lat="-28.181247" lon="153.225337">
				<ele>142.573</ele>
				<time>2015-07-04T06:16:29Z</time>
				<extensions>
				</extensions>
			</trkpt>
			<trkpt lat="-28.180909" lon="153.225391">
				<ele>142.282</ele>
				<time>2015-07-04T06:16:31Z</time>
				<extensions>
				</extensions>
			</trkpt>
			<trkpt lat="-28.180720" lon="153.225416">
				<ele>141.702</ele>
				<time>2015-07-04T06:16:32Z</time>
				<extensions>
				</extensions>
			</trkpt>
			<trkpt lat="-28.180368" lon="153.225468">
				<ele>140.824</ele>
				<time>2015-07-04T06:16:34Z</time>
				<extensions>
				</extensions>
			</trkpt>
			<trkpt lat="-28.180023" lon="153.225529">
				<ele>141.212</ele>
				<time>2015-07-04T06:16:36Z</time>
				<extensions>
				</extensions>
			</trkpt>
			<trkpt lat="-28.179830" lon="153.225575">
				<ele>141.260</ele>
				<time>2015-07-04T06:16:37Z</time>
				<extensions>
				</extensions>
			</trkpt>
			<trkpt lat="-28.179490" lon="153.225688">
				<ele>141.558</ele>
				<time>2015-07-04T06:16:39Z</time>
				<extensions>
				</extensions>
			</trkpt>
			<trkpt lat="-28.179300" lon="153.225763">
				<ele>141.040</ele>
				<time>2015-07-04T06:16:40Z</time>
				<extensions>
				</extensions>
			</trkpt>
			<trkpt lat="-28.178959" lon="153.225922">
				<ele>140.946</ele>
				<time>2015-07-04T06:16:42Z</time>
				<extensions>
				</extensions>
			</trkpt>
			<trkpt lat="-28.178782" lon="153.225991">
				<ele>140.574</ele>
				<time>2015-07-04T06:16:43Z</time>
				<extensions>
				</extensions>
			</trkpt>
			<trkpt lat="-28.178443" lon="153.226085">
				<ele>138.711</ele>
				<time>2015-07-04T06:16:45Z</time>
				<extensions>
				</extensions>
			</trkpt>
			<trkpt lat="-28.178094" lon="153.226104">
				<ele>138.669</ele>
				<time>2015-07-04T06:16:47Z</time>
				<extensions>
				</extensions>
			</trkpt>
			<trkpt lat="-28.177913" lon="153.226078">
				<ele>138.604</ele>
				<time>2015-07-04T06:16:48Z</time>
				<extensions>
				</extensions>
			</trkpt>
			<trkpt lat="-28.177589" lon="153.225972">
				<ele>139.196</ele>
				<time>2015-07-04T06:16:50Z</time>
				<extensions>
				</extensions>
			</trkpt>
			<trkpt lat="-28.177289" lon="153.225790">
				<ele>139.738</ele>
				<time>2015-07-04T06:16:52Z</time>
				<extensions>
				</extensions>
			</trkpt>
			<trkpt lat="-28.177007" lon="153.225532">
				<ele>140.696</ele>
				<time>2015-07-04T06:16:54Z</time>
				<extensions>
				</extensions>
			</trkpt>
			<trkpt lat="-28.176858" lon="153.225385">
				<ele>140.691</ele>
				<time>2015-07-04T06:16:55Z</time>
				<extensions>
				</extensions>
			</trkpt>
			<trkpt lat="-28.176719" lon="153.225253">
				<ele>140.805</ele>
				<time>2015-07-04T06:16:56Z</time>
				<extensions>
				</extensions>
			</trkpt>
			<trkpt lat="-28.176419" lon="153.225013">
				<ele>143.124</ele>
				<time>2015-07-04T06:16:58Z</time>
				<extensions>
				</extensions>
			</trkpt>
			<trkpt lat="-28.176250" lon="153.224899">
				<ele>145.276</ele>
				<time>2015-07-04T06:16:59Z</time>
				<extensions>
				</extensions>
			</trkpt>
			<trkpt lat="-28.175945" lon="153.224692">
				<ele>148.211</ele>
				<time>2015-07-04T06:17:01Z</time>
				<extensions>
				</extensions>
			</trkpt>
			<trkpt lat="-28.175640" lon="153.224496">
				<ele>150.312</ele>
				<time>2015-07-04T06:17:03Z</time>
				<extensions>
				</extensions>
			</trkpt>
			<trkpt lat="-28.175472" lon="153.224389">
				<ele>151.499</ele>
				<time>2015-07-04T06:17:04Z</time>
				<extensions>
				</extensions>
			</trkpt>
			<trkpt lat="-28.175188" lon="153.224210">
				<ele>153.736</ele>
				<time>2015-07-04T06:17:06Z</time>
				<extensions>
				</extensions>
			</trkpt>
			<trkpt lat="-28.174917" lon="153.224016">
				<ele>155.466</ele>
				<time>2015-07-04T06:17:08Z</time>
				<extensions>
				</extensions>
			</trkpt>
			<trkpt lat="-28.174621" lon="153.223771">
				<ele>158.114</ele>
				<time>2015-07-04T06:17:10Z</time>
				<extensions>
				</extensions>
			</trkpt>
			<trkpt lat="-28.174326" lon="153.223519">
				<ele>157.784</ele>
				<time>2015-07-04T06:17:12Z</time>
				<extensions>
				</extensions>
			</trkpt>
			<trkpt lat="-28.174174" lon="153.223382">
				<ele>156.654</ele>
				<time>2015-07-04T06:17:13Z</time>
				<extensions>
				</extensions>
			</trkpt>
			<trkpt lat="-28.174028" lon="153.223248">
				<ele>154.547</ele>
				<time>2015-07-04T06:17:14Z</time>
				<extensions>
				</extensions>
			</trkpt>
			<trkpt lat="-28.173879" lon="153.223106">
				<ele>152.900</ele>
				<time>2015-07-04T06:17:15Z</time>
				<extensions>
				</extensions>
			</trkpt>
			<trkpt lat="-28.173717" lon="153.222976">
				<ele>152.440</ele>
				<time>2015-07-04T06:17:16Z</time>
				<extensions>
				</extensions>
			</trkpt>
			<trkpt lat="-28.173568" lon="153.222851">
				<ele>152.675</ele>
				<time>2015-07-04T06:17:17Z</time>
				<extensions>
				</extensions>
			</trkpt>
			<trkpt lat="-28.173408" lon="153.222719">
				<ele>152.712</ele>
				<time>2015-07-04T06:17:18Z</time>
				<extensions>
				</extensions>
			</trkpt>
			<trkpt lat="-28.173246" lon="153.222592">
				<ele>152.666</ele>
				<time>2015-07-04T06:17:19Z</time>
				<extensions>
				</extensions>
			</trkpt>
			<trkpt lat="-28.173065" lon="153.222470">
				<ele>153.186</ele>
				<time>2015-07-04T06:17:20Z</time>
				<extensions>
				</extensions>
			</trkpt>
			<trkpt lat="-28.172732" lon="153.222269">
				<ele>153.054</ele>
				<time>2015-07-04T06:17:22Z</time>
				<extensions>
				</extensions>
			</trkpt>
			<trkpt lat="-28.172562" lon="153.222169">
				<ele>152.191</ele>
				<time>2015-07-04T06:17:23Z</time>
				<extensions>
				</extensions>
			</trkpt>
			<trkpt lat="-28.172397" lon="153.222069">
				<ele>151.737</ele>
				<time>2015-07-04T06:17:24Z</time>
				<extensions>
				</extensions>
			</trkpt>
			<trkpt lat="-28.172088" lon="153.221886">
				<ele>150.206</ele>
				<time>2015-07-04T06:17:26Z</time>
				<extensions>
				</extensions>
			</trkpt>
			<trkpt lat="-28.171927" lon="153.221788">
				<ele>150.988</ele>
				<time>2015-07-04T06:17:27Z</time>
				<extensions>
				</extensions>
			</trkpt>
			<trkpt lat="-28.171760" lon="153.221689">
				<ele>151.516</ele>
				<time>2015-07-04T06:17:28Z</time>
				<extensions>
				</extensions>
			</trkpt>
			<trkpt lat="-28.171432" lon="153.221493">
				<ele>153.461</ele>
				<time>2015-07-04T06:17:30Z</time>
				<extensions>
				</extensions>
			</trkpt>
			<trkpt lat="-28.171125" lon="153.221307">
				<ele>151.196</ele>
				<time>2015-07-04T06:17:32Z</time>
				<extensions>
				</extensions>
			</trkpt>
			<trkpt lat="-28.170955" lon="153.221204">
				<ele>149.612</ele>
				<time>2015-07-04T06:17:33Z</time>
				<extensions>
				</extensions>
			</trkpt>
			<trkpt lat="-28.170647" lon="153.221019">
				<ele>149.409</ele>
				<time>2015-07-04T06:17:35Z</time>
				<extensions>
				</extensions>
			</trkpt>
			<trkpt lat="-28.170321" lon="153.220824">
				<ele>148.789</ele>
				<time>2015-07-04T06:17:37Z</time>
				<extensions>
				</extensions>
			</trkpt>
			<trkpt lat="-28.170153" lon="153.220724">
				<ele>148.283</ele>
				<time>2015-07-04T06:17:38Z</time>
				<extensions>
				</extensions>
			</trkpt>
			<trkpt lat="-28.169994" lon="153.220625">
				<ele>147.641</ele>
				<time>2015-07-04T06:17:39Z</time>
				<extensions>
				</extensions>
			</trkpt>
			<trkpt lat="-28.169822" lon="153.220518">
				<ele>147.760</ele>
				<time>2015-07-04T06:17:40Z</time>
				<extensions>
				</extensions>
			</trkpt>
			<trkpt lat="-28.169650" lon="153.220410">
				<ele>148.036</ele>
				<time>2015-07-04T06:17:41Z</time>
				<extensions>
				</extensions>
			</trkpt>
			<trkpt lat="-28.169371" lon="153.220237">
				<ele>147.496</ele>
				<time>2015-07-04T06:17:43Z</time>
				<extensions>
				</extensions>
			</trkpt>
			<trkpt lat="-28.169060" lon="153.220053">
				<ele>147.254</ele>
				<time>2015-07-04T06:17:45Z</time>
				<extensions>
				</extensions>
			</trkpt>
			<trkpt lat="-28.168739" lon="153.219904">
				<ele>145.850</ele>
				<time>2015-07-04T06:17:47Z</time>
				<extensions>
				</extensions>
			</trkpt>
			<trkpt lat="-28.168393" lon="153.219786">
				<ele>146.353</ele>
				<time>2015-07-04T06:17:49Z</time>
				<extensions>
				</extensions>
			</trkpt>
			<trkpt lat="-28.168205" lon="153.219724">
				<ele>146.475</ele>
				<time>2015-07-04T06:17:50Z</time>
				<extensions>
				</extensions>
			</trkpt>
			<trkpt lat="-28.168016" lon="153.219660">
				<ele>145.354</ele>
				<time>2015-07-04T06:17:51Z</time>
				<extensions>
				</extensions>
			</trkpt>
			<trkpt lat="-28.167825" lon="153.219599">
				<ele>143.769</ele>
				<time>2015-07-04T06:17:52Z</time>
				<extensions>
				</extensions>
			</trkpt>
			<trkpt lat="-28.167637" lon="153.219537">
				<ele>142.256</ele>
				<time>2015-07-04T06:17:53Z</time>
				<extensions>
				</extensions>
			</trkpt>
			<trkpt lat="-28.167443" lon="153.219475">
				<ele>140.228</ele>
				<time>2015-07-04T06:17:54Z</time>
				<extensions>
				</extensions>
			</trkpt>
			<trkpt lat="-28.167256" lon="153.219411">
				<ele>139.826</ele>
				<time>2015-07-04T06:17:55Z</time>
				<extensions>
				</extensions>
			</trkpt>
			<trkpt lat="-28.167062" lon="153.219347">
				<ele>139.793</ele>
				<time>2015-07-04T06:17:56Z</time>
				<extensions>
				</extensions>
			</trkpt>
			<trkpt lat="-28.166718" lon="153.219237">
				<ele>138.593</ele>
				<time>2015-07-04T06:17:58Z</time>
				<extensions>
				</extensions>
			</trkpt>
			<trkpt lat="-28.166523" lon="153.219170">
				<ele>137.908</ele>
				<time>2015-07-04T06:17:59Z</time>
				<extensions>
				</extensions>
			</trkpt>
			<trkpt lat="-28.166319" lon="153.219093">
				<ele>136.752</ele>
				<time>2015-07-04T06:18:00Z</time>
				<extensions>
				</extensions>
			</trkpt>
			<trkpt lat="-28.166122" lon="153.219014">
				<ele>135.208</ele>
				<time>2015-07-04T06:18:01Z</time>
				<extensions>
				</extensions>
			</trkpt>
			<trkpt lat="-28.165911" lon="153.218925">
				<ele>133.627</ele>
				<time>2015-07-04T06:18:02Z</time>
				<extensions>
				</extensions>
			</trkpt>
			<trkpt lat="-28.165698" lon="153.218827">
				<ele>132.482</ele>
				<time>2015-07-04T06:18:03Z</time>
				<extensions>
				</extensions>
			</trkpt>
			<trkpt lat="-28.165347" lon="153.218628">
				<ele>131.403</ele>
				<time>2015-07-04T06:18:05Z</time>
				<extensions>
				</extensions>
			</trkpt>
			<trkpt lat="-28.165081" lon="153.218527">
				<ele>131.839</ele>
				<time>2015-07-04T06:18:07Z</time>
				<extensions>
				</extensions>
			</trkpt>
			<trkpt lat="-28.164768" lon="153.218386">
				<ele>131.573</ele>
				<time>2015-07-04T06:18:09Z</time>
				<extensions>
				</extensions>
			</trkpt>
			<trkpt lat="-28.164449" lon="153.218273">
				<ele>132.074</ele>
				<time>2015-07-04T06:18:11Z</time>
				<extensions>
				</extensions>
			</trkpt>
			<trkpt lat="-28.164131" lon="153.218195">
				<ele>130.433</ele>
				<time>2015-07-04T06:18:13Z</time>
				<extensions>
				</extensions>
			</trkpt>
			<trkpt lat="-28.163832" lon="153.218161">
				<ele>128.598</ele>
				<time>2015-07-04T06:18:15Z</time>
				<extensions>
				</extensions>
			</trkpt>
			<trkpt lat="-28.163540" lon="153.218158">
				<ele>124.956</ele>
				<time>2015-07-04T06:18:17Z</time>
				<extensions>
				</extensions>
			</trkpt>
			<trkpt lat="-28.163274" lon="153.218181">
				<ele>121.739</ele>
				<time>2015-07-04T06:18:19Z</time>
				<extensions>
				</extensions>
			</trkpt>
			<trkpt lat="-28.163030" lon="153.218233">
				<ele>121.914</ele>
				<time>2015-07-04T06:18:21Z</time>
				<extensions>
				</extensions>
			</trkpt>
			<trkpt lat="-28.162809" lon="153.218295">
				<ele>120.574</ele>
				<time>2015-07-04T06:18:23Z</time>
				<extensions>
				</extensions>
			</trkpt>
			<trkpt lat="-28.162586" lon="153.218343">
				<ele>122.030</ele>
				<time>2015-07-04T06:18:25Z</time>
				<extensions>
				</extensions>
			</trkpt>
			<trkpt lat="-28.162374" lon="153.218398">
				<ele>123.148</ele>
				<time>2015-07-04T06:18:27Z</time>
				<extensions>
				</extensions>
			</trkpt>
			<trkpt lat="-28.162154" lon="153.218491">
				<ele>124.997</ele>
				<time>2015-07-04T06:18:29Z</time>
				<extensions>
				</extensions>
			</trkpt>
			<trkpt lat="-28.161884" lon="153.218652">
				<ele>125.881</ele>
				<time>2015-07-04T06:18:31Z</time>
				<extensions>
				</extensions>
			</trkpt>
			<trkpt lat="-28.161643" lon="153.218806">
				<ele>126.240</ele>
				<time>2015-07-04T06:18:32Z</time>
				<extensions>
				</extensions>
			</trkpt>
			<trkpt lat="-28.161358" lon="153.219065">
				<ele>128.094</ele>
				<time>2015-07-04T06:18:34Z</time>
				<extensions>
				</extensions>
			</trkpt>
			<trkpt lat="-28.161215" lon="153.219214">
				<ele>128.116</ele>
				<time>2015-07-04T06:18:35Z</time>
				<extensions>
				</extensions>
			</trkpt>
			<trkpt lat="-28.160968" lon="153.219492">
				<ele>127.225</ele>
				<time>2015-07-04T06:18:37Z</time>
				<extensions>
				</extensions>
			</trkpt>
			<trkpt lat="-28.160723" lon="153.219772">
				<ele>126.604</ele>
				<time>2015-07-04T06:18:39Z</time>
				<extensions>
				</extensions>
			</trkpt>
			<trkpt lat="-28.160592" lon="153.219918">
				<ele>127.287</ele>
				<time>2015-07-04T06:18:40Z</time>
				<extensions>
				</extensions>
			</trkpt>
			<trkpt lat="-28.160344" lon="153.220196">
				<ele>127.766</ele>
				<time>2015-07-04T06:18:42Z</time>
				<extensions>
				</extensions>
			</trkpt>
			<trkpt lat="-28.160074" lon="153.220477">
				<ele>127.402</ele>
				<time>2015-07-04T06:18:44Z</time>
				<extensions>
				</extensions>
			</trkpt>
			<trkpt lat="-28.159926" lon="153.220614">
				<ele>127.075</ele>
				<time>2015-07-04T06:18:45Z</time>
				<extensions>
				</extensions>
			</trkpt>
			<trkpt lat="-28.159776" lon="153.220739">
				<ele>127.513</ele>
				<time>2015-07-04T06:18:46Z</time>
				<extensions>
				</extensions>
			</trkpt>
			<trkpt lat="-28.159616" lon="153.220858">
				<ele>128.987</ele>
				<time>2015-07-04T06:18:47Z</time>
				<extensions>
				</extensions>
			</trkpt>
			<trkpt lat="-28.159454" lon="153.220978">
				<ele>128.412</ele>
				<time>2015-07-04T06:18:48Z</time>
				<extensions>
				</extensions>
			</trkpt>
			<trkpt lat="-28.159301" lon="153.221089">
				<ele>127.623</ele>
				<time>2015-07-04T06:18:49Z</time>
				<extensions>
				</extensions>
			</trkpt>
			<trkpt lat="-28.159136" lon="153.221207">
				<ele>127.955</ele>
				<time>2015-07-04T06:18:50Z</time>
				<extensions>
				</extensions>
			</trkpt>
			<trkpt lat="-28.158974" lon="153.221324">
				<ele>127.064</ele>
				<time>2015-07-04T06:18:51Z</time>
				<extensions>
				</extensions>
			</trkpt>
			<trkpt lat="-28.158673" lon="153.221546">
				<ele>126.386</ele>
				<time>2015-07-04T06:18:53Z</time>
				<extensions>
				</extensions>
			</trkpt>
			<trkpt lat="-28.158517" lon="153.221657">
				<ele>126.141</ele>
				<time>2015-07-04T06:18:54Z</time>
				<extensions>
				</extensions>
			</trkpt>
			<trkpt lat="-28.158354" lon="153.221772">
				<ele>126.103</ele>
				<time>2015-07-04T06:18:55Z</time>
				<extensions>
				</extensions>
			</trkpt>
			<trkpt lat="-28.158191" lon="153.221893">
				<ele>126.212</ele>
				<time>2015-07-04T06:18:56Z</time>
				<extensions>
				</extensions>
			</trkpt>
			<trkpt lat="-28.158033" lon="153.222004">
				<ele>126.236</ele>
				<time>2015-07-04T06:18:57Z</time>
				<extensions>
				</extensions>
			</trkpt>
			<trkpt lat="-28.157865" lon="153.222125">
				<ele>125.661</ele>
				<time>2015-07-04T06:18:58Z</time>
				<extensions>
				</extensions>
			</trkpt>
			<trkpt lat="-28.157713" lon="153.222234">
				<ele>125.315</ele>
				<time>2015-07-04T06:18:59Z</time>
				<extensions>
				</extensions>
			</trkpt>
			<trkpt lat="-28.157553" lon="153.222347">
				<ele>125.702</ele>
				<time>2015-07-04T06:19:00Z</time>
				<extensions>
				</extensions>
			</trkpt>
			<trkpt lat="-28.157379" lon="153.222470">
				<ele>125.749</ele>
				<time>2015-07-04T06:19:01Z</time>
				<extensions>
				</extensions>
			</trkpt>
			<trkpt lat="-28.157219" lon="153.222580">
				<ele>125.249</ele>
				<time>2015-07-04T06:19:02Z</time>
				<extensions>
				</extensions>
			</trkpt>
			<trkpt lat="-28.157050" lon="153.222692">
				<ele>125.628</ele>
				<time>2015-07-04T06:19:03Z</time>
				<extensions>
				</extensions>
			</trkpt>
			<trkpt lat="-28.156868" lon="153.222811">
				<ele>125.406</ele>
				<time>2015-07-04T06:19:04Z</time>
				<extensions>
				</extensions>
			</trkpt>
			<trkpt lat="-28.156691" lon="153.222924">
				<ele>126.255</ele>
				<time>2015-07-04T06:19:05Z</time>
				<extensions>
				</extensions>
			</trkpt>
			<trkpt lat="-28.156516" lon="153.223032">
				<ele>126.696</ele>
				<time>2015-07-04T06:19:06Z</time>
				<extensions>
				</extensions>
			</trkpt>
			<trkpt lat="-28.156323" lon="153.223141">
				<ele>126.696</ele>
				<time>2015-07-04T06:19:07Z</time>
				<extensions>
				</extensions>
			</trkpt>
			<trkpt lat="-28.156150" lon="153.223231">
				<ele>125.383</ele>
				<time>2015-07-04T06:19:08Z</time>
				<extensions>
				</extensions>
			</trkpt>
			<trkpt lat="-28.155967" lon="153.223327">
				<ele>125.383</ele>
				<time>2015-07-04T06:19:09Z</time>
				<extensions>
				</extensions>
			</trkpt>
			<trkpt lat="-28.155796" lon="153.223415">
				<ele>124.192</ele>
				<time>2015-07-04T06:19:10Z</time>
				<extensions>
				</extensions>
			</trkpt>
			<trkpt lat="-28.155604" lon="153.223512">
				<ele>124.162</ele>
				<time>2015-07-04T06:19:11Z</time>
				<extensions>
				</extensions>
			</trkpt>
			<trkpt lat="-28.155429" lon="153.223601">
				<ele>123.958</ele>
				<time>2015-07-04T06:19:12Z</time>
				<extensions>
				</extensions>
			</trkpt>
			<trkpt lat="-28.155261" lon="153.223687">
				<ele>123.335</ele>
				<time>2015-07-04T06:19:13Z</time>
				<extensions>
				</extensions>
			</trkpt>
			<trkpt lat="-28.155082" lon="153.223779">
				<ele>121.035</ele>
				<time>2015-07-04T06:19:14Z</time>
				<extensions>
				</extensions>
			</trkpt>
			<trkpt lat="-28.154912" lon="153.223868">
				<ele>120.201</ele>
				<time>2015-07-04T06:19:15Z</time>
				<extensions>
				</extensions>
			</trkpt>
			<trkpt lat="-28.154741" lon="153.223956">
				<ele>119.537</ele>
				<time>2015-07-04T06:19:16Z</time>
				<extensions>
				</extensions>
			</trkpt>
			<trkpt lat="-28.154547" lon="153.224056">
				<ele>119.441</ele>
				<time>2015-07-04T06:19:17Z</time>
				<extensions>
				</extensions>
			</trkpt>
			<trkpt lat="-28.154368" lon="153.224150">
				<ele>119.130</ele>
				<time>2015-07-04T06:19:18Z</time>
				<extensions>
				</extensions>
			</trkpt>
			<trkpt lat="-28.154163" lon="153.224265">
				<ele>118.809</ele>
				<time>2015-07-04T06:19:19Z</time>
				<extensions>
				</extensions>
			</trkpt>
			<trkpt lat="-28.153970" lon="153.224389">
				<ele>118.298</ele>
				<time>2015-07-04T06:19:20Z</time>
				<extensions>
				</extensions>
			</trkpt>
			<trkpt lat="-28.153805" lon="153.224516">
				<ele>117.823</ele>
				<time>2015-07-04T06:19:21Z</time>
				<extensions>
				</extensions>
			</trkpt>
			<trkpt lat="-28.153630" lon="153.224673">
				<ele>117.560</ele>
				<time>2015-07-04T06:19:22Z</time>
				<extensions>
				</extensions>
			</trkpt>
			<trkpt lat="-28.153490" lon="153.224832">
				<ele>117.356</ele>
				<time>2015-07-04T06:19:23Z</time>
				<extensions>
				</extensions>
			</trkpt>
			<trkpt lat="-28.153256" lon="153.225155">
				<ele>119.074</ele>
				<time>2015-07-04T06:19:25Z</time>
				<extensions>
				</extensions>
			</trkpt>
			<trkpt lat="-28.153179" lon="153.225254">
				<ele>118.057</ele>
				<time>2015-07-04T06:19:26Z</time>
				<extensions>
				</extensions>
			</trkpt>
			<trkpt lat="-28.152936" lon="153.225540">
				<ele>116.830</ele>
				<time>2015-07-04T06:19:28Z</time>
				<extensions>
				</extensions>
			</trkpt>
			<trkpt lat="-28.152653" lon="153.225779">
				<ele>115.515</ele>
				<time>2015-07-04T06:19:30Z</time>
				<extensions>
				</extensions>
			</trkpt>
			<trkpt lat="-28.152343" lon="153.225968">
				<ele>116.991</ele>
				<time>2015-07-04T06:19:32Z</time>
				<extensions>
				</extensions>
			</trkpt>
			<trkpt lat="-28.152163" lon="153.226050">
				<ele>117.262</ele>
				<time>2015-07-04T06:19:33Z</time>
				<extensions>
				</extensions>
			</trkpt>
			<trkpt lat="-28.151981" lon="153.226122">
				<ele>118.328</ele>
				<time>2015-07-04T06:19:34Z</time>
				<extensions>
				</extensions>
			</trkpt>
			<trkpt lat="-28.151783" lon="153.226191">
				<ele>119.161</ele>
				<time>2015-07-04T06:19:35Z</time>
				<extensions>
				</extensions>
			</trkpt>
			<trkpt lat="-28.151592" lon="153.226258">
				<ele>118.851</ele>
				<time>2015-07-04T06:19:36Z</time>
				<extensions>
				</extensions>
			</trkpt>
			<trkpt lat="-28.151253" lon="153.226376">
				<ele>117.447</ele>
				<time>2015-07-04T06:19:38Z</time>
				<extensions>
				</extensions>
			</trkpt>
			<trkpt lat="-28.150938" lon="153.226487">
				<ele>115.030</ele>
				<time>2015-07-04T06:19:40Z</time>
				<extensions>
				</extensions>
			</trkpt>
			<trkpt lat="-28.150665" lon="153.226584">
				<ele>110.962</ele>
				<time>2015-07-04T06:19:42Z</time>
				<extensions>
				</extensions>
			</trkpt>
			<trkpt lat="-28.150399" lon="153.226679">
				<ele>110.333</ele>
				<time>2015-07-04T06:19:44Z</time>
				<extensions>
				</extensions>
			</trkpt>
			<trkpt lat="-28.150148" lon="153.226782">
				<ele>109.980</ele>
				<time>2015-07-04T06:19:46Z</time>
				<extensions>
				</extensions>
			</trkpt>
			<trkpt lat="-28.149874" lon="153.226882">
				<ele>110.054</ele>
				<time>2015-07-04T06:19:48Z</time>
				<extensions>
				</extensions>
			</trkpt>
			<trkpt lat="-28.149590" lon="153.226969">
				<ele>109.245</ele>
				<time>2015-07-04T06:19:50Z</time>
				<extensions>
				</extensions>
			</trkpt>
			<trkpt lat="-28.149305" lon="153.227071">
				<ele>108.455</ele>
				<time>2015-07-04T06:19:52Z</time>
				<extensions>
				</extensions>
			</trkpt>
			<trkpt lat="-28.149032" lon="153.227169">
				<ele>107.590</ele>
				<time>2015-07-04T06:19:54Z</time>
				<extensions>
				</extensions>
			</trkpt>
			<trkpt lat="-28.148764" lon="153.227266">
				<ele>109.433</ele>
				<time>2015-07-04T06:19:56Z</time>
				<extensions>
				</extensions>
			</trkpt>
			<trkpt lat="-28.148481" lon="153.227368">
				<ele>110.725</ele>
				<time>2015-07-04T06:19:58Z</time>
				<extensions>
				</extensions>
			</trkpt>
			<trkpt lat="-28.148201" lon="153.227469">
				<ele>110.019</ele>
				<time>2015-07-04T06:20:00Z</time>
				<extensions>
				</extensions>
			</trkpt>
			<trkpt lat="-28.147923" lon="153.227557">
				<ele>110.403</ele>
				<time>2015-07-04T06:20:02Z</time>
				<extensions>
				</extensions>
			</trkpt>
			<trkpt lat="-28.147647" lon="153.227637">
				<ele>110.828</ele>
				<time>2015-07-04T06:20:04Z</time>
				<extensions>
				</extensions>
			</trkpt>
			<trkpt lat="-28.147371" lon="153.227700">
				<ele>111.387</ele>
				<time>2015-07-04T06:20:06Z</time>
				<extensions>
				</extensions>
			</trkpt>
			<trkpt lat="-28.147086" lon="153.227759">
				<ele>109.821</ele>
				<time>2015-07-04T06:20:08Z</time>
				<extensions>
				</extensions>
			</trkpt>
			<trkpt lat="-28.146811" lon="153.227766">
				<ele>109.140</ele>
				<time>2015-07-04T06:20:10Z</time>
				<extensions>
				</extensions>
			</trkpt>
			<trkpt lat="-28.146578" lon="153.227666">
				<ele>108.061</ele>
				<time>2015-07-04T06:20:12Z</time>
				<extensions>
				</extensions>
			</trkpt>
			<trkpt lat="-28.146361" lon="153.227475">
				<ele>110.069</ele>
				<time>2015-07-04T06:20:14Z</time>
				<extensions>
				</extensions>
			</trkpt>
			<trkpt lat="-28.146177" lon="153.227236">
				<ele>112.671</ele>
				<time>2015-07-04T06:20:16Z</time>
				<extensions>
				</extensions>
			</trkpt>
			<trkpt lat="-28.145979" lon="153.226988">
				<ele>113.213</ele>
				<time>2015-07-04T06:20:18Z</time>
				<extensions>
				</extensions>
			</trkpt>
			<trkpt lat="-28.145780" lon="153.226750">
				<ele>112.798</ele>
				<time>2015-07-04T06:20:20Z</time>
				<extensions>
				</extensions>
			</trkpt>
			<trkpt lat="-28.145574" lon="153.226510">
				<ele>112.816</ele>
				<time>2015-07-04T06:20:22Z</time>
				<extensions>
				</extensions>
			</trkpt>
			<trkpt lat="-28.145341" lon="153.226296">
				<ele>112.402</ele>
				<time>2015-07-04T06:20:24Z</time>
				<extensions>
				</extensions>
			</trkpt>
			<trkpt lat="-28.145082" lon="153.226126">
				<ele>112.614</ele>
				<time>2015-07-04T06:20:26Z</time>
				<extensions>
				</extensions>
			</trkpt>
			<trkpt lat="-28.144805" lon="153.225958">
				<ele>111.307</ele>
				<time>2015-07-04T06:20:28Z</time>
				<extensions>
				</extensions>
			</trkpt>
			<trkpt lat="-28.144541" lon="153.225801">
				<ele>110.256</ele>
				<time>2015-07-04T06:20:30Z</time>
				<extensions>
				</extensions>
			</trkpt>
			<trkpt lat="-28.144348" lon="153.225672">
				<ele>109.610</ele>
				<time>2015-07-04T06:20:31Z</time>
				<extensions>
				</extensions>
			</trkpt>
			<trkpt lat="-28.144062" lon="153.225512">
				<ele>108.877</ele>
				<time>2015-07-04T06:20:33Z</time>
				<extensions>
				</extensions>
			</trkpt>
			<trkpt lat="-28.143899" lon="153.225423">
				<ele>108.684</ele>
				<time>2015-07-04T06:20:34Z</time>
				<extensions>
				</extensions>
			</trkpt>
			<trkpt lat="-28.143656" lon="153.225286">
				<ele>108.046</ele>
				<time>2015-07-04T06:20:36Z</time>
				<extensions>
				</extensions>
			</trkpt>
			<trkpt lat="-28.143387" lon="153.225135">
				<ele>108.207</ele>
				<time>2015-07-04T06:20:38Z</time>
				<extensions>
				</extensions>
			</trkpt>
			<trkpt lat="-28.143120" lon="153.224985">
				<ele>107.247</ele>
				<time>2015-07-04T06:20:40Z</time>
				<extensions>
				</extensions>
			</trkpt>
			<trkpt lat="-28.142849" lon="153.224826">
				<ele>106.314</ele>
				<time>2015-07-04T06:20:42Z</time>
				<extensions>
				</extensions>
			</trkpt>
			<trkpt lat="-28.142596" lon="153.224686">
				<ele>105.895</ele>
				<time>2015-07-04T06:20:44Z</time>
				<extensions>
				</extensions>
			</trkpt>
			<trkpt lat="-28.142329" lon="153.224536">
				<ele>106.011</ele>
				<time>2015-07-04T06:20:46Z</time>
				<extensions>
				</extensions>
			</trkpt>
			<trkpt lat="-28.142029" lon="153.224383">
				<ele>106.760</ele>
				<time>2015-07-04T06:20:48Z</time>
				<extensions>
				</extensions>
			</trkpt>
			<trkpt lat="-28.141717" lon="153.224250">
				<ele>106.643</ele>
				<time>2015-07-04T06:20:50Z</time>
				<extensions>
				</extensions>
			</trkpt>
			<trkpt lat="-28.141442" lon="153.224163">
				<ele>105.395</ele>
				<time>2015-07-04T06:20:52Z</time>
				<extensions>
				</extensions>
			</trkpt>
			<trkpt lat="-28.141196" lon="153.224077">
				<ele>105.401</ele>
				<time>2015-07-04T06:20:54Z</time>
				<extensions>
				</extensions>
			</trkpt>
			<trkpt lat="-28.140913" lon="153.223985">
				<ele>105.614</ele>
				<time>2015-07-04T06:20:56Z</time>
				<extensions>
				</extensions>
			</trkpt>
			<trkpt lat="-28.140628" lon="153.223903">
				<ele>104.942</ele>
				<time>2015-07-04T06:20:58Z</time>
				<extensions>
				</extensions>
			</trkpt>
			<trkpt lat="-28.140340" lon="153.223846">
				<ele>104.270</ele>
				<time>2015-07-04T06:21:00Z</time>
				<extensions>
				</extensions>
			</trkpt>
			<trkpt lat="-28.140054" lon="153.223823">
				<ele>104.040</ele>
				<time>2015-07-04T06:21:02Z</time>
				<extensions>
				</extensions>
			</trkpt>
			<trkpt lat="-28.139758" lon="153.223804">
				<ele>104.367</ele>
				<time>2015-07-04T06:21:04Z</time>
				<extensions>
				</extensions>
			</trkpt>
			<trkpt lat="-28.139465" lon="153.223786">
				<ele>104.791</ele>
				<time>2015-07-04T06:21:06Z</time>
				<extensions>
				</extensions>
			</trkpt>
			<trkpt lat="-28.139189" lon="153.223795">
				<ele>104.670</ele>
				<time>2015-07-04T06:21:08Z</time>
				<extensions>
				</extensions>
			</trkpt>
			<trkpt lat="-28.138922" lon="153.223825">
				<ele>104.807</ele>
				<time>2015-07-04T06:21:10Z</time>
				<extensions>
				</extensions>
			</trkpt>
			<trkpt lat="-28.138654" lon="153.223879">
				<ele>106.131</ele>
				<time>2015-07-04T06:21:12Z</time>
				<extensions>
				</extensions>
			</trkpt>
			<trkpt lat="-28.138379" lon="153.223977">
				<ele>107.012</ele>
				<time>2015-07-04T06:21:14Z</time>
				<extensions>
				</extensions>
			</trkpt>
			<trkpt lat="-28.138128" lon="153.224127">
				<ele>106.704</ele>
				<time>2015-07-04T06:21:16Z</time>
				<extensions>
				</extensions>
			</trkpt>
			<trkpt lat="-28.137888" lon="153.224321">
				<ele>106.784</ele>
				<time>2015-07-04T06:21:18Z</time>
				<extensions>
				</extensions>
			</trkpt>
			<trkpt lat="-28.137640" lon="153.224525">
				<ele>106.941</ele>
				<time>2015-07-04T06:21:20Z</time>
				<extensions>
				</extensions>
			</trkpt>
			<trkpt lat="-28.137387" lon="153.224727">
				<ele>107.729</ele>
				<time>2015-07-04T06:21:22Z</time>
				<extensions>
				</extensions>
			</trkpt>
			<trkpt lat="-28.137131" lon="153.224932">
				<ele>108.993</ele>
				<time>2015-07-04T06:21:24Z</time>
				<extensions>
				</extensions>
			</trkpt>
			<trkpt lat="-28.136978" lon="153.225049">
				<ele>109.679</ele>
				<time>2015-07-04T06:21:25Z</time>
				<extensions>
				</extensions>
			</trkpt>
			<trkpt lat="-28.136669" lon="153.225276">
				<ele>111.301</ele>
				<time>2015-07-04T06:21:27Z</time>
				<extensions>
				</extensions>
			</trkpt>
			<trkpt lat="-28.136486" lon="153.225383">
				<ele>111.318</ele>
				<time>2015-07-04T06:21:28Z</time>
				<extensions>
				</extensions>
			</trkpt>
			<trkpt lat="-28.136214" lon="153.225491">
				<ele>112.905</ele>
				<time>2015-07-04T06:21:30Z</time>
				<extensions>
				</extensions>
			</trkpt>
			<trkpt lat="-28.135906" lon="153.225593">
				<ele>115.272</ele>
				<time>2015-07-04T06:21:32Z</time>
				<extensions>
				</extensions>
			</trkpt>
			<trkpt lat="-28.135588" lon="153.225642">
				<ele>118.333</ele>
				<time>2015-07-04T06:21:34Z</time>
				<extensions>
				</extensions>
			</trkpt>
			<trkpt lat="-28.135307" lon="153.225657">
				<ele>119.588</ele>
				<time>2015-07-04T06:21:36Z</time>
				<extensions>
				</extensions>
			</trkpt>
			<trkpt lat="-28.135027" lon="153.225694">
				<ele>121.021</ele>
				<time>2015-07-04T06:21:38Z</time>
				<extensions>
				</extensions>
			</trkpt>
			<trkpt lat="-28.134699" lon="153.225789">
				<ele>124.240</ele>
				<time>2015-07-04T06:21:40Z</time>
				<extensions>
				</extensions>
			</trkpt>
			<trkpt lat="-28.134449" lon="153.225906">
				<ele>125.055</ele>
				<time>2015-07-04T06:21:42Z</time>
				<extensions>
				</extensions>
			</trkpt>
			<trkpt lat="-28.134149" lon="153.226129">
				<ele>126.685</ele>
				<time>2015-07-04T06:21:44Z</time>
				<extensions>
				</extensions>
			</trkpt>
			<trkpt lat="-28.133913" lon="153.226433">
				<ele>125.113</ele>
				<time>2015-07-04T06:21:46Z</time>
				<extensions>
				</extensions>
			</trkpt>
			<trkpt lat="-28.133744" lon="153.226741">
				<ele>121.636</ele>
				<time>2015-07-04T06:21:48Z</time>
				<extensions>
				</extensions>
			</trkpt>
			<trkpt lat="-28.133638" lon="153.226962">
				<ele>121.159</ele>
				<time>2015-07-04T06:21:49Z</time>
				<extensions>
				</extensions>
			</trkpt>
			<trkpt lat="-28.133462" lon="153.227322">
				<ele>118.107</ele>
				<time>2015-07-04T06:21:51Z</time>
				<extensions>
				</extensions>
			</trkpt>
			<trkpt lat="-28.133273" lon="153.227596">
				<ele>118.147</ele>
				<time>2015-07-04T06:21:53Z</time>
				<extensions>
				</extensions>
			</trkpt>
			<trkpt lat="-28.133106" lon="153.227724">
				<ele>118.147</ele>
				<time>2015-07-04T06:21:54Z</time>
				<extensions>
				</extensions>
			</trkpt>
			<trkpt lat="-28.132769" lon="153.227900">
				<ele>117.842</ele>
				<time>2015-07-04T06:21:56Z</time>
				<extensions>
				</extensions>
			</trkpt>
			<trkpt lat="-28.132588" lon="153.227938">
				<ele>117.734</ele>
				<time>2015-07-04T06:21:57Z</time>
				<extensions>
				</extensions>
			</trkpt>
			<trkpt lat="-28.132390" lon="153.227996">
				<ele>117.576</ele>
				<time>2015-07-04T06:21:58Z</time>
				<extensions>
				</extensions>
			</trkpt>
			<trkpt lat="-28.132185" lon="153.228041">
				<ele>116.904</ele>
				<time>2015-07-04T06:21:59Z</time>
				<extensions>
				</extensions>
			</trkpt>
			<trkpt lat="-28.131977" lon="153.228087">
				<ele>115.294</ele>
				<time>2015-07-04T06:22:00Z</time>
				<extensions>
				</extensions>
			</trkpt>
			<trkpt lat="-28.131774" lon="153.228140">
				<ele>114.134</ele>
				<time>2015-07-04T06:22:01Z</time>
				<extensions>
				</extensions>
			</trkpt>
			<trkpt lat="-28.131551" lon="153.228185">
				<ele>112.406</ele>
				<time>2015-07-04T06:22:02Z</time>
				<extensions>
				</extensions>
			</trkpt>
			<trkpt lat="-28.131345" lon="153.228224">
				<ele>111.470</ele>
				<time>2015-07-04T06:22:03Z</time>
				<extensions>
				</extensions>
			</trkpt>
			<trkpt lat="-28.131152" lon="153.228262">
				<ele>110.191</ele>
				<time>2015-07-04T06:22:04Z</time>
				<extensions>
				</extensions>
			</trkpt>
			<trkpt lat="-28.130917" lon="153.228306">
				<ele>109.973</ele>
				<time>2015-07-04T06:22:05Z</time>
				<extensions>
				</extensions>
			</trkpt>
			<trkpt lat="-28.130723" lon="153.228347">
				<ele>110.458</ele>
				<time>2015-07-04T06:22:06Z</time>
				<extensions>
				</extensions>
			</trkpt>
			<trkpt lat="-28.130514" lon="153.228402">
				<ele>110.863</ele>
				<time>2015-07-04T06:22:07Z</time>
				<extensions>
				</extensions>
			</trkpt>
			<trkpt lat="-28.130312" lon="153.228451">
				<ele>110.557</ele>
				<time>2015-07-04T06:22:08Z</time>
				<extensions>
				</extensions>
			</trkpt>
			<trkpt lat="-28.130134" lon="153.228487">
				<ele>110.409</ele>
				<time>2015-07-04T06:22:09Z</time>
				<extensions>
				</extensions>
			</trkpt>
			<trkpt lat="-28.129919" lon="153.228536">
				<ele>111.240</ele>
				<time>2015-07-04T06:22:10Z</time>
				<extensions>
				</extensions>
			</trkpt>
			<trkpt lat="-28.128162" lon="153.228861">
				<ele>114.874</ele>
				<time>2015-07-04T06:22:20Z</time>
				<extensions>
				</extensions>
			</trkpt>
			<trkpt lat="-28.127956" lon="153.228932">
				<ele>114.618</ele>
				<time>2015-07-04T06:22:21Z</time>
				<extensions>
				</extensions>
			</trkpt>
			<trkpt lat="-28.127787" lon="153.229018">
				<ele>114.418</ele>
				<time>2015-07-04T06:22:22Z</time>
				<extensions>
				</extensions>
			</trkpt>
			<trkpt lat="-28.127634" lon="153.229140">
				<ele>113.626</ele>
				<time>2015-07-04T06:22:23Z</time>
				<extensions>
				</extensions>
			</trkpt>
			<trkpt lat="-28.127418" lon="153.229416">
				<ele>112.228</ele>
				<time>2015-07-04T06:22:25Z</time>
				<extensions>
				</extensions>
			</trkpt>
			<trkpt lat="-28.127330" lon="153.229595">
				<ele>110.883</ele>
				<time>2015-07-04T06:22:26Z</time>
				<extensions>
				</extensions>
			</trkpt>
			<trkpt lat="-28.127225" lon="153.229941">
				<ele>107.655</ele>
				<time>2015-07-04T06:22:28Z</time>
				<extensions>
				</extensions>
			</trkpt>
			<trkpt lat="-28.127169" lon="153.230333">
				<ele>104.940</ele>
				<time>2015-07-04T06:22:30Z</time>
				<extensions>
				</extensions>
			</trkpt>
			<trkpt lat="-28.127194" lon="153.230715">
				<ele>103.200</ele>
				<time>2015-07-04T06:22:32Z</time>
				<extensions>
				</extensions>
			</trkpt>
			<trkpt lat="-28.127222" lon="153.230918">
				<ele>102.885</ele>
				<time>2015-07-04T06:22:33Z</time>
				<extensions>
				</extensions>
			</trkpt>
			<trkpt lat="-28.127256" lon="153.231126">
				<ele>102.678</ele>
				<time>2015-07-04T06:22:34Z</time>
				<extensions>
				</extensions>
			</trkpt>
			<trkpt lat="-28.127300" lon="153.231329">
				<ele>102.042</ele>
				<time>2015-07-04T06:22:35Z</time>
				<extensions>
				</extensions>
			</trkpt>
			<trkpt lat="-28.127374" lon="153.231708">
				<ele>101.377</ele>
				<time>2015-07-04T06:22:37Z</time>
				<extensions>
				</extensions>
			</trkpt>
			<trkpt lat="-28.127441" lon="153.232095">
				<ele>101.196</ele>
				<time>2015-07-04T06:22:39Z</time>
				<extensions>
				</extensions>
			</trkpt>
			<trkpt lat="-28.127463" lon="153.232309">
				<ele>100.754</ele>
				<time>2015-07-04T06:22:40Z</time>
				<extensions>
				</extensions>
			</trkpt>
			<trkpt lat="-28.127460" lon="153.232700">
				<ele>101.032</ele>
				<time>2015-07-04T06:22:42Z</time>
				<extensions>
				</extensions>
			</trkpt>
			<trkpt lat="-28.127362" lon="153.233084">
				<ele>100.804</ele>
				<time>2015-07-04T06:22:44Z</time>
				<extensions>
				</extensions>
			</trkpt>
			<trkpt lat="-28.127190" lon="153.233430">
				<ele>101.050</ele>
				<time>2015-07-04T06:22:46Z</time>
				<extensions>
				</extensions>
			</trkpt>
			<trkpt lat="-28.126941" lon="153.233694">
				<ele>101.515</ele>
				<time>2015-07-04T06:22:48Z</time>
				<extensions>
				</extensions>
			</trkpt>
			<trkpt lat="-28.126648" lon="153.233874">
				<ele>102.918</ele>
				<time>2015-07-04T06:22:50Z</time>
				<extensions>
				</extensions>
			</trkpt>
			<trkpt lat="-28.126473" lon="153.233942">
				<ele>104.233</ele>
				<time>2015-07-04T06:22:51Z</time>
				<extensions>
				</extensions>
			</trkpt>
			<trkpt lat="-28.126138" lon="153.234053">
				<ele>105.100</ele>
				<time>2015-07-04T06:22:53Z</time>
				<extensions>
				</extensions>
			</trkpt>
			<trkpt lat="-28.125755" lon="153.234173">
				<ele>103.811</ele>
				<time>2015-07-04T06:22:55Z</time>
				<extensions>
				</extensions>
			</trkpt>
			<trkpt lat="-28.125563" lon="153.234230">
				<ele>103.308</ele>
				<time>2015-07-04T06:22:56Z</time>
				<extensions>
				</extensions>
			</trkpt>
			<trkpt lat="-28.125191" lon="153.234368">
				<ele>103.282</ele>
				<time>2015-07-04T06:22:58Z</time>
				<extensions>
				</extensions>
			</trkpt>
			<trkpt lat="-28.125014" lon="153.234437">
				<ele>102.844</ele>
				<time>2015-07-04T06:22:59Z</time>
				<extensions>
				</extensions>
			</trkpt>
			<trkpt lat="-28.124842" lon="153.234521">
				<ele>102.268</ele>
				<time>2015-07-04T06:23:00Z</time>
				<extensions>
				</extensions>
			</trkpt>
			<trkpt lat="-28.124662" lon="153.234623">
				<ele>101.903</ele>
				<time>2015-07-04T06:23:01Z</time>
				<extensions>
				</extensions>
			</trkpt>
			<trkpt lat="-28.124328" lon="153.234814">
				<ele>101.948</ele>
				<time>2015-07-04T06:23:03Z</time>
				<extensions>
				</extensions>
			</trkpt>
			<trkpt lat="-28.124151" lon="153.234903">
				<ele>101.470</ele>
				<time>2015-07-04T06:23:04Z</time>
				<extensions>
				</extensions>
			</trkpt>
			<trkpt lat="-28.123805" lon="153.235080">
				<ele>101.680</ele>
				<time>2015-07-04T06:23:06Z</time>
				<extensions>
				</extensions>
			</trkpt>
			<trkpt lat="-28.123601" lon="153.235168">
				<ele>101.889</ele>
				<time>2015-07-04T06:23:07Z</time>
				<extensions>
				</extensions>
			</trkpt>
			<trkpt lat="-28.123414" lon="153.235251">
				<ele>102.191</ele>
				<time>2015-07-04T06:23:08Z</time>
				<extensions>
				</extensions>
			</trkpt>
			<trkpt lat="-28.123199" lon="153.235336">
				<ele>102.753</ele>
				<time>2015-07-04T06:23:09Z</time>
				<extensions>
				</extensions>
			</trkpt>
			<trkpt lat="-28.122987" lon="153.235402">
				<ele>103.625</ele>
				<time>2015-07-04T06:23:10Z</time>
				<extensions>
				</extensions>
			</trkpt>
			<trkpt lat="-28.122807" lon="153.235456">
				<ele>105.160</ele>
				<time>2015-07-04T06:23:11Z</time>
				<extensions>
				</extensions>
			</trkpt>
			<trkpt lat="-28.122626" lon="153.235516">
				<ele>107.367</ele>
				<time>2015-07-04T06:23:12Z</time>
				<extensions>
				</extensions>
			</trkpt>
			<trkpt lat="-28.122406" lon="153.235566">
				<ele>107.784</ele>
				<time>2015-07-04T06:23:13Z</time>
				<extensions>
				</extensions>
			</trkpt>
			<trkpt lat="-28.122159" lon="153.235625">
				<ele>108.581</ele>
				<time>2015-07-04T06:23:15Z</time>
				<extensions>
				</extensions>
			</trkpt>
			<trkpt lat="-28.121995" lon="153.235665">
				<ele>110.469</ele>
				<time>2015-07-04T06:23:16Z</time>
				<extensions>
				</extensions>
			</trkpt>
			<trkpt lat="-28.121683" lon="153.235733">
				<ele>113.945</ele>
				<time>2015-07-04T06:23:18Z</time>
				<extensions>
				</extensions>
			</trkpt>
			<trkpt lat="-28.121344" lon="153.235801">
				<ele>117.675</ele>
				<time>2015-07-04T06:23:20Z</time>
				<extensions>
				</extensions>
			</trkpt>
			<trkpt lat="-28.121019" lon="153.235890">
				<ele>121.475</ele>
				<time>2015-07-04T06:23:22Z</time>
				<extensions>
				</extensions>
			</trkpt>
			<trkpt lat="-28.120694" lon="153.235968">
				<ele>122.538</ele>
				<time>2015-07-04T06:23:24Z</time>
				<extensions>
				</extensions>
			</trkpt>
			<trkpt lat="-28.120368" lon="153.236047">
				<ele>123.105</ele>
				<time>2015-07-04T06:23:26Z</time>
				<extensions>
				</extensions>
			</trkpt>
			<trkpt lat="-28.120069" lon="153.236114">
				<ele>123.774</ele>
				<time>2015-07-04T06:23:28Z</time>
				<extensions>
				</extensions>
			</trkpt>
			<trkpt lat="-28.119759" lon="153.236196">
				<ele>123.788</ele>
				<time>2015-07-04T06:23:30Z</time>
				<extensions>
				</extensions>
			</trkpt>
			<trkpt lat="-28.119442" lon="153.236282">
				<ele>125.718</ele>
				<time>2015-07-04T06:23:32Z</time>
				<extensions>
				</extensions>
			</trkpt>
			<trkpt lat="-28.119139" lon="153.236435">
				<ele>126.995</ele>
				<time>2015-07-04T06:23:34Z</time>
				<extensions>
				</extensions>
			</trkpt>
			<trkpt lat="-28.118840" lon="153.236621">
				<ele>128.437</ele>
				<time>2015-07-04T06:23:36Z</time>
				<extensions>
				</extensions>
			</trkpt>
			<trkpt lat="-28.118559" lon="153.236832">
				<ele>128.569</ele>
				<time>2015-07-04T06:23:38Z</time>
				<extensions>
				</extensions>
			</trkpt>
			<trkpt lat="-28.118300" lon="153.237102">
				<ele>128.814</ele>
				<time>2015-07-04T06:23:40Z</time>
				<extensions>
				</extensions>
			</trkpt>
			<trkpt lat="-28.118084" lon="153.237411">
				<ele>128.866</ele>
				<time>2015-07-04T06:23:42Z</time>
				<extensions>
				</extensions>
			</trkpt>
			<trkpt lat="-28.117894" lon="153.237761">
				<ele>127.907</ele>
				<time>2015-07-04T06:23:44Z</time>
				<extensions>
				</extensions>
			</trkpt>
			<trkpt lat="-28.117806" lon="153.237941">
				<ele>126.790</ele>
				<time>2015-07-04T06:23:45Z</time>
				<extensions>
				</extensions>
			</trkpt>
			<trkpt lat="-28.117626" lon="153.238300">
				<ele>124.430</ele>
				<time>2015-07-04T06:23:47Z</time>
				<extensions>
				</extensions>
			</trkpt>
			<trkpt lat="-28.117424" lon="153.238637">
				<ele>121.859</ele>
				<time>2015-07-04T06:23:49Z</time>
				<extensions>
				</extensions>
			</trkpt>
			<trkpt lat="-28.117184" lon="153.238945">
				<ele>121.009</ele>
				<time>2015-07-04T06:23:51Z</time>
				<extensions>
				</extensions>
			</trkpt>
			<trkpt lat="-28.117046" lon="153.239081">
				<ele>121.249</ele>
				<time>2015-07-04T06:23:52Z</time>
				<extensions>
				</extensions>
			</trkpt>
			<trkpt lat="-28.116897" lon="153.239197">
				<ele>121.954</ele>
				<time>2015-07-04T06:23:53Z</time>
				<extensions>
				</extensions>
			</trkpt>
			<trkpt lat="-28.116725" lon="153.239301">
				<ele>122.728</ele>
				<time>2015-07-04T06:23:54Z</time>
				<extensions>
				</extensions>
			</trkpt>
			<trkpt lat="-28.116553" lon="153.239387">
				<ele>123.738</ele>
				<time>2015-07-04T06:23:55Z</time>
				<extensions>
				</extensions>
			</trkpt>
			<trkpt lat="-28.116364" lon="153.239458">
				<ele>123.946</ele>
				<time>2015-07-04T06:23:56Z</time>
				<extensions>
				</extensions>
			</trkpt>
			<trkpt lat="-28.116011" lon="153.239579">
				<ele>124.287</ele>
				<time>2015-07-04T06:23:58Z</time>
				<extensions>
				</extensions>
			</trkpt>
			<trkpt lat="-28.115820" lon="153.239644">
				<ele>124.978</ele>
				<time>2015-07-04T06:23:59Z</time>
				<extensions>
				</extensions>
			</trkpt>
			<trkpt lat="-28.115542" lon="153.239745">
				<ele>125.106</ele>
				<time>2015-07-04T06:24:01Z</time>
				<extensions>
				</extensions>
			</trkpt>
			<trkpt lat="-28.115246" lon="153.239872">
				<ele>124.737</ele>
				<time>2015-07-04T06:24:03Z</time>
				<extensions>
				</extensions>
			</trkpt>
			<trkpt lat="-28.114951" lon="153.239995">
				<ele>123.484</ele>
				<time>2015-07-04T06:24:05Z</time>
				<extensions>
				</extensions>
			</trkpt>
			<trkpt lat="-28.114625" lon="153.240106">
				<ele>122.781</ele>
				<time>2015-07-04T06:24:07Z</time>
				<extensions>
				</extensions>
			</trkpt>
			<trkpt lat="-28.114349" lon="153.240192">
				<ele>122.643</ele>
				<time>2015-07-04T06:24:09Z</time>
				<extensions>
				</extensions>
			</trkpt>
			<trkpt lat="-28.114006" lon="153.240293">
				<ele>120.621</ele>
				<time>2015-07-04T06:24:11Z</time>
				<extensions>
				</extensions>
			</trkpt>
			<trkpt lat="-28.113680" lon="153.240332">
				<ele>117.686</ele>
				<time>2015-07-04T06:24:13Z</time>
				<extensions>
				</extensions>
			</trkpt>
			<trkpt lat="-28.113352" lon="153.240311">
				<ele>116.356</ele>
				<time>2015-07-04T06:24:15Z</time>
				<extensions>
				</extensions>
			</trkpt>
			<trkpt lat="-28.113024" lon="153.240232">
				<ele>117.450</ele>
				<time>2015-07-04T06:24:17Z</time>
				<extensions>
				</extensions>
			</trkpt>
			<trkpt lat="-28.112693" lon="153.240106">
				<ele>117.060</ele>
				<time>2015-07-04T06:24:19Z</time>
				<extensions>
				</extensions>
			</trkpt>
			<trkpt lat="-28.112372" lon="153.239983">
				<ele>116.866</ele>
				<time>2015-07-04T06:24:21Z</time>
				<extensions>
				</extensions>
			</trkpt>
			<trkpt lat="-28.112057" lon="153.239895">
				<ele>116.719</ele>
				<time>2015-07-04T06:24:23Z</time>
				<extensions>
				</extensions>
			</trkpt>
			<trkpt lat="-28.111741" lon="153.239847">
				<ele>114.572</ele>
				<time>2015-07-04T06:24:25Z</time>
				<extensions>
				</extensions>
			</trkpt>
			<trkpt lat="-28.111417" lon="153.239868">
				<ele>113.527</ele>
				<time>2015-07-04T06:24:27Z</time>
				<extensions>
				</extensions>
			</trkpt>
			<trkpt lat="-28.111228" lon="153.239880">
				<ele>113.565</ele>
				<time>2015-07-04T06:24:28Z</time>
				<extensions>
				</extensions>
			</trkpt>
			<trkpt lat="-28.110874" lon="153.239994">
				<ele>113.241</ele>
				<time>2015-07-04T06:24:30Z</time>
				<extensions>
				</extensions>
			</trkpt>
			<trkpt lat="-28.110695" lon="153.240060">
				<ele>112.832</ele>
				<time>2015-07-04T06:24:31Z</time>
				<extensions>
				</extensions>
			</trkpt>
			<trkpt lat="-28.110397" lon="153.240240">
				<ele>112.809</ele>
				<time>2015-07-04T06:24:33Z</time>
				<extensions>
				</extensions>
			</trkpt>
			<trkpt lat="-28.110108" lon="153.240472">
				<ele>112.769</ele>
				<time>2015-07-04T06:24:35Z</time>
				<extensions>
				</extensions>
			</trkpt>
			<trkpt lat="-28.109861" lon="153.240766">
				<ele>111.172</ele>
				<time>2015-07-04T06:24:37Z</time>
				<extensions>
				</extensions>
			</trkpt>
			<trkpt lat="-28.109668" lon="153.241101">
				<ele>111.145</ele>
				<time>2015-07-04T06:24:39Z</time>
				<extensions>
				</extensions>
			</trkpt>
			<trkpt lat="-28.109519" lon="153.241450">
				<ele>107.949</ele>
				<time>2015-07-04T06:24:41Z</time>
				<extensions>
				</extensions>
			</trkpt>
			<trkpt lat="-28.109419" lon="153.241856">
				<ele>106.764</ele>
				<time>2015-07-04T06:24:43Z</time>
				<extensions>
				</extensions>
			</trkpt>
			<trkpt lat="-28.109391" lon="153.242062">
				<ele>106.222</ele>
				<time>2015-07-04T06:24:44Z</time>
				<extensions>
				</extensions>
			</trkpt>
			<trkpt lat="-28.109364" lon="153.242291">
				<ele>106.266</ele>
				<time>2015-07-04T06:24:45Z</time>
				<extensions>
				</extensions>
			</trkpt>
			<trkpt lat="-28.109333" lon="153.242505">
				<ele>104.698</ele>
				<time>2015-07-04T06:24:46Z</time>
				<extensions>
				</extensions>
			</trkpt>
			<trkpt lat="-28.109300" lon="153.242739">
				<ele>103.591</ele>
				<time>2015-07-04T06:24:47Z</time>
				<extensions>
				</extensions>
			</trkpt>
			<trkpt lat="-28.109253" lon="153.242957">
				<ele>101.757</ele>
				<time>2015-07-04T06:24:48Z</time>
				<extensions>
				</extensions>
			</trkpt>
			<trkpt lat="-28.109167" lon="153.243231">
				<ele>100.379</ele>
				<time>2015-07-04T06:24:50Z</time>
				<extensions>
				</extensions>
			</trkpt>
			<trkpt lat="-28.109094" lon="153.243424">
				<ele>99.978</ele>
				<time>2015-07-04T06:24:51Z</time>
				<extensions>
				</extensions>
			</trkpt>
			<trkpt lat="-28.108907" lon="153.243763">
				<ele>99.236</ele>
				<time>2015-07-04T06:24:53Z</time>
				<extensions>
				</extensions>
			</trkpt>
			<trkpt lat="-28.108792" lon="153.243925">
				<ele>99.227</ele>
				<time>2015-07-04T06:24:54Z</time>
				<extensions>
				</extensions>
			</trkpt>
			<trkpt lat="-28.108541" lon="153.244175">
				<ele>99.331</ele>
				<time>2015-07-04T06:24:56Z</time>
				<extensions>
				</extensions>
			</trkpt>
			<trkpt lat="-28.108248" lon="153.244437">
				<ele>100.422</ele>
				<time>2015-07-04T06:24:58Z</time>
				<extensions>
				</extensions>
			</trkpt>
			<trkpt lat="-28.107972" lon="153.244675">
				<ele>101.072</ele>
				<time>2015-07-04T06:25:00Z</time>
				<extensions>
				</extensions>
			</trkpt>
			<trkpt lat="-28.107776" lon="153.244809">
				<ele>100.699</ele>
				<time>2015-07-04T06:25:01Z</time>
				<extensions>
				</extensions>
			</trkpt>
			<trkpt lat="-28.107617" lon="153.244935">
				<ele>101.486</ele>
				<time>2015-07-04T06:25:02Z</time>
				<extensions>
				</extensions>
			</trkpt>
			<trkpt lat="-28.107462" lon="153.245063">
				<ele>101.161</ele>
				<time>2015-07-04T06:25:03Z</time>
				<extensions>
				</extensions>
			</trkpt>
			<trkpt lat="-28.107298" lon="153.245196">
				<ele>100.806</ele>
				<time>2015-07-04T06:25:04Z</time>
				<extensions>
				</extensions>
			</trkpt>
			<trkpt lat="-28.107139" lon="153.245320">
				<ele>100.323</ele>
				<time>2015-07-04T06:25:05Z</time>
				<extensions>
				</extensions>
			</trkpt>
			<trkpt lat="-28.106969" lon="153.245452">
				<ele>100.806</ele>
				<time>2015-07-04T06:25:06Z</time>
				<extensions>
				</extensions>
			</trkpt>
			<trkpt lat="-28.106808" lon="153.245576">
				<ele>101.116</ele>
				<time>2015-07-04T06:25:07Z</time>
				<extensions>
				</extensions>
			</trkpt>
			<trkpt lat="-28.106652" lon="153.245695">
				<ele>100.852</ele>
				<time>2015-07-04T06:25:08Z</time>
				<extensions>
				</extensions>
			</trkpt>
			<trkpt lat="-28.106493" lon="153.245824">
				<ele>100.559</ele>
				<time>2015-07-04T06:25:09Z</time>
				<extensions>
				</extensions>
			</trkpt>
			<trkpt lat="-28.106218" lon="153.246066">
				<ele>102.312</ele>
				<time>2015-07-04T06:25:11Z</time>
				<extensions>
				</extensions>
			</trkpt>
			<trkpt lat="-28.106076" lon="153.246220">
				<ele>102.699</ele>
				<time>2015-07-04T06:25:12Z</time>
				<extensions>
				</extensions>
			</trkpt>
			<trkpt lat="-28.105925" lon="153.246347">
				<ele>103.254</ele>
				<time>2015-07-04T06:25:13Z</time>
				<extensions>
				</extensions>
			</trkpt>
			<trkpt lat="-28.105768" lon="153.246478">
				<ele>104.270</ele>
				<time>2015-07-04T06:25:14Z</time>
				<extensions>
				</extensions>
			</trkpt>
			<trkpt lat="-28.105601" lon="153.246611">
				<ele>105.282</ele>
				<time>2015-07-04T06:25:15Z</time>
				<extensions>
				</extensions>
			</trkpt>
			<trkpt lat="-28.105459" lon="153.246737">
				<ele>105.553</ele>
				<time>2015-07-04T06:25:16Z</time>
				<extensions>
				</extensions>
			</trkpt>
			<trkpt lat="-28.105291" lon="153.246886">
				<ele>106.622</ele>
				<time>2015-07-04T06:25:17Z</time>
				<extensions>
				</extensions>
			</trkpt>
			<trkpt lat="-28.105134" lon="153.247025">
				<ele>108.101</ele>
				<time>2015-07-04T06:25:18Z</time>
				<extensions>
				</extensions>
			</trkpt>
			<trkpt lat="-28.104970" lon="153.247169">
				<ele>108.324</ele>
				<time>2015-07-04T06:25:19Z</time>
				<extensions>
				</extensions>
			</trkpt>
			<trkpt lat="-28.104811" lon="153.247310">
				<ele>108.080</ele>
				<time>2015-07-04T06:25:20Z</time>
				<extensions>
				</extensions>
			</trkpt>
			<trkpt lat="-28.104648" lon="153.247454">
				<ele>107.976</ele>
				<time>2015-07-04T06:25:21Z</time>
				<extensions>
				</extensions>
			</trkpt>
			<trkpt lat="-28.104471" lon="153.247610">
				<ele>107.425</ele>
				<time>2015-07-04T06:25:22Z</time>
				<extensions>
				</extensions>
			</trkpt>
			<trkpt lat="-28.104295" lon="153.247765">
				<ele>107.530</ele>
				<time>2015-07-04T06:25:23Z</time>
				<extensions>
				</extensions>
			</trkpt>
			<trkpt lat="-28.104106" lon="153.247904">
				<ele>106.955</ele>
				<time>2015-07-04T06:25:24Z</time>
				<extensions>
				</extensions>
			</trkpt>
			<trkpt lat="-28.103918" lon="153.248057">
				<ele>106.822</ele>
				<time>2015-07-04T06:25:25Z</time>
				<extensions>
				</extensions>
			</trkpt>
			<trkpt lat="-28.103732" lon="153.248232">
				<ele>105.898</ele>
				<time>2015-07-04T06:25:26Z</time>
				<extensions>
				</extensions>
			</trkpt>
			<trkpt lat="-28.103552" lon="153.248413">
				<ele>105.099</ele>
				<time>2015-07-04T06:25:27Z</time>
				<extensions>
				</extensions>
			</trkpt>
			<trkpt lat="-28.103387" lon="153.248578">
				<ele>104.753</ele>
				<time>2015-07-04T06:25:28Z</time>
				<extensions>
				</extensions>
			</trkpt>
			<trkpt lat="-28.103232" lon="153.248729">
				<ele>105.066</ele>
				<time>2015-07-04T06:25:29Z</time>
				<extensions>
				</extensions>
			</trkpt>
			<trkpt lat="-28.103060" lon="153.248899">
				<ele>104.469</ele>
				<time>2015-07-04T06:25:30Z</time>
				<extensions>
				</extensions>
			</trkpt>
			<trkpt lat="-28.102738" lon="153.249196">
				<ele>105.457</ele>
				<time>2015-07-04T06:25:33Z</time>
				<extensions>
				</extensions>
			</trkpt>
			<trkpt lat="-28.102557" lon="153.249304">
				<ele>106.209</ele>
				<time>2015-07-04T06:25:34Z</time>
				<extensions>
				</extensions>
			</trkpt>
			<trkpt lat="-28.102381" lon="153.249388">
				<ele>107.865</ele>
				<time>2015-07-04T06:25:35Z</time>
				<extensions>
				</extensions>
			</trkpt>
			<trkpt lat="-28.102193" lon="153.249466">
				<ele>108.853</ele>
				<time>2015-07-04T06:25:36Z</time>
				<extensions>
				</extensions>
			</trkpt>
			<trkpt lat="-28.102006" lon="153.249535">
				<ele>109.788</ele>
				<time>2015-07-04T06:25:37Z</time>
				<extensions>
				</extensions>
			</trkpt>
			<trkpt lat="-28.101822" lon="153.249574">
				<ele>110.412</ele>
				<time>2015-07-04T06:25:38Z</time>
				<extensions>
				</extensions>
			</trkpt>
			<trkpt lat="-28.101629" lon="153.249605">
				<ele>110.959</ele>
				<time>2015-07-04T06:25:39Z</time>
				<extensions>
				</extensions>
			</trkpt>
			<trkpt lat="-28.101425" lon="153.249598">
				<ele>111.162</ele>
				<time>2015-07-04T06:25:40Z</time>
				<extensions>
				</extensions>
			</trkpt>
			<trkpt lat="-28.101240" lon="153.249600">
				<ele>111.619</ele>
				<time>2015-07-04T06:25:41Z</time>
				<extensions>
				</extensions>
			</trkpt>
			<trkpt lat="-28.101045" lon="153.249568">
				<ele>111.341</ele>
				<time>2015-07-04T06:25:42Z</time>
				<extensions>
				</extensions>
			</trkpt>
			<trkpt lat="-28.100847" lon="153.249532">
				<ele>111.084</ele>
				<time>2015-07-04T06:25:43Z</time>
				<extensions>
				</extensions>
			</trkpt>
			<trkpt lat="-28.100642" lon="153.249478">
				<ele>111.223</ele>
				<time>2015-07-04T06:25:44Z</time>
				<extensions>
				</extensions>
			</trkpt>
			<trkpt lat="-28.100443" lon="153.249410">
				<ele>110.772</ele>
				<time>2015-07-04T06:25:45Z</time>
				<extensions>
				</extensions>
			</trkpt>
			<trkpt lat="-28.100253" lon="153.249338">
				<ele>109.875</ele>
				<time>2015-07-04T06:25:46Z</time>
				<extensions>
				</extensions>
			</trkpt>
			<trkpt lat="-28.100058" lon="153.249272">
				<ele>108.305</ele>
				<time>2015-07-04T06:25:47Z</time>
				<extensions>
				</extensions>
			</trkpt>
			<trkpt lat="-28.099871" lon="153.249188">
				<ele>107.319</ele>
				<time>2015-07-04T06:25:48Z</time>
				<extensions>
				</extensions>
			</trkpt>
			<trkpt lat="-28.099695" lon="153.249122">
				<ele>105.737</ele>
				<time>2015-07-04T06:25:49Z</time>
				<extensions>
				</extensions>
			</trkpt>
			<trkpt lat="-28.099521" lon="153.249047">
				<ele>104.865</ele>
				<time>2015-07-04T06:25:50Z</time>
				<extensions>
				</extensions>
			</trkpt>
			<trkpt lat="-28.099349" lon="153.248969">
				<ele>105.210</ele>
				<time>2015-07-04T06:25:51Z</time>
				<extensions>
				</extensions>
			</trkpt>
			<trkpt lat="-28.099172" lon="153.248902">
				<ele>104.555</ele>
				<time>2015-07-04T06:25:52Z</time>
				<extensions>
				</extensions>
			</trkpt>
			<trkpt lat="-28.098982" lon="153.248834">
				<ele>104.201</ele>
				<time>2015-07-04T06:25:53Z</time>
				<extensions>
				</extensions>
			</trkpt>
			<trkpt lat="-28.098786" lon="153.248770">
				<ele>103.928</ele>
				<time>2015-07-04T06:25:54Z</time>
				<extensions>
				</extensions>
			</trkpt>
			<trkpt lat="-28.098591" lon="153.248692">
				<ele>103.936</ele>
				<time>2015-07-04T06:25:55Z</time>
				<extensions>
				</extensions>
			</trkpt>
			<trkpt lat="-28.098399" lon="153.248611">
				<ele>104.076</ele>
				<time>2015-07-04T06:25:56Z</time>
				<extensions>
				</extensions>
			</trkpt>
			<trkpt lat="-28.098201" lon="153.248526">
				<ele>103.495</ele>
				<time>2015-07-04T06:25:57Z</time>
				<extensions>
				</extensions>
			</trkpt>
			<trkpt lat="-28.097998" lon="153.248440">
				<ele>103.480</ele>
				<time>2015-07-04T06:25:58Z</time>
				<extensions>
				</extensions>
			</trkpt>
			<trkpt lat="-28.097796" lon="153.248345">
				<ele>104.652</ele>
				<time>2015-07-04T06:25:59Z</time>
				<extensions>
				</extensions>
			</trkpt>
			<trkpt lat="-28.097601" lon="153.248260">
				<ele>106.272</ele>
				<time>2015-07-04T06:26:00Z</time>
				<extensions>
				</extensions>
			</trkpt>
			<trkpt lat="-28.097384" lon="153.248164">
				<ele>107.417</ele>
				<time>2015-07-04T06:26:01Z</time>
				<extensions>
				</extensions>
			</trkpt>
			<trkpt lat="-28.097190" lon="153.248086">
				<ele>107.733</ele>
				<time>2015-07-04T06:26:02Z</time>
				<extensions>
				</extensions>
			</trkpt>
			<trkpt lat="-28.096995" lon="153.248006">
				<ele>107.733</ele>
				<time>2015-07-04T06:26:03Z</time>
				<extensions>
				</extensions>
			</trkpt>
			<trkpt lat="-28.096806" lon="153.247944">
				<ele>108.053</ele>
				<time>2015-07-04T06:26:04Z</time>
				<extensions>
				</extensions>
			</trkpt>
			<trkpt lat="-28.096626" lon="153.247885">
				<ele>109.388</ele>
				<time>2015-07-04T06:26:05Z</time>
				<extensions>
				</extensions>
			</trkpt>
			<trkpt lat="-28.096451" lon="153.247817">
				<ele>110.211</ele>
				<time>2015-07-04T06:26:06Z</time>
				<extensions>
				</extensions>
			</trkpt>
			<trkpt lat="-28.096268" lon="153.247767">
				<ele>111.424</ele>
				<time>2015-07-04T06:26:07Z</time>
				<extensions>
				</extensions>
			</trkpt>
			<trkpt lat="-28.096088" lon="153.247707">
				<ele>112.875</ele>
				<time>2015-07-04T06:26:08Z</time>
				<extensions>
				</extensions>
			</trkpt>
			<trkpt lat="-28.095744" lon="153.247612">
				<ele>114.134</ele>
				<time>2015-07-04T06:26:10Z</time>
				<extensions>
				</extensions>
			</trkpt>
			<trkpt lat="-28.095559" lon="153.247574">
				<ele>115.405</ele>
				<time>2015-07-04T06:26:11Z</time>
				<extensions>
				</extensions>
			</trkpt>
			<trkpt lat="-28.095364" lon="153.247536">
				<ele>116.648</ele>
				<time>2015-07-04T06:26:12Z</time>
				<extensions>
				</extensions>
			</trkpt>
			<trkpt lat="-28.095178" lon="153.247500">
				<ele>118.159</ele>
				<time>2015-07-04T06:26:13Z</time>
				<extensions>
				</extensions>
			</trkpt>
			<trkpt lat="-28.094989" lon="153.247476">
				<ele>118.702</ele>
				<time>2015-07-04T06:26:14Z</time>
				<extensions>
				</extensions>
			</trkpt>
			<trkpt lat="-28.094786" lon="153.247459">
				<ele>119.804</ele>
				<time>2015-07-04T06:26:15Z</time>
				<extensions>
				</extensions>
			</trkpt>
			<trkpt lat="-28.094580" lon="153.247459">
				<ele>120.260</ele>
				<time>2015-07-04T06:26:16Z</time>
				<extensions>
				</extensions>
			</trkpt>
			<trkpt lat="-28.094371" lon="153.247466">
				<ele>120.137</ele>
				<time>2015-07-04T06:26:17Z</time>
				<extensions>
				</extensions>
			</trkpt>
			<trkpt lat="-28.094148" lon="153.247483">
				<ele>120.168</ele>
				<time>2015-07-04T06:26:18Z</time>
				<extensions>
				</extensions>
			</trkpt>
			<trkpt lat="-28.093955" lon="153.247507">
				<ele>120.589</ele>
				<time>2015-07-04T06:26:19Z</time>
				<extensions>
				</extensions>
			</trkpt>
			<trkpt lat="-28.093758" lon="153.247539">
				<ele>120.120</ele>
				<time>2015-07-04T06:26:20Z</time>
				<extensions>
				</extensions>
			</trkpt>
			<trkpt lat="-28.093561" lon="153.247579">
				<ele>119.516</ele>
				<time>2015-07-04T06:26:21Z</time>
				<extensions>
				</extensions>
			</trkpt>
			<trkpt lat="-28.093358" lon="153.247633">
				<ele>119.421</ele>
				<time>2015-07-04T06:26:22Z</time>
				<extensions>
				</extensions>
			</trkpt>
			<trkpt lat="-28.093181" lon="153.247692">
				<ele>118.349</ele>
				<time>2015-07-04T06:26:23Z</time>
				<extensions>
				</extensions>
			</trkpt>
			<trkpt lat="-28.092984" lon="153.247748">
				<ele>117.645</ele>
				<time>2015-07-04T06:26:24Z</time>
				<extensions>
				</extensions>
			</trkpt>
			<trkpt lat="-28.092797" lon="153.247819">
				<ele>117.572</ele>
				<time>2015-07-04T06:26:25Z</time>
				<extensions>
				</extensions>
			</trkpt>
			<trkpt lat="-28.092616" lon="153.247904">
				<ele>116.526</ele>
				<time>2015-07-04T06:26:26Z</time>
				<extensions>
				</extensions>
			</trkpt>
			<trkpt lat="-28.092447" lon="153.247983">
				<ele>115.975</ele>
				<time>2015-07-04T06:26:27Z</time>
				<extensions>
				</extensions>
			</trkpt>
			<trkpt lat="-28.092263" lon="153.248074">
				<ele>115.713</ele>
				<time>2015-07-04T06:26:28Z</time>
				<extensions>
				</extensions>
			</trkpt>
			<trkpt lat="-28.092082" lon="153.248169">
				<ele>115.232</ele>
				<time>2015-07-04T06:26:29Z</time>
				<extensions>
				</extensions>
			</trkpt>
			<trkpt lat="-28.091901" lon="153.248266">
				<ele>115.149</ele>
				<time>2015-07-04T06:26:30Z</time>
				<extensions>
				</extensions>
			</trkpt>
			<trkpt lat="-28.091728" lon="153.248374">
				<ele>114.708</ele>
				<time>2015-07-04T06:26:31Z</time>
				<extensions>
				</extensions>
			</trkpt>
			<trkpt lat="-28.091563" lon="153.248489">
				<ele>114.957</ele>
				<time>2015-07-04T06:26:32Z</time>
				<extensions>
				</extensions>
			</trkpt>
			<trkpt lat="-28.091255" lon="153.248714">
				<ele>113.911</ele>
				<time>2015-07-04T06:26:34Z</time>
				<extensions>
				</extensions>
			</trkpt>
			<trkpt lat="-28.091065" lon="153.248830">
				<ele>112.964</ele>
				<time>2015-07-04T06:26:35Z</time>
				<extensions>
				</extensions>
			</trkpt>
			<trkpt lat="-28.090887" lon="153.248946">
				<ele>112.084</ele>
				<time>2015-07-04T06:26:36Z</time>
				<extensions>
				</extensions>
			</trkpt>
			<trkpt lat="-28.090712" lon="153.249064">
				<ele>111.863</ele>
				<time>2015-07-04T06:26:37Z</time>
				<extensions>
				</extensions>
			</trkpt>
			<trkpt lat="-28.090534" lon="153.249169">
				<ele>111.328</ele>
				<time>2015-07-04T06:26:38Z</time>
				<extensions>
				</extensions>
			</trkpt>
			<trkpt lat="-28.090366" lon="153.249264">
				<ele>110.196</ele>
				<time>2015-07-04T06:26:39Z</time>
				<extensions>
				</extensions>
			</trkpt>
			<trkpt lat="-28.090056" lon="153.249356">
				<ele>108.575</ele>
				<time>2015-07-04T06:26:41Z</time>
				<extensions>
				</extensions>
			</trkpt>
			<trkpt lat="-28.089761" lon="153.249356">
				<ele>109.407</ele>
				<time>2015-07-04T06:26:43Z</time>
				<extensions>
				</extensions>
			</trkpt>
			<trkpt lat="-28.089577" lon="153.249339">
				<ele>110.206</ele>
				<time>2015-07-04T06:26:44Z</time>
				<extensions>
				</extensions>
			</trkpt>
			<trkpt lat="-28.089223" lon="153.249245">
				<ele>108.671</ele>
				<time>2015-07-04T06:26:46Z</time>
				<extensions>
				</extensions>
			</trkpt>
			<trkpt lat="-28.088909" lon="153.249142">
				<ele>104.953</ele>
				<time>2015-07-04T06:26:48Z</time>
				<extensions>
				</extensions>
			</trkpt>
			<trkpt lat="-28.088630" lon="153.249080">
				<ele>102.551</ele>
				<time>2015-07-04T06:26:50Z</time>
				<extensions>
				</extensions>
			</trkpt>
			<trkpt lat="-28.088347" lon="153.249082">
				<ele>102.288</ele>
				<time>2015-07-04T06:26:52Z</time>
				<extensions>
				</extensions>
			</trkpt>
			<trkpt lat="-28.088084" lon="153.249189">
				<ele>102.520</ele>
				<time>2015-07-04T06:26:54Z</time>
				<extensions>
				</extensions>
			</trkpt>
			<trkpt lat="-28.087854" lon="153.249383">
				<ele>103.271</ele>
				<time>2015-07-04T06:26:56Z</time>
				<extensions>
				</extensions>
			</trkpt>
			<trkpt lat="-28.087710" lon="153.249638">
				<ele>104.643</ele>
				<time>2015-07-04T06:26:58Z</time>
				<extensions>
				</extensions>
			</trkpt>
			<trkpt lat="-28.087649" lon="153.249924">
				<ele>106.971</ele>
				<time>2015-07-04T06:27:00Z</time>
				<extensions>
				</extensions>
			</trkpt>
			<trkpt lat="-28.087672" lon="153.250209">
				<ele>109.584</ele>
				<time>2015-07-04T06:27:02Z</time>
				<extensions>
				</extensions>
			</trkpt>
			<trkpt lat="-28.087779" lon="153.250500">
				<ele>113.127</ele>
				<time>2015-07-04T06:27:04Z</time>
				<extensions>
				</extensions>
			</trkpt>
			<trkpt lat="-28.087930" lon="153.250746">
				<ele>116.792</ele>
				<time>2015-07-04T06:27:06Z</time>
				<extensions>
				</extensions>
			</trkpt>
			<trkpt lat="-28.088083" lon="153.250943">
				<ele>118.798</ele>
				<time>2015-07-04T06:27:08Z</time>
				<extensions>
				</extensions>
			</trkpt>
			<trkpt lat="-28.088208" lon="153.251132">
				<ele>120.350</ele>
				<time>2015-07-04T06:27:10Z</time>
				<extensions>
				</extensions>
			</trkpt>
			<trkpt lat="-28.088321" lon="153.251359">
				<ele>122.466</ele>
				<time>2015-07-04T06:27:12Z</time>
				<extensions>
				</extensions>
			</trkpt>
			<trkpt lat="-28.088413" lon="153.251576">
				<ele>122.944</ele>
				<time>2015-07-04T06:27:13Z</time>
				<extensions>
				</extensions>
			</trkpt>
			<trkpt lat="-28.088531" lon="153.252064">
				<ele>123.789</ele>
				<time>2015-07-04T06:27:15Z</time>
				<extensions>
				</extensions>
			</trkpt>
			<trkpt lat="-28.088483" lon="153.252417">
				<ele>123.423</ele>
				<time>2015-07-04T06:27:17Z</time>
				<extensions>
				</extensions>
			</trkpt>
			<trkpt lat="-28.088318" lon="153.252710">
				<ele>122.253</ele>
				<time>2015-07-04T06:27:19Z</time>
				<extensions>
				</extensions>
			</trkpt>
			<trkpt lat="-28.088092" lon="153.252972">
				<ele>121.417</ele>
				<time>2015-07-04T06:27:21Z</time>
				<extensions>
				</extensions>
			</trkpt>
			<trkpt lat="-28.087808" lon="153.253177">
				<ele>122.024</ele>
				<time>2015-07-04T06:27:23Z</time>
				<extensions>
				</extensions>
			</trkpt>
			<trkpt lat="-28.087455" lon="153.253247">
				<ele>121.944</ele>
				<time>2015-07-04T06:27:25Z</time>
				<extensions>
				</extensions>
			</trkpt>
			<trkpt lat="-28.087117" lon="153.253277">
				<ele>121.395</ele>
				<time>2015-07-04T06:27:27Z</time>
				<extensions>
				</extensions>
			</trkpt>
			<trkpt lat="-28.086924" lon="153.253284">
				<ele>120.890</ele>
				<time>2015-07-04T06:27:28Z</time>
				<extensions>
				</extensions>
			</trkpt>
			<trkpt lat="-28.086730" lon="153.253284">
				<ele>120.246</ele>
				<time>2015-07-04T06:27:29Z</time>
				<extensions>
				</extensions>
			</trkpt>
			<trkpt lat="-28.086364" lon="153.253301">
				<ele>119.897</ele>
				<time>2015-07-04T06:27:31Z</time>
				<extensions>
				</extensions>
			</trkpt>
			<trkpt lat="-28.086161" lon="153.253319">
				<ele>119.105</ele>
				<time>2015-07-04T06:27:32Z</time>
				<extensions>
				</extensions>
			</trkpt>
			<trkpt lat="-28.085968" lon="153.253323">
				<ele>118.542</ele>
				<time>2015-07-04T06:27:33Z</time>
				<extensions>
				</extensions>
			</trkpt>
			<trkpt lat="-28.085733" lon="153.253321">
				<ele>118.941</ele>
				<time>2015-07-04T06:27:34Z</time>
				<extensions>
				</extensions>
			</trkpt>
			<trkpt lat="-28.085512" lon="153.253330">
				<ele>119.112</ele>
				<time>2015-07-04T06:27:35Z</time>
				<extensions>
				</extensions>
			</trkpt>
			<trkpt lat="-28.085304" lon="153.253333">
				<ele>118.122</ele>
				<time>2015-07-04T06:27:36Z</time>
				<extensions>
				</extensions>
			</trkpt>
			<trkpt lat="-28.085092" lon="153.253325">
				<ele>117.340</ele>
				<time>2015-07-04T06:27:37Z</time>
				<extensions>
				</extensions>
			</trkpt>
			<trkpt lat="-28.084882" lon="153.253326">
				<ele>117.213</ele>
				<time>2015-07-04T06:27:38Z</time>
				<extensions>
				</extensions>
			</trkpt>
			<trkpt lat="-28.084675" lon="153.253324">
				<ele>117.622</ele>
				<time>2015-07-04T06:27:39Z</time>
				<extensions>
				</extensions>
			</trkpt>
			<trkpt lat="-28.084466" lon="153.253323">
				<ele>118.334</ele>
				<time>2015-07-04T06:27:40Z</time>
				<extensions>
				</extensions>
			</trkpt>
			<trkpt lat="-28.084263" lon="153.253322">
				<ele>118.689</ele>
				<time>2015-07-04T06:27:41Z</time>
				<extensions>
				</extensions>
			</trkpt>
			<trkpt lat="-28.084062" lon="153.253328">
				<ele>119.003</ele>
				<time>2015-07-04T06:27:42Z</time>
				<extensions>
				</extensions>
			</trkpt>
			<trkpt lat="-28.083857" lon="153.253327">
				<ele>119.845</ele>
				<time>2015-07-04T06:27:43Z</time>
				<extensions>
				</extensions>
			</trkpt>
			<trkpt lat="-28.083671" lon="153.253340">
				<ele>120.735</ele>
				<time>2015-07-04T06:27:44Z</time>
				<extensions>
				</extensions>
			</trkpt>
			<trkpt lat="-28.083470" lon="153.253347">
				<ele>121.216</ele>
				<time>2015-07-04T06:27:45Z</time>
				<extensions>
				</extensions>
			</trkpt>
			<trkpt lat="-28.083262" lon="153.253335">
				<ele>122.220</ele>
				<time>2015-07-04T06:27:46Z</time>
				<extensions>
				</extensions>
			</trkpt>
			<trkpt lat="-28.083070" lon="153.253333">
				<ele>123.067</ele>
				<time>2015-07-04T06:27:47Z</time>
				<extensions>
				</extensions>
			</trkpt>
			<trkpt lat="-28.082879" lon="153.253332">
				<ele>124.073</ele>
				<time>2015-07-04T06:27:48Z</time>
				<extensions>
				</extensions>
			</trkpt>
			<trkpt lat="-28.082687" lon="153.253324">
				<ele>125.441</ele>
				<time>2015-07-04T06:27:49Z</time>
				<extensions>
				</extensions>
			</trkpt>
			<trkpt lat="-28.082490" lon="153.253322">
				<ele>127.615</ele>
				<time>2015-07-04T06:27:50Z</time>
				<extensions>
				</extensions>
			</trkpt>
			<trkpt lat="-28.082291" lon="153.253323">
				<ele>130.009</ele>
				<time>2015-07-04T06:27:51Z</time>
				<extensions>
				</extensions>
			</trkpt>
			<trkpt lat="-28.082065" lon="153.253314">
				<ele>132.534</ele>
				<time>2015-07-04T06:27:52Z</time>
				<extensions>
				</extensions>
			</trkpt>
			<trkpt lat="-28.081859" lon="153.253306">
				<ele>134.768</ele>
				<time>2015-07-04T06:27:53Z</time>
				<extensions>
				</extensions>
			</trkpt>
			<trkpt lat="-28.081644" lon="153.253276">
				<ele>136.937</ele>
				<time>2015-07-04T06:27:54Z</time>
				<extensions>
				</extensions>
			</trkpt>
			<trkpt lat="-28.081452" lon="153.253268">
				<ele>139.093</ele>
				<time>2015-07-04T06:27:55Z</time>
				<extensions>
				</extensions>
			</trkpt>
			<trkpt lat="-28.081255" lon="153.253240">
				<ele>141.080</ele>
				<time>2015-07-04T06:27:56Z</time>
				<extensions>
				</extensions>
			</trkpt>
			<trkpt lat="-28.080897" lon="153.253168">
				<ele>143.511</ele>
				<time>2015-07-04T06:27:58Z</time>
				<extensions>
				</extensions>
			</trkpt>
			<trkpt lat="-28.080535" lon="153.253070">
				<ele>144.414</ele>
				<time>2015-07-04T06:28:00Z</time>
				<extensions>
				</extensions>
			</trkpt>
			<trkpt lat="-28.080355" lon="153.253021">
				<ele>145.187</ele>
				<time>2015-07-04T06:28:01Z</time>
				<extensions>
				</extensions>
			</trkpt>
			<trkpt lat="-28.080157" lon="153.252937">
				<ele>145.190</ele>
				<time>2015-07-04T06:28:02Z</time>
				<extensions>
				</extensions>
			</trkpt>
			<trkpt lat="-28.079986" lon="153.252859">
				<ele>145.063</ele>
				<time>2015-07-04T06:28:03Z</time>
				<extensions>
				</extensions>
			</trkpt>
			<trkpt lat="-28.079812" lon="153.252775">
				<ele>146.309</ele>
				<time>2015-07-04T06:28:04Z</time>
				<extensions>
				</extensions>
			</trkpt>
			<trkpt lat="-28.079634" lon="153.252681">
				<ele>146.429</ele>
				<time>2015-07-04T06:28:05Z</time>
				<extensions>
				</extensions>
			</trkpt>
			<trkpt lat="-28.079458" lon="153.252589">
				<ele>145.108</ele>
				<time>2015-07-04T06:28:06Z</time>
				<extensions>
				</extensions>
			</trkpt>
			<trkpt lat="-28.079293" lon="153.252490">
				<ele>143.146</ele>
				<time>2015-07-04T06:28:07Z</time>
				<extensions>
				</extensions>
			</trkpt>
			<trkpt lat="-28.079123" lon="153.252387">
				<ele>142.221</ele>
				<time>2015-07-04T06:28:08Z</time>
				<extensions>
				</extensions>
			</trkpt>
			<trkpt lat="-28.078962" lon="153.252280">
				<ele>139.923</ele>
				<time>2015-07-04T06:28:09Z</time>
				<extensions>
				</extensions>
			</trkpt>
			<trkpt lat="-28.078793" lon="153.252179">
				<ele>138.058</ele>
				<time>2015-07-04T06:28:10Z</time>
				<extensions>
				</extensions>
			</trkpt>
			<trkpt lat="-28.078640" lon="153.252067">
				<ele>136.242</ele>
				<time>2015-07-04T06:28:11Z</time>
				<extensions>
				</extensions>
			</trkpt>
			<trkpt lat="-28.078504" lon="153.251934">
				<ele>133.998</ele>
				<time>2015-07-04T06:28:12Z</time>
				<extensions>
				</extensions>
			</trkpt>
			<trkpt lat="-28.078365" lon="153.251790">
				<ele>132.664</ele>
				<time>2015-07-04T06:28:13Z</time>
				<extensions>
				</extensions>
			</trkpt>
			<trkpt lat="-28.078253" lon="153.251618">
				<ele>129.575</ele>
				<time>2015-07-04T06:28:14Z</time>
				<extensions>
				</extensions>
			</trkpt>
			<trkpt lat="-28.078141" lon="153.251455">
				<ele>126.994</ele>
				<time>2015-07-04T06:28:15Z</time>
				<extensions>
				</extensions>
			</trkpt>
			<trkpt lat="-28.077969" lon="153.251118">
				<ele>121.404</ele>
				<time>2015-07-04T06:28:17Z</time>
				<extensions>
				</extensions>
			</trkpt>
			<trkpt lat="-28.077811" lon="153.250791">
				<ele>116.531</ele>
				<time>2015-07-04T06:28:19Z</time>
				<extensions>
				</extensions>
			</trkpt>
			<trkpt lat="-28.077673" lon="153.250495">
				<ele>111.864</ele>
				<time>2015-07-04T06:28:21Z</time>
				<extensions>
				</extensions>
			</trkpt>
			<trkpt lat="-28.077492" lon="153.250243">
				<ele>108.256</ele>
				<time>2015-07-04T06:28:23Z</time>
				<extensions>
				</extensions>
			</trkpt>
			<trkpt lat="-28.077240" lon="153.250091">
				<ele>104.961</ele>
				<time>2015-07-04T06:28:25Z</time>
				<extensions>
				</extensions>
			</trkpt>
			<trkpt lat="-28.076965" lon="153.250026">
				<ele>102.102</ele>
				<time>2015-07-04T06:28:27Z</time>
				<extensions>
				</extensions>
			</trkpt>
			<trkpt lat="-28.076668" lon="153.250047">
				<ele>99.924</ele>
				<time>2015-07-04T06:28:29Z</time>
				<extensions>
				</extensions>
			</trkpt>
			<trkpt lat="-28.076406" lon="153.250203">
				<ele>99.372</ele>
				<time>2015-07-04T06:28:31Z</time>
				<extensions>
				</extensions>
			</trkpt>
			<trkpt lat="-28.076198" lon="153.250425">
				<ele>99.760</ele>
				<time>2015-07-04T06:28:33Z</time>
				<extensions>
				</extensions>
			</trkpt>
			<trkpt lat="-28.076055" lon="153.250744">
				<ele>100.554</ele>
				<time>2015-07-04T06:28:35Z</time>
				<extensions>
				</extensions>
			</trkpt>
			<trkpt lat="-28.075971" lon="153.251108">
				<ele>101.872</ele>
				<time>2015-07-04T06:28:37Z</time>
				<extensions>
				</extensions>
			</trkpt>
			<trkpt lat="-28.075907" lon="153.251487">
				<ele>101.798</ele>
				<time>2015-07-04T06:28:39Z</time>
				<extensions>
				</extensions>
			</trkpt>
			<trkpt lat="-28.075821" lon="153.251864">
				<ele>102.757</ele>
				<time>2015-07-04T06:28:41Z</time>
				<extensions>
				</extensions>
			</trkpt>
			<trkpt lat="-28.075674" lon="153.252201">
				<ele>102.381</ele>
				<time>2015-07-04T06:28:43Z</time>
				<extensions>
				</extensions>
			</trkpt>
			<trkpt lat="-28.075450" lon="153.252497">
				<ele>103.390</ele>
				<time>2015-07-04T06:28:45Z</time>
				<extensions>
				</extensions>
			</trkpt>
			<trkpt lat="-28.075175" lon="153.252726">
				<ele>104.267</ele>
				<time>2015-07-04T06:28:47Z</time>
				<extensions>
				</extensions>
			</trkpt>
			<trkpt lat="-28.075008" lon="153.252843">
				<ele>105.459</ele>
				<time>2015-07-04T06:28:48Z</time>
				<extensions>
				</extensions>
			</trkpt>
			<trkpt lat="-28.074836" lon="153.252944">
				<ele>106.332</ele>
				<time>2015-07-04T06:28:49Z</time>
				<extensions>
				</extensions>
			</trkpt>
			<trkpt lat="-28.074654" lon="153.253044">
				<ele>106.068</ele>
				<time>2015-07-04T06:28:50Z</time>
				<extensions>
				</extensions>
			</trkpt>
			<trkpt lat="-28.074353" lon="153.253235">
				<ele>104.923</ele>
				<time>2015-07-04T06:28:52Z</time>
				<extensions>
				</extensions>
			</trkpt>
			<trkpt lat="-28.074104" lon="153.253451">
				<ele>104.355</ele>
				<time>2015-07-04T06:28:54Z</time>
				<extensions>
				</extensions>
			</trkpt>
			<trkpt lat="-28.073903" lon="153.253746">
				<ele>104.179</ele>
				<time>2015-07-04T06:28:56Z</time>
				<extensions>
				</extensions>
			</trkpt>
			<trkpt lat="-28.073799" lon="153.254121">
				<ele>107.025</ele>
				<time>2015-07-04T06:28:58Z</time>
				<extensions>
				</extensions>
			</trkpt>
			<trkpt lat="-28.073749" lon="153.254519">
				<ele>110.518</ele>
				<time>2015-07-04T06:29:00Z</time>
				<extensions>
				</extensions>
			</trkpt>
			<trkpt lat="-28.073745" lon="153.254733">
				<ele>112.923</ele>
				<time>2015-07-04T06:29:01Z</time>
				<extensions>
				</extensions>
			</trkpt>
			<trkpt lat="-28.073735" lon="153.254937">
				<ele>113.322</ele>
				<time>2015-07-04T06:29:02Z</time>
				<extensions>
				</extensions>
			</trkpt>
			<trkpt lat="-28.073660" lon="153.255293">
				<ele>113.624</ele>
				<time>2015-07-04T06:29:04Z</time>
				<extensions>
				</extensions>
			</trkpt>
			<trkpt lat="-28.073506" lon="153.255648">
				<ele>115.171</ele>
				<time>2015-07-04T06:29:06Z</time>
				<extensions>
				</extensions>
			</trkpt>
			<trkpt lat="-28.073290" lon="153.255940">
				<ele>115.681</ele>
				<time>2015-07-04T06:29:08Z</time>
				<extensions>
				</extensions>
			</trkpt>
			<trkpt lat="-28.072989" lon="153.256113">
				<ele>115.704</ele>
				<time>2015-07-04T06:29:10Z</time>
				<extensions>
				</extensions>
			</trkpt>
			<trkpt lat="-28.072655" lon="153.256192">
				<ele>115.069</ele>
				<time>2015-07-04T06:29:12Z</time>
				<extensions>
				</extensions>
			</trkpt>
			<trkpt lat="-28.072351" lon="153.256212">
				<ele>114.660</ele>
				<time>2015-07-04T06:29:14Z</time>
				<extensions>
				</extensions>
			</trkpt>
			<trkpt lat="-28.072031" lon="153.256133">
				<ele>114.803</ele>
				<time>2015-07-04T06:29:16Z</time>
				<extensions>
				</extensions>
			</trkpt>
			<trkpt lat="-28.071753" lon="153.255936">
				<ele>114.651</ele>
				<time>2015-07-04T06:29:18Z</time>
				<extensions>
				</extensions>
			</trkpt>
			<trkpt lat="-28.071496" lon="153.255655">
				<ele>116.044</ele>
				<time>2015-07-04T06:29:20Z</time>
				<extensions>
				</extensions>
			</trkpt>
			<trkpt lat="-28.071369" lon="153.255496">
				<ele>116.660</ele>
				<time>2015-07-04T06:29:21Z</time>
				<extensions>
				</extensions>
			</trkpt>
			<trkpt lat="-28.071244" lon="153.255335">
				<ele>117.091</ele>
				<time>2015-07-04T06:29:22Z</time>
				<extensions>
				</extensions>
			</trkpt>
			<trkpt lat="-28.071112" lon="153.255169">
				<ele>116.536</ele>
				<time>2015-07-04T06:29:23Z</time>
				<extensions>
				</extensions>
			</trkpt>
			<trkpt lat="-28.070985" lon="153.254992">
				<ele>114.410</ele>
				<time>2015-07-04T06:29:24Z</time>
				<extensions>
				</extensions>
			</trkpt>
			<trkpt lat="-28.070856" lon="153.254817">
				<ele>112.989</ele>
				<time>2015-07-04T06:29:25Z</time>
				<extensions>
				</extensions>
			</trkpt>
			<trkpt lat="-28.070724" lon="153.254671">
				<ele>111.512</ele>
				<time>2015-07-04T06:29:26Z</time>
				<extensions>
				</extensions>
			</trkpt>
			<trkpt lat="-28.070589" lon="153.254493">
				<ele>110.860</ele>
				<time>2015-07-04T06:29:27Z</time>
				<extensions>
				</extensions>
			</trkpt>
			<trkpt lat="-28.070463" lon="153.254323">
				<ele>110.563</ele>
				<time>2015-07-04T06:29:28Z</time>
				<extensions>
				</extensions>
			</trkpt>
			<trkpt lat="-28.070338" lon="153.254149">
				<ele>108.949</ele>
				<time>2015-07-04T06:29:29Z</time>
				<extensions>
				</extensions>
			</trkpt>
			<trkpt lat="-28.070198" lon="153.253970">
				<ele>108.342</ele>
				<time>2015-07-04T06:29:30Z</time>
				<extensions>
				</extensions>
			</trkpt>
			<trkpt lat="-28.070069" lon="153.253800">
				<ele>108.038</ele>
				<time>2015-07-04T06:29:31Z</time>
				<extensions>
				</extensions>
			</trkpt>
			<trkpt lat="-28.069925" lon="153.253640">
				<ele>107.537</ele>
				<time>2015-07-04T06:29:32Z</time>
				<extensions>
				</extensions>
			</trkpt>
			<trkpt lat="-28.069801" lon="153.253477">
				<ele>106.251</ele>
				<time>2015-07-04T06:29:33Z</time>
				<extensions>
				</extensions>
			</trkpt>
			<trkpt lat="-28.069658" lon="153.253311">
				<ele>105.737</ele>
				<time>2015-07-04T06:29:34Z</time>
				<extensions>
				</extensions>
			</trkpt>
			<trkpt lat="-28.069538" lon="153.253157">
				<ele>105.930</ele>
				<time>2015-07-04T06:29:35Z</time>
				<extensions>
				</extensions>
			</trkpt>
			<trkpt lat="-28.069419" lon="153.253001">
				<ele>105.736</ele>
				<time>2015-07-04T06:29:36Z</time>
				<extensions>
				</extensions>
			</trkpt>
			<trkpt lat="-28.069294" lon="153.252850">
				<ele>105.012</ele>
				<time>2015-07-04T06:29:37Z</time>
				<extensions>
				</extensions>
			</trkpt>
			<trkpt lat="-28.069057" lon="153.252547">
				<ele>103.049</ele>
				<time>2015-07-04T06:29:39Z</time>
				<extensions>
				</extensions>
			</trkpt>
			<trkpt lat="-28.068840" lon="153.252282">
				<ele>100.937</ele>
				<time>2015-07-04T06:29:41Z</time>
				<extensions>
				</extensions>
			</trkpt>
			<trkpt lat="-28.068627" lon="153.252080">
				<ele>99.770</ele>
				<time>2015-07-04T06:29:43Z</time>
				<extensions>
				</extensions>
			</trkpt>
			<trkpt lat="-28.068371" lon="153.251918">
				<ele>99.793</ele>
				<time>2015-07-04T06:29:45Z</time>
				<extensions>
				</extensions>
			</trkpt>
			<trkpt lat="-28.068101" lon="153.251841">
				<ele>99.820</ele>
				<time>2015-07-04T06:29:47Z</time>
				<extensions>
				</extensions>
			</trkpt>
			<trkpt lat="-28.067809" lon="153.251839">
				<ele>100.715</ele>
				<time>2015-07-04T06:29:49Z</time>
				<extensions>
				</extensions>
			</trkpt>
			<trkpt lat="-28.067525" lon="153.251929">
				<ele>100.273</ele>
				<time>2015-07-04T06:29:51Z</time>
				<extensions>
				</extensions>
			</trkpt>
			<trkpt lat="-28.067282" lon="153.252123">
				<ele>100.732</ele>
				<time>2015-07-04T06:29:53Z</time>
				<extensions>
				</extensions>
			</trkpt>
			<trkpt lat="-28.067077" lon="153.252361">
				<ele>102.380</ele>
				<time>2015-07-04T06:29:55Z</time>
				<extensions>
				</extensions>
			</trkpt>
			<trkpt lat="-28.066945" lon="153.252701">
				<ele>103.415</ele>
				<time>2015-07-04T06:29:57Z</time>
				<extensions>
				</extensions>
			</trkpt>
			<trkpt lat="-28.066870" lon="153.253067">
				<ele>105.538</ele>
				<time>2015-07-04T06:29:59Z</time>
				<extensions>
				</extensions>
			</trkpt>
			<trkpt lat="-28.066894" lon="153.253412">
				<ele>108.291</ele>
				<time>2015-07-04T06:30:01Z</time>
				<extensions>
				</extensions>
			</trkpt>
			<trkpt lat="-28.067000" lon="153.253774">
				<ele>113.329</ele>
				<time>2015-07-04T06:30:03Z</time>
				<extensions>
				</extensions>
			</trkpt>
			<trkpt lat="-28.067115" lon="153.254126">
				<ele>115.827</ele>
				<time>2015-07-04T06:30:05Z</time>
				<extensions>
				</extensions>
			</trkpt>
			<trkpt lat="-28.067220" lon="153.254492">
				<ele>117.249</ele>
				<time>2015-07-04T06:30:07Z</time>
				<extensions>
				</extensions>
			</trkpt>
			<trkpt lat="-28.067231" lon="153.254839">
				<ele>119.257</ele>
				<time>2015-07-04T06:30:09Z</time>
				<extensions>
				</extensions>
			</trkpt>
			<trkpt lat="-28.067142" lon="153.255177">
				<ele>122.523</ele>
				<time>2015-07-04T06:30:11Z</time>
				<extensions>
				</extensions>
			</trkpt>
			<trkpt lat="-28.066969" lon="153.255476">
				<ele>125.143</ele>
				<time>2015-07-04T06:30:13Z</time>
				<extensions>
				</extensions>
			</trkpt>
			<trkpt lat="-28.066740" lon="153.255717">
				<ele>126.147</ele>
				<time>2015-07-04T06:30:15Z</time>
				<extensions>
				</extensions>
			</trkpt>
			<trkpt lat="-28.066456" lon="153.255873">
				<ele>127.251</ele>
				<time>2015-07-04T06:30:17Z</time>
				<extensions>
				</extensions>
			</trkpt>
			<trkpt lat="-28.066146" lon="153.255929">
				<ele>128.005</ele>
				<time>2015-07-04T06:30:19Z</time>
				<extensions>
				</extensions>
			</trkpt>
			<trkpt lat="-28.065827" lon="153.255888">
				<ele>129.114</ele>
				<time>2015-07-04T06:30:21Z</time>
				<extensions>
				</extensions>
			</trkpt>
			<trkpt lat="-28.065659" lon="153.255812">
				<ele>129.579</ele>
				<time>2015-07-04T06:30:22Z</time>
				<extensions>
				</extensions>
			</trkpt>
			<trkpt lat="-28.065364" lon="153.255625">
				<ele>130.953</ele>
				<time>2015-07-04T06:30:24Z</time>
				<extensions>
				</extensions>
			</trkpt>
			<trkpt lat="-28.065105" lon="153.255397">
				<ele>130.139</ele>
				<time>2015-07-04T06:30:26Z</time>
				<extensions>
				</extensions>
			</trkpt>
			<trkpt lat="-28.064889" lon="153.255194">
				<ele>128.865</ele>
				<time>2015-07-04T06:30:28Z</time>
				<extensions>
				</extensions>
			</trkpt>
			<trkpt lat="-28.064657" lon="153.255043">
				<ele>129.463</ele>
				<time>2015-07-04T06:30:30Z</time>
				<extensions>
				</extensions>
			</trkpt>
			<trkpt lat="-28.064392" lon="153.254987">
				<ele>129.824</ele>
				<time>2015-07-04T06:30:32Z</time>
				<extensions>
				</extensions>
			</trkpt>
			<trkpt lat="-28.064133" lon="153.255054">
				<ele>131.595</ele>
				<time>2015-07-04T06:30:34Z</time>
				<extensions>
				</extensions>
			</trkpt>
			<trkpt lat="-28.063860" lon="153.255232">
				<ele>135.387</ele>
				<time>2015-07-04T06:30:36Z</time>
				<extensions>
				</extensions>
			</trkpt>
			<trkpt lat="-28.063596" lon="153.255470">
				<ele>139.857</ele>
				<time>2015-07-04T06:30:38Z</time>
				<extensions>
				</extensions>
			</trkpt>
			<trkpt lat="-28.063448" lon="153.255599">
				<ele>142.528</ele>
				<time>2015-07-04T06:30:39Z</time>
				<extensions>
				</extensions>
			</trkpt>
			<trkpt lat="-28.063297" lon="153.255729">
				<ele>143.920</ele>
				<time>2015-07-04T06:30:40Z</time>
				<extensions>
				</extensions>
			</trkpt>
			<trkpt lat="-28.063025" lon="153.255972">
				<ele>144.423</ele>
				<time>2015-07-04T06:30:42Z</time>
				<extensions>
				</extensions>
			</trkpt>
			<trkpt lat="-28.062791" lon="153.256196">
				<ele>144.412</ele>
				<time>2015-07-04T06:30:44Z</time>
				<extensions>
				</extensions>
			</trkpt>
			<trkpt lat="-28.062595" lon="153.256425">
				<ele>144.309</ele>
				<time>2015-07-04T06:30:46Z</time>
				<extensions>
				</extensions>
			</trkpt>
			<trkpt lat="-28.062481" lon="153.256714">
				<ele>145.713</ele>
				<time>2015-07-04T06:30:48Z</time>
				<extensions>
				</extensions>
			</trkpt>
			<trkpt lat="-28.062455" lon="153.257049">
				<ele>147.570</ele>
				<time>2015-07-04T06:30:50Z</time>
				<extensions>
				</extensions>
			</trkpt>
			<trkpt lat="-28.062531" lon="153.257364">
				<ele>149.475</ele>
				<time>2015-07-04T06:30:52Z</time>
				<extensions>
				</extensions>
			</trkpt>
			<trkpt lat="-28.062657" lon="153.257655">
				<ele>151.266</ele>
				<time>2015-07-04T06:30:54Z</time>
				<extensions>
				</extensions>
			</trkpt>
			<trkpt lat="-28.062776" lon="153.257950">
				<ele>150.471</ele>
				<time>2015-07-04T06:30:56Z</time>
				<extensions>
				</extensions>
			</trkpt>
			<trkpt lat="-28.062806" lon="153.258238">
				<ele>149.325</ele>
				<time>2015-07-04T06:30:58Z</time>
				<extensions>
				</extensions>
			</trkpt>
			<trkpt lat="-28.062725" lon="153.258526">
				<ele>148.583</ele>
				<time>2015-07-04T06:31:00Z</time>
				<extensions>
				</extensions>
			</trkpt>
			<trkpt lat="-28.062571" lon="153.258735">
				<ele>146.844</ele>
				<time>2015-07-04T06:31:02Z</time>
				<extensions>
				</extensions>
			</trkpt>
			<trkpt lat="-28.062331" lon="153.258889">
				<ele>144.906</ele>
				<time>2015-07-04T06:31:04Z</time>
				<extensions>
				</extensions>
			</trkpt>
			<trkpt lat="-28.062072" lon="153.258936">
				<ele>142.561</ele>
				<time>2015-07-04T06:31:06Z</time>
				<extensions>
				</extensions>
			</trkpt>
			<trkpt lat="-28.061736" lon="153.258830">
				<ele>142.983</ele>
				<time>2015-07-04T06:31:08Z</time>
				<extensions>
				</extensions>
			</trkpt>
			<trkpt lat="-28.061541" lon="153.258759">
				<ele>142.232</ele>
				<time>2015-07-04T06:31:09Z</time>
				<extensions>
				</extensions>
			</trkpt>
			<trkpt lat="-28.061351" lon="153.258678">
				<ele>142.552</ele>
				<time>2015-07-04T06:31:10Z</time>
				<extensions>
				</extensions>
			</trkpt>
			<trkpt lat="-28.061147" lon="153.258589">
				<ele>141.689</ele>
				<time>2015-07-04T06:31:11Z</time>
				<extensions>
				</extensions>
			</trkpt>
			<trkpt lat="-28.060940" lon="153.258511">
				<ele>140.254</ele>
				<time>2015-07-04T06:31:12Z</time>
				<extensions>
				</extensions>
			</trkpt>
			<trkpt lat="-28.060740" lon="153.258447">
				<ele>138.941</ele>
				<time>2015-07-04T06:31:13Z</time>
				<extensions>
				</extensions>
			</trkpt>
			<trkpt lat="-28.060514" lon="153.258357">
				<ele>137.351</ele>
				<time>2015-07-04T06:31:14Z</time>
				<extensions>
				</extensions>
			</trkpt>
			<trkpt lat="-28.060161" lon="153.258214">
				<ele>132.882</ele>
				<time>2015-07-04T06:31:16Z</time>
				<extensions>
				</extensions>
			</trkpt>
			<trkpt lat="-28.059974" lon="153.258139">
				<ele>131.210</ele>
				<time>2015-07-04T06:31:17Z</time>
				<extensions>
				</extensions>
			</trkpt>
			<trkpt lat="-28.059793" lon="153.258065">
				<ele>129.020</ele>
				<time>2015-07-04T06:31:18Z</time>
				<extensions>
				</extensions>
			</trkpt>
			<trkpt lat="-28.059615" lon="153.257994">
				<ele>127.654</ele>
				<time>2015-07-04T06:31:19Z</time>
				<extensions>
				</extensions>
			</trkpt>
			<trkpt lat="-28.059438" lon="153.257922">
				<ele>125.405</ele>
				<time>2015-07-04T06:31:20Z</time>
				<extensions>
				</extensions>
			</trkpt>
			<trkpt lat="-28.059254" lon="153.257848">
				<ele>122.882</ele>
				<time>2015-07-04T06:31:21Z</time>
				<extensions>
				</extensions>
			</trkpt>
			<trkpt lat="-28.059047" lon="153.257765">
				<ele>120.202</ele>
				<time>2015-07-04T06:31:22Z</time>
				<extensions>
				</extensions>
			</trkpt>
			<trkpt lat="-28.058861" lon="153.257691">
				<ele>118.308</ele>
				<time>2015-07-04T06:31:23Z</time>
				<extensions>
				</extensions>
			</trkpt>
			<trkpt lat="-28.058666" lon="153.257608">
				<ele>116.484</ele>
				<time>2015-07-04T06:31:24Z</time>
				<extensions>
				</extensions>
			</trkpt>
			<trkpt lat="-28.058487" lon="153.257540">
				<ele>114.163</ele>
				<time>2015-07-04T06:31:25Z</time>
				<extensions>
				</extensions>
			</trkpt>
			<trkpt lat="-28.058295" lon="153.257466">
				<ele>112.781</ele>
				<time>2015-07-04T06:31:26Z</time>
				<extensions>
				</extensions>
			</trkpt>
			<trkpt lat="-28.058113" lon="153.257396">
				<ele>111.417</ele>
				<time>2015-07-04T06:31:27Z</time>
				<extensions>
				</extensions>
			</trkpt>
			<trkpt lat="-28.057926" lon="153.257335">
				<ele>111.417</ele>
				<time>2015-07-04T06:31:28Z</time>
				<extensions>
				</extensions>
			</trkpt>
			<trkpt lat="-28.057564" lon="153.257270">
				<ele>106.743</ele>
				<time>2015-07-04T06:31:30Z</time>
				<extensions>
				</extensions>
			</trkpt>
			<trkpt lat="-28.057382" lon="153.257240">
				<ele>105.419</ele>
				<time>2015-07-04T06:31:31Z</time>
				<extensions>
				</extensions>
			</trkpt>
			<trkpt lat="-28.057184" lon="153.257236">
				<ele>104.363</ele>
				<time>2015-07-04T06:31:32Z</time>
				<extensions>
				</extensions>
			</trkpt>
			<trkpt lat="-28.056994" lon="153.257269">
				<ele>104.265</ele>
				<time>2015-07-04T06:31:33Z</time>
				<extensions>
				</extensions>
			</trkpt>
			<trkpt lat="-28.056797" lon="153.257317">
				<ele>105.020</ele>
				<time>2015-07-04T06:31:34Z</time>
				<extensions>
				</extensions>
			</trkpt>
			<trkpt lat="-28.056486" lon="153.257439">
				<ele>105.717</ele>
				<time>2015-07-04T06:31:36Z</time>
				<extensions>
				</extensions>
			</trkpt>
			<trkpt lat="-28.056169" lon="153.257605">
				<ele>104.589</ele>
				<time>2015-07-04T06:31:38Z</time>
				<extensions>
				</extensions>
			</trkpt>
			<trkpt lat="-28.055987" lon="153.257733">
				<ele>104.992</ele>
				<time>2015-07-04T06:31:39Z</time>
				<extensions>
				</extensions>
			</trkpt>
			<trkpt lat="-28.055821" lon="153.257864">
				<ele>105.051</ele>
				<time>2015-07-04T06:31:40Z</time>
				<extensions>
				</extensions>
			</trkpt>
			<trkpt lat="-28.055672" lon="153.258004">
				<ele>104.336</ele>
				<time>2015-07-04T06:31:41Z</time>
				<extensions>
				</extensions>
			</trkpt>
			<trkpt lat="-28.055538" lon="153.258149">
				<ele>104.041</ele>
				<time>2015-07-04T06:31:42Z</time>
				<extensions>
				</extensions>
			</trkpt>
			<trkpt lat="-28.055414" lon="153.258311">
				<ele>104.186</ele>
				<time>2015-07-04T06:31:43Z</time>
				<extensions>
				</extensions>
			</trkpt>
			<trkpt lat="-28.055296" lon="153.258492">
				<ele>103.998</ele>
				<time>2015-07-04T06:31:44Z</time>
				<extensions>
				</extensions>
			</trkpt>
			<trkpt lat="-28.055195" lon="153.258676">
				<ele>103.231</ele>
				<time>2015-07-04T06:31:45Z</time>
				<extensions>
				</extensions>
			</trkpt>
			<trkpt lat="-28.055038" lon="153.259044">
				<ele>102.597</ele>
				<time>2015-07-04T06:31:47Z</time>
				<extensions>
				</extensions>
			</trkpt>
			<trkpt lat="-28.054976" lon="153.259240">
				<ele>103.868</ele>
				<time>2015-07-04T06:31:48Z</time>
				<extensions>
				</extensions>
			</trkpt>
			<trkpt lat="-28.054922" lon="153.259442">
				<ele>103.945</ele>
				<time>2015-07-04T06:31:49Z</time>
				<extensions>
				</extensions>
			</trkpt>
			<trkpt lat="-28.054881" lon="153.259656">
				<ele>104.478</ele>
				<time>2015-07-04T06:31:50Z</time>
				<extensions>
				</extensions>
			</trkpt>
			<trkpt lat="-28.054856" lon="153.259883">
				<ele>104.712</ele>
				<time>2015-07-04T06:31:51Z</time>
				<extensions>
				</extensions>
			</trkpt>
			<trkpt lat="-28.054849" lon="153.260114">
				<ele>105.586</ele>
				<time>2015-07-04T06:31:52Z</time>
				<extensions>
				</extensions>
			</trkpt>
			<trkpt lat="-28.054854" lon="153.260353">
				<ele>107.568</ele>
				<time>2015-07-04T06:31:53Z</time>
				<extensions>
				</extensions>
			</trkpt>
			<trkpt lat="-28.054873" lon="153.260594">
				<ele>110.351</ele>
				<time>2015-07-04T06:31:54Z</time>
				<extensions>
				</extensions>
			</trkpt>
			<trkpt lat="-28.054900" lon="153.260809">
				<ele>111.779</ele>
				<time>2015-07-04T06:31:55Z</time>
				<extensions>
				</extensions>
			</trkpt>
			<trkpt lat="-28.054928" lon="153.261041">
				<ele>113.076</ele>
				<time>2015-07-04T06:31:56Z</time>
				<extensions>
				</extensions>
			</trkpt>
			<trkpt lat="-28.054959" lon="153.261266">
				<ele>114.128</ele>
				<time>2015-07-04T06:31:57Z</time>
				<extensions>
				</extensions>
			</trkpt>
			<trkpt lat="-28.054988" lon="153.261492">
				<ele>115.509</ele>
				<time>2015-07-04T06:31:58Z</time>
				<extensions>
				</extensions>
			</trkpt>
			<trkpt lat="-28.055018" lon="153.261700">
				<ele>117.132</ele>
				<time>2015-07-04T06:31:59Z</time>
				<extensions>
				</extensions>
			</trkpt>
			<trkpt lat="-28.055043" lon="153.261903">
				<ele>118.786</ele>
				<time>2015-07-04T06:32:00Z</time>
				<extensions>
				</extensions>
			</trkpt>
			<trkpt lat="-28.055060" lon="153.262109">
				<ele>120.689</ele>
				<time>2015-07-04T06:32:01Z</time>
				<extensions>
				</extensions>
			</trkpt>
			<trkpt lat="-28.055067" lon="153.262325">
				<ele>124.165</ele>
				<time>2015-07-04T06:32:02Z</time>
				<extensions>
				</extensions>
			</trkpt>
			<trkpt lat="-28.055062" lon="153.262553">
				<ele>126.351</ele>
				<time>2015-07-04T06:32:03Z</time>
				<extensions>
				</extensions>
			</trkpt>
			<trkpt lat="-28.055053" lon="153.262784">
				<ele>127.964</ele>
				<time>2015-07-04T06:32:04Z</time>
				<extensions>
				</extensions>
			</trkpt>
			<trkpt lat="-28.055034" lon="153.262999">
				<ele>129.265</ele>
				<time>2015-07-04T06:32:05Z</time>
				<extensions>
				</extensions>
			</trkpt>
			<trkpt lat="-28.054979" lon="153.263204">
				<ele>129.937</ele>
				<time>2015-07-04T06:32:06Z</time>
				<extensions>
				</extensions>
			</trkpt>
			<trkpt lat="-28.054908" lon="153.263406">
				<ele>130.854</ele>
				<time>2015-07-04T06:32:07Z</time>
				<extensions>
				</extensions>
			</trkpt>
			<trkpt lat="-28.054810" lon="153.263604">
				<ele>132.596</ele>
				<time>2015-07-04T06:32:08Z</time>
				<extensions>
				</extensions>
			</trkpt>
			<trkpt lat="-28.054709" lon="153.263813">
				<ele>134.607</ele>
				<time>2015-07-04T06:32:09Z</time>
				<extensions>
				</extensions>
			</trkpt>
			<trkpt lat="-28.054593" lon="153.264018">
				<ele>135.179</ele>
				<time>2015-07-04T06:32:10Z</time>
				<extensions>
				</extensions>
			</trkpt>
			<trkpt lat="-28.054465" lon="153.264238">
				<ele>135.221</ele>
				<time>2015-07-04T06:32:11Z</time>
				<extensions>
				</extensions>
			</trkpt>
			<trkpt lat="-28.054352" lon="153.264447">
				<ele>135.776</ele>
				<time>2015-07-04T06:32:12Z</time>
				<extensions>
				</extensions>
			</trkpt>
			<trkpt lat="-28.054239" lon="153.264657">
				<ele>135.864</ele>
				<time>2015-07-04T06:32:13Z</time>
				<extensions>
				</extensions>
			</trkpt>
			<trkpt lat="-28.054119" lon="153.264868">
				<ele>135.780</ele>
				<time>2015-07-04T06:32:14Z</time>
				<extensions>
				</extensions>
			</trkpt>
			<trkpt lat="-28.054001" lon="153.265069">
				<ele>136.289</ele>
				<time>2015-07-04T06:32:15Z</time>
				<extensions>
				</extensions>
			</trkpt>
			<trkpt lat="-28.053882" lon="153.265273">
				<ele>134.662</ele>
				<time>2015-07-04T06:32:16Z</time>
				<extensions>
				</extensions>
			</trkpt>
			<trkpt lat="-28.053758" lon="153.265476">
				<ele>134.069</ele>
				<time>2015-07-04T06:32:17Z</time>
				<extensions>
				</extensions>
			</trkpt>
			<trkpt lat="-28.053637" lon="153.265664">
				<ele>133.349</ele>
				<time>2015-07-04T06:32:18Z</time>
				<extensions>
				</extensions>
			</trkpt>
			<trkpt lat="-28.053505" lon="153.265860">
				<ele>132.858</ele>
				<time>2015-07-04T06:32:19Z</time>
				<extensions>
				</extensions>
			</trkpt>
			<trkpt lat="-28.053361" lon="153.266047">
				<ele>132.494</ele>
				<time>2015-07-04T06:32:20Z</time>
				<extensions>
				</extensions>
			</trkpt>
			<trkpt lat="-28.053219" lon="153.266219">
				<ele>132.773</ele>
				<time>2015-07-04T06:32:21Z</time>
				<extensions>
				</extensions>
			</trkpt>
			<trkpt lat="-28.053059" lon="153.266389">
				<ele>133.279</ele>
				<time>2015-07-04T06:32:22Z</time>
				<extensions>
				</extensions>
			</trkpt>
			<trkpt lat="-28.052897" lon="153.266540">
				<ele>133.675</ele>
				<time>2015-07-04T06:32:23Z</time>
				<extensions>
				</extensions>
			</trkpt>
			<trkpt lat="-28.052732" lon="153.266683">
				<ele>133.616</ele>
				<time>2015-07-04T06:32:24Z</time>
				<extensions>
				</extensions>
			</trkpt>
			<trkpt lat="-28.052547" lon="153.266823">
				<ele>133.237</ele>
				<time>2015-07-04T06:32:25Z</time>
				<extensions>
				</extensions>
			</trkpt>
			<trkpt lat="-28.052363" lon="153.266942">
				<ele>132.057</ele>
				<time>2015-07-04T06:32:26Z</time>
				<extensions>
				</extensions>
			</trkpt>
			<trkpt lat="-28.052162" lon="153.267028">
				<ele>131.639</ele>
				<time>2015-07-04T06:32:27Z</time>
				<extensions>
				</extensions>
			</trkpt>
			<trkpt lat="-28.051987" lon="153.267122">
				<ele>132.436</ele>
				<time>2015-07-04T06:32:28Z</time>
				<extensions>
				</extensions>
			</trkpt>
			<trkpt lat="-28.051787" lon="153.267207">
				<ele>133.822</ele>
				<time>2015-07-04T06:32:29Z</time>
				<extensions>
				</extensions>
			</trkpt>
			<trkpt lat="-28.051599" lon="153.267264">
				<ele>134.446</ele>
				<time>2015-07-04T06:32:30Z</time>
				<extensions>
				</extensions>
			</trkpt>
			<trkpt lat="-28.051368" lon="153.267316">
				<ele>134.653</ele>
				<time>2015-07-04T06:32:31Z</time>
				<extensions>
				</extensions>
			</trkpt>
			<trkpt lat="-28.051146" lon="153.267361">
				<ele>134.948</ele>
				<time>2015-07-04T06:32:32Z</time>
				<extensions>
				</extensions>
			</trkpt>
			<trkpt lat="-28.050938" lon="153.267392">
				<ele>135.607</ele>
				<time>2015-07-04T06:32:33Z</time>
				<extensions>
				</extensions>
			</trkpt>
			<trkpt lat="-28.050731" lon="153.267403">
				<ele>135.006</ele>
				<time>2015-07-04T06:32:34Z</time>
				<extensions>
				</extensions>
			</trkpt>
			<trkpt lat="-28.050523" lon="153.267399">
				<ele>135.449</ele>
				<time>2015-07-04T06:32:35Z</time>
				<extensions>
				</extensions>
			</trkpt>
			<trkpt lat="-28.050332" lon="153.267384">
				<ele>135.295</ele>
				<time>2015-07-04T06:32:36Z</time>
				<extensions>
				</extensions>
			</trkpt>
			<trkpt lat="-28.050129" lon="153.267350">
				<ele>135.242</ele>
				<time>2015-07-04T06:32:37Z</time>
				<extensions>
				</extensions>
			</trkpt>
			<trkpt lat="-28.049925" lon="153.267307">
				<ele>134.402</ele>
				<time>2015-07-04T06:32:38Z</time>
				<extensions>
				</extensions>
			</trkpt>
			<trkpt lat="-28.049731" lon="153.267265">
				<ele>133.249</ele>
				<time>2015-07-04T06:32:39Z</time>
				<extensions>
				</extensions>
			</trkpt>
			<trkpt lat="-28.049525" lon="153.267183">
				<ele>132.281</ele>
				<time>2015-07-04T06:32:40Z</time>
				<extensions>
				</extensions>
			</trkpt>
			<trkpt lat="-28.049323" lon="153.267104">
				<ele>131.603</ele>
				<time>2015-07-04T06:32:41Z</time>
				<extensions>
				</extensions>
			</trkpt>
			<trkpt lat="-28.049124" lon="153.267002">
				<ele>130.518</ele>
				<time>2015-07-04T06:32:42Z</time>
				<extensions>
				</extensions>
			</trkpt>
			<trkpt lat="-28.048920" lon="153.266885">
				<ele>128.900</ele>
				<time>2015-07-04T06:32:43Z</time>
				<extensions>
				</extensions>
			</trkpt>
			<trkpt lat="-28.048730" lon="153.266752">
				<ele>127.183</ele>
				<time>2015-07-04T06:32:44Z</time>
				<extensions>
				</extensions>
			</trkpt>
			<trkpt lat="-28.048537" lon="153.266637">
				<ele>125.853</ele>
				<time>2015-07-04T06:32:45Z</time>
				<extensions>
				</extensions>
			</trkpt>
			<trkpt lat="-28.048359" lon="153.266507">
				<ele>123.910</ele>
				<time>2015-07-04T06:32:46Z</time>
				<extensions>
				</extensions>
			</trkpt>
			<trkpt lat="-28.048158" lon="153.266388">
				<ele>122.888</ele>
				<time>2015-07-04T06:32:47Z</time>
				<extensions>
				</extensions>
			</trkpt>
			<trkpt lat="-28.047954" lon="153.266271">
				<ele>122.579</ele>
				<time>2015-07-04T06:32:48Z</time>
				<extensions>
				</extensions>
			</trkpt>
			<trkpt lat="-28.047760" lon="153.266146">
				<ele>122.579</ele>
				<time>2015-07-04T06:32:49Z</time>
				<extensions>
				</extensions>
			</trkpt>
			<trkpt lat="-28.047551" lon="153.265996">
				<ele>123.099</ele>
				<time>2015-07-04T06:32:50Z</time>
				<extensions>
				</extensions>
			</trkpt>
			<trkpt lat="-28.047363" lon="153.265830">
				<ele>125.338</ele>
				<time>2015-07-04T06:32:51Z</time>
				<extensions>
				</extensions>
			</trkpt>
			<trkpt lat="-28.047173" lon="153.265681">
				<ele>125.736</ele>
				<time>2015-07-04T06:32:52Z</time>
				<extensions>
				</extensions>
			</trkpt>
			<trkpt lat="-28.046996" lon="153.265508">
				<ele>126.261</ele>
				<time>2015-07-04T06:32:53Z</time>
				<extensions>
				</extensions>
			</trkpt>
			<trkpt lat="-28.046841" lon="153.265341">
				<ele>126.148</ele>
				<time>2015-07-04T06:32:54Z</time>
				<extensions>
				</extensions>
			</trkpt>
			<trkpt lat="-28.046728" lon="153.265165">
				<ele>125.818</ele>
				<time>2015-07-04T06:32:55Z</time>
				<extensions>
				</extensions>
			</trkpt>
			<trkpt lat="-28.046608" lon="153.264998">
				<ele>123.145</ele>
				<time>2015-07-04T06:32:56Z</time>
				<extensions>
				</extensions>
			</trkpt>
			<trkpt lat="-28.046477" lon="153.264802">
				<ele>122.263</ele>
				<time>2015-07-04T06:32:57Z</time>
				<extensions>
				</extensions>
			</trkpt>
			<trkpt lat="-28.046245" lon="153.264503">
				<ele>118.678</ele>
				<time>2015-07-04T06:32:59Z</time>
				<extensions>
				</extensions>
			</trkpt>
			<trkpt lat="-28.046055" lon="153.264286">
				<ele>114.712</ele>
				<time>2015-07-04T06:33:01Z</time>
				<extensions>
				</extensions>
			</trkpt>
			<trkpt lat="-28.045808" lon="153.264126">
				<ele>111.181</ele>
				<time>2015-07-04T06:33:03Z</time>
				<extensions>
				</extensions>
			</trkpt>
			<trkpt lat="-28.045516" lon="153.264025">
				<ele>107.462</ele>
				<time>2015-07-04T06:33:05Z</time>
				<extensions>
				</extensions>
			</trkpt>
			<trkpt lat="-28.045226" lon="153.264034">
				<ele>105.510</ele>
				<time>2015-07-04T06:33:07Z</time>
				<extensions>
				</extensions>
			</trkpt>
			<trkpt lat="-28.045040" lon="153.264070">
				<ele>105.348</ele>
				<time>2015-07-04T06:33:08Z</time>
				<extensions>
				</extensions>
			</trkpt>
			<trkpt lat="-28.044736" lon="153.264186">
				<ele>104.379</ele>
				<time>2015-07-04T06:33:10Z</time>
				<extensions>
				</extensions>
			</trkpt>
			<trkpt lat="-28.044486" lon="153.264396">
				<ele>104.230</ele>
				<time>2015-07-04T06:33:12Z</time>
				<extensions>
				</extensions>
			</trkpt>
			<trkpt lat="-28.044293" lon="153.264688">
				<ele>106.955</ele>
				<time>2015-07-04T06:33:14Z</time>
				<extensions>
				</extensions>
			</trkpt>
			<trkpt lat="-28.044161" lon="153.265004">
				<ele>109.355</ele>
				<time>2015-07-04T06:33:16Z</time>
				<extensions>
				</extensions>
			</trkpt>
			<trkpt lat="-28.044090" lon="153.265360">
				<ele>113.549</ele>
				<time>2015-07-04T06:33:18Z</time>
				<extensions>
				</extensions>
			</trkpt>
			<trkpt lat="-28.044123" lon="153.265732">
				<ele>117.422</ele>
				<time>2015-07-04T06:33:20Z</time>
				<extensions>
				</extensions>
			</trkpt>
			<trkpt lat="-28.044179" lon="153.265926">
				<ele>120.367</ele>
				<time>2015-07-04T06:33:21Z</time>
				<extensions>
				</extensions>
			</trkpt>
			<trkpt lat="-28.044260" lon="153.266151">
				<ele>124.122</ele>
				<time>2015-07-04T06:33:22Z</time>
				<extensions>
				</extensions>
			</trkpt>
			<trkpt lat="-28.044339" lon="153.266363">
				<ele>126.558</ele>
				<time>2015-07-04T06:33:23Z</time>
				<extensions>
				</extensions>
			</trkpt>
			<trkpt lat="-28.044422" lon="153.266571">
				<ele>126.170</ele>
				<time>2015-07-04T06:33:24Z</time>
				<extensions>
				</extensions>
			</trkpt>
			<trkpt lat="-28.044509" lon="153.266774">
				<ele>126.384</ele>
				<time>2015-07-04T06:33:25Z</time>
				<extensions>
				</extensions>
			</trkpt>
			<trkpt lat="-28.044634" lon="153.267148">
				<ele>124.985</ele>
				<time>2015-07-04T06:33:27Z</time>
				<extensions>
				</extensions>
			</trkpt>
			<trkpt lat="-28.044696" lon="153.267506">
				<ele>123.268</ele>
				<time>2015-07-04T06:33:29Z</time>
				<extensions>
				</extensions>
			</trkpt>
			<trkpt lat="-28.044693" lon="153.267711">
				<ele>122.940</ele>
				<time>2015-07-04T06:33:30Z</time>
				<extensions>
				</extensions>
			</trkpt>
			<trkpt lat="-28.044630" lon="153.268061">
				<ele>121.009</ele>
				<time>2015-07-04T06:33:32Z</time>
				<extensions>
				</extensions>
			</trkpt>
			<trkpt lat="-28.044456" lon="153.268426">
				<ele>118.431</ele>
				<time>2015-07-04T06:33:34Z</time>
				<extensions>
				</extensions>
			</trkpt>
			<trkpt lat="-28.044344" lon="153.268591">
				<ele>116.426</ele>
				<time>2015-07-04T06:33:35Z</time>
				<extensions>
				</extensions>
			</trkpt>
			<trkpt lat="-28.044071" lon="153.268823">
				<ele>112.567</ele>
				<time>2015-07-04T06:33:37Z</time>
				<extensions>
				</extensions>
			</trkpt>
			<trkpt lat="-28.043720" lon="153.268928">
				<ele>110.441</ele>
				<time>2015-07-04T06:33:39Z</time>
				<extensions>
				</extensions>
			</trkpt>
			<trkpt lat="-28.043508" lon="153.268937">
				<ele>110.735</ele>
				<time>2015-07-04T06:33:40Z</time>
				<extensions>
				</extensions>
			</trkpt>
			<trkpt lat="-28.043308" lon="153.268934">
				<ele>111.172</ele>
				<time>2015-07-04T06:33:41Z</time>
				<extensions>
				</extensions>
			</trkpt>
			<trkpt lat="-28.043110" lon="153.268922">
				<ele>110.515</ele>
				<time>2015-07-04T06:33:42Z</time>
				<extensions>
				</extensions>
			</trkpt>
			<trkpt lat="-28.042910" lon="153.268905">
				<ele>109.790</ele>
				<time>2015-07-04T06:33:43Z</time>
				<extensions>
				</extensions>
			</trkpt>
			<trkpt lat="-28.042720" lon="153.268898">
				<ele>108.571</ele>
				<time>2015-07-04T06:33:44Z</time>
				<extensions>
				</extensions>
			</trkpt>
			<trkpt lat="-28.042539" lon="153.268886">
				<ele>107.816</ele>
				<time>2015-07-04T06:33:45Z</time>
				<extensions>
				</extensions>
			</trkpt>
			<trkpt lat="-28.042344" lon="153.268897">
				<ele>108.217</ele>
				<time>2015-07-04T06:33:46Z</time>
				<extensions>
				</extensions>
			</trkpt>
			<trkpt lat="-28.042165" lon="153.268928">
				<ele>108.675</ele>
				<time>2015-07-04T06:33:47Z</time>
				<extensions>
				</extensions>
			</trkpt>
			<trkpt lat="-28.041960" lon="153.268959">
				<ele>109.677</ele>
				<time>2015-07-04T06:33:48Z</time>
				<extensions>
				</extensions>
			</trkpt>
			<trkpt lat="-28.041774" lon="153.269007">
				<ele>111.441</ele>
				<time>2015-07-04T06:33:49Z</time>
				<extensions>
				</extensions>
			</trkpt>
			<trkpt lat="-28.041601" lon="153.269067">
				<ele>112.123</ele>
				<time>2015-07-04T06:33:50Z</time>
				<extensions>
				</extensions>
			</trkpt>
			<trkpt lat="-28.041413" lon="153.269147">
				<ele>112.767</ele>
				<time>2015-07-04T06:33:51Z</time>
				<extensions>
				</extensions>
			</trkpt>
			<trkpt lat="-28.041246" lon="153.269249">
				<ele>113.388</ele>
				<time>2015-07-04T06:33:52Z</time>
				<extensions>
				</extensions>
			</trkpt>
			<trkpt lat="-28.041033" lon="153.269373">
				<ele>112.581</ele>
				<time>2015-07-04T06:33:53Z</time>
				<extensions>
				</extensions>
			</trkpt>
			<trkpt lat="-28.040857" lon="153.269487">
				<ele>110.941</ele>
				<time>2015-07-04T06:33:54Z</time>
				<extensions>
				</extensions>
			</trkpt>
			<trkpt lat="-28.040674" lon="153.269612">
				<ele>111.170</ele>
				<time>2015-07-04T06:33:55Z</time>
				<extensions>
				</extensions>
			</trkpt>
			<trkpt lat="-28.040514" lon="153.269726">
				<ele>110.490</ele>
				<time>2015-07-04T06:33:56Z</time>
				<extensions>
				</extensions>
			</trkpt>
			<trkpt lat="-28.040346" lon="153.269843">
				<ele>110.366</ele>
				<time>2015-07-04T06:33:57Z</time>
				<extensions>
				</extensions>
			</trkpt>
			<trkpt lat="-28.040176" lon="153.269958">
				<ele>109.521</ele>
				<time>2015-07-04T06:33:58Z</time>
				<extensions>
				</extensions>
			</trkpt>
			<trkpt lat="-28.040012" lon="153.270084">
				<ele>108.562</ele>
				<time>2015-07-04T06:33:59Z</time>
				<extensions>
				</extensions>
			</trkpt>
			<trkpt lat="-28.039842" lon="153.270202">
				<ele>108.039</ele>
				<time>2015-07-04T06:34:00Z</time>
				<extensions>
				</extensions>
			</trkpt>
			<trkpt lat="-28.039672" lon="153.270302">
				<ele>107.079</ele>
				<time>2015-07-04T06:34:01Z</time>
				<extensions>
				</extensions>
			</trkpt>
			<trkpt lat="-28.039352" lon="153.270522">
				<ele>105.855</ele>
				<time>2015-07-04T06:34:03Z</time>
				<extensions>
				</extensions>
			</trkpt>
			<trkpt lat="-28.039200" lon="153.270633">
				<ele>104.407</ele>
				<time>2015-07-04T06:34:04Z</time>
				<extensions>
				</extensions>
			</trkpt>
			<trkpt lat="-28.039035" lon="153.270742">
				<ele>102.699</ele>
				<time>2015-07-04T06:34:05Z</time>
				<extensions>
				</extensions>
			</trkpt>
			<trkpt lat="-28.038877" lon="153.270848">
				<ele>100.988</ele>
				<time>2015-07-04T06:34:06Z</time>
				<extensions>
				</extensions>
			</trkpt>
			<trkpt lat="-28.038718" lon="153.270965">
				<ele>100.988</ele>
				<time>2015-07-04T06:34:07Z</time>
				<extensions>
				</extensions>
			</trkpt>
			<trkpt lat="-28.038556" lon="153.271100">
				<ele>100.809</ele>
				<time>2015-07-04T06:34:08Z</time>
				<extensions>
				</extensions>
			</trkpt>
			<trkpt lat="-28.038398" lon="153.271230">
				<ele>99.083</ele>
				<time>2015-07-04T06:34:09Z</time>
				<extensions>
				</extensions>
			</trkpt>
			<trkpt lat="-28.038252" lon="153.271384">
				<ele>97.289</ele>
				<time>2015-07-04T06:34:10Z</time>
				<extensions>
				</extensions>
			</trkpt>
			<trkpt lat="-28.038123" lon="153.271539">
				<ele>95.127</ele>
				<time>2015-07-04T06:34:11Z</time>
				<extensions>
				</extensions>
			</trkpt>
			<trkpt lat="-28.037979" lon="153.271706">
				<ele>93.059</ele>
				<time>2015-07-04T06:34:12Z</time>
				<extensions>
				</extensions>
			</trkpt>
			<trkpt lat="-28.037847" lon="153.271879">
				<ele>91.505</ele>
				<time>2015-07-04T06:34:13Z</time>
				<extensions>
				</extensions>
			</trkpt>
			<trkpt lat="-28.037698" lon="153.272064">
				<ele>90.318</ele>
				<time>2015-07-04T06:34:14Z</time>
				<extensions>
				</extensions>
			</trkpt>
			<trkpt lat="-28.037570" lon="153.272263">
				<ele>89.163</ele>
				<time>2015-07-04T06:34:15Z</time>
				<extensions>
				</extensions>
			</trkpt>
			<trkpt lat="-28.037468" lon="153.272471">
				<ele>87.408</ele>
				<time>2015-07-04T06:34:16Z</time>
				<extensions>
				</extensions>
			</trkpt>
			<trkpt lat="-28.037346" lon="153.272655">
				<ele>85.358</ele>
				<time>2015-07-04T06:34:17Z</time>
				<extensions>
				</extensions>
			</trkpt>
			<trkpt lat="-28.037230" lon="153.272863">
				<ele>82.320</ele>
				<time>2015-07-04T06:34:18Z</time>
				<extensions>
				</extensions>
			</trkpt>
			<trkpt lat="-28.037135" lon="153.273062">
				<ele>78.856</ele>
				<time>2015-07-04T06:34:19Z</time>
				<extensions>
				</extensions>
			</trkpt>
			<trkpt lat="-28.037025" lon="153.273275">
				<ele>77.569</ele>
				<time>2015-07-04T06:34:20Z</time>
				<extensions>
				</extensions>
			</trkpt>
			<trkpt lat="-28.036923" lon="153.273477">
				<ele>75.985</ele>
				<time>2015-07-04T06:34:21Z</time>
				<extensions>
				</extensions>
			</trkpt>
			<trkpt lat="-28.036818" lon="153.273687">
				<ele>74.761</ele>
				<time>2015-07-04T06:34:22Z</time>
				<extensions>
				</extensions>
			</trkpt>
			<trkpt lat="-28.036711" lon="153.273895">
				<ele>73.598</ele>
				<time>2015-07-04T06:34:23Z</time>
				<extensions>
				</extensions>
			</trkpt>
			<trkpt lat="-28.036595" lon="153.274102">
				<ele>72.229</ele>
				<time>2015-07-04T06:34:24Z</time>
				<extensions>
				</extensions>
			</trkpt>
			<trkpt lat="-28.036503" lon="153.274317">
				<ele>71.446</ele>
				<time>2015-07-04T06:34:25Z</time>
				<extensions>
				</extensions>
			</trkpt>
			<trkpt lat="-28.036394" lon="153.274530">
				<ele>71.108</ele>
				<time>2015-07-04T06:34:26Z</time>
				<extensions>
				</extensions>
			</trkpt>
			<trkpt lat="-28.036289" lon="153.274736">
				<ele>71.227</ele>
				<time>2015-07-04T06:34:27Z</time>
				<extensions>
				</extensions>
			</trkpt>
			<trkpt lat="-28.036194" lon="153.274948">
				<ele>71.724</ele>
				<time>2015-07-04T06:34:28Z</time>
				<extensions>
				</extensions>
			</trkpt>
			<trkpt lat="-28.036089" lon="153.275163">
				<ele>71.772</ele>
				<time>2015-07-04T06:34:29Z</time>
				<extensions>
				</extensions>
			</trkpt>
			<trkpt lat="-28.035977" lon="153.275372">
				<ele>72.212</ele>
				<time>2015-07-04T06:34:30Z</time>
				<extensions>
				</extensions>
			</trkpt>
			<trkpt lat="-28.035870" lon="153.275557">
				<ele>71.918</ele>
				<time>2015-07-04T06:34:31Z</time>
				<extensions>
				</extensions>
			</trkpt>
			<trkpt lat="-28.035763" lon="153.275743">
				<ele>72.039</ele>
				<time>2015-07-04T06:34:32Z</time>
				<extensions>
				</extensions>
			</trkpt>
			<trkpt lat="-28.035657" lon="153.275926">
				<ele>71.449</ele>
				<time>2015-07-04T06:34:33Z</time>
				<extensions>
				</extensions>
			</trkpt>
			<trkpt lat="-28.035547" lon="153.276119">
				<ele>71.863</ele>
				<time>2015-07-04T06:34:34Z</time>
				<extensions>
				</extensions>
			</trkpt>
			<trkpt lat="-28.035437" lon="153.276313">
				<ele>72.036</ele>
				<time>2015-07-04T06:34:35Z</time>
				<extensions>
				</extensions>
			</trkpt>
			<trkpt lat="-28.035335" lon="153.276501">
				<ele>70.593</ele>
				<time>2015-07-04T06:34:36Z</time>
				<extensions>
				</extensions>
			</trkpt>
			<trkpt lat="-28.035241" lon="153.276684">
				<ele>69.186</ele>
				<time>2015-07-04T06:34:37Z</time>
				<extensions>
				</extensions>
			</trkpt>
			<trkpt lat="-28.035146" lon="153.276878">
				<ele>68.557</ele>
				<time>2015-07-04T06:34:38Z</time>
				<extensions>
				</extensions>
			</trkpt>
			<trkpt lat="-28.035051" lon="153.277071">
				<ele>67.503</ele>
				<time>2015-07-04T06:34:39Z</time>
				<extensions>
				</extensions>
			</trkpt>
			<trkpt lat="-28.034955" lon="153.277269">
				<ele>66.033</ele>
				<time>2015-07-04T06:34:40Z</time>
				<extensions>
				</extensions>
			</trkpt>
			<trkpt lat="-28.034863" lon="153.277460">
				<ele>64.943</ele>
				<time>2015-07-04T06:34:41Z</time>
				<extensions>
				</extensions>
			</trkpt>
			<trkpt lat="-28.034766" lon="153.277663">
				<ele>63.120</ele>
				<time>2015-07-04T06:34:42Z</time>
				<extensions>
				</extensions>
			</trkpt>
			<trkpt lat="-28.034666" lon="153.277858">
				<ele>60.973</ele>
				<time>2015-07-04T06:34:43Z</time>
				<extensions>
				</extensions>
			</trkpt>
			<trkpt lat="-28.034555" lon="153.278046">
				<ele>59.301</ele>
				<time>2015-07-04T06:34:44Z</time>
				<extensions>
				</extensions>
			</trkpt>
			<trkpt lat="-28.034436" lon="153.278225">
				<ele>57.144</ele>
				<time>2015-07-04T06:34:45Z</time>
				<extensions>
				</extensions>
			</trkpt>
			<trkpt lat="-28.034315" lon="153.278395">
				<ele>56.103</ele>
				<time>2015-07-04T06:34:46Z</time>
				<extensions>
				</extensions>
			</trkpt>
			<trkpt lat="-28.034186" lon="153.278563">
				<ele>54.656</ele>
				<time>2015-07-04T06:34:47Z</time>
				<extensions>
				</extensions>
			</trkpt>
			<trkpt lat="-28.034058" lon="153.278717">
				<ele>53.348</ele>
				<time>2015-07-04T06:34:48Z</time>
				<extensions>
				</extensions>
			</trkpt>
			<trkpt lat="-28.033914" lon="153.278877">
				<ele>51.713</ele>
				<time>2015-07-04T06:34:49Z</time>
				<extensions>
				</extensions>
			</trkpt>
			<trkpt lat="-28.033767" lon="153.279025">
				<ele>52.547</ele>
				<time>2015-07-04T06:34:50Z</time>
				<extensions>
				</extensions>
			</trkpt>
			<trkpt lat="-28.033628" lon="153.279208">
				<ele>51.461</ele>
				<time>2015-07-04T06:34:51Z</time>
				<extensions>
				</extensions>
			</trkpt>
			<trkpt lat="-28.033466" lon="153.279347">
				<ele>50.758</ele>
				<time>2015-07-04T06:34:52Z</time>
				<extensions>
				</extensions>
			</trkpt>
			<trkpt lat="-28.033289" lon="153.279425">
				<ele>50.103</ele>
				<time>2015-07-04T06:34:53Z</time>
				<extensions>
				</extensions>
			</trkpt>
			<trkpt lat="-28.033107" lon="153.279559">
				<ele>49.471</ele>
				<time>2015-07-04T06:34:54Z</time>
				<extensions>
				</extensions>
			</trkpt>
			<trkpt lat="-28.032920" lon="153.279684">
				<ele>49.775</ele>
				<time>2015-07-04T06:34:55Z</time>
				<extensions>
				</extensions>
			</trkpt>
			<trkpt lat="-28.032722" lon="153.279808">
				<ele>49.364</ele>
				<time>2015-07-04T06:34:56Z</time>
				<extensions>
				</extensions>
			</trkpt>
			<trkpt lat="-28.032504" lon="153.279910">
				<ele>47.343</ele>
				<time>2015-07-04T06:34:57Z</time>
				<extensions>
				</extensions>
			</trkpt>
			<trkpt lat="-28.032301" lon="153.280004">
				<ele>45.494</ele>
				<time>2015-07-04T06:34:58Z</time>
				<extensions>
				</extensions>
			</trkpt>
			<trkpt lat="-28.032109" lon="153.280094">
				<ele>42.851</ele>
				<time>2015-07-04T06:34:59Z</time>
				<extensions>
				</extensions>
			</trkpt>
			<trkpt lat="-28.031904" lon="153.280176">
				<ele>41.599</ele>
				<time>2015-07-04T06:35:00Z</time>
				<extensions>
				</extensions>
			</trkpt>
			<trkpt lat="-28.031708" lon="153.280271">
				<ele>39.708</ele>
				<time>2015-07-04T06:35:01Z</time>
				<extensions>
				</extensions>
			</trkpt>
			<trkpt lat="-28.031542" lon="153.280352">
				<ele>38.423</ele>
				<time>2015-07-04T06:35:02Z</time>
				<extensions>
				</extensions>
			</trkpt>
			<trkpt lat="-28.031347" lon="153.280445">
				<ele>38.291</ele>
				<time>2015-07-04T06:35:03Z</time>
				<extensions>
				</extensions>
			</trkpt>
			<trkpt lat="-28.031170" lon="153.280530">
				<ele>37.633</ele>
				<time>2015-07-04T06:35:04Z</time>
				<extensions>
				</extensions>
			</trkpt>
			<trkpt lat="-28.030992" lon="153.280615">
				<ele>37.558</ele>
				<time>2015-07-04T06:35:05Z</time>
				<extensions>
				</extensions>
			</trkpt>
			<trkpt lat="-28.030659" lon="153.280774">
				<ele>37.348</ele>
				<time>2015-07-04T06:35:07Z</time>
				<extensions>
				</extensions>
			</trkpt>
			<trkpt lat="-28.030325" lon="153.280935">
				<ele>36.650</ele>
				<time>2015-07-04T06:35:09Z</time>
				<extensions>
				</extensions>
			</trkpt>
			<trkpt lat="-28.030007" lon="153.281095">
				<ele>36.151</ele>
				<time>2015-07-04T06:35:11Z</time>
				<extensions>
				</extensions>
			</trkpt>
			<trkpt lat="-28.029703" lon="153.281245">
				<ele>36.533</ele>
				<time>2015-07-04T06:35:13Z</time>
				<extensions>
				</extensions>
			</trkpt>
			<trkpt lat="-28.029408" lon="153.281387">
				<ele>36.610</ele>
				<time>2015-07-04T06:35:15Z</time>
				<extensions>
				</extensions>
			</trkpt>
			<trkpt lat="-28.029127" lon="153.281525">
				<ele>39.294</ele>
				<time>2015-07-04T06:35:17Z</time>
				<extensions>
				</extensions>
			</trkpt>
			<trkpt lat="-28.028843" lon="153.281658">
				<ele>41.387</ele>
				<time>2015-07-04T06:35:19Z</time>
				<extensions>
				</extensions>
			</trkpt>
			<trkpt lat="-28.028552" lon="153.281798">
				<ele>44.061</ele>
				<time>2015-07-04T06:35:21Z</time>
				<extensions>
				</extensions>
			</trkpt>
			<trkpt lat="-28.028285" lon="153.281939">
				<ele>46.166</ele>
				<time>2015-07-04T06:35:23Z</time>
				<extensions>
				</extensions>
			</trkpt>
			<trkpt lat="-28.028011" lon="153.282049">
				<ele>47.757</ele>
				<time>2015-07-04T06:35:25Z</time>
				<extensions>
				</extensions>
			</trkpt>
			<trkpt lat="-28.027716" lon="153.282119">
				<ele>49.327</ele>
				<time>2015-07-04T06:35:27Z</time>
				<extensions>
				</extensions>
			</trkpt>
			<trkpt lat="-28.027415" lon="153.282189">
				<ele>51.886</ele>
				<time>2015-07-04T06:35:29Z</time>
				<extensions>
				</extensions>
			</trkpt>
			<trkpt lat="-28.027091" lon="153.282213">
				<ele>55.205</ele>
				<time>2015-07-04T06:35:31Z</time>
				<extensions>
				</extensions>
			</trkpt>
			<trkpt lat="-28.026740" lon="153.282191">
				<ele>58.909</ele>
				<time>2015-07-04T06:35:33Z</time>
				<extensions>
				</extensions>
			</trkpt>
			<trkpt lat="-28.026402" lon="153.282115">
				<ele>60.248</ele>
				<time>2015-07-04T06:35:35Z</time>
				<extensions>
				</extensions>
			</trkpt>
			<trkpt lat="-28.026072" lon="153.282009">
				<ele>62.927</ele>
				<time>2015-07-04T06:35:37Z</time>
				<extensions>
				</extensions>
			</trkpt>
			<trkpt lat="-28.025755" lon="153.281884">
				<ele>64.777</ele>
				<time>2015-07-04T06:35:39Z</time>
				<extensions>
				</extensions>
			</trkpt>
			<trkpt lat="-28.025468" lon="153.281718">
				<ele>66.880</ele>
				<time>2015-07-04T06:35:41Z</time>
				<extensions>
				</extensions>
			</trkpt>
			<trkpt lat="-28.025189" lon="153.281500">
				<ele>69.999</ele>
				<time>2015-07-04T06:35:43Z</time>
				<extensions>
				</extensions>
			</trkpt>
			<trkpt lat="-28.024931" lon="153.281240">
				<ele>72.461</ele>
				<time>2015-07-04T06:35:45Z</time>
				<extensions>
				</extensions>
			</trkpt>
			<trkpt lat="-28.024677" lon="153.280939">
				<ele>76.347</ele>
				<time>2015-07-04T06:35:47Z</time>
				<extensions>
				</extensions>
			</trkpt>
			<trkpt lat="-28.024458" lon="153.280622">
				<ele>76.278</ele>
				<time>2015-07-04T06:35:49Z</time>
				<extensions>
				</extensions>
			</trkpt>
			<trkpt lat="-28.024256" lon="153.280325">
				<ele>76.126</ele>
				<time>2015-07-04T06:35:51Z</time>
				<extensions>
				</extensions>
			</trkpt>
			<trkpt lat="-28.024031" lon="153.280095">
				<ele>76.042</ele>
				<time>2015-07-04T06:35:53Z</time>
				<extensions>
				</extensions>
			</trkpt>
			<trkpt lat="-28.023776" lon="153.279934">
				<ele>76.735</ele>
				<time>2015-07-04T06:35:55Z</time>
				<extensions>
				</extensions>
			</trkpt>
			<trkpt lat="-28.023447" lon="153.279817">
				<ele>78.422</ele>
				<time>2015-07-04T06:35:57Z</time>
				<extensions>
				</extensions>
			</trkpt>
			<trkpt lat="-28.023103" lon="153.279783">
				<ele>80.936</ele>
				<time>2015-07-04T06:35:59Z</time>
				<extensions>
				</extensions>
			</trkpt>
			<trkpt lat="-28.022923" lon="153.279815">
				<ele>81.994</ele>
				<time>2015-07-04T06:36:00Z</time>
				<extensions>
				</extensions>
			</trkpt>
			<trkpt lat="-28.022745" lon="153.279852">
				<ele>83.434</ele>
				<time>2015-07-04T06:36:01Z</time>
				<extensions>
				</extensions>
			</trkpt>
			<trkpt lat="-28.022566" lon="153.279900">
				<ele>84.838</ele>
				<time>2015-07-04T06:36:02Z</time>
				<extensions>
				</extensions>
			</trkpt>
			<trkpt lat="-28.022389" lon="153.279959">
				<ele>85.782</ele>
				<time>2015-07-04T06:36:03Z</time>
				<extensions>
				</extensions>
			</trkpt>
			<trkpt lat="-28.022040" lon="153.280025">
				<ele>87.752</ele>
				<time>2015-07-04T06:36:05Z</time>
				<extensions>
				</extensions>
			</trkpt>
			<trkpt lat="-28.021710" lon="153.280060">
				<ele>91.032</ele>
				<time>2015-07-04T06:36:07Z</time>
				<extensions>
				</extensions>
			</trkpt>
			<trkpt lat="-28.021338" lon="153.280006">
				<ele>94.795</ele>
				<time>2015-07-04T06:36:09Z</time>
				<extensions>
				</extensions>
			</trkpt>
			<trkpt lat="-28.021156" lon="153.279983">
				<ele>96.547</ele>
				<time>2015-07-04T06:36:10Z</time>
				<extensions>
				</extensions>
			</trkpt>
			<trkpt lat="-28.020821" lon="153.279861">
				<ele>99.014</ele>
				<time>2015-07-04T06:36:12Z</time>
				<extensions>
				</extensions>
			</trkpt>
			<trkpt lat="-28.020484" lon="153.279711">
				<ele>100.420</ele>
				<time>2015-07-04T06:36:14Z</time>
				<extensions>
				</extensions>
			</trkpt>
			<trkpt lat="-28.020326" lon="153.279603">
				<ele>101.381</ele>
				<time>2015-07-04T06:36:15Z</time>
				<extensions>
				</extensions>
			</trkpt>
			<trkpt lat="-28.020165" lon="153.279467">
				<ele>103.295</ele>
				<time>2015-07-04T06:36:16Z</time>
				<extensions>
				</extensions>
			</trkpt>
			<trkpt lat="-28.020026" lon="153.279321">
				<ele>105.566</ele>
				<time>2015-07-04T06:36:17Z</time>
				<extensions>
				</extensions>
			</trkpt>
			<trkpt lat="-28.019868" lon="153.279179">
				<ele>106.615</ele>
				<time>2015-07-04T06:36:18Z</time>
				<extensions>
				</extensions>
			</trkpt>
			<trkpt lat="-28.019716" lon="153.279040">
				<ele>106.872</ele>
				<time>2015-07-04T06:36:19Z</time>
				<extensions>
				</extensions>
			</trkpt>
			<trkpt lat="-28.019575" lon="153.278904">
				<ele>107.304</ele>
				<time>2015-07-04T06:36:20Z</time>
				<extensions>
				</extensions>
			</trkpt>
			<trkpt lat="-28.019435" lon="153.278774">
				<ele>107.132</ele>
				<time>2015-07-04T06:36:21Z</time>
				<extensions>
				</extensions>
			</trkpt>
			<trkpt lat="-28.019284" lon="153.278658">
				<ele>108.687</ele>
				<time>2015-07-04T06:36:22Z</time>
				<extensions>
				</extensions>
			</trkpt>
			<trkpt lat="-28.019126" lon="153.278554">
				<ele>109.635</ele>
				<time>2015-07-04T06:36:23Z</time>
				<extensions>
				</extensions>
			</trkpt>
			<trkpt lat="-28.018770" lon="153.278424">
				<ele>113.237</ele>
				<time>2015-07-04T06:36:25Z</time>
				<extensions>
				</extensions>
			</trkpt>
			<trkpt lat="-28.018577" lon="153.278387">
				<ele>114.141</ele>
				<time>2015-07-04T06:36:26Z</time>
				<extensions>
				</extensions>
			</trkpt>
			<trkpt lat="-28.018381" lon="153.278368">
				<ele>116.426</ele>
				<time>2015-07-04T06:36:27Z</time>
				<extensions>
				</extensions>
			</trkpt>
			<trkpt lat="-28.018192" lon="153.278363">
				<ele>115.586</ele>
				<time>2015-07-04T06:36:28Z</time>
				<extensions>
				</extensions>
			</trkpt>
			<trkpt lat="-28.018007" lon="153.278356">
				<ele>114.328</ele>
				<time>2015-07-04T06:36:29Z</time>
				<extensions>
				</extensions>
			</trkpt>
			<trkpt lat="-28.017693" lon="153.278354">
				<ele>112.951</ele>
				<time>2015-07-04T06:36:31Z</time>
				<extensions>
				</extensions>
			</trkpt>
			<trkpt lat="-28.017413" lon="153.278361">
				<ele>112.967</ele>
				<time>2015-07-04T06:36:33Z</time>
				<extensions>
				</extensions>
			</trkpt>
			<trkpt lat="-28.017121" lon="153.278364">
				<ele>113.339</ele>
				<time>2015-07-04T06:36:35Z</time>
				<extensions>
				</extensions>
			</trkpt>
			<trkpt lat="-28.016878" lon="153.278360">
				<ele>110.974</ele>
				<time>2015-07-04T06:36:37Z</time>
				<extensions>
				</extensions>
			</trkpt>
			<trkpt lat="-28.016666" lon="153.278353">
				<ele>107.261</ele>
				<time>2015-07-04T06:36:41Z</time>
				<extensions>
				</extensions>
			</trkpt>
			<trkpt lat="-28.016433" lon="153.278376">
				<ele>108.218</ele>
				<time>2015-07-04T06:36:48Z</time>
				<extensions>
				</extensions>
			</trkpt>
			<trkpt lat="-28.016233" lon="153.278395">
				<ele>109.289</ele>
				<time>2015-07-04T06:36:51Z</time>
				<extensions>
				</extensions>
			</trkpt>
			<trkpt lat="-28.015968" lon="153.278426">
				<ele>110.255</ele>
				<time>2015-07-04T06:36:54Z</time>
				<extensions>
				</extensions>
			</trkpt>
			<trkpt lat="-28.015771" lon="153.278509">
				<ele>110.742</ele>
				<time>2015-07-04T06:36:56Z</time>
				<extensions>
				</extensions>
			</trkpt>
			<trkpt lat="-28.015586" lon="153.278631">
				<ele>111.022</ele>
				<time>2015-07-04T06:36:58Z</time>
				<extensions>
				</extensions>
			</trkpt>
			<trkpt lat="-28.015430" lon="153.278776">
				<ele>110.220</ele>
				<time>2015-07-04T06:37:00Z</time>
				<extensions>
				</extensions>
			</trkpt>
			<trkpt lat="-28.015278" lon="153.279007">
				<ele>109.778</ele>
				<time>2015-07-04T06:37:02Z</time>
				<extensions>
				</extensions>
			</trkpt>
			<trkpt lat="-28.015148" lon="153.279301">
				<ele>111.378</ele>
				<time>2015-07-04T06:37:04Z</time>
				<extensions>
				</extensions>
			</trkpt>
			<trkpt lat="-28.015059" lon="153.279644">
				<ele>112.337</ele>
				<time>2015-07-04T06:37:06Z</time>
				<extensions>
				</extensions>
			</trkpt>
			<trkpt lat="-28.014966" lon="153.280023">
				<ele>111.866</ele>
				<time>2015-07-04T06:37:08Z</time>
				<extensions>
				</extensions>
			</trkpt>
			<trkpt lat="-28.014883" lon="153.280392">
				<ele>110.638</ele>
				<time>2015-07-04T06:37:10Z</time>
				<extensions>
				</extensions>
			</trkpt>
			<trkpt lat="-28.014789" lon="153.280760">
				<ele>108.953</ele>
				<time>2015-07-04T06:37:12Z</time>
				<extensions>
				</extensions>
			</trkpt>
			<trkpt lat="-28.014653" lon="153.281112">
				<ele>106.864</ele>
				<time>2015-07-04T06:37:14Z</time>
				<extensions>
				</extensions>
			</trkpt>
			<trkpt lat="-28.014475" lon="153.281446">
				<ele>105.617</ele>
				<time>2015-07-04T06:37:16Z</time>
				<extensions>
				</extensions>
			</trkpt>
			<trkpt lat="-28.014251" lon="153.281742">
				<ele>104.278</ele>
				<time>2015-07-04T06:37:18Z</time>
				<extensions>
				</extensions>
			</trkpt>
			<trkpt lat="-28.013977" lon="153.281983">
				<ele>102.724</ele>
				<time>2015-07-04T06:37:20Z</time>
				<extensions>
				</extensions>
			</trkpt>
			<trkpt lat="-28.013713" lon="153.282215">
				<ele>101.279</ele>
				<time>2015-07-04T06:37:22Z</time>
				<extensions>
				</extensions>
			</trkpt>
			<trkpt lat="-28.013558" lon="153.282325">
				<ele>100.804</ele>
				<time>2015-07-04T06:37:23Z</time>
				<extensions>
				</extensions>
			</trkpt>
			<trkpt lat="-28.013398" lon="153.282441">
				<ele>101.304</ele>
				<time>2015-07-04T06:37:24Z</time>
				<extensions>
				</extensions>
			</trkpt>
			<trkpt lat="-28.013232" lon="153.282554">
				<ele>101.234</ele>
				<time>2015-07-04T06:37:25Z</time>
				<extensions>
				</extensions>
			</trkpt>
			<trkpt lat="-28.013074" lon="153.282673">
				<ele>100.348</ele>
				<time>2015-07-04T06:37:26Z</time>
				<extensions>
				</extensions>
			</trkpt>
			<trkpt lat="-28.012910" lon="153.282787">
				<ele>98.878</ele>
				<time>2015-07-04T06:37:27Z</time>
				<extensions>
				</extensions>
			</trkpt>
			<trkpt lat="-28.012751" lon="153.282903">
				<ele>97.723</ele>
				<time>2015-07-04T06:37:28Z</time>
				<extensions>
				</extensions>
			</trkpt>
			<trkpt lat="-28.012591" lon="153.283017">
				<ele>96.528</ele>
				<time>2015-07-04T06:37:29Z</time>
				<extensions>
				</extensions>
			</trkpt>
			<trkpt lat="-28.012437" lon="153.283127">
				<ele>95.438</ele>
				<time>2015-07-04T06:37:30Z</time>
				<extensions>
				</extensions>
			</trkpt>
			<trkpt lat="-28.012278" lon="153.283240">
				<ele>93.613</ele>
				<time>2015-07-04T06:37:31Z</time>
				<extensions>
				</extensions>
			</trkpt>
			<trkpt lat="-28.011979" lon="153.283453">
				<ele>91.467</ele>
				<time>2015-07-04T06:37:33Z</time>
				<extensions>
				</extensions>
			</trkpt>
			<trkpt lat="-28.011667" lon="153.283657">
				<ele>90.000</ele>
				<time>2015-07-04T06:37:35Z</time>
				<extensions>
				</extensions>
			</trkpt>
			<trkpt lat="-28.011505" lon="153.283768">
				<ele>90.500</ele>
				<time>2015-07-04T06:37:36Z</time>
				<extensions>
				</extensions>
			</trkpt>
			<trkpt lat="-28.011209" lon="153.283993">
				<ele>88.488</ele>
				<time>2015-07-04T06:37:38Z</time>
				<extensions>
				</extensions>
			</trkpt>
			<trkpt lat="-28.011054" lon="153.284110">
				<ele>87.375</ele>
				<time>2015-07-04T06:37:39Z</time>
				<extensions>
				</extensions>
			</trkpt>
			<trkpt lat="-28.010901" lon="153.284233">
				<ele>85.958</ele>
				<time>2015-07-04T06:37:40Z</time>
				<extensions>
				</extensions>
			</trkpt>
			<trkpt lat="-28.010757" lon="153.284368">
				<ele>84.754</ele>
				<time>2015-07-04T06:37:41Z</time>
				<extensions>
				</extensions>
			</trkpt>
			<trkpt lat="-28.010630" lon="153.284513">
				<ele>83.419</ele>
				<time>2015-07-04T06:37:42Z</time>
				<extensions>
				</extensions>
			</trkpt>
			<trkpt lat="-28.010415" lon="153.284820">
				<ele>81.471</ele>
				<time>2015-07-04T06:37:44Z</time>
				<extensions>
				</extensions>
			</trkpt>
			<trkpt lat="-28.010236" lon="153.285167">
				<ele>78.368</ele>
				<time>2015-07-04T06:37:46Z</time>
				<extensions>
				</extensions>
			</trkpt>
			<trkpt lat="-28.010079" lon="153.285530">
				<ele>77.288</ele>
				<time>2015-07-04T06:37:48Z</time>
				<extensions>
				</extensions>
			</trkpt>
			<trkpt lat="-28.009993" lon="153.285717">
				<ele>75.862</ele>
				<time>2015-07-04T06:37:49Z</time>
				<extensions>
				</extensions>
			</trkpt>
			<trkpt lat="-28.009805" lon="153.286043">
				<ele>75.202</ele>
				<time>2015-07-04T06:37:51Z</time>
				<extensions>
				</extensions>
			</trkpt>
			<trkpt lat="-28.009688" lon="153.286216">
				<ele>75.512</ele>
				<time>2015-07-04T06:37:52Z</time>
				<extensions>
				</extensions>
			</trkpt>
			<trkpt lat="-28.009554" lon="153.286367">
				<ele>75.346</ele>
				<time>2015-07-04T06:37:53Z</time>
				<extensions>
				</extensions>
			</trkpt>
			<trkpt lat="-28.009275" lon="153.286629">
				<ele>74.567</ele>
				<time>2015-07-04T06:37:55Z</time>
				<extensions>
				</extensions>
			</trkpt>
			<trkpt lat="-28.009133" lon="153.286759">
				<ele>73.996</ele>
				<time>2015-07-04T06:37:56Z</time>
				<extensions>
				</extensions>
			</trkpt>
			<trkpt lat="-28.008984" lon="153.286889">
				<ele>72.466</ele>
				<time>2015-07-04T06:37:57Z</time>
				<extensions>
				</extensions>
			</trkpt>
			<trkpt lat="-28.008842" lon="153.287015">
				<ele>71.064</ele>
				<time>2015-07-04T06:37:58Z</time>
				<extensions>
				</extensions>
			</trkpt>
			<trkpt lat="-28.008698" lon="153.287145">
				<ele>70.118</ele>
				<time>2015-07-04T06:37:59Z</time>
				<extensions>
				</extensions>
			</trkpt>
			<trkpt lat="-28.008567" lon="153.287308">
				<ele>69.235</ele>
				<time>2015-07-04T06:38:00Z</time>
				<extensions>
				</extensions>
			</trkpt>
			<trkpt lat="-28.008447" lon="153.287466">
				<ele>68.028</ele>
				<time>2015-07-04T06:38:01Z</time>
				<extensions>
				</extensions>
			</trkpt>
			<trkpt lat="-28.008333" lon="153.287665">
				<ele>67.735</ele>
				<time>2015-07-04T06:38:02Z</time>
				<extensions>
				</extensions>
			</trkpt>
			<trkpt lat="-28.008239" lon="153.287851">
				<ele>66.328</ele>
				<time>2015-07-04T06:38:03Z</time>
				<extensions>
				</extensions>
			</trkpt>
			<trkpt lat="-28.008146" lon="153.288041">
				<ele>65.842</ele>
				<time>2015-07-04T06:38:04Z</time>
				<extensions>
				</extensions>
			</trkpt>
			<trkpt lat="-28.007963" lon="153.288401">
				<ele>62.361</ele>
				<time>2015-07-04T06:38:06Z</time>
				<extensions>
				</extensions>
			</trkpt>
			<trkpt lat="-28.007866" lon="153.288608">
				<ele>61.169</ele>
				<time>2015-07-04T06:38:07Z</time>
				<extensions>
				</extensions>
			</trkpt>
			<trkpt lat="-28.007789" lon="153.288796">
				<ele>61.169</ele>
				<time>2015-07-04T06:38:08Z</time>
				<extensions>
				</extensions>
			</trkpt>
			<trkpt lat="-28.007691" lon="153.288991">
				<ele>59.047</ele>
				<time>2015-07-04T06:38:09Z</time>
				<extensions>
				</extensions>
			</trkpt>
			<trkpt lat="-28.007587" lon="153.289194">
				<ele>59.047</ele>
				<time>2015-07-04T06:38:10Z</time>
				<extensions>
				</extensions>
			</trkpt>
			<trkpt lat="-28.007482" lon="153.289388">
				<ele>59.643</ele>
				<time>2015-07-04T06:38:11Z</time>
				<extensions>
				</extensions>
			</trkpt>
			<trkpt lat="-28.007371" lon="153.289574">
				<ele>58.842</ele>
				<time>2015-07-04T06:38:12Z</time>
				<extensions>
				</extensions>
			</trkpt>
			<trkpt lat="-28.007246" lon="153.289758">
				<ele>57.805</ele>
				<time>2015-07-04T06:38:13Z</time>
				<extensions>
				</extensions>
			</trkpt>
			<trkpt lat="-28.007121" lon="153.289927">
				<ele>57.840</ele>
				<time>2015-07-04T06:38:14Z</time>
				<extensions>
				</extensions>
			</trkpt>
			<trkpt lat="-28.006980" lon="153.290095">
				<ele>58.061</ele>
				<time>2015-07-04T06:38:15Z</time>
				<extensions>
				</extensions>
			</trkpt>
			<trkpt lat="-28.006838" lon="153.290261">
				<ele>58.193</ele>
				<time>2015-07-04T06:38:16Z</time>
				<extensions>
				</extensions>
			</trkpt>
			<trkpt lat="-28.006682" lon="153.290419">
				<ele>59.227</ele>
				<time>2015-07-04T06:38:17Z</time>
				<extensions>
				</extensions>
			</trkpt>
			<trkpt lat="-28.006524" lon="153.290561">
				<ele>59.349</ele>
				<time>2015-07-04T06:38:18Z</time>
				<extensions>
				</extensions>
			</trkpt>
			<trkpt lat="-28.006351" lon="153.290705">
				<ele>59.339</ele>
				<time>2015-07-04T06:38:19Z</time>
				<extensions>
				</extensions>
			</trkpt>
			<trkpt lat="-28.006182" lon="153.290844">
				<ele>59.054</ele>
				<time>2015-07-04T06:38:20Z</time>
				<extensions>
				</extensions>
			</trkpt>
			<trkpt lat="-28.006016" lon="153.290981">
				<ele>59.332</ele>
				<time>2015-07-04T06:38:21Z</time>
				<extensions>
				</extensions>
			</trkpt>
			<trkpt lat="-28.005850" lon="153.291114">
				<ele>58.290</ele>
				<time>2015-07-04T06:38:22Z</time>
				<extensions>
				</extensions>
			</trkpt>
			<trkpt lat="-28.005679" lon="153.291250">
				<ele>57.990</ele>
				<time>2015-07-04T06:38:23Z</time>
				<extensions>
				</extensions>
			</trkpt>
			<trkpt lat="-28.005505" lon="153.291388">
				<ele>57.748</ele>
				<time>2015-07-04T06:38:24Z</time>
				<extensions>
				</extensions>
			</trkpt>
			<trkpt lat="-28.005350" lon="153.291511">
				<ele>57.713</ele>
				<time>2015-07-04T06:38:25Z</time>
				<extensions>
				</extensions>
			</trkpt>
			<trkpt lat="-28.005182" lon="153.291646">
				<ele>56.840</ele>
				<time>2015-07-04T06:38:26Z</time>
				<extensions>
				</extensions>
			</trkpt>
			<trkpt lat="-28.005022" lon="153.291776">
				<ele>56.655</ele>
				<time>2015-07-04T06:38:27Z</time>
				<extensions>
				</extensions>
			</trkpt>
			<trkpt lat="-28.004866" lon="153.291890">
				<ele>56.125</ele>
				<time>2015-07-04T06:38:28Z</time>
				<extensions>
				</extensions>
			</trkpt>
			<trkpt lat="-28.004712" lon="153.292021">
				<ele>55.486</ele>
				<time>2015-07-04T06:38:29Z</time>
				<extensions>
				</extensions>
			</trkpt>
			<trkpt lat="-28.004557" lon="153.292168">
				<ele>55.486</ele>
				<time>2015-07-04T06:38:30Z</time>
				<extensions>
				</extensions>
			</trkpt>
			<trkpt lat="-28.004409" lon="153.292320">
				<ele>55.363</ele>
				<time>2015-07-04T06:38:31Z</time>
				<extensions>
				</extensions>
			</trkpt>
			<trkpt lat="-28.004261" lon="153.292481">
				<ele>55.351</ele>
				<time>2015-07-04T06:38:32Z</time>
				<extensions>
				</extensions>
			</trkpt>
			<trkpt lat="-28.004132" lon="153.292648">
				<ele>55.572</ele>
				<time>2015-07-04T06:38:33Z</time>
				<extensions>
				</extensions>
			</trkpt>
			<trkpt lat="-28.004001" lon="153.292822">
				<ele>55.363</ele>
				<time>2015-07-04T06:38:34Z</time>
				<extensions>
				</extensions>
			</trkpt>
			<trkpt lat="-28.003866" lon="153.293027">
				<ele>55.833</ele>
				<time>2015-07-04T06:38:35Z</time>
				<extensions>
				</extensions>
			</trkpt>
			<trkpt lat="-28.003747" lon="153.293221">
				<ele>55.099</ele>
				<time>2015-07-04T06:38:36Z</time>
				<extensions>
				</extensions>
			</trkpt>
			<trkpt lat="-28.003642" lon="153.293418">
				<ele>54.080</ele>
				<time>2015-07-04T06:38:37Z</time>
				<extensions>
				</extensions>
			</trkpt>
			<trkpt lat="-28.003552" lon="153.293629">
				<ele>53.934</ele>
				<time>2015-07-04T06:38:38Z</time>
				<extensions>
				</extensions>
			</trkpt>
			<trkpt lat="-28.003464" lon="153.293838">
				<ele>53.459</ele>
				<time>2015-07-04T06:38:39Z</time>
				<extensions>
				</extensions>
			</trkpt>
			<trkpt lat="-28.003367" lon="153.294021">
				<ele>52.482</ele>
				<time>2015-07-04T06:38:40Z</time>
				<extensions>
				</extensions>
			</trkpt>
			<trkpt lat="-28.003303" lon="153.294239">
				<ele>51.238</ele>
				<time>2015-07-04T06:38:41Z</time>
				<extensions>
				</extensions>
			</trkpt>
			<trkpt lat="-28.003251" lon="153.294452">
				<ele>50.295</ele>
				<time>2015-07-04T06:38:42Z</time>
				<extensions>
				</extensions>
			</trkpt>
			<trkpt lat="-28.003199" lon="153.294670">
				<ele>48.400</ele>
				<time>2015-07-04T06:38:43Z</time>
				<extensions>
				</extensions>
			</trkpt>
			<trkpt lat="-28.003152" lon="153.294884">
				<ele>47.128</ele>
				<time>2015-07-04T06:38:44Z</time>
				<extensions>
				</extensions>
			</trkpt>
			<trkpt lat="-28.003105" lon="153.295103">
				<ele>47.148</ele>
				<time>2015-07-04T06:38:45Z</time>
				<extensions>
				</extensions>
			</trkpt>
			<trkpt lat="-28.003061" lon="153.295327">
				<ele>46.675</ele>
				<time>2015-07-04T06:38:46Z</time>
				<extensions>
				</extensions>
			</trkpt>
			<trkpt lat="-28.003019" lon="153.295548">
				<ele>46.664</ele>
				<time>2015-07-04T06:38:47Z</time>
				<extensions>
				</extensions>
			</trkpt>
			<trkpt lat="-28.002974" lon="153.295768">
				<ele>45.345</ele>
				<time>2015-07-04T06:38:48Z</time>
				<extensions>
				</extensions>
			</trkpt>
			<trkpt lat="-28.002916" lon="153.295996">
				<ele>45.360</ele>
				<time>2015-07-04T06:38:49Z</time>
				<extensions>
				</extensions>
			</trkpt>
			<trkpt lat="-28.002869" lon="153.296225">
				<ele>44.835</ele>
				<time>2015-07-04T06:38:50Z</time>
				<extensions>
				</extensions>
			</trkpt>
			<trkpt lat="-28.002814" lon="153.296448">
				<ele>44.495</ele>
				<time>2015-07-04T06:38:51Z</time>
				<extensions>
				</extensions>
			</trkpt>
			<trkpt lat="-28.002745" lon="153.296652">
				<ele>43.777</ele>
				<time>2015-07-04T06:38:52Z</time>
				<extensions>
				</extensions>
			</trkpt>
			<trkpt lat="-28.002698" lon="153.296879">
				<ele>43.160</ele>
				<time>2015-07-04T06:38:53Z</time>
				<extensions>
				</extensions>
			</trkpt>
			<trkpt lat="-28.002652" lon="153.297093">
				<ele>42.688</ele>
				<time>2015-07-04T06:38:54Z</time>
				<extensions>
				</extensions>
			</trkpt>
			<trkpt lat="-28.002602" lon="153.297304">
				<ele>42.629</ele>
				<time>2015-07-04T06:38:55Z</time>
				<extensions>
				</extensions>
			</trkpt>
			<trkpt lat="-28.002543" lon="153.297518">
				<ele>43.198</ele>
				<time>2015-07-04T06:38:56Z</time>
				<extensions>
				</extensions>
			</trkpt>
			<trkpt lat="-28.002459" lon="153.297727">
				<ele>42.609</ele>
				<time>2015-07-04T06:38:57Z</time>
				<extensions>
				</extensions>
			</trkpt>
			<trkpt lat="-28.002388" lon="153.297941">
				<ele>43.223</ele>
				<time>2015-07-04T06:38:58Z</time>
				<extensions>
				</extensions>
			</trkpt>
			<trkpt lat="-28.002317" lon="153.298144">
				<ele>43.221</ele>
				<time>2015-07-04T06:38:59Z</time>
				<extensions>
				</extensions>
			</trkpt>
			<trkpt lat="-28.002230" lon="153.298352">
				<ele>42.499</ele>
				<time>2015-07-04T06:39:00Z</time>
				<extensions>
				</extensions>
			</trkpt>
			<trkpt lat="-28.002122" lon="153.298552">
				<ele>42.351</ele>
				<time>2015-07-04T06:39:01Z</time>
				<extensions>
				</extensions>
			</trkpt>
			<trkpt lat="-28.002033" lon="153.298737">
				<ele>42.258</ele>
				<time>2015-07-04T06:39:02Z</time>
				<extensions>
				</extensions>
			</trkpt>
			<trkpt lat="-28.001944" lon="153.298933">
				<ele>41.743</ele>
				<time>2015-07-04T06:39:03Z</time>
				<extensions>
				</extensions>
			</trkpt>
			<trkpt lat="-28.001836" lon="153.299106">
				<ele>41.440</ele>
				<time>2015-07-04T06:39:04Z</time>
				<extensions>
				</extensions>
			</trkpt>
			<trkpt lat="-28.001721" lon="153.299281">
				<ele>40.636</ele>
				<time>2015-07-04T06:39:05Z</time>
				<extensions>
				</extensions>
			</trkpt>
			<trkpt lat="-28.001481" lon="153.299580">
				<ele>40.291</ele>
				<time>2015-07-04T06:39:07Z</time>
				<extensions>
				</extensions>
			</trkpt>
			<trkpt lat="-28.001346" lon="153.299727">
				<ele>39.561</ele>
				<time>2015-07-04T06:39:08Z</time>
				<extensions>
				</extensions>
			</trkpt>
			<trkpt lat="-28.001218" lon="153.299875">
				<ele>38.573</ele>
				<time>2015-07-04T06:39:09Z</time>
				<extensions>
				</extensions>
			</trkpt>
			<trkpt lat="-28.001060" lon="153.300074">
				<ele>33.635</ele>
				<time>2015-07-04T06:39:11Z</time>
				<extensions>
				</extensions>
			</trkpt>
			<trkpt lat="-28.000922" lon="153.300232">
				<ele>31.076</ele>
				<time>2015-07-04T06:39:13Z</time>
				<extensions>
				</extensions>
			</trkpt>
			<trkpt lat="-28.000768" lon="153.300419">
				<ele>29.486</ele>
				<time>2015-07-04T06:39:17Z</time>
				<extensions>
				</extensions>
			</trkpt>
			<trkpt lat="-28.000623" lon="153.300613">
				<ele>29.671</ele>
				<time>2015-07-04T06:39:38Z</time>
				<extensions>
				</extensions>
			</trkpt>
			<trkpt lat="-28.000484" lon="153.300773">
				<ele>31.034</ele>
				<time>2015-07-04T06:39:40Z</time>
				<extensions>
				</extensions>
			</trkpt>
			<trkpt lat="-28.000339" lon="153.300943">
				<ele>31.887</ele>
				<time>2015-07-04T06:39:42Z</time>
				<extensions>
				</extensions>
			</trkpt>
			<trkpt lat="-28.000133" lon="153.301143">
				<ele>34.386</ele>
				<time>2015-07-04T06:39:44Z</time>
				<extensions>
				</extensions>
			</trkpt>
			<trkpt lat="-27.999922" lon="153.301352">
				<ele>35.484</ele>
				<time>2015-07-04T06:39:46Z</time>
				<extensions>
				</extensions>
			</trkpt>
			<trkpt lat="-27.999676" lon="153.301565">
				<ele>35.236</ele>
				<time>2015-07-04T06:39:48Z</time>
				<extensions>
				</extensions>
			</trkpt>
			<trkpt lat="-27.999407" lon="153.301803">
				<ele>34.341</ele>
				<time>2015-07-04T06:39:50Z</time>
				<extensions>
				</extensions>
			</trkpt>
			<trkpt lat="-27.999198" lon="153.301985">
				<ele>34.918</ele>
				<time>2015-07-04T06:39:52Z</time>
				<extensions>
				</extensions>
			</trkpt>
			<trkpt lat="-27.998952" lon="153.302176">
				<ele>33.935</ele>
				<time>2015-07-04T06:39:54Z</time>
				<extensions>
				</extensions>
			</trkpt>
			<trkpt lat="-27.998690" lon="153.302371">
				<ele>33.237</ele>
				<time>2015-07-04T06:39:56Z</time>
				<extensions>
				</extensions>
			</trkpt>
			<trkpt lat="-27.998425" lon="153.302488">
				<ele>32.528</ele>
				<time>2015-07-04T06:39:58Z</time>
				<extensions>
				</extensions>
			</trkpt>
			<trkpt lat="-27.998151" lon="153.302638">
				<ele>30.951</ele>
				<time>2015-07-04T06:40:00Z</time>
				<extensions>
				</extensions>
			</trkpt>
			<trkpt lat="-27.997911" lon="153.302829">
				<ele>29.919</ele>
				<time>2015-07-04T06:40:02Z</time>
				<extensions>
				</extensions>
			</trkpt>
			<trkpt lat="-27.997705" lon="153.303062">
				<ele>28.918</ele>
				<time>2015-07-04T06:40:04Z</time>
				<extensions>
				</extensions>
			</trkpt>
			<trkpt lat="-27.997515" lon="153.303289">
				<ele>27.470</ele>
				<time>2015-07-04T06:40:06Z</time>
				<extensions>
				</extensions>
			</trkpt>
			<trkpt lat="-27.997392" lon="153.303490">
				<ele>23.804</ele>
				<time>2015-07-04T06:40:08Z</time>
				<extensions>
				</extensions>
			</trkpt>
			<trkpt lat="-27.997298" lon="153.303672">
				<ele>21.729</ele>
				<time>2015-07-04T06:40:10Z</time>
				<extensions>
				</extensions>
			</trkpt>
			<trkpt lat="-27.997185" lon="153.303856">
				<ele>18.222</ele>
				<time>2015-07-04T06:40:14Z</time>
				<extensions>
				</extensions>
			</trkpt>
			<trkpt lat="-27.997168" lon="153.304079">
				<ele>21.554</ele>
				<time>2015-07-04T06:40:38Z</time>
				<extensions>
				</extensions>
			</trkpt>
			<trkpt lat="-27.997280" lon="153.304244">
				<ele>22.475</ele>
				<time>2015-07-04T06:40:40Z</time>
				<extensions>
				</extensions>
			</trkpt>
			<trkpt lat="-27.997399" lon="153.304411">
				<ele>22.042</ele>
				<time>2015-07-04T06:40:42Z</time>
				<extensions>
				</extensions>
			</trkpt>
			<trkpt lat="-27.997518" lon="153.304679">
				<ele>20.600</ele>
				<time>2015-07-04T06:40:44Z</time>
				<extensions>
				</extensions>
			</trkpt>
			<trkpt lat="-27.997577" lon="153.304980">
				<ele>18.389</ele>
				<time>2015-07-04T06:40:46Z</time>
				<extensions>
				</extensions>
			</trkpt>
			<trkpt lat="-27.997577" lon="153.305281">
				<ele>15.930</ele>
				<time>2015-07-04T06:40:48Z</time>
				<extensions>
				</extensions>
			</trkpt>
			<trkpt lat="-27.997525" lon="153.305571">
				<ele>11.865</ele>
				<time>2015-07-04T06:40:50Z</time>
				<extensions>
				</extensions>
			</trkpt>
			<trkpt lat="-27.997452" lon="153.305796">
				<ele>9.773</ele>
				<time>2015-07-04T06:40:52Z</time>
				<extensions>
				</extensions>
			</trkpt>
			<trkpt lat="-27.997318" lon="153.306013">
				<ele>8.055</ele>
				<time>2015-07-04T06:40:54Z</time>
				<extensions>
				</extensions>
			</trkpt>
			<trkpt lat="-27.997263" lon="153.306216">
				<ele>6.540</ele>
				<time>2015-07-04T06:40:56Z</time>
				<extensions>
				</extensions>
			</trkpt>
			<trkpt lat="-27.997303" lon="153.306450">
				<ele>5.984</ele>
				<time>2015-07-04T06:40:58Z</time>
				<extensions>
				</extensions>
			</trkpt>
			<trkpt lat="-27.997265" lon="153.306740">
				<ele>7.900</ele>
				<time>2015-07-04T06:41:00Z</time>
				<extensions>
				</extensions>
			</trkpt>
			<trkpt lat="-27.997175" lon="153.307050">
				<ele>9.498</ele>
				<time>2015-07-04T06:41:02Z</time>
				<extensions>
				</extensions>
			</trkpt>
			<trkpt lat="-27.997072" lon="153.307397">
				<ele>9.942</ele>
				<time>2015-07-04T06:41:04Z</time>
				<extensions>
				</extensions>
			</trkpt>
			<trkpt lat="-27.996998" lon="153.307702">
				<ele>8.669</ele>
				<time>2015-07-04T06:41:06Z</time>
				<extensions>
				</extensions>
			</trkpt>
			<trkpt lat="-27.996933" lon="153.307965">
				<ele>8.357</ele>
				<time>2015-07-04T06:41:08Z</time>
				<extensions>
				</extensions>
			</trkpt>
			<trkpt lat="-27.996907" lon="153.308291">
				<ele>7.007</ele>
				<time>2015-07-04T06:41:10Z</time>
				<extensions>
				</extensions>
			</trkpt>
			<trkpt lat="-27.996902" lon="153.308592">
				<ele>7.191</ele>
				<time>2015-07-04T06:41:12Z</time>
				<extensions>
				</extensions>
			</trkpt>
			<trkpt lat="-27.996959" lon="153.308908">
				<ele>7.345</ele>
				<time>2015-07-04T06:41:14Z</time>
				<extensions>
				</extensions>
			</trkpt>
			<trkpt lat="-27.996996" lon="153.309195">
				<ele>8.216</ele>
				<time>2015-07-04T06:41:16Z</time>
				<extensions>
				</extensions>
			</trkpt>
			<trkpt lat="-27.997061" lon="153.309469">
				<ele>9.436</ele>
				<time>2015-07-04T06:41:18Z</time>
				<extensions>
				</extensions>
			</trkpt>
			<trkpt lat="-27.997149" lon="153.309739">
				<ele>8.782</ele>
				<time>2015-07-04T06:41:20Z</time>
				<extensions>
				</extensions>
			</trkpt>
			<trkpt lat="-27.997264" lon="153.310001">
				<ele>8.495</ele>
				<time>2015-07-04T06:41:22Z</time>
				<extensions>
				</extensions>
			</trkpt>
			<trkpt lat="-27.997389" lon="153.310258">
				<ele>8.592</ele>
				<time>2015-07-04T06:41:24Z</time>
				<extensions>
				</extensions>
			</trkpt>
			<trkpt lat="-27.997543" lon="153.310500">
				<ele>8.334</ele>
				<time>2015-07-04T06:41:26Z</time>
				<extensions>
				</extensions>
			</trkpt>
			<trkpt lat="-27.997713" lon="153.310726">
				<ele>9.025</ele>
				<time>2015-07-04T06:41:28Z</time>
				<extensions>
				</extensions>
			</trkpt>
			<trkpt lat="-27.997890" lon="153.310928">
				<ele>8.773</ele>
				<time>2015-07-04T06:41:30Z</time>
				<extensions>
				</extensions>
			</trkpt>
			<trkpt lat="-27.998064" lon="153.311126">
				<ele>9.191</ele>
				<time>2015-07-04T06:41:32Z</time>
				<extensions>
				</extensions>
			</trkpt>
			<trkpt lat="-27.998231" lon="153.311317">
				<ele>9.201</ele>
				<time>2015-07-04T06:41:34Z</time>
				<extensions>
				</extensions>
			</trkpt>
			<trkpt lat="-27.998423" lon="153.311498">
				<ele>9.219</ele>
				<time>2015-07-04T06:41:36Z</time>
				<extensions>
				</extensions>
			</trkpt>
			<trkpt lat="-27.998573" lon="153.311642">
				<ele>8.560</ele>
				<time>2015-07-04T06:41:38Z</time>
				<extensions>
				</extensions>
			</trkpt>
			<trkpt lat="-27.998752" lon="153.311812">
				<ele>5.872</ele>
				<time>2015-07-04T06:41:41Z</time>
				<extensions>
				</extensions>
			</trkpt>
			<trkpt lat="-27.998911" lon="153.311965">
				<ele>4.417</ele>
				<time>2015-07-04T06:41:44Z</time>
				<extensions>
				</extensions>
			</trkpt>
			<trkpt lat="-27.999076" lon="153.312055">
				<ele>6.552</ele>
				<time>2015-07-04T06:43:58Z</time>
				<extensions>
				</extensions>
			</trkpt>
			<trkpt lat="-27.999316" lon="153.312213">
				<ele>9.422</ele>
				<time>2015-07-04T06:44:01Z</time>
				<extensions>
				</extensions>
			</trkpt>
			<trkpt lat="-27.999486" lon="153.312317">
				<ele>10.350</ele>
				<time>2015-07-04T06:44:03Z</time>
				<extensions>
				</extensions>
			</trkpt>
			<trkpt lat="-27.999711" lon="153.312407">
				<ele>10.833</ele>
				<time>2015-07-04T06:44:06Z</time>
				<extensions>
				</extensions>
			</trkpt>
			<trkpt lat="-27.999967" lon="153.312511">
				<ele>9.726</ele>
				<time>2015-07-04T06:44:10Z</time>
				<extensions>
				</extensions>
			</trkpt>
			<trkpt lat="-28.000090" lon="153.312683">
				<ele>9.889</ele>
				<time>2015-07-04T06:44:13Z</time>
				<extensions>
				</extensions>
			</trkpt>
			<trkpt lat="-28.000311" lon="153.312738">
				<ele>9.018</ele>
				<time>2015-07-04T06:44:17Z</time>
				<extensions>
				</extensions>
			</trkpt>
			<trkpt lat="-28.000359" lon="153.312511">
				<ele>10.957</ele>
				<time>2015-07-04T06:44:21Z</time>
				<extensions>
				</extensions>
			</trkpt>
			<trkpt lat="-28.000122" lon="153.312434">
				<ele>12.913</ele>
				<time>2015-07-04T06:44:24Z</time>
				<extensions>
				</extensions>
			</trkpt>
			<trkpt lat="-27.999914" lon="153.312390">
				<ele>14.034</ele>
				<time>2015-07-04T06:44:26Z</time>
				<extensions>
				</extensions>
			</trkpt>
			<trkpt lat="-27.999660" lon="153.312308">
				<ele>15.039</ele>
				<time>2015-07-04T06:44:28Z</time>
				<extensions>
				</extensions>
			</trkpt>
			<trkpt lat="-27.999394" lon="153.312200">
				<ele>14.788</ele>
				<time>2015-07-04T06:44:30Z</time>
				<extensions>
				</extensions>
			</trkpt>
			<trkpt lat="-27.999122" lon="153.312044">
				<ele>14.415</ele>
				<time>2015-07-04T06:44:32Z</time>
				<extensions>
				</extensions>
			</trkpt>
			<trkpt lat="-27.998875" lon="153.311870">
				<ele>13.130</ele>
				<time>2015-07-04T06:44:34Z</time>
				<extensions>
				</extensions>
			</trkpt>
			<trkpt lat="-27.998642" lon="153.311661">
				<ele>13.179</ele>
				<time>2015-07-04T06:44:36Z</time>
				<extensions>
				</extensions>
			</trkpt>
			<trkpt lat="-27.998395" lon="153.311420">
				<ele>13.318</ele>
				<time>2015-07-04T06:44:38Z</time>
				<extensions>
				</extensions>
			</trkpt>
			<trkpt lat="-27.998180" lon="153.311192">
				<ele>12.847</ele>
				<time>2015-07-04T06:44:40Z</time>
				<extensions>
				</extensions>
			</trkpt>
			<trkpt lat="-27.997964" lon="153.310948">
				<ele>12.591</ele>
				<time>2015-07-04T06:44:42Z</time>
				<extensions>
				</extensions>
			</trkpt>
			<trkpt lat="-27.997758" lon="153.310690">
				<ele>11.641</ele>
				<time>2015-07-04T06:44:44Z</time>
				<extensions>
				</extensions>
			</trkpt>
			<trkpt lat="-27.997572" lon="153.310432">
				<ele>11.433</ele>
				<time>2015-07-04T06:44:46Z</time>
				<extensions>
				</extensions>
			</trkpt>
			<trkpt lat="-27.997390" lon="153.310135">
				<ele>11.880</ele>
				<time>2015-07-04T06:44:48Z</time>
				<extensions>
				</extensions>
			</trkpt>
			<trkpt lat="-27.997222" lon="153.309791">
				<ele>12.109</ele>
				<time>2015-07-04T06:44:50Z</time>
				<extensions>
				</extensions>
			</trkpt>
			<trkpt lat="-27.997096" lon="153.309480">
				<ele>11.610</ele>
				<time>2015-07-04T06:44:52Z</time>
				<extensions>
				</extensions>
			</trkpt>
			<trkpt lat="-27.997021" lon="153.309158">
				<ele>10.989</ele>
				<time>2015-07-04T06:44:54Z</time>
				<extensions>
				</extensions>
			</trkpt>
			<trkpt lat="-27.996969" lon="153.308805">
				<ele>10.725</ele>
				<time>2015-07-04T06:44:56Z</time>
				<extensions>
				</extensions>
			</trkpt>
			<trkpt lat="-27.996944" lon="153.308470">
				<ele>9.811</ele>
				<time>2015-07-04T06:44:58Z</time>
				<extensions>
				</extensions>
			</trkpt>
			<trkpt lat="-27.996957" lon="153.308153">
				<ele>10.022</ele>
				<time>2015-07-04T06:45:00Z</time>
				<extensions>
				</extensions>
			</trkpt>
			<trkpt lat="-27.997006" lon="153.307822">
				<ele>9.955</ele>
				<time>2015-07-04T06:45:02Z</time>
				<extensions>
				</extensions>
			</trkpt>
			<trkpt lat="-27.997074" lon="153.307546">
				<ele>9.928</ele>
				<time>2015-07-04T06:45:04Z</time>
				<extensions>
				</extensions>
			</trkpt>
			<trkpt lat="-27.997181" lon="153.307227">
				<ele>9.139</ele>
				<time>2015-07-04T06:45:06Z</time>
				<extensions>
				</extensions>
			</trkpt>
			<trkpt lat="-27.997278" lon="153.306957">
				<ele>8.790</ele>
				<time>2015-07-04T06:45:08Z</time>
				<extensions>
				</extensions>
			</trkpt>
			<trkpt lat="-27.997344" lon="153.306692">
				<ele>8.818</ele>
				<time>2015-07-04T06:45:10Z</time>
				<extensions>
				</extensions>
			</trkpt>
			<trkpt lat="-27.997423" lon="153.306452">
				<ele>8.076</ele>
				<time>2015-07-04T06:45:12Z</time>
				<extensions>
				</extensions>
			</trkpt>
			<trkpt lat="-27.997576" lon="153.306293">
				<ele>6.215</ele>
				<time>2015-07-04T06:45:15Z</time>
				<extensions>
				</extensions>
			</trkpt>
			<trkpt lat="-27.997590" lon="153.306066">
				<ele>6.242</ele>
				<time>2015-07-04T06:45:18Z</time>
				<extensions>
				</extensions>
			</trkpt>
			<trkpt lat="-27.997404" lon="153.305949">
				<ele>6.998</ele>
				<time>2015-07-04T06:45:21Z</time>
				<extensions>
				</extensions>
			</trkpt>
			<trkpt lat="-27.997244" lon="153.306168">
				<ele>6.681</ele>
				<time>2015-07-04T06:45:25Z</time>
				<extensions>
				</extensions>
			</trkpt>
			<trkpt lat="-27.997274" lon="153.306369">
				<ele>6.546</ele>
				<time>2015-07-04T06:45:27Z</time>
				<extensions>
				</extensions>
			</trkpt>
			<trkpt lat="-27.997239" lon="153.306585">
				<ele>4.289</ele>
				<time>2015-07-04T06:45:30Z</time>
				<extensions>
				</extensions>
			</trkpt>
			<trkpt lat="-27.997208" lon="153.306801">
				<ele>3.499</ele>
				<time>2015-07-04T06:45:35Z</time>
				<extensions>
				</extensions>
			</trkpt>
			<trkpt lat="-27.997139" lon="153.307015">
				<ele>12.297</ele>
				<time>2015-07-04T06:55:34Z</time>
				<extensions>
				</extensions>
			</trkpt>
			<trkpt lat="-27.997089" lon="153.307245">
				<ele>12.307</ele>
				<time>2015-07-04T06:55:38Z</time>
				<extensions>
				</extensions>
			</trkpt>
			<trkpt lat="-27.997046" lon="153.307473">
				<ele>14.183</ele>
				<time>2015-07-04T06:55:40Z</time>
				<extensions>
				</extensions>
			</trkpt>
			<trkpt lat="-27.996976" lon="153.307789">
				<ele>17.088</ele>
				<time>2015-07-04T06:55:42Z</time>
				<extensions>
				</extensions>
			</trkpt>
			<trkpt lat="-27.996905" lon="153.308136">
				<ele>18.758</ele>
				<time>2015-07-04T06:55:44Z</time>
				<extensions>
				</extensions>
			</trkpt>
			<trkpt lat="-27.996868" lon="153.308493">
				<ele>18.789</ele>
				<time>2015-07-04T06:55:46Z</time>
				<extensions>
				</extensions>
			</trkpt>
			<trkpt lat="-27.996912" lon="153.308833">
				<ele>18.123</ele>
				<time>2015-07-04T06:55:48Z</time>
				<extensions>
				</extensions>
			</trkpt>
			<trkpt lat="-27.996970" lon="153.309174">
				<ele>18.402</ele>
				<time>2015-07-04T06:55:50Z</time>
				<extensions>
				</extensions>
			</trkpt>
			<trkpt lat="-27.997049" lon="153.309493">
				<ele>19.015</ele>
				<time>2015-07-04T06:55:52Z</time>
				<extensions>
				</extensions>
			</trkpt>
			<trkpt lat="-27.997152" lon="153.309793">
				<ele>18.737</ele>
				<time>2015-07-04T06:55:54Z</time>
				<extensions>
				</extensions>
			</trkpt>
			<trkpt lat="-27.997286" lon="153.310079">
				<ele>19.538</ele>
				<time>2015-07-04T06:55:56Z</time>
				<extensions>
				</extensions>
			</trkpt>
			<trkpt lat="-27.997451" lon="153.310368">
				<ele>19.095</ele>
				<time>2015-07-04T06:55:58Z</time>
				<extensions>
				</extensions>
			</trkpt>
			<trkpt lat="-27.997624" lon="153.310615">
				<ele>19.045</ele>
				<time>2015-07-04T06:56:00Z</time>
				<extensions>
				</extensions>
			</trkpt>
			<trkpt lat="-27.997822" lon="153.310839">
				<ele>18.362</ele>
				<time>2015-07-04T06:56:02Z</time>
				<extensions>
				</extensions>
			</trkpt>
			<trkpt lat="-27.998015" lon="153.311063">
				<ele>19.067</ele>
				<time>2015-07-04T06:56:04Z</time>
				<extensions>
				</extensions>
			</trkpt>
			<trkpt lat="-27.998227" lon="153.311299">
				<ele>20.289</ele>
				<time>2015-07-04T06:56:06Z</time>
				<extensions>
				</extensions>
			</trkpt>
			<trkpt lat="-27.998439" lon="153.311517">
				<ele>20.239</ele>
				<time>2015-07-04T06:56:08Z</time>
				<extensions>
				</extensions>
			</trkpt>
			<trkpt lat="-27.998657" lon="153.311719">
				<ele>19.936</ele>
				<time>2015-07-04T06:56:10Z</time>
				<extensions>
				</extensions>
			</trkpt>
			<trkpt lat="-27.998890" lon="153.311935">
				<ele>19.381</ele>
				<time>2015-07-04T06:56:12Z</time>
				<extensions>
				</extensions>
			</trkpt>
			<trkpt lat="-27.999092" lon="153.312097">
				<ele>19.737</ele>
				<time>2015-07-04T06:56:14Z</time>
				<extensions>
				</extensions>
			</trkpt>
			<trkpt lat="-27.999329" lon="153.312244">
				<ele>19.114</ele>
				<time>2015-07-04T06:56:16Z</time>
				<extensions>
				</extensions>
			</trkpt>
			<trkpt lat="-27.999527" lon="153.312350">
				<ele>18.527</ele>
				<time>2015-07-04T06:56:18Z</time>
				<extensions>
				</extensions>
			</trkpt>
			<trkpt lat="-27.999718" lon="153.312417">
				<ele>17.619</ele>
				<time>2015-07-04T06:56:20Z</time>
				<extensions>
				</extensions>
			</trkpt>
			<trkpt lat="-27.999932" lon="153.312483">
				<ele>15.966</ele>
				<time>2015-07-04T06:56:23Z</time>
				<extensions>
				</extensions>
			</trkpt>
			<trkpt lat="-28.000072" lon="153.312641">
				<ele>15.155</ele>
				<time>2015-07-04T06:56:27Z</time>
				<extensions>
				</extensions>
			</trkpt>
			<trkpt lat="-28.000230" lon="153.312766">
				<ele>14.668</ele>
				<time>2015-07-04T06:56:31Z</time>
				<extensions>
				</extensions>
			</trkpt>
			<trkpt lat="-28.000388" lon="153.312586">
				<ele>15.133</ele>
				<time>2015-07-04T06:56:35Z</time>
				<extensions>
				</extensions>
			</trkpt>
			<trkpt lat="-28.000228" lon="153.312447">
				<ele>16.025</ele>
				<time>2015-07-04T06:56:38Z</time>
				<extensions>
				</extensions>
			</trkpt>
			<trkpt lat="-28.000036" lon="153.312419">
				<ele>17.557</ele>
				<time>2015-07-04T06:56:40Z</time>
				<extensions>
				</extensions>
			</trkpt>
			<trkpt lat="-27.999789" lon="153.312358">
				<ele>18.021</ele>
				<time>2015-07-04T06:56:42Z</time>
				<extensions>
				</extensions>
			</trkpt>
			<trkpt lat="-27.999536" lon="153.312263">
				<ele>17.695</ele>
				<time>2015-07-04T06:56:44Z</time>
				<extensions>
				</extensions>
			</trkpt>
			<trkpt lat="-27.999292" lon="153.312138">
				<ele>17.007</ele>
				<time>2015-07-04T06:56:46Z</time>
				<extensions>
				</extensions>
			</trkpt>
			<trkpt lat="-27.999053" lon="153.311987">
				<ele>16.152</ele>
				<time>2015-07-04T06:56:48Z</time>
				<extensions>
				</extensions>
			</trkpt>
			<trkpt lat="-27.998822" lon="153.311811">
				<ele>15.063</ele>
				<time>2015-07-04T06:56:50Z</time>
				<extensions>
				</extensions>
			</trkpt>
			<trkpt lat="-27.998602" lon="153.311611">
				<ele>14.560</ele>
				<time>2015-07-04T06:56:52Z</time>
				<extensions>
				</extensions>
			</trkpt>
			<trkpt lat="-27.998392" lon="153.311409">
				<ele>13.926</ele>
				<time>2015-07-04T06:56:54Z</time>
				<extensions>
				</extensions>
			</trkpt>
			<trkpt lat="-27.998189" lon="153.311177">
				<ele>14.032</ele>
				<time>2015-07-04T06:56:56Z</time>
				<extensions>
				</extensions>
			</trkpt>
			<trkpt lat="-27.997981" lon="153.310940">
				<ele>13.827</ele>
				<time>2015-07-04T06:56:58Z</time>
				<extensions>
				</extensions>
			</trkpt>
			<trkpt lat="-27.997781" lon="153.310696">
				<ele>13.344</ele>
				<time>2015-07-04T06:57:00Z</time>
				<extensions>
				</extensions>
			</trkpt>
			<trkpt lat="-27.997606" lon="153.310457">
				<ele>12.887</ele>
				<time>2015-07-04T06:57:02Z</time>
				<extensions>
				</extensions>
			</trkpt>
			<trkpt lat="-27.997446" lon="153.310214">
				<ele>12.952</ele>
				<time>2015-07-04T06:57:04Z</time>
				<extensions>
				</extensions>
			</trkpt>
			<trkpt lat="-27.997290" lon="153.309944">
				<ele>12.420</ele>
				<time>2015-07-04T06:57:06Z</time>
				<extensions>
				</extensions>
			</trkpt>
			<trkpt lat="-27.997155" lon="153.309650">
				<ele>12.045</ele>
				<time>2015-07-04T06:57:08Z</time>
				<extensions>
				</extensions>
			</trkpt>
			<trkpt lat="-27.997069" lon="153.309333">
				<ele>12.048</ele>
				<time>2015-07-04T06:57:10Z</time>
				<extensions>
				</extensions>
			</trkpt>
			<trkpt lat="-27.996996" lon="153.308994">
				<ele>11.943</ele>
				<time>2015-07-04T06:57:12Z</time>
				<extensions>
				</extensions>
			</trkpt>
			<trkpt lat="-27.996971" lon="153.308687">
				<ele>10.813</ele>
				<time>2015-07-04T06:57:14Z</time>
				<extensions>
				</extensions>
			</trkpt>
			<trkpt lat="-27.996972" lon="153.308365">
				<ele>10.304</ele>
				<time>2015-07-04T06:57:16Z</time>
				<extensions>
				</extensions>
			</trkpt>
			<trkpt lat="-27.997011" lon="153.308060">
				<ele>10.065</ele>
				<time>2015-07-04T06:57:18Z</time>
				<extensions>
				</extensions>
			</trkpt>
			<trkpt lat="-27.997061" lon="153.307754">
				<ele>9.866</ele>
				<time>2015-07-04T06:57:20Z</time>
				<extensions>
				</extensions>
			</trkpt>
			<trkpt lat="-27.997139" lon="153.307459">
				<ele>9.346</ele>
				<time>2015-07-04T06:57:22Z</time>
				<extensions>
				</extensions>
			</trkpt>
			<trkpt lat="-27.997216" lon="153.307231">
				<ele>8.926</ele>
				<time>2015-07-04T06:57:24Z</time>
				<extensions>
				</extensions>
			</trkpt>
			<trkpt lat="-27.997291" lon="153.306986">
				<ele>8.713</ele>
				<time>2015-07-04T06:57:26Z</time>
				<extensions>
				</extensions>
			</trkpt>
			<trkpt lat="-27.997345" lon="153.306751">
				<ele>9.122</ele>
				<time>2015-07-04T06:57:28Z</time>
				<extensions>
				</extensions>
			</trkpt>
			<trkpt lat="-27.997414" lon="153.306545">
				<ele>8.304</ele>
				<time>2015-07-04T06:57:30Z</time>
				<extensions>
				</extensions>
			</trkpt>
			<trkpt lat="-27.997593" lon="153.306328">
				<ele>8.560</ele>
				<time>2015-07-04T06:57:33Z</time>
				<extensions>
				</extensions>
			</trkpt>
			<trkpt lat="-27.997589" lon="153.306120">
				<ele>8.682</ele>
				<time>2015-07-04T06:57:35Z</time>
				<extensions>
				</extensions>
			</trkpt>
			<trkpt lat="-27.997559" lon="153.305913">
				<ele>9.705</ele>
				<time>2015-07-04T06:57:37Z</time>
				<extensions>
				</extensions>
			</trkpt>
			<trkpt lat="-27.997584" lon="153.305700">
				<ele>11.592</ele>
				<time>2015-07-04T06:57:39Z</time>
				<extensions>
				</extensions>
			</trkpt>
			<trkpt lat="-27.997632" lon="153.305459">
				<ele>14.668</ele>
				<time>2015-07-04T06:57:41Z</time>
				<extensions>
				</extensions>
			</trkpt>
			<trkpt lat="-27.997666" lon="153.305188">
				<ele>17.258</ele>
				<time>2015-07-04T06:57:43Z</time>
				<extensions>
				</extensions>
			</trkpt>
			<trkpt lat="-27.997668" lon="153.304920">
				<ele>19.406</ele>
				<time>2015-07-04T06:57:45Z</time>
				<extensions>
				</extensions>
			</trkpt>
			<trkpt lat="-27.997606" lon="153.304683">
				<ele>21.464</ele>
				<time>2015-07-04T06:57:47Z</time>
				<extensions>
				</extensions>
			</trkpt>
			<trkpt lat="-27.997539" lon="153.304493">
				<ele>22.803</ele>
				<time>2015-07-04T06:57:49Z</time>
				<extensions>
				</extensions>
			</trkpt>
			<trkpt lat="-27.997434" lon="153.304325">
				<ele>22.262</ele>
				<time>2015-07-04T06:57:52Z</time>
				<extensions>
				</extensions>
			</trkpt>
			<trkpt lat="-27.997308" lon="153.304172">
				<ele>22.681</ele>
				<time>2015-07-04T06:58:04Z</time>
				<extensions>
				</extensions>
			</trkpt>
			<trkpt lat="-27.997059" lon="153.304103">
				<ele>24.390</ele>
				<time>2015-07-04T06:58:08Z</time>
				<extensions>
				</extensions>
			</trkpt>
			<trkpt lat="-27.996936" lon="153.304280">
				<ele>24.472</ele>
				<time>2015-07-04T06:58:10Z</time>
				<extensions>
				</extensions>
			</trkpt>
			<trkpt lat="-27.996796" lon="153.304491">
				<ele>25.363</ele>
				<time>2015-07-04T06:58:12Z</time>
				<extensions>
				</extensions>
			</trkpt>
			<trkpt lat="-27.996683" lon="153.304758">
				<ele>26.071</ele>
				<time>2015-07-04T06:58:14Z</time>
				<extensions>
				</extensions>
			</trkpt>
			<trkpt lat="-27.996577" lon="153.305031">
				<ele>26.138</ele>
				<time>2015-07-04T06:58:16Z</time>
				<extensions>
				</extensions>
			</trkpt>
			<trkpt lat="-27.996482" lon="153.305287">
				<ele>26.598</ele>
				<time>2015-07-04T06:58:18Z</time>
				<extensions>
				</extensions>
			</trkpt>
			<trkpt lat="-27.996380" lon="153.305634">
				<ele>27.192</ele>
				<time>2015-07-04T06:58:20Z</time>
				<extensions>
				</extensions>
			</trkpt>
			<trkpt lat="-27.996305" lon="153.305960">
				<ele>28.174</ele>
				<time>2015-07-04T06:58:22Z</time>
				<extensions>
				</extensions>
			</trkpt>
			<trkpt lat="-27.996234" lon="153.306283">
				<ele>28.876</ele>
				<time>2015-07-04T06:58:24Z</time>
				<extensions>
				</extensions>
			</trkpt>
			<trkpt lat="-27.996172" lon="153.306609">
				<ele>29.412</ele>
				<time>2015-07-04T06:58:26Z</time>
				<extensions>
				</extensions>
			</trkpt>
			<trkpt lat="-27.996106" lon="153.306949">
				<ele>30.031</ele>
				<time>2015-07-04T06:58:28Z</time>
				<extensions>
				</extensions>
			</trkpt>
			<trkpt lat="-27.996040" lon="153.307290">
				<ele>30.035</ele>
				<time>2015-07-04T06:58:30Z</time>
				<extensions>
				</extensions>
			</trkpt>
			<trkpt lat="-27.995945" lon="153.307614">
				<ele>30.065</ele>
				<time>2015-07-04T06:58:32Z</time>
				<extensions>
				</extensions>
			</trkpt>
			<trkpt lat="-27.995821" lon="153.307933">
				<ele>29.828</ele>
				<time>2015-07-04T06:58:34Z</time>
				<extensions>
				</extensions>
			</trkpt>
			<trkpt lat="-27.995680" lon="153.308263">
				<ele>30.534</ele>
				<time>2015-07-04T06:58:36Z</time>
				<extensions>
				</extensions>
			</trkpt>
			<trkpt lat="-27.995540" lon="153.308580">
				<ele>30.276</ele>
				<time>2015-07-04T06:58:38Z</time>
				<extensions>
				</extensions>
			</trkpt>
			<trkpt lat="-27.995391" lon="153.308873">
				<ele>30.534</ele>
				<time>2015-07-04T06:58:40Z</time>
				<extensions>
				</extensions>
			</trkpt>
			<trkpt lat="-27.995227" lon="153.309153">
				<ele>29.951</ele>
				<time>2015-07-04T06:58:42Z</time>
				<extensions>
				</extensions>
			</trkpt>
			<trkpt lat="-27.995043" lon="153.309437">
				<ele>30.291</ele>
				<time>2015-07-04T06:58:44Z</time>
				<extensions>
				</extensions>
			</trkpt>
			<trkpt lat="-27.994845" lon="153.309714">
				<ele>29.527</ele>
				<time>2015-07-04T06:58:46Z</time>
				<extensions>
				</extensions>
			</trkpt>
			<trkpt lat="-27.994632" lon="153.309976">
				<ele>29.322</ele>
				<time>2015-07-04T06:58:48Z</time>
				<extensions>
				</extensions>
			</trkpt>
			<trkpt lat="-27.994391" lon="153.310221">
				<ele>29.689</ele>
				<time>2015-07-04T06:58:50Z</time>
				<extensions>
				</extensions>
			</trkpt>
			<trkpt lat="-27.994138" lon="153.310463">
				<ele>28.157</ele>
				<time>2015-07-04T06:58:52Z</time>
				<extensions>
				</extensions>
			</trkpt>
			<trkpt lat="-27.993892" lon="153.310697">
				<ele>26.352</ele>
				<time>2015-07-04T06:58:54Z</time>
				<extensions>
				</extensions>
			</trkpt>
			<trkpt lat="-27.993650" lon="153.310926">
				<ele>25.684</ele>
				<time>2015-07-04T06:58:56Z</time>
				<extensions>
				</extensions>
			</trkpt>
			<trkpt lat="-27.993425" lon="153.311142">
				<ele>25.120</ele>
				<time>2015-07-04T06:58:58Z</time>
				<extensions>
				</extensions>
			</trkpt>
			<trkpt lat="-27.993212" lon="153.311365">
				<ele>24.678</ele>
				<time>2015-07-04T06:59:00Z</time>
				<extensions>
				</extensions>
			</trkpt>
			<trkpt lat="-27.993002" lon="153.311609">
				<ele>24.526</ele>
				<time>2015-07-04T06:59:02Z</time>
				<extensions>
				</extensions>
			</trkpt>
			<trkpt lat="-27.992812" lon="153.311865">
				<ele>24.764</ele>
				<time>2015-07-04T06:59:04Z</time>
				<extensions>
				</extensions>
			</trkpt>
			<trkpt lat="-27.992621" lon="153.312131">
				<ele>24.113</ele>
				<time>2015-07-04T06:59:06Z</time>
				<extensions>
				</extensions>
			</trkpt>
			<trkpt lat="-27.992431" lon="153.312419">
				<ele>24.559</ele>
				<time>2015-07-04T06:59:08Z</time>
				<extensions>
				</extensions>
			</trkpt>
			<trkpt lat="-27.992255" lon="153.312717">
				<ele>23.373</ele>
				<time>2015-07-04T06:59:10Z</time>
				<extensions>
				</extensions>
			</trkpt>
			<trkpt lat="-27.992122" lon="153.313045">
				<ele>22.127</ele>
				<time>2015-07-04T06:59:12Z</time>
				<extensions>
				</extensions>
			</trkpt>
			<trkpt lat="-27.992025" lon="153.313340">
				<ele>18.899</ele>
				<time>2015-07-04T06:59:14Z</time>
				<extensions>
				</extensions>
			</trkpt>
			<trkpt lat="-27.991903" lon="153.313672">
				<ele>17.511</ele>
				<time>2015-07-04T06:59:16Z</time>
				<extensions>
				</extensions>
			</trkpt>
			<trkpt lat="-27.991775" lon="153.313998">
				<ele>15.954</ele>
				<time>2015-07-04T06:59:18Z</time>
				<extensions>
				</extensions>
			</trkpt>
			<trkpt lat="-27.991676" lon="153.314317">
				<ele>14.641</ele>
				<time>2015-07-04T06:59:20Z</time>
				<extensions>
				</extensions>
			</trkpt>
			<trkpt lat="-27.991573" lon="153.314647">
				<ele>14.375</ele>
				<time>2015-07-04T06:59:22Z</time>
				<extensions>
				</extensions>
			</trkpt>
			<trkpt lat="-27.991486" lon="153.314985">
				<ele>13.943</ele>
				<time>2015-07-04T06:59:24Z</time>
				<extensions>
				</extensions>
			</trkpt>
			<trkpt lat="-27.991472" lon="153.315339">
				<ele>14.438</ele>
				<time>2015-07-04T06:59:26Z</time>
				<extensions>
				</extensions>
			</trkpt>
			<trkpt lat="-27.991481" lon="153.315702">
				<ele>14.685</ele>
				<time>2015-07-04T06:59:28Z</time>
				<extensions>
				</extensions>
			</trkpt>
			<trkpt lat="-27.991532" lon="153.316070">
				<ele>15.506</ele>
				<time>2015-07-04T06:59:30Z</time>
				<extensions>
				</extensions>
			</trkpt>
			<trkpt lat="-27.991577" lon="153.316418">
				<ele>15.066</ele>
				<time>2015-07-04T06:59:32Z</time>
				<extensions>
				</extensions>
			</trkpt>
			<trkpt lat="-27.991625" lon="153.316767">
				<ele>15.360</ele>
				<time>2015-07-04T06:59:34Z</time>
				<extensions>
				</extensions>
			</trkpt>
			<trkpt lat="-27.991670" lon="153.317143">
				<ele>15.569</ele>
				<time>2015-07-04T06:59:36Z</time>
				<extensions>
				</extensions>
			</trkpt>
			<trkpt lat="-27.991732" lon="153.317498">
				<ele>13.452</ele>
				<time>2015-07-04T06:59:38Z</time>
				<extensions>
				</extensions>
			</trkpt>
			<trkpt lat="-27.991797" lon="153.317846">
				<ele>12.438</ele>
				<time>2015-07-04T06:59:40Z</time>
				<extensions>
				</extensions>
			</trkpt>
			<trkpt lat="-27.991861" lon="153.318183">
				<ele>10.709</ele>
				<time>2015-07-04T06:59:42Z</time>
				<extensions>
				</extensions>
			</trkpt>
			<trkpt lat="-27.991937" lon="153.318518">
				<ele>10.110</ele>
				<time>2015-07-04T06:59:44Z</time>
				<extensions>
				</extensions>
			</trkpt>
			<trkpt lat="-27.992018" lon="153.318861">
				<ele>8.799</ele>
				<time>2015-07-04T06:59:46Z</time>
				<extensions>
				</extensions>
			</trkpt>
			<trkpt lat="-27.992102" lon="153.319183">
				<ele>8.803</ele>
				<time>2015-07-04T06:59:48Z</time>
				<extensions>
				</extensions>
			</trkpt>
			<trkpt lat="-27.992201" lon="153.319521">
				<ele>8.780</ele>
				<time>2015-07-04T06:59:50Z</time>
				<extensions>
				</extensions>
			</trkpt>
			<trkpt lat="-27.992300" lon="153.319847">
				<ele>7.995</ele>
				<time>2015-07-04T06:59:52Z</time>
				<extensions>
				</extensions>
			</trkpt>
			<trkpt lat="-27.992401" lon="153.320175">
				<ele>7.412</ele>
				<time>2015-07-04T06:59:54Z</time>
				<extensions>
				</extensions>
			</trkpt>
			<trkpt lat="-27.992505" lon="153.320519">
				<ele>7.589</ele>
				<time>2015-07-04T06:59:56Z</time>
				<extensions>
				</extensions>
			</trkpt>
			<trkpt lat="-27.992605" lon="153.320847">
				<ele>8.563</ele>
				<time>2015-07-04T06:59:58Z</time>
				<extensions>
				</extensions>
			</trkpt>
			<trkpt lat="-27.992732" lon="153.321173">
				<ele>9.082</ele>
				<time>2015-07-04T07:00:00Z</time>
				<extensions>
				</extensions>
			</trkpt>
			<trkpt lat="-27.992824" lon="153.321480">
				<ele>9.178</ele>
				<time>2015-07-04T07:00:02Z</time>
				<extensions>
				</extensions>
			</trkpt>
			<trkpt lat="-27.992938" lon="153.321774">
				<ele>8.708</ele>
				<time>2015-07-04T07:00:04Z</time>
				<extensions>
				</extensions>
			</trkpt>
			<trkpt lat="-27.992999" lon="153.322086">
				<ele>9.408</ele>
				<time>2015-07-04T07:00:06Z</time>
				<extensions>
				</extensions>
			</trkpt>
			<trkpt lat="-27.993113" lon="153.322425">
				<ele>8.804</ele>
				<time>2015-07-04T07:00:08Z</time>
				<extensions>
				</extensions>
			</trkpt>
			<trkpt lat="-27.993199" lon="153.322755">
				<ele>7.724</ele>
				<time>2015-07-04T07:00:10Z</time>
				<extensions>
				</extensions>
			</trkpt>
			<trkpt lat="-27.993294" lon="153.323093">
				<ele>7.816</ele>
				<time>2015-07-04T07:00:12Z</time>
				<extensions>
				</extensions>
			</trkpt>
			<trkpt lat="-27.993391" lon="153.323435">
				<ele>8.346</ele>
				<time>2015-07-04T07:00:14Z</time>
				<extensions>
				</extensions>
			</trkpt>
			<trkpt lat="-27.993466" lon="153.323800">
				<ele>8.688</ele>
				<time>2015-07-04T07:00:16Z</time>
				<extensions>
				</extensions>
			</trkpt>
			<trkpt lat="-27.993524" lon="153.324172">
				<ele>9.871</ele>
				<time>2015-07-04T07:00:18Z</time>
				<extensions>
				</extensions>
			</trkpt>
			<trkpt lat="-27.993560" lon="153.324538">
				<ele>9.761</ele>
				<time>2015-07-04T07:00:20Z</time>
				<extensions>
				</extensions>
			</trkpt>
			<trkpt lat="-27.993574" lon="153.324888">
				<ele>8.818</ele>
				<time>2015-07-04T07:00:22Z</time>
				<extensions>
				</extensions>
			</trkpt>
			<trkpt lat="-27.993579" lon="153.325247">
				<ele>8.498</ele>
				<time>2015-07-04T07:00:24Z</time>
				<extensions>
				</extensions>
			</trkpt>
			<trkpt lat="-27.993574" lon="153.325613">
				<ele>9.002</ele>
				<time>2015-07-04T07:00:26Z</time>
				<extensions>
				</extensions>
			</trkpt>
			<trkpt lat="-27.993556" lon="153.325975">
				<ele>9.893</ele>
				<time>2015-07-04T07:00:28Z</time>
				<extensions>
				</extensions>
			</trkpt>
			<trkpt lat="-27.993547" lon="153.326312">
				<ele>8.373</ele>
				<time>2015-07-04T07:00:30Z</time>
				<extensions>
				</extensions>
			</trkpt>
			<trkpt lat="-27.993538" lon="153.326623">
				<ele>7.306</ele>
				<time>2015-07-04T07:00:32Z</time>
				<extensions>
				</extensions>
			</trkpt>
			<trkpt lat="-27.993525" lon="153.326930">
				<ele>7.466</ele>
				<time>2015-07-04T07:00:34Z</time>
				<extensions>
				</extensions>
			</trkpt>
			<trkpt lat="-27.993512" lon="153.327258">
				<ele>7.889</ele>
				<time>2015-07-04T07:00:36Z</time>
				<extensions>
				</extensions>
			</trkpt>
			<trkpt lat="-27.993483" lon="153.327590">
				<ele>6.594</ele>
				<time>2015-07-04T07:00:38Z</time>
				<extensions>
				</extensions>
			</trkpt>
			<trkpt lat="-27.993453" lon="153.327929">
				<ele>5.225</ele>
				<time>2015-07-04T07:00:40Z</time>
				<extensions>
				</extensions>
			</trkpt>
			<trkpt lat="-27.993448" lon="153.328264">
				<ele>4.090</ele>
				<time>2015-07-04T07:00:42Z</time>
				<extensions>
				</extensions>
			</trkpt>
			<trkpt lat="-27.993454" lon="153.328577">
				<ele>2.934</ele>
				<time>2015-07-04T07:00:44Z</time>
				<extensions>
				</extensions>
			</trkpt>
			<trkpt lat="-27.993454" lon="153.328872">
				<ele>1.661</ele>
				<time>2015-07-04T07:00:46Z</time>
				<extensions>
				</extensions>
			</trkpt>
			<trkpt lat="-27.993452" lon="153.329129">
				<ele>0.457</ele>
				<time>2015-07-04T07:00:48Z</time>
				<extensions>
				</extensions>
			</trkpt>
			<trkpt lat="-27.993454" lon="153.329345">
				<ele>-0.410</ele>
				<time>2015-07-04T07:00:50Z</time>
				<extensions>
				</extensions>
			</trkpt>
			<trkpt lat="-27.993639" lon="153.329551">
				<ele>-1.454</ele>
				<time>2015-07-04T07:00:54Z</time>
				<extensions>
				</extensions>
			</trkpt>
			<trkpt lat="-27.993911" lon="153.329521">
				<ele>-0.604</ele>
				<time>2015-07-04T07:00:57Z</time>
				<extensions>
				</extensions>
			</trkpt>
			<trkpt lat="-27.994132" lon="153.329447">
				<ele>1.548</ele>
				<time>2015-07-04T07:00:59Z</time>
				<extensions>
				</extensions>
			</trkpt>
			<trkpt lat="-27.994368" lon="153.329334">
				<ele>2.872</ele>
				<time>2015-07-04T07:01:01Z</time>
				<extensions>
				</extensions>
			</trkpt>
			<trkpt lat="-27.994596" lon="153.329210">
				<ele>3.155</ele>
				<time>2015-07-04T07:01:03Z</time>
				<extensions>
				</extensions>
			</trkpt>
			<trkpt lat="-27.994809" lon="153.329083">
				<ele>2.908</ele>
				<time>2015-07-04T07:01:05Z</time>
				<extensions>
				</extensions>
			</trkpt>
			<trkpt lat="-27.995013" lon="153.328963">
				<ele>2.606</ele>
				<time>2015-07-04T07:01:07Z</time>
				<extensions>
				</extensions>
			</trkpt>
			<trkpt lat="-27.995221" lon="153.328848">
				<ele>3.333</ele>
				<time>2015-07-04T07:01:09Z</time>
				<extensions>
				</extensions>
			</trkpt>
			<trkpt lat="-27.995450" lon="153.328732">
				<ele>3.212</ele>
				<time>2015-07-04T07:01:11Z</time>
				<extensions>
				</extensions>
			</trkpt>
			<trkpt lat="-27.995681" lon="153.328615">
				<ele>3.877</ele>
				<time>2015-07-04T07:01:13Z</time>
				<extensions>
				</extensions>
			</trkpt>
			<trkpt lat="-27.995935" lon="153.328512">
				<ele>4.520</ele>
				<time>2015-07-04T07:01:15Z</time>
				<extensions>
				</extensions>
			</trkpt>
			<trkpt lat="-27.996193" lon="153.328408">
				<ele>5.242</ele>
				<time>2015-07-04T07:01:17Z</time>
				<extensions>
				</extensions>
			</trkpt>
			<trkpt lat="-27.996433" lon="153.328314">
				<ele>4.327</ele>
				<time>2015-07-04T07:01:19Z</time>
				<extensions>
				</extensions>
			</trkpt>
			<trkpt lat="-27.996661" lon="153.328229">
				<ele>3.905</ele>
				<time>2015-07-04T07:01:21Z</time>
				<extensions>
				</extensions>
			</trkpt>
			<trkpt lat="-27.996899" lon="153.328141">
				<ele>4.221</ele>
				<time>2015-07-04T07:01:23Z</time>
				<extensions>
				</extensions>
			</trkpt>
			<trkpt lat="-27.997133" lon="153.328062">
				<ele>4.619</ele>
				<time>2015-07-04T07:01:25Z</time>
				<extensions>
				</extensions>
			</trkpt>
			<trkpt lat="-27.997381" lon="153.327958">
				<ele>5.118</ele>
				<time>2015-07-04T07:01:27Z</time>
				<extensions>
				</extensions>
			</trkpt>
			<trkpt lat="-27.997630" lon="153.327856">
				<ele>5.111</ele>
				<time>2015-07-04T07:01:29Z</time>
				<extensions>
				</extensions>
			</trkpt>
			<trkpt lat="-27.997910" lon="153.327747">
				<ele>6.785</ele>
				<time>2015-07-04T07:01:31Z</time>
				<extensions>
				</extensions>
			</trkpt>
			<trkpt lat="-27.998178" lon="153.327667">
				<ele>7.724</ele>
				<time>2015-07-04T07:01:33Z</time>
				<extensions>
				</extensions>
			</trkpt>
			<trkpt lat="-27.998452" lon="153.327615">
				<ele>8.524</ele>
				<time>2015-07-04T07:01:35Z</time>
				<extensions>
				</extensions>
			</trkpt>
			<trkpt lat="-27.998685" lon="153.327613">
				<ele>9.666</ele>
				<time>2015-07-04T07:01:37Z</time>
				<extensions>
				</extensions>
			</trkpt>
			<trkpt lat="-27.998867" lon="153.327624">
				<ele>10.210</ele>
				<time>2015-07-04T07:01:38Z</time>
				<extensions>
				</extensions>
			</trkpt>
			<trkpt lat="-27.999131" lon="153.327655">
				<ele>9.936</ele>
				<time>2015-07-04T07:01:40Z</time>
				<extensions>
				</extensions>
			</trkpt>
			<trkpt lat="-27.999367" lon="153.327675">
				<ele>9.485</ele>
				<time>2015-07-04T07:01:42Z</time>
				<extensions>
				</extensions>
			</trkpt>
			<trkpt lat="-27.999593" lon="153.327696">
				<ele>10.073</ele>
				<time>2015-07-04T07:01:44Z</time>
				<extensions>
				</extensions>
			</trkpt>
			<trkpt lat="-27.999825" lon="153.327718">
				<ele>11.586</ele>
				<time>2015-07-04T07:01:46Z</time>
				<extensions>
				</extensions>
			</trkpt>
			<trkpt lat="-28.000019" lon="153.327736">
				<ele>11.128</ele>
				<time>2015-07-04T07:01:48Z</time>
				<extensions>
				</extensions>
			</trkpt>
			<trkpt lat="-28.000225" lon="153.327773">
				<ele>10.197</ele>
				<time>2015-07-04T07:01:51Z</time>
				<extensions>
				</extensions>
			</trkpt>
			<trkpt lat="-28.000440" lon="153.327790">
				<ele>12.244</ele>
				<time>2015-07-04T07:02:00Z</time>
				<extensions>
				</extensions>
			</trkpt>
			<trkpt lat="-28.000704" lon="153.327815">
				<ele>16.181</ele>
				<time>2015-07-04T07:02:03Z</time>
				<extensions>
				</extensions>
			</trkpt>
			<trkpt lat="-28.000923" lon="153.327835">
				<ele>18.498</ele>
				<time>2015-07-04T07:02:05Z</time>
				<extensions>
				</extensions>
			</trkpt>
			<trkpt lat="-28.001149" lon="153.327852">
				<ele>19.423</ele>
				<time>2015-07-04T07:02:07Z</time>
				<extensions>
				</extensions>
			</trkpt>
			<trkpt lat="-28.001363" lon="153.327862">
				<ele>19.411</ele>
				<time>2015-07-04T07:02:09Z</time>
				<extensions>
				</extensions>
			</trkpt>
			<trkpt lat="-28.001561" lon="153.327855">
				<ele>19.920</ele>
				<time>2015-07-04T07:02:11Z</time>
				<extensions>
				</extensions>
			</trkpt>
			<trkpt lat="-28.001797" lon="153.327836">
				<ele>20.537</ele>
				<time>2015-07-04T07:02:13Z</time>
				<extensions>
				</extensions>
			</trkpt>
			<trkpt lat="-28.002006" lon="153.327874">
				<ele>20.616</ele>
				<time>2015-07-04T07:02:15Z</time>
				<extensions>
				</extensions>
			</trkpt>
			<trkpt lat="-28.002225" lon="153.327901">
				<ele>20.302</ele>
				<time>2015-07-04T07:02:17Z</time>
				<extensions>
				</extensions>
			</trkpt>
			<trkpt lat="-28.002455" lon="153.328020">
				<ele>20.827</ele>
				<time>2015-07-04T07:02:19Z</time>
				<extensions>
				</extensions>
			</trkpt>
			<trkpt lat="-28.002685" lon="153.328179">
				<ele>21.257</ele>
				<time>2015-07-04T07:02:21Z</time>
				<extensions>
				</extensions>
			</trkpt>
			<trkpt lat="-28.002894" lon="153.328341">
				<ele>22.208</ele>
				<time>2015-07-04T07:02:23Z</time>
				<extensions>
				</extensions>
			</trkpt>
			<trkpt lat="-28.003095" lon="153.328543">
				<ele>23.932</ele>
				<time>2015-07-04T07:02:25Z</time>
				<extensions>
				</extensions>
			</trkpt>
			<trkpt lat="-28.003257" lon="153.328784">
				<ele>25.870</ele>
				<time>2015-07-04T07:02:27Z</time>
				<extensions>
				</extensions>
			</trkpt>
			<trkpt lat="-28.003415" lon="153.329035">
				<ele>27.695</ele>
				<time>2015-07-04T07:02:29Z</time>
				<extensions>
				</extensions>
			</trkpt>
			<trkpt lat="-28.003581" lon="153.329297">
				<ele>27.864</ele>
				<time>2015-07-04T07:02:31Z</time>
				<extensions>
				</extensions>
			</trkpt>
			<trkpt lat="-28.003729" lon="153.329538">
				<ele>27.198</ele>
				<time>2015-07-04T07:02:33Z</time>
				<extensions>
				</extensions>
			</trkpt>
			<trkpt lat="-28.003868" lon="153.329773">
				<ele>27.600</ele>
				<time>2015-07-04T07:02:35Z</time>
				<extensions>
				</extensions>
			</trkpt>
			<trkpt lat="-28.004004" lon="153.329993">
				<ele>27.901</ele>
				<time>2015-07-04T07:02:37Z</time>
				<extensions>
				</extensions>
			</trkpt>
			<trkpt lat="-28.004147" lon="153.330246">
				<ele>28.880</ele>
				<time>2015-07-04T07:02:39Z</time>
				<extensions>
				</extensions>
			</trkpt>
			<trkpt lat="-28.004242" lon="153.330516">
				<ele>30.148</ele>
				<time>2015-07-04T07:02:41Z</time>
				<extensions>
				</extensions>
			</trkpt>
			<trkpt lat="-28.004312" lon="153.330810">
				<ele>30.384</ele>
				<time>2015-07-04T07:02:43Z</time>
				<extensions>
				</extensions>
			</trkpt>
			<trkpt lat="-28.004370" lon="153.331102">
				<ele>28.678</ele>
				<time>2015-07-04T07:02:45Z</time>
				<extensions>
				</extensions>
			</trkpt>
			<trkpt lat="-28.004419" lon="153.331400">
				<ele>26.813</ele>
				<time>2015-07-04T07:02:47Z</time>
				<extensions>
				</extensions>
			</trkpt>
			<trkpt lat="-28.004478" lon="153.331705">
				<ele>24.036</ele>
				<time>2015-07-04T07:02:49Z</time>
				<extensions>
				</extensions>
			</trkpt>
			<trkpt lat="-28.004540" lon="153.332003">
				<ele>20.462</ele>
				<time>2015-07-04T07:02:51Z</time>
				<extensions>
				</extensions>
			</trkpt>
			<trkpt lat="-28.004588" lon="153.332282">
				<ele>18.849</ele>
				<time>2015-07-04T07:02:53Z</time>
				<extensions>
				</extensions>
			</trkpt>
			<trkpt lat="-28.004642" lon="153.332565">
				<ele>17.288</ele>
				<time>2015-07-04T07:02:55Z</time>
				<extensions>
				</extensions>
			</trkpt>
			<trkpt lat="-28.004689" lon="153.332834">
				<ele>17.188</ele>
				<time>2015-07-04T07:02:57Z</time>
				<extensions>
				</extensions>
			</trkpt>
			<trkpt lat="-28.004729" lon="153.333038">
				<ele>17.182</ele>
				<time>2015-07-04T07:02:58Z</time>
				<extensions>
				</extensions>
			</trkpt>
			<trkpt lat="-28.004790" lon="153.333351">
				<ele>16.061</ele>
				<time>2015-07-04T07:03:00Z</time>
				<extensions>
				</extensions>
			</trkpt>
			<trkpt lat="-28.004847" lon="153.333665">
				<ele>14.253</ele>
				<time>2015-07-04T07:03:02Z</time>
				<extensions>
				</extensions>
			</trkpt>
			<trkpt lat="-28.004905" lon="153.333962">
				<ele>12.694</ele>
				<time>2015-07-04T07:03:04Z</time>
				<extensions>
				</extensions>
			</trkpt>
			<trkpt lat="-28.004948" lon="153.334181">
				<ele>11.540</ele>
				<time>2015-07-04T07:03:06Z</time>
				<extensions>
				</extensions>
			</trkpt>
			<trkpt lat="-28.004989" lon="153.334412">
				<ele>11.542</ele>
				<time>2015-07-04T07:03:07Z</time>
				<extensions>
				</extensions>
			</trkpt>
			<trkpt lat="-28.005053" lon="153.334728">
				<ele>11.883</ele>
				<time>2015-07-04T07:03:09Z</time>
				<extensions>
				</extensions>
			</trkpt>
			<trkpt lat="-28.005109" lon="153.335044">
				<ele>12.261</ele>
				<time>2015-07-04T07:03:11Z</time>
				<extensions>
				</extensions>
			</trkpt>
			<trkpt lat="-28.005167" lon="153.335360">
				<ele>11.580</ele>
				<time>2015-07-04T07:03:13Z</time>
				<extensions>
				</extensions>
			</trkpt>
			<trkpt lat="-28.005230" lon="153.335682">
				<ele>12.185</ele>
				<time>2015-07-04T07:03:15Z</time>
				<extensions>
				</extensions>
			</trkpt>
			<trkpt lat="-28.005282" lon="153.335981">
				<ele>13.324</ele>
				<time>2015-07-04T07:03:17Z</time>
				<extensions>
				</extensions>
			</trkpt>
			<trkpt lat="-28.005335" lon="153.336285">
				<ele>15.058</ele>
				<time>2015-07-04T07:03:19Z</time>
				<extensions>
				</extensions>
			</trkpt>
			<trkpt lat="-28.005386" lon="153.336568">
				<ele>15.104</ele>
				<time>2015-07-04T07:03:21Z</time>
				<extensions>
				</extensions>
			</trkpt>
			<trkpt lat="-28.005456" lon="153.336840">
				<ele>13.755</ele>
				<time>2015-07-04T07:03:23Z</time>
				<extensions>
				</extensions>
			</trkpt>
			<trkpt lat="-28.005500" lon="153.337104">
				<ele>11.916</ele>
				<time>2015-07-04T07:03:25Z</time>
				<extensions>
				</extensions>
			</trkpt>
			<trkpt lat="-28.005544" lon="153.337360">
				<ele>10.372</ele>
				<time>2015-07-04T07:03:27Z</time>
				<extensions>
				</extensions>
			</trkpt>
			<trkpt lat="-28.005584" lon="153.337626">
				<ele>8.684</ele>
				<time>2015-07-04T07:03:29Z</time>
				<extensions>
				</extensions>
			</trkpt>
			<trkpt lat="-28.005634" lon="153.337890">
				<ele>6.306</ele>
				<time>2015-07-04T07:03:31Z</time>
				<extensions>
				</extensions>
			</trkpt>
			<trkpt lat="-28.005680" lon="153.338096">
				<ele>3.262</ele>
				<time>2015-07-04T07:03:33Z</time>
				<extensions>
				</extensions>
			</trkpt>
			<trkpt lat="-28.005694" lon="153.338301">
				<ele>2.370</ele>
				<time>2015-07-04T07:03:36Z</time>
				<extensions>
				</extensions>
			</trkpt>
			<trkpt lat="-28.005712" lon="153.338532">
				<ele>3.632</ele>
				<time>2015-07-04T07:03:39Z</time>
				<extensions>
				</extensions>
			</trkpt>
			<trkpt lat="-28.005840" lon="153.338771">
				<ele>5.140</ele>
				<time>2015-07-04T07:03:42Z</time>
				<extensions>
				</extensions>
			</trkpt>
			<trkpt lat="-28.005942" lon="153.338991">
				<ele>6.058</ele>
				<time>2015-07-04T07:03:44Z</time>
				<extensions>
				</extensions>
			</trkpt>
			<trkpt lat="-28.006027" lon="153.339244">
				<ele>6.553</ele>
				<time>2015-07-04T07:03:46Z</time>
				<extensions>
				</extensions>
			</trkpt>
			<trkpt lat="-28.006075" lon="153.339479">
				<ele>5.923</ele>
				<time>2015-07-04T07:03:48Z</time>
				<extensions>
				</extensions>
			</trkpt>
			<trkpt lat="-28.006144" lon="153.339725">
				<ele>5.886</ele>
				<time>2015-07-04T07:03:50Z</time>
				<extensions>
				</extensions>
			</trkpt>
			<trkpt lat="-28.006181" lon="153.339963">
				<ele>5.961</ele>
				<time>2015-07-04T07:03:52Z</time>
				<extensions>
				</extensions>
			</trkpt>
			<trkpt lat="-28.006233" lon="153.340158">
				<ele>5.287</ele>
				<time>2015-07-04T07:03:54Z</time>
				<extensions>
				</extensions>
			</trkpt>
			<trkpt lat="-28.006239" lon="153.340382">
				<ele>2.584</ele>
				<time>2015-07-04T07:03:59Z</time>
				<extensions>
				</extensions>
			</trkpt>
			<trkpt lat="-28.006321" lon="153.340609">
				<ele>4.871</ele>
				<time>2015-07-04T07:04:20Z</time>
				<extensions>
				</extensions>
			</trkpt>
			<trkpt lat="-28.006515" lon="153.340690">
				<ele>4.586</ele>
				<time>2015-07-04T07:04:25Z</time>
				<extensions>
				</extensions>
			</trkpt>
			<trkpt lat="-28.006717" lon="153.340704">
				<ele>6.239</ele>
				<time>2015-07-04T07:04:29Z</time>
				<extensions>
				</extensions>
			</trkpt>
			<trkpt lat="-28.006926" lon="153.340801">
				<ele>6.597</ele>
				<time>2015-07-04T07:04:33Z</time>
				<extensions>
				</extensions>
			</trkpt>
			<trkpt lat="-28.007162" lon="153.340882">
				<ele>6.869</ele>
				<time>2015-07-04T07:04:37Z</time>
				<extensions>
				</extensions>
			</trkpt>
			<trkpt lat="-28.007386" lon="153.340953">
				<ele>7.743</ele>
				<time>2015-07-04T07:04:41Z</time>
				<extensions>
				</extensions>
			</trkpt>
			<trkpt lat="-28.007572" lon="153.341022">
				<ele>8.750</ele>
				<time>2015-07-04T07:04:44Z</time>
				<extensions>
				</extensions>
			</trkpt>
			<trkpt lat="-28.007742" lon="153.341119">
				<ele>8.376</ele>
				<time>2015-07-04T07:04:50Z</time>
				<extensions>
				</extensions>
			</trkpt>
			<trkpt lat="-28.007925" lon="153.341247">
				<ele>9.900</ele>
				<time>2015-07-04T07:04:58Z</time>
				<extensions>
				</extensions>
			</trkpt>
			<trkpt lat="-28.008099" lon="153.341400">
				<ele>11.536</ele>
				<time>2015-07-04T07:05:03Z</time>
				<extensions>
				</extensions>
			</trkpt>
			<trkpt lat="-28.008288" lon="153.341520">
				<ele>12.453</ele>
				<time>2015-07-04T07:05:08Z</time>
				<extensions>
				</extensions>
			</trkpt>
			<trkpt lat="-28.008450" lon="153.341653">
				<ele>13.112</ele>
				<time>2015-07-04T07:05:13Z</time>
				<extensions>
				</extensions>
			</trkpt>
			<trkpt lat="-28.008523" lon="153.341847">
				<ele>13.851</ele>
				<time>2015-07-04T07:05:20Z</time>
				<extensions>
				</extensions>
			</trkpt>
			<trkpt lat="-28.008404" lon="153.342019">
				<ele>14.141</ele>
				<time>2015-07-04T07:05:24Z</time>
				<extensions>
				</extensions>
			</trkpt>
			<trkpt lat="-28.008299" lon="153.342205">
				<ele>13.819</ele>
				<time>2015-07-04T07:05:28Z</time>
				<extensions>
				</extensions>
			</trkpt>
			<trkpt lat="-28.008210" lon="153.342382">
				<ele>13.498</ele>
				<time>2015-07-04T07:05:33Z</time>
				<extensions>
				</extensions>
			</trkpt>
			<trkpt lat="-28.008196" lon="153.342176">
				<ele>13.471</ele>
				<time>2015-07-04T07:06:18Z</time>
				<extensions>
				</extensions>
			</trkpt>
			<trkpt lat="-28.008268" lon="153.341981">
				<ele>13.700</ele>
				<time>2015-07-04T07:06:25Z</time>
				<extensions>
				</extensions>
			</trkpt>
			<trkpt lat="-28.008136" lon="153.341841">
				<ele>13.317</ele>
				<time>2015-07-04T07:06:31Z</time>
				<extensions>
				</extensions>
			</trkpt>
			<trkpt lat="-28.007963" lon="153.341922">
				<ele>12.926</ele>
				<time>2015-07-04T07:06:39Z</time>
				<extensions>
				</extensions>
			</trkpt>
			<trkpt lat="-28.007843" lon="153.342091">
				<ele>13.530</ele>
				<time>2015-07-04T07:06:44Z</time>
				<extensions>
				</extensions>
			</trkpt>
			<trkpt lat="-28.007871" lon="153.342311">
				<ele>13.190</ele>
				<time>2015-07-04T07:06:53Z</time>
				<extensions>
				</extensions>
			</trkpt>
			<trkpt lat="-28.007956" lon="153.342326">
				<ele>17.764</ele>
				<time>2015-07-04T08:25:50Z</time>
				<extensions>
				</extensions>
			</trkpt>
			<trkpt lat="-28.007983" lon="153.342303">
				<ele>17.994</ele>
				<time>2015-07-04T08:30:08Z</time>
				<extensions>
				</extensions>
			</trkpt>
			<trkpt lat="-28.007993" lon="153.342297">
				<ele>18.587</ele>
				<time>2015-07-04T08:30:21Z</time>
				<extensions>
				</extensions>
			</trkpt>
			<trkpt lat="-28.008091" lon="153.342493">
				<ele>18.631</ele>
				<time>2015-07-04T08:37:56Z</time>
				<extensions>
				</extensions>
			</trkpt>
			<trkpt lat="-28.007999" lon="153.342668">
				<ele>17.161</ele>
				<time>2015-07-04T08:38:07Z</time>
				<extensions>
				</extensions>
			</trkpt>
			<trkpt lat="-28.007797" lon="153.342539">
				<ele>18.440</ele>
				<time>2015-07-04T08:38:10Z</time>
				<extensions>
				</extensions>
			</trkpt>
			<trkpt lat="-28.007604" lon="153.342375">
				<ele>18.712</ele>
				<time>2015-07-04T08:38:12Z</time>
				<extensions>
				</extensions>
			</trkpt>
			<trkpt lat="-28.007378" lon="153.342187">
				<ele>18.746</ele>
				<time>2015-07-04T08:38:14Z</time>
				<extensions>
				</extensions>
			</trkpt>
			<trkpt lat="-28.007151" lon="153.342008">
				<ele>18.031</ele>
				<time>2015-07-04T08:38:16Z</time>
				<extensions>
				</extensions>
			</trkpt>
			<trkpt lat="-28.006941" lon="153.341853">
				<ele>17.245</ele>
				<time>2015-07-04T08:38:18Z</time>
				<extensions>
				</extensions>
			</trkpt>
			<trkpt lat="-28.006753" lon="153.341701">
				<ele>16.605</ele>
				<time>2015-07-04T08:38:20Z</time>
				<extensions>
				</extensions>
			</trkpt>
			<trkpt lat="-28.006598" lon="153.341565">
				<ele>14.734</ele>
				<time>2015-07-04T08:38:22Z</time>
				<extensions>
				</extensions>
			</trkpt>
			<trkpt lat="-28.006455" lon="153.341421">
				<ele>11.935</ele>
				<time>2015-07-04T08:38:25Z</time>
				<extensions>
				</extensions>
			</trkpt>
			<trkpt lat="-28.006263" lon="153.341298">
				<ele>10.941</ele>
				<time>2015-07-04T08:38:40Z</time>
				<extensions>
				</extensions>
			</trkpt>
			<trkpt lat="-28.006045" lon="153.341167">
				<ele>11.848</ele>
				<time>2015-07-04T08:38:43Z</time>
				<extensions>
				</extensions>
			</trkpt>
			<trkpt lat="-28.005879" lon="153.341040">
				<ele>13.648</ele>
				<time>2015-07-04T08:38:45Z</time>
				<extensions>
				</extensions>
			</trkpt>
			<trkpt lat="-28.005698" lon="153.340896">
				<ele>13.768</ele>
				<time>2015-07-04T08:38:47Z</time>
				<extensions>
				</extensions>
			</trkpt>
			<trkpt lat="-28.005504" lon="153.340750">
				<ele>13.768</ele>
				<time>2015-07-04T08:38:49Z</time>
				<extensions>
				</extensions>
			</trkpt>
			<trkpt lat="-28.005284" lon="153.340608">
				<ele>14.248</ele>
				<time>2015-07-04T08:38:51Z</time>
				<extensions>
				</extensions>
			</trkpt>
			<trkpt lat="-28.005026" lon="153.340471">
				<ele>15.417</ele>
				<time>2015-07-04T08:38:53Z</time>
				<extensions>
				</extensions>
			</trkpt>
			<trkpt lat="-28.004734" lon="153.340324">
				<ele>16.454</ele>
				<time>2015-07-04T08:38:55Z</time>
				<extensions>
				</extensions>
			</trkpt>
			<trkpt lat="-28.004446" lon="153.340173">
				<ele>17.148</ele>
				<time>2015-07-04T08:38:57Z</time>
				<extensions>
				</extensions>
			</trkpt>
			<trkpt lat="-28.004144" lon="153.340025">
				<ele>16.575</ele>
				<time>2015-07-04T08:38:59Z</time>
				<extensions>
				</extensions>
			</trkpt>
			<trkpt lat="-28.003838" lon="153.339886">
				<ele>16.342</ele>
				<time>2015-07-04T08:39:01Z</time>
				<extensions>
				</extensions>
			</trkpt>
			<trkpt lat="-28.003521" lon="153.339731">
				<ele>17.359</ele>
				<time>2015-07-04T08:39:03Z</time>
				<extensions>
				</extensions>
			</trkpt>
			<trkpt lat="-28.003201" lon="153.339575">
				<ele>16.985</ele>
				<time>2015-07-04T08:39:05Z</time>
				<extensions>
				</extensions>
			</trkpt>
			<trkpt lat="-28.002904" lon="153.339433">
				<ele>16.085</ele>
				<time>2015-07-04T08:39:07Z</time>
				<extensions>
				</extensions>
			</trkpt>
			<trkpt lat="-28.002611" lon="153.339339">
				<ele>16.246</ele>
				<time>2015-07-04T08:39:09Z</time>
				<extensions>
				</extensions>
			</trkpt>
			<trkpt lat="-28.002313" lon="153.339254">
				<ele>18.190</ele>
				<time>2015-07-04T08:39:11Z</time>
				<extensions>
				</extensions>
			</trkpt>
			<trkpt lat="-28.001986" lon="153.339232">
				<ele>19.911</ele>
				<time>2015-07-04T08:39:13Z</time>
				<extensions>
				</extensions>
			</trkpt>
			<trkpt lat="-28.001665" lon="153.339239">
				<ele>21.804</ele>
				<time>2015-07-04T08:39:15Z</time>
				<extensions>
				</extensions>
			</trkpt>
			<trkpt lat="-28.001354" lon="153.339275">
				<ele>22.358</ele>
				<time>2015-07-04T08:39:17Z</time>
				<extensions>
				</extensions>
			</trkpt>
			<trkpt lat="-28.001057" lon="153.339355">
				<ele>23.225</ele>
				<time>2015-07-04T08:39:19Z</time>
				<extensions>
				</extensions>
			</trkpt>
			<trkpt lat="-28.000726" lon="153.339401">
				<ele>24.144</ele>
				<time>2015-07-04T08:39:21Z</time>
				<extensions>
				</extensions>
			</trkpt>
			<trkpt lat="-28.000531" lon="153.339417">
				<ele>24.157</ele>
				<time>2015-07-04T08:39:22Z</time>
				<extensions>
				</extensions>
			</trkpt>
			<trkpt lat="-28.000340" lon="153.339440">
				<ele>23.383</ele>
				<time>2015-07-04T08:39:23Z</time>
				<extensions>
				</extensions>
			</trkpt>
			<trkpt lat="-28.000126" lon="153.339450">
				<ele>23.287</ele>
				<time>2015-07-04T08:39:24Z</time>
				<extensions>
				</extensions>
			</trkpt>
			<trkpt lat="-27.999914" lon="153.339460">
				<ele>23.500</ele>
				<time>2015-07-04T08:39:25Z</time>
				<extensions>
				</extensions>
			</trkpt>
			<trkpt lat="-27.999692" lon="153.339482">
				<ele>23.285</ele>
				<time>2015-07-04T08:39:26Z</time>
				<extensions>
				</extensions>
			</trkpt>
			<trkpt lat="-27.999453" lon="153.339499">
				<ele>24.336</ele>
				<time>2015-07-04T08:39:27Z</time>
				<extensions>
				</extensions>
			</trkpt>
			<trkpt lat="-27.999224" lon="153.339521">
				<ele>8.964</ele>
				<time>2015-07-04T08:39:28Z</time>
				<extensions>
				</extensions>
			</trkpt>
			<trkpt lat="-27.998987" lon="153.339551">
				<ele>9.512</ele>
				<time>2015-07-04T08:39:29Z</time>
				<extensions>
				</extensions>
			</trkpt>
			<trkpt lat="-27.998748" lon="153.339583">
				<ele>9.711</ele>
				<time>2015-07-04T08:39:30Z</time>
				<extensions>
				</extensions>
			</trkpt>
			<trkpt lat="-27.998506" lon="153.339644">
				<ele>10.279</ele>
				<time>2015-07-04T08:39:31Z</time>
				<extensions>
				</extensions>
			</trkpt>
			<trkpt lat="-27.998249" lon="153.339639">
				<ele>21.824</ele>
				<time>2015-07-04T08:39:32Z</time>
				<extensions>
				</extensions>
			</trkpt>
			<trkpt lat="-27.998005" lon="153.339672">
				<ele>21.382</ele>
				<time>2015-07-04T08:39:33Z</time>
				<extensions>
				</extensions>
			</trkpt>
			<trkpt lat="-27.997753" lon="153.339704">
				<ele>21.543</ele>
				<time>2015-07-04T08:39:34Z</time>
				<extensions>
				</extensions>
			</trkpt>
			<trkpt lat="-27.997504" lon="153.339731">
				<ele>21.098</ele>
				<time>2015-07-04T08:39:35Z</time>
				<extensions>
				</extensions>
			</trkpt>
			<trkpt lat="-27.997261" lon="153.339763">
				<ele>21.153</ele>
				<time>2015-07-04T08:39:36Z</time>
				<extensions>
				</extensions>
			</trkpt>
			<trkpt lat="-27.997008" lon="153.339796">
				<ele>21.153</ele>
				<time>2015-07-04T08:39:37Z</time>
				<extensions>
				</extensions>
			</trkpt>
			<trkpt lat="-27.996766" lon="153.339837">
				<ele>20.594</ele>
				<time>2015-07-04T08:39:38Z</time>
				<extensions>
				</extensions>
			</trkpt>
			<trkpt lat="-27.996526" lon="153.339869">
				<ele>20.683</ele>
				<time>2015-07-04T08:39:39Z</time>
				<extensions>
				</extensions>
			</trkpt>
			<trkpt lat="-27.996299" lon="153.339898">
				<ele>19.906</ele>
				<time>2015-07-04T08:39:40Z</time>
				<extensions>
				</extensions>
			</trkpt>
			<trkpt lat="-27.996074" lon="153.339923">
				<ele>18.035</ele>
				<time>2015-07-04T08:39:41Z</time>
				<extensions>
				</extensions>
			</trkpt>
			<trkpt lat="-27.995825" lon="153.339942">
				<ele>19.005</ele>
				<time>2015-07-04T08:39:42Z</time>
				<extensions>
				</extensions>
			</trkpt>
			<trkpt lat="-27.995580" lon="153.339976">
				<ele>19.622</ele>
				<time>2015-07-04T08:39:43Z</time>
				<extensions>
				</extensions>
			</trkpt>
			<trkpt lat="-27.995338" lon="153.339984">
				<ele>20.211</ele>
				<time>2015-07-04T08:39:44Z</time>
				<extensions>
				</extensions>
			</trkpt>
			<trkpt lat="-27.995100" lon="153.339991">
				<ele>18.998</ele>
				<time>2015-07-04T08:39:45Z</time>
				<extensions>
				</extensions>
			</trkpt>
			<trkpt lat="-27.994852" lon="153.340005">
				<ele>19.768</ele>
				<time>2015-07-04T08:39:46Z</time>
				<extensions>
				</extensions>
			</trkpt>
			<trkpt lat="-27.994602" lon="153.340012">
				<ele>19.251</ele>
				<time>2015-07-04T08:39:47Z</time>
				<extensions>
				</extensions>
			</trkpt>
			<trkpt lat="-27.994353" lon="153.340023">
				<ele>19.603</ele>
				<time>2015-07-04T08:39:48Z</time>
				<extensions>
				</extensions>
			</trkpt>
			<trkpt lat="-27.994103" lon="153.340036">
				<ele>18.760</ele>
				<time>2015-07-04T08:39:49Z</time>
				<extensions>
				</extensions>
			</trkpt>
			<trkpt lat="-27.993856" lon="153.340042">
				<ele>19.091</ele>
				<time>2015-07-04T08:39:50Z</time>
				<extensions>
				</extensions>
			</trkpt>
			<trkpt lat="-27.993607" lon="153.340050">
				<ele>17.979</ele>
				<time>2015-07-04T08:39:51Z</time>
				<extensions>
				</extensions>
			</trkpt>
			<trkpt lat="-27.993359" lon="153.340075">
				<ele>18.224</ele>
				<time>2015-07-04T08:39:52Z</time>
				<extensions>
				</extensions>
			</trkpt>
			<trkpt lat="-27.993117" lon="153.340072">
				<ele>18.122</ele>
				<time>2015-07-04T08:39:53Z</time>
				<extensions>
				</extensions>
			</trkpt>
			<trkpt lat="-27.992870" lon="153.340089">
				<ele>17.679</ele>
				<time>2015-07-04T08:39:54Z</time>
				<extensions>
				</extensions>
			</trkpt>
			<trkpt lat="-27.992626" lon="153.340110">
				<ele>16.844</ele>
				<time>2015-07-04T08:39:55Z</time>
				<extensions>
				</extensions>
			</trkpt>
			<trkpt lat="-27.992372" lon="153.340139">
				<ele>18.139</ele>
				<time>2015-07-04T08:39:56Z</time>
				<extensions>
				</extensions>
			</trkpt>
			<trkpt lat="-27.992123" lon="153.340170">
				<ele>19.080</ele>
				<time>2015-07-04T08:39:57Z</time>
				<extensions>
				</extensions>
			</trkpt>
			<trkpt lat="-27.991871" lon="153.340203">
				<ele>17.959</ele>
				<time>2015-07-04T08:39:58Z</time>
				<extensions>
				</extensions>
			</trkpt>
			<trkpt lat="-27.991634" lon="153.340229">
				<ele>17.456</ele>
				<time>2015-07-04T08:39:59Z</time>
				<extensions>
				</extensions>
			</trkpt>
			<trkpt lat="-27.991380" lon="153.340273">
				<ele>16.289</ele>
				<time>2015-07-04T08:40:00Z</time>
				<extensions>
				</extensions>
			</trkpt>
			<trkpt lat="-27.991129" lon="153.340312">
				<ele>16.087</ele>
				<time>2015-07-04T08:40:01Z</time>
				<extensions>
				</extensions>
			</trkpt>
			<trkpt lat="-27.990879" lon="153.340348">
				<ele>16.654</ele>
				<time>2015-07-04T08:40:02Z</time>
				<extensions>
				</extensions>
			</trkpt>
			<trkpt lat="-27.990637" lon="153.340386">
				<ele>15.874</ele>
				<time>2015-07-04T08:40:03Z</time>
				<extensions>
				</extensions>
			</trkpt>
			<trkpt lat="-27.990391" lon="153.340430">
				<ele>15.464</ele>
				<time>2015-07-04T08:40:04Z</time>
				<extensions>
				</extensions>
			</trkpt>
			<trkpt lat="-27.990129" lon="153.340469">
				<ele>15.599</ele>
				<time>2015-07-04T08:40:05Z</time>
				<extensions>
				</extensions>
			</trkpt>
			<trkpt lat="-27.989877" lon="153.340511">
				<ele>15.670</ele>
				<time>2015-07-04T08:40:06Z</time>
				<extensions>
				</extensions>
			</trkpt>
			<trkpt lat="-27.989626" lon="153.340550">
				<ele>14.541</ele>
				<time>2015-07-04T08:40:07Z</time>
				<extensions>
				</extensions>
			</trkpt>
			<trkpt lat="-27.989374" lon="153.340594">
				<ele>14.916</ele>
				<time>2015-07-04T08:40:08Z</time>
				<extensions>
				</extensions>
			</trkpt>
			<trkpt lat="-27.989120" lon="153.340634">
				<ele>13.911</ele>
				<time>2015-07-04T08:40:09Z</time>
				<extensions>
				</extensions>
			</trkpt>
			<trkpt lat="-27.988870" lon="153.340671">
				<ele>14.772</ele>
				<time>2015-07-04T08:40:10Z</time>
				<extensions>
				</extensions>
			</trkpt>
			<trkpt lat="-27.988610" lon="153.340716">
				<ele>15.016</ele>
				<time>2015-07-04T08:40:11Z</time>
				<extensions>
				</extensions>
			</trkpt>
			<trkpt lat="-27.988358" lon="153.340755">
				<ele>14.484</ele>
				<time>2015-07-04T08:40:12Z</time>
				<extensions>
				</extensions>
			</trkpt>
			<trkpt lat="-27.988108" lon="153.340795">
				<ele>13.929</ele>
				<time>2015-07-04T08:40:13Z</time>
				<extensions>
				</extensions>
			</trkpt>
			<trkpt lat="-27.987859" lon="153.340834">
				<ele>14.200</ele>
				<time>2015-07-04T08:40:14Z</time>
				<extensions>
				</extensions>
			</trkpt>
			<trkpt lat="-27.987607" lon="153.340871">
				<ele>14.093</ele>
				<time>2015-07-04T08:40:15Z</time>
				<extensions>
				</extensions>
			</trkpt>
			<trkpt lat="-27.987359" lon="153.340914">
				<ele>13.826</ele>
				<time>2015-07-04T08:40:16Z</time>
				<extensions>
				</extensions>
			</trkpt>
			<trkpt lat="-27.987106" lon="153.340960">
				<ele>13.592</ele>
				<time>2015-07-04T08:40:17Z</time>
				<extensions>
				</extensions>
			</trkpt>
			<trkpt lat="-27.986869" lon="153.341001">
				<ele>15.859</ele>
				<time>2015-07-04T08:40:18Z</time>
				<extensions>
				</extensions>
			</trkpt>
			<trkpt lat="-27.986611" lon="153.341043">
				<ele>16.634</ele>
				<time>2015-07-04T08:40:19Z</time>
				<extensions>
				</extensions>
			</trkpt>
			<trkpt lat="-27.986360" lon="153.341083">
				<ele>16.673</ele>
				<time>2015-07-04T08:40:20Z</time>
				<extensions>
				</extensions>
			</trkpt>
			<trkpt lat="-27.986113" lon="153.341122">
				<ele>17.606</ele>
				<time>2015-07-04T08:40:21Z</time>
				<extensions>
				</extensions>
			</trkpt>
			<trkpt lat="-27.985867" lon="153.341158">
				<ele>16.614</ele>
				<time>2015-07-04T08:40:22Z</time>
				<extensions>
				</extensions>
			</trkpt>
			<trkpt lat="-27.985623" lon="153.341200">
				<ele>17.739</ele>
				<time>2015-07-04T08:40:23Z</time>
				<extensions>
				</extensions>
			</trkpt>
			<trkpt lat="-27.985372" lon="153.341249">
				<ele>18.502</ele>
				<time>2015-07-04T08:40:24Z</time>
				<extensions>
				</extensions>
			</trkpt>
			<trkpt lat="-27.985125" lon="153.341283">
				<ele>19.327</ele>
				<time>2015-07-04T08:40:25Z</time>
				<extensions>
				</extensions>
			</trkpt>
			<trkpt lat="-27.984877" lon="153.341323">
				<ele>19.885</ele>
				<time>2015-07-04T08:40:26Z</time>
				<extensions>
				</extensions>
			</trkpt>
			<trkpt lat="-27.984623" lon="153.341369">
				<ele>19.373</ele>
				<time>2015-07-04T08:40:27Z</time>
				<extensions>
				</extensions>
			</trkpt>
			<trkpt lat="-27.984376" lon="153.341407">
				<ele>20.741</ele>
				<time>2015-07-04T08:40:28Z</time>
				<extensions>
				</extensions>
			</trkpt>
			<trkpt lat="-27.984134" lon="153.341438">
				<ele>19.880</ele>
				<time>2015-07-04T08:40:29Z</time>
				<extensions>
				</extensions>
			</trkpt>
			<trkpt lat="-27.983879" lon="153.341484">
				<ele>20.011</ele>
				<time>2015-07-04T08:40:30Z</time>
				<extensions>
				</extensions>
			</trkpt>
			<trkpt lat="-27.983625" lon="153.341523">
				<ele>19.612</ele>
				<time>2015-07-04T08:40:31Z</time>
				<extensions>
				</extensions>
			</trkpt>
			<trkpt lat="-27.983377" lon="153.341561">
				<ele>20.942</ele>
				<time>2015-07-04T08:40:32Z</time>
				<extensions>
				</extensions>
			</trkpt>
			<trkpt lat="-27.983123" lon="153.341596">
				<ele>20.293</ele>
				<time>2015-07-04T08:40:33Z</time>
				<extensions>
				</extensions>
			</trkpt>
			<trkpt lat="-27.982881" lon="153.341637">
				<ele>20.311</ele>
				<time>2015-07-04T08:40:34Z</time>
				<extensions>
				</extensions>
			</trkpt>
			<trkpt lat="-27.982635" lon="153.341674">
				<ele>22.308</ele>
				<time>2015-07-04T08:40:35Z</time>
				<extensions>
				</extensions>
			</trkpt>
			<trkpt lat="-27.982389" lon="153.341713">
				<ele>20.142</ele>
				<time>2015-07-04T08:40:36Z</time>
				<extensions>
				</extensions>
			</trkpt>
			<trkpt lat="-27.982149" lon="153.341753">
				<ele>20.333</ele>
				<time>2015-07-04T08:40:37Z</time>
				<extensions>
				</extensions>
			</trkpt>
			<trkpt lat="-27.981921" lon="153.341794">
				<ele>20.333</ele>
				<time>2015-07-04T08:40:38Z</time>
				<extensions>
				</extensions>
			</trkpt>
			<trkpt lat="-27.981683" lon="153.341834">
				<ele>18.814</ele>
				<time>2015-07-04T08:40:39Z</time>
				<extensions>
				</extensions>
			</trkpt>
			<trkpt lat="-27.981447" lon="153.341862">
				<ele>18.262</ele>
				<time>2015-07-04T08:40:40Z</time>
				<extensions>
				</extensions>
			</trkpt>
			<trkpt lat="-27.981212" lon="153.341913">
				<ele>16.956</ele>
				<time>2015-07-04T08:40:41Z</time>
				<extensions>
				</extensions>
			</trkpt>
			<trkpt lat="-27.980971" lon="153.341963">
				<ele>16.688</ele>
				<time>2015-07-04T08:40:42Z</time>
				<extensions>
				</extensions>
			</trkpt>
			<trkpt lat="-27.980734" lon="153.342020">
				<ele>17.681</ele>
				<time>2015-07-04T08:40:43Z</time>
				<extensions>
				</extensions>
			</trkpt>
			<trkpt lat="-27.980496" lon="153.342079">
				<ele>17.138</ele>
				<time>2015-07-04T08:40:44Z</time>
				<extensions>
				</extensions>
			</trkpt>
			<trkpt lat="-27.980264" lon="153.342158">
				<ele>16.467</ele>
				<time>2015-07-04T08:40:45Z</time>
				<extensions>
				</extensions>
			</trkpt>
			<trkpt lat="-27.980020" lon="153.342237">
				<ele>17.314</ele>
				<time>2015-07-04T08:40:46Z</time>
				<extensions>
				</extensions>
			</trkpt>
			<trkpt lat="-27.979782" lon="153.342333">
				<ele>15.941</ele>
				<time>2015-07-04T08:40:47Z</time>
				<extensions>
				</extensions>
			</trkpt>
			<trkpt lat="-27.979547" lon="153.342432">
				<ele>16.546</ele>
				<time>2015-07-04T08:40:48Z</time>
				<extensions>
				</extensions>
			</trkpt>
			<trkpt lat="-27.979309" lon="153.342531">
				<ele>15.677</ele>
				<time>2015-07-04T08:40:49Z</time>
				<extensions>
				</extensions>
			</trkpt>
			<trkpt lat="-27.979085" lon="153.342643">
				<ele>15.733</ele>
				<time>2015-07-04T08:40:50Z</time>
				<extensions>
				</extensions>
			</trkpt>
			<trkpt lat="-27.978848" lon="153.342768">
				<ele>16.019</ele>
				<time>2015-07-04T08:40:51Z</time>
				<extensions>
				</extensions>
			</trkpt>
			<trkpt lat="-27.978619" lon="153.342909">
				<ele>16.725</ele>
				<time>2015-07-04T08:40:52Z</time>
				<extensions>
				</extensions>
			</trkpt>
			<trkpt lat="-27.978392" lon="153.343039">
				<ele>15.512</ele>
				<time>2015-07-04T08:40:53Z</time>
				<extensions>
				</extensions>
			</trkpt>
			<trkpt lat="-27.978171" lon="153.343185">
				<ele>16.279</ele>
				<time>2015-07-04T08:40:54Z</time>
				<extensions>
				</extensions>
			</trkpt>
			<trkpt lat="-27.977961" lon="153.343342">
				<ele>16.904</ele>
				<time>2015-07-04T08:40:55Z</time>
				<extensions>
				</extensions>
			</trkpt>
			<trkpt lat="-27.977751" lon="153.343498">
				<ele>17.646</ele>
				<time>2015-07-04T08:40:56Z</time>
				<extensions>
				</extensions>
			</trkpt>
			<trkpt lat="-27.977552" lon="153.343661">
				<ele>18.283</ele>
				<time>2015-07-04T08:40:57Z</time>
				<extensions>
				</extensions>
			</trkpt>
			<trkpt lat="-27.977349" lon="153.343830">
				<ele>18.596</ele>
				<time>2015-07-04T08:40:58Z</time>
				<extensions>
				</extensions>
			</trkpt>
			<trkpt lat="-27.977155" lon="153.344006">
				<ele>21.029</ele>
				<time>2015-07-04T08:40:59Z</time>
				<extensions>
				</extensions>
			</trkpt>
			<trkpt lat="-27.976957" lon="153.344183">
				<ele>22.790</ele>
				<time>2015-07-04T08:41:00Z</time>
				<extensions>
				</extensions>
			</trkpt>
			<trkpt lat="-27.976756" lon="153.344364">
				<ele>22.871</ele>
				<time>2015-07-04T08:41:01Z</time>
				<extensions>
				</extensions>
			</trkpt>
			<trkpt lat="-27.976567" lon="153.344541">
				<ele>24.502</ele>
				<time>2015-07-04T08:41:02Z</time>
				<extensions>
				</extensions>
			</trkpt>
			<trkpt lat="-27.976367" lon="153.344719">
				<ele>24.933</ele>
				<time>2015-07-04T08:41:03Z</time>
				<extensions>
				</extensions>
			</trkpt>
			<trkpt lat="-27.976165" lon="153.344893">
				<ele>28.058</ele>
				<time>2015-07-04T08:41:04Z</time>
				<extensions>
				</extensions>
			</trkpt>
			<trkpt lat="-27.975957" lon="153.345064">
				<ele>28.526</ele>
				<time>2015-07-04T08:41:05Z</time>
				<extensions>
				</extensions>
			</trkpt>
			<trkpt lat="-27.975752" lon="153.345222">
				<ele>30.250</ele>
				<time>2015-07-04T08:41:06Z</time>
				<extensions>
				</extensions>
			</trkpt>
			<trkpt lat="-27.975528" lon="153.345377">
				<ele>30.442</ele>
				<time>2015-07-04T08:41:07Z</time>
				<extensions>
				</extensions>
			</trkpt>
			<trkpt lat="-27.975306" lon="153.345523">
				<ele>31.522</ele>
				<time>2015-07-04T08:41:08Z</time>
				<extensions>
				</extensions>
			</trkpt>
			<trkpt lat="-27.975093" lon="153.345662">
				<ele>33.355</ele>
				<time>2015-07-04T08:41:09Z</time>
				<extensions>
				</extensions>
			</trkpt>
			<trkpt lat="-27.974876" lon="153.345795">
				<ele>34.744</ele>
				<time>2015-07-04T08:41:10Z</time>
				<extensions>
				</extensions>
			</trkpt>
			<trkpt lat="-27.974650" lon="153.345918">
				<ele>37.062</ele>
				<time>2015-07-04T08:41:11Z</time>
				<extensions>
				</extensions>
			</trkpt>
			<trkpt lat="-27.974428" lon="153.346041">
				<ele>37.374</ele>
				<time>2015-07-04T08:41:12Z</time>
				<extensions>
				</extensions>
			</trkpt>
			<trkpt lat="-27.974207" lon="153.346155">
				<ele>38.328</ele>
				<time>2015-07-04T08:41:13Z</time>
				<extensions>
				</extensions>
			</trkpt>
			<trkpt lat="-27.973978" lon="153.346261">
				<ele>38.139</ele>
				<time>2015-07-04T08:41:14Z</time>
				<extensions>
				</extensions>
			</trkpt>
			<trkpt lat="-27.973748" lon="153.346350">
				<ele>40.651</ele>
				<time>2015-07-04T08:41:15Z</time>
				<extensions>
				</extensions>
			</trkpt>
			<trkpt lat="-27.973508" lon="153.346438">
				<ele>41.132</ele>
				<time>2015-07-04T08:41:16Z</time>
				<extensions>
				</extensions>
			</trkpt>
			<trkpt lat="-27.973270" lon="153.346520">
				<ele>42.173</ele>
				<time>2015-07-04T08:41:17Z</time>
				<extensions>
				</extensions>
			</trkpt>
			<trkpt lat="-27.973035" lon="153.346593">
				<ele>42.255</ele>
				<time>2015-07-04T08:41:18Z</time>
				<extensions>
				</extensions>
			</trkpt>
			<trkpt lat="-27.972797" lon="153.346656">
				<ele>42.967</ele>
				<time>2015-07-04T08:41:19Z</time>
				<extensions>
				</extensions>
			</trkpt>
			<trkpt lat="-27.972557" lon="153.346715">
				<ele>42.290</ele>
				<time>2015-07-04T08:41:20Z</time>
				<extensions>
				</extensions>
			</trkpt>
			<trkpt lat="-27.972315" lon="153.346762">
				<ele>42.835</ele>
				<time>2015-07-04T08:41:21Z</time>
				<extensions>
				</extensions>
			</trkpt>
			<trkpt lat="-27.972068" lon="153.346803">
				<ele>43.723</ele>
				<time>2015-07-04T08:41:22Z</time>
				<extensions>
				</extensions>
			</trkpt>
			<trkpt lat="-27.971813" lon="153.346840">
				<ele>43.449</ele>
				<time>2015-07-04T08:41:23Z</time>
				<extensions>
				</extensions>
			</trkpt>
			<trkpt lat="-27.971559" lon="153.346869">
				<ele>43.985</ele>
				<time>2015-07-04T08:41:24Z</time>
				<extensions>
				</extensions>
			</trkpt>
			<trkpt lat="-27.971302" lon="153.346902">
				<ele>44.533</ele>
				<time>2015-07-04T08:41:25Z</time>
				<extensions>
				</extensions>
			</trkpt>
			<trkpt lat="-27.971053" lon="153.346923">
				<ele>43.989</ele>
				<time>2015-07-04T08:41:26Z</time>
				<extensions>
				</extensions>
			</trkpt>
			<trkpt lat="-27.970800" lon="153.346939">
				<ele>43.654</ele>
				<time>2015-07-04T08:41:27Z</time>
				<extensions>
				</extensions>
			</trkpt>
			<trkpt lat="-27.970544" lon="153.346942">
				<ele>42.829</ele>
				<time>2015-07-04T08:41:28Z</time>
				<extensions>
				</extensions>
			</trkpt>
			<trkpt lat="-27.970291" lon="153.346947">
				<ele>42.577</ele>
				<time>2015-07-04T08:41:29Z</time>
				<extensions>
				</extensions>
			</trkpt>
			<trkpt lat="-27.970044" lon="153.346950">
				<ele>41.992</ele>
				<time>2015-07-04T08:41:30Z</time>
				<extensions>
				</extensions>
			</trkpt>
			<trkpt lat="-27.969789" lon="153.346944">
				<ele>41.109</ele>
				<time>2015-07-04T08:41:31Z</time>
				<extensions>
				</extensions>
			</trkpt>
			<trkpt lat="-27.969541" lon="153.346935">
				<ele>40.293</ele>
				<time>2015-07-04T08:41:32Z</time>
				<extensions>
				</extensions>
			</trkpt>
			<trkpt lat="-27.969291" lon="153.346924">
				<ele>38.199</ele>
				<time>2015-07-04T08:41:33Z</time>
				<extensions>
				</extensions>
			</trkpt>
			<trkpt lat="-27.969039" lon="153.346902">
				<ele>36.786</ele>
				<time>2015-07-04T08:41:34Z</time>
				<extensions>
				</extensions>
			</trkpt>
			<trkpt lat="-27.968790" lon="153.346872">
				<ele>35.833</ele>
				<time>2015-07-04T08:41:35Z</time>
				<extensions>
				</extensions>
			</trkpt>
			<trkpt lat="-27.968546" lon="153.346839">
				<ele>35.451</ele>
				<time>2015-07-04T08:41:36Z</time>
				<extensions>
				</extensions>
			</trkpt>
			<trkpt lat="-27.968299" lon="153.346806">
				<ele>34.566</ele>
				<time>2015-07-04T08:41:37Z</time>
				<extensions>
				</extensions>
			</trkpt>
			<trkpt lat="-27.968046" lon="153.346756">
				<ele>34.277</ele>
				<time>2015-07-04T08:41:38Z</time>
				<extensions>
				</extensions>
			</trkpt>
			<trkpt lat="-27.967798" lon="153.346703">
				<ele>32.076</ele>
				<time>2015-07-04T08:41:39Z</time>
				<extensions>
				</extensions>
			</trkpt>
			<trkpt lat="-27.967559" lon="153.346648">
				<ele>32.076</ele>
				<time>2015-07-04T08:41:40Z</time>
				<extensions>
				</extensions>
			</trkpt>
			<trkpt lat="-27.967309" lon="153.346590">
				<ele>29.869</ele>
				<time>2015-07-04T08:41:41Z</time>
				<extensions>
				</extensions>
			</trkpt>
			<trkpt lat="-27.967062" lon="153.346528">
				<ele>29.393</ele>
				<time>2015-07-04T08:41:42Z</time>
				<extensions>
				</extensions>
			</trkpt>
			<trkpt lat="-27.966809" lon="153.346463">
				<ele>28.338</ele>
				<time>2015-07-04T08:41:43Z</time>
				<extensions>
				</extensions>
			</trkpt>
			<trkpt lat="-27.966568" lon="153.346387">
				<ele>26.107</ele>
				<time>2015-07-04T08:41:44Z</time>
				<extensions>
				</extensions>
			</trkpt>
			<trkpt lat="-27.966312" lon="153.346304">
				<ele>26.242</ele>
				<time>2015-07-04T08:41:45Z</time>
				<extensions>
				</extensions>
			</trkpt>
			<trkpt lat="-27.966069" lon="153.346226">
				<ele>26.400</ele>
				<time>2015-07-04T08:41:46Z</time>
				<extensions>
				</extensions>
			</trkpt>
			<trkpt lat="-27.965829" lon="153.346146">
				<ele>23.384</ele>
				<time>2015-07-04T08:41:47Z</time>
				<extensions>
				</extensions>
			</trkpt>
			<trkpt lat="-27.965581" lon="153.346071">
				<ele>22.397</ele>
				<time>2015-07-04T08:41:48Z</time>
				<extensions>
				</extensions>
			</trkpt>
			<trkpt lat="-27.965338" lon="153.345993">
				<ele>21.562</ele>
				<time>2015-07-04T08:41:49Z</time>
				<extensions>
				</extensions>
			</trkpt>
			<trkpt lat="-27.965092" lon="153.345921">
				<ele>21.322</ele>
				<time>2015-07-04T08:41:50Z</time>
				<extensions>
				</extensions>
			</trkpt>
			<trkpt lat="-27.964847" lon="153.345853">
				<ele>19.998</ele>
				<time>2015-07-04T08:41:51Z</time>
				<extensions>
				</extensions>
			</trkpt>
			<trkpt lat="-27.964605" lon="153.345786">
				<ele>20.516</ele>
				<time>2015-07-04T08:41:52Z</time>
				<extensions>
				</extensions>
			</trkpt>
			<trkpt lat="-27.964364" lon="153.345724">
				<ele>20.008</ele>
				<time>2015-07-04T08:41:53Z</time>
				<extensions>
				</extensions>
			</trkpt>
			<trkpt lat="-27.964123" lon="153.345664">
				<ele>19.389</ele>
				<time>2015-07-04T08:41:54Z</time>
				<extensions>
				</extensions>
			</trkpt>
			<trkpt lat="-27.963879" lon="153.345601">
				<ele>18.767</ele>
				<time>2015-07-04T08:41:55Z</time>
				<extensions>
				</extensions>
			</trkpt>
			<trkpt lat="-27.963633" lon="153.345544">
				<ele>18.734</ele>
				<time>2015-07-04T08:41:56Z</time>
				<extensions>
				</extensions>
			</trkpt>
			<trkpt lat="-27.963382" lon="153.345487">
				<ele>19.258</ele>
				<time>2015-07-04T08:41:57Z</time>
				<extensions>
				</extensions>
			</trkpt>
			<trkpt lat="-27.963131" lon="153.345432">
				<ele>18.395</ele>
				<time>2015-07-04T08:41:58Z</time>
				<extensions>
				</extensions>
			</trkpt>
			<trkpt lat="-27.962881" lon="153.345380">
				<ele>18.750</ele>
				<time>2015-07-04T08:41:59Z</time>
				<extensions>
				</extensions>
			</trkpt>
			<trkpt lat="-27.962629" lon="153.345334">
				<ele>18.625</ele>
				<time>2015-07-04T08:42:00Z</time>
				<extensions>
				</extensions>
			</trkpt>
			<trkpt lat="-27.962374" lon="153.345290">
				<ele>17.963</ele>
				<time>2015-07-04T08:42:01Z</time>
				<extensions>
				</extensions>
			</trkpt>
			<trkpt lat="-27.962125" lon="153.345248">
				<ele>17.252</ele>
				<time>2015-07-04T08:42:02Z</time>
				<extensions>
				</extensions>
			</trkpt>
			<trkpt lat="-27.961874" lon="153.345206">
				<ele>16.919</ele>
				<time>2015-07-04T08:42:03Z</time>
				<extensions>
				</extensions>
			</trkpt>
			<trkpt lat="-27.961622" lon="153.345169">
				<ele>16.921</ele>
				<time>2015-07-04T08:42:04Z</time>
				<extensions>
				</extensions>
			</trkpt>
			<trkpt lat="-27.961369" lon="153.345137">
				<ele>15.858</ele>
				<time>2015-07-04T08:42:05Z</time>
				<extensions>
				</extensions>
			</trkpt>
			<trkpt lat="-27.961114" lon="153.345104">
				<ele>15.931</ele>
				<time>2015-07-04T08:42:06Z</time>
				<extensions>
				</extensions>
			</trkpt>
			<trkpt lat="-27.960866" lon="153.345072">
				<ele>15.325</ele>
				<time>2015-07-04T08:42:07Z</time>
				<extensions>
				</extensions>
			</trkpt>
			<trkpt lat="-27.960618" lon="153.345042">
				<ele>15.448</ele>
				<time>2015-07-04T08:42:08Z</time>
				<extensions>
				</extensions>
			</trkpt>
			<trkpt lat="-27.960367" lon="153.345015">
				<ele>13.421</ele>
				<time>2015-07-04T08:42:09Z</time>
				<extensions>
				</extensions>
			</trkpt>
			<trkpt lat="-27.960119" lon="153.344990">
				<ele>14.662</ele>
				<time>2015-07-04T08:42:10Z</time>
				<extensions>
				</extensions>
			</trkpt>
			<trkpt lat="-27.959868" lon="153.344963">
				<ele>13.308</ele>
				<time>2015-07-04T08:42:11Z</time>
				<extensions>
				</extensions>
			</trkpt>
			<trkpt lat="-27.959617" lon="153.344934">
				<ele>13.652</ele>
				<time>2015-07-04T08:42:12Z</time>
				<extensions>
				</extensions>
			</trkpt>
			<trkpt lat="-27.959356" lon="153.344896">
				<ele>13.057</ele>
				<time>2015-07-04T08:42:13Z</time>
				<extensions>
				</extensions>
			</trkpt>
			<trkpt lat="-27.959105" lon="153.344865">
				<ele>12.738</ele>
				<time>2015-07-04T08:42:14Z</time>
				<extensions>
				</extensions>
			</trkpt>
			<trkpt lat="-27.958851" lon="153.344829">
				<ele>12.302</ele>
				<time>2015-07-04T08:42:15Z</time>
				<extensions>
				</extensions>
			</trkpt>
			<trkpt lat="-27.958600" lon="153.344791">
				<ele>12.754</ele>
				<time>2015-07-04T08:42:16Z</time>
				<extensions>
				</extensions>
			</trkpt>
			<trkpt lat="-27.958345" lon="153.344754">
				<ele>13.398</ele>
				<time>2015-07-04T08:42:17Z</time>
				<extensions>
				</extensions>
			</trkpt>
			<trkpt lat="-27.958093" lon="153.344713">
				<ele>13.864</ele>
				<time>2015-07-04T08:42:18Z</time>
				<extensions>
				</extensions>
			</trkpt>
			<trkpt lat="-27.957840" lon="153.344667">
				<ele>14.090</ele>
				<time>2015-07-04T08:42:19Z</time>
				<extensions>
				</extensions>
			</trkpt>
			<trkpt lat="-27.957587" lon="153.344618">
				<ele>13.660</ele>
				<time>2015-07-04T08:42:20Z</time>
				<extensions>
				</extensions>
			</trkpt>
			<trkpt lat="-27.957340" lon="153.344565">
				<ele>11.669</ele>
				<time>2015-07-04T08:42:21Z</time>
				<extensions>
				</extensions>
			</trkpt>
			<trkpt lat="-27.957089" lon="153.344511">
				<ele>11.181</ele>
				<time>2015-07-04T08:42:22Z</time>
				<extensions>
				</extensions>
			</trkpt>
			<trkpt lat="-27.956838" lon="153.344450">
				<ele>11.878</ele>
				<time>2015-07-04T08:42:23Z</time>
				<extensions>
				</extensions>
			</trkpt>
			<trkpt lat="-27.956594" lon="153.344392">
				<ele>10.745</ele>
				<time>2015-07-04T08:42:24Z</time>
				<extensions>
				</extensions>
			</trkpt>
			<trkpt lat="-27.956357" lon="153.344333">
				<ele>9.780</ele>
				<time>2015-07-04T08:42:25Z</time>
				<extensions>
				</extensions>
			</trkpt>
			<trkpt lat="-27.956116" lon="153.344273">
				<ele>8.868</ele>
				<time>2015-07-04T08:42:26Z</time>
				<extensions>
				</extensions>
			</trkpt>
			<trkpt lat="-27.955876" lon="153.344209">
				<ele>8.798</ele>
				<time>2015-07-04T08:42:27Z</time>
				<extensions>
				</extensions>
			</trkpt>
			<trkpt lat="-27.955641" lon="153.344141">
				<ele>10.491</ele>
				<time>2015-07-04T08:42:28Z</time>
				<extensions>
				</extensions>
			</trkpt>
			<trkpt lat="-27.955404" lon="153.344073">
				<ele>11.725</ele>
				<time>2015-07-04T08:42:29Z</time>
				<extensions>
				</extensions>
			</trkpt>
			<trkpt lat="-27.955172" lon="153.343999">
				<ele>10.336</ele>
				<time>2015-07-04T08:42:30Z</time>
				<extensions>
				</extensions>
			</trkpt>
			<trkpt lat="-27.954935" lon="153.343921">
				<ele>9.820</ele>
				<time>2015-07-04T08:42:31Z</time>
				<extensions>
				</extensions>
			</trkpt>
			<trkpt lat="-27.954702" lon="153.343847">
				<ele>10.790</ele>
				<time>2015-07-04T08:42:32Z</time>
				<extensions>
				</extensions>
			</trkpt>
			<trkpt lat="-27.954469" lon="153.343768">
				<ele>7.887</ele>
				<time>2015-07-04T08:42:33Z</time>
				<extensions>
				</extensions>
			</trkpt>
			<trkpt lat="-27.954241" lon="153.343688">
				<ele>7.072</ele>
				<time>2015-07-04T08:42:34Z</time>
				<extensions>
				</extensions>
			</trkpt>
			<trkpt lat="-27.954021" lon="153.343613">
				<ele>6.557</ele>
				<time>2015-07-04T08:42:35Z</time>
				<extensions>
				</extensions>
			</trkpt>
			<trkpt lat="-27.953798" lon="153.343533">
				<ele>5.421</ele>
				<time>2015-07-04T08:42:36Z</time>
				<extensions>
				</extensions>
			</trkpt>
			<trkpt lat="-27.953571" lon="153.343450">
				<ele>5.567</ele>
				<time>2015-07-04T08:42:37Z</time>
				<extensions>
				</extensions>
			</trkpt>
			<trkpt lat="-27.953347" lon="153.343362">
				<ele>6.475</ele>
				<time>2015-07-04T08:42:38Z</time>
				<extensions>
				</extensions>
			</trkpt>
			<trkpt lat="-27.953119" lon="153.343273">
				<ele>6.100</ele>
				<time>2015-07-04T08:42:39Z</time>
				<extensions>
				</extensions>
			</trkpt>
			<trkpt lat="-27.952896" lon="153.343182">
				<ele>7.175</ele>
				<time>2015-07-04T08:42:40Z</time>
				<extensions>
				</extensions>
			</trkpt>
			<trkpt lat="-27.952671" lon="153.343089">
				<ele>6.322</ele>
				<time>2015-07-04T08:42:41Z</time>
				<extensions>
				</extensions>
			</trkpt>
			<trkpt lat="-27.952449" lon="153.342990">
				<ele>6.855</ele>
				<time>2015-07-04T08:42:42Z</time>
				<extensions>
				</extensions>
			</trkpt>
			<trkpt lat="-27.952221" lon="153.342886">
				<ele>6.855</ele>
				<time>2015-07-04T08:42:43Z</time>
				<extensions>
				</extensions>
			</trkpt>
			<trkpt lat="-27.951990" lon="153.342777">
				<ele>6.079</ele>
				<time>2015-07-04T08:42:44Z</time>
				<extensions>
				</extensions>
			</trkpt>
			<trkpt lat="-27.951759" lon="153.342663">
				<ele>7.220</ele>
				<time>2015-07-04T08:42:45Z</time>
				<extensions>
				</extensions>
			</trkpt>
			<trkpt lat="-27.951526" lon="153.342550">
				<ele>10.063</ele>
				<time>2015-07-04T08:42:46Z</time>
				<extensions>
				</extensions>
			</trkpt>
			<trkpt lat="-27.951296" lon="153.342435">
				<ele>9.651</ele>
				<time>2015-07-04T08:42:47Z</time>
				<extensions>
				</extensions>
			</trkpt>
			<trkpt lat="-27.951064" lon="153.342320">
				<ele>9.218</ele>
				<time>2015-07-04T08:42:48Z</time>
				<extensions>
				</extensions>
			</trkpt>
			<trkpt lat="-27.950832" lon="153.342218">
				<ele>9.024</ele>
				<time>2015-07-04T08:42:49Z</time>
				<extensions>
				</extensions>
			</trkpt>
			<trkpt lat="-27.950624" lon="153.342107">
				<ele>7.986</ele>
				<time>2015-07-04T08:42:50Z</time>
				<extensions>
				</extensions>
			</trkpt>
			<trkpt lat="-27.950411" lon="153.341992">
				<ele>7.386</ele>
				<time>2015-07-04T08:42:51Z</time>
				<extensions>
				</extensions>
			</trkpt>
			<trkpt lat="-27.950194" lon="153.341875">
				<ele>7.614</ele>
				<time>2015-07-04T08:42:52Z</time>
				<extensions>
				</extensions>
			</trkpt>
			<trkpt lat="-27.949977" lon="153.341762">
				<ele>8.485</ele>
				<time>2015-07-04T08:42:53Z</time>
				<extensions>
				</extensions>
			</trkpt>
			<trkpt lat="-27.949756" lon="153.341643">
				<ele>9.108</ele>
				<time>2015-07-04T08:42:54Z</time>
				<extensions>
				</extensions>
			</trkpt>
			<trkpt lat="-27.949537" lon="153.341524">
				<ele>8.799</ele>
				<time>2015-07-04T08:42:55Z</time>
				<extensions>
				</extensions>
			</trkpt>
			<trkpt lat="-27.949313" lon="153.341407">
				<ele>8.379</ele>
				<time>2015-07-04T08:42:56Z</time>
				<extensions>
				</extensions>
			</trkpt>
			<trkpt lat="-27.949086" lon="153.341286">
				<ele>9.013</ele>
				<time>2015-07-04T08:42:57Z</time>
				<extensions>
				</extensions>
			</trkpt>
			<trkpt lat="-27.948865" lon="153.341169">
				<ele>9.068</ele>
				<time>2015-07-04T08:42:58Z</time>
				<extensions>
				</extensions>
			</trkpt>
			<trkpt lat="-27.948640" lon="153.341052">
				<ele>8.362</ele>
				<time>2015-07-04T08:42:59Z</time>
				<extensions>
				</extensions>
			</trkpt>
			<trkpt lat="-27.948416" lon="153.340932">
				<ele>8.417</ele>
				<time>2015-07-04T08:43:00Z</time>
				<extensions>
				</extensions>
			</trkpt>
			<trkpt lat="-27.948191" lon="153.340812">
				<ele>8.883</ele>
				<time>2015-07-04T08:43:01Z</time>
				<extensions>
				</extensions>
			</trkpt>
			<trkpt lat="-27.947968" lon="153.340695">
				<ele>8.495</ele>
				<time>2015-07-04T08:43:02Z</time>
				<extensions>
				</extensions>
			</trkpt>
			<trkpt lat="-27.947744" lon="153.340580">
				<ele>8.785</ele>
				<time>2015-07-04T08:43:03Z</time>
				<extensions>
				</extensions>
			</trkpt>
			<trkpt lat="-27.947525" lon="153.340466">
				<ele>8.491</ele>
				<time>2015-07-04T08:43:04Z</time>
				<extensions>
				</extensions>
			</trkpt>
			<trkpt lat="-27.947297" lon="153.340346">
				<ele>8.492</ele>
				<time>2015-07-04T08:43:05Z</time>
				<extensions>
				</extensions>
			</trkpt>
			<trkpt lat="-27.947074" lon="153.340239">
				<ele>9.499</ele>
				<time>2015-07-04T08:43:06Z</time>
				<extensions>
				</extensions>
			</trkpt>
			<trkpt lat="-27.946852" lon="153.340126">
				<ele>9.277</ele>
				<time>2015-07-04T08:43:07Z</time>
				<extensions>
				</extensions>
			</trkpt>
			<trkpt lat="-27.946623" lon="153.340012">
				<ele>9.643</ele>
				<time>2015-07-04T08:43:08Z</time>
				<extensions>
				</extensions>
			</trkpt>
			<trkpt lat="-27.946394" lon="153.339900">
				<ele>9.370</ele>
				<time>2015-07-04T08:43:09Z</time>
				<extensions>
				</extensions>
			</trkpt>
			<trkpt lat="-27.946164" lon="153.339785">
				<ele>9.228</ele>
				<time>2015-07-04T08:43:10Z</time>
				<extensions>
				</extensions>
			</trkpt>
			<trkpt lat="-27.945934" lon="153.339673">
				<ele>8.980</ele>
				<time>2015-07-04T08:43:11Z</time>
				<extensions>
				</extensions>
			</trkpt>
			<trkpt lat="-27.945705" lon="153.339561">
				<ele>8.912</ele>
				<time>2015-07-04T08:43:12Z</time>
				<extensions>
				</extensions>
			</trkpt>
			<trkpt lat="-27.945472" lon="153.339448">
				<ele>8.465</ele>
				<time>2015-07-04T08:43:13Z</time>
				<extensions>
				</extensions>
			</trkpt>
			<trkpt lat="-27.945246" lon="153.339339">
				<ele>8.235</ele>
				<time>2015-07-04T08:43:14Z</time>
				<extensions>
				</extensions>
			</trkpt>
			<trkpt lat="-27.945022" lon="153.339228">
				<ele>9.626</ele>
				<time>2015-07-04T08:43:15Z</time>
				<extensions>
				</extensions>
			</trkpt>
			<trkpt lat="-27.944797" lon="153.339120">
				<ele>8.822</ele>
				<time>2015-07-04T08:43:16Z</time>
				<extensions>
				</extensions>
			</trkpt>
			<trkpt lat="-27.944566" lon="153.339011">
				<ele>8.885</ele>
				<time>2015-07-04T08:43:17Z</time>
				<extensions>
				</extensions>
			</trkpt>
			<trkpt lat="-27.944333" lon="153.338904">
				<ele>9.190</ele>
				<time>2015-07-04T08:43:18Z</time>
				<extensions>
				</extensions>
			</trkpt>
			<trkpt lat="-27.944098" lon="153.338796">
				<ele>9.109</ele>
				<time>2015-07-04T08:43:19Z</time>
				<extensions>
				</extensions>
			</trkpt>
			<trkpt lat="-27.943869" lon="153.338689">
				<ele>9.565</ele>
				<time>2015-07-04T08:43:20Z</time>
				<extensions>
				</extensions>
			</trkpt>
			<trkpt lat="-27.943644" lon="153.338586">
				<ele>9.009</ele>
				<time>2015-07-04T08:43:21Z</time>
				<extensions>
				</extensions>
			</trkpt>
			<trkpt lat="-27.943412" lon="153.338482">
				<ele>7.925</ele>
				<time>2015-07-04T08:43:22Z</time>
				<extensions>
				</extensions>
			</trkpt>
			<trkpt lat="-27.943179" lon="153.338380">
				<ele>8.293</ele>
				<time>2015-07-04T08:43:23Z</time>
				<extensions>
				</extensions>
			</trkpt>
			<trkpt lat="-27.942951" lon="153.338277">
				<ele>8.481</ele>
				<time>2015-07-04T08:43:24Z</time>
				<extensions>
				</extensions>
			</trkpt>
			<trkpt lat="-27.942724" lon="153.338175">
				<ele>8.782</ele>
				<time>2015-07-04T08:43:25Z</time>
				<extensions>
				</extensions>
			</trkpt>
			<trkpt lat="-27.942492" lon="153.338072">
				<ele>9.961</ele>
				<time>2015-07-04T08:43:26Z</time>
				<extensions>
				</extensions>
			</trkpt>
			<trkpt lat="-27.942257" lon="153.337969">
				<ele>9.247</ele>
				<time>2015-07-04T08:43:27Z</time>
				<extensions>
				</extensions>
			</trkpt>
			<trkpt lat="-27.942026" lon="153.337870">
				<ele>8.512</ele>
				<time>2015-07-04T08:43:28Z</time>
				<extensions>
				</extensions>
			</trkpt>
			<trkpt lat="-27.941793" lon="153.337768">
				<ele>9.372</ele>
				<time>2015-07-04T08:43:29Z</time>
				<extensions>
				</extensions>
			</trkpt>
			<trkpt lat="-27.941559" lon="153.337668">
				<ele>9.501</ele>
				<time>2015-07-04T08:43:30Z</time>
				<extensions>
				</extensions>
			</trkpt>
			<trkpt lat="-27.941324" lon="153.337571">
				<ele>9.135</ele>
				<time>2015-07-04T08:43:31Z</time>
				<extensions>
				</extensions>
			</trkpt>
			<trkpt lat="-27.941087" lon="153.337473">
				<ele>10.845</ele>
				<time>2015-07-04T08:43:32Z</time>
				<extensions>
				</extensions>
			</trkpt>
			<trkpt lat="-27.940846" lon="153.337374">
				<ele>10.193</ele>
				<time>2015-07-04T08:43:33Z</time>
				<extensions>
				</extensions>
			</trkpt>
			<trkpt lat="-27.940610" lon="153.337274">
				<ele>10.191</ele>
				<time>2015-07-04T08:43:34Z</time>
				<extensions>
				</extensions>
			</trkpt>
			<trkpt lat="-27.940378" lon="153.337178">
				<ele>11.961</ele>
				<time>2015-07-04T08:43:35Z</time>
				<extensions>
				</extensions>
			</trkpt>
			<trkpt lat="-27.940150" lon="153.337085">
				<ele>10.973</ele>
				<time>2015-07-04T08:43:36Z</time>
				<extensions>
				</extensions>
			</trkpt>
			<trkpt lat="-27.939919" lon="153.336991">
				<ele>11.459</ele>
				<time>2015-07-04T08:43:37Z</time>
				<extensions>
				</extensions>
			</trkpt>
			<trkpt lat="-27.939689" lon="153.336896">
				<ele>12.120</ele>
				<time>2015-07-04T08:43:38Z</time>
				<extensions>
				</extensions>
			</trkpt>
			<trkpt lat="-27.939451" lon="153.336800">
				<ele>11.882</ele>
				<time>2015-07-04T08:43:39Z</time>
				<extensions>
				</extensions>
			</trkpt>
			<trkpt lat="-27.939218" lon="153.336712">
				<ele>14.288</ele>
				<time>2015-07-04T08:43:40Z</time>
				<extensions>
				</extensions>
			</trkpt>
			<trkpt lat="-27.938984" lon="153.336618">
				<ele>13.965</ele>
				<time>2015-07-04T08:43:41Z</time>
				<extensions>
				</extensions>
			</trkpt>
			<trkpt lat="-27.938745" lon="153.336521">
				<ele>13.057</ele>
				<time>2015-07-04T08:43:42Z</time>
				<extensions>
				</extensions>
			</trkpt>
			<trkpt lat="-27.938503" lon="153.336428">
				<ele>13.199</ele>
				<time>2015-07-04T08:43:43Z</time>
				<extensions>
				</extensions>
			</trkpt>
			<trkpt lat="-27.938265" lon="153.336339">
				<ele>14.157</ele>
				<time>2015-07-04T08:43:44Z</time>
				<extensions>
				</extensions>
			</trkpt>
			<trkpt lat="-27.938026" lon="153.336250">
				<ele>14.157</ele>
				<time>2015-07-04T08:43:45Z</time>
				<extensions>
				</extensions>
			</trkpt>
			<trkpt lat="-27.937791" lon="153.336162">
				<ele>15.133</ele>
				<time>2015-07-04T08:43:46Z</time>
				<extensions>
				</extensions>
			</trkpt>
			<trkpt lat="-27.937558" lon="153.336076">
				<ele>14.421</ele>
				<time>2015-07-04T08:43:47Z</time>
				<extensions>
				</extensions>
			</trkpt>
			<trkpt lat="-27.937323" lon="153.335987">
				<ele>13.875</ele>
				<time>2015-07-04T08:43:48Z</time>
				<extensions>
				</extensions>
			</trkpt>
			<trkpt lat="-27.937088" lon="153.335897">
				<ele>17.398</ele>
				<time>2015-07-04T08:43:49Z</time>
				<extensions>
				</extensions>
			</trkpt>
			<trkpt lat="-27.936850" lon="153.335808">
				<ele>17.114</ele>
				<time>2015-07-04T08:43:50Z</time>
				<extensions>
				</extensions>
			</trkpt>
			<trkpt lat="-27.936611" lon="153.335721">
				<ele>15.135</ele>
				<time>2015-07-04T08:43:51Z</time>
				<extensions>
				</extensions>
			</trkpt>
			<trkpt lat="-27.936372" lon="153.335637">
				<ele>15.061</ele>
				<time>2015-07-04T08:43:52Z</time>
				<extensions>
				</extensions>
			</trkpt>
			<trkpt lat="-27.936135" lon="153.335554">
				<ele>15.478</ele>
				<time>2015-07-04T08:43:53Z</time>
				<extensions>
				</extensions>
			</trkpt>
			<trkpt lat="-27.935893" lon="153.335471">
				<ele>16.498</ele>
				<time>2015-07-04T08:43:54Z</time>
				<extensions>
				</extensions>
			</trkpt>
			<trkpt lat="-27.935651" lon="153.335386">
				<ele>17.573</ele>
				<time>2015-07-04T08:43:55Z</time>
				<extensions>
				</extensions>
			</trkpt>
			<trkpt lat="-27.935403" lon="153.335300">
				<ele>16.101</ele>
				<time>2015-07-04T08:43:56Z</time>
				<extensions>
				</extensions>
			</trkpt>
			<trkpt lat="-27.935158" lon="153.335208">
				<ele>19.463</ele>
				<time>2015-07-04T08:43:57Z</time>
				<extensions>
				</extensions>
			</trkpt>
			<trkpt lat="-27.934912" lon="153.335114">
				<ele>19.048</ele>
				<time>2015-07-04T08:43:58Z</time>
				<extensions>
				</extensions>
			</trkpt>
			<trkpt lat="-27.934666" lon="153.335013">
				<ele>19.395</ele>
				<time>2015-07-04T08:43:59Z</time>
				<extensions>
				</extensions>
			</trkpt>
			<trkpt lat="-27.934422" lon="153.334912">
				<ele>19.829</ele>
				<time>2015-07-04T08:44:00Z</time>
				<extensions>
				</extensions>
			</trkpt>
			<trkpt lat="-27.934182" lon="153.334812">
				<ele>20.877</ele>
				<time>2015-07-04T08:44:01Z</time>
				<extensions>
				</extensions>
			</trkpt>
			<trkpt lat="-27.933933" lon="153.334700">
				<ele>20.200</ele>
				<time>2015-07-04T08:44:02Z</time>
				<extensions>
				</extensions>
			</trkpt>
			<trkpt lat="-27.933695" lon="153.334595">
				<ele>22.769</ele>
				<time>2015-07-04T08:44:03Z</time>
				<extensions>
				</extensions>
			</trkpt>
			<trkpt lat="-27.933458" lon="153.334487">
				<ele>21.439</ele>
				<time>2015-07-04T08:44:04Z</time>
				<extensions>
				</extensions>
			</trkpt>
			<trkpt lat="-27.933215" lon="153.334375">
				<ele>21.036</ele>
				<time>2015-07-04T08:44:05Z</time>
				<extensions>
				</extensions>
			</trkpt>
			<trkpt lat="-27.932973" lon="153.334259">
				<ele>21.897</ele>
				<time>2015-07-04T08:44:06Z</time>
				<extensions>
				</extensions>
			</trkpt>
			<trkpt lat="-27.932738" lon="153.334143">
				<ele>23.713</ele>
				<time>2015-07-04T08:44:07Z</time>
				<extensions>
				</extensions>
			</trkpt>
			<trkpt lat="-27.932497" lon="153.334023">
				<ele>22.346</ele>
				<time>2015-07-04T08:44:08Z</time>
				<extensions>
				</extensions>
			</trkpt>
			<trkpt lat="-27.932259" lon="153.333897">
				<ele>22.629</ele>
				<time>2015-07-04T08:44:09Z</time>
				<extensions>
				</extensions>
			</trkpt>
			<trkpt lat="-27.932021" lon="153.333768">
				<ele>23.011</ele>
				<time>2015-07-04T08:44:10Z</time>
				<extensions>
				</extensions>
			</trkpt>
			<trkpt lat="-27.931786" lon="153.333641">
				<ele>22.860</ele>
				<time>2015-07-04T08:44:11Z</time>
				<extensions>
				</extensions>
			</trkpt>
			<trkpt lat="-27.931553" lon="153.333513">
				<ele>24.094</ele>
				<time>2015-07-04T08:44:12Z</time>
				<extensions>
				</extensions>
			</trkpt>
			<trkpt lat="-27.931323" lon="153.333380">
				<ele>23.763</ele>
				<time>2015-07-04T08:44:13Z</time>
				<extensions>
				</extensions>
			</trkpt>
			<trkpt lat="-27.931094" lon="153.333244">
				<ele>23.551</ele>
				<time>2015-07-04T08:44:14Z</time>
				<extensions>
				</extensions>
			</trkpt>
			<trkpt lat="-27.930865" lon="153.333106">
				<ele>26.540</ele>
				<time>2015-07-04T08:44:15Z</time>
				<extensions>
				</extensions>
			</trkpt>
			<trkpt lat="-27.930639" lon="153.332966">
				<ele>27.123</ele>
				<time>2015-07-04T08:44:16Z</time>
				<extensions>
				</extensions>
			</trkpt>
			<trkpt lat="-27.930414" lon="153.332822">
				<ele>26.629</ele>
				<time>2015-07-04T08:44:17Z</time>
				<extensions>
				</extensions>
			</trkpt>
			<trkpt lat="-27.930189" lon="153.332677">
				<ele>26.253</ele>
				<time>2015-07-04T08:44:18Z</time>
				<extensions>
				</extensions>
			</trkpt>
			<trkpt lat="-27.929969" lon="153.332527">
				<ele>26.144</ele>
				<time>2015-07-04T08:44:19Z</time>
				<extensions>
				</extensions>
			</trkpt>
			<trkpt lat="-27.929748" lon="153.332374">
				<ele>25.847</ele>
				<time>2015-07-04T08:44:20Z</time>
				<extensions>
				</extensions>
			</trkpt>
			<trkpt lat="-27.929526" lon="153.332218">
				<ele>26.998</ele>
				<time>2015-07-04T08:44:21Z</time>
				<extensions>
				</extensions>
			</trkpt>
			<trkpt lat="-27.929310" lon="153.332063">
				<ele>26.938</ele>
				<time>2015-07-04T08:44:22Z</time>
				<extensions>
				</extensions>
			</trkpt>
			<trkpt lat="-27.929093" lon="153.331905">
				<ele>26.736</ele>
				<time>2015-07-04T08:44:23Z</time>
				<extensions>
				</extensions>
			</trkpt>
			<trkpt lat="-27.928878" lon="153.331748">
				<ele>25.844</ele>
				<time>2015-07-04T08:44:24Z</time>
				<extensions>
				</extensions>
			</trkpt>
			<trkpt lat="-27.928658" lon="153.331582">
				<ele>26.970</ele>
				<time>2015-07-04T08:44:25Z</time>
				<extensions>
				</extensions>
			</trkpt>
			<trkpt lat="-27.928433" lon="153.331405">
				<ele>28.896</ele>
				<time>2015-07-04T08:44:26Z</time>
				<extensions>
				</extensions>
			</trkpt>
			<trkpt lat="-27.928198" lon="153.331221">
				<ele>29.450</ele>
				<time>2015-07-04T08:44:27Z</time>
				<extensions>
				</extensions>
			</trkpt>
			<trkpt lat="-27.927961" lon="153.331033">
				<ele>31.952</ele>
				<time>2015-07-04T08:44:28Z</time>
				<extensions>
				</extensions>
			</trkpt>
			<trkpt lat="-27.927732" lon="153.330845">
				<ele>32.965</ele>
				<time>2015-07-04T08:44:29Z</time>
				<extensions>
				</extensions>
			</trkpt>
			<trkpt lat="-27.927510" lon="153.330663">
				<ele>30.276</ele>
				<time>2015-07-04T08:44:30Z</time>
				<extensions>
				</extensions>
			</trkpt>
			<trkpt lat="-27.927299" lon="153.330480">
				<ele>28.321</ele>
				<time>2015-07-04T08:44:31Z</time>
				<extensions>
				</extensions>
			</trkpt>
			<trkpt lat="-27.927081" lon="153.330288">
				<ele>29.083</ele>
				<time>2015-07-04T08:44:32Z</time>
				<extensions>
				</extensions>
			</trkpt>
			<trkpt lat="-27.926859" lon="153.330091">
				<ele>31.347</ele>
				<time>2015-07-04T08:44:33Z</time>
				<extensions>
				</extensions>
			</trkpt>
			<trkpt lat="-27.926639" lon="153.329891">
				<ele>30.947</ele>
				<time>2015-07-04T08:44:34Z</time>
				<extensions>
				</extensions>
			</trkpt>
			<trkpt lat="-27.926424" lon="153.329691">
				<ele>32.142</ele>
				<time>2015-07-04T08:44:35Z</time>
				<extensions>
				</extensions>
			</trkpt>
			<trkpt lat="-27.926212" lon="153.329489">
				<ele>31.608</ele>
				<time>2015-07-04T08:44:36Z</time>
				<extensions>
				</extensions>
			</trkpt>
			<trkpt lat="-27.926001" lon="153.329278">
				<ele>30.586</ele>
				<time>2015-07-04T08:44:37Z</time>
				<extensions>
				</extensions>
			</trkpt>
			<trkpt lat="-27.925792" lon="153.329070">
				<ele>32.865</ele>
				<time>2015-07-04T08:44:38Z</time>
				<extensions>
				</extensions>
			</trkpt>
			<trkpt lat="-27.925586" lon="153.328857">
				<ele>31.703</ele>
				<time>2015-07-04T08:44:39Z</time>
				<extensions>
				</extensions>
			</trkpt>
			<trkpt lat="-27.925376" lon="153.328645">
				<ele>33.411</ele>
				<time>2015-07-04T08:44:40Z</time>
				<extensions>
				</extensions>
			</trkpt>
			<trkpt lat="-27.925178" lon="153.328434">
				<ele>33.143</ele>
				<time>2015-07-04T08:44:41Z</time>
				<extensions>
				</extensions>
			</trkpt>
			<trkpt lat="-27.924980" lon="153.328219">
				<ele>32.656</ele>
				<time>2015-07-04T08:44:42Z</time>
				<extensions>
				</extensions>
			</trkpt>
			<trkpt lat="-27.924775" lon="153.327995">
				<ele>32.950</ele>
				<time>2015-07-04T08:44:43Z</time>
				<extensions>
				</extensions>
			</trkpt>
			<trkpt lat="-27.924585" lon="153.327779">
				<ele>32.707</ele>
				<time>2015-07-04T08:44:44Z</time>
				<extensions>
				</extensions>
			</trkpt>
			<trkpt lat="-27.924388" lon="153.327550">
				<ele>32.727</ele>
				<time>2015-07-04T08:44:45Z</time>
				<extensions>
				</extensions>
			</trkpt>
			<trkpt lat="-27.924193" lon="153.327326">
				<ele>33.471</ele>
				<time>2015-07-04T08:44:46Z</time>
				<extensions>
				</extensions>
			</trkpt>
			<trkpt lat="-27.924003" lon="153.327107">
				<ele>31.669</ele>
				<time>2015-07-04T08:44:47Z</time>
				<extensions>
				</extensions>
			</trkpt>
			<trkpt lat="-27.923811" lon="153.326874">
				<ele>31.669</ele>
				<time>2015-07-04T08:44:48Z</time>
				<extensions>
				</extensions>
			</trkpt>
			<trkpt lat="-27.923620" lon="153.326654">
				<ele>31.723</ele>
				<time>2015-07-04T08:44:49Z</time>
				<extensions>
				</extensions>
			</trkpt>
			<trkpt lat="-27.923426" lon="153.326433">
				<ele>30.829</ele>
				<time>2015-07-04T08:44:50Z</time>
				<extensions>
				</extensions>
			</trkpt>
			<trkpt lat="-27.923226" lon="153.326213">
				<ele>30.325</ele>
				<time>2015-07-04T08:44:51Z</time>
				<extensions>
				</extensions>
			</trkpt>
			<trkpt lat="-27.923032" lon="153.325995">
				<ele>30.678</ele>
				<time>2015-07-04T08:44:52Z</time>
				<extensions>
				</extensions>
			</trkpt>
			<trkpt lat="-27.922826" lon="153.325769">
				<ele>29.789</ele>
				<time>2015-07-04T08:44:53Z</time>
				<extensions>
				</extensions>
			</trkpt>
			<trkpt lat="-27.922617" lon="153.325553">
				<ele>30.374</ele>
				<time>2015-07-04T08:44:54Z</time>
				<extensions>
				</extensions>
			</trkpt>
			<trkpt lat="-27.922405" lon="153.325340">
				<ele>30.003</ele>
				<time>2015-07-04T08:44:55Z</time>
				<extensions>
				</extensions>
			</trkpt>
			<trkpt lat="-27.922196" lon="153.325127">
				<ele>28.970</ele>
				<time>2015-07-04T08:44:56Z</time>
				<extensions>
				</extensions>
			</trkpt>
			<trkpt lat="-27.921983" lon="153.324913">
				<ele>28.145</ele>
				<time>2015-07-04T08:44:57Z</time>
				<extensions>
				</extensions>
			</trkpt>
			<trkpt lat="-27.921774" lon="153.324713">
				<ele>28.899</ele>
				<time>2015-07-04T08:44:58Z</time>
				<extensions>
				</extensions>
			</trkpt>
			<trkpt lat="-27.921569" lon="153.324512">
				<ele>28.587</ele>
				<time>2015-07-04T08:44:59Z</time>
				<extensions>
				</extensions>
			</trkpt>
			<trkpt lat="-27.921355" lon="153.324312">
				<ele>28.313</ele>
				<time>2015-07-04T08:45:00Z</time>
				<extensions>
				</extensions>
			</trkpt>
			<trkpt lat="-27.921135" lon="153.324116">
				<ele>27.894</ele>
				<time>2015-07-04T08:45:01Z</time>
				<extensions>
				</extensions>
			</trkpt>
			<trkpt lat="-27.920909" lon="153.323918">
				<ele>27.797</ele>
				<time>2015-07-04T08:45:02Z</time>
				<extensions>
				</extensions>
			</trkpt>
			<trkpt lat="-27.920694" lon="153.323716">
				<ele>26.532</ele>
				<time>2015-07-04T08:45:03Z</time>
				<extensions>
				</extensions>
			</trkpt>
			<trkpt lat="-27.920467" lon="153.323525">
				<ele>24.820</ele>
				<time>2015-07-04T08:45:04Z</time>
				<extensions>
				</extensions>
			</trkpt>
			<trkpt lat="-27.920241" lon="153.323333">
				<ele>25.893</ele>
				<time>2015-07-04T08:45:05Z</time>
				<extensions>
				</extensions>
			</trkpt>
			<trkpt lat="-27.920020" lon="153.323150">
				<ele>23.084</ele>
				<time>2015-07-04T08:45:06Z</time>
				<extensions>
				</extensions>
			</trkpt>
			<trkpt lat="-27.919798" lon="153.322977">
				<ele>23.591</ele>
				<time>2015-07-04T08:45:07Z</time>
				<extensions>
				</extensions>
			</trkpt>
			<trkpt lat="-27.919571" lon="153.322798">
				<ele>20.266</ele>
				<time>2015-07-04T08:45:08Z</time>
				<extensions>
				</extensions>
			</trkpt>
			<trkpt lat="-27.919339" lon="153.322622">
				<ele>19.528</ele>
				<time>2015-07-04T08:45:09Z</time>
				<extensions>
				</extensions>
			</trkpt>
			<trkpt lat="-27.919102" lon="153.322452">
				<ele>19.161</ele>
				<time>2015-07-04T08:45:10Z</time>
				<extensions>
				</extensions>
			</trkpt>
			<trkpt lat="-27.918875" lon="153.322281">
				<ele>17.711</ele>
				<time>2015-07-04T08:45:11Z</time>
				<extensions>
				</extensions>
			</trkpt>
			<trkpt lat="-27.918627" lon="153.322105">
				<ele>16.264</ele>
				<time>2015-07-04T08:45:12Z</time>
				<extensions>
				</extensions>
			</trkpt>
			<trkpt lat="-27.918392" lon="153.321941">
				<ele>18.467</ele>
				<time>2015-07-04T08:45:13Z</time>
				<extensions>
				</extensions>
			</trkpt>
			<trkpt lat="-27.918162" lon="153.321781">
				<ele>17.289</ele>
				<time>2015-07-04T08:45:14Z</time>
				<extensions>
				</extensions>
			</trkpt>
			<trkpt lat="-27.917926" lon="153.321616">
				<ele>16.047</ele>
				<time>2015-07-04T08:45:15Z</time>
				<extensions>
				</extensions>
			</trkpt>
			<trkpt lat="-27.917692" lon="153.321458">
				<ele>15.369</ele>
				<time>2015-07-04T08:45:16Z</time>
				<extensions>
				</extensions>
			</trkpt>
			<trkpt lat="-27.917445" lon="153.321301">
				<ele>14.887</ele>
				<time>2015-07-04T08:45:17Z</time>
				<extensions>
				</extensions>
			</trkpt>
			<trkpt lat="-27.917200" lon="153.321150">
				<ele>15.610</ele>
				<time>2015-07-04T08:45:18Z</time>
				<extensions>
				</extensions>
			</trkpt>
			<trkpt lat="-27.916962" lon="153.321006">
				<ele>16.371</ele>
				<time>2015-07-04T08:45:19Z</time>
				<extensions>
				</extensions>
			</trkpt>
			<trkpt lat="-27.916717" lon="153.320861">
				<ele>15.909</ele>
				<time>2015-07-04T08:45:20Z</time>
				<extensions>
				</extensions>
			</trkpt>
			<trkpt lat="-27.916468" lon="153.320724">
				<ele>14.857</ele>
				<time>2015-07-04T08:45:21Z</time>
				<extensions>
				</extensions>
			</trkpt>
			<trkpt lat="-27.916216" lon="153.320585">
				<ele>13.464</ele>
				<time>2015-07-04T08:45:22Z</time>
				<extensions>
				</extensions>
			</trkpt>
			<trkpt lat="-27.915968" lon="153.320449">
				<ele>11.659</ele>
				<time>2015-07-04T08:45:23Z</time>
				<extensions>
				</extensions>
			</trkpt>
			<trkpt lat="-27.915716" lon="153.320311">
				<ele>12.800</ele>
				<time>2015-07-04T08:45:24Z</time>
				<extensions>
				</extensions>
			</trkpt>
			<trkpt lat="-27.915467" lon="153.320180">
				<ele>14.168</ele>
				<time>2015-07-04T08:45:25Z</time>
				<extensions>
				</extensions>
			</trkpt>
			<trkpt lat="-27.915210" lon="153.320052">
				<ele>13.185</ele>
				<time>2015-07-04T08:45:26Z</time>
				<extensions>
				</extensions>
			</trkpt>
			<trkpt lat="-27.914961" lon="153.319925">
				<ele>11.901</ele>
				<time>2015-07-04T08:45:27Z</time>
				<extensions>
				</extensions>
			</trkpt>
			<trkpt lat="-27.914711" lon="153.319800">
				<ele>12.063</ele>
				<time>2015-07-04T08:45:28Z</time>
				<extensions>
				</extensions>
			</trkpt>
			<trkpt lat="-27.914454" lon="153.319686">
				<ele>11.207</ele>
				<time>2015-07-04T08:45:29Z</time>
				<extensions>
				</extensions>
			</trkpt>
			<trkpt lat="-27.914201" lon="153.319571">
				<ele>11.821</ele>
				<time>2015-07-04T08:45:30Z</time>
				<extensions>
				</extensions>
			</trkpt>
			<trkpt lat="-27.913951" lon="153.319454">
				<ele>11.186</ele>
				<time>2015-07-04T08:45:31Z</time>
				<extensions>
				</extensions>
			</trkpt>
			<trkpt lat="-27.913697" lon="153.319351">
				<ele>12.616</ele>
				<time>2015-07-04T08:45:32Z</time>
				<extensions>
				</extensions>
			</trkpt>
			<trkpt lat="-27.913440" lon="153.319242">
				<ele>12.049</ele>
				<time>2015-07-04T08:45:33Z</time>
				<extensions>
				</extensions>
			</trkpt>
			<trkpt lat="-27.913184" lon="153.319130">
				<ele>12.260</ele>
				<time>2015-07-04T08:45:34Z</time>
				<extensions>
				</extensions>
			</trkpt>
			<trkpt lat="-27.912927" lon="153.319026">
				<ele>11.358</ele>
				<time>2015-07-04T08:45:35Z</time>
				<extensions>
				</extensions>
			</trkpt>
			<trkpt lat="-27.912659" lon="153.318933">
				<ele>13.188</ele>
				<time>2015-07-04T08:45:36Z</time>
				<extensions>
				</extensions>
			</trkpt>
			<trkpt lat="-27.912383" lon="153.318831">
				<ele>14.294</ele>
				<time>2015-07-04T08:45:37Z</time>
				<extensions>
				</extensions>
			</trkpt>
			<trkpt lat="-27.912116" lon="153.318733">
				<ele>11.406</ele>
				<time>2015-07-04T08:45:38Z</time>
				<extensions>
				</extensions>
			</trkpt>
			<trkpt lat="-27.911850" lon="153.318643">
				<ele>12.979</ele>
				<time>2015-07-04T08:45:39Z</time>
				<extensions>
				</extensions>
			</trkpt>
			<trkpt lat="-27.911590" lon="153.318559">
				<ele>13.652</ele>
				<time>2015-07-04T08:45:40Z</time>
				<extensions>
				</extensions>
			</trkpt>
			<trkpt lat="-27.911330" lon="153.318473">
				<ele>12.763</ele>
				<time>2015-07-04T08:45:41Z</time>
				<extensions>
				</extensions>
			</trkpt>
			<trkpt lat="-27.911066" lon="153.318392">
				<ele>13.702</ele>
				<time>2015-07-04T08:45:42Z</time>
				<extensions>
				</extensions>
			</trkpt>
			<trkpt lat="-27.910806" lon="153.318306">
				<ele>12.460</ele>
				<time>2015-07-04T08:45:43Z</time>
				<extensions>
				</extensions>
			</trkpt>
			<trkpt lat="-27.910541" lon="153.318225">
				<ele>11.440</ele>
				<time>2015-07-04T08:45:44Z</time>
				<extensions>
				</extensions>
			</trkpt>
			<trkpt lat="-27.910268" lon="153.318131">
				<ele>12.242</ele>
				<time>2015-07-04T08:45:45Z</time>
				<extensions>
				</extensions>
			</trkpt>
			<trkpt lat="-27.910015" lon="153.318048">
				<ele>10.516</ele>
				<time>2015-07-04T08:45:46Z</time>
				<extensions>
				</extensions>
			</trkpt>
			<trkpt lat="-27.909754" lon="153.317966">
				<ele>9.784</ele>
				<time>2015-07-04T08:45:47Z</time>
				<extensions>
				</extensions>
			</trkpt>
			<trkpt lat="-27.909484" lon="153.317876">
				<ele>9.618</ele>
				<time>2015-07-04T08:45:48Z</time>
				<extensions>
				</extensions>
			</trkpt>
			<trkpt lat="-27.909224" lon="153.317793">
				<ele>10.953</ele>
				<time>2015-07-04T08:45:49Z</time>
				<extensions>
				</extensions>
			</trkpt>
			<trkpt lat="-27.908970" lon="153.317708">
				<ele>11.482</ele>
				<time>2015-07-04T08:45:50Z</time>
				<extensions>
				</extensions>
			</trkpt>
			<trkpt lat="-27.908710" lon="153.317625">
				<ele>11.482</ele>
				<time>2015-07-04T08:45:51Z</time>
				<extensions>
				</extensions>
			</trkpt>
			<trkpt lat="-27.908448" lon="153.317545">
				<ele>10.377</ele>
				<time>2015-07-04T08:45:52Z</time>
				<extensions>
				</extensions>
			</trkpt>
			<trkpt lat="-27.908181" lon="153.317464">
				<ele>12.330</ele>
				<time>2015-07-04T08:45:53Z</time>
				<extensions>
				</extensions>
			</trkpt>
			<trkpt lat="-27.907910" lon="153.317378">
				<ele>12.433</ele>
				<time>2015-07-04T08:45:54Z</time>
				<extensions>
				</extensions>
			</trkpt>
			<trkpt lat="-27.907650" lon="153.317276">
				<ele>12.317</ele>
				<time>2015-07-04T08:45:55Z</time>
				<extensions>
				</extensions>
			</trkpt>
			<trkpt lat="-27.907391" lon="153.317189">
				<ele>12.468</ele>
				<time>2015-07-04T08:45:56Z</time>
				<extensions>
				</extensions>
			</trkpt>
			<trkpt lat="-27.907134" lon="153.317101">
				<ele>11.094</ele>
				<time>2015-07-04T08:45:57Z</time>
				<extensions>
				</extensions>
			</trkpt>
			<trkpt lat="-27.906874" lon="153.317020">
				<ele>11.008</ele>
				<time>2015-07-04T08:45:58Z</time>
				<extensions>
				</extensions>
			</trkpt>
			<trkpt lat="-27.906611" lon="153.316933">
				<ele>10.454</ele>
				<time>2015-07-04T08:45:59Z</time>
				<extensions>
				</extensions>
			</trkpt>
			<trkpt lat="-27.906354" lon="153.316850">
				<ele>8.152</ele>
				<time>2015-07-04T08:46:00Z</time>
				<extensions>
				</extensions>
			</trkpt>
			<trkpt lat="-27.906085" lon="153.316764">
				<ele>9.408</ele>
				<time>2015-07-04T08:46:01Z</time>
				<extensions>
				</extensions>
			</trkpt>
			<trkpt lat="-27.905809" lon="153.316680">
				<ele>9.695</ele>
				<time>2015-07-04T08:46:02Z</time>
				<extensions>
				</extensions>
			</trkpt>
			<trkpt lat="-27.905549" lon="153.316599">
				<ele>8.605</ele>
				<time>2015-07-04T08:46:03Z</time>
				<extensions>
				</extensions>
			</trkpt>
			<trkpt lat="-27.905275" lon="153.316511">
				<ele>7.025</ele>
				<time>2015-07-04T08:46:04Z</time>
				<extensions>
				</extensions>
			</trkpt>
			<trkpt lat="-27.905009" lon="153.316423">
				<ele>6.648</ele>
				<time>2015-07-04T08:46:05Z</time>
				<extensions>
				</extensions>
			</trkpt>
			<trkpt lat="-27.904747" lon="153.316340">
				<ele>6.651</ele>
				<time>2015-07-04T08:46:06Z</time>
				<extensions>
				</extensions>
			</trkpt>
			<trkpt lat="-27.904485" lon="153.316259">
				<ele>6.732</ele>
				<time>2015-07-04T08:46:07Z</time>
				<extensions>
				</extensions>
			</trkpt>
			<trkpt lat="-27.904229" lon="153.316173">
				<ele>4.949</ele>
				<time>2015-07-04T08:46:08Z</time>
				<extensions>
				</extensions>
			</trkpt>
			<trkpt lat="-27.903967" lon="153.316090">
				<ele>5.143</ele>
				<time>2015-07-04T08:46:09Z</time>
				<extensions>
				</extensions>
			</trkpt>
			<trkpt lat="-27.903714" lon="153.316003">
				<ele>4.730</ele>
				<time>2015-07-04T08:46:10Z</time>
				<extensions>
				</extensions>
			</trkpt>
			<trkpt lat="-27.903447" lon="153.315917">
				<ele>5.267</ele>
				<time>2015-07-04T08:46:11Z</time>
				<extensions>
				</extensions>
			</trkpt>
			<trkpt lat="-27.903178" lon="153.315833">
				<ele>4.148</ele>
				<time>2015-07-04T08:46:12Z</time>
				<extensions>
				</extensions>
			</trkpt>
			<trkpt lat="-27.902908" lon="153.315750">
				<ele>4.651</ele>
				<time>2015-07-04T08:46:13Z</time>
				<extensions>
				</extensions>
			</trkpt>
			<trkpt lat="-27.902634" lon="153.315665">
				<ele>3.828</ele>
				<time>2015-07-04T08:46:14Z</time>
				<extensions>
				</extensions>
			</trkpt>
			<trkpt lat="-27.902369" lon="153.315582">
				<ele>3.520</ele>
				<time>2015-07-04T08:46:15Z</time>
				<extensions>
				</extensions>
			</trkpt>
			<trkpt lat="-27.902095" lon="153.315499">
				<ele>4.196</ele>
				<time>2015-07-04T08:46:16Z</time>
				<extensions>
				</extensions>
			</trkpt>
			<trkpt lat="-27.901823" lon="153.315421">
				<ele>4.074</ele>
				<time>2015-07-04T08:46:17Z</time>
				<extensions>
				</extensions>
			</trkpt>
			<trkpt lat="-27.901550" lon="153.315347">
				<ele>1.831</ele>
				<time>2015-07-04T08:46:18Z</time>
				<extensions>
				</extensions>
			</trkpt>
			<trkpt lat="-27.901281" lon="153.315271">
				<ele>2.791</ele>
				<time>2015-07-04T08:46:19Z</time>
				<extensions>
				</extensions>
			</trkpt>
			<trkpt lat="-27.901015" lon="153.315198">
				<ele>2.085</ele>
				<time>2015-07-04T08:46:20Z</time>
				<extensions>
				</extensions>
			</trkpt>
			<trkpt lat="-27.900751" lon="153.315130">
				<ele>-0.013</ele>
				<time>2015-07-04T08:46:21Z</time>
				<extensions>
				</extensions>
			</trkpt>
			<trkpt lat="-27.900479" lon="153.315064">
				<ele>-0.328</ele>
				<time>2015-07-04T08:46:22Z</time>
				<extensions>
				</extensions>
			</trkpt>
			<trkpt lat="-27.900217" lon="153.315008">
				<ele>1.917</ele>
				<time>2015-07-04T08:46:23Z</time>
				<extensions>
				</extensions>
			</trkpt>
			<trkpt lat="-27.899946" lon="153.314947">
				<ele>1.131</ele>
				<time>2015-07-04T08:46:24Z</time>
				<extensions>
				</extensions>
			</trkpt>
			<trkpt lat="-27.899675" lon="153.314884">
				<ele>0.360</ele>
				<time>2015-07-04T08:46:25Z</time>
				<extensions>
				</extensions>
			</trkpt>
			<trkpt lat="-27.899414" lon="153.314828">
				<ele>-0.064</ele>
				<time>2015-07-04T08:46:26Z</time>
				<extensions>
				</extensions>
			</trkpt>
			<trkpt lat="-27.899160" lon="153.314782">
				<ele>-0.850</ele>
				<time>2015-07-04T08:46:27Z</time>
				<extensions>
				</extensions>
			</trkpt>
			<trkpt lat="-27.898911" lon="153.314732">
				<ele>-1.879</ele>
				<time>2015-07-04T08:46:28Z</time>
				<extensions>
				</extensions>
			</trkpt>
			<trkpt lat="-27.898664" lon="153.314688">
				<ele>-4.024</ele>
				<time>2015-07-04T08:46:29Z</time>
				<extensions>
				</extensions>
			</trkpt>
			<trkpt lat="-27.898414" lon="153.314643">
				<ele>-3.658</ele>
				<time>2015-07-04T08:46:30Z</time>
				<extensions>
				</extensions>
			</trkpt>
			<trkpt lat="-27.898169" lon="153.314616">
				<ele>-3.358</ele>
				<time>2015-07-04T08:46:31Z</time>
				<extensions>
				</extensions>
			</trkpt>
			<trkpt lat="-27.897920" lon="153.314579">
				<ele>-1.911</ele>
				<time>2015-07-04T08:46:32Z</time>
				<extensions>
				</extensions>
			</trkpt>
			<trkpt lat="-27.897660" lon="153.314543">
				<ele>-0.352</ele>
				<time>2015-07-04T08:46:33Z</time>
				<extensions>
				</extensions>
			</trkpt>
			<trkpt lat="-27.897391" lon="153.314506">
				<ele>-0.768</ele>
				<time>2015-07-04T08:46:34Z</time>
				<extensions>
				</extensions>
			</trkpt>
			<trkpt lat="-27.897124" lon="153.314474">
				<ele>0.684</ele>
				<time>2015-07-04T08:46:35Z</time>
				<extensions>
				</extensions>
			</trkpt>
			<trkpt lat="-27.896853" lon="153.314443">
				<ele>0.611</ele>
				<time>2015-07-04T08:46:36Z</time>
				<extensions>
				</extensions>
			</trkpt>
			<trkpt lat="-27.896588" lon="153.314423">
				<ele>0.845</ele>
				<time>2015-07-04T08:46:37Z</time>
				<extensions>
				</extensions>
			</trkpt>
			<trkpt lat="-27.896318" lon="153.314400">
				<ele>0.777</ele>
				<time>2015-07-04T08:46:38Z</time>
				<extensions>
				</extensions>
			</trkpt>
			<trkpt lat="-27.896035" lon="153.314377">
				<ele>1.257</ele>
				<time>2015-07-04T08:46:39Z</time>
				<extensions>
				</extensions>
			</trkpt>
			<trkpt lat="-27.895750" lon="153.314362">
				<ele>1.193</ele>
				<time>2015-07-04T08:46:40Z</time>
				<extensions>
				</extensions>
			</trkpt>
			<trkpt lat="-27.895462" lon="153.314346">
				<ele>2.342</ele>
				<time>2015-07-04T08:46:41Z</time>
				<extensions>
				</extensions>
			</trkpt>
			<trkpt lat="-27.895176" lon="153.314343">
				<ele>0.904</ele>
				<time>2015-07-04T08:46:42Z</time>
				<extensions>
				</extensions>
			</trkpt>
			<trkpt lat="-27.894898" lon="153.314331">
				<ele>0.776</ele>
				<time>2015-07-04T08:46:43Z</time>
				<extensions>
				</extensions>
			</trkpt>
			<trkpt lat="-27.894617" lon="153.314328">
				<ele>-0.045</ele>
				<time>2015-07-04T08:46:44Z</time>
				<extensions>
				</extensions>
			</trkpt>
			<trkpt lat="-27.894350" lon="153.314330">
				<ele>-0.555</ele>
				<time>2015-07-04T08:46:45Z</time>
				<extensions>
				</extensions>
			</trkpt>
			<trkpt lat="-27.894075" lon="153.314332">
				<ele>-1.134</ele>
				<time>2015-07-04T08:46:46Z</time>
				<extensions>
				</extensions>
			</trkpt>
			<trkpt lat="-27.893800" lon="153.314340">
				<ele>0.764</ele>
				<time>2015-07-04T08:46:47Z</time>
				<extensions>
				</extensions>
			</trkpt>
			<trkpt lat="-27.893525" lon="153.314349">
				<ele>0.287</ele>
				<time>2015-07-04T08:46:48Z</time>
				<extensions>
				</extensions>
			</trkpt>
			<trkpt lat="-27.893243" lon="153.314355">
				<ele>-0.210</ele>
				<time>2015-07-04T08:46:49Z</time>
				<extensions>
				</extensions>
			</trkpt>
			<trkpt lat="-27.892970" lon="153.314376">
				<ele>0.787</ele>
				<time>2015-07-04T08:46:50Z</time>
				<extensions>
				</extensions>
			</trkpt>
			<trkpt lat="-27.892689" lon="153.314393">
				<ele>0.821</ele>
				<time>2015-07-04T08:46:51Z</time>
				<extensions>
				</extensions>
			</trkpt>
			<trkpt lat="-27.892411" lon="153.314422">
				<ele>2.002</ele>
				<time>2015-07-04T08:46:52Z</time>
				<extensions>
				</extensions>
			</trkpt>
			<trkpt lat="-27.892135" lon="153.314443">
				<ele>1.566</ele>
				<time>2015-07-04T08:46:53Z</time>
				<extensions>
				</extensions>
			</trkpt>
			<trkpt lat="-27.891862" lon="153.314472">
				<ele>1.672</ele>
				<time>2015-07-04T08:46:54Z</time>
				<extensions>
				</extensions>
			</trkpt>
			<trkpt lat="-27.891584" lon="153.314507">
				<ele>1.672</ele>
				<time>2015-07-04T08:46:55Z</time>
				<extensions>
				</extensions>
			</trkpt>
			<trkpt lat="-27.891307" lon="153.314534">
				<ele>0.676</ele>
				<time>2015-07-04T08:46:56Z</time>
				<extensions>
				</extensions>
			</trkpt>
			<trkpt lat="-27.891033" lon="153.314566">
				<ele>0.235</ele>
				<time>2015-07-04T08:46:57Z</time>
				<extensions>
				</extensions>
			</trkpt>
			<trkpt lat="-27.890756" lon="153.314614">
				<ele>2.213</ele>
				<time>2015-07-04T08:46:58Z</time>
				<extensions>
				</extensions>
			</trkpt>
			<trkpt lat="-27.890479" lon="153.314664">
				<ele>1.165</ele>
				<time>2015-07-04T08:46:59Z</time>
				<extensions>
				</extensions>
			</trkpt>
			<trkpt lat="-27.890209" lon="153.314707">
				<ele>2.481</ele>
				<time>2015-07-04T08:47:00Z</time>
				<extensions>
				</extensions>
			</trkpt>
			<trkpt lat="-27.889947" lon="153.314745">
				<ele>2.243</ele>
				<time>2015-07-04T08:47:01Z</time>
				<extensions>
				</extensions>
			</trkpt>
			<trkpt lat="-27.889670" lon="153.314795">
				<ele>1.761</ele>
				<time>2015-07-04T08:47:02Z</time>
				<extensions>
				</extensions>
			</trkpt>
			<trkpt lat="-27.889391" lon="153.314853">
				<ele>2.691</ele>
				<time>2015-07-04T08:47:03Z</time>
				<extensions>
				</extensions>
			</trkpt>
			<trkpt lat="-27.889116" lon="153.314917">
				<ele>2.347</ele>
				<time>2015-07-04T08:47:04Z</time>
				<extensions>
				</extensions>
			</trkpt>
			<trkpt lat="-27.888844" lon="153.314969">
				<ele>2.886</ele>
				<time>2015-07-04T08:47:05Z</time>
				<extensions>
				</extensions>
			</trkpt>
			<trkpt lat="-27.888594" lon="153.315020">
				<ele>3.177</ele>
				<time>2015-07-04T08:47:06Z</time>
				<extensions>
				</extensions>
			</trkpt>
			<trkpt lat="-27.888304" lon="153.315069">
				<ele>2.572</ele>
				<time>2015-07-04T08:47:07Z</time>
				<extensions>
				</extensions>
			</trkpt>
			<trkpt lat="-27.888032" lon="153.315113">
				<ele>2.464</ele>
				<time>2015-07-04T08:47:08Z</time>
				<extensions>
				</extensions>
			</trkpt>
			<trkpt lat="-27.887763" lon="153.315152">
				<ele>1.233</ele>
				<time>2015-07-04T08:47:09Z</time>
				<extensions>
				</extensions>
			</trkpt>
			<trkpt lat="-27.887495" lon="153.315194">
				<ele>1.150</ele>
				<time>2015-07-04T08:47:10Z</time>
				<extensions>
				</extensions>
			</trkpt>
			<trkpt lat="-27.887214" lon="153.315227">
				<ele>1.801</ele>
				<time>2015-07-04T08:47:11Z</time>
				<extensions>
				</extensions>
			</trkpt>
			<trkpt lat="-27.886936" lon="153.315262">
				<ele>2.582</ele>
				<time>2015-07-04T08:47:12Z</time>
				<extensions>
				</extensions>
			</trkpt>
			<trkpt lat="-27.886667" lon="153.315288">
				<ele>1.522</ele>
				<time>2015-07-04T08:47:13Z</time>
				<extensions>
				</extensions>
			</trkpt>
			<trkpt lat="-27.886391" lon="153.315314">
				<ele>0.585</ele>
				<time>2015-07-04T08:47:14Z</time>
				<extensions>
				</extensions>
			</trkpt>
			<trkpt lat="-27.886115" lon="153.315339">
				<ele>1.125</ele>
				<time>2015-07-04T08:47:15Z</time>
				<extensions>
				</extensions>
			</trkpt>
			<trkpt lat="-27.885843" lon="153.315361">
				<ele>0.941</ele>
				<time>2015-07-04T08:47:16Z</time>
				<extensions>
				</extensions>
			</trkpt>
			<trkpt lat="-27.885570" lon="153.315381">
				<ele>1.178</ele>
				<time>2015-07-04T08:47:17Z</time>
				<extensions>
				</extensions>
			</trkpt>
			<trkpt lat="-27.885297" lon="153.315401">
				<ele>0.530</ele>
				<time>2015-07-04T08:47:18Z</time>
				<extensions>
				</extensions>
			</trkpt>
			<trkpt lat="-27.884759" lon="153.315435">
				<ele>1.325</ele>
				<time>2015-07-04T08:47:20Z</time>
				<extensions>
				</extensions>
			</trkpt>
			<trkpt lat="-27.884487" lon="153.315431">
				<ele>3.029</ele>
				<time>2015-07-04T08:47:21Z</time>
				<extensions>
				</extensions>
			</trkpt>
			<trkpt lat="-27.884188" lon="153.315446">
				<ele>2.146</ele>
				<time>2015-07-04T08:47:22Z</time>
				<extensions>
				</extensions>
			</trkpt>
			<trkpt lat="-27.883905" lon="153.315450">
				<ele>3.813</ele>
				<time>2015-07-04T08:47:23Z</time>
				<extensions>
				</extensions>
			</trkpt>
			<trkpt lat="-27.883637" lon="153.315442">
				<ele>3.712</ele>
				<time>2015-07-04T08:47:24Z</time>
				<extensions>
				</extensions>
			</trkpt>
			<trkpt lat="-27.883357" lon="153.315443">
				<ele>4.094</ele>
				<time>2015-07-04T08:47:25Z</time>
				<extensions>
				</extensions>
			</trkpt>
			<trkpt lat="-27.883075" lon="153.315432">
				<ele>4.103</ele>
				<time>2015-07-04T08:47:26Z</time>
				<extensions>
				</extensions>
			</trkpt>
			<trkpt lat="-27.882795" lon="153.315412">
				<ele>5.152</ele>
				<time>2015-07-04T08:47:27Z</time>
				<extensions>
				</extensions>
			</trkpt>
			<trkpt lat="-27.882516" lon="153.315389">
				<ele>5.243</ele>
				<time>2015-07-04T08:47:28Z</time>
				<extensions>
				</extensions>
			</trkpt>
			<trkpt lat="-27.882238" lon="153.315369">
				<ele>6.231</ele>
				<time>2015-07-04T08:47:29Z</time>
				<extensions>
				</extensions>
			</trkpt>
			<trkpt lat="-27.881959" lon="153.315347">
				<ele>3.854</ele>
				<time>2015-07-04T08:47:30Z</time>
				<extensions>
				</extensions>
			</trkpt>
			<trkpt lat="-27.881683" lon="153.315316">
				<ele>6.271</ele>
				<time>2015-07-04T08:47:31Z</time>
				<extensions>
				</extensions>
			</trkpt>
			<trkpt lat="-27.881400" lon="153.315282">
				<ele>6.964</ele>
				<time>2015-07-04T08:47:32Z</time>
				<extensions>
				</extensions>
			</trkpt>
			<trkpt lat="-27.881114" lon="153.315243">
				<ele>7.664</ele>
				<time>2015-07-04T08:47:33Z</time>
				<extensions>
				</extensions>
			</trkpt>
			<trkpt lat="-27.880847" lon="153.315208">
				<ele>7.506</ele>
				<time>2015-07-04T08:47:34Z</time>
				<extensions>
				</extensions>
			</trkpt>
			<trkpt lat="-27.880565" lon="153.315167">
				<ele>7.000</ele>
				<time>2015-07-04T08:47:35Z</time>
				<extensions>
				</extensions>
			</trkpt>
			<trkpt lat="-27.880286" lon="153.315118">
				<ele>6.402</ele>
				<time>2015-07-04T08:47:36Z</time>
				<extensions>
				</extensions>
			</trkpt>
			<trkpt lat="-27.880014" lon="153.315078">
				<ele>8.368</ele>
				<time>2015-07-04T08:47:37Z</time>
				<extensions>
				</extensions>
			</trkpt>
			<trkpt lat="-27.879745" lon="153.315024">
				<ele>7.261</ele>
				<time>2015-07-04T08:47:38Z</time>
				<extensions>
				</extensions>
			</trkpt>
			<trkpt lat="-27.879465" lon="153.314969">
				<ele>5.802</ele>
				<time>2015-07-04T08:47:39Z</time>
				<extensions>
				</extensions>
			</trkpt>
			<trkpt lat="-27.879191" lon="153.314911">
				<ele>7.889</ele>
				<time>2015-07-04T08:47:40Z</time>
				<extensions>
				</extensions>
			</trkpt>
			<trkpt lat="-27.878912" lon="153.314855">
				<ele>6.991</ele>
				<time>2015-07-04T08:47:41Z</time>
				<extensions>
				</extensions>
			</trkpt>
			<trkpt lat="-27.878639" lon="153.314791">
				<ele>4.711</ele>
				<time>2015-07-04T08:47:42Z</time>
				<extensions>
				</extensions>
			</trkpt>
			<trkpt lat="-27.878362" lon="153.314727">
				<ele>4.071</ele>
				<time>2015-07-04T08:47:43Z</time>
				<extensions>
				</extensions>
			</trkpt>
			<trkpt lat="-27.878095" lon="153.314668">
				<ele>4.505</ele>
				<time>2015-07-04T08:47:44Z</time>
				<extensions>
				</extensions>
			</trkpt>
			<trkpt lat="-27.877819" lon="153.314603">
				<ele>4.709</ele>
				<time>2015-07-04T08:47:45Z</time>
				<extensions>
				</extensions>
			</trkpt>
			<trkpt lat="-27.877545" lon="153.314539">
				<ele>4.713</ele>
				<time>2015-07-04T08:47:46Z</time>
				<extensions>
				</extensions>
			</trkpt>
			<trkpt lat="-27.877277" lon="153.314473">
				<ele>5.912</ele>
				<time>2015-07-04T08:47:47Z</time>
				<extensions>
				</extensions>
			</trkpt>
			<trkpt lat="-27.877020" lon="153.314409">
				<ele>3.529</ele>
				<time>2015-07-04T08:47:48Z</time>
				<extensions>
				</extensions>
			</trkpt>
			<trkpt lat="-27.876757" lon="153.314341">
				<ele>5.266</ele>
				<time>2015-07-04T08:47:49Z</time>
				<extensions>
				</extensions>
			</trkpt>
			<trkpt lat="-27.876485" lon="153.314270">
				<ele>3.739</ele>
				<time>2015-07-04T08:47:50Z</time>
				<extensions>
				</extensions>
			</trkpt>
			<trkpt lat="-27.876203" lon="153.314205">
				<ele>3.830</ele>
				<time>2015-07-04T08:47:51Z</time>
				<extensions>
				</extensions>
			</trkpt>
			<trkpt lat="-27.875937" lon="153.314145">
				<ele>3.044</ele>
				<time>2015-07-04T08:47:52Z</time>
				<extensions>
				</extensions>
			</trkpt>
			<trkpt lat="-27.875667" lon="153.314084">
				<ele>2.153</ele>
				<time>2015-07-04T08:47:53Z</time>
				<extensions>
				</extensions>
			</trkpt>
			<trkpt lat="-27.875387" lon="153.314017">
				<ele>2.503</ele>
				<time>2015-07-04T08:47:54Z</time>
				<extensions>
				</extensions>
			</trkpt>
			<trkpt lat="-27.875103" lon="153.313956">
				<ele>2.530</ele>
				<time>2015-07-04T08:47:55Z</time>
				<extensions>
				</extensions>
			</trkpt>
			<trkpt lat="-27.874824" lon="153.313908">
				<ele>3.147</ele>
				<time>2015-07-04T08:47:56Z</time>
				<extensions>
				</extensions>
			</trkpt>
			<trkpt lat="-27.874543" lon="153.313858">
				<ele>4.032</ele>
				<time>2015-07-04T08:47:57Z</time>
				<extensions>
				</extensions>
			</trkpt>
			<trkpt lat="-27.874270" lon="153.313816">
				<ele>3.538</ele>
				<time>2015-07-04T08:47:58Z</time>
				<extensions>
				</extensions>
			</trkpt>
			<trkpt lat="-27.874012" lon="153.313775">
				<ele>3.538</ele>
				<time>2015-07-04T08:47:59Z</time>
				<extensions>
				</extensions>
			</trkpt>
			<trkpt lat="-27.873743" lon="153.313737">
				<ele>2.690</ele>
				<time>2015-07-04T08:48:00Z</time>
				<extensions>
				</extensions>
			</trkpt>
			<trkpt lat="-27.873467" lon="153.313698">
				<ele>2.767</ele>
				<time>2015-07-04T08:48:01Z</time>
				<extensions>
				</extensions>
			</trkpt>
			<trkpt lat="-27.873191" lon="153.313664">
				<ele>2.637</ele>
				<time>2015-07-04T08:48:02Z</time>
				<extensions>
				</extensions>
			</trkpt>
			<trkpt lat="-27.872919" lon="153.313629">
				<ele>2.043</ele>
				<time>2015-07-04T08:48:03Z</time>
				<extensions>
				</extensions>
			</trkpt>
			<trkpt lat="-27.872656" lon="153.313591">
				<ele>2.813</ele>
				<time>2015-07-04T08:48:04Z</time>
				<extensions>
				</extensions>
			</trkpt>
			<trkpt lat="-27.872376" lon="153.313558">
				<ele>4.096</ele>
				<time>2015-07-04T08:48:05Z</time>
				<extensions>
				</extensions>
			</trkpt>
			<trkpt lat="-27.872110" lon="153.313522">
				<ele>3.935</ele>
				<time>2015-07-04T08:48:06Z</time>
				<extensions>
				</extensions>
			</trkpt>
			<trkpt lat="-27.871827" lon="153.313480">
				<ele>4.176</ele>
				<time>2015-07-04T08:48:07Z</time>
				<extensions>
				</extensions>
			</trkpt>
			<trkpt lat="-27.871549" lon="153.313453">
				<ele>3.853</ele>
				<time>2015-07-04T08:48:08Z</time>
				<extensions>
				</extensions>
			</trkpt>
			<trkpt lat="-27.871265" lon="153.313415">
				<ele>5.839</ele>
				<time>2015-07-04T08:48:09Z</time>
				<extensions>
				</extensions>
			</trkpt>
			<trkpt lat="-27.870986" lon="153.313379">
				<ele>4.359</ele>
				<time>2015-07-04T08:48:10Z</time>
				<extensions>
				</extensions>
			</trkpt>
			<trkpt lat="-27.870708" lon="153.313340">
				<ele>3.744</ele>
				<time>2015-07-04T08:48:11Z</time>
				<extensions>
				</extensions>
			</trkpt>
			<trkpt lat="-27.870433" lon="153.313300">
				<ele>4.824</ele>
				<time>2015-07-04T08:48:12Z</time>
				<extensions>
				</extensions>
			</trkpt>
			<trkpt lat="-27.870148" lon="153.313266">
				<ele>3.896</ele>
				<time>2015-07-04T08:48:13Z</time>
				<extensions>
				</extensions>
			</trkpt>
			<trkpt lat="-27.869866" lon="153.313227">
				<ele>4.885</ele>
				<time>2015-07-04T08:48:14Z</time>
				<extensions>
				</extensions>
			</trkpt>
			<trkpt lat="-27.869582" lon="153.313182">
				<ele>3.553</ele>
				<time>2015-07-04T08:48:15Z</time>
				<extensions>
				</extensions>
			</trkpt>
			<trkpt lat="-27.869301" lon="153.313124">
				<ele>6.044</ele>
				<time>2015-07-04T08:48:16Z</time>
				<extensions>
				</extensions>
			</trkpt>
			<trkpt lat="-27.869026" lon="153.313061">
				<ele>5.053</ele>
				<time>2015-07-04T08:48:17Z</time>
				<extensions>
				</extensions>
			</trkpt>
			<trkpt lat="-27.868747" lon="153.313005">
				<ele>5.046</ele>
				<time>2015-07-04T08:48:18Z</time>
				<extensions>
				</extensions>
			</trkpt>
			<trkpt lat="-27.868467" lon="153.312951">
				<ele>5.848</ele>
				<time>2015-07-04T08:48:19Z</time>
				<extensions>
				</extensions>
			</trkpt>
			<trkpt lat="-27.868184" lon="153.312892">
				<ele>4.166</ele>
				<time>2015-07-04T08:48:20Z</time>
				<extensions>
				</extensions>
			</trkpt>
			<trkpt lat="-27.867899" lon="153.312826">
				<ele>6.897</ele>
				<time>2015-07-04T08:48:21Z</time>
				<extensions>
				</extensions>
			</trkpt>
			<trkpt lat="-27.867613" lon="153.312759">
				<ele>7.040</ele>
				<time>2015-07-04T08:48:22Z</time>
				<extensions>
				</extensions>
			</trkpt>
			<trkpt lat="-27.867332" lon="153.312683">
				<ele>5.025</ele>
				<time>2015-07-04T08:48:23Z</time>
				<extensions>
				</extensions>
			</trkpt>
			<trkpt lat="-27.867056" lon="153.312602">
				<ele>6.437</ele>
				<time>2015-07-04T08:48:24Z</time>
				<extensions>
				</extensions>
			</trkpt>
			<trkpt lat="-27.866783" lon="153.312521">
				<ele>5.825</ele>
				<time>2015-07-04T08:48:25Z</time>
				<extensions>
				</extensions>
			</trkpt>
			<trkpt lat="-27.866512" lon="153.312446">
				<ele>3.219</ele>
				<time>2015-07-04T08:48:26Z</time>
				<extensions>
				</extensions>
			</trkpt>
			<trkpt lat="-27.866234" lon="153.312362">
				<ele>2.781</ele>
				<time>2015-07-04T08:48:27Z</time>
				<extensions>
				</extensions>
			</trkpt>
			<trkpt lat="-27.865961" lon="153.312284">
				<ele>3.101</ele>
				<time>2015-07-04T08:48:28Z</time>
				<extensions>
				</extensions>
			</trkpt>
			<trkpt lat="-27.865694" lon="153.312204">
				<ele>3.087</ele>
				<time>2015-07-04T08:48:29Z</time>
				<extensions>
				</extensions>
			</trkpt>
			<trkpt lat="-27.865415" lon="153.312107">
				<ele>3.348</ele>
				<time>2015-07-04T08:48:30Z</time>
				<extensions>
				</extensions>
			</trkpt>
			<trkpt lat="-27.865153" lon="153.312013">
				<ele>3.814</ele>
				<time>2015-07-04T08:48:31Z</time>
				<extensions>
				</extensions>
			</trkpt>
			<trkpt lat="-27.864898" lon="153.311914">
				<ele>2.726</ele>
				<time>2015-07-04T08:48:32Z</time>
				<extensions>
				</extensions>
			</trkpt>
			<trkpt lat="-27.864627" lon="153.311806">
				<ele>1.718</ele>
				<time>2015-07-04T08:48:33Z</time>
				<extensions>
				</extensions>
			</trkpt>
			<trkpt lat="-27.864364" lon="153.311700">
				<ele>3.425</ele>
				<time>2015-07-04T08:48:34Z</time>
				<extensions>
				</extensions>
			</trkpt>
			<trkpt lat="-27.864095" lon="153.311593">
				<ele>4.329</ele>
				<time>2015-07-04T08:48:35Z</time>
				<extensions>
				</extensions>
			</trkpt>
			<trkpt lat="-27.863835" lon="153.311484">
				<ele>3.814</ele>
				<time>2015-07-04T08:48:36Z</time>
				<extensions>
				</extensions>
			</trkpt>
			<trkpt lat="-27.863581" lon="153.311372">
				<ele>3.502</ele>
				<time>2015-07-04T08:48:37Z</time>
				<extensions>
				</extensions>
			</trkpt>
			<trkpt lat="-27.863317" lon="153.311258">
				<ele>2.040</ele>
				<time>2015-07-04T08:48:38Z</time>
				<extensions>
				</extensions>
			</trkpt>
			<trkpt lat="-27.863061" lon="153.311145">
				<ele>4.349</ele>
				<time>2015-07-04T08:48:39Z</time>
				<extensions>
				</extensions>
			</trkpt>
			<trkpt lat="-27.862802" lon="153.311032">
				<ele>3.710</ele>
				<time>2015-07-04T08:48:40Z</time>
				<extensions>
				</extensions>
			</trkpt>
			<trkpt lat="-27.862538" lon="153.310908">
				<ele>4.203</ele>
				<time>2015-07-04T08:48:41Z</time>
				<extensions>
				</extensions>
			</trkpt>
			<trkpt lat="-27.862284" lon="153.310782">
				<ele>5.336</ele>
				<time>2015-07-04T08:48:42Z</time>
				<extensions>
				</extensions>
			</trkpt>
			<trkpt lat="-27.862028" lon="153.310658">
				<ele>4.115</ele>
				<time>2015-07-04T08:48:43Z</time>
				<extensions>
				</extensions>
			</trkpt>
			<trkpt lat="-27.861777" lon="153.310537">
				<ele>4.235</ele>
				<time>2015-07-04T08:48:44Z</time>
				<extensions>
				</extensions>
			</trkpt>
			<trkpt lat="-27.861513" lon="153.310413">
				<ele>3.219</ele>
				<time>2015-07-04T08:48:45Z</time>
				<extensions>
				</extensions>
			</trkpt>
			<trkpt lat="-27.861249" lon="153.310289">
				<ele>4.255</ele>
				<time>2015-07-04T08:48:46Z</time>
				<extensions>
				</extensions>
			</trkpt>
			<trkpt lat="-27.860991" lon="153.310173">
				<ele>3.717</ele>
				<time>2015-07-04T08:48:47Z</time>
				<extensions>
				</extensions>
			</trkpt>
			<trkpt lat="-27.860732" lon="153.310056">
				<ele>3.571</ele>
				<time>2015-07-04T08:48:48Z</time>
				<extensions>
				</extensions>
			</trkpt>
			<trkpt lat="-27.860478" lon="153.309933">
				<ele>2.591</ele>
				<time>2015-07-04T08:48:49Z</time>
				<extensions>
				</extensions>
			</trkpt>
			<trkpt lat="-27.860214" lon="153.309817">
				<ele>4.715</ele>
				<time>2015-07-04T08:48:50Z</time>
				<extensions>
				</extensions>
			</trkpt>
			<trkpt lat="-27.859942" lon="153.309699">
				<ele>3.745</ele>
				<time>2015-07-04T08:48:51Z</time>
				<extensions>
				</extensions>
			</trkpt>
			<trkpt lat="-27.859673" lon="153.309588">
				<ele>5.947</ele>
				<time>2015-07-04T08:48:52Z</time>
				<extensions>
				</extensions>
			</trkpt>
			<trkpt lat="-27.859400" lon="153.309484">
				<ele>4.602</ele>
				<time>2015-07-04T08:48:53Z</time>
				<extensions>
				</extensions>
			</trkpt>
			<trkpt lat="-27.859131" lon="153.309382">
				<ele>5.279</ele>
				<time>2015-07-04T08:48:54Z</time>
				<extensions>
				</extensions>
			</trkpt>
			<trkpt lat="-27.858863" lon="153.309282">
				<ele>5.585</ele>
				<time>2015-07-04T08:48:55Z</time>
				<extensions>
				</extensions>
			</trkpt>
			<trkpt lat="-27.858602" lon="153.309185">
				<ele>4.363</ele>
				<time>2015-07-04T08:48:56Z</time>
				<extensions>
				</extensions>
			</trkpt>
			<trkpt lat="-27.858337" lon="153.309092">
				<ele>3.975</ele>
				<time>2015-07-04T08:48:57Z</time>
				<extensions>
				</extensions>
			</trkpt>
			<trkpt lat="-27.858053" lon="153.308996">
				<ele>4.630</ele>
				<time>2015-07-04T08:48:58Z</time>
				<extensions>
				</extensions>
			</trkpt>
			<trkpt lat="-27.857783" lon="153.308912">
				<ele>5.015</ele>
				<time>2015-07-04T08:48:59Z</time>
				<extensions>
				</extensions>
			</trkpt>
			<trkpt lat="-27.857521" lon="153.308827">
				<ele>6.275</ele>
				<time>2015-07-04T08:49:00Z</time>
				<extensions>
				</extensions>
			</trkpt>
			<trkpt lat="-27.857249" lon="153.308748">
				<ele>6.275</ele>
				<time>2015-07-04T08:49:01Z</time>
				<extensions>
				</extensions>
			</trkpt>
			<trkpt lat="-27.856979" lon="153.308672">
				<ele>5.889</ele>
				<time>2015-07-04T08:49:02Z</time>
				<extensions>
				</extensions>
			</trkpt>
			<trkpt lat="-27.856709" lon="153.308600">
				<ele>5.004</ele>
				<time>2015-07-04T08:49:03Z</time>
				<extensions>
				</extensions>
			</trkpt>
			<trkpt lat="-27.856449" lon="153.308523">
				<ele>5.746</ele>
				<time>2015-07-04T08:49:04Z</time>
				<extensions>
				</extensions>
			</trkpt>
			<trkpt lat="-27.856191" lon="153.308455">
				<ele>6.657</ele>
				<time>2015-07-04T08:49:05Z</time>
				<extensions>
				</extensions>
			</trkpt>
			<trkpt lat="-27.855918" lon="153.308387">
				<ele>5.201</ele>
				<time>2015-07-04T08:49:06Z</time>
				<extensions>
				</extensions>
			</trkpt>
			<trkpt lat="-27.855645" lon="153.308322">
				<ele>6.277</ele>
				<time>2015-07-04T08:49:07Z</time>
				<extensions>
				</extensions>
			</trkpt>
			<trkpt lat="-27.855375" lon="153.308261">
				<ele>4.161</ele>
				<time>2015-07-04T08:49:08Z</time>
				<extensions>
				</extensions>
			</trkpt>
			<trkpt lat="-27.855108" lon="153.308208">
				<ele>2.859</ele>
				<time>2015-07-04T08:49:09Z</time>
				<extensions>
				</extensions>
			</trkpt>
			<trkpt lat="-27.854836" lon="153.308151">
				<ele>3.461</ele>
				<time>2015-07-04T08:49:10Z</time>
				<extensions>
				</extensions>
			</trkpt>
			<trkpt lat="-27.854559" lon="153.308091">
				<ele>3.788</ele>
				<time>2015-07-04T08:49:11Z</time>
				<extensions>
				</extensions>
			</trkpt>
			<trkpt lat="-27.854281" lon="153.308027">
				<ele>6.640</ele>
				<time>2015-07-04T08:49:12Z</time>
				<extensions>
				</extensions>
			</trkpt>
			<trkpt lat="-27.854004" lon="153.307958">
				<ele>6.494</ele>
				<time>2015-07-04T08:49:13Z</time>
				<extensions>
				</extensions>
			</trkpt>
			<trkpt lat="-27.853729" lon="153.307882">
				<ele>5.464</ele>
				<time>2015-07-04T08:49:14Z</time>
				<extensions>
				</extensions>
			</trkpt>
			<trkpt lat="-27.853450" lon="153.307813">
				<ele>3.977</ele>
				<time>2015-07-04T08:49:15Z</time>
				<extensions>
				</extensions>
			</trkpt>
			<trkpt lat="-27.853168" lon="153.307745">
				<ele>7.757</ele>
				<time>2015-07-04T08:49:16Z</time>
				<extensions>
				</extensions>
			</trkpt>
			<trkpt lat="-27.852896" lon="153.307672">
				<ele>8.661</ele>
				<time>2015-07-04T08:49:17Z</time>
				<extensions>
				</extensions>
			</trkpt>
			<trkpt lat="-27.852618" lon="153.307594">
				<ele>8.563</ele>
				<time>2015-07-04T08:49:18Z</time>
				<extensions>
				</extensions>
			</trkpt>
			<trkpt lat="-27.852340" lon="153.307516">
				<ele>7.525</ele>
				<time>2015-07-04T08:49:19Z</time>
				<extensions>
				</extensions>
			</trkpt>
			<trkpt lat="-27.852069" lon="153.307438">
				<ele>8.636</ele>
				<time>2015-07-04T08:49:20Z</time>
				<extensions>
				</extensions>
			</trkpt>
			<trkpt lat="-27.851801" lon="153.307354">
				<ele>8.812</ele>
				<time>2015-07-04T08:49:21Z</time>
				<extensions>
				</extensions>
			</trkpt>
			<trkpt lat="-27.851551" lon="153.307275">
				<ele>8.326</ele>
				<time>2015-07-04T08:49:22Z</time>
				<extensions>
				</extensions>
			</trkpt>
			<trkpt lat="-27.851287" lon="153.307198">
				<ele>7.546</ele>
				<time>2015-07-04T08:49:23Z</time>
				<extensions>
				</extensions>
			</trkpt>
			<trkpt lat="-27.851030" lon="153.307111">
				<ele>10.571</ele>
				<time>2015-07-04T08:49:24Z</time>
				<extensions>
				</extensions>
			</trkpt>
			<trkpt lat="-27.850761" lon="153.307020">
				<ele>10.090</ele>
				<time>2015-07-04T08:49:25Z</time>
				<extensions>
				</extensions>
			</trkpt>
			<trkpt lat="-27.850486" lon="153.306932">
				<ele>10.468</ele>
				<time>2015-07-04T08:49:26Z</time>
				<extensions>
				</extensions>
			</trkpt>
			<trkpt lat="-27.850220" lon="153.306844">
				<ele>10.338</ele>
				<time>2015-07-04T08:49:27Z</time>
				<extensions>
				</extensions>
			</trkpt>
			<trkpt lat="-27.849955" lon="153.306742">
				<ele>9.492</ele>
				<time>2015-07-04T08:49:28Z</time>
				<extensions>
				</extensions>
			</trkpt>
			<trkpt lat="-27.849675" lon="153.306641">
				<ele>10.969</ele>
				<time>2015-07-04T08:49:29Z</time>
				<extensions>
				</extensions>
			</trkpt>
			<trkpt lat="-27.849395" lon="153.306537">
				<ele>12.897</ele>
				<time>2015-07-04T08:49:30Z</time>
				<extensions>
				</extensions>
			</trkpt>
			<trkpt lat="-27.849121" lon="153.306435">
				<ele>11.440</ele>
				<time>2015-07-04T08:49:31Z</time>
				<extensions>
				</extensions>
			</trkpt>
			<trkpt lat="-27.848856" lon="153.306326">
				<ele>10.381</ele>
				<time>2015-07-04T08:49:32Z</time>
				<extensions>
				</extensions>
			</trkpt>
			<trkpt lat="-27.848576" lon="153.306217">
				<ele>10.931</ele>
				<time>2015-07-04T08:49:33Z</time>
				<extensions>
				</extensions>
			</trkpt>
			<trkpt lat="-27.848307" lon="153.306105">
				<ele>10.590</ele>
				<time>2015-07-04T08:49:34Z</time>
				<extensions>
				</extensions>
			</trkpt>
			<trkpt lat="-27.848053" lon="153.305998">
				<ele>10.273</ele>
				<time>2015-07-04T08:49:35Z</time>
				<extensions>
				</extensions>
			</trkpt>
			<trkpt lat="-27.847792" lon="153.305878">
				<ele>10.294</ele>
				<time>2015-07-04T08:49:36Z</time>
				<extensions>
				</extensions>
			</trkpt>
			<trkpt lat="-27.847530" lon="153.305772">
				<ele>9.825</ele>
				<time>2015-07-04T08:49:37Z</time>
				<extensions>
				</extensions>
			</trkpt>
			<trkpt lat="-27.847265" lon="153.305670">
				<ele>9.151</ele>
				<time>2015-07-04T08:49:38Z</time>
				<extensions>
				</extensions>
			</trkpt>
			<trkpt lat="-27.846998" lon="153.305567">
				<ele>9.890</ele>
				<time>2015-07-04T08:49:39Z</time>
				<extensions>
				</extensions>
			</trkpt>
			<trkpt lat="-27.846733" lon="153.305465">
				<ele>9.238</ele>
				<time>2015-07-04T08:49:40Z</time>
				<extensions>
				</extensions>
			</trkpt>
			<trkpt lat="-27.846468" lon="153.305367">
				<ele>10.246</ele>
				<time>2015-07-04T08:49:41Z</time>
				<extensions>
				</extensions>
			</trkpt>
			<trkpt lat="-27.846199" lon="153.305263">
				<ele>10.790</ele>
				<time>2015-07-04T08:49:42Z</time>
				<extensions>
				</extensions>
			</trkpt>
			<trkpt lat="-27.845928" lon="153.305163">
				<ele>8.147</ele>
				<time>2015-07-04T08:49:43Z</time>
				<extensions>
				</extensions>
			</trkpt>
			<trkpt lat="-27.845665" lon="153.305071">
				<ele>8.546</ele>
				<time>2015-07-04T08:49:44Z</time>
				<extensions>
				</extensions>
			</trkpt>
			<trkpt lat="-27.845394" lon="153.304980">
				<ele>9.094</ele>
				<time>2015-07-04T08:49:45Z</time>
				<extensions>
				</extensions>
			</trkpt>
			<trkpt lat="-27.845127" lon="153.304882">
				<ele>9.159</ele>
				<time>2015-07-04T08:49:46Z</time>
				<extensions>
				</extensions>
			</trkpt>
			<trkpt lat="-27.844856" lon="153.304801">
				<ele>8.879</ele>
				<time>2015-07-04T08:49:47Z</time>
				<extensions>
				</extensions>
			</trkpt>
			<trkpt lat="-27.844594" lon="153.304718">
				<ele>10.372</ele>
				<time>2015-07-04T08:49:48Z</time>
				<extensions>
				</extensions>
			</trkpt>
			<trkpt lat="-27.844333" lon="153.304637">
				<ele>9.983</ele>
				<time>2015-07-04T08:49:49Z</time>
				<extensions>
				</extensions>
			</trkpt>
			<trkpt lat="-27.844067" lon="153.304550">
				<ele>9.960</ele>
				<time>2015-07-04T08:49:50Z</time>
				<extensions>
				</extensions>
			</trkpt>
			<trkpt lat="-27.843798" lon="153.304465">
				<ele>10.210</ele>
				<time>2015-07-04T08:49:51Z</time>
				<extensions>
				</extensions>
			</trkpt>
			<trkpt lat="-27.843530" lon="153.304389">
				<ele>11.058</ele>
				<time>2015-07-04T08:49:52Z</time>
				<extensions>
				</extensions>
			</trkpt>
			<trkpt lat="-27.843258" lon="153.304312">
				<ele>11.617</ele>
				<time>2015-07-04T08:49:53Z</time>
				<extensions>
				</extensions>
			</trkpt>
			<trkpt lat="-27.842998" lon="153.304241">
				<ele>11.856</ele>
				<time>2015-07-04T08:49:54Z</time>
				<extensions>
				</extensions>
			</trkpt>
			<trkpt lat="-27.842723" lon="153.304170">
				<ele>14.751</ele>
				<time>2015-07-04T08:49:55Z</time>
				<extensions>
				</extensions>
			</trkpt>
			<trkpt lat="-27.842444" lon="153.304102">
				<ele>15.241</ele>
				<time>2015-07-04T08:49:56Z</time>
				<extensions>
				</extensions>
			</trkpt>
			<trkpt lat="-27.842173" lon="153.304028">
				<ele>15.764</ele>
				<time>2015-07-04T08:49:57Z</time>
				<extensions>
				</extensions>
			</trkpt>
			<trkpt lat="-27.841903" lon="153.303960">
				<ele>15.355</ele>
				<time>2015-07-04T08:49:58Z</time>
				<extensions>
				</extensions>
			</trkpt>
			<trkpt lat="-27.841626" lon="153.303894">
				<ele>13.920</ele>
				<time>2015-07-04T08:49:59Z</time>
				<extensions>
				</extensions>
			</trkpt>
			<trkpt lat="-27.841353" lon="153.303833">
				<ele>15.515</ele>
				<time>2015-07-04T08:50:00Z</time>
				<extensions>
				</extensions>
			</trkpt>
			<trkpt lat="-27.841081" lon="153.303761">
				<ele>16.887</ele>
				<time>2015-07-04T08:50:01Z</time>
				<extensions>
				</extensions>
			</trkpt>
			<trkpt lat="-27.840801" lon="153.303693">
				<ele>16.713</ele>
				<time>2015-07-04T08:50:02Z</time>
				<extensions>
				</extensions>
			</trkpt>
			<trkpt lat="-27.840522" lon="153.303619">
				<ele>16.713</ele>
				<time>2015-07-04T08:50:03Z</time>
				<extensions>
				</extensions>
			</trkpt>
			<trkpt lat="-27.840233" lon="153.303551">
				<ele>17.534</ele>
				<time>2015-07-04T08:50:04Z</time>
				<extensions>
				</extensions>
			</trkpt>
			<trkpt lat="-27.839950" lon="153.303485">
				<ele>16.355</ele>
				<time>2015-07-04T08:50:05Z</time>
				<extensions>
				</extensions>
			</trkpt>
			<trkpt lat="-27.839683" lon="153.303420">
				<ele>16.680</ele>
				<time>2015-07-04T08:50:06Z</time>
				<extensions>
				</extensions>
			</trkpt>
			<trkpt lat="-27.839406" lon="153.303355">
				<ele>16.203</ele>
				<time>2015-07-04T08:50:07Z</time>
				<extensions>
				</extensions>
			</trkpt>
			<trkpt lat="-27.839121" lon="153.303287">
				<ele>18.250</ele>
				<time>2015-07-04T08:50:08Z</time>
				<extensions>
				</extensions>
			</trkpt>
			<trkpt lat="-27.838837" lon="153.303224">
				<ele>19.178</ele>
				<time>2015-07-04T08:50:09Z</time>
				<extensions>
				</extensions>
			</trkpt>
			<trkpt lat="-27.838560" lon="153.303149">
				<ele>18.832</ele>
				<time>2015-07-04T08:50:10Z</time>
				<extensions>
				</extensions>
			</trkpt>
			<trkpt lat="-27.838281" lon="153.303082">
				<ele>18.773</ele>
				<time>2015-07-04T08:50:11Z</time>
				<extensions>
				</extensions>
			</trkpt>
			<trkpt lat="-27.837994" lon="153.303009">
				<ele>18.043</ele>
				<time>2015-07-04T08:50:12Z</time>
				<extensions>
				</extensions>
			</trkpt>
			<trkpt lat="-27.837709" lon="153.302945">
				<ele>18.609</ele>
				<time>2015-07-04T08:50:13Z</time>
				<extensions>
				</extensions>
			</trkpt>
			<trkpt lat="-27.837420" lon="153.302872">
				<ele>19.252</ele>
				<time>2015-07-04T08:50:14Z</time>
				<extensions>
				</extensions>
			</trkpt>
			<trkpt lat="-27.837134" lon="153.302804">
				<ele>17.955</ele>
				<time>2015-07-04T08:50:15Z</time>
				<extensions>
				</extensions>
			</trkpt>
			<trkpt lat="-27.836845" lon="153.302728">
				<ele>19.054</ele>
				<time>2015-07-04T08:50:16Z</time>
				<extensions>
				</extensions>
			</trkpt>
			<trkpt lat="-27.836560" lon="153.302660">
				<ele>17.853</ele>
				<time>2015-07-04T08:50:17Z</time>
				<extensions>
				</extensions>
			</trkpt>
			<trkpt lat="-27.836277" lon="153.302585">
				<ele>18.307</ele>
				<time>2015-07-04T08:50:18Z</time>
				<extensions>
				</extensions>
			</trkpt>
			<trkpt lat="-27.835992" lon="153.302509">
				<ele>17.711</ele>
				<time>2015-07-04T08:50:19Z</time>
				<extensions>
				</extensions>
			</trkpt>
			<trkpt lat="-27.835702" lon="153.302442">
				<ele>17.266</ele>
				<time>2015-07-04T08:50:20Z</time>
				<extensions>
				</extensions>
			</trkpt>
			<trkpt lat="-27.835410" lon="153.302371">
				<ele>17.096</ele>
				<time>2015-07-04T08:50:21Z</time>
				<extensions>
				</extensions>
			</trkpt>
			<trkpt lat="-27.835121" lon="153.302300">
				<ele>16.413</ele>
				<time>2015-07-04T08:50:22Z</time>
				<extensions>
				</extensions>
			</trkpt>
			<trkpt lat="-27.834828" lon="153.302230">
				<ele>16.828</ele>
				<time>2015-07-04T08:50:23Z</time>
				<extensions>
				</extensions>
			</trkpt>
			<trkpt lat="-27.834540" lon="153.302154">
				<ele>15.764</ele>
				<time>2015-07-04T08:50:24Z</time>
				<extensions>
				</extensions>
			</trkpt>
			<trkpt lat="-27.834257" lon="153.302085">
				<ele>15.739</ele>
				<time>2015-07-04T08:50:25Z</time>
				<extensions>
				</extensions>
			</trkpt>
			<trkpt lat="-27.833971" lon="153.302013">
				<ele>13.120</ele>
				<time>2015-07-04T08:50:26Z</time>
				<extensions>
				</extensions>
			</trkpt>
			<trkpt lat="-27.833680" lon="153.301939">
				<ele>15.003</ele>
				<time>2015-07-04T08:50:27Z</time>
				<extensions>
				</extensions>
			</trkpt>
			<trkpt lat="-27.833403" lon="153.301863">
				<ele>14.181</ele>
				<time>2015-07-04T08:50:28Z</time>
				<extensions>
				</extensions>
			</trkpt>
			<trkpt lat="-27.833107" lon="153.301774">
				<ele>12.926</ele>
				<time>2015-07-04T08:50:29Z</time>
				<extensions>
				</extensions>
			</trkpt>
			<trkpt lat="-27.832822" lon="153.301687">
				<ele>12.036</ele>
				<time>2015-07-04T08:50:30Z</time>
				<extensions>
				</extensions>
			</trkpt>
			<trkpt lat="-27.832550" lon="153.301597">
				<ele>10.332</ele>
				<time>2015-07-04T08:50:31Z</time>
				<extensions>
				</extensions>
			</trkpt>
			<trkpt lat="-27.832279" lon="153.301510">
				<ele>10.611</ele>
				<time>2015-07-04T08:50:32Z</time>
				<extensions>
				</extensions>
			</trkpt>
			<trkpt lat="-27.832016" lon="153.301410">
				<ele>11.349</ele>
				<time>2015-07-04T08:50:33Z</time>
				<extensions>
				</extensions>
			</trkpt>
			<trkpt lat="-27.831742" lon="153.301288">
				<ele>12.646</ele>
				<time>2015-07-04T08:50:34Z</time>
				<extensions>
				</extensions>
			</trkpt>
			<trkpt lat="-27.831471" lon="153.301181">
				<ele>12.627</ele>
				<time>2015-07-04T08:50:35Z</time>
				<extensions>
				</extensions>
			</trkpt>
			<trkpt lat="-27.831195" lon="153.301063">
				<ele>12.477</ele>
				<time>2015-07-04T08:50:36Z</time>
				<extensions>
				</extensions>
			</trkpt>
			<trkpt lat="-27.830926" lon="153.300941">
				<ele>12.756</ele>
				<time>2015-07-04T08:50:37Z</time>
				<extensions>
				</extensions>
			</trkpt>
			<trkpt lat="-27.830661" lon="153.300823">
				<ele>13.338</ele>
				<time>2015-07-04T08:50:38Z</time>
				<extensions>
				</extensions>
			</trkpt>
			<trkpt lat="-27.830392" lon="153.300689">
				<ele>14.410</ele>
				<time>2015-07-04T08:50:39Z</time>
				<extensions>
				</extensions>
			</trkpt>
			<trkpt lat="-27.830126" lon="153.300553">
				<ele>14.402</ele>
				<time>2015-07-04T08:50:40Z</time>
				<extensions>
				</extensions>
			</trkpt>
			<trkpt lat="-27.829869" lon="153.300415">
				<ele>15.150</ele>
				<time>2015-07-04T08:50:41Z</time>
				<extensions>
				</extensions>
			</trkpt>
			<trkpt lat="-27.829619" lon="153.300274">
				<ele>15.426</ele>
				<time>2015-07-04T08:50:42Z</time>
				<extensions>
				</extensions>
			</trkpt>
			<trkpt lat="-27.829373" lon="153.300127">
				<ele>16.203</ele>
				<time>2015-07-04T08:50:43Z</time>
				<extensions>
				</extensions>
			</trkpt>
			<trkpt lat="-27.829118" lon="153.299981">
				<ele>15.220</ele>
				<time>2015-07-04T08:50:44Z</time>
				<extensions>
				</extensions>
			</trkpt>
			<trkpt lat="-27.828867" lon="153.299825">
				<ele>16.975</ele>
				<time>2015-07-04T08:50:45Z</time>
				<extensions>
				</extensions>
			</trkpt>
			<trkpt lat="-27.828614" lon="153.299656">
				<ele>18.378</ele>
				<time>2015-07-04T08:50:46Z</time>
				<extensions>
				</extensions>
			</trkpt>
			<trkpt lat="-27.828377" lon="153.299494">
				<ele>18.687</ele>
				<time>2015-07-04T08:50:47Z</time>
				<extensions>
				</extensions>
			</trkpt>
			<trkpt lat="-27.828144" lon="153.299322">
				<ele>17.729</ele>
				<time>2015-07-04T08:50:48Z</time>
				<extensions>
				</extensions>
			</trkpt>
			<trkpt lat="-27.827903" lon="153.299142">
				<ele>17.878</ele>
				<time>2015-07-04T08:50:49Z</time>
				<extensions>
				</extensions>
			</trkpt>
			<trkpt lat="-27.827664" lon="153.298951">
				<ele>17.094</ele>
				<time>2015-07-04T08:50:50Z</time>
				<extensions>
				</extensions>
			</trkpt>
			<trkpt lat="-27.827426" lon="153.298763">
				<ele>18.039</ele>
				<time>2015-07-04T08:50:51Z</time>
				<extensions>
				</extensions>
			</trkpt>
			<trkpt lat="-27.827198" lon="153.298572">
				<ele>18.035</ele>
				<time>2015-07-04T08:50:52Z</time>
				<extensions>
				</extensions>
			</trkpt>
			<trkpt lat="-27.826967" lon="153.298376">
				<ele>16.681</ele>
				<time>2015-07-04T08:50:53Z</time>
				<extensions>
				</extensions>
			</trkpt>
			<trkpt lat="-27.826743" lon="153.298182">
				<ele>17.894</ele>
				<time>2015-07-04T08:50:54Z</time>
				<extensions>
				</extensions>
			</trkpt>
			<trkpt lat="-27.826521" lon="153.297990">
				<ele>16.849</ele>
				<time>2015-07-04T08:50:55Z</time>
				<extensions>
				</extensions>
			</trkpt>
			<trkpt lat="-27.826307" lon="153.297789">
				<ele>17.161</ele>
				<time>2015-07-04T08:50:56Z</time>
				<extensions>
				</extensions>
			</trkpt>
			<trkpt lat="-27.826091" lon="153.297582">
				<ele>16.761</ele>
				<time>2015-07-04T08:50:57Z</time>
				<extensions>
				</extensions>
			</trkpt>
			<trkpt lat="-27.825885" lon="153.297376">
				<ele>17.192</ele>
				<time>2015-07-04T08:50:58Z</time>
				<extensions>
				</extensions>
			</trkpt>
			<trkpt lat="-27.825679" lon="153.297171">
				<ele>16.650</ele>
				<time>2015-07-04T08:50:59Z</time>
				<extensions>
				</extensions>
			</trkpt>
			<trkpt lat="-27.825474" lon="153.296957">
				<ele>16.609</ele>
				<time>2015-07-04T08:51:00Z</time>
				<extensions>
				</extensions>
			</trkpt>
			<trkpt lat="-27.825271" lon="153.296737">
				<ele>17.777</ele>
				<time>2015-07-04T08:51:01Z</time>
				<extensions>
				</extensions>
			</trkpt>
			<trkpt lat="-27.825077" lon="153.296510">
				<ele>18.062</ele>
				<time>2015-07-04T08:51:02Z</time>
				<extensions>
				</extensions>
			</trkpt>
			<trkpt lat="-27.824882" lon="153.296273">
				<ele>16.208</ele>
				<time>2015-07-04T08:51:03Z</time>
				<extensions>
				</extensions>
			</trkpt>
			<trkpt lat="-27.824693" lon="153.296040">
				<ele>16.762</ele>
				<time>2015-07-04T08:51:04Z</time>
				<extensions>
				</extensions>
			</trkpt>
			<trkpt lat="-27.824502" lon="153.295801">
				<ele>15.965</ele>
				<time>2015-07-04T08:51:05Z</time>
				<extensions>
				</extensions>
			</trkpt>
			<trkpt lat="-27.824318" lon="153.295556">
				<ele>15.965</ele>
				<time>2015-07-04T08:51:06Z</time>
				<extensions>
				</extensions>
			</trkpt>
			<trkpt lat="-27.824130" lon="153.295311">
				<ele>18.215</ele>
				<time>2015-07-04T08:51:07Z</time>
				<extensions>
				</extensions>
			</trkpt>
			<trkpt lat="-27.823950" lon="153.295065">
				<ele>15.788</ele>
				<time>2015-07-04T08:51:08Z</time>
				<extensions>
				</extensions>
			</trkpt>
			<trkpt lat="-27.823775" lon="153.294814">
				<ele>14.349</ele>
				<time>2015-07-04T08:51:09Z</time>
				<extensions>
				</extensions>
			</trkpt>
			<trkpt lat="-27.823601" lon="153.294556">
				<ele>12.581</ele>
				<time>2015-07-04T08:51:10Z</time>
				<extensions>
				</extensions>
			</trkpt>
			<trkpt lat="-27.823433" lon="153.294297">
				<ele>11.760</ele>
				<time>2015-07-04T08:51:11Z</time>
				<extensions>
				</extensions>
			</trkpt>
			<trkpt lat="-27.823267" lon="153.294034">
				<ele>10.657</ele>
				<time>2015-07-04T08:51:12Z</time>
				<extensions>
				</extensions>
			</trkpt>
			<trkpt lat="-27.823105" lon="153.293768">
				<ele>11.925</ele>
				<time>2015-07-04T08:51:13Z</time>
				<extensions>
				</extensions>
			</trkpt>
			<trkpt lat="-27.822947" lon="153.293499">
				<ele>13.141</ele>
				<time>2015-07-04T08:51:14Z</time>
				<extensions>
				</extensions>
			</trkpt>
			<trkpt lat="-27.822793" lon="153.293225">
				<ele>12.889</ele>
				<time>2015-07-04T08:51:15Z</time>
				<extensions>
				</extensions>
			</trkpt>
			<trkpt lat="-27.822639" lon="153.292947">
				<ele>12.519</ele>
				<time>2015-07-04T08:51:16Z</time>
				<extensions>
				</extensions>
			</trkpt>
			<trkpt lat="-27.822497" lon="153.292662">
				<ele>12.302</ele>
				<time>2015-07-04T08:51:17Z</time>
				<extensions>
				</extensions>
			</trkpt>
			<trkpt lat="-27.822354" lon="153.292386">
				<ele>11.543</ele>
				<time>2015-07-04T08:51:18Z</time>
				<extensions>
				</extensions>
			</trkpt>
			<trkpt lat="-27.822213" lon="153.292100">
				<ele>15.470</ele>
				<time>2015-07-04T08:51:19Z</time>
				<extensions>
				</extensions>
			</trkpt>
			<trkpt lat="-27.822072" lon="153.291822">
				<ele>13.904</ele>
				<time>2015-07-04T08:51:20Z</time>
				<extensions>
				</extensions>
			</trkpt>
			<trkpt lat="-27.821928" lon="153.291533">
				<ele>14.455</ele>
				<time>2015-07-04T08:51:21Z</time>
				<extensions>
				</extensions>
			</trkpt>
			<trkpt lat="-27.821789" lon="153.291244">
				<ele>15.739</ele>
				<time>2015-07-04T08:51:22Z</time>
				<extensions>
				</extensions>
			</trkpt>
			<trkpt lat="-27.821649" lon="153.290956">
				<ele>14.071</ele>
				<time>2015-07-04T08:51:23Z</time>
				<extensions>
				</extensions>
			</trkpt>
			<trkpt lat="-27.821509" lon="153.290674">
				<ele>16.229</ele>
				<time>2015-07-04T08:51:24Z</time>
				<extensions>
				</extensions>
			</trkpt>
			<trkpt lat="-27.821364" lon="153.290388">
				<ele>17.477</ele>
				<time>2015-07-04T08:51:25Z</time>
				<extensions>
				</extensions>
			</trkpt>
			<trkpt lat="-27.821228" lon="153.290105">
				<ele>17.239</ele>
				<time>2015-07-04T08:51:26Z</time>
				<extensions>
				</extensions>
			</trkpt>
			<trkpt lat="-27.821084" lon="153.289818">
				<ele>16.823</ele>
				<time>2015-07-04T08:51:27Z</time>
				<extensions>
				</extensions>
			</trkpt>
			<trkpt lat="-27.820943" lon="153.289528">
				<ele>18.852</ele>
				<time>2015-07-04T08:51:28Z</time>
				<extensions>
				</extensions>
			</trkpt>
			<trkpt lat="-27.820802" lon="153.289245">
				<ele>19.422</ele>
				<time>2015-07-04T08:51:29Z</time>
				<extensions>
				</extensions>
			</trkpt>
			<trkpt lat="-27.820661" lon="153.288962">
				<ele>18.696</ele>
				<time>2015-07-04T08:51:30Z</time>
				<extensions>
				</extensions>
			</trkpt>
			<trkpt lat="-27.820529" lon="153.288694">
				<ele>18.386</ele>
				<time>2015-07-04T08:51:31Z</time>
				<extensions>
				</extensions>
			</trkpt>
			<trkpt lat="-27.820395" lon="153.288417">
				<ele>16.424</ele>
				<time>2015-07-04T08:51:32Z</time>
				<extensions>
				</extensions>
			</trkpt>
			<trkpt lat="-27.820261" lon="153.288143">
				<ele>16.102</ele>
				<time>2015-07-04T08:51:33Z</time>
				<extensions>
				</extensions>
			</trkpt>
			<trkpt lat="-27.820127" lon="153.287868">
				<ele>16.571</ele>
				<time>2015-07-04T08:51:34Z</time>
				<extensions>
				</extensions>
			</trkpt>
			<trkpt lat="-27.819989" lon="153.287591">
				<ele>16.668</ele>
				<time>2015-07-04T08:51:35Z</time>
				<extensions>
				</extensions>
			</trkpt>
			<trkpt lat="-27.819854" lon="153.287317">
				<ele>15.621</ele>
				<time>2015-07-04T08:51:36Z</time>
				<extensions>
				</extensions>
			</trkpt>
			<trkpt lat="-27.819715" lon="153.287045">
				<ele>14.593</ele>
				<time>2015-07-04T08:51:37Z</time>
				<extensions>
				</extensions>
			</trkpt>
			<trkpt lat="-27.819573" lon="153.286765">
				<ele>14.615</ele>
				<time>2015-07-04T08:51:38Z</time>
				<extensions>
				</extensions>
			</trkpt>
			<trkpt lat="-27.819439" lon="153.286487">
				<ele>14.369</ele>
				<time>2015-07-04T08:51:39Z</time>
				<extensions>
				</extensions>
			</trkpt>
			<trkpt lat="-27.819304" lon="153.286205">
				<ele>14.118</ele>
				<time>2015-07-04T08:51:40Z</time>
				<extensions>
				</extensions>
			</trkpt>
			<trkpt lat="-27.819155" lon="153.285913">
				<ele>14.884</ele>
				<time>2015-07-04T08:51:41Z</time>
				<extensions>
				</extensions>
			</trkpt>
			<trkpt lat="-27.819023" lon="153.285633">
				<ele>13.040</ele>
				<time>2015-07-04T08:51:42Z</time>
				<extensions>
				</extensions>
			</trkpt>
			<trkpt lat="-27.818889" lon="153.285350">
				<ele>12.761</ele>
				<time>2015-07-04T08:51:43Z</time>
				<extensions>
				</extensions>
			</trkpt>
			<trkpt lat="-27.818748" lon="153.285071">
				<ele>11.343</ele>
				<time>2015-07-04T08:51:44Z</time>
				<extensions>
				</extensions>
			</trkpt>
			<trkpt lat="-27.818619" lon="153.284804">
				<ele>8.310</ele>
				<time>2015-07-04T08:51:45Z</time>
				<extensions>
				</extensions>
			</trkpt>
			<trkpt lat="-27.818486" lon="153.284537">
				<ele>8.184</ele>
				<time>2015-07-04T08:51:46Z</time>
				<extensions>
				</extensions>
			</trkpt>
			<trkpt lat="-27.818358" lon="153.284278">
				<ele>7.352</ele>
				<time>2015-07-04T08:51:47Z</time>
				<extensions>
				</extensions>
			</trkpt>
			<trkpt lat="-27.818222" lon="153.284008">
				<ele>7.428</ele>
				<time>2015-07-04T08:51:48Z</time>
				<extensions>
				</extensions>
			</trkpt>
			<trkpt lat="-27.818088" lon="153.283738">
				<ele>6.070</ele>
				<time>2015-07-04T08:51:49Z</time>
				<extensions>
				</extensions>
			</trkpt>
			<trkpt lat="-27.817954" lon="153.283472">
				<ele>5.207</ele>
				<time>2015-07-04T08:51:50Z</time>
				<extensions>
				</extensions>
			</trkpt>
			<trkpt lat="-27.817818" lon="153.283204">
				<ele>3.465</ele>
				<time>2015-07-04T08:51:51Z</time>
				<extensions>
				</extensions>
			</trkpt>
			<trkpt lat="-27.817680" lon="153.282945">
				<ele>4.120</ele>
				<time>2015-07-04T08:51:52Z</time>
				<extensions>
				</extensions>
			</trkpt>
			<trkpt lat="-27.817549" lon="153.282681">
				<ele>2.766</ele>
				<time>2015-07-04T08:51:53Z</time>
				<extensions>
				</extensions>
			</trkpt>
			<trkpt lat="-27.817419" lon="153.282419">
				<ele>1.469</ele>
				<time>2015-07-04T08:51:54Z</time>
				<extensions>
				</extensions>
			</trkpt>
			<trkpt lat="-27.817288" lon="153.282156">
				<ele>2.025</ele>
				<time>2015-07-04T08:51:55Z</time>
				<extensions>
				</extensions>
			</trkpt>
			<trkpt lat="-27.817151" lon="153.281872">
				<ele>4.236</ele>
				<time>2015-07-04T08:51:56Z</time>
				<extensions>
				</extensions>
			</trkpt>
			<trkpt lat="-27.817017" lon="153.281585">
				<ele>7.968</ele>
				<time>2015-07-04T08:51:57Z</time>
				<extensions>
				</extensions>
			</trkpt>
			<trkpt lat="-27.816871" lon="153.281285">
				<ele>11.124</ele>
				<time>2015-07-04T08:51:58Z</time>
				<extensions>
				</extensions>
			</trkpt>
			<trkpt lat="-27.816725" lon="153.280988">
				<ele>11.004</ele>
				<time>2015-07-04T08:51:59Z</time>
				<extensions>
				</extensions>
			</trkpt>
			<trkpt lat="-27.816580" lon="153.280692">
				<ele>9.567</ele>
				<time>2015-07-04T08:52:00Z</time>
				<extensions>
				</extensions>
			</trkpt>
			<trkpt lat="-27.816431" lon="153.280397">
				<ele>9.942</ele>
				<time>2015-07-04T08:52:01Z</time>
				<extensions>
				</extensions>
			</trkpt>
			<trkpt lat="-27.816295" lon="153.280111">
				<ele>11.413</ele>
				<time>2015-07-04T08:52:02Z</time>
				<extensions>
				</extensions>
			</trkpt>
			<trkpt lat="-27.816148" lon="153.279815">
				<ele>11.385</ele>
				<time>2015-07-04T08:52:03Z</time>
				<extensions>
				</extensions>
			</trkpt>
			<trkpt lat="-27.816006" lon="153.279516">
				<ele>11.144</ele>
				<time>2015-07-04T08:52:04Z</time>
				<extensions>
				</extensions>
			</trkpt>
			<trkpt lat="-27.815867" lon="153.279239">
				<ele>9.624</ele>
				<time>2015-07-04T08:52:05Z</time>
				<extensions>
				</extensions>
			</trkpt>
			<trkpt lat="-27.815730" lon="153.278950">
				<ele>10.444</ele>
				<time>2015-07-04T08:52:06Z</time>
				<extensions>
				</extensions>
			</trkpt>
			<trkpt lat="-27.815594" lon="153.278673">
				<ele>10.619</ele>
				<time>2015-07-04T08:52:07Z</time>
				<extensions>
				</extensions>
			</trkpt>
			<trkpt lat="-27.815457" lon="153.278388">
				<ele>9.023</ele>
				<time>2015-07-04T08:52:08Z</time>
				<extensions>
				</extensions>
			</trkpt>
			<trkpt lat="-27.815312" lon="153.278096">
				<ele>10.204</ele>
				<time>2015-07-04T08:52:09Z</time>
				<extensions>
				</extensions>
			</trkpt>
			<trkpt lat="-27.815172" lon="153.277804">
				<ele>10.204</ele>
				<time>2015-07-04T08:52:10Z</time>
				<extensions>
				</extensions>
			</trkpt>
			<trkpt lat="-27.815037" lon="153.277515">
				<ele>10.683</ele>
				<time>2015-07-04T08:52:11Z</time>
				<extensions>
				</extensions>
			</trkpt>
			<trkpt lat="-27.814897" lon="153.277226">
				<ele>9.742</ele>
				<time>2015-07-04T08:52:12Z</time>
				<extensions>
				</extensions>
			</trkpt>
			<trkpt lat="-27.814756" lon="153.276943">
				<ele>9.402</ele>
				<time>2015-07-04T08:52:13Z</time>
				<extensions>
				</extensions>
			</trkpt>
			<trkpt lat="-27.814616" lon="153.276654">
				<ele>9.723</ele>
				<time>2015-07-04T08:52:14Z</time>
				<extensions>
				</extensions>
			</trkpt>
			<trkpt lat="-27.814476" lon="153.276370">
				<ele>9.761</ele>
				<time>2015-07-04T08:52:15Z</time>
				<extensions>
				</extensions>
			</trkpt>
			<trkpt lat="-27.814339" lon="153.276087">
				<ele>9.232</ele>
				<time>2015-07-04T08:52:16Z</time>
				<extensions>
				</extensions>
			</trkpt>
			<trkpt lat="-27.814207" lon="153.275804">
				<ele>9.558</ele>
				<time>2015-07-04T08:52:17Z</time>
				<extensions>
				</extensions>
			</trkpt>
			<trkpt lat="-27.814060" lon="153.275517">
				<ele>11.397</ele>
				<time>2015-07-04T08:52:18Z</time>
				<extensions>
				</extensions>
			</trkpt>
			<trkpt lat="-27.813910" lon="153.275227">
				<ele>11.918</ele>
				<time>2015-07-04T08:52:19Z</time>
				<extensions>
				</extensions>
			</trkpt>
			<trkpt lat="-27.813765" lon="153.274940">
				<ele>12.068</ele>
				<time>2015-07-04T08:52:20Z</time>
				<extensions>
				</extensions>
			</trkpt>
			<trkpt lat="-27.813616" lon="153.274660">
				<ele>11.856</ele>
				<time>2015-07-04T08:52:21Z</time>
				<extensions>
				</extensions>
			</trkpt>
			<trkpt lat="-27.813466" lon="153.274383">
				<ele>12.065</ele>
				<time>2015-07-04T08:52:22Z</time>
				<extensions>
				</extensions>
			</trkpt>
			<trkpt lat="-27.813313" lon="153.274110">
				<ele>12.720</ele>
				<time>2015-07-04T08:52:23Z</time>
				<extensions>
				</extensions>
			</trkpt>
			<trkpt lat="-27.813160" lon="153.273846">
				<ele>14.828</ele>
				<time>2015-07-04T08:52:24Z</time>
				<extensions>
				</extensions>
			</trkpt>
			<trkpt lat="-27.813002" lon="153.273577">
				<ele>12.028</ele>
				<time>2015-07-04T08:52:25Z</time>
				<extensions>
				</extensions>
			</trkpt>
			<trkpt lat="-27.812847" lon="153.273314">
				<ele>13.199</ele>
				<time>2015-07-04T08:52:26Z</time>
				<extensions>
				</extensions>
			</trkpt>
			<trkpt lat="-27.812687" lon="153.273050">
				<ele>12.335</ele>
				<time>2015-07-04T08:52:27Z</time>
				<extensions>
				</extensions>
			</trkpt>
			<trkpt lat="-27.812523" lon="153.272786">
				<ele>13.773</ele>
				<time>2015-07-04T08:52:28Z</time>
				<extensions>
				</extensions>
			</trkpt>
			<trkpt lat="-27.812363" lon="153.272517">
				<ele>14.785</ele>
				<time>2015-07-04T08:52:29Z</time>
				<extensions>
				</extensions>
			</trkpt>
			<trkpt lat="-27.812193" lon="153.272253">
				<ele>16.271</ele>
				<time>2015-07-04T08:52:30Z</time>
				<extensions>
				</extensions>
			</trkpt>
			<trkpt lat="-27.812020" lon="153.271989">
				<ele>16.219</ele>
				<time>2015-07-04T08:52:31Z</time>
				<extensions>
				</extensions>
			</trkpt>
			<trkpt lat="-27.811847" lon="153.271729">
				<ele>17.798</ele>
				<time>2015-07-04T08:52:32Z</time>
				<extensions>
				</extensions>
			</trkpt>
			<trkpt lat="-27.811666" lon="153.271466">
				<ele>17.619</ele>
				<time>2015-07-04T08:52:33Z</time>
				<extensions>
				</extensions>
			</trkpt>
			<trkpt lat="-27.811487" lon="153.271208">
				<ele>18.614</ele>
				<time>2015-07-04T08:52:34Z</time>
				<extensions>
				</extensions>
			</trkpt>
			<trkpt lat="-27.811308" lon="153.270952">
				<ele>17.913</ele>
				<time>2015-07-04T08:52:35Z</time>
				<extensions>
				</extensions>
			</trkpt>
			<trkpt lat="-27.811127" lon="153.270706">
				<ele>17.114</ele>
				<time>2015-07-04T08:52:36Z</time>
				<extensions>
				</extensions>
			</trkpt>
			<trkpt lat="-27.810943" lon="153.270464">
				<ele>17.896</ele>
				<time>2015-07-04T08:52:37Z</time>
				<extensions>
				</extensions>
			</trkpt>
			<trkpt lat="-27.810756" lon="153.270226">
				<ele>17.669</ele>
				<time>2015-07-04T08:52:38Z</time>
				<extensions>
				</extensions>
			</trkpt>
			<trkpt lat="-27.810567" lon="153.269991">
				<ele>19.603</ele>
				<time>2015-07-04T08:52:39Z</time>
				<extensions>
				</extensions>
			</trkpt>
			<trkpt lat="-27.810380" lon="153.269758">
				<ele>19.966</ele>
				<time>2015-07-04T08:52:40Z</time>
				<extensions>
				</extensions>
			</trkpt>
			<trkpt lat="-27.810191" lon="153.269531">
				<ele>21.099</ele>
				<time>2015-07-04T08:52:41Z</time>
				<extensions>
				</extensions>
			</trkpt>
			<trkpt lat="-27.809993" lon="153.269311">
				<ele>22.754</ele>
				<time>2015-07-04T08:52:42Z</time>
				<extensions>
				</extensions>
			</trkpt>
			<trkpt lat="-27.809827" lon="153.269069">
				<ele>23.658</ele>
				<time>2015-07-04T08:52:43Z</time>
				<extensions>
				</extensions>
			</trkpt>
			<trkpt lat="-27.809641" lon="153.268847">
				<ele>24.503</ele>
				<time>2015-07-04T08:52:44Z</time>
				<extensions>
				</extensions>
			</trkpt>
			<trkpt lat="-27.809463" lon="153.268625">
				<ele>23.779</ele>
				<time>2015-07-04T08:52:45Z</time>
				<extensions>
				</extensions>
			</trkpt>
			<trkpt lat="-27.809276" lon="153.268424">
				<ele>22.794</ele>
				<time>2015-07-04T08:52:46Z</time>
				<extensions>
				</extensions>
			</trkpt>
			<trkpt lat="-27.809081" lon="153.268218">
				<ele>23.708</ele>
				<time>2015-07-04T08:52:47Z</time>
				<extensions>
				</extensions>
			</trkpt>
			<trkpt lat="-27.808879" lon="153.268009">
				<ele>25.813</ele>
				<time>2015-07-04T08:52:48Z</time>
				<extensions>
				</extensions>
			</trkpt>
			<trkpt lat="-27.808678" lon="153.267802">
				<ele>27.053</ele>
				<time>2015-07-04T08:52:49Z</time>
				<extensions>
				</extensions>
			</trkpt>
			<trkpt lat="-27.808471" lon="153.267602">
				<ele>26.707</ele>
				<time>2015-07-04T08:52:50Z</time>
				<extensions>
				</extensions>
			</trkpt>
			<trkpt lat="-27.808268" lon="153.267394">
				<ele>26.526</ele>
				<time>2015-07-04T08:52:51Z</time>
				<extensions>
				</extensions>
			</trkpt>
			<trkpt lat="-27.808060" lon="153.267195">
				<ele>27.752</ele>
				<time>2015-07-04T08:52:52Z</time>
				<extensions>
				</extensions>
			</trkpt>
			<trkpt lat="-27.807843" lon="153.266995">
				<ele>26.875</ele>
				<time>2015-07-04T08:52:53Z</time>
				<extensions>
				</extensions>
			</trkpt>
			<trkpt lat="-27.807629" lon="153.266799">
				<ele>27.585</ele>
				<time>2015-07-04T08:52:54Z</time>
				<extensions>
				</extensions>
			</trkpt>
			<trkpt lat="-27.807411" lon="153.266607">
				<ele>26.754</ele>
				<time>2015-07-04T08:52:55Z</time>
				<extensions>
				</extensions>
			</trkpt>
			<trkpt lat="-27.807187" lon="153.266411">
				<ele>28.653</ele>
				<time>2015-07-04T08:52:56Z</time>
				<extensions>
				</extensions>
			</trkpt>
			<trkpt lat="-27.806963" lon="153.266220">
				<ele>27.260</ele>
				<time>2015-07-04T08:52:57Z</time>
				<extensions>
				</extensions>
			</trkpt>
			<trkpt lat="-27.806743" lon="153.266023">
				<ele>26.999</ele>
				<time>2015-07-04T08:52:58Z</time>
				<extensions>
				</extensions>
			</trkpt>
			<trkpt lat="-27.806520" lon="153.265828">
				<ele>27.027</ele>
				<time>2015-07-04T08:52:59Z</time>
				<extensions>
				</extensions>
			</trkpt>
			<trkpt lat="-27.806283" lon="153.265637">
				<ele>26.793</ele>
				<time>2015-07-04T08:53:00Z</time>
				<extensions>
				</extensions>
			</trkpt>
			<trkpt lat="-27.806050" lon="153.265445">
				<ele>27.374</ele>
				<time>2015-07-04T08:53:01Z</time>
				<extensions>
				</extensions>
			</trkpt>
			<trkpt lat="-27.805811" lon="153.265264">
				<ele>25.437</ele>
				<time>2015-07-04T08:53:02Z</time>
				<extensions>
				</extensions>
			</trkpt>
			<trkpt lat="-27.805580" lon="153.265087">
				<ele>22.357</ele>
				<time>2015-07-04T08:53:03Z</time>
				<extensions>
				</extensions>
			</trkpt>
			<trkpt lat="-27.805348" lon="153.264912">
				<ele>20.948</ele>
				<time>2015-07-04T08:53:04Z</time>
				<extensions>
				</extensions>
			</trkpt>
			<trkpt lat="-27.805120" lon="153.264743">
				<ele>21.189</ele>
				<time>2015-07-04T08:53:05Z</time>
				<extensions>
				</extensions>
			</trkpt>
			<trkpt lat="-27.804888" lon="153.264584">
				<ele>22.786</ele>
				<time>2015-07-04T08:53:06Z</time>
				<extensions>
				</extensions>
			</trkpt>
			<trkpt lat="-27.804654" lon="153.264419">
				<ele>21.064</ele>
				<time>2015-07-04T08:53:07Z</time>
				<extensions>
				</extensions>
			</trkpt>
			<trkpt lat="-27.804418" lon="153.264257">
				<ele>19.747</ele>
				<time>2015-07-04T08:53:08Z</time>
				<extensions>
				</extensions>
			</trkpt>
			<trkpt lat="-27.804185" lon="153.264103">
				<ele>16.929</ele>
				<time>2015-07-04T08:53:09Z</time>
				<extensions>
				</extensions>
			</trkpt>
			<trkpt lat="-27.803954" lon="153.263952">
				<ele>18.010</ele>
				<time>2015-07-04T08:53:10Z</time>
				<extensions>
				</extensions>
			</trkpt>
			<trkpt lat="-27.803717" lon="153.263791">
				<ele>17.673</ele>
				<time>2015-07-04T08:53:11Z</time>
				<extensions>
				</extensions>
			</trkpt>
			<trkpt lat="-27.803473" lon="153.263639">
				<ele>16.555</ele>
				<time>2015-07-04T08:53:12Z</time>
				<extensions>
				</extensions>
			</trkpt>
			<trkpt lat="-27.803219" lon="153.263483">
				<ele>16.613</ele>
				<time>2015-07-04T08:53:13Z</time>
				<extensions>
				</extensions>
			</trkpt>
			<trkpt lat="-27.802966" lon="153.263335">
				<ele>16.613</ele>
				<time>2015-07-04T08:53:14Z</time>
				<extensions>
				</extensions>
			</trkpt>
			<trkpt lat="-27.802715" lon="153.263185">
				<ele>16.477</ele>
				<time>2015-07-04T08:53:15Z</time>
				<extensions>
				</extensions>
			</trkpt>
			<trkpt lat="-27.802467" lon="153.263047">
				<ele>14.679</ele>
				<time>2015-07-04T08:53:16Z</time>
				<extensions>
				</extensions>
			</trkpt>
			<trkpt lat="-27.802217" lon="153.262908">
				<ele>14.400</ele>
				<time>2015-07-04T08:53:17Z</time>
				<extensions>
				</extensions>
			</trkpt>
			<trkpt lat="-27.801954" lon="153.262769">
				<ele>14.858</ele>
				<time>2015-07-04T08:53:18Z</time>
				<extensions>
				</extensions>
			</trkpt>
			<trkpt lat="-27.801691" lon="153.262632">
				<ele>12.117</ele>
				<time>2015-07-04T08:53:19Z</time>
				<extensions>
				</extensions>
			</trkpt>
			<trkpt lat="-27.801423" lon="153.262499">
				<ele>10.950</ele>
				<time>2015-07-04T08:53:20Z</time>
				<extensions>
				</extensions>
			</trkpt>
			<trkpt lat="-27.801158" lon="153.262369">
				<ele>12.367</ele>
				<time>2015-07-04T08:53:21Z</time>
				<extensions>
				</extensions>
			</trkpt>
			<trkpt lat="-27.800890" lon="153.262245">
				<ele>10.845</ele>
				<time>2015-07-04T08:53:22Z</time>
				<extensions>
				</extensions>
			</trkpt>
			<trkpt lat="-27.800618" lon="153.262116">
				<ele>8.949</ele>
				<time>2015-07-04T08:53:23Z</time>
				<extensions>
				</extensions>
			</trkpt>
			<trkpt lat="-27.800354" lon="153.261995">
				<ele>9.178</ele>
				<time>2015-07-04T08:53:24Z</time>
				<extensions>
				</extensions>
			</trkpt>
			<trkpt lat="-27.800087" lon="153.261873">
				<ele>7.933</ele>
				<time>2015-07-04T08:53:25Z</time>
				<extensions>
				</extensions>
			</trkpt>
			<trkpt lat="-27.799817" lon="153.261762">
				<ele>6.884</ele>
				<time>2015-07-04T08:53:26Z</time>
				<extensions>
				</extensions>
			</trkpt>
			<trkpt lat="-27.799556" lon="153.261656">
				<ele>6.115</ele>
				<time>2015-07-04T08:53:27Z</time>
				<extensions>
				</extensions>
			</trkpt>
			<trkpt lat="-27.799290" lon="153.261547">
				<ele>6.514</ele>
				<time>2015-07-04T08:53:28Z</time>
				<extensions>
				</extensions>
			</trkpt>
			<trkpt lat="-27.799019" lon="153.261446">
				<ele>6.112</ele>
				<time>2015-07-04T08:53:29Z</time>
				<extensions>
				</extensions>
			</trkpt>
			<trkpt lat="-27.798752" lon="153.261351">
				<ele>5.632</ele>
				<time>2015-07-04T08:53:30Z</time>
				<extensions>
				</extensions>
			</trkpt>
			<trkpt lat="-27.798481" lon="153.261253">
				<ele>5.369</ele>
				<time>2015-07-04T08:53:31Z</time>
				<extensions>
				</extensions>
			</trkpt>
			<trkpt lat="-27.798206" lon="153.261157">
				<ele>5.501</ele>
				<time>2015-07-04T08:53:32Z</time>
				<extensions>
				</extensions>
			</trkpt>
			<trkpt lat="-27.797940" lon="153.261062">
				<ele>5.092</ele>
				<time>2015-07-04T08:53:33Z</time>
				<extensions>
				</extensions>
			</trkpt>
			<trkpt lat="-27.797667" lon="153.260974">
				<ele>4.595</ele>
				<time>2015-07-04T08:53:34Z</time>
				<extensions>
				</extensions>
			</trkpt>
			<trkpt lat="-27.797392" lon="153.260887">
				<ele>4.833</ele>
				<time>2015-07-04T08:53:35Z</time>
				<extensions>
				</extensions>
			</trkpt>
			<trkpt lat="-27.797110" lon="153.260809">
				<ele>6.567</ele>
				<time>2015-07-04T08:53:36Z</time>
				<extensions>
				</extensions>
			</trkpt>
			<trkpt lat="-27.796825" lon="153.260726">
				<ele>6.364</ele>
				<time>2015-07-04T08:53:37Z</time>
				<extensions>
				</extensions>
			</trkpt>
			<trkpt lat="-27.796539" lon="153.260651">
				<ele>8.250</ele>
				<time>2015-07-04T08:53:38Z</time>
				<extensions>
				</extensions>
			</trkpt>
			<trkpt lat="-27.796263" lon="153.260577">
				<ele>7.423</ele>
				<time>2015-07-04T08:53:39Z</time>
				<extensions>
				</extensions>
			</trkpt>
			<trkpt lat="-27.795977" lon="153.260508">
				<ele>6.823</ele>
				<time>2015-07-04T08:53:40Z</time>
				<extensions>
				</extensions>
			</trkpt>
			<trkpt lat="-27.795699" lon="153.260440">
				<ele>7.797</ele>
				<time>2015-07-04T08:53:41Z</time>
				<extensions>
				</extensions>
			</trkpt>
			<trkpt lat="-27.795414" lon="153.260370">
				<ele>6.194</ele>
				<time>2015-07-04T08:53:42Z</time>
				<extensions>
				</extensions>
			</trkpt>
			<trkpt lat="-27.795134" lon="153.260301">
				<ele>7.070</ele>
				<time>2015-07-04T08:53:43Z</time>
				<extensions>
				</extensions>
			</trkpt>
			<trkpt lat="-27.794857" lon="153.260234">
				<ele>7.249</ele>
				<time>2015-07-04T08:53:44Z</time>
				<extensions>
				</extensions>
			</trkpt>
			<trkpt lat="-27.794577" lon="153.260166">
				<ele>6.236</ele>
				<time>2015-07-04T08:53:45Z</time>
				<extensions>
				</extensions>
			</trkpt>
			<trkpt lat="-27.794300" lon="153.260098">
				<ele>6.189</ele>
				<time>2015-07-04T08:53:46Z</time>
				<extensions>
				</extensions>
			</trkpt>
			<trkpt lat="-27.794020" lon="153.260024">
				<ele>5.214</ele>
				<time>2015-07-04T08:53:47Z</time>
				<extensions>
				</extensions>
			</trkpt>
			<trkpt lat="-27.793742" lon="153.259949">
				<ele>6.080</ele>
				<time>2015-07-04T08:53:48Z</time>
				<extensions>
				</extensions>
			</trkpt>
			<trkpt lat="-27.793464" lon="153.259872">
				<ele>7.534</ele>
				<time>2015-07-04T08:53:49Z</time>
				<extensions>
				</extensions>
			</trkpt>
			<trkpt lat="-27.793186" lon="153.259790">
				<ele>7.821</ele>
				<time>2015-07-04T08:53:50Z</time>
				<extensions>
				</extensions>
			</trkpt>
			<trkpt lat="-27.792904" lon="153.259700">
				<ele>9.387</ele>
				<time>2015-07-04T08:53:51Z</time>
				<extensions>
				</extensions>
			</trkpt>
			<trkpt lat="-27.792629" lon="153.259608">
				<ele>10.323</ele>
				<time>2015-07-04T08:53:52Z</time>
				<extensions>
				</extensions>
			</trkpt>
			<trkpt lat="-27.792343" lon="153.259490">
				<ele>9.738</ele>
				<time>2015-07-04T08:53:53Z</time>
				<extensions>
				</extensions>
			</trkpt>
			<trkpt lat="-27.792062" lon="153.259391">
				<ele>10.107</ele>
				<time>2015-07-04T08:53:54Z</time>
				<extensions>
				</extensions>
			</trkpt>
			<trkpt lat="-27.791783" lon="153.259288">
				<ele>11.718</ele>
				<time>2015-07-04T08:53:55Z</time>
				<extensions>
				</extensions>
			</trkpt>
			<trkpt lat="-27.791510" lon="153.259182">
				<ele>11.104</ele>
				<time>2015-07-04T08:53:56Z</time>
				<extensions>
				</extensions>
			</trkpt>
			<trkpt lat="-27.791234" lon="153.259059">
				<ele>11.357</ele>
				<time>2015-07-04T08:53:57Z</time>
				<extensions>
				</extensions>
			</trkpt>
			<trkpt lat="-27.790950" lon="153.258933">
				<ele>12.533</ele>
				<time>2015-07-04T08:53:58Z</time>
				<extensions>
				</extensions>
			</trkpt>
			<trkpt lat="-27.790678" lon="153.258806">
				<ele>13.993</ele>
				<time>2015-07-04T08:53:59Z</time>
				<extensions>
				</extensions>
			</trkpt>
			<trkpt lat="-27.790413" lon="153.258690">
				<ele>11.778</ele>
				<time>2015-07-04T08:54:00Z</time>
				<extensions>
				</extensions>
			</trkpt>
			<trkpt lat="-27.790149" lon="153.258558">
				<ele>12.104</ele>
				<time>2015-07-04T08:54:01Z</time>
				<extensions>
				</extensions>
			</trkpt>
			<trkpt lat="-27.789880" lon="153.258422">
				<ele>12.693</ele>
				<time>2015-07-04T08:54:02Z</time>
				<extensions>
				</extensions>
			</trkpt>
			<trkpt lat="-27.789607" lon="153.258276">
				<ele>15.514</ele>
				<time>2015-07-04T08:54:03Z</time>
				<extensions>
				</extensions>
			</trkpt>
			<trkpt lat="-27.789353" lon="153.258133">
				<ele>14.056</ele>
				<time>2015-07-04T08:54:04Z</time>
				<extensions>
				</extensions>
			</trkpt>
			<trkpt lat="-27.789090" lon="153.257987">
				<ele>12.509</ele>
				<time>2015-07-04T08:54:05Z</time>
				<extensions>
				</extensions>
			</trkpt>
			<trkpt lat="-27.788832" lon="153.257835">
				<ele>15.455</ele>
				<time>2015-07-04T08:54:06Z</time>
				<extensions>
				</extensions>
			</trkpt>
			<trkpt lat="-27.788573" lon="153.257690">
				<ele>15.491</ele>
				<time>2015-07-04T08:54:07Z</time>
				<extensions>
				</extensions>
			</trkpt>
			<trkpt lat="-27.788310" lon="153.257527">
				<ele>14.740</ele>
				<time>2015-07-04T08:54:08Z</time>
				<extensions>
				</extensions>
			</trkpt>
			<trkpt lat="-27.788050" lon="153.257358">
				<ele>15.043</ele>
				<time>2015-07-04T08:54:09Z</time>
				<extensions>
				</extensions>
			</trkpt>
			<trkpt lat="-27.787794" lon="153.257189">
				<ele>16.485</ele>
				<time>2015-07-04T08:54:10Z</time>
				<extensions>
				</extensions>
			</trkpt>
			<trkpt lat="-27.787547" lon="153.257019">
				<ele>16.753</ele>
				<time>2015-07-04T08:54:11Z</time>
				<extensions>
				</extensions>
			</trkpt>
			<trkpt lat="-27.787299" lon="153.256851">
				<ele>14.765</ele>
				<time>2015-07-04T08:54:12Z</time>
				<extensions>
				</extensions>
			</trkpt>
			<trkpt lat="-27.787053" lon="153.256682">
				<ele>15.030</ele>
				<time>2015-07-04T08:54:13Z</time>
				<extensions>
				</extensions>
			</trkpt>
			<trkpt lat="-27.786808" lon="153.256513">
				<ele>13.876</ele>
				<time>2015-07-04T08:54:14Z</time>
				<extensions>
				</extensions>
			</trkpt>
			<trkpt lat="-27.786552" lon="153.256343">
				<ele>11.846</ele>
				<time>2015-07-04T08:54:15Z</time>
				<extensions>
				</extensions>
			</trkpt>
			<trkpt lat="-27.786311" lon="153.256172">
				<ele>11.846</ele>
				<time>2015-07-04T08:54:16Z</time>
				<extensions>
				</extensions>
			</trkpt>
			<trkpt lat="-27.786063" lon="153.255995">
				<ele>12.291</ele>
				<time>2015-07-04T08:54:17Z</time>
				<extensions>
				</extensions>
			</trkpt>
			<trkpt lat="-27.785809" lon="153.255817">
				<ele>13.361</ele>
				<time>2015-07-04T08:54:18Z</time>
				<extensions>
				</extensions>
			</trkpt>
			<trkpt lat="-27.785555" lon="153.255638">
				<ele>12.814</ele>
				<time>2015-07-04T08:54:19Z</time>
				<extensions>
				</extensions>
			</trkpt>
			<trkpt lat="-27.785304" lon="153.255456">
				<ele>14.065</ele>
				<time>2015-07-04T08:54:20Z</time>
				<extensions>
				</extensions>
			</trkpt>
			<trkpt lat="-27.785058" lon="153.255281">
				<ele>12.890</ele>
				<time>2015-07-04T08:54:21Z</time>
				<extensions>
				</extensions>
			</trkpt>
			<trkpt lat="-27.784815" lon="153.255109">
				<ele>9.975</ele>
				<time>2015-07-04T08:54:22Z</time>
				<extensions>
				</extensions>
			</trkpt>
			<trkpt lat="-27.784570" lon="153.254939">
				<ele>8.477</ele>
				<time>2015-07-04T08:54:23Z</time>
				<extensions>
				</extensions>
			</trkpt>
			<trkpt lat="-27.784328" lon="153.254778">
				<ele>9.629</ele>
				<time>2015-07-04T08:54:24Z</time>
				<extensions>
				</extensions>
			</trkpt>
			<trkpt lat="-27.784086" lon="153.254628">
				<ele>9.180</ele>
				<time>2015-07-04T08:54:25Z</time>
				<extensions>
				</extensions>
			</trkpt>
			<trkpt lat="-27.783838" lon="153.254475">
				<ele>7.944</ele>
				<time>2015-07-04T08:54:26Z</time>
				<extensions>
				</extensions>
			</trkpt>
			<trkpt lat="-27.783590" lon="153.254325">
				<ele>6.655</ele>
				<time>2015-07-04T08:54:27Z</time>
				<extensions>
				</extensions>
			</trkpt>
			<trkpt lat="-27.783335" lon="153.254178">
				<ele>6.409</ele>
				<time>2015-07-04T08:54:28Z</time>
				<extensions>
				</extensions>
			</trkpt>
			<trkpt lat="-27.783087" lon="153.254038">
				<ele>6.089</ele>
				<time>2015-07-04T08:54:29Z</time>
				<extensions>
				</extensions>
			</trkpt>
			<trkpt lat="-27.782837" lon="153.253906">
				<ele>5.476</ele>
				<time>2015-07-04T08:54:30Z</time>
				<extensions>
				</extensions>
			</trkpt>
			<trkpt lat="-27.782590" lon="153.253778">
				<ele>4.916</ele>
				<time>2015-07-04T08:54:31Z</time>
				<extensions>
				</extensions>
			</trkpt>
			<trkpt lat="-27.782337" lon="153.253651">
				<ele>4.959</ele>
				<time>2015-07-04T08:54:32Z</time>
				<extensions>
				</extensions>
			</trkpt>
			<trkpt lat="-27.782086" lon="153.253530">
				<ele>4.747</ele>
				<time>2015-07-04T08:54:33Z</time>
				<extensions>
				</extensions>
			</trkpt>
			<trkpt lat="-27.781835" lon="153.253413">
				<ele>6.265</ele>
				<time>2015-07-04T08:54:34Z</time>
				<extensions>
				</extensions>
			</trkpt>
			<trkpt lat="-27.781582" lon="153.253300">
				<ele>6.557</ele>
				<time>2015-07-04T08:54:35Z</time>
				<extensions>
				</extensions>
			</trkpt>
			<trkpt lat="-27.781328" lon="153.253193">
				<ele>8.589</ele>
				<time>2015-07-04T08:54:36Z</time>
				<extensions>
				</extensions>
			</trkpt>
			<trkpt lat="-27.781077" lon="153.253091">
				<ele>7.517</ele>
				<time>2015-07-04T08:54:37Z</time>
				<extensions>
				</extensions>
			</trkpt>
			<trkpt lat="-27.780825" lon="153.252989">
				<ele>4.651</ele>
				<time>2015-07-04T08:54:38Z</time>
				<extensions>
				</extensions>
			</trkpt>
			<trkpt lat="-27.780572" lon="153.252891">
				<ele>5.227</ele>
				<time>2015-07-04T08:54:39Z</time>
				<extensions>
				</extensions>
			</trkpt>
			<trkpt lat="-27.780314" lon="153.252800">
				<ele>6.300</ele>
				<time>2015-07-04T08:54:40Z</time>
				<extensions>
				</extensions>
			</trkpt>
			<trkpt lat="-27.780053" lon="153.252712">
				<ele>6.081</ele>
				<time>2015-07-04T08:54:41Z</time>
				<extensions>
				</extensions>
			</trkpt>
			<trkpt lat="-27.779796" lon="153.252630">
				<ele>6.644</ele>
				<time>2015-07-04T08:54:42Z</time>
				<extensions>
				</extensions>
			</trkpt>
			<trkpt lat="-27.779539" lon="153.252553">
				<ele>6.590</ele>
				<time>2015-07-04T08:54:43Z</time>
				<extensions>
				</extensions>
			</trkpt>
			<trkpt lat="-27.779280" lon="153.252478">
				<ele>5.845</ele>
				<time>2015-07-04T08:54:44Z</time>
				<extensions>
				</extensions>
			</trkpt>
			<trkpt lat="-27.779020" lon="153.252404">
				<ele>6.073</ele>
				<time>2015-07-04T08:54:45Z</time>
				<extensions>
				</extensions>
			</trkpt>
			<trkpt lat="-27.778759" lon="153.252338">
				<ele>5.551</ele>
				<time>2015-07-04T08:54:46Z</time>
				<extensions>
				</extensions>
			</trkpt>
			<trkpt lat="-27.778493" lon="153.252272">
				<ele>5.092</ele>
				<time>2015-07-04T08:54:47Z</time>
				<extensions>
				</extensions>
			</trkpt>
			<trkpt lat="-27.778239" lon="153.252214">
				<ele>5.886</ele>
				<time>2015-07-04T08:54:48Z</time>
				<extensions>
				</extensions>
			</trkpt>
			<trkpt lat="-27.777971" lon="153.252160">
				<ele>7.624</ele>
				<time>2015-07-04T08:54:49Z</time>
				<extensions>
				</extensions>
			</trkpt>
			<trkpt lat="-27.777700" lon="153.252108">
				<ele>5.899</ele>
				<time>2015-07-04T08:54:50Z</time>
				<extensions>
				</extensions>
			</trkpt>
			<trkpt lat="-27.777433" lon="153.252059">
				<ele>6.172</ele>
				<time>2015-07-04T08:54:51Z</time>
				<extensions>
				</extensions>
			</trkpt>
			<trkpt lat="-27.777163" lon="153.252012">
				<ele>6.431</ele>
				<time>2015-07-04T08:54:52Z</time>
				<extensions>
				</extensions>
			</trkpt>
			<trkpt lat="-27.776885" lon="153.251972">
				<ele>6.146</ele>
				<time>2015-07-04T08:54:53Z</time>
				<extensions>
				</extensions>
			</trkpt>
			<trkpt lat="-27.776610" lon="153.251933">
				<ele>6.729</ele>
				<time>2015-07-04T08:54:54Z</time>
				<extensions>
				</extensions>
			</trkpt>
			<trkpt lat="-27.776338" lon="153.251900">
				<ele>7.079</ele>
				<time>2015-07-04T08:54:55Z</time>
				<extensions>
				</extensions>
			</trkpt>
			<trkpt lat="-27.776072" lon="153.251873">
				<ele>6.389</ele>
				<time>2015-07-04T08:54:56Z</time>
				<extensions>
				</extensions>
			</trkpt>
			<trkpt lat="-27.775800" lon="153.251850">
				<ele>5.377</ele>
				<time>2015-07-04T08:54:57Z</time>
				<extensions>
				</extensions>
			</trkpt>
			<trkpt lat="-27.775524" lon="153.251829">
				<ele>5.414</ele>
				<time>2015-07-04T08:54:58Z</time>
				<extensions>
				</extensions>
			</trkpt>
			<trkpt lat="-27.775250" lon="153.251817">
				<ele>5.471</ele>
				<time>2015-07-04T08:54:59Z</time>
				<extensions>
				</extensions>
			</trkpt>
			<trkpt lat="-27.774981" lon="153.251804">
				<ele>5.191</ele>
				<time>2015-07-04T08:55:00Z</time>
				<extensions>
				</extensions>
			</trkpt>
			<trkpt lat="-27.774703" lon="153.251794">
				<ele>5.998</ele>
				<time>2015-07-04T08:55:01Z</time>
				<extensions>
				</extensions>
			</trkpt>
			<trkpt lat="-27.774435" lon="153.251776">
				<ele>5.315</ele>
				<time>2015-07-04T08:55:02Z</time>
				<extensions>
				</extensions>
			</trkpt>
			<trkpt lat="-27.774172" lon="153.251756">
				<ele>5.599</ele>
				<time>2015-07-04T08:55:03Z</time>
				<extensions>
				</extensions>
			</trkpt>
			<trkpt lat="-27.773893" lon="153.251739">
				<ele>6.309</ele>
				<time>2015-07-04T08:55:04Z</time>
				<extensions>
				</extensions>
			</trkpt>
			<trkpt lat="-27.773628" lon="153.251715">
				<ele>7.946</ele>
				<time>2015-07-04T08:55:05Z</time>
				<extensions>
				</extensions>
			</trkpt>
			<trkpt lat="-27.773358" lon="153.251680">
				<ele>7.068</ele>
				<time>2015-07-04T08:55:06Z</time>
				<extensions>
				</extensions>
			</trkpt>
			<trkpt lat="-27.773084" lon="153.251647">
				<ele>7.543</ele>
				<time>2015-07-04T08:55:07Z</time>
				<extensions>
				</extensions>
			</trkpt>
			<trkpt lat="-27.772816" lon="153.251607">
				<ele>5.740</ele>
				<time>2015-07-04T08:55:08Z</time>
				<extensions>
				</extensions>
			</trkpt>
			<trkpt lat="-27.772550" lon="153.251560">
				<ele>6.623</ele>
				<time>2015-07-04T08:55:09Z</time>
				<extensions>
				</extensions>
			</trkpt>
			<trkpt lat="-27.772285" lon="153.251512">
				<ele>6.833</ele>
				<time>2015-07-04T08:55:10Z</time>
				<extensions>
				</extensions>
			</trkpt>
			<trkpt lat="-27.772018" lon="153.251460">
				<ele>6.726</ele>
				<time>2015-07-04T08:55:11Z</time>
				<extensions>
				</extensions>
			</trkpt>
			<trkpt lat="-27.771740" lon="153.251409">
				<ele>6.417</ele>
				<time>2015-07-04T08:55:12Z</time>
				<extensions>
				</extensions>
			</trkpt>
			<trkpt lat="-27.771467" lon="153.251351">
				<ele>5.645</ele>
				<time>2015-07-04T08:55:13Z</time>
				<extensions>
				</extensions>
			</trkpt>
			<trkpt lat="-27.771183" lon="153.251286">
				<ele>5.834</ele>
				<time>2015-07-04T08:55:14Z</time>
				<extensions>
				</extensions>
			</trkpt>
			<trkpt lat="-27.770922" lon="153.251218">
				<ele>5.123</ele>
				<time>2015-07-04T08:55:15Z</time>
				<extensions>
				</extensions>
			</trkpt>
			<trkpt lat="-27.770657" lon="153.251146">
				<ele>3.909</ele>
				<time>2015-07-04T08:55:16Z</time>
				<extensions>
				</extensions>
			</trkpt>
			<trkpt lat="-27.770389" lon="153.251069">
				<ele>4.807</ele>
				<time>2015-07-04T08:55:17Z</time>
				<extensions>
				</extensions>
			</trkpt>
			<trkpt lat="-27.770124" lon="153.250995">
				<ele>4.807</ele>
				<time>2015-07-04T08:55:18Z</time>
				<extensions>
				</extensions>
			</trkpt>
			<trkpt lat="-27.769869" lon="153.250915">
				<ele>5.363</ele>
				<time>2015-07-04T08:55:19Z</time>
				<extensions>
				</extensions>
			</trkpt>
			<trkpt lat="-27.769615" lon="153.250832">
				<ele>4.642</ele>
				<time>2015-07-04T08:55:20Z</time>
				<extensions>
				</extensions>
			</trkpt>
			<trkpt lat="-27.769362" lon="153.250743">
				<ele>5.224</ele>
				<time>2015-07-04T08:55:21Z</time>
				<extensions>
				</extensions>
			</trkpt>
			<trkpt lat="-27.769106" lon="153.250648">
				<ele>5.319</ele>
				<time>2015-07-04T08:55:22Z</time>
				<extensions>
				</extensions>
			</trkpt>
			<trkpt lat="-27.768856" lon="153.250555">
				<ele>4.953</ele>
				<time>2015-07-04T08:55:23Z</time>
				<extensions>
				</extensions>
			</trkpt>
			<trkpt lat="-27.768594" lon="153.250452">
				<ele>5.066</ele>
				<time>2015-07-04T08:55:24Z</time>
				<extensions>
				</extensions>
			</trkpt>
			<trkpt lat="-27.768356" lon="153.250351">
				<ele>5.240</ele>
				<time>2015-07-04T08:55:25Z</time>
				<extensions>
				</extensions>
			</trkpt>
			<trkpt lat="-27.768104" lon="153.250254">
				<ele>5.413</ele>
				<time>2015-07-04T08:55:26Z</time>
				<extensions>
				</extensions>
			</trkpt>
			<trkpt lat="-27.767853" lon="153.250145">
				<ele>3.320</ele>
				<time>2015-07-04T08:55:27Z</time>
				<extensions>
				</extensions>
			</trkpt>
			<trkpt lat="-27.767614" lon="153.250037">
				<ele>3.908</ele>
				<time>2015-07-04T08:55:28Z</time>
				<extensions>
				</extensions>
			</trkpt>
			<trkpt lat="-27.767381" lon="153.249907">
				<ele>3.938</ele>
				<time>2015-07-04T08:55:29Z</time>
				<extensions>
				</extensions>
			</trkpt>
			<trkpt lat="-27.767140" lon="153.249797">
				<ele>4.353</ele>
				<time>2015-07-04T08:55:30Z</time>
				<extensions>
				</extensions>
			</trkpt>
			<trkpt lat="-27.766888" lon="153.249664">
				<ele>5.610</ele>
				<time>2015-07-04T08:55:31Z</time>
				<extensions>
				</extensions>
			</trkpt>
			<trkpt lat="-27.766639" lon="153.249535">
				<ele>7.869</ele>
				<time>2015-07-04T08:55:32Z</time>
				<extensions>
				</extensions>
			</trkpt>
			<trkpt lat="-27.766389" lon="153.249405">
				<ele>8.076</ele>
				<time>2015-07-04T08:55:33Z</time>
				<extensions>
				</extensions>
			</trkpt>
			<trkpt lat="-27.766137" lon="153.249266">
				<ele>8.373</ele>
				<time>2015-07-04T08:55:34Z</time>
				<extensions>
				</extensions>
			</trkpt>
			<trkpt lat="-27.765886" lon="153.249131">
				<ele>7.590</ele>
				<time>2015-07-04T08:55:35Z</time>
				<extensions>
				</extensions>
			</trkpt>
			<trkpt lat="-27.765638" lon="153.248985">
				<ele>6.528</ele>
				<time>2015-07-04T08:55:36Z</time>
				<extensions>
				</extensions>
			</trkpt>
			<trkpt lat="-27.765387" lon="153.248833">
				<ele>7.034</ele>
				<time>2015-07-04T08:55:37Z</time>
				<extensions>
				</extensions>
			</trkpt>
			<trkpt lat="-27.765145" lon="153.248678">
				<ele>6.460</ele>
				<time>2015-07-04T08:55:38Z</time>
				<extensions>
				</extensions>
			</trkpt>
			<trkpt lat="-27.764914" lon="153.248529">
				<ele>6.325</ele>
				<time>2015-07-04T08:55:39Z</time>
				<extensions>
				</extensions>
			</trkpt>
			<trkpt lat="-27.764667" lon="153.248368">
				<ele>8.479</ele>
				<time>2015-07-04T08:55:40Z</time>
				<extensions>
				</extensions>
			</trkpt>
			<trkpt lat="-27.764427" lon="153.248209">
				<ele>8.933</ele>
				<time>2015-07-04T08:55:41Z</time>
				<extensions>
				</extensions>
			</trkpt>
			<trkpt lat="-27.764189" lon="153.248052">
				<ele>7.860</ele>
				<time>2015-07-04T08:55:42Z</time>
				<extensions>
				</extensions>
			</trkpt>
			<trkpt lat="-27.763953" lon="153.247892">
				<ele>8.467</ele>
				<time>2015-07-04T08:55:43Z</time>
				<extensions>
				</extensions>
			</trkpt>
			<trkpt lat="-27.763731" lon="153.247728">
				<ele>8.216</ele>
				<time>2015-07-04T08:55:44Z</time>
				<extensions>
				</extensions>
			</trkpt>
			<trkpt lat="-27.763492" lon="153.247552">
				<ele>7.907</ele>
				<time>2015-07-04T08:55:45Z</time>
				<extensions>
				</extensions>
			</trkpt>
			<trkpt lat="-27.763273" lon="153.247387">
				<ele>7.561</ele>
				<time>2015-07-04T08:55:46Z</time>
				<extensions>
				</extensions>
			</trkpt>
			<trkpt lat="-27.763047" lon="153.247211">
				<ele>6.437</ele>
				<time>2015-07-04T08:55:47Z</time>
				<extensions>
				</extensions>
			</trkpt>
			<trkpt lat="-27.762832" lon="153.247026">
				<ele>6.630</ele>
				<time>2015-07-04T08:55:48Z</time>
				<extensions>
				</extensions>
			</trkpt>
			<trkpt lat="-27.762615" lon="153.246849">
				<ele>6.508</ele>
				<time>2015-07-04T08:55:49Z</time>
				<extensions>
				</extensions>
			</trkpt>
			<trkpt lat="-27.762405" lon="153.246642">
				<ele>5.545</ele>
				<time>2015-07-04T08:55:50Z</time>
				<extensions>
				</extensions>
			</trkpt>
			<trkpt lat="-27.762193" lon="153.246457">
				<ele>4.680</ele>
				<time>2015-07-04T08:55:51Z</time>
				<extensions>
				</extensions>
			</trkpt>
			<trkpt lat="-27.761974" lon="153.246269">
				<ele>5.470</ele>
				<time>2015-07-04T08:55:52Z</time>
				<extensions>
				</extensions>
			</trkpt>
			<trkpt lat="-27.761751" lon="153.246075">
				<ele>5.886</ele>
				<time>2015-07-04T08:55:53Z</time>
				<extensions>
				</extensions>
			</trkpt>
			<trkpt lat="-27.761530" lon="153.245877">
				<ele>4.992</ele>
				<time>2015-07-04T08:55:54Z</time>
				<extensions>
				</extensions>
			</trkpt>
			<trkpt lat="-27.761331" lon="153.245673">
				<ele>4.728</ele>
				<time>2015-07-04T08:55:55Z</time>
				<extensions>
				</extensions>
			</trkpt>
			<trkpt lat="-27.761135" lon="153.245469">
				<ele>5.286</ele>
				<time>2015-07-04T08:55:56Z</time>
				<extensions>
				</extensions>
			</trkpt>
			<trkpt lat="-27.760930" lon="153.245262">
				<ele>4.302</ele>
				<time>2015-07-04T08:55:57Z</time>
				<extensions>
				</extensions>
			</trkpt>
			<trkpt lat="-27.760734" lon="153.245052">
				<ele>4.175</ele>
				<time>2015-07-04T08:55:58Z</time>
				<extensions>
				</extensions>
			</trkpt>
			<trkpt lat="-27.760534" lon="153.244836">
				<ele>4.017</ele>
				<time>2015-07-04T08:55:59Z</time>
				<extensions>
				</extensions>
			</trkpt>
			<trkpt lat="-27.760342" lon="153.244610">
				<ele>3.775</ele>
				<time>2015-07-04T08:56:00Z</time>
				<extensions>
				</extensions>
			</trkpt>
			<trkpt lat="-27.760142" lon="153.244383">
				<ele>4.345</ele>
				<time>2015-07-04T08:56:01Z</time>
				<extensions>
				</extensions>
			</trkpt>
			<trkpt lat="-27.759946" lon="153.244158">
				<ele>5.068</ele>
				<time>2015-07-04T08:56:02Z</time>
				<extensions>
				</extensions>
			</trkpt>
			<trkpt lat="-27.759757" lon="153.243926">
				<ele>3.249</ele>
				<time>2015-07-04T08:56:03Z</time>
				<extensions>
				</extensions>
			</trkpt>
			<trkpt lat="-27.759572" lon="153.243687">
				<ele>4.756</ele>
				<time>2015-07-04T08:56:04Z</time>
				<extensions>
				</extensions>
			</trkpt>
			<trkpt lat="-27.759398" lon="153.243445">
				<ele>5.908</ele>
				<time>2015-07-04T08:56:05Z</time>
				<extensions>
				</extensions>
			</trkpt>
			<trkpt lat="-27.759231" lon="153.243201">
				<ele>5.476</ele>
				<time>2015-07-04T08:56:06Z</time>
				<extensions>
				</extensions>
			</trkpt>
			<trkpt lat="-27.759040" lon="153.242963">
				<ele>5.127</ele>
				<time>2015-07-04T08:56:07Z</time>
				<extensions>
				</extensions>
			</trkpt>
			<trkpt lat="-27.758863" lon="153.242724">
				<ele>6.261</ele>
				<time>2015-07-04T08:56:08Z</time>
				<extensions>
				</extensions>
			</trkpt>
			<trkpt lat="-27.758683" lon="153.242473">
				<ele>6.238</ele>
				<time>2015-07-04T08:56:09Z</time>
				<extensions>
				</extensions>
			</trkpt>
			<trkpt lat="-27.758494" lon="153.242228">
				<ele>6.729</ele>
				<time>2015-07-04T08:56:10Z</time>
				<extensions>
				</extensions>
			</trkpt>
			<trkpt lat="-27.758309" lon="153.241986">
				<ele>5.689</ele>
				<time>2015-07-04T08:56:11Z</time>
				<extensions>
				</extensions>
			</trkpt>
			<trkpt lat="-27.758130" lon="153.241747">
				<ele>5.729</ele>
				<time>2015-07-04T08:56:12Z</time>
				<extensions>
				</extensions>
			</trkpt>
			<trkpt lat="-27.757941" lon="153.241519">
				<ele>6.027</ele>
				<time>2015-07-04T08:56:13Z</time>
				<extensions>
				</extensions>
			</trkpt>
			<trkpt lat="-27.757751" lon="153.241284">
				<ele>6.112</ele>
				<time>2015-07-04T08:56:14Z</time>
				<extensions>
				</extensions>
			</trkpt>
			<trkpt lat="-27.757559" lon="153.241050">
				<ele>6.663</ele>
				<time>2015-07-04T08:56:15Z</time>
				<extensions>
				</extensions>
			</trkpt>
			<trkpt lat="-27.757360" lon="153.240809">
				<ele>6.919</ele>
				<time>2015-07-04T08:56:16Z</time>
				<extensions>
				</extensions>
			</trkpt>
			<trkpt lat="-27.757154" lon="153.240582">
				<ele>8.334</ele>
				<time>2015-07-04T08:56:17Z</time>
				<extensions>
				</extensions>
			</trkpt>
			<trkpt lat="-27.756946" lon="153.240367">
				<ele>9.348</ele>
				<time>2015-07-04T08:56:18Z</time>
				<extensions>
				</extensions>
			</trkpt>
			<trkpt lat="-27.756737" lon="153.240147">
				<ele>7.884</ele>
				<time>2015-07-04T08:56:19Z</time>
				<extensions>
				</extensions>
			</trkpt>
			<trkpt lat="-27.756527" lon="153.239934">
				<ele>8.572</ele>
				<time>2015-07-04T08:56:20Z</time>
				<extensions>
				</extensions>
			</trkpt>
			<trkpt lat="-27.756314" lon="153.239723">
				<ele>8.152</ele>
				<time>2015-07-04T08:56:21Z</time>
				<extensions>
				</extensions>
			</trkpt>
			<trkpt lat="-27.756098" lon="153.239514">
				<ele>8.152</ele>
				<time>2015-07-04T08:56:22Z</time>
				<extensions>
				</extensions>
			</trkpt>
			<trkpt lat="-27.755880" lon="153.239303">
				<ele>7.391</ele>
				<time>2015-07-04T08:56:23Z</time>
				<extensions>
				</extensions>
			</trkpt>
			<trkpt lat="-27.755666" lon="153.239101">
				<ele>7.016</ele>
				<time>2015-07-04T08:56:24Z</time>
				<extensions>
				</extensions>
			</trkpt>
			<trkpt lat="-27.755447" lon="153.238908">
				<ele>6.891</ele>
				<time>2015-07-04T08:56:25Z</time>
				<extensions>
				</extensions>
			</trkpt>
			<trkpt lat="-27.755220" lon="153.238705">
				<ele>6.716</ele>
				<time>2015-07-04T08:56:26Z</time>
				<extensions>
				</extensions>
			</trkpt>
			<trkpt lat="-27.754992" lon="153.238508">
				<ele>7.466</ele>
				<time>2015-07-04T08:56:27Z</time>
				<extensions>
				</extensions>
			</trkpt>
			<trkpt lat="-27.754756" lon="153.238321">
				<ele>9.343</ele>
				<time>2015-07-04T08:56:28Z</time>
				<extensions>
				</extensions>
			</trkpt>
			<trkpt lat="-27.754536" lon="153.238135">
				<ele>9.290</ele>
				<time>2015-07-04T08:56:29Z</time>
				<extensions>
				</extensions>
			</trkpt>
			<trkpt lat="-27.754314" lon="153.237959">
				<ele>8.267</ele>
				<time>2015-07-04T08:56:30Z</time>
				<extensions>
				</extensions>
			</trkpt>
			<trkpt lat="-27.754092" lon="153.237785">
				<ele>5.777</ele>
				<time>2015-07-04T08:56:31Z</time>
				<extensions>
				</extensions>
			</trkpt>
			<trkpt lat="-27.753870" lon="153.237611">
				<ele>7.268</ele>
				<time>2015-07-04T08:56:32Z</time>
				<extensions>
				</extensions>
			</trkpt>
			<trkpt lat="-27.753638" lon="153.237437">
				<ele>8.144</ele>
				<time>2015-07-04T08:56:33Z</time>
				<extensions>
				</extensions>
			</trkpt>
			<trkpt lat="-27.753415" lon="153.237268">
				<ele>8.355</ele>
				<time>2015-07-04T08:56:34Z</time>
				<extensions>
				</extensions>
			</trkpt>
			<trkpt lat="-27.753185" lon="153.237104">
				<ele>6.985</ele>
				<time>2015-07-04T08:56:35Z</time>
				<extensions>
				</extensions>
			</trkpt>
			<trkpt lat="-27.752958" lon="153.236956">
				<ele>6.448</ele>
				<time>2015-07-04T08:56:36Z</time>
				<extensions>
				</extensions>
			</trkpt>
			<trkpt lat="-27.752732" lon="153.236814">
				<ele>6.905</ele>
				<time>2015-07-04T08:56:37Z</time>
				<extensions>
				</extensions>
			</trkpt>
			<trkpt lat="-27.752494" lon="153.236659">
				<ele>6.808</ele>
				<time>2015-07-04T08:56:38Z</time>
				<extensions>
				</extensions>
			</trkpt>
			<trkpt lat="-27.752257" lon="153.236513">
				<ele>6.827</ele>
				<time>2015-07-04T08:56:39Z</time>
				<extensions>
				</extensions>
			</trkpt>
			<trkpt lat="-27.752018" lon="153.236373">
				<ele>7.418</ele>
				<time>2015-07-04T08:56:40Z</time>
				<extensions>
				</extensions>
			</trkpt>
			<trkpt lat="-27.751775" lon="153.236231">
				<ele>7.848</ele>
				<time>2015-07-04T08:56:41Z</time>
				<extensions>
				</extensions>
			</trkpt>
			<trkpt lat="-27.751529" lon="153.236087">
				<ele>7.457</ele>
				<time>2015-07-04T08:56:42Z</time>
				<extensions>
				</extensions>
			</trkpt>
			<trkpt lat="-27.751290" lon="153.235948">
				<ele>8.862</ele>
				<time>2015-07-04T08:56:43Z</time>
				<extensions>
				</extensions>
			</trkpt>
			<trkpt lat="-27.751047" lon="153.235819">
				<ele>8.149</ele>
				<time>2015-07-04T08:56:44Z</time>
				<extensions>
				</extensions>
			</trkpt>
			<trkpt lat="-27.750803" lon="153.235690">
				<ele>7.346</ele>
				<time>2015-07-04T08:56:45Z</time>
				<extensions>
				</extensions>
			</trkpt>
			<trkpt lat="-27.750560" lon="153.235566">
				<ele>7.504</ele>
				<time>2015-07-04T08:56:46Z</time>
				<extensions>
				</extensions>
			</trkpt>
			<trkpt lat="-27.750315" lon="153.235441">
				<ele>6.394</ele>
				<time>2015-07-04T08:56:47Z</time>
				<extensions>
				</extensions>
			</trkpt>
			<trkpt lat="-27.750071" lon="153.235321">
				<ele>6.942</ele>
				<time>2015-07-04T08:56:48Z</time>
				<extensions>
				</extensions>
			</trkpt>
			<trkpt lat="-27.749823" lon="153.235203">
				<ele>7.299</ele>
				<time>2015-07-04T08:56:49Z</time>
				<extensions>
				</extensions>
			</trkpt>
			<trkpt lat="-27.749572" lon="153.235094">
				<ele>7.295</ele>
				<time>2015-07-04T08:56:50Z</time>
				<extensions>
				</extensions>
			</trkpt>
			<trkpt lat="-27.749313" lon="153.234978">
				<ele>7.789</ele>
				<time>2015-07-04T08:56:51Z</time>
				<extensions>
				</extensions>
			</trkpt>
			<trkpt lat="-27.749050" lon="153.234863">
				<ele>9.412</ele>
				<time>2015-07-04T08:56:52Z</time>
				<extensions>
				</extensions>
			</trkpt>
			<trkpt lat="-27.748794" lon="153.234751">
				<ele>10.761</ele>
				<time>2015-07-04T08:56:53Z</time>
				<extensions>
				</extensions>
			</trkpt>
			<trkpt lat="-27.748534" lon="153.234640">
				<ele>9.071</ele>
				<time>2015-07-04T08:56:54Z</time>
				<extensions>
				</extensions>
			</trkpt>
			<trkpt lat="-27.748288" lon="153.234528">
				<ele>8.011</ele>
				<time>2015-07-04T08:56:55Z</time>
				<extensions>
				</extensions>
			</trkpt>
			<trkpt lat="-27.748049" lon="153.234431">
				<ele>8.425</ele>
				<time>2015-07-04T08:56:56Z</time>
				<extensions>
				</extensions>
			</trkpt>
			<trkpt lat="-27.747810" lon="153.234335">
				<ele>6.978</ele>
				<time>2015-07-04T08:56:57Z</time>
				<extensions>
				</extensions>
			</trkpt>
			<trkpt lat="-27.747572" lon="153.234220">
				<ele>5.270</ele>
				<time>2015-07-04T08:56:58Z</time>
				<extensions>
				</extensions>
			</trkpt>
			<trkpt lat="-27.747339" lon="153.234119">
				<ele>6.329</ele>
				<time>2015-07-04T08:56:59Z</time>
				<extensions>
				</extensions>
			</trkpt>
			<trkpt lat="-27.747104" lon="153.234013">
				<ele>7.614</ele>
				<time>2015-07-04T08:57:00Z</time>
				<extensions>
				</extensions>
			</trkpt>
			<trkpt lat="-27.746856" lon="153.233895">
				<ele>7.085</ele>
				<time>2015-07-04T08:57:01Z</time>
				<extensions>
				</extensions>
			</trkpt>
			<trkpt lat="-27.746611" lon="153.233784">
				<ele>7.841</ele>
				<time>2015-07-04T08:57:02Z</time>
				<extensions>
				</extensions>
			</trkpt>
			<trkpt lat="-27.746371" lon="153.233677">
				<ele>8.961</ele>
				<time>2015-07-04T08:57:03Z</time>
				<extensions>
				</extensions>
			</trkpt>
			<trkpt lat="-27.746127" lon="153.233572">
				<ele>8.828</ele>
				<time>2015-07-04T08:57:04Z</time>
				<extensions>
				</extensions>
			</trkpt>
			<trkpt lat="-27.745879" lon="153.233473">
				<ele>7.461</ele>
				<time>2015-07-04T08:57:05Z</time>
				<extensions>
				</extensions>
			</trkpt>
			<trkpt lat="-27.745635" lon="153.233376">
				<ele>8.034</ele>
				<time>2015-07-04T08:57:06Z</time>
				<extensions>
				</extensions>
			</trkpt>
			<trkpt lat="-27.745393" lon="153.233283">
				<ele>6.805</ele>
				<time>2015-07-04T08:57:07Z</time>
				<extensions>
				</extensions>
			</trkpt>
			<trkpt lat="-27.745150" lon="153.233176">
				<ele>7.341</ele>
				<time>2015-07-04T08:57:08Z</time>
				<extensions>
				</extensions>
			</trkpt>
			<trkpt lat="-27.744911" lon="153.233069">
				<ele>6.396</ele>
				<time>2015-07-04T08:57:09Z</time>
				<extensions>
				</extensions>
			</trkpt>
			<trkpt lat="-27.744664" lon="153.232979">
				<ele>7.460</ele>
				<time>2015-07-04T08:57:10Z</time>
				<extensions>
				</extensions>
			</trkpt>
			<trkpt lat="-27.744417" lon="153.232883">
				<ele>7.402</ele>
				<time>2015-07-04T08:57:11Z</time>
				<extensions>
				</extensions>
			</trkpt>
			<trkpt lat="-27.744167" lon="153.232787">
				<ele>7.608</ele>
				<time>2015-07-04T08:57:12Z</time>
				<extensions>
				</extensions>
			</trkpt>
			<trkpt lat="-27.743915" lon="153.232670">
				<ele>7.900</ele>
				<time>2015-07-04T08:57:13Z</time>
				<extensions>
				</extensions>
			</trkpt>
			<trkpt lat="-27.743670" lon="153.232565">
				<ele>8.986</ele>
				<time>2015-07-04T08:57:14Z</time>
				<extensions>
				</extensions>
			</trkpt>
			<trkpt lat="-27.743413" lon="153.232461">
				<ele>8.528</ele>
				<time>2015-07-04T08:57:15Z</time>
				<extensions>
				</extensions>
			</trkpt>
			<trkpt lat="-27.743162" lon="153.232357">
				<ele>7.620</ele>
				<time>2015-07-04T08:57:16Z</time>
				<extensions>
				</extensions>
			</trkpt>
			<trkpt lat="-27.742905" lon="153.232257">
				<ele>7.105</ele>
				<time>2015-07-04T08:57:17Z</time>
				<extensions>
				</extensions>
			</trkpt>
			<trkpt lat="-27.742649" lon="153.232160">
				<ele>9.111</ele>
				<time>2015-07-04T08:57:18Z</time>
				<extensions>
				</extensions>
			</trkpt>
			<trkpt lat="-27.742388" lon="153.232056">
				<ele>8.934</ele>
				<time>2015-07-04T08:57:19Z</time>
				<extensions>
				</extensions>
			</trkpt>
			<trkpt lat="-27.742132" lon="153.231945">
				<ele>8.939</ele>
				<time>2015-07-04T08:57:20Z</time>
				<extensions>
				</extensions>
			</trkpt>
			<trkpt lat="-27.741884" lon="153.231825">
				<ele>8.828</ele>
				<time>2015-07-04T08:57:21Z</time>
				<extensions>
				</extensions>
			</trkpt>
			<trkpt lat="-27.741633" lon="153.231714">
				<ele>8.075</ele>
				<time>2015-07-04T08:57:22Z</time>
				<extensions>
				</extensions>
			</trkpt>
			<trkpt lat="-27.741381" lon="153.231594">
				<ele>7.986</ele>
				<time>2015-07-04T08:57:23Z</time>
				<extensions>
				</extensions>
			</trkpt>
			<trkpt lat="-27.741132" lon="153.231472">
				<ele>9.086</ele>
				<time>2015-07-04T08:57:24Z</time>
				<extensions>
				</extensions>
			</trkpt>
			<trkpt lat="-27.740881" lon="153.231353">
				<ele>9.086</ele>
				<time>2015-07-04T08:57:25Z</time>
				<extensions>
				</extensions>
			</trkpt>
			<trkpt lat="-27.740640" lon="153.231233">
				<ele>9.149</ele>
				<time>2015-07-04T08:57:26Z</time>
				<extensions>
				</extensions>
			</trkpt>
			<trkpt lat="-27.740401" lon="153.231105">
				<ele>9.819</ele>
				<time>2015-07-04T08:57:27Z</time>
				<extensions>
				</extensions>
			</trkpt>
			<trkpt lat="-27.740155" lon="153.230997">
				<ele>9.621</ele>
				<time>2015-07-04T08:57:28Z</time>
				<extensions>
				</extensions>
			</trkpt>
			<trkpt lat="-27.739918" lon="153.230861">
				<ele>9.445</ele>
				<time>2015-07-04T08:57:29Z</time>
				<extensions>
				</extensions>
			</trkpt>
			<trkpt lat="-27.739674" lon="153.230738">
				<ele>8.797</ele>
				<time>2015-07-04T08:57:30Z</time>
				<extensions>
				</extensions>
			</trkpt>
			<trkpt lat="-27.739429" lon="153.230614">
				<ele>7.934</ele>
				<time>2015-07-04T08:57:31Z</time>
				<extensions>
				</extensions>
			</trkpt>
			<trkpt lat="-27.739192" lon="153.230479">
				<ele>8.398</ele>
				<time>2015-07-04T08:57:32Z</time>
				<extensions>
				</extensions>
			</trkpt>
			<trkpt lat="-27.738950" lon="153.230336">
				<ele>8.376</ele>
				<time>2015-07-04T08:57:33Z</time>
				<extensions>
				</extensions>
			</trkpt>
			<trkpt lat="-27.738703" lon="153.230200">
				<ele>10.640</ele>
				<time>2015-07-04T08:57:34Z</time>
				<extensions>
				</extensions>
			</trkpt>
			<trkpt lat="-27.738458" lon="153.230052">
				<ele>11.499</ele>
				<time>2015-07-04T08:57:35Z</time>
				<extensions>
				</extensions>
			</trkpt>
			<trkpt lat="-27.738213" lon="153.229897">
				<ele>10.739</ele>
				<time>2015-07-04T08:57:36Z</time>
				<extensions>
				</extensions>
			</trkpt>
			<trkpt lat="-27.737961" lon="153.229744">
				<ele>12.150</ele>
				<time>2015-07-04T08:57:37Z</time>
				<extensions>
				</extensions>
			</trkpt>
			<trkpt lat="-27.737712" lon="153.229587">
				<ele>12.856</ele>
				<time>2015-07-04T08:57:38Z</time>
				<extensions>
				</extensions>
			</trkpt>
			<trkpt lat="-27.737475" lon="153.229436">
				<ele>11.284</ele>
				<time>2015-07-04T08:57:39Z</time>
				<extensions>
				</extensions>
			</trkpt>
			<trkpt lat="-27.737237" lon="153.229282">
				<ele>10.942</ele>
				<time>2015-07-04T08:57:40Z</time>
				<extensions>
				</extensions>
			</trkpt>
			<trkpt lat="-27.736999" lon="153.229127">
				<ele>10.716</ele>
				<time>2015-07-04T08:57:41Z</time>
				<extensions>
				</extensions>
			</trkpt>
			<trkpt lat="-27.736756" lon="153.228962">
				<ele>10.385</ele>
				<time>2015-07-04T08:57:42Z</time>
				<extensions>
				</extensions>
			</trkpt>
			<trkpt lat="-27.736522" lon="153.228796">
				<ele>10.739</ele>
				<time>2015-07-04T08:57:43Z</time>
				<extensions>
				</extensions>
			</trkpt>
			<trkpt lat="-27.736286" lon="153.228631">
				<ele>11.329</ele>
				<time>2015-07-04T08:57:44Z</time>
				<extensions>
				</extensions>
			</trkpt>
			<trkpt lat="-27.736051" lon="153.228458">
				<ele>10.511</ele>
				<time>2015-07-04T08:57:45Z</time>
				<extensions>
				</extensions>
			</trkpt>
			<trkpt lat="-27.735826" lon="153.228280">
				<ele>8.940</ele>
				<time>2015-07-04T08:57:46Z</time>
				<extensions>
				</extensions>
			</trkpt>
			<trkpt lat="-27.735601" lon="153.228120">
				<ele>6.177</ele>
				<time>2015-07-04T08:57:47Z</time>
				<extensions>
				</extensions>
			</trkpt>
			<trkpt lat="-27.735384" lon="153.227962">
				<ele>2.885</ele>
				<time>2015-07-04T08:57:48Z</time>
				<extensions>
				</extensions>
			</trkpt>
			<trkpt lat="-27.735166" lon="153.227802">
				<ele>2.159</ele>
				<time>2015-07-04T08:57:49Z</time>
				<extensions>
				</extensions>
			</trkpt>
			<trkpt lat="-27.734942" lon="153.227636">
				<ele>2.421</ele>
				<time>2015-07-04T08:57:50Z</time>
				<extensions>
				</extensions>
			</trkpt>
			<trkpt lat="-27.734716" lon="153.227472">
				<ele>3.520</ele>
				<time>2015-07-04T08:57:51Z</time>
				<extensions>
				</extensions>
			</trkpt>
			<trkpt lat="-27.734488" lon="153.227304">
				<ele>2.654</ele>
				<time>2015-07-04T08:57:52Z</time>
				<extensions>
				</extensions>
			</trkpt>
			<trkpt lat="-27.734262" lon="153.227125">
				<ele>5.152</ele>
				<time>2015-07-04T08:57:53Z</time>
				<extensions>
				</extensions>
			</trkpt>
			<trkpt lat="-27.734030" lon="153.226956">
				<ele>4.962</ele>
				<time>2015-07-04T08:57:54Z</time>
				<extensions>
				</extensions>
			</trkpt>
			<trkpt lat="-27.733790" lon="153.226781">
				<ele>5.227</ele>
				<time>2015-07-04T08:57:55Z</time>
				<extensions>
				</extensions>
			</trkpt>
			<trkpt lat="-27.733539" lon="153.226592">
				<ele>5.886</ele>
				<time>2015-07-04T08:57:56Z</time>
				<extensions>
				</extensions>
			</trkpt>
			<trkpt lat="-27.733298" lon="153.226409">
				<ele>6.075</ele>
				<time>2015-07-04T08:57:57Z</time>
				<extensions>
				</extensions>
			</trkpt>
			<trkpt lat="-27.733055" lon="153.226229">
				<ele>5.016</ele>
				<time>2015-07-04T08:57:58Z</time>
				<extensions>
				</extensions>
			</trkpt>
			<trkpt lat="-27.732821" lon="153.226059">
				<ele>3.615</ele>
				<time>2015-07-04T08:57:59Z</time>
				<extensions>
				</extensions>
			</trkpt>
			<trkpt lat="-27.732586" lon="153.225876">
				<ele>2.465</ele>
				<time>2015-07-04T08:58:00Z</time>
				<extensions>
				</extensions>
			</trkpt>
			<trkpt lat="-27.732365" lon="153.225715">
				<ele>0.903</ele>
				<time>2015-07-04T08:58:01Z</time>
				<extensions>
				</extensions>
			</trkpt>
			<trkpt lat="-27.732141" lon="153.225557">
				<ele>0.610</ele>
				<time>2015-07-04T08:58:02Z</time>
				<extensions>
				</extensions>
			</trkpt>
			<trkpt lat="-27.731916" lon="153.225388">
				<ele>1.147</ele>
				<time>2015-07-04T08:58:03Z</time>
				<extensions>
				</extensions>
			</trkpt>
			<trkpt lat="-27.731697" lon="153.225219">
				<ele>-0.510</ele>
				<time>2015-07-04T08:58:04Z</time>
				<extensions>
				</extensions>
			</trkpt>
			<trkpt lat="-27.731475" lon="153.225057">
				<ele>0.011</ele>
				<time>2015-07-04T08:58:05Z</time>
				<extensions>
				</extensions>
			</trkpt>
			<trkpt lat="-27.731252" lon="153.224883">
				<ele>1.102</ele>
				<time>2015-07-04T08:58:06Z</time>
				<extensions>
				</extensions>
			</trkpt>
			<trkpt lat="-27.731024" lon="153.224715">
				<ele>2.606</ele>
				<time>2015-07-04T08:58:07Z</time>
				<extensions>
				</extensions>
			</trkpt>
			<trkpt lat="-27.730806" lon="153.224549">
				<ele>1.372</ele>
				<time>2015-07-04T08:58:08Z</time>
				<extensions>
				</extensions>
			</trkpt>
			<trkpt lat="-27.730593" lon="153.224385">
				<ele>-0.172</ele>
				<time>2015-07-04T08:58:09Z</time>
				<extensions>
				</extensions>
			</trkpt>
			<trkpt lat="-27.730382" lon="153.224230">
				<ele>-0.864</ele>
				<time>2015-07-04T08:58:10Z</time>
				<extensions>
				</extensions>
			</trkpt>
			<trkpt lat="-27.730164" lon="153.224072">
				<ele>-0.024</ele>
				<time>2015-07-04T08:58:11Z</time>
				<extensions>
				</extensions>
			</trkpt>
			<trkpt lat="-27.729952" lon="153.223910">
				<ele>-0.464</ele>
				<time>2015-07-04T08:58:12Z</time>
				<extensions>
				</extensions>
			</trkpt>
			<trkpt lat="-27.729737" lon="153.223744">
				<ele>-1.007</ele>
				<time>2015-07-04T08:58:13Z</time>
				<extensions>
				</extensions>
			</trkpt>
			<trkpt lat="-27.729526" lon="153.223588">
				<ele>0.416</ele>
				<time>2015-07-04T08:58:14Z</time>
				<extensions>
				</extensions>
			</trkpt>
			<trkpt lat="-27.729317" lon="153.223429">
				<ele>-1.516</ele>
				<time>2015-07-04T08:58:15Z</time>
				<extensions>
				</extensions>
			</trkpt>
			<trkpt lat="-27.729113" lon="153.223267">
				<ele>-1.032</ele>
				<time>2015-07-04T08:58:16Z</time>
				<extensions>
				</extensions>
			</trkpt>
			<trkpt lat="-27.728906" lon="153.223111">
				<ele>-1.654</ele>
				<time>2015-07-04T08:58:17Z</time>
				<extensions>
				</extensions>
			</trkpt>
			<trkpt lat="-27.728699" lon="153.222946">
				<ele>-0.472</ele>
				<time>2015-07-04T08:58:18Z</time>
				<extensions>
				</extensions>
			</trkpt>
			<trkpt lat="-27.728488" lon="153.222782">
				<ele>-1.437</ele>
				<time>2015-07-04T08:58:19Z</time>
				<extensions>
				</extensions>
			</trkpt>
			<trkpt lat="-27.728273" lon="153.222615">
				<ele>1.092</ele>
				<time>2015-07-04T08:58:20Z</time>
				<extensions>
				</extensions>
			</trkpt>
			<trkpt lat="-27.728060" lon="153.222446">
				<ele>0.696</ele>
				<time>2015-07-04T08:58:21Z</time>
				<extensions>
				</extensions>
			</trkpt>
			<trkpt lat="-27.727843" lon="153.222266">
				<ele>0.389</ele>
				<time>2015-07-04T08:58:22Z</time>
				<extensions>
				</extensions>
			</trkpt>
			<trkpt lat="-27.727626" lon="153.222087">
				<ele>0.463</ele>
				<time>2015-07-04T08:58:23Z</time>
				<extensions>
				</extensions>
			</trkpt>
			<trkpt lat="-27.727419" lon="153.221908">
				<ele>0.645</ele>
				<time>2015-07-04T08:58:24Z</time>
				<extensions>
				</extensions>
			</trkpt>
			<trkpt lat="-27.727210" lon="153.221742">
				<ele>0.728</ele>
				<time>2015-07-04T08:58:25Z</time>
				<extensions>
				</extensions>
			</trkpt>
			<trkpt lat="-27.727006" lon="153.221572">
				<ele>2.925</ele>
				<time>2015-07-04T08:58:26Z</time>
				<extensions>
				</extensions>
			</trkpt>
			<trkpt lat="-27.726790" lon="153.221383">
				<ele>2.509</ele>
				<time>2015-07-04T08:58:27Z</time>
				<extensions>
				</extensions>
			</trkpt>
			<trkpt lat="-27.726572" lon="153.221188">
				<ele>2.725</ele>
				<time>2015-07-04T08:58:28Z</time>
				<extensions>
				</extensions>
			</trkpt>
			<trkpt lat="-27.726364" lon="153.220996">
				<ele>1.753</ele>
				<time>2015-07-04T08:58:29Z</time>
				<extensions>
				</extensions>
			</trkpt>
			<trkpt lat="-27.726155" lon="153.220798">
				<ele>1.753</ele>
				<time>2015-07-04T08:58:30Z</time>
				<extensions>
				</extensions>
			</trkpt>
			<trkpt lat="-27.725946" lon="153.220604">
				<ele>2.340</ele>
				<time>2015-07-04T08:58:31Z</time>
				<extensions>
				</extensions>
			</trkpt>
			<trkpt lat="-27.725741" lon="153.220397">
				<ele>2.362</ele>
				<time>2015-07-04T08:58:32Z</time>
				<extensions>
				</extensions>
			</trkpt>
			<trkpt lat="-27.725544" lon="153.220196">
				<ele>2.244</ele>
				<time>2015-07-04T08:58:33Z</time>
				<extensions>
				</extensions>
			</trkpt>
			<trkpt lat="-27.725337" lon="153.219996">
				<ele>2.595</ele>
				<time>2015-07-04T08:58:34Z</time>
				<extensions>
				</extensions>
			</trkpt>
			<trkpt lat="-27.725138" lon="153.219798">
				<ele>3.181</ele>
				<time>2015-07-04T08:58:35Z</time>
				<extensions>
				</extensions>
			</trkpt>
			<trkpt lat="-27.724945" lon="153.219603">
				<ele>3.007</ele>
				<time>2015-07-04T08:58:36Z</time>
				<extensions>
				</extensions>
			</trkpt>
			<trkpt lat="-27.724752" lon="153.219397">
				<ele>2.648</ele>
				<time>2015-07-04T08:58:37Z</time>
				<extensions>
				</extensions>
			</trkpt>
			<trkpt lat="-27.724546" lon="153.219187">
				<ele>2.241</ele>
				<time>2015-07-04T08:58:38Z</time>
				<extensions>
				</extensions>
			</trkpt>
			<trkpt lat="-27.724359" lon="153.218981">
				<ele>4.649</ele>
				<time>2015-07-04T08:58:39Z</time>
				<extensions>
				</extensions>
			</trkpt>
			<trkpt lat="-27.724167" lon="153.218766">
				<ele>3.110</ele>
				<time>2015-07-04T08:58:40Z</time>
				<extensions>
				</extensions>
			</trkpt>
			<trkpt lat="-27.723992" lon="153.218559">
				<ele>2.302</ele>
				<time>2015-07-04T08:58:41Z</time>
				<extensions>
				</extensions>
			</trkpt>
			<trkpt lat="-27.723804" lon="153.218345">
				<ele>2.281</ele>
				<time>2015-07-04T08:58:42Z</time>
				<extensions>
				</extensions>
			</trkpt>
			<trkpt lat="-27.723619" lon="153.218131">
				<ele>3.055</ele>
				<time>2015-07-04T08:58:43Z</time>
				<extensions>
				</extensions>
			</trkpt>
			<trkpt lat="-27.723436" lon="153.217914">
				<ele>3.026</ele>
				<time>2015-07-04T08:58:44Z</time>
				<extensions>
				</extensions>
			</trkpt>
			<trkpt lat="-27.723255" lon="153.217695">
				<ele>4.235</ele>
				<time>2015-07-04T08:58:45Z</time>
				<extensions>
				</extensions>
			</trkpt>
			<trkpt lat="-27.723071" lon="153.217470">
				<ele>2.522</ele>
				<time>2015-07-04T08:58:46Z</time>
				<extensions>
				</extensions>
			</trkpt>
			<trkpt lat="-27.722902" lon="153.217237">
				<ele>2.535</ele>
				<time>2015-07-04T08:58:47Z</time>
				<extensions>
				</extensions>
			</trkpt>
			<trkpt lat="-27.722731" lon="153.217003">
				<ele>2.490</ele>
				<time>2015-07-04T08:58:48Z</time>
				<extensions>
				</extensions>
			</trkpt>
			<trkpt lat="-27.722557" lon="153.216770">
				<ele>3.027</ele>
				<time>2015-07-04T08:58:49Z</time>
				<extensions>
				</extensions>
			</trkpt>
			<trkpt lat="-27.722384" lon="153.216535">
				<ele>1.701</ele>
				<time>2015-07-04T08:58:50Z</time>
				<extensions>
				</extensions>
			</trkpt>
			<trkpt lat="-27.722222" lon="153.216299">
				<ele>1.063</ele>
				<time>2015-07-04T08:58:51Z</time>
				<extensions>
				</extensions>
			</trkpt>
			<trkpt lat="-27.722062" lon="153.216068">
				<ele>0.968</ele>
				<time>2015-07-04T08:58:52Z</time>
				<extensions>
				</extensions>
			</trkpt>
			<trkpt lat="-27.721893" lon="153.215839">
				<ele>0.860</ele>
				<time>2015-07-04T08:58:53Z</time>
				<extensions>
				</extensions>
			</trkpt>
			<trkpt lat="-27.721727" lon="153.215609">
				<ele>-1.135</ele>
				<time>2015-07-04T08:58:54Z</time>
				<extensions>
				</extensions>
			</trkpt>
			<trkpt lat="-27.721562" lon="153.215382">
				<ele>-1.001</ele>
				<time>2015-07-04T08:58:55Z</time>
				<extensions>
				</extensions>
			</trkpt>
			<trkpt lat="-27.721394" lon="153.215147">
				<ele>-2.276</ele>
				<time>2015-07-04T08:58:56Z</time>
				<extensions>
				</extensions>
			</trkpt>
			<trkpt lat="-27.721225" lon="153.214911">
				<ele>-0.642</ele>
				<time>2015-07-04T08:58:57Z</time>
				<extensions>
				</extensions>
			</trkpt>
			<trkpt lat="-27.721059" lon="153.214670">
				<ele>-0.837</ele>
				<time>2015-07-04T08:58:58Z</time>
				<extensions>
				</extensions>
			</trkpt>
			<trkpt lat="-27.720884" lon="153.214431">
				<ele>-1.556</ele>
				<time>2015-07-04T08:58:59Z</time>
				<extensions>
				</extensions>
			</trkpt>
			<trkpt lat="-27.720713" lon="153.214192">
				<ele>-2.645</ele>
				<time>2015-07-04T08:59:00Z</time>
				<extensions>
				</extensions>
			</trkpt>
			<trkpt lat="-27.720544" lon="153.213953">
				<ele>-1.779</ele>
				<time>2015-07-04T08:59:01Z</time>
				<extensions>
				</extensions>
			</trkpt>
			<trkpt lat="-27.720366" lon="153.213712">
				<ele>-2.809</ele>
				<time>2015-07-04T08:59:02Z</time>
				<extensions>
				</extensions>
			</trkpt>
			<trkpt lat="-27.720180" lon="153.213479">
				<ele>-1.096</ele>
				<time>2015-07-04T08:59:03Z</time>
				<extensions>
				</extensions>
			</trkpt>
			<trkpt lat="-27.719989" lon="153.213237">
				<ele>-1.633</ele>
				<time>2015-07-04T08:59:04Z</time>
				<extensions>
				</extensions>
			</trkpt>
			<trkpt lat="-27.719798" lon="153.213001">
				<ele>-0.782</ele>
				<time>2015-07-04T08:59:05Z</time>
				<extensions>
				</extensions>
			</trkpt>
			<trkpt lat="-27.719600" lon="153.212771">
				<ele>0.244</ele>
				<time>2015-07-04T08:59:06Z</time>
				<extensions>
				</extensions>
			</trkpt>
			<trkpt lat="-27.719400" lon="153.212549">
				<ele>-1.005</ele>
				<time>2015-07-04T08:59:07Z</time>
				<extensions>
				</extensions>
			</trkpt>
			<trkpt lat="-27.719205" lon="153.212331">
				<ele>-2.646</ele>
				<time>2015-07-04T08:59:08Z</time>
				<extensions>
				</extensions>
			</trkpt>
			<trkpt lat="-27.719014" lon="153.212117">
				<ele>-3.088</ele>
				<time>2015-07-04T08:59:09Z</time>
				<extensions>
				</extensions>
			</trkpt>
			<trkpt lat="-27.718824" lon="153.211925">
				<ele>-2.756</ele>
				<time>2015-07-04T08:59:10Z</time>
				<extensions>
				</extensions>
			</trkpt>
			<trkpt lat="-27.718640" lon="153.211729">
				<ele>-2.142</ele>
				<time>2015-07-04T08:59:11Z</time>
				<extensions>
				</extensions>
			</trkpt>
			<trkpt lat="-27.718440" lon="153.211537">
				<ele>-2.122</ele>
				<time>2015-07-04T08:59:12Z</time>
				<extensions>
				</extensions>
			</trkpt>
			<trkpt lat="-27.718241" lon="153.211348">
				<ele>-3.766</ele>
				<time>2015-07-04T08:59:13Z</time>
				<extensions>
				</extensions>
			</trkpt>
			<trkpt lat="-27.718052" lon="153.211161">
				<ele>-3.191</ele>
				<time>2015-07-04T08:59:14Z</time>
				<extensions>
				</extensions>
			</trkpt>
			<trkpt lat="-27.717851" lon="153.210971">
				<ele>-5.785</ele>
				<time>2015-07-04T08:59:15Z</time>
				<extensions>
				</extensions>
			</trkpt>
			<trkpt lat="-27.717647" lon="153.210786">
				<ele>-3.783</ele>
				<time>2015-07-04T08:59:16Z</time>
				<extensions>
				</extensions>
			</trkpt>
			<trkpt lat="-27.717441" lon="153.210609">
				<ele>-3.146</ele>
				<time>2015-07-04T08:59:17Z</time>
				<extensions>
				</extensions>
			</trkpt>
			<trkpt lat="-27.717236" lon="153.210432">
				<ele>-3.446</ele>
				<time>2015-07-04T08:59:18Z</time>
				<extensions>
				</extensions>
			</trkpt>
			<trkpt lat="-27.717032" lon="153.210260">
				<ele>-3.694</ele>
				<time>2015-07-04T08:59:19Z</time>
				<extensions>
				</extensions>
			</trkpt>
			<trkpt lat="-27.716810" lon="153.210087">
				<ele>-5.362</ele>
				<time>2015-07-04T08:59:20Z</time>
				<extensions>
				</extensions>
			</trkpt>
			<trkpt lat="-27.716588" lon="153.209919">
				<ele>-2.599</ele>
				<time>2015-07-04T08:59:21Z</time>
				<extensions>
				</extensions>
			</trkpt>
			<trkpt lat="-27.716366" lon="153.209755">
				<ele>-3.510</ele>
				<time>2015-07-04T08:59:22Z</time>
				<extensions>
				</extensions>
			</trkpt>
			<trkpt lat="-27.716136" lon="153.209596">
				<ele>-2.272</ele>
				<time>2015-07-04T08:59:23Z</time>
				<extensions>
				</extensions>
			</trkpt>
			<trkpt lat="-27.715910" lon="153.209438">
				<ele>-2.612</ele>
				<time>2015-07-04T08:59:24Z</time>
				<extensions>
				</extensions>
			</trkpt>
			<trkpt lat="-27.715682" lon="153.209299">
				<ele>-3.177</ele>
				<time>2015-07-04T08:59:25Z</time>
				<extensions>
				</extensions>
			</trkpt>
			<trkpt lat="-27.715445" lon="153.209148">
				<ele>-3.754</ele>
				<time>2015-07-04T08:59:26Z</time>
				<extensions>
				</extensions>
			</trkpt>
			<trkpt lat="-27.715210" lon="153.209004">
				<ele>-4.250</ele>
				<time>2015-07-04T08:59:27Z</time>
				<extensions>
				</extensions>
			</trkpt>
			<trkpt lat="-27.714980" lon="153.208866">
				<ele>-2.815</ele>
				<time>2015-07-04T08:59:28Z</time>
				<extensions>
				</extensions>
			</trkpt>
			<trkpt lat="-27.714739" lon="153.208725">
				<ele>-1.375</ele>
				<time>2015-07-04T08:59:29Z</time>
				<extensions>
				</extensions>
			</trkpt>
			<trkpt lat="-27.714508" lon="153.208587">
				<ele>-0.284</ele>
				<time>2015-07-04T08:59:30Z</time>
				<extensions>
				</extensions>
			</trkpt>
			<trkpt lat="-27.714264" lon="153.208427">
				<ele>0.106</ele>
				<time>2015-07-04T08:59:31Z</time>
				<extensions>
				</extensions>
			</trkpt>
			<trkpt lat="-27.714023" lon="153.208288">
				<ele>0.106</ele>
				<time>2015-07-04T08:59:32Z</time>
				<extensions>
				</extensions>
			</trkpt>
			<trkpt lat="-27.713790" lon="153.208143">
				<ele>-0.193</ele>
				<time>2015-07-04T08:59:33Z</time>
				<extensions>
				</extensions>
			</trkpt>
			<trkpt lat="-27.713562" lon="153.208002">
				<ele>-1.018</ele>
				<time>2015-07-04T08:59:34Z</time>
				<extensions>
				</extensions>
			</trkpt>
			<trkpt lat="-27.713334" lon="153.207876">
				<ele>-1.975</ele>
				<time>2015-07-04T08:59:35Z</time>
				<extensions>
				</extensions>
			</trkpt>
			<trkpt lat="-27.713121" lon="153.207758">
				<ele>-0.919</ele>
				<time>2015-07-04T08:59:36Z</time>
				<extensions>
				</extensions>
			</trkpt>
			<trkpt lat="-27.712903" lon="153.207639">
				<ele>-1.243</ele>
				<time>2015-07-04T08:59:37Z</time>
				<extensions>
				</extensions>
			</trkpt>
			<trkpt lat="-27.712683" lon="153.207515">
				<ele>-0.382</ele>
				<time>2015-07-04T08:59:38Z</time>
				<extensions>
				</extensions>
			</trkpt>
			<trkpt lat="-27.712465" lon="153.207396">
				<ele>-0.178</ele>
				<time>2015-07-04T08:59:39Z</time>
				<extensions>
				</extensions>
			</trkpt>
			<trkpt lat="-27.712245" lon="153.207270">
				<ele>0.845</ele>
				<time>2015-07-04T08:59:40Z</time>
				<extensions>
				</extensions>
			</trkpt>
			<trkpt lat="-27.712010" lon="153.207141">
				<ele>1.836</ele>
				<time>2015-07-04T08:59:41Z</time>
				<extensions>
				</extensions>
			</trkpt>
			<trkpt lat="-27.711789" lon="153.207028">
				<ele>4.469</ele>
				<time>2015-07-04T08:59:42Z</time>
				<extensions>
				</extensions>
			</trkpt>
			<trkpt lat="-27.711561" lon="153.206904">
				<ele>3.523</ele>
				<time>2015-07-04T08:59:43Z</time>
				<extensions>
				</extensions>
			</trkpt>
			<trkpt lat="-27.711338" lon="153.206766">
				<ele>3.516</ele>
				<time>2015-07-04T08:59:44Z</time>
				<extensions>
				</extensions>
			</trkpt>
			<trkpt lat="-27.711114" lon="153.206628">
				<ele>4.087</ele>
				<time>2015-07-04T08:59:45Z</time>
				<extensions>
				</extensions>
			</trkpt>
			<trkpt lat="-27.710892" lon="153.206507">
				<ele>6.351</ele>
				<time>2015-07-04T08:59:46Z</time>
				<extensions>
				</extensions>
			</trkpt>
			<trkpt lat="-27.710670" lon="153.206384">
				<ele>6.608</ele>
				<time>2015-07-04T08:59:47Z</time>
				<extensions>
				</extensions>
			</trkpt>
			<trkpt lat="-27.710447" lon="153.206255">
				<ele>6.445</ele>
				<time>2015-07-04T08:59:48Z</time>
				<extensions>
				</extensions>
			</trkpt>
			<trkpt lat="-27.710230" lon="153.206130">
				<ele>7.291</ele>
				<time>2015-07-04T08:59:49Z</time>
				<extensions>
				</extensions>
			</trkpt>
			<trkpt lat="-27.710014" lon="153.205995">
				<ele>6.852</ele>
				<time>2015-07-04T08:59:50Z</time>
				<extensions>
				</extensions>
			</trkpt>
			<trkpt lat="-27.709788" lon="153.205859">
				<ele>9.190</ele>
				<time>2015-07-04T08:59:51Z</time>
				<extensions>
				</extensions>
			</trkpt>
			<trkpt lat="-27.709563" lon="153.205718">
				<ele>10.722</ele>
				<time>2015-07-04T08:59:52Z</time>
				<extensions>
				</extensions>
			</trkpt>
			<trkpt lat="-27.709344" lon="153.205580">
				<ele>10.366</ele>
				<time>2015-07-04T08:59:53Z</time>
				<extensions>
				</extensions>
			</trkpt>
			<trkpt lat="-27.709125" lon="153.205446">
				<ele>10.018</ele>
				<time>2015-07-04T08:59:54Z</time>
				<extensions>
				</extensions>
			</trkpt>
			<trkpt lat="-27.708901" lon="153.205302">
				<ele>10.188</ele>
				<time>2015-07-04T08:59:55Z</time>
				<extensions>
				</extensions>
			</trkpt>
			<trkpt lat="-27.708686" lon="153.205173">
				<ele>11.920</ele>
				<time>2015-07-04T08:59:56Z</time>
				<extensions>
				</extensions>
			</trkpt>
			<trkpt lat="-27.708467" lon="153.205034">
				<ele>13.324</ele>
				<time>2015-07-04T08:59:57Z</time>
				<extensions>
				</extensions>
			</trkpt>
			<trkpt lat="-27.708244" lon="153.204903">
				<ele>15.027</ele>
				<time>2015-07-04T08:59:58Z</time>
				<extensions>
				</extensions>
			</trkpt>
			<trkpt lat="-27.708022" lon="153.204770">
				<ele>14.951</ele>
				<time>2015-07-04T08:59:59Z</time>
				<extensions>
				</extensions>
			</trkpt>
			<trkpt lat="-27.707806" lon="153.204625">
				<ele>16.442</ele>
				<time>2015-07-04T09:00:00Z</time>
				<extensions>
				</extensions>
			</trkpt>
			<trkpt lat="-27.707591" lon="153.204498">
				<ele>16.285</ele>
				<time>2015-07-04T09:00:01Z</time>
				<extensions>
				</extensions>
			</trkpt>
			<trkpt lat="-27.707382" lon="153.204368">
				<ele>16.003</ele>
				<time>2015-07-04T09:00:02Z</time>
				<extensions>
				</extensions>
			</trkpt>
			<trkpt lat="-27.707173" lon="153.204233">
				<ele>14.512</ele>
				<time>2015-07-04T09:00:03Z</time>
				<extensions>
				</extensions>
			</trkpt>
			<trkpt lat="-27.706959" lon="153.204087">
				<ele>14.596</ele>
				<time>2015-07-04T09:00:04Z</time>
				<extensions>
				</extensions>
			</trkpt>
			<trkpt lat="-27.706744" lon="153.203940">
				<ele>14.699</ele>
				<time>2015-07-04T09:00:05Z</time>
				<extensions>
				</extensions>
			</trkpt>
			<trkpt lat="-27.706536" lon="153.203782">
				<ele>13.165</ele>
				<time>2015-07-04T09:00:06Z</time>
				<extensions>
				</extensions>
			</trkpt>
			<trkpt lat="-27.706335" lon="153.203633">
				<ele>14.865</ele>
				<time>2015-07-04T09:00:07Z</time>
				<extensions>
				</extensions>
			</trkpt>
			<trkpt lat="-27.706136" lon="153.203466">
				<ele>14.030</ele>
				<time>2015-07-04T09:00:08Z</time>
				<extensions>
				</extensions>
			</trkpt>
			<trkpt lat="-27.705944" lon="153.203295">
				<ele>12.220</ele>
				<time>2015-07-04T09:00:09Z</time>
				<extensions>
				</extensions>
			</trkpt>
			<trkpt lat="-27.705754" lon="153.203114">
				<ele>12.613</ele>
				<time>2015-07-04T09:00:10Z</time>
				<extensions>
				</extensions>
			</trkpt>
			<trkpt lat="-27.705566" lon="153.202927">
				<ele>13.990</ele>
				<time>2015-07-04T09:00:11Z</time>
				<extensions>
				</extensions>
			</trkpt>
			<trkpt lat="-27.705376" lon="153.202731">
				<ele>17.103</ele>
				<time>2015-07-04T09:00:12Z</time>
				<extensions>
				</extensions>
			</trkpt>
			<trkpt lat="-27.705195" lon="153.202535">
				<ele>15.401</ele>
				<time>2015-07-04T09:00:13Z</time>
				<extensions>
				</extensions>
			</trkpt>
			<trkpt lat="-27.705024" lon="153.202340">
				<ele>14.639</ele>
				<time>2015-07-04T09:00:14Z</time>
				<extensions>
				</extensions>
			</trkpt>
			<trkpt lat="-27.704843" lon="153.202138">
				<ele>13.647</ele>
				<time>2015-07-04T09:00:15Z</time>
				<extensions>
				</extensions>
			</trkpt>
			<trkpt lat="-27.704678" lon="153.201946">
				<ele>14.344</ele>
				<time>2015-07-04T09:00:16Z</time>
				<extensions>
				</extensions>
			</trkpt>
			<trkpt lat="-27.704498" lon="153.201747">
				<ele>12.506</ele>
				<time>2015-07-04T09:00:17Z</time>
				<extensions>
				</extensions>
			</trkpt>
			<trkpt lat="-27.704330" lon="153.201552">
				<ele>12.866</ele>
				<time>2015-07-04T09:00:18Z</time>
				<extensions>
				</extensions>
			</trkpt>
			<trkpt lat="-27.704161" lon="153.201357">
				<ele>11.390</ele>
				<time>2015-07-04T09:00:19Z</time>
				<extensions>
				</extensions>
			</trkpt>
			<trkpt lat="-27.703986" lon="153.201155">
				<ele>11.436</ele>
				<time>2015-07-04T09:00:20Z</time>
				<extensions>
				</extensions>
			</trkpt>
			<trkpt lat="-27.703810" lon="153.200956">
				<ele>14.472</ele>
				<time>2015-07-04T09:00:21Z</time>
				<extensions>
				</extensions>
			</trkpt>
			<trkpt lat="-27.703644" lon="153.200758">
				<ele>13.306</ele>
				<time>2015-07-04T09:00:22Z</time>
				<extensions>
				</extensions>
			</trkpt>
			<trkpt lat="-27.703470" lon="153.200559">
				<ele>12.119</ele>
				<time>2015-07-04T09:00:23Z</time>
				<extensions>
				</extensions>
			</trkpt>
			<trkpt lat="-27.703295" lon="153.200360">
				<ele>10.545</ele>
				<time>2015-07-04T09:00:24Z</time>
				<extensions>
				</extensions>
			</trkpt>
			<trkpt lat="-27.703123" lon="153.200162">
				<ele>9.391</ele>
				<time>2015-07-04T09:00:25Z</time>
				<extensions>
				</extensions>
			</trkpt>
			<trkpt lat="-27.702941" lon="153.199962">
				<ele>9.820</ele>
				<time>2015-07-04T09:00:26Z</time>
				<extensions>
				</extensions>
			</trkpt>
			<trkpt lat="-27.702756" lon="153.199760">
				<ele>9.348</ele>
				<time>2015-07-04T09:00:27Z</time>
				<extensions>
				</extensions>
			</trkpt>
			<trkpt lat="-27.702563" lon="153.199553">
				<ele>9.462</ele>
				<time>2015-07-04T09:00:28Z</time>
				<extensions>
				</extensions>
			</trkpt>
			<trkpt lat="-27.702370" lon="153.199346">
				<ele>8.377</ele>
				<time>2015-07-04T09:00:29Z</time>
				<extensions>
				</extensions>
			</trkpt>
			<trkpt lat="-27.702188" lon="153.199137">
				<ele>8.639</ele>
				<time>2015-07-04T09:00:30Z</time>
				<extensions>
				</extensions>
			</trkpt>
			<trkpt lat="-27.702013" lon="153.198933">
				<ele>7.989</ele>
				<time>2015-07-04T09:00:31Z</time>
				<extensions>
				</extensions>
			</trkpt>
			<trkpt lat="-27.701840" lon="153.198734">
				<ele>5.727</ele>
				<time>2015-07-04T09:00:32Z</time>
				<extensions>
				</extensions>
			</trkpt>
			<trkpt lat="-27.701676" lon="153.198536">
				<ele>4.319</ele>
				<time>2015-07-04T09:00:33Z</time>
				<extensions>
				</extensions>
			</trkpt>
			<trkpt lat="-27.701490" lon="153.198324">
				<ele>2.478</ele>
				<time>2015-07-04T09:00:34Z</time>
				<extensions>
				</extensions>
			</trkpt>
			<trkpt lat="-27.701306" lon="153.198116">
				<ele>4.396</ele>
				<time>2015-07-04T09:00:35Z</time>
				<extensions>
				</extensions>
			</trkpt>
			<trkpt lat="-27.701121" lon="153.197914">
				<ele>4.396</ele>
				<time>2015-07-04T09:00:36Z</time>
				<extensions>
				</extensions>
			</trkpt>
			<trkpt lat="-27.700946" lon="153.197721">
				<ele>3.804</ele>
				<time>2015-07-04T09:00:37Z</time>
				<extensions>
				</extensions>
			</trkpt>
			<trkpt lat="-27.700758" lon="153.197540">
				<ele>2.647</ele>
				<time>2015-07-04T09:00:38Z</time>
				<extensions>
				</extensions>
			</trkpt>
			<trkpt lat="-27.700576" lon="153.197364">
				<ele>2.296</ele>
				<time>2015-07-04T09:00:39Z</time>
				<extensions>
				</extensions>
			</trkpt>
			<trkpt lat="-27.700388" lon="153.197199">
				<ele>1.890</ele>
				<time>2015-07-04T09:00:40Z</time>
				<extensions>
				</extensions>
			</trkpt>
			<trkpt lat="-27.700187" lon="153.197039">
				<ele>2.821</ele>
				<time>2015-07-04T09:00:41Z</time>
				<extensions>
				</extensions>
			</trkpt>
			<trkpt lat="-27.699978" lon="153.196875">
				<ele>2.212</ele>
				<time>2015-07-04T09:00:42Z</time>
				<extensions>
				</extensions>
			</trkpt>
			<trkpt lat="-27.699772" lon="153.196722">
				<ele>2.412</ele>
				<time>2015-07-04T09:00:43Z</time>
				<extensions>
				</extensions>
			</trkpt>
			<trkpt lat="-27.699555" lon="153.196577">
				<ele>3.383</ele>
				<time>2015-07-04T09:00:44Z</time>
				<extensions>
				</extensions>
			</trkpt>
			<trkpt lat="-27.699341" lon="153.196440">
				<ele>0.808</ele>
				<time>2015-07-04T09:00:45Z</time>
				<extensions>
				</extensions>
			</trkpt>
			<trkpt lat="-27.699130" lon="153.196313">
				<ele>0.180</ele>
				<time>2015-07-04T09:00:46Z</time>
				<extensions>
				</extensions>
			</trkpt>
			<trkpt lat="-27.698915" lon="153.196199">
				<ele>-0.206</ele>
				<time>2015-07-04T09:00:47Z</time>
				<extensions>
				</extensions>
			</trkpt>
			<trkpt lat="-27.698694" lon="153.196092">
				<ele>1.201</ele>
				<time>2015-07-04T09:00:48Z</time>
				<extensions>
				</extensions>
			</trkpt>
			<trkpt lat="-27.698475" lon="153.195992">
				<ele>1.278</ele>
				<time>2015-07-04T09:00:49Z</time>
				<extensions>
				</extensions>
			</trkpt>
			<trkpt lat="-27.698251" lon="153.195892">
				<ele>0.060</ele>
				<time>2015-07-04T09:00:50Z</time>
				<extensions>
				</extensions>
			</trkpt>
			<trkpt lat="-27.698031" lon="153.195789">
				<ele>0.263</ele>
				<time>2015-07-04T09:00:51Z</time>
				<extensions>
				</extensions>
			</trkpt>
			<trkpt lat="-27.697798" lon="153.195682">
				<ele>1.141</ele>
				<time>2015-07-04T09:00:52Z</time>
				<extensions>
				</extensions>
			</trkpt>
			<trkpt lat="-27.697564" lon="153.195581">
				<ele>-0.321</ele>
				<time>2015-07-04T09:00:53Z</time>
				<extensions>
				</extensions>
			</trkpt>
			<trkpt lat="-27.697340" lon="153.195483">
				<ele>-0.317</ele>
				<time>2015-07-04T09:00:54Z</time>
				<extensions>
				</extensions>
			</trkpt>
			<trkpt lat="-27.697135" lon="153.195389">
				<ele>0.462</ele>
				<time>2015-07-04T09:00:55Z</time>
				<extensions>
				</extensions>
			</trkpt>
			<trkpt lat="-27.696924" lon="153.195299">
				<ele>-0.467</ele>
				<time>2015-07-04T09:00:56Z</time>
				<extensions>
				</extensions>
			</trkpt>
			<trkpt lat="-27.696720" lon="153.195204">
				<ele>0.056</ele>
				<time>2015-07-04T09:00:57Z</time>
				<extensions>
				</extensions>
			</trkpt>
			<trkpt lat="-27.696518" lon="153.195111">
				<ele>-1.937</ele>
				<time>2015-07-04T09:00:58Z</time>
				<extensions>
				</extensions>
			</trkpt>
			<trkpt lat="-27.696306" lon="153.195014">
				<ele>-0.061</ele>
				<time>2015-07-04T09:00:59Z</time>
				<extensions>
				</extensions>
			</trkpt>
			<trkpt lat="-27.696093" lon="153.194926">
				<ele>1.141</ele>
				<time>2015-07-04T09:01:00Z</time>
				<extensions>
				</extensions>
			</trkpt>
			<trkpt lat="-27.695869" lon="153.194831">
				<ele>0.930</ele>
				<time>2015-07-04T09:01:01Z</time>
				<extensions>
				</extensions>
			</trkpt>
			<trkpt lat="-27.695643" lon="153.194734">
				<ele>3.639</ele>
				<time>2015-07-04T09:01:02Z</time>
				<extensions>
				</extensions>
			</trkpt>
			<trkpt lat="-27.695417" lon="153.194639">
				<ele>1.702</ele>
				<time>2015-07-04T09:01:03Z</time>
				<extensions>
				</extensions>
			</trkpt>
			<trkpt lat="-27.695191" lon="153.194547">
				<ele>0.237</ele>
				<time>2015-07-04T09:01:04Z</time>
				<extensions>
				</extensions>
			</trkpt>
			<trkpt lat="-27.694964" lon="153.194449">
				<ele>1.138</ele>
				<time>2015-07-04T09:01:05Z</time>
				<extensions>
				</extensions>
			</trkpt>
			<trkpt lat="-27.694731" lon="153.194340">
				<ele>0.368</ele>
				<time>2015-07-04T09:01:06Z</time>
				<extensions>
				</extensions>
			</trkpt>
			<trkpt lat="-27.694494" lon="153.194229">
				<ele>1.567</ele>
				<time>2015-07-04T09:01:07Z</time>
				<extensions>
				</extensions>
			</trkpt>
			<trkpt lat="-27.694252" lon="153.194111">
				<ele>1.845</ele>
				<time>2015-07-04T09:01:08Z</time>
				<extensions>
				</extensions>
			</trkpt>
			<trkpt lat="-27.694018" lon="153.193980">
				<ele>1.256</ele>
				<time>2015-07-04T09:01:09Z</time>
				<extensions>
				</extensions>
			</trkpt>
			<trkpt lat="-27.693785" lon="153.193865">
				<ele>0.490</ele>
				<time>2015-07-04T09:01:10Z</time>
				<extensions>
				</extensions>
			</trkpt>
			<trkpt lat="-27.693549" lon="153.193735">
				<ele>0.676</ele>
				<time>2015-07-04T09:01:11Z</time>
				<extensions>
				</extensions>
			</trkpt>
			<trkpt lat="-27.693319" lon="153.193615">
				<ele>0.758</ele>
				<time>2015-07-04T09:01:12Z</time>
				<extensions>
				</extensions>
			</trkpt>
			<trkpt lat="-27.693098" lon="153.193495">
				<ele>-0.425</ele>
				<time>2015-07-04T09:01:13Z</time>
				<extensions>
				</extensions>
			</trkpt>
			<trkpt lat="-27.692872" lon="153.193371">
				<ele>0.222</ele>
				<time>2015-07-04T09:01:14Z</time>
				<extensions>
				</extensions>
			</trkpt>
			<trkpt lat="-27.692648" lon="153.193243">
				<ele>-0.107</ele>
				<time>2015-07-04T09:01:15Z</time>
				<extensions>
				</extensions>
			</trkpt>
			<trkpt lat="-27.692417" lon="153.193116">
				<ele>-0.374</ele>
				<time>2015-07-04T09:01:16Z</time>
				<extensions>
				</extensions>
			</trkpt>
			<trkpt lat="-27.692188" lon="153.192989">
				<ele>1.643</ele>
				<time>2015-07-04T09:01:17Z</time>
				<extensions>
				</extensions>
			</trkpt>
			<trkpt lat="-27.691970" lon="153.192850">
				<ele>5.752</ele>
				<time>2015-07-04T09:01:18Z</time>
				<extensions>
				</extensions>
			</trkpt>
			<trkpt lat="-27.691749" lon="153.192715">
				<ele>2.307</ele>
				<time>2015-07-04T09:01:19Z</time>
				<extensions>
				</extensions>
			</trkpt>
			<trkpt lat="-27.691529" lon="153.192581">
				<ele>5.322</ele>
				<time>2015-07-04T09:01:20Z</time>
				<extensions>
				</extensions>
			</trkpt>
			<trkpt lat="-27.691316" lon="153.192455">
				<ele>2.935</ele>
				<time>2015-07-04T09:01:21Z</time>
				<extensions>
				</extensions>
			</trkpt>
			<trkpt lat="-27.691101" lon="153.192321">
				<ele>3.555</ele>
				<time>2015-07-04T09:01:22Z</time>
				<extensions>
				</extensions>
			</trkpt>
			<trkpt lat="-27.690883" lon="153.192190">
				<ele>3.721</ele>
				<time>2015-07-04T09:01:23Z</time>
				<extensions>
				</extensions>
			</trkpt>
			<trkpt lat="-27.690672" lon="153.192059">
				<ele>4.075</ele>
				<time>2015-07-04T09:01:24Z</time>
				<extensions>
				</extensions>
			</trkpt>
			<trkpt lat="-27.690461" lon="153.191939">
				<ele>4.201</ele>
				<time>2015-07-04T09:01:25Z</time>
				<extensions>
				</extensions>
			</trkpt>
			<trkpt lat="-27.690247" lon="153.191827">
				<ele>4.748</ele>
				<time>2015-07-04T09:01:26Z</time>
				<extensions>
				</extensions>
			</trkpt>
			<trkpt lat="-27.690032" lon="153.191708">
				<ele>4.324</ele>
				<time>2015-07-04T09:01:27Z</time>
				<extensions>
				</extensions>
			</trkpt>
			<trkpt lat="-27.689821" lon="153.191599">
				<ele>3.614</ele>
				<time>2015-07-04T09:01:28Z</time>
				<extensions>
				</extensions>
			</trkpt>
			<trkpt lat="-27.689613" lon="153.191494">
				<ele>3.197</ele>
				<time>2015-07-04T09:01:29Z</time>
				<extensions>
				</extensions>
			</trkpt>
			<trkpt lat="-27.689401" lon="153.191376">
				<ele>4.459</ele>
				<time>2015-07-04T09:01:30Z</time>
				<extensions>
				</extensions>
			</trkpt>
			<trkpt lat="-27.689184" lon="153.191258">
				<ele>2.722</ele>
				<time>2015-07-04T09:01:31Z</time>
				<extensions>
				</extensions>
			</trkpt>
			<trkpt lat="-27.688970" lon="153.191142">
				<ele>5.839</ele>
				<time>2015-07-04T09:01:32Z</time>
				<extensions>
				</extensions>
			</trkpt>
			<trkpt lat="-27.688756" lon="153.191019">
				<ele>5.456</ele>
				<time>2015-07-04T09:01:33Z</time>
				<extensions>
				</extensions>
			</trkpt>
			<trkpt lat="-27.688536" lon="153.190910">
				<ele>4.141</ele>
				<time>2015-07-04T09:01:34Z</time>
				<extensions>
				</extensions>
			</trkpt>
			<trkpt lat="-27.688317" lon="153.190794">
				<ele>4.631</ele>
				<time>2015-07-04T09:01:35Z</time>
				<extensions>
				</extensions>
			</trkpt>
			<trkpt lat="-27.688092" lon="153.190673">
				<ele>5.167</ele>
				<time>2015-07-04T09:01:36Z</time>
				<extensions>
				</extensions>
			</trkpt>
			<trkpt lat="-27.687881" lon="153.190559">
				<ele>4.226</ele>
				<time>2015-07-04T09:01:37Z</time>
				<extensions>
				</extensions>
			</trkpt>
			<trkpt lat="-27.687659" lon="153.190442">
				<ele>5.659</ele>
				<time>2015-07-04T09:01:38Z</time>
				<extensions>
				</extensions>
			</trkpt>
			<trkpt lat="-27.687439" lon="153.190327">
				<ele>5.659</ele>
				<time>2015-07-04T09:01:39Z</time>
				<extensions>
				</extensions>
			</trkpt>
			<trkpt lat="-27.687228" lon="153.190222">
				<ele>5.264</ele>
				<time>2015-07-04T09:01:40Z</time>
				<extensions>
				</extensions>
			</trkpt>
			<trkpt lat="-27.687010" lon="153.190109">
				<ele>5.117</ele>
				<time>2015-07-04T09:01:41Z</time>
				<extensions>
				</extensions>
			</trkpt>
			<trkpt lat="-27.686787" lon="153.189988">
				<ele>4.566</ele>
				<time>2015-07-04T09:01:42Z</time>
				<extensions>
				</extensions>
			</trkpt>
			<trkpt lat="-27.686559" lon="153.189865">
				<ele>5.555</ele>
				<time>2015-07-04T09:01:43Z</time>
				<extensions>
				</extensions>
			</trkpt>
			<trkpt lat="-27.686330" lon="153.189744">
				<ele>5.583</ele>
				<time>2015-07-04T09:01:44Z</time>
				<extensions>
				</extensions>
			</trkpt>
			<trkpt lat="-27.686099" lon="153.189629">
				<ele>5.120</ele>
				<time>2015-07-04T09:01:45Z</time>
				<extensions>
				</extensions>
			</trkpt>
			<trkpt lat="-27.685875" lon="153.189510">
				<ele>3.916</ele>
				<time>2015-07-04T09:01:46Z</time>
				<extensions>
				</extensions>
			</trkpt>
			<trkpt lat="-27.685651" lon="153.189387">
				<ele>3.218</ele>
				<time>2015-07-04T09:01:47Z</time>
				<extensions>
				</extensions>
			</trkpt>
			<trkpt lat="-27.685437" lon="153.189270">
				<ele>2.473</ele>
				<time>2015-07-04T09:01:48Z</time>
				<extensions>
				</extensions>
			</trkpt>
			<trkpt lat="-27.685208" lon="153.189150">
				<ele>2.961</ele>
				<time>2015-07-04T09:01:49Z</time>
				<extensions>
				</extensions>
			</trkpt>
			<trkpt lat="-27.684986" lon="153.189031">
				<ele>1.257</ele>
				<time>2015-07-04T09:01:50Z</time>
				<extensions>
				</extensions>
			</trkpt>
			<trkpt lat="-27.684753" lon="153.188908">
				<ele>1.427</ele>
				<time>2015-07-04T09:01:51Z</time>
				<extensions>
				</extensions>
			</trkpt>
			<trkpt lat="-27.684515" lon="153.188786">
				<ele>1.956</ele>
				<time>2015-07-04T09:01:52Z</time>
				<extensions>
				</extensions>
			</trkpt>
			<trkpt lat="-27.684279" lon="153.188663">
				<ele>4.101</ele>
				<time>2015-07-04T09:01:53Z</time>
				<extensions>
				</extensions>
			</trkpt>
			<trkpt lat="-27.684039" lon="153.188539">
				<ele>2.904</ele>
				<time>2015-07-04T09:01:54Z</time>
				<extensions>
				</extensions>
			</trkpt>
			<trkpt lat="-27.683816" lon="153.188413">
				<ele>2.310</ele>
				<time>2015-07-04T09:01:55Z</time>
				<extensions>
				</extensions>
			</trkpt>
			<trkpt lat="-27.683584" lon="153.188304">
				<ele>2.186</ele>
				<time>2015-07-04T09:01:56Z</time>
				<extensions>
				</extensions>
			</trkpt>
			<trkpt lat="-27.683349" lon="153.188194">
				<ele>0.444</ele>
				<time>2015-07-04T09:01:57Z</time>
				<extensions>
				</extensions>
			</trkpt>
			<trkpt lat="-27.683120" lon="153.188096">
				<ele>1.627</ele>
				<time>2015-07-04T09:01:58Z</time>
				<extensions>
				</extensions>
			</trkpt>
			<trkpt lat="-27.682895" lon="153.187987">
				<ele>2.640</ele>
				<time>2015-07-04T09:01:59Z</time>
				<extensions>
				</extensions>
			</trkpt>
			<trkpt lat="-27.682655" lon="153.187876">
				<ele>4.354</ele>
				<time>2015-07-04T09:02:00Z</time>
				<extensions>
				</extensions>
			</trkpt>
			<trkpt lat="-27.682421" lon="153.187738">
				<ele>2.122</ele>
				<time>2015-07-04T09:02:01Z</time>
				<extensions>
				</extensions>
			</trkpt>
			<trkpt lat="-27.682182" lon="153.187616">
				<ele>3.784</ele>
				<time>2015-07-04T09:02:02Z</time>
				<extensions>
				</extensions>
			</trkpt>
			<trkpt lat="-27.681947" lon="153.187493">
				<ele>0.816</ele>
				<time>2015-07-04T09:02:03Z</time>
				<extensions>
				</extensions>
			</trkpt>
			<trkpt lat="-27.681720" lon="153.187369">
				<ele>2.130</ele>
				<time>2015-07-04T09:02:04Z</time>
				<extensions>
				</extensions>
			</trkpt>
			<trkpt lat="-27.681497" lon="153.187252">
				<ele>1.548</ele>
				<time>2015-07-04T09:02:05Z</time>
				<extensions>
				</extensions>
			</trkpt>
			<trkpt lat="-27.681286" lon="153.187141">
				<ele>2.833</ele>
				<time>2015-07-04T09:02:06Z</time>
				<extensions>
				</extensions>
			</trkpt>
			<trkpt lat="-27.681078" lon="153.187015">
				<ele>1.219</ele>
				<time>2015-07-04T09:02:07Z</time>
				<extensions>
				</extensions>
			</trkpt>
			<trkpt lat="-27.680852" lon="153.186893">
				<ele>1.784</ele>
				<time>2015-07-04T09:02:08Z</time>
				<extensions>
				</extensions>
			</trkpt>
			<trkpt lat="-27.680624" lon="153.186777">
				<ele>4.651</ele>
				<time>2015-07-04T09:02:09Z</time>
				<extensions>
				</extensions>
			</trkpt>
			<trkpt lat="-27.680395" lon="153.186656">
				<ele>4.427</ele>
				<time>2015-07-04T09:02:10Z</time>
				<extensions>
				</extensions>
			</trkpt>
			<trkpt lat="-27.680175" lon="153.186540">
				<ele>5.314</ele>
				<time>2015-07-04T09:02:11Z</time>
				<extensions>
				</extensions>
			</trkpt>
			<trkpt lat="-27.679946" lon="153.186412">
				<ele>2.861</ele>
				<time>2015-07-04T09:02:12Z</time>
				<extensions>
				</extensions>
			</trkpt>
			<trkpt lat="-27.679717" lon="153.186295">
				<ele>5.482</ele>
				<time>2015-07-04T09:02:13Z</time>
				<extensions>
				</extensions>
			</trkpt>
			<trkpt lat="-27.679485" lon="153.186155">
				<ele>5.499</ele>
				<time>2015-07-04T09:02:14Z</time>
				<extensions>
				</extensions>
			</trkpt>
			<trkpt lat="-27.679245" lon="153.186035">
				<ele>7.697</ele>
				<time>2015-07-04T09:02:15Z</time>
				<extensions>
				</extensions>
			</trkpt>
			<trkpt lat="-27.679013" lon="153.185895">
				<ele>8.407</ele>
				<time>2015-07-04T09:02:16Z</time>
				<extensions>
				</extensions>
			</trkpt>
			<trkpt lat="-27.678777" lon="153.185770">
				<ele>9.516</ele>
				<time>2015-07-04T09:02:17Z</time>
				<extensions>
				</extensions>
			</trkpt>
			<trkpt lat="-27.678549" lon="153.185650">
				<ele>10.475</ele>
				<time>2015-07-04T09:02:18Z</time>
				<extensions>
				</extensions>
			</trkpt>
			<trkpt lat="-27.678325" lon="153.185534">
				<ele>10.254</ele>
				<time>2015-07-04T09:02:19Z</time>
				<extensions>
				</extensions>
			</trkpt>
			<trkpt lat="-27.678099" lon="153.185413">
				<ele>11.082</ele>
				<time>2015-07-04T09:02:20Z</time>
				<extensions>
				</extensions>
			</trkpt>
			<trkpt lat="-27.677864" lon="153.185300">
				<ele>11.298</ele>
				<time>2015-07-04T09:02:21Z</time>
				<extensions>
				</extensions>
			</trkpt>
			<trkpt lat="-27.677633" lon="153.185161">
				<ele>13.375</ele>
				<time>2015-07-04T09:02:22Z</time>
				<extensions>
				</extensions>
			</trkpt>
			<trkpt lat="-27.677417" lon="153.185030">
				<ele>12.149</ele>
				<time>2015-07-04T09:02:23Z</time>
				<extensions>
				</extensions>
			</trkpt>
			<trkpt lat="-27.677190" lon="153.184907">
				<ele>11.917</ele>
				<time>2015-07-04T09:02:24Z</time>
				<extensions>
				</extensions>
			</trkpt>
			<trkpt lat="-27.676966" lon="153.184780">
				<ele>13.276</ele>
				<time>2015-07-04T09:02:25Z</time>
				<extensions>
				</extensions>
			</trkpt>
			<trkpt lat="-27.676737" lon="153.184642">
				<ele>13.584</ele>
				<time>2015-07-04T09:02:26Z</time>
				<extensions>
				</extensions>
			</trkpt>
			<trkpt lat="-27.676525" lon="153.184517">
				<ele>12.276</ele>
				<time>2015-07-04T09:02:27Z</time>
				<extensions>
				</extensions>
			</trkpt>
			<trkpt lat="-27.676307" lon="153.184380">
				<ele>13.401</ele>
				<time>2015-07-04T09:02:28Z</time>
				<extensions>
				</extensions>
			</trkpt>
			<trkpt lat="-27.676083" lon="153.184233">
				<ele>14.135</ele>
				<time>2015-07-04T09:02:29Z</time>
				<extensions>
				</extensions>
			</trkpt>
			<trkpt lat="-27.675865" lon="153.184077">
				<ele>12.247</ele>
				<time>2015-07-04T09:02:30Z</time>
				<extensions>
				</extensions>
			</trkpt>
			<trkpt lat="-27.675657" lon="153.183927">
				<ele>10.745</ele>
				<time>2015-07-04T09:02:31Z</time>
				<extensions>
				</extensions>
			</trkpt>
			<trkpt lat="-27.675441" lon="153.183761">
				<ele>10.495</ele>
				<time>2015-07-04T09:02:32Z</time>
				<extensions>
				</extensions>
			</trkpt>
			<trkpt lat="-27.675243" lon="153.183601">
				<ele>8.999</ele>
				<time>2015-07-04T09:02:33Z</time>
				<extensions>
				</extensions>
			</trkpt>
			<trkpt lat="-27.675037" lon="153.183431">
				<ele>6.184</ele>
				<time>2015-07-04T09:02:34Z</time>
				<extensions>
				</extensions>
			</trkpt>
			<trkpt lat="-27.674839" lon="153.183257">
				<ele>6.780</ele>
				<time>2015-07-04T09:02:35Z</time>
				<extensions>
				</extensions>
			</trkpt>
			<trkpt lat="-27.674649" lon="153.183074">
				<ele>4.914</ele>
				<time>2015-07-04T09:02:36Z</time>
				<extensions>
				</extensions>
			</trkpt>
			<trkpt lat="-27.674453" lon="153.182891">
				<ele>4.430</ele>
				<time>2015-07-04T09:02:37Z</time>
				<extensions>
				</extensions>
			</trkpt>
			<trkpt lat="-27.674257" lon="153.182704">
				<ele>4.602</ele>
				<time>2015-07-04T09:02:38Z</time>
				<extensions>
				</extensions>
			</trkpt>
			<trkpt lat="-27.674062" lon="153.182508">
				<ele>6.579</ele>
				<time>2015-07-04T09:02:39Z</time>
				<extensions>
				</extensions>
			</trkpt>
			<trkpt lat="-27.673873" lon="153.182313">
				<ele>6.579</ele>
				<time>2015-07-04T09:02:40Z</time>
				<extensions>
				</extensions>
			</trkpt>
			<trkpt lat="-27.673683" lon="153.182128">
				<ele>6.579</ele>
				<time>2015-07-04T09:02:41Z</time>
				<extensions>
				</extensions>
			</trkpt>
			<trkpt lat="-27.673492" lon="153.181936">
				<ele>4.500</ele>
				<time>2015-07-04T09:02:42Z</time>
				<extensions>
				</extensions>
			</trkpt>
			<trkpt lat="-27.673310" lon="153.181753">
				<ele>3.124</ele>
				<time>2015-07-04T09:02:43Z</time>
				<extensions>
				</extensions>
			</trkpt>
			<trkpt lat="-27.673123" lon="153.181568">
				<ele>3.511</ele>
				<time>2015-07-04T09:02:44Z</time>
				<extensions>
				</extensions>
			</trkpt>
			<trkpt lat="-27.672933" lon="153.181382">
				<ele>3.294</ele>
				<time>2015-07-04T09:02:45Z</time>
				<extensions>
				</extensions>
			</trkpt>
			<trkpt lat="-27.672748" lon="153.181190">
				<ele>4.238</ele>
				<time>2015-07-04T09:02:46Z</time>
				<extensions>
				</extensions>
			</trkpt>
			<trkpt lat="-27.672556" lon="153.181001">
				<ele>3.184</ele>
				<time>2015-07-04T09:02:47Z</time>
				<extensions>
				</extensions>
			</trkpt>
			<trkpt lat="-27.672362" lon="153.180809">
				<ele>6.118</ele>
				<time>2015-07-04T09:02:48Z</time>
				<extensions>
				</extensions>
			</trkpt>
			<trkpt lat="-27.672173" lon="153.180617">
				<ele>6.835</ele>
				<time>2015-07-04T09:02:49Z</time>
				<extensions>
				</extensions>
			</trkpt>
			<trkpt lat="-27.671982" lon="153.180422">
				<ele>6.738</ele>
				<time>2015-07-04T09:02:50Z</time>
				<extensions>
				</extensions>
			</trkpt>
			<trkpt lat="-27.671790" lon="153.180234">
				<ele>6.569</ele>
				<time>2015-07-04T09:02:51Z</time>
				<extensions>
				</extensions>
			</trkpt>
			<trkpt lat="-27.671604" lon="153.180044">
				<ele>5.531</ele>
				<time>2015-07-04T09:02:52Z</time>
				<extensions>
				</extensions>
			</trkpt>
			<trkpt lat="-27.671422" lon="153.179858">
				<ele>7.633</ele>
				<time>2015-07-04T09:02:53Z</time>
				<extensions>
				</extensions>
			</trkpt>
			<trkpt lat="-27.671242" lon="153.179674">
				<ele>6.480</ele>
				<time>2015-07-04T09:02:54Z</time>
				<extensions>
				</extensions>
			</trkpt>
			<trkpt lat="-27.671055" lon="153.179485">
				<ele>5.775</ele>
				<time>2015-07-04T09:02:55Z</time>
				<extensions>
				</extensions>
			</trkpt>
			<trkpt lat="-27.670866" lon="153.179299">
				<ele>4.758</ele>
				<time>2015-07-04T09:02:56Z</time>
				<extensions>
				</extensions>
			</trkpt>
			<trkpt lat="-27.670684" lon="153.179108">
				<ele>4.398</ele>
				<time>2015-07-04T09:02:57Z</time>
				<extensions>
				</extensions>
			</trkpt>
			<trkpt lat="-27.670489" lon="153.178919">
				<ele>4.416</ele>
				<time>2015-07-04T09:02:58Z</time>
				<extensions>
				</extensions>
			</trkpt>
			<trkpt lat="-27.670315" lon="153.178732">
				<ele>5.188</ele>
				<time>2015-07-04T09:02:59Z</time>
				<extensions>
				</extensions>
			</trkpt>
			<trkpt lat="-27.670133" lon="153.178551">
				<ele>3.701</ele>
				<time>2015-07-04T09:03:00Z</time>
				<extensions>
				</extensions>
			</trkpt>
			<trkpt lat="-27.669953" lon="153.178367">
				<ele>4.218</ele>
				<time>2015-07-04T09:03:01Z</time>
				<extensions>
				</extensions>
			</trkpt>
			<trkpt lat="-27.669768" lon="153.178181">
				<ele>4.641</ele>
				<time>2015-07-04T09:03:02Z</time>
				<extensions>
				</extensions>
			</trkpt>
			<trkpt lat="-27.669583" lon="153.177991">
				<ele>5.996</ele>
				<time>2015-07-04T09:03:03Z</time>
				<extensions>
				</extensions>
			</trkpt>
			<trkpt lat="-27.669395" lon="153.177807">
				<ele>4.464</ele>
				<time>2015-07-04T09:03:04Z</time>
				<extensions>
				</extensions>
			</trkpt>
			<trkpt lat="-27.669207" lon="153.177620">
				<ele>5.370</ele>
				<time>2015-07-04T09:03:05Z</time>
				<extensions>
				</extensions>
			</trkpt>
			<trkpt lat="-27.669012" lon="153.177430">
				<ele>7.367</ele>
				<time>2015-07-04T09:03:06Z</time>
				<extensions>
				</extensions>
			</trkpt>
			<trkpt lat="-27.668821" lon="153.177241">
				<ele>6.960</ele>
				<time>2015-07-04T09:03:07Z</time>
				<extensions>
				</extensions>
			</trkpt>
			<trkpt lat="-27.668638" lon="153.177058">
				<ele>6.385</ele>
				<time>2015-07-04T09:03:08Z</time>
				<extensions>
				</extensions>
			</trkpt>
			<trkpt lat="-27.668457" lon="153.176872">
				<ele>5.517</ele>
				<time>2015-07-04T09:03:09Z</time>
				<extensions>
				</extensions>
			</trkpt>
			<trkpt lat="-27.668277" lon="153.176682">
				<ele>5.755</ele>
				<time>2015-07-04T09:03:10Z</time>
				<extensions>
				</extensions>
			</trkpt>
			<trkpt lat="-27.668086" lon="153.176495">
				<ele>6.061</ele>
				<time>2015-07-04T09:03:11Z</time>
				<extensions>
				</extensions>
			</trkpt>
			<trkpt lat="-27.667891" lon="153.176306">
				<ele>7.442</ele>
				<time>2015-07-04T09:03:12Z</time>
				<extensions>
				</extensions>
			</trkpt>
			<trkpt lat="-27.667704" lon="153.176118">
				<ele>6.145</ele>
				<time>2015-07-04T09:03:13Z</time>
				<extensions>
				</extensions>
			</trkpt>
			<trkpt lat="-27.667521" lon="153.175934">
				<ele>6.494</ele>
				<time>2015-07-04T09:03:14Z</time>
				<extensions>
				</extensions>
			</trkpt>
			<trkpt lat="-27.667328" lon="153.175741">
				<ele>4.828</ele>
				<time>2015-07-04T09:03:15Z</time>
				<extensions>
				</extensions>
			</trkpt>
			<trkpt lat="-27.667150" lon="153.175549">
				<ele>5.330</ele>
				<time>2015-07-04T09:03:16Z</time>
				<extensions>
				</extensions>
			</trkpt>
			<trkpt lat="-27.666958" lon="153.175359">
				<ele>4.753</ele>
				<time>2015-07-04T09:03:17Z</time>
				<extensions>
				</extensions>
			</trkpt>
			<trkpt lat="-27.666767" lon="153.175159">
				<ele>5.684</ele>
				<time>2015-07-04T09:03:18Z</time>
				<extensions>
				</extensions>
			</trkpt>
			<trkpt lat="-27.666578" lon="153.174961">
				<ele>4.782</ele>
				<time>2015-07-04T09:03:19Z</time>
				<extensions>
				</extensions>
			</trkpt>
			<trkpt lat="-27.666378" lon="153.174757">
				<ele>5.232</ele>
				<time>2015-07-04T09:03:20Z</time>
				<extensions>
				</extensions>
			</trkpt>
			<trkpt lat="-27.666186" lon="153.174558">
				<ele>5.818</ele>
				<time>2015-07-04T09:03:21Z</time>
				<extensions>
				</extensions>
			</trkpt>
			<trkpt lat="-27.665987" lon="153.174362">
				<ele>5.328</ele>
				<time>2015-07-04T09:03:22Z</time>
				<extensions>
				</extensions>
			</trkpt>
			<trkpt lat="-27.665792" lon="153.174159">
				<ele>7.306</ele>
				<time>2015-07-04T09:03:23Z</time>
				<extensions>
				</extensions>
			</trkpt>
			<trkpt lat="-27.665603" lon="153.173966">
				<ele>7.033</ele>
				<time>2015-07-04T09:03:24Z</time>
				<extensions>
				</extensions>
			</trkpt>
			<trkpt lat="-27.665412" lon="153.173772">
				<ele>8.567</ele>
				<time>2015-07-04T09:03:25Z</time>
				<extensions>
				</extensions>
			</trkpt>
			<trkpt lat="-27.665221" lon="153.173583">
				<ele>8.879</ele>
				<time>2015-07-04T09:03:26Z</time>
				<extensions>
				</extensions>
			</trkpt>
			<trkpt lat="-27.665036" lon="153.173391">
				<ele>10.549</ele>
				<time>2015-07-04T09:03:27Z</time>
				<extensions>
				</extensions>
			</trkpt>
			<trkpt lat="-27.664851" lon="153.173195">
				<ele>11.032</ele>
				<time>2015-07-04T09:03:28Z</time>
				<extensions>
				</extensions>
			</trkpt>
			<trkpt lat="-27.664655" lon="153.173006">
				<ele>11.966</ele>
				<time>2015-07-04T09:03:29Z</time>
				<extensions>
				</extensions>
			</trkpt>
			<trkpt lat="-27.664466" lon="153.172811">
				<ele>12.513</ele>
				<time>2015-07-04T09:03:30Z</time>
				<extensions>
				</extensions>
			</trkpt>
			<trkpt lat="-27.664282" lon="153.172612">
				<ele>12.787</ele>
				<time>2015-07-04T09:03:31Z</time>
				<extensions>
				</extensions>
			</trkpt>
			<trkpt lat="-27.664091" lon="153.172410">
				<ele>13.307</ele>
				<time>2015-07-04T09:03:32Z</time>
				<extensions>
				</extensions>
			</trkpt>
			<trkpt lat="-27.663894" lon="153.172221">
				<ele>14.467</ele>
				<time>2015-07-04T09:03:33Z</time>
				<extensions>
				</extensions>
			</trkpt>
			<trkpt lat="-27.663706" lon="153.172031">
				<ele>15.460</ele>
				<time>2015-07-04T09:03:34Z</time>
				<extensions>
				</extensions>
			</trkpt>
			<trkpt lat="-27.663519" lon="153.171839">
				<ele>14.484</ele>
				<time>2015-07-04T09:03:35Z</time>
				<extensions>
				</extensions>
			</trkpt>
			<trkpt lat="-27.663328" lon="153.171642">
				<ele>15.145</ele>
				<time>2015-07-04T09:03:36Z</time>
				<extensions>
				</extensions>
			</trkpt>
			<trkpt lat="-27.663138" lon="153.171447">
				<ele>14.632</ele>
				<time>2015-07-04T09:03:37Z</time>
				<extensions>
				</extensions>
			</trkpt>
			<trkpt lat="-27.662954" lon="153.171249">
				<ele>15.658</ele>
				<time>2015-07-04T09:03:38Z</time>
				<extensions>
				</extensions>
			</trkpt>
			<trkpt lat="-27.662766" lon="153.171056">
				<ele>15.059</ele>
				<time>2015-07-04T09:03:39Z</time>
				<extensions>
				</extensions>
			</trkpt>
			<trkpt lat="-27.662579" lon="153.170864">
				<ele>13.916</ele>
				<time>2015-07-04T09:03:40Z</time>
				<extensions>
				</extensions>
			</trkpt>
			<trkpt lat="-27.662391" lon="153.170667">
				<ele>14.328</ele>
				<time>2015-07-04T09:03:41Z</time>
				<extensions>
				</extensions>
			</trkpt>
			<trkpt lat="-27.662199" lon="153.170473">
				<ele>15.114</ele>
				<time>2015-07-04T09:03:42Z</time>
				<extensions>
				</extensions>
			</trkpt>
			<trkpt lat="-27.662000" lon="153.170280">
				<ele>14.943</ele>
				<time>2015-07-04T09:03:43Z</time>
				<extensions>
				</extensions>
			</trkpt>
			<trkpt lat="-27.661801" lon="153.170087">
				<ele>14.943</ele>
				<time>2015-07-04T09:03:44Z</time>
				<extensions>
				</extensions>
			</trkpt>
			<trkpt lat="-27.661603" lon="153.169899">
				<ele>12.879</ele>
				<time>2015-07-04T09:03:45Z</time>
				<extensions>
				</extensions>
			</trkpt>
			<trkpt lat="-27.661407" lon="153.169715">
				<ele>13.009</ele>
				<time>2015-07-04T09:03:46Z</time>
				<extensions>
				</extensions>
			</trkpt>
			<trkpt lat="-27.661206" lon="153.169526">
				<ele>12.481</ele>
				<time>2015-07-04T09:03:47Z</time>
				<extensions>
				</extensions>
			</trkpt>
			<trkpt lat="-27.661005" lon="153.169343">
				<ele>12.236</ele>
				<time>2015-07-04T09:03:48Z</time>
				<extensions>
				</extensions>
			</trkpt>
			<trkpt lat="-27.660806" lon="153.169163">
				<ele>10.226</ele>
				<time>2015-07-04T09:03:49Z</time>
				<extensions>
				</extensions>
			</trkpt>
			<trkpt lat="-27.660593" lon="153.168974">
				<ele>10.677</ele>
				<time>2015-07-04T09:03:50Z</time>
				<extensions>
				</extensions>
			</trkpt>
			<trkpt lat="-27.660381" lon="153.168797">
				<ele>9.230</ele>
				<time>2015-07-04T09:03:51Z</time>
				<extensions>
				</extensions>
			</trkpt>
			<trkpt lat="-27.660159" lon="153.168611">
				<ele>8.509</ele>
				<time>2015-07-04T09:03:52Z</time>
				<extensions>
				</extensions>
			</trkpt>
			<trkpt lat="-27.659959" lon="153.168442">
				<ele>7.175</ele>
				<time>2015-07-04T09:03:53Z</time>
				<extensions>
				</extensions>
			</trkpt>
			<trkpt lat="-27.659746" lon="153.168268">
				<ele>5.206</ele>
				<time>2015-07-04T09:03:54Z</time>
				<extensions>
				</extensions>
			</trkpt>
			<trkpt lat="-27.659537" lon="153.168094">
				<ele>4.442</ele>
				<time>2015-07-04T09:03:55Z</time>
				<extensions>
				</extensions>
			</trkpt>
			<trkpt lat="-27.659328" lon="153.167919">
				<ele>4.245</ele>
				<time>2015-07-04T09:03:56Z</time>
				<extensions>
				</extensions>
			</trkpt>
			<trkpt lat="-27.659118" lon="153.167747">
				<ele>2.773</ele>
				<time>2015-07-04T09:03:57Z</time>
				<extensions>
				</extensions>
			</trkpt>
			<trkpt lat="-27.658923" lon="153.167574">
				<ele>2.420</ele>
				<time>2015-07-04T09:03:58Z</time>
				<extensions>
				</extensions>
			</trkpt>
			<trkpt lat="-27.658716" lon="153.167404">
				<ele>1.600</ele>
				<time>2015-07-04T09:03:59Z</time>
				<extensions>
				</extensions>
			</trkpt>
			<trkpt lat="-27.658513" lon="153.167233">
				<ele>2.091</ele>
				<time>2015-07-04T09:04:00Z</time>
				<extensions>
				</extensions>
			</trkpt>
			<trkpt lat="-27.658304" lon="153.167054">
				<ele>4.427</ele>
				<time>2015-07-04T09:04:01Z</time>
				<extensions>
				</extensions>
			</trkpt>
			<trkpt lat="-27.658103" lon="153.166870">
				<ele>6.585</ele>
				<time>2015-07-04T09:04:02Z</time>
				<extensions>
				</extensions>
			</trkpt>
			<trkpt lat="-27.657895" lon="153.166694">
				<ele>5.348</ele>
				<time>2015-07-04T09:04:03Z</time>
				<extensions>
				</extensions>
			</trkpt>
			<trkpt lat="-27.657685" lon="153.166512">
				<ele>6.465</ele>
				<time>2015-07-04T09:04:04Z</time>
				<extensions>
				</extensions>
			</trkpt>
			<trkpt lat="-27.657484" lon="153.166331">
				<ele>4.447</ele>
				<time>2015-07-04T09:04:05Z</time>
				<extensions>
				</extensions>
			</trkpt>
			<trkpt lat="-27.657279" lon="153.166145">
				<ele>3.557</ele>
				<time>2015-07-04T09:04:06Z</time>
				<extensions>
				</extensions>
			</trkpt>
			<trkpt lat="-27.657089" lon="153.165969">
				<ele>1.155</ele>
				<time>2015-07-04T09:04:07Z</time>
				<extensions>
				</extensions>
			</trkpt>
			<trkpt lat="-27.656892" lon="153.165778">
				<ele>0.736</ele>
				<time>2015-07-04T09:04:08Z</time>
				<extensions>
				</extensions>
			</trkpt>
			<trkpt lat="-27.656698" lon="153.165593">
				<ele>1.106</ele>
				<time>2015-07-04T09:04:09Z</time>
				<extensions>
				</extensions>
			</trkpt>
			<trkpt lat="-27.656499" lon="153.165398">
				<ele>-0.088</ele>
				<time>2015-07-04T09:04:10Z</time>
				<extensions>
				</extensions>
			</trkpt>
			<trkpt lat="-27.656301" lon="153.165202">
				<ele>0.798</ele>
				<time>2015-07-04T09:04:11Z</time>
				<extensions>
				</extensions>
			</trkpt>
			<trkpt lat="-27.656110" lon="153.165015">
				<ele>1.767</ele>
				<time>2015-07-04T09:04:12Z</time>
				<extensions>
				</extensions>
			</trkpt>
			<trkpt lat="-27.655922" lon="153.164824">
				<ele>3.019</ele>
				<time>2015-07-04T09:04:13Z</time>
				<extensions>
				</extensions>
			</trkpt>
			<trkpt lat="-27.655727" lon="153.164626">
				<ele>3.977</ele>
				<time>2015-07-04T09:04:14Z</time>
				<extensions>
				</extensions>
			</trkpt>
			<trkpt lat="-27.655536" lon="153.164428">
				<ele>2.364</ele>
				<time>2015-07-04T09:04:15Z</time>
				<extensions>
				</extensions>
			</trkpt>
			<trkpt lat="-27.655352" lon="153.164230">
				<ele>4.376</ele>
				<time>2015-07-04T09:04:16Z</time>
				<extensions>
				</extensions>
			</trkpt>
			<trkpt lat="-27.655165" lon="153.164020">
				<ele>3.461</ele>
				<time>2015-07-04T09:04:17Z</time>
				<extensions>
				</extensions>
			</trkpt>
			<trkpt lat="-27.654978" lon="153.163810">
				<ele>5.339</ele>
				<time>2015-07-04T09:04:18Z</time>
				<extensions>
				</extensions>
			</trkpt>
			<trkpt lat="-27.654792" lon="153.163604">
				<ele>5.738</ele>
				<time>2015-07-04T09:04:19Z</time>
				<extensions>
				</extensions>
			</trkpt>
			<trkpt lat="-27.654617" lon="153.163393">
				<ele>6.221</ele>
				<time>2015-07-04T09:04:20Z</time>
				<extensions>
				</extensions>
			</trkpt>
			<trkpt lat="-27.654441" lon="153.163184">
				<ele>6.073</ele>
				<time>2015-07-04T09:04:21Z</time>
				<extensions>
				</extensions>
			</trkpt>
			<trkpt lat="-27.654264" lon="153.162982">
				<ele>7.214</ele>
				<time>2015-07-04T09:04:22Z</time>
				<extensions>
				</extensions>
			</trkpt>
			<trkpt lat="-27.654082" lon="153.162781">
				<ele>8.781</ele>
				<time>2015-07-04T09:04:23Z</time>
				<extensions>
				</extensions>
			</trkpt>
			<trkpt lat="-27.653905" lon="153.162567">
				<ele>9.943</ele>
				<time>2015-07-04T09:04:24Z</time>
				<extensions>
				</extensions>
			</trkpt>
			<trkpt lat="-27.653727" lon="153.162360">
				<ele>8.658</ele>
				<time>2015-07-04T09:04:25Z</time>
				<extensions>
				</extensions>
			</trkpt>
			<trkpt lat="-27.653556" lon="153.162162">
				<ele>6.752</ele>
				<time>2015-07-04T09:04:26Z</time>
				<extensions>
				</extensions>
			</trkpt>
			<trkpt lat="-27.653398" lon="153.161968">
				<ele>4.934</ele>
				<time>2015-07-04T09:04:27Z</time>
				<extensions>
				</extensions>
			</trkpt>
			<trkpt lat="-27.653226" lon="153.161780">
				<ele>4.974</ele>
				<time>2015-07-04T09:04:28Z</time>
				<extensions>
				</extensions>
			</trkpt>
			<trkpt lat="-27.653056" lon="153.161588">
				<ele>3.371</ele>
				<time>2015-07-04T09:04:29Z</time>
				<extensions>
				</extensions>
			</trkpt>
			<trkpt lat="-27.652893" lon="153.161397">
				<ele>1.661</ele>
				<time>2015-07-04T09:04:30Z</time>
				<extensions>
				</extensions>
			</trkpt>
			<trkpt lat="-27.652735" lon="153.161214">
				<ele>1.004</ele>
				<time>2015-07-04T09:04:31Z</time>
				<extensions>
				</extensions>
			</trkpt>
			<trkpt lat="-27.652576" lon="153.161016">
				<ele>2.167</ele>
				<time>2015-07-04T09:04:32Z</time>
				<extensions>
				</extensions>
			</trkpt>
			<trkpt lat="-27.652406" lon="153.160822">
				<ele>4.301</ele>
				<time>2015-07-04T09:04:33Z</time>
				<extensions>
				</extensions>
			</trkpt>
			<trkpt lat="-27.652231" lon="153.160619">
				<ele>6.543</ele>
				<time>2015-07-04T09:04:34Z</time>
				<extensions>
				</extensions>
			</trkpt>
			<trkpt lat="-27.652052" lon="153.160414">
				<ele>8.673</ele>
				<time>2015-07-04T09:04:35Z</time>
				<extensions>
				</extensions>
			</trkpt>
			<trkpt lat="-27.651876" lon="153.160203">
				<ele>7.469</ele>
				<time>2015-07-04T09:04:36Z</time>
				<extensions>
				</extensions>
			</trkpt>
			<trkpt lat="-27.651700" lon="153.159999">
				<ele>6.733</ele>
				<time>2015-07-04T09:04:37Z</time>
				<extensions>
				</extensions>
			</trkpt>
			<trkpt lat="-27.651522" lon="153.159797">
				<ele>6.134</ele>
				<time>2015-07-04T09:04:38Z</time>
				<extensions>
				</extensions>
			</trkpt>
			<trkpt lat="-27.651344" lon="153.159591">
				<ele>5.446</ele>
				<time>2015-07-04T09:04:39Z</time>
				<extensions>
				</extensions>
			</trkpt>
			<trkpt lat="-27.651171" lon="153.159391">
				<ele>5.766</ele>
				<time>2015-07-04T09:04:40Z</time>
				<extensions>
				</extensions>
			</trkpt>
			<trkpt lat="-27.650999" lon="153.159193">
				<ele>3.925</ele>
				<time>2015-07-04T09:04:41Z</time>
				<extensions>
				</extensions>
			</trkpt>
			<trkpt lat="-27.650832" lon="153.158997">
				<ele>4.198</ele>
				<time>2015-07-04T09:04:42Z</time>
				<extensions>
				</extensions>
			</trkpt>
			<trkpt lat="-27.650667" lon="153.158801">
				<ele>3.979</ele>
				<time>2015-07-04T09:04:43Z</time>
				<extensions>
				</extensions>
			</trkpt>
			<trkpt lat="-27.650497" lon="153.158609">
				<ele>3.979</ele>
				<time>2015-07-04T09:04:44Z</time>
				<extensions>
				</extensions>
			</trkpt>
			<trkpt lat="-27.650317" lon="153.158408">
				<ele>3.764</ele>
				<time>2015-07-04T09:04:45Z</time>
				<extensions>
				</extensions>
			</trkpt>
			<trkpt lat="-27.650150" lon="153.158208">
				<ele>2.762</ele>
				<time>2015-07-04T09:04:46Z</time>
				<extensions>
				</extensions>
			</trkpt>
			<trkpt lat="-27.649982" lon="153.158013">
				<ele>1.800</ele>
				<time>2015-07-04T09:04:47Z</time>
				<extensions>
				</extensions>
			</trkpt>
			<trkpt lat="-27.649824" lon="153.157813">
				<ele>0.725</ele>
				<time>2015-07-04T09:04:48Z</time>
				<extensions>
				</extensions>
			</trkpt>
			<trkpt lat="-27.649649" lon="153.157610">
				<ele>0.335</ele>
				<time>2015-07-04T09:04:49Z</time>
				<extensions>
				</extensions>
			</trkpt>
			<trkpt lat="-27.649484" lon="153.157400">
				<ele>0.667</ele>
				<time>2015-07-04T09:04:50Z</time>
				<extensions>
				</extensions>
			</trkpt>
			<trkpt lat="-27.649319" lon="153.157180">
				<ele>0.586</ele>
				<time>2015-07-04T09:04:51Z</time>
				<extensions>
				</extensions>
			</trkpt>
			<trkpt lat="-27.649164" lon="153.156959">
				<ele>-1.406</ele>
				<time>2015-07-04T09:04:52Z</time>
				<extensions>
				</extensions>
			</trkpt>
			<trkpt lat="-27.649012" lon="153.156724">
				<ele>-0.165</ele>
				<time>2015-07-04T09:04:53Z</time>
				<extensions>
				</extensions>
			</trkpt>
			<trkpt lat="-27.648873" lon="153.156493">
				<ele>-0.659</ele>
				<time>2015-07-04T09:04:54Z</time>
				<extensions>
				</extensions>
			</trkpt>
			<trkpt lat="-27.648729" lon="153.156244">
				<ele>0.785</ele>
				<time>2015-07-04T09:04:55Z</time>
				<extensions>
				</extensions>
			</trkpt>
			<trkpt lat="-27.648598" lon="153.155996">
				<ele>0.793</ele>
				<time>2015-07-04T09:04:56Z</time>
				<extensions>
				</extensions>
			</trkpt>
			<trkpt lat="-27.648469" lon="153.155743">
				<ele>0.799</ele>
				<time>2015-07-04T09:04:57Z</time>
				<extensions>
				</extensions>
			</trkpt>
			<trkpt lat="-27.648352" lon="153.155485">
				<ele>3.004</ele>
				<time>2015-07-04T09:04:58Z</time>
				<extensions>
				</extensions>
			</trkpt>
			<trkpt lat="-27.648233" lon="153.155225">
				<ele>1.963</ele>
				<time>2015-07-04T09:04:59Z</time>
				<extensions>
				</extensions>
			</trkpt>
			<trkpt lat="-27.648134" lon="153.154964">
				<ele>2.700</ele>
				<time>2015-07-04T09:05:00Z</time>
				<extensions>
				</extensions>
			</trkpt>
			<trkpt lat="-27.648028" lon="153.154700">
				<ele>1.365</ele>
				<time>2015-07-04T09:05:01Z</time>
				<extensions>
				</extensions>
			</trkpt>
			<trkpt lat="-27.647935" lon="153.154429">
				<ele>2.001</ele>
				<time>2015-07-04T09:05:02Z</time>
				<extensions>
				</extensions>
			</trkpt>
			<trkpt lat="-27.647848" lon="153.154155">
				<ele>0.147</ele>
				<time>2015-07-04T09:05:03Z</time>
				<extensions>
				</extensions>
			</trkpt>
			<trkpt lat="-27.647766" lon="153.153886">
				<ele>0.406</ele>
				<time>2015-07-04T09:05:04Z</time>
				<extensions>
				</extensions>
			</trkpt>
			<trkpt lat="-27.647684" lon="153.153614">
				<ele>0.615</ele>
				<time>2015-07-04T09:05:05Z</time>
				<extensions>
				</extensions>
			</trkpt>
			<trkpt lat="-27.647595" lon="153.153342">
				<ele>0.863</ele>
				<time>2015-07-04T09:05:06Z</time>
				<extensions>
				</extensions>
			</trkpt>
			<trkpt lat="-27.647519" lon="153.153077">
				<ele>3.860</ele>
				<time>2015-07-04T09:05:07Z</time>
				<extensions>
				</extensions>
			</trkpt>
			<trkpt lat="-27.647439" lon="153.152804">
				<ele>2.180</ele>
				<time>2015-07-04T09:05:08Z</time>
				<extensions>
				</extensions>
			</trkpt>
			<trkpt lat="-27.647364" lon="153.152533">
				<ele>3.068</ele>
				<time>2015-07-04T09:05:09Z</time>
				<extensions>
				</extensions>
			</trkpt>
			<trkpt lat="-27.647292" lon="153.152261">
				<ele>4.143</ele>
				<time>2015-07-04T09:05:10Z</time>
				<extensions>
				</extensions>
			</trkpt>
			<trkpt lat="-27.647219" lon="153.151992">
				<ele>3.693</ele>
				<time>2015-07-04T09:05:11Z</time>
				<extensions>
				</extensions>
			</trkpt>
			<trkpt lat="-27.647139" lon="153.151723">
				<ele>4.867</ele>
				<time>2015-07-04T09:05:12Z</time>
				<extensions>
				</extensions>
			</trkpt>
			<trkpt lat="-27.647068" lon="153.151463">
				<ele>7.264</ele>
				<time>2015-07-04T09:05:13Z</time>
				<extensions>
				</extensions>
			</trkpt>
			<trkpt lat="-27.646987" lon="153.151204">
				<ele>6.417</ele>
				<time>2015-07-04T09:05:14Z</time>
				<extensions>
				</extensions>
			</trkpt>
			<trkpt lat="-27.646909" lon="153.150934">
				<ele>5.085</ele>
				<time>2015-07-04T09:05:15Z</time>
				<extensions>
				</extensions>
			</trkpt>
			<trkpt lat="-27.646827" lon="153.150669">
				<ele>6.373</ele>
				<time>2015-07-04T09:05:16Z</time>
				<extensions>
				</extensions>
			</trkpt>
			<trkpt lat="-27.646744" lon="153.150404">
				<ele>6.553</ele>
				<time>2015-07-04T09:05:17Z</time>
				<extensions>
				</extensions>
			</trkpt>
			<trkpt lat="-27.646654" lon="153.150139">
				<ele>6.747</ele>
				<time>2015-07-04T09:05:18Z</time>
				<extensions>
				</extensions>
			</trkpt>
			<trkpt lat="-27.646561" lon="153.149874">
				<ele>7.941</ele>
				<time>2015-07-04T09:05:19Z</time>
				<extensions>
				</extensions>
			</trkpt>
			<trkpt lat="-27.646450" lon="153.149615">
				<ele>7.741</ele>
				<time>2015-07-04T09:05:20Z</time>
				<extensions>
				</extensions>
			</trkpt>
			<trkpt lat="-27.646339" lon="153.149364">
				<ele>8.302</ele>
				<time>2015-07-04T09:05:21Z</time>
				<extensions>
				</extensions>
			</trkpt>
			<trkpt lat="-27.646221" lon="153.149115">
				<ele>7.886</ele>
				<time>2015-07-04T09:05:22Z</time>
				<extensions>
				</extensions>
			</trkpt>
			<trkpt lat="-27.646097" lon="153.148863">
				<ele>9.444</ele>
				<time>2015-07-04T09:05:23Z</time>
				<extensions>
				</extensions>
			</trkpt>
			<trkpt lat="-27.645966" lon="153.148621">
				<ele>9.712</ele>
				<time>2015-07-04T09:05:24Z</time>
				<extensions>
				</extensions>
			</trkpt>
			<trkpt lat="-27.645824" lon="153.148377">
				<ele>10.174</ele>
				<time>2015-07-04T09:05:25Z</time>
				<extensions>
				</extensions>
			</trkpt>
			<trkpt lat="-27.645681" lon="153.148136">
				<ele>12.161</ele>
				<time>2015-07-04T09:05:26Z</time>
				<extensions>
				</extensions>
			</trkpt>
			<trkpt lat="-27.645532" lon="153.147904">
				<ele>13.491</ele>
				<time>2015-07-04T09:05:27Z</time>
				<extensions>
				</extensions>
			</trkpt>
			<trkpt lat="-27.645375" lon="153.147673">
				<ele>12.938</ele>
				<time>2015-07-04T09:05:28Z</time>
				<extensions>
				</extensions>
			</trkpt>
			<trkpt lat="-27.645219" lon="153.147449">
				<ele>12.890</ele>
				<time>2015-07-04T09:05:29Z</time>
				<extensions>
				</extensions>
			</trkpt>
			<trkpt lat="-27.645060" lon="153.147226">
				<ele>14.043</ele>
				<time>2015-07-04T09:05:30Z</time>
				<extensions>
				</extensions>
			</trkpt>
			<trkpt lat="-27.644906" lon="153.147007">
				<ele>13.806</ele>
				<time>2015-07-04T09:05:31Z</time>
				<extensions>
				</extensions>
			</trkpt>
			<trkpt lat="-27.644753" lon="153.146779">
				<ele>16.577</ele>
				<time>2015-07-04T09:05:32Z</time>
				<extensions>
				</extensions>
			</trkpt>
			<trkpt lat="-27.644597" lon="153.146554">
				<ele>16.906</ele>
				<time>2015-07-04T09:05:33Z</time>
				<extensions>
				</extensions>
			</trkpt>
			<trkpt lat="-27.644446" lon="153.146335">
				<ele>16.059</ele>
				<time>2015-07-04T09:05:34Z</time>
				<extensions>
				</extensions>
			</trkpt>
			<trkpt lat="-27.644295" lon="153.146115">
				<ele>16.021</ele>
				<time>2015-07-04T09:05:35Z</time>
				<extensions>
				</extensions>
			</trkpt>
			<trkpt lat="-27.644141" lon="153.145899">
				<ele>15.445</ele>
				<time>2015-07-04T09:05:36Z</time>
				<extensions>
				</extensions>
			</trkpt>
			<trkpt lat="-27.643987" lon="153.145678">
				<ele>14.942</ele>
				<time>2015-07-04T09:05:37Z</time>
				<extensions>
				</extensions>
			</trkpt>
			<trkpt lat="-27.643832" lon="153.145457">
				<ele>16.532</ele>
				<time>2015-07-04T09:05:38Z</time>
				<extensions>
				</extensions>
			</trkpt>
			<trkpt lat="-27.643667" lon="153.145227">
				<ele>16.966</ele>
				<time>2015-07-04T09:05:39Z</time>
				<extensions>
				</extensions>
			</trkpt>
			<trkpt lat="-27.643508" lon="153.145008">
				<ele>18.973</ele>
				<time>2015-07-04T09:05:40Z</time>
				<extensions>
				</extensions>
			</trkpt>
			<trkpt lat="-27.643359" lon="153.144786">
				<ele>18.483</ele>
				<time>2015-07-04T09:05:41Z</time>
				<extensions>
				</extensions>
			</trkpt>
			<trkpt lat="-27.643196" lon="153.144564">
				<ele>19.094</ele>
				<time>2015-07-04T09:05:42Z</time>
				<extensions>
				</extensions>
			</trkpt>
			<trkpt lat="-27.643038" lon="153.144343">
				<ele>16.068</ele>
				<time>2015-07-04T09:05:43Z</time>
				<extensions>
				</extensions>
			</trkpt>
			<trkpt lat="-27.642882" lon="153.144121">
				<ele>15.540</ele>
				<time>2015-07-04T09:05:44Z</time>
				<extensions>
				</extensions>
			</trkpt>
			<trkpt lat="-27.642739" lon="153.143897">
				<ele>16.649</ele>
				<time>2015-07-04T09:05:45Z</time>
				<extensions>
				</extensions>
			</trkpt>
			<trkpt lat="-27.642580" lon="153.143673">
				<ele>16.737</ele>
				<time>2015-07-04T09:05:46Z</time>
				<extensions>
				</extensions>
			</trkpt>
			<trkpt lat="-27.642421" lon="153.143446">
				<ele>17.621</ele>
				<time>2015-07-04T09:05:47Z</time>
				<extensions>
				</extensions>
			</trkpt>
			<trkpt lat="-27.642255" lon="153.143231">
				<ele>16.322</ele>
				<time>2015-07-04T09:05:48Z</time>
				<extensions>
				</extensions>
			</trkpt>
			<trkpt lat="-27.642100" lon="153.142994">
				<ele>16.322</ele>
				<time>2015-07-04T09:05:49Z</time>
				<extensions>
				</extensions>
			</trkpt>
			<trkpt lat="-27.641944" lon="153.142767">
				<ele>15.445</ele>
				<time>2015-07-04T09:05:50Z</time>
				<extensions>
				</extensions>
			</trkpt>
			<trkpt lat="-27.641780" lon="153.142540">
				<ele>15.350</ele>
				<time>2015-07-04T09:05:51Z</time>
				<extensions>
				</extensions>
			</trkpt>
			<trkpt lat="-27.641618" lon="153.142315">
				<ele>13.595</ele>
				<time>2015-07-04T09:05:52Z</time>
				<extensions>
				</extensions>
			</trkpt>
			<trkpt lat="-27.641452" lon="153.142085">
				<ele>12.847</ele>
				<time>2015-07-04T09:05:53Z</time>
				<extensions>
				</extensions>
			</trkpt>
			<trkpt lat="-27.641289" lon="153.141853">
				<ele>12.510</ele>
				<time>2015-07-04T09:05:54Z</time>
				<extensions>
				</extensions>
			</trkpt>
			<trkpt lat="-27.641121" lon="153.141630">
				<ele>11.974</ele>
				<time>2015-07-04T09:05:55Z</time>
				<extensions>
				</extensions>
			</trkpt>
			<trkpt lat="-27.640963" lon="153.141407">
				<ele>11.229</ele>
				<time>2015-07-04T09:05:56Z</time>
				<extensions>
				</extensions>
			</trkpt>
			<trkpt lat="-27.640797" lon="153.141195">
				<ele>10.201</ele>
				<time>2015-07-04T09:05:57Z</time>
				<extensions>
				</extensions>
			</trkpt>
			<trkpt lat="-27.640634" lon="153.140978">
				<ele>8.014</ele>
				<time>2015-07-04T09:05:58Z</time>
				<extensions>
				</extensions>
			</trkpt>
			<trkpt lat="-27.640460" lon="153.140767">
				<ele>7.304</ele>
				<time>2015-07-04T09:05:59Z</time>
				<extensions>
				</extensions>
			</trkpt>
			<trkpt lat="-27.640284" lon="153.140556">
				<ele>4.966</ele>
				<time>2015-07-04T09:06:00Z</time>
				<extensions>
				</extensions>
			</trkpt>
			<trkpt lat="-27.640113" lon="153.140353">
				<ele>6.397</ele>
				<time>2015-07-04T09:06:01Z</time>
				<extensions>
				</extensions>
			</trkpt>
			<trkpt lat="-27.639938" lon="153.140149">
				<ele>4.831</ele>
				<time>2015-07-04T09:06:02Z</time>
				<extensions>
				</extensions>
			</trkpt>
			<trkpt lat="-27.639763" lon="153.139946">
				<ele>3.415</ele>
				<time>2015-07-04T09:06:03Z</time>
				<extensions>
				</extensions>
			</trkpt>
			<trkpt lat="-27.639589" lon="153.139743">
				<ele>4.352</ele>
				<time>2015-07-04T09:06:04Z</time>
				<extensions>
				</extensions>
			</trkpt>
			<trkpt lat="-27.639411" lon="153.139544">
				<ele>3.756</ele>
				<time>2015-07-04T09:06:05Z</time>
				<extensions>
				</extensions>
			</trkpt>
			<trkpt lat="-27.639236" lon="153.139357">
				<ele>2.935</ele>
				<time>2015-07-04T09:06:06Z</time>
				<extensions>
				</extensions>
			</trkpt>
			<trkpt lat="-27.639057" lon="153.139171">
				<ele>1.353</ele>
				<time>2015-07-04T09:06:07Z</time>
				<extensions>
				</extensions>
			</trkpt>
			<trkpt lat="-27.638886" lon="153.138978">
				<ele>2.322</ele>
				<time>2015-07-04T09:06:08Z</time>
				<extensions>
				</extensions>
			</trkpt>
			<trkpt lat="-27.638716" lon="153.138785">
				<ele>1.694</ele>
				<time>2015-07-04T09:06:09Z</time>
				<extensions>
				</extensions>
			</trkpt>
			<trkpt lat="-27.638542" lon="153.138586">
				<ele>3.573</ele>
				<time>2015-07-04T09:06:10Z</time>
				<extensions>
				</extensions>
			</trkpt>
			<trkpt lat="-27.638365" lon="153.138402">
				<ele>4.096</ele>
				<time>2015-07-04T09:06:11Z</time>
				<extensions>
				</extensions>
			</trkpt>
			<trkpt lat="-27.638194" lon="153.138204">
				<ele>5.353</ele>
				<time>2015-07-04T09:06:12Z</time>
				<extensions>
				</extensions>
			</trkpt>
			<trkpt lat="-27.638012" lon="153.138006">
				<ele>5.581</ele>
				<time>2015-07-04T09:06:13Z</time>
				<extensions>
				</extensions>
			</trkpt>
			<trkpt lat="-27.637837" lon="153.137813">
				<ele>5.270</ele>
				<time>2015-07-04T09:06:14Z</time>
				<extensions>
				</extensions>
			</trkpt>
			<trkpt lat="-27.637663" lon="153.137622">
				<ele>4.906</ele>
				<time>2015-07-04T09:06:15Z</time>
				<extensions>
				</extensions>
			</trkpt>
			<trkpt lat="-27.637485" lon="153.137427">
				<ele>5.816</ele>
				<time>2015-07-04T09:06:16Z</time>
				<extensions>
				</extensions>
			</trkpt>
			<trkpt lat="-27.637301" lon="153.137235">
				<ele>5.338</ele>
				<time>2015-07-04T09:06:17Z</time>
				<extensions>
				</extensions>
			</trkpt>
			<trkpt lat="-27.637123" lon="153.137036">
				<ele>7.870</ele>
				<time>2015-07-04T09:06:18Z</time>
				<extensions>
				</extensions>
			</trkpt>
			<trkpt lat="-27.636947" lon="153.136851">
				<ele>6.936</ele>
				<time>2015-07-04T09:06:19Z</time>
				<extensions>
				</extensions>
			</trkpt>
			<trkpt lat="-27.636769" lon="153.136657">
				<ele>6.549</ele>
				<time>2015-07-04T09:06:20Z</time>
				<extensions>
				</extensions>
			</trkpt>
			<trkpt lat="-27.636588" lon="153.136466">
				<ele>7.001</ele>
				<time>2015-07-04T09:06:21Z</time>
				<extensions>
				</extensions>
			</trkpt>
			<trkpt lat="-27.636401" lon="153.136272">
				<ele>6.706</ele>
				<time>2015-07-04T09:06:22Z</time>
				<extensions>
				</extensions>
			</trkpt>
			<trkpt lat="-27.636230" lon="153.136077">
				<ele>4.726</ele>
				<time>2015-07-04T09:06:23Z</time>
				<extensions>
				</extensions>
			</trkpt>
			<trkpt lat="-27.636059" lon="153.135885">
				<ele>6.290</ele>
				<time>2015-07-04T09:06:24Z</time>
				<extensions>
				</extensions>
			</trkpt>
			<trkpt lat="-27.635880" lon="153.135699">
				<ele>7.325</ele>
				<time>2015-07-04T09:06:25Z</time>
				<extensions>
				</extensions>
			</trkpt>
			<trkpt lat="-27.635694" lon="153.135508">
				<ele>7.543</ele>
				<time>2015-07-04T09:06:26Z</time>
				<extensions>
				</extensions>
			</trkpt>
			<trkpt lat="-27.635519" lon="153.135328">
				<ele>6.473</ele>
				<time>2015-07-04T09:06:27Z</time>
				<extensions>
				</extensions>
			</trkpt>
			<trkpt lat="-27.635345" lon="153.135143">
				<ele>8.203</ele>
				<time>2015-07-04T09:06:28Z</time>
				<extensions>
				</extensions>
			</trkpt>
			<trkpt lat="-27.635172" lon="153.134960">
				<ele>8.016</ele>
				<time>2015-07-04T09:06:29Z</time>
				<extensions>
				</extensions>
			</trkpt>
			<trkpt lat="-27.634989" lon="153.134775">
				<ele>9.334</ele>
				<time>2015-07-04T09:06:30Z</time>
				<extensions>
				</extensions>
			</trkpt>
			<trkpt lat="-27.634814" lon="153.134592">
				<ele>9.408</ele>
				<time>2015-07-04T09:06:31Z</time>
				<extensions>
				</extensions>
			</trkpt>
			<trkpt lat="-27.634631" lon="153.134404">
				<ele>11.124</ele>
				<time>2015-07-04T09:06:32Z</time>
				<extensions>
				</extensions>
			</trkpt>
			<trkpt lat="-27.634454" lon="153.134222">
				<ele>11.005</ele>
				<time>2015-07-04T09:06:33Z</time>
				<extensions>
				</extensions>
			</trkpt>
			<trkpt lat="-27.634278" lon="153.134030">
				<ele>13.193</ele>
				<time>2015-07-04T09:06:34Z</time>
				<extensions>
				</extensions>
			</trkpt>
			<trkpt lat="-27.634094" lon="153.133852">
				<ele>12.980</ele>
				<time>2015-07-04T09:06:35Z</time>
				<extensions>
				</extensions>
			</trkpt>
			<trkpt lat="-27.633918" lon="153.133663">
				<ele>14.102</ele>
				<time>2015-07-04T09:06:36Z</time>
				<extensions>
				</extensions>
			</trkpt>
			<trkpt lat="-27.633739" lon="153.133467">
				<ele>14.551</ele>
				<time>2015-07-04T09:06:37Z</time>
				<extensions>
				</extensions>
			</trkpt>
			<trkpt lat="-27.633558" lon="153.133279">
				<ele>16.394</ele>
				<time>2015-07-04T09:06:38Z</time>
				<extensions>
				</extensions>
			</trkpt>
			<trkpt lat="-27.633390" lon="153.133101">
				<ele>19.476</ele>
				<time>2015-07-04T09:06:39Z</time>
				<extensions>
				</extensions>
			</trkpt>
			<trkpt lat="-27.633224" lon="153.132910">
				<ele>19.572</ele>
				<time>2015-07-04T09:06:40Z</time>
				<extensions>
				</extensions>
			</trkpt>
			<trkpt lat="-27.633057" lon="153.132725">
				<ele>19.480</ele>
				<time>2015-07-04T09:06:41Z</time>
				<extensions>
				</extensions>
			</trkpt>
			<trkpt lat="-27.632885" lon="153.132537">
				<ele>19.391</ele>
				<time>2015-07-04T09:06:42Z</time>
				<extensions>
				</extensions>
			</trkpt>
			<trkpt lat="-27.632704" lon="153.132359">
				<ele>20.406</ele>
				<time>2015-07-04T09:06:43Z</time>
				<extensions>
				</extensions>
			</trkpt>
			<trkpt lat="-27.632529" lon="153.132184">
				<ele>20.874</ele>
				<time>2015-07-04T09:06:44Z</time>
				<extensions>
				</extensions>
			</trkpt>
			<trkpt lat="-27.632341" lon="153.132015">
				<ele>20.658</ele>
				<time>2015-07-04T09:06:45Z</time>
				<extensions>
				</extensions>
			</trkpt>
			<trkpt lat="-27.632148" lon="153.131864">
				<ele>20.767</ele>
				<time>2015-07-04T09:06:46Z</time>
				<extensions>
				</extensions>
			</trkpt>
			<trkpt lat="-27.631952" lon="153.131724">
				<ele>21.657</ele>
				<time>2015-07-04T09:06:47Z</time>
				<extensions>
				</extensions>
			</trkpt>
			<trkpt lat="-27.631744" lon="153.131582">
				<ele>22.578</ele>
				<time>2015-07-04T09:06:48Z</time>
				<extensions>
				</extensions>
			</trkpt>
			<trkpt lat="-27.631532" lon="153.131442">
				<ele>22.849</ele>
				<time>2015-07-04T09:06:49Z</time>
				<extensions>
				</extensions>
			</trkpt>
			<trkpt lat="-27.631318" lon="153.131306">
				<ele>20.920</ele>
				<time>2015-07-04T09:06:50Z</time>
				<extensions>
				</extensions>
			</trkpt>
			<trkpt lat="-27.631104" lon="153.131177">
				<ele>21.635</ele>
				<time>2015-07-04T09:06:51Z</time>
				<extensions>
				</extensions>
			</trkpt>
			<trkpt lat="-27.630894" lon="153.131067">
				<ele>21.635</ele>
				<time>2015-07-04T09:06:52Z</time>
				<extensions>
				</extensions>
			</trkpt>
			<trkpt lat="-27.630669" lon="153.130953">
				<ele>20.775</ele>
				<time>2015-07-04T09:06:53Z</time>
				<extensions>
				</extensions>
			</trkpt>
			<trkpt lat="-27.630443" lon="153.130843">
				<ele>22.572</ele>
				<time>2015-07-04T09:06:54Z</time>
				<extensions>
				</extensions>
			</trkpt>
			<trkpt lat="-27.630218" lon="153.130749">
				<ele>22.445</ele>
				<time>2015-07-04T09:06:55Z</time>
				<extensions>
				</extensions>
			</trkpt>
			<trkpt lat="-27.629987" lon="153.130662">
				<ele>20.714</ele>
				<time>2015-07-04T09:06:56Z</time>
				<extensions>
				</extensions>
			</trkpt>
			<trkpt lat="-27.629757" lon="153.130573">
				<ele>20.810</ele>
				<time>2015-07-04T09:06:57Z</time>
				<extensions>
				</extensions>
			</trkpt>
			<trkpt lat="-27.629527" lon="153.130477">
				<ele>20.250</ele>
				<time>2015-07-04T09:06:58Z</time>
				<extensions>
				</extensions>
			</trkpt>
			<trkpt lat="-27.629292" lon="153.130383">
				<ele>18.963</ele>
				<time>2015-07-04T09:06:59Z</time>
				<extensions>
				</extensions>
			</trkpt>
			<trkpt lat="-27.629061" lon="153.130290">
				<ele>19.703</ele>
				<time>2015-07-04T09:07:00Z</time>
				<extensions>
				</extensions>
			</trkpt>
			<trkpt lat="-27.628837" lon="153.130204">
				<ele>20.309</ele>
				<time>2015-07-04T09:07:01Z</time>
				<extensions>
				</extensions>
			</trkpt>
			<trkpt lat="-27.628610" lon="153.130126">
				<ele>17.037</ele>
				<time>2015-07-04T09:07:02Z</time>
				<extensions>
				</extensions>
			</trkpt>
			<trkpt lat="-27.628378" lon="153.130032">
				<ele>16.021</ele>
				<time>2015-07-04T09:07:03Z</time>
				<extensions>
				</extensions>
			</trkpt>
			<trkpt lat="-27.628148" lon="153.129940">
				<ele>14.483</ele>
				<time>2015-07-04T09:07:04Z</time>
				<extensions>
				</extensions>
			</trkpt>
			<trkpt lat="-27.627917" lon="153.129847">
				<ele>14.992</ele>
				<time>2015-07-04T09:07:05Z</time>
				<extensions>
				</extensions>
			</trkpt>
			<trkpt lat="-27.627687" lon="153.129752">
				<ele>15.898</ele>
				<time>2015-07-04T09:07:06Z</time>
				<extensions>
				</extensions>
			</trkpt>
			<trkpt lat="-27.627456" lon="153.129666">
				<ele>16.286</ele>
				<time>2015-07-04T09:07:07Z</time>
				<extensions>
				</extensions>
			</trkpt>
			<trkpt lat="-27.627230" lon="153.129572">
				<ele>15.037</ele>
				<time>2015-07-04T09:07:08Z</time>
				<extensions>
				</extensions>
			</trkpt>
			<trkpt lat="-27.627014" lon="153.129495">
				<ele>12.957</ele>
				<time>2015-07-04T09:07:09Z</time>
				<extensions>
				</extensions>
			</trkpt>
			<trkpt lat="-27.626787" lon="153.129409">
				<ele>13.947</ele>
				<time>2015-07-04T09:07:10Z</time>
				<extensions>
				</extensions>
			</trkpt>
			<trkpt lat="-27.626563" lon="153.129322">
				<ele>13.206</ele>
				<time>2015-07-04T09:07:11Z</time>
				<extensions>
				</extensions>
			</trkpt>
			<trkpt lat="-27.626355" lon="153.129226">
				<ele>14.458</ele>
				<time>2015-07-04T09:07:12Z</time>
				<extensions>
				</extensions>
			</trkpt>
			<trkpt lat="-27.626113" lon="153.129129">
				<ele>13.958</ele>
				<time>2015-07-04T09:07:13Z</time>
				<extensions>
				</extensions>
			</trkpt>
			<trkpt lat="-27.625874" lon="153.129029">
				<ele>15.590</ele>
				<time>2015-07-04T09:07:14Z</time>
				<extensions>
				</extensions>
			</trkpt>
			<trkpt lat="-27.625639" lon="153.128932">
				<ele>16.880</ele>
				<time>2015-07-04T09:07:15Z</time>
				<extensions>
				</extensions>
			</trkpt>
			<trkpt lat="-27.625405" lon="153.128831">
				<ele>17.612</ele>
				<time>2015-07-04T09:07:16Z</time>
				<extensions>
				</extensions>
			</trkpt>
			<trkpt lat="-27.625178" lon="153.128718">
				<ele>15.410</ele>
				<time>2015-07-04T09:07:17Z</time>
				<extensions>
				</extensions>
			</trkpt>
			<trkpt lat="-27.624951" lon="153.128622">
				<ele>16.915</ele>
				<time>2015-07-04T09:07:18Z</time>
				<extensions>
				</extensions>
			</trkpt>
			<trkpt lat="-27.624717" lon="153.128519">
				<ele>16.550</ele>
				<time>2015-07-04T09:07:19Z</time>
				<extensions>
				</extensions>
			</trkpt>
			<trkpt lat="-27.624471" lon="153.128399">
				<ele>15.432</ele>
				<time>2015-07-04T09:07:20Z</time>
				<extensions>
				</extensions>
			</trkpt>
			<trkpt lat="-27.624245" lon="153.128304">
				<ele>16.912</ele>
				<time>2015-07-04T09:07:21Z</time>
				<extensions>
				</extensions>
			</trkpt>
			<trkpt lat="-27.624009" lon="153.128198">
				<ele>14.489</ele>
				<time>2015-07-04T09:07:22Z</time>
				<extensions>
				</extensions>
			</trkpt>
			<trkpt lat="-27.623780" lon="153.128102">
				<ele>15.420</ele>
				<time>2015-07-04T09:07:23Z</time>
				<extensions>
				</extensions>
			</trkpt>
			<trkpt lat="-27.623555" lon="153.127995">
				<ele>14.837</ele>
				<time>2015-07-04T09:07:24Z</time>
				<extensions>
				</extensions>
			</trkpt>
			<trkpt lat="-27.623319" lon="153.127883">
				<ele>15.364</ele>
				<time>2015-07-04T09:07:25Z</time>
				<extensions>
				</extensions>
			</trkpt>
			<trkpt lat="-27.623083" lon="153.127775">
				<ele>13.353</ele>
				<time>2015-07-04T09:07:26Z</time>
				<extensions>
				</extensions>
			</trkpt>
			<trkpt lat="-27.622854" lon="153.127661">
				<ele>13.678</ele>
				<time>2015-07-04T09:07:27Z</time>
				<extensions>
				</extensions>
			</trkpt>
			<trkpt lat="-27.622618" lon="153.127552">
				<ele>12.655</ele>
				<time>2015-07-04T09:07:28Z</time>
				<extensions>
				</extensions>
			</trkpt>
			<trkpt lat="-27.622391" lon="153.127438">
				<ele>11.443</ele>
				<time>2015-07-04T09:07:29Z</time>
				<extensions>
				</extensions>
			</trkpt>
			<trkpt lat="-27.622157" lon="153.127339">
				<ele>11.777</ele>
				<time>2015-07-04T09:07:30Z</time>
				<extensions>
				</extensions>
			</trkpt>
			<trkpt lat="-27.621924" lon="153.127235">
				<ele>11.629</ele>
				<time>2015-07-04T09:07:31Z</time>
				<extensions>
				</extensions>
			</trkpt>
			<trkpt lat="-27.621691" lon="153.127126">
				<ele>10.813</ele>
				<time>2015-07-04T09:07:32Z</time>
				<extensions>
				</extensions>
			</trkpt>
			<trkpt lat="-27.621458" lon="153.127027">
				<ele>10.771</ele>
				<time>2015-07-04T09:07:33Z</time>
				<extensions>
				</extensions>
			</trkpt>
			<trkpt lat="-27.621224" lon="153.126929">
				<ele>10.729</ele>
				<time>2015-07-04T09:07:34Z</time>
				<extensions>
				</extensions>
			</trkpt>
			<trkpt lat="-27.620993" lon="153.126823">
				<ele>10.333</ele>
				<time>2015-07-04T09:07:35Z</time>
				<extensions>
				</extensions>
			</trkpt>
			<trkpt lat="-27.620768" lon="153.126728">
				<ele>9.875</ele>
				<time>2015-07-04T09:07:36Z</time>
				<extensions>
				</extensions>
			</trkpt>
			<trkpt lat="-27.620524" lon="153.126619">
				<ele>10.642</ele>
				<time>2015-07-04T09:07:37Z</time>
				<extensions>
				</extensions>
			</trkpt>
			<trkpt lat="-27.620293" lon="153.126515">
				<ele>12.268</ele>
				<time>2015-07-04T09:07:38Z</time>
				<extensions>
				</extensions>
			</trkpt>
			<trkpt lat="-27.620060" lon="153.126411">
				<ele>12.639</ele>
				<time>2015-07-04T09:07:39Z</time>
				<extensions>
				</extensions>
			</trkpt>
			<trkpt lat="-27.619819" lon="153.126308">
				<ele>11.864</ele>
				<time>2015-07-04T09:07:40Z</time>
				<extensions>
				</extensions>
			</trkpt>
			<trkpt lat="-27.619581" lon="153.126200">
				<ele>11.246</ele>
				<time>2015-07-04T09:07:41Z</time>
				<extensions>
				</extensions>
			</trkpt>
			<trkpt lat="-27.619353" lon="153.126097">
				<ele>11.557</ele>
				<time>2015-07-04T09:07:42Z</time>
				<extensions>
				</extensions>
			</trkpt>
			<trkpt lat="-27.619121" lon="153.125985">
				<ele>11.230</ele>
				<time>2015-07-04T09:07:43Z</time>
				<extensions>
				</extensions>
			</trkpt>
			<trkpt lat="-27.618890" lon="153.125882">
				<ele>11.034</ele>
				<time>2015-07-04T09:07:44Z</time>
				<extensions>
				</extensions>
			</trkpt>
			<trkpt lat="-27.618652" lon="153.125769">
				<ele>10.877</ele>
				<time>2015-07-04T09:07:45Z</time>
				<extensions>
				</extensions>
			</trkpt>
			<trkpt lat="-27.618430" lon="153.125662">
				<ele>11.461</ele>
				<time>2015-07-04T09:07:46Z</time>
				<extensions>
				</extensions>
			</trkpt>
			<trkpt lat="-27.618206" lon="153.125552">
				<ele>11.228</ele>
				<time>2015-07-04T09:07:47Z</time>
				<extensions>
				</extensions>
			</trkpt>
			<trkpt lat="-27.617982" lon="153.125437">
				<ele>12.586</ele>
				<time>2015-07-04T09:07:48Z</time>
				<extensions>
				</extensions>
			</trkpt>
			<trkpt lat="-27.617758" lon="153.125319">
				<ele>14.008</ele>
				<time>2015-07-04T09:07:49Z</time>
				<extensions>
				</extensions>
			</trkpt>
			<trkpt lat="-27.617535" lon="153.125196">
				<ele>13.689</ele>
				<time>2015-07-04T09:07:50Z</time>
				<extensions>
				</extensions>
			</trkpt>
			<trkpt lat="-27.617318" lon="153.125063">
				<ele>14.783</ele>
				<time>2015-07-04T09:07:51Z</time>
				<extensions>
				</extensions>
			</trkpt>
			<trkpt lat="-27.617098" lon="153.124925">
				<ele>14.572</ele>
				<time>2015-07-04T09:07:52Z</time>
				<extensions>
				</extensions>
			</trkpt>
			<trkpt lat="-27.616881" lon="153.124794">
				<ele>16.373</ele>
				<time>2015-07-04T09:07:53Z</time>
				<extensions>
				</extensions>
			</trkpt>
			<trkpt lat="-27.616663" lon="153.124659">
				<ele>16.072</ele>
				<time>2015-07-04T09:07:54Z</time>
				<extensions>
				</extensions>
			</trkpt>
			<trkpt lat="-27.616444" lon="153.124523">
				<ele>16.072</ele>
				<time>2015-07-04T09:07:55Z</time>
				<extensions>
				</extensions>
			</trkpt>
			<trkpt lat="-27.616225" lon="153.124393">
				<ele>16.236</ele>
				<time>2015-07-04T09:07:56Z</time>
				<extensions>
				</extensions>
			</trkpt>
			<trkpt lat="-27.616006" lon="153.124272">
				<ele>16.973</ele>
				<time>2015-07-04T09:07:57Z</time>
				<extensions>
				</extensions>
			</trkpt>
			<trkpt lat="-27.615783" lon="153.124157">
				<ele>16.835</ele>
				<time>2015-07-04T09:07:58Z</time>
				<extensions>
				</extensions>
			</trkpt>
			<trkpt lat="-27.615556" lon="153.124040">
				<ele>17.320</ele>
				<time>2015-07-04T09:07:59Z</time>
				<extensions>
				</extensions>
			</trkpt>
			<trkpt lat="-27.615325" lon="153.123938">
				<ele>18.246</ele>
				<time>2015-07-04T09:08:00Z</time>
				<extensions>
				</extensions>
			</trkpt>
			<trkpt lat="-27.615098" lon="153.123855">
				<ele>17.781</ele>
				<time>2015-07-04T09:08:01Z</time>
				<extensions>
				</extensions>
			</trkpt>
			<trkpt lat="-27.614868" lon="153.123772">
				<ele>17.580</ele>
				<time>2015-07-04T09:08:02Z</time>
				<extensions>
				</extensions>
			</trkpt>
			<trkpt lat="-27.614625" lon="153.123692">
				<ele>17.487</ele>
				<time>2015-07-04T09:08:03Z</time>
				<extensions>
				</extensions>
			</trkpt>
			<trkpt lat="-27.614382" lon="153.123625">
				<ele>17.950</ele>
				<time>2015-07-04T09:08:04Z</time>
				<extensions>
				</extensions>
			</trkpt>
			<trkpt lat="-27.614145" lon="153.123558">
				<ele>16.918</ele>
				<time>2015-07-04T09:08:05Z</time>
				<extensions>
				</extensions>
			</trkpt>
			<trkpt lat="-27.613899" lon="153.123493">
				<ele>17.864</ele>
				<time>2015-07-04T09:08:06Z</time>
				<extensions>
				</extensions>
			</trkpt>
			<trkpt lat="-27.613647" lon="153.123421">
				<ele>18.154</ele>
				<time>2015-07-04T09:08:07Z</time>
				<extensions>
				</extensions>
			</trkpt>
			<trkpt lat="-27.613397" lon="153.123344">
				<ele>16.766</ele>
				<time>2015-07-04T09:08:08Z</time>
				<extensions>
				</extensions>
			</trkpt>
			<trkpt lat="-27.613161" lon="153.123269">
				<ele>16.866</ele>
				<time>2015-07-04T09:08:09Z</time>
				<extensions>
				</extensions>
			</trkpt>
			<trkpt lat="-27.612920" lon="153.123184">
				<ele>16.136</ele>
				<time>2015-07-04T09:08:10Z</time>
				<extensions>
				</extensions>
			</trkpt>
			<trkpt lat="-27.612683" lon="153.123087">
				<ele>15.836</ele>
				<time>2015-07-04T09:08:11Z</time>
				<extensions>
				</extensions>
			</trkpt>
			<trkpt lat="-27.612471" lon="153.122987">
				<ele>16.183</ele>
				<time>2015-07-04T09:08:12Z</time>
				<extensions>
				</extensions>
			</trkpt>
			<trkpt lat="-27.612236" lon="153.122895">
				<ele>16.628</ele>
				<time>2015-07-04T09:08:13Z</time>
				<extensions>
				</extensions>
			</trkpt>
			<trkpt lat="-27.612002" lon="153.122795">
				<ele>15.166</ele>
				<time>2015-07-04T09:08:14Z</time>
				<extensions>
				</extensions>
			</trkpt>
			<trkpt lat="-27.611772" lon="153.122664">
				<ele>16.617</ele>
				<time>2015-07-04T09:08:15Z</time>
				<extensions>
				</extensions>
			</trkpt>
			<trkpt lat="-27.611554" lon="153.122545">
				<ele>17.210</ele>
				<time>2015-07-04T09:08:16Z</time>
				<extensions>
				</extensions>
			</trkpt>
			<trkpt lat="-27.611335" lon="153.122422">
				<ele>17.499</ele>
				<time>2015-07-04T09:08:17Z</time>
				<extensions>
				</extensions>
			</trkpt>
			<trkpt lat="-27.611117" lon="153.122292">
				<ele>18.111</ele>
				<time>2015-07-04T09:08:18Z</time>
				<extensions>
				</extensions>
			</trkpt>
			<trkpt lat="-27.610903" lon="153.122159">
				<ele>17.653</ele>
				<time>2015-07-04T09:08:19Z</time>
				<extensions>
				</extensions>
			</trkpt>
			<trkpt lat="-27.610694" lon="153.122020">
				<ele>19.151</ele>
				<time>2015-07-04T09:08:20Z</time>
				<extensions>
				</extensions>
			</trkpt>
			<trkpt lat="-27.610482" lon="153.121878">
				<ele>19.080</ele>
				<time>2015-07-04T09:08:21Z</time>
				<extensions>
				</extensions>
			</trkpt>
			<trkpt lat="-27.610268" lon="153.121737">
				<ele>21.551</ele>
				<time>2015-07-04T09:08:22Z</time>
				<extensions>
				</extensions>
			</trkpt>
			<trkpt lat="-27.610045" lon="153.121589">
				<ele>22.025</ele>
				<time>2015-07-04T09:08:23Z</time>
				<extensions>
				</extensions>
			</trkpt>
			<trkpt lat="-27.609806" lon="153.121445">
				<ele>26.473</ele>
				<time>2015-07-04T09:08:24Z</time>
				<extensions>
				</extensions>
			</trkpt>
			<trkpt lat="-27.609581" lon="153.121304">
				<ele>28.161</ele>
				<time>2015-07-04T09:08:25Z</time>
				<extensions>
				</extensions>
			</trkpt>
			<trkpt lat="-27.609349" lon="153.121158">
				<ele>28.954</ele>
				<time>2015-07-04T09:08:26Z</time>
				<extensions>
				</extensions>
			</trkpt>
			<trkpt lat="-27.609128" lon="153.121015">
				<ele>29.212</ele>
				<time>2015-07-04T09:08:27Z</time>
				<extensions>
				</extensions>
			</trkpt>
			<trkpt lat="-27.608900" lon="153.120865">
				<ele>31.632</ele>
				<time>2015-07-04T09:08:28Z</time>
				<extensions>
				</extensions>
			</trkpt>
			<trkpt lat="-27.608674" lon="153.120717">
				<ele>30.831</ele>
				<time>2015-07-04T09:08:29Z</time>
				<extensions>
				</extensions>
			</trkpt>
			<trkpt lat="-27.608448" lon="153.120579">
				<ele>31.340</ele>
				<time>2015-07-04T09:08:30Z</time>
				<extensions>
				</extensions>
			</trkpt>
			<trkpt lat="-27.608230" lon="153.120435">
				<ele>32.892</ele>
				<time>2015-07-04T09:08:31Z</time>
				<extensions>
				</extensions>
			</trkpt>
			<trkpt lat="-27.608011" lon="153.120293">
				<ele>33.178</ele>
				<time>2015-07-04T09:08:32Z</time>
				<extensions>
				</extensions>
			</trkpt>
			<trkpt lat="-27.607793" lon="153.120145">
				<ele>33.884</ele>
				<time>2015-07-04T09:08:33Z</time>
				<extensions>
				</extensions>
			</trkpt>
			<trkpt lat="-27.607565" lon="153.119999">
				<ele>33.461</ele>
				<time>2015-07-04T09:08:34Z</time>
				<extensions>
				</extensions>
			</trkpt>
			<trkpt lat="-27.607344" lon="153.119854">
				<ele>34.043</ele>
				<time>2015-07-04T09:08:35Z</time>
				<extensions>
				</extensions>
			</trkpt>
			<trkpt lat="-27.607127" lon="153.119713">
				<ele>34.829</ele>
				<time>2015-07-04T09:08:36Z</time>
				<extensions>
				</extensions>
			</trkpt>
			<trkpt lat="-27.606902" lon="153.119572">
				<ele>34.403</ele>
				<time>2015-07-04T09:08:37Z</time>
				<extensions>
				</extensions>
			</trkpt>
			<trkpt lat="-27.606685" lon="153.119430">
				<ele>34.977</ele>
				<time>2015-07-04T09:08:38Z</time>
				<extensions>
				</extensions>
			</trkpt>
			<trkpt lat="-27.606471" lon="153.119292">
				<ele>34.459</ele>
				<time>2015-07-04T09:08:39Z</time>
				<extensions>
				</extensions>
			</trkpt>
			<trkpt lat="-27.606244" lon="153.119150">
				<ele>34.736</ele>
				<time>2015-07-04T09:08:40Z</time>
				<extensions>
				</extensions>
			</trkpt>
			<trkpt lat="-27.606020" lon="153.119005">
				<ele>35.372</ele>
				<time>2015-07-04T09:08:41Z</time>
				<extensions>
				</extensions>
			</trkpt>
			<trkpt lat="-27.605796" lon="153.118865">
				<ele>35.269</ele>
				<time>2015-07-04T09:08:42Z</time>
				<extensions>
				</extensions>
			</trkpt>
			<trkpt lat="-27.605576" lon="153.118728">
				<ele>34.332</ele>
				<time>2015-07-04T09:08:43Z</time>
				<extensions>
				</extensions>
			</trkpt>
			<trkpt lat="-27.605350" lon="153.118582">
				<ele>33.921</ele>
				<time>2015-07-04T09:08:44Z</time>
				<extensions>
				</extensions>
			</trkpt>
			<trkpt lat="-27.605123" lon="153.118436">
				<ele>34.059</ele>
				<time>2015-07-04T09:08:45Z</time>
				<extensions>
				</extensions>
			</trkpt>
			<trkpt lat="-27.604899" lon="153.118293">
				<ele>33.831</ele>
				<time>2015-07-04T09:08:46Z</time>
				<extensions>
				</extensions>
			</trkpt>
			<trkpt lat="-27.604678" lon="153.118151">
				<ele>32.641</ele>
				<time>2015-07-04T09:08:47Z</time>
				<extensions>
				</extensions>
			</trkpt>
			<trkpt lat="-27.604457" lon="153.118013">
				<ele>31.130</ele>
				<time>2015-07-04T09:08:48Z</time>
				<extensions>
				</extensions>
			</trkpt>
			<trkpt lat="-27.604243" lon="153.117867">
				<ele>32.498</ele>
				<time>2015-07-04T09:08:49Z</time>
				<extensions>
				</extensions>
			</trkpt>
			<trkpt lat="-27.604029" lon="153.117725">
				<ele>31.118</ele>
				<time>2015-07-04T09:08:50Z</time>
				<extensions>
				</extensions>
			</trkpt>
			<trkpt lat="-27.603810" lon="153.117579">
				<ele>30.876</ele>
				<time>2015-07-04T09:08:51Z</time>
				<extensions>
				</extensions>
			</trkpt>
			<trkpt lat="-27.603593" lon="153.117432">
				<ele>32.662</ele>
				<time>2015-07-04T09:08:52Z</time>
				<extensions>
				</extensions>
			</trkpt>
			<trkpt lat="-27.603366" lon="153.117287">
				<ele>31.740</ele>
				<time>2015-07-04T09:08:53Z</time>
				<extensions>
				</extensions>
			</trkpt>
			<trkpt lat="-27.603136" lon="153.117146">
				<ele>32.796</ele>
				<time>2015-07-04T09:08:54Z</time>
				<extensions>
				</extensions>
			</trkpt>
			<trkpt lat="-27.602910" lon="153.117003">
				<ele>32.535</ele>
				<time>2015-07-04T09:08:55Z</time>
				<extensions>
				</extensions>
			</trkpt>
			<trkpt lat="-27.602683" lon="153.116854">
				<ele>32.702</ele>
				<time>2015-07-04T09:08:56Z</time>
				<extensions>
				</extensions>
			</trkpt>
			<trkpt lat="-27.602459" lon="153.116714">
				<ele>32.702</ele>
				<time>2015-07-04T09:08:57Z</time>
				<extensions>
				</extensions>
			</trkpt>
			<trkpt lat="-27.602250" lon="153.116575">
				<ele>32.838</ele>
				<time>2015-07-04T09:08:58Z</time>
				<extensions>
				</extensions>
			</trkpt>
			<trkpt lat="-27.602031" lon="153.116438">
				<ele>32.821</ele>
				<time>2015-07-04T09:08:59Z</time>
				<extensions>
				</extensions>
			</trkpt>
			<trkpt lat="-27.601812" lon="153.116299">
				<ele>31.991</ele>
				<time>2015-07-04T09:09:00Z</time>
				<extensions>
				</extensions>
			</trkpt>
			<trkpt lat="-27.601604" lon="153.116167">
				<ele>32.753</ele>
				<time>2015-07-04T09:09:01Z</time>
				<extensions>
				</extensions>
			</trkpt>
			<trkpt lat="-27.601377" lon="153.116012">
				<ele>32.761</ele>
				<time>2015-07-04T09:09:02Z</time>
				<extensions>
				</extensions>
			</trkpt>
			<trkpt lat="-27.601155" lon="153.115869">
				<ele>35.170</ele>
				<time>2015-07-04T09:09:03Z</time>
				<extensions>
				</extensions>
			</trkpt>
			<trkpt lat="-27.600934" lon="153.115725">
				<ele>36.535</ele>
				<time>2015-07-04T09:09:04Z</time>
				<extensions>
				</extensions>
			</trkpt>
			<trkpt lat="-27.600716" lon="153.115581">
				<ele>34.359</ele>
				<time>2015-07-04T09:09:05Z</time>
				<extensions>
				</extensions>
			</trkpt>
			<trkpt lat="-27.600493" lon="153.115444">
				<ele>36.711</ele>
				<time>2015-07-04T09:09:06Z</time>
				<extensions>
				</extensions>
			</trkpt>
			<trkpt lat="-27.600260" lon="153.115296">
				<ele>35.827</ele>
				<time>2015-07-04T09:09:07Z</time>
				<extensions>
				</extensions>
			</trkpt>
			<trkpt lat="-27.600039" lon="153.115158">
				<ele>36.321</ele>
				<time>2015-07-04T09:09:08Z</time>
				<extensions>
				</extensions>
			</trkpt>
			<trkpt lat="-27.599813" lon="153.115016">
				<ele>37.144</ele>
				<time>2015-07-04T09:09:09Z</time>
				<extensions>
				</extensions>
			</trkpt>
			<trkpt lat="-27.599595" lon="153.114871">
				<ele>37.372</ele>
				<time>2015-07-04T09:09:10Z</time>
				<extensions>
				</extensions>
			</trkpt>
			<trkpt lat="-27.599373" lon="153.114731">
				<ele>37.380</ele>
				<time>2015-07-04T09:09:11Z</time>
				<extensions>
				</extensions>
			</trkpt>
			<trkpt lat="-27.599149" lon="153.114586">
				<ele>38.102</ele>
				<time>2015-07-04T09:09:12Z</time>
				<extensions>
				</extensions>
			</trkpt>
			<trkpt lat="-27.598928" lon="153.114445">
				<ele>39.557</ele>
				<time>2015-07-04T09:09:13Z</time>
				<extensions>
				</extensions>
			</trkpt>
			<trkpt lat="-27.598706" lon="153.114305">
				<ele>39.180</ele>
				<time>2015-07-04T09:09:14Z</time>
				<extensions>
				</extensions>
			</trkpt>
			<trkpt lat="-27.598489" lon="153.114165">
				<ele>40.843</ele>
				<time>2015-07-04T09:09:15Z</time>
				<extensions>
				</extensions>
			</trkpt>
			<trkpt lat="-27.598270" lon="153.114021">
				<ele>41.241</ele>
				<time>2015-07-04T09:09:16Z</time>
				<extensions>
				</extensions>
			</trkpt>
			<trkpt lat="-27.598051" lon="153.113874">
				<ele>41.848</ele>
				<time>2015-07-04T09:09:17Z</time>
				<extensions>
				</extensions>
			</trkpt>
			<trkpt lat="-27.597833" lon="153.113727">
				<ele>43.932</ele>
				<time>2015-07-04T09:09:18Z</time>
				<extensions>
				</extensions>
			</trkpt>
			<trkpt lat="-27.597607" lon="153.113582">
				<ele>43.376</ele>
				<time>2015-07-04T09:09:19Z</time>
				<extensions>
				</extensions>
			</trkpt>
			<trkpt lat="-27.597389" lon="153.113434">
				<ele>43.111</ele>
				<time>2015-07-04T09:09:20Z</time>
				<extensions>
				</extensions>
			</trkpt>
			<trkpt lat="-27.597170" lon="153.113283">
				<ele>43.661</ele>
				<time>2015-07-04T09:09:21Z</time>
				<extensions>
				</extensions>
			</trkpt>
			<trkpt lat="-27.596943" lon="153.113144">
				<ele>44.327</ele>
				<time>2015-07-04T09:09:22Z</time>
				<extensions>
				</extensions>
			</trkpt>
			<trkpt lat="-27.596720" lon="153.112999">
				<ele>45.242</ele>
				<time>2015-07-04T09:09:23Z</time>
				<extensions>
				</extensions>
			</trkpt>
			<trkpt lat="-27.596496" lon="153.112856">
				<ele>44.602</ele>
				<time>2015-07-04T09:09:24Z</time>
				<extensions>
				</extensions>
			</trkpt>
			<trkpt lat="-27.596284" lon="153.112715">
				<ele>44.434</ele>
				<time>2015-07-04T09:09:25Z</time>
				<extensions>
				</extensions>
			</trkpt>
			<trkpt lat="-27.596064" lon="153.112575">
				<ele>43.144</ele>
				<time>2015-07-04T09:09:26Z</time>
				<extensions>
				</extensions>
			</trkpt>
			<trkpt lat="-27.595844" lon="153.112437">
				<ele>44.322</ele>
				<time>2015-07-04T09:09:27Z</time>
				<extensions>
				</extensions>
			</trkpt>
			<trkpt lat="-27.595626" lon="153.112297">
				<ele>43.511</ele>
				<time>2015-07-04T09:09:28Z</time>
				<extensions>
				</extensions>
			</trkpt>
			<trkpt lat="-27.595404" lon="153.112162">
				<ele>44.358</ele>
				<time>2015-07-04T09:09:29Z</time>
				<extensions>
				</extensions>
			</trkpt>
			<trkpt lat="-27.595199" lon="153.112035">
				<ele>42.328</ele>
				<time>2015-07-04T09:09:30Z</time>
				<extensions>
				</extensions>
			</trkpt>
			<trkpt lat="-27.594976" lon="153.111899">
				<ele>42.030</ele>
				<time>2015-07-04T09:09:31Z</time>
				<extensions>
				</extensions>
			</trkpt>
			<trkpt lat="-27.594751" lon="153.111754">
				<ele>42.241</ele>
				<time>2015-07-04T09:09:32Z</time>
				<extensions>
				</extensions>
			</trkpt>
			<trkpt lat="-27.594526" lon="153.111611">
				<ele>41.579</ele>
				<time>2015-07-04T09:09:33Z</time>
				<extensions>
				</extensions>
			</trkpt>
			<trkpt lat="-27.594303" lon="153.111462">
				<ele>42.051</ele>
				<time>2015-07-04T09:09:34Z</time>
				<extensions>
				</extensions>
			</trkpt>
			<trkpt lat="-27.594080" lon="153.111316">
				<ele>40.853</ele>
				<time>2015-07-04T09:09:35Z</time>
				<extensions>
				</extensions>
			</trkpt>
			<trkpt lat="-27.593848" lon="153.111173">
				<ele>38.974</ele>
				<time>2015-07-04T09:09:36Z</time>
				<extensions>
				</extensions>
			</trkpt>
			<trkpt lat="-27.593629" lon="153.111030">
				<ele>39.648</ele>
				<time>2015-07-04T09:09:37Z</time>
				<extensions>
				</extensions>
			</trkpt>
			<trkpt lat="-27.593400" lon="153.110883">
				<ele>38.831</ele>
				<time>2015-07-04T09:09:38Z</time>
				<extensions>
				</extensions>
			</trkpt>
			<trkpt lat="-27.593181" lon="153.110744">
				<ele>37.020</ele>
				<time>2015-07-04T09:09:39Z</time>
				<extensions>
				</extensions>
			</trkpt>
			<trkpt lat="-27.592955" lon="153.110603">
				<ele>39.215</ele>
				<time>2015-07-04T09:09:40Z</time>
				<extensions>
				</extensions>
			</trkpt>
			<trkpt lat="-27.592729" lon="153.110457">
				<ele>40.260</ele>
				<time>2015-07-04T09:09:41Z</time>
				<extensions>
				</extensions>
			</trkpt>
			<trkpt lat="-27.592513" lon="153.110315">
				<ele>38.907</ele>
				<time>2015-07-04T09:09:42Z</time>
				<extensions>
				</extensions>
			</trkpt>
			<trkpt lat="-27.592292" lon="153.110171">
				<ele>37.917</ele>
				<time>2015-07-04T09:09:43Z</time>
				<extensions>
				</extensions>
			</trkpt>
			<trkpt lat="-27.592066" lon="153.110029">
				<ele>36.618</ele>
				<time>2015-07-04T09:09:44Z</time>
				<extensions>
				</extensions>
			</trkpt>
			<trkpt lat="-27.591840" lon="153.109884">
				<ele>36.197</ele>
				<time>2015-07-04T09:09:45Z</time>
				<extensions>
				</extensions>
			</trkpt>
			<trkpt lat="-27.591622" lon="153.109738">
				<ele>35.864</ele>
				<time>2015-07-04T09:09:46Z</time>
				<extensions>
				</extensions>
			</trkpt>
			<trkpt lat="-27.591400" lon="153.109605">
				<ele>35.899</ele>
				<time>2015-07-04T09:09:47Z</time>
				<extensions>
				</extensions>
			</trkpt>
			<trkpt lat="-27.591171" lon="153.109456">
				<ele>33.789</ele>
				<time>2015-07-04T09:09:48Z</time>
				<extensions>
				</extensions>
			</trkpt>
			<trkpt lat="-27.590949" lon="153.109314">
				<ele>34.716</ele>
				<time>2015-07-04T09:09:49Z</time>
				<extensions>
				</extensions>
			</trkpt>
			<trkpt lat="-27.590730" lon="153.109172">
				<ele>34.300</ele>
				<time>2015-07-04T09:09:50Z</time>
				<extensions>
				</extensions>
			</trkpt>
			<trkpt lat="-27.590515" lon="153.109030">
				<ele>31.994</ele>
				<time>2015-07-04T09:09:51Z</time>
				<extensions>
				</extensions>
			</trkpt>
			<trkpt lat="-27.590290" lon="153.108888">
				<ele>31.698</ele>
				<time>2015-07-04T09:09:52Z</time>
				<extensions>
				</extensions>
			</trkpt>
			<trkpt lat="-27.590086" lon="153.108751">
				<ele>30.516</ele>
				<time>2015-07-04T09:09:53Z</time>
				<extensions>
				</extensions>
			</trkpt>
			<trkpt lat="-27.589868" lon="153.108614">
				<ele>30.834</ele>
				<time>2015-07-04T09:09:54Z</time>
				<extensions>
				</extensions>
			</trkpt>
			<trkpt lat="-27.589651" lon="153.108470">
				<ele>30.134</ele>
				<time>2015-07-04T09:09:55Z</time>
				<extensions>
				</extensions>
			</trkpt>
			<trkpt lat="-27.589441" lon="153.108326">
				<ele>31.774</ele>
				<time>2015-07-04T09:09:56Z</time>
				<extensions>
				</extensions>
			</trkpt>
			<trkpt lat="-27.589219" lon="153.108189">
				<ele>29.970</ele>
				<time>2015-07-04T09:09:57Z</time>
				<extensions>
				</extensions>
			</trkpt>
			<trkpt lat="-27.589000" lon="153.108047">
				<ele>30.432</ele>
				<time>2015-07-04T09:09:58Z</time>
				<extensions>
				</extensions>
			</trkpt>
			<trkpt lat="-27.588783" lon="153.107912">
				<ele>30.119</ele>
				<time>2015-07-04T09:09:59Z</time>
				<extensions>
				</extensions>
			</trkpt>
			<trkpt lat="-27.588556" lon="153.107764">
				<ele>30.148</ele>
				<time>2015-07-04T09:10:00Z</time>
				<extensions>
				</extensions>
			</trkpt>
			<trkpt lat="-27.588331" lon="153.107625">
				<ele>30.148</ele>
				<time>2015-07-04T09:10:01Z</time>
				<extensions>
				</extensions>
			</trkpt>
			<trkpt lat="-27.588119" lon="153.107486">
				<ele>27.775</ele>
				<time>2015-07-04T09:10:02Z</time>
				<extensions>
				</extensions>
			</trkpt>
			<trkpt lat="-27.587905" lon="153.107336">
				<ele>27.940</ele>
				<time>2015-07-04T09:10:03Z</time>
				<extensions>
				</extensions>
			</trkpt>
			<trkpt lat="-27.587702" lon="153.107191">
				<ele>28.063</ele>
				<time>2015-07-04T09:10:04Z</time>
				<extensions>
				</extensions>
			</trkpt>
			<trkpt lat="-27.587475" lon="153.107053">
				<ele>27.112</ele>
				<time>2015-07-04T09:10:05Z</time>
				<extensions>
				</extensions>
			</trkpt>
			<trkpt lat="-27.587247" lon="153.106905">
				<ele>27.277</ele>
				<time>2015-07-04T09:10:06Z</time>
				<extensions>
				</extensions>
			</trkpt>
			<trkpt lat="-27.587030" lon="153.106776">
				<ele>27.186</ele>
				<time>2015-07-04T09:10:07Z</time>
				<extensions>
				</extensions>
			</trkpt>
			<trkpt lat="-27.586816" lon="153.106627">
				<ele>25.086</ele>
				<time>2015-07-04T09:10:08Z</time>
				<extensions>
				</extensions>
			</trkpt>
			<trkpt lat="-27.586592" lon="153.106483">
				<ele>24.664</ele>
				<time>2015-07-04T09:10:09Z</time>
				<extensions>
				</extensions>
			</trkpt>
			<trkpt lat="-27.586377" lon="153.106342">
				<ele>24.301</ele>
				<time>2015-07-04T09:10:10Z</time>
				<extensions>
				</extensions>
			</trkpt>
			<trkpt lat="-27.586142" lon="153.106204">
				<ele>24.064</ele>
				<time>2015-07-04T09:10:11Z</time>
				<extensions>
				</extensions>
			</trkpt>
			<trkpt lat="-27.585934" lon="153.106056">
				<ele>23.587</ele>
				<time>2015-07-04T09:10:12Z</time>
				<extensions>
				</extensions>
			</trkpt>
			<trkpt lat="-27.585720" lon="153.105920">
				<ele>24.240</ele>
				<time>2015-07-04T09:10:13Z</time>
				<extensions>
				</extensions>
			</trkpt>
			<trkpt lat="-27.585516" lon="153.105785">
				<ele>23.166</ele>
				<time>2015-07-04T09:10:14Z</time>
				<extensions>
				</extensions>
			</trkpt>
			<trkpt lat="-27.585315" lon="153.105654">
				<ele>22.142</ele>
				<time>2015-07-04T09:10:15Z</time>
				<extensions>
				</extensions>
			</trkpt>
			<trkpt lat="-27.585119" lon="153.105524">
				<ele>22.672</ele>
				<time>2015-07-04T09:10:16Z</time>
				<extensions>
				</extensions>
			</trkpt>
			<trkpt lat="-27.584916" lon="153.105401">
				<ele>20.899</ele>
				<time>2015-07-04T09:10:17Z</time>
				<extensions>
				</extensions>
			</trkpt>
			<trkpt lat="-27.584713" lon="153.105271">
				<ele>21.194</ele>
				<time>2015-07-04T09:10:18Z</time>
				<extensions>
				</extensions>
			</trkpt>
			<trkpt lat="-27.584500" lon="153.105138">
				<ele>20.312</ele>
				<time>2015-07-04T09:10:19Z</time>
				<extensions>
				</extensions>
			</trkpt>
			<trkpt lat="-27.584289" lon="153.105007">
				<ele>20.694</ele>
				<time>2015-07-04T09:10:20Z</time>
				<extensions>
				</extensions>
			</trkpt>
			<trkpt lat="-27.584085" lon="153.104879">
				<ele>20.742</ele>
				<time>2015-07-04T09:10:21Z</time>
				<extensions>
				</extensions>
			</trkpt>
			<trkpt lat="-27.583881" lon="153.104750">
				<ele>21.294</ele>
				<time>2015-07-04T09:10:22Z</time>
				<extensions>
				</extensions>
			</trkpt>
			<trkpt lat="-27.583677" lon="153.104615">
				<ele>22.179</ele>
				<time>2015-07-04T09:10:23Z</time>
				<extensions>
				</extensions>
			</trkpt>
			<trkpt lat="-27.583475" lon="153.104473">
				<ele>22.787</ele>
				<time>2015-07-04T09:10:24Z</time>
				<extensions>
				</extensions>
			</trkpt>
			<trkpt lat="-27.583280" lon="153.104340">
				<ele>21.907</ele>
				<time>2015-07-04T09:10:25Z</time>
				<extensions>
				</extensions>
			</trkpt>
			<trkpt lat="-27.583087" lon="153.104206">
				<ele>20.375</ele>
				<time>2015-07-04T09:10:26Z</time>
				<extensions>
				</extensions>
			</trkpt>
			<trkpt lat="-27.582891" lon="153.104074">
				<ele>19.237</ele>
				<time>2015-07-04T09:10:27Z</time>
				<extensions>
				</extensions>
			</trkpt>
			<trkpt lat="-27.582692" lon="153.103941">
				<ele>18.645</ele>
				<time>2015-07-04T09:10:28Z</time>
				<extensions>
				</extensions>
			</trkpt>
			<trkpt lat="-27.582492" lon="153.103807">
				<ele>19.410</ele>
				<time>2015-07-04T09:10:29Z</time>
				<extensions>
				</extensions>
			</trkpt>
			<trkpt lat="-27.582272" lon="153.103671">
				<ele>21.873</ele>
				<time>2015-07-04T09:10:30Z</time>
				<extensions>
				</extensions>
			</trkpt>
			<trkpt lat="-27.582048" lon="153.103533">
				<ele>24.288</ele>
				<time>2015-07-04T09:10:31Z</time>
				<extensions>
				</extensions>
			</trkpt>
			<trkpt lat="-27.581826" lon="153.103389">
				<ele>24.549</ele>
				<time>2015-07-04T09:10:32Z</time>
				<extensions>
				</extensions>
			</trkpt>
			<trkpt lat="-27.581602" lon="153.103248">
				<ele>24.268</ele>
				<time>2015-07-04T09:10:33Z</time>
				<extensions>
				</extensions>
			</trkpt>
			<trkpt lat="-27.581379" lon="153.103105">
				<ele>24.909</ele>
				<time>2015-07-04T09:10:34Z</time>
				<extensions>
				</extensions>
			</trkpt>
			<trkpt lat="-27.581156" lon="153.102961">
				<ele>24.307</ele>
				<time>2015-07-04T09:10:35Z</time>
				<extensions>
				</extensions>
			</trkpt>
			<trkpt lat="-27.580930" lon="153.102813">
				<ele>24.657</ele>
				<time>2015-07-04T09:10:36Z</time>
				<extensions>
				</extensions>
			</trkpt>
			<trkpt lat="-27.580710" lon="153.102668">
				<ele>24.324</ele>
				<time>2015-07-04T09:10:37Z</time>
				<extensions>
				</extensions>
			</trkpt>
			<trkpt lat="-27.580480" lon="153.102517">
				<ele>22.691</ele>
				<time>2015-07-04T09:10:38Z</time>
				<extensions>
				</extensions>
			</trkpt>
			<trkpt lat="-27.580261" lon="153.102381">
				<ele>21.930</ele>
				<time>2015-07-04T09:10:39Z</time>
				<extensions>
				</extensions>
			</trkpt>
			<trkpt lat="-27.580032" lon="153.102240">
				<ele>23.948</ele>
				<time>2015-07-04T09:10:40Z</time>
				<extensions>
				</extensions>
			</trkpt>
			<trkpt lat="-27.579818" lon="153.102101">
				<ele>24.386</ele>
				<time>2015-07-04T09:10:41Z</time>
				<extensions>
				</extensions>
			</trkpt>
			<trkpt lat="-27.579606" lon="153.101957">
				<ele>24.373</ele>
				<time>2015-07-04T09:10:42Z</time>
				<extensions>
				</extensions>
			</trkpt>
			<trkpt lat="-27.579397" lon="153.101811">
				<ele>25.712</ele>
				<time>2015-07-04T09:10:43Z</time>
				<extensions>
				</extensions>
			</trkpt>
			<trkpt lat="-27.579181" lon="153.101670">
				<ele>26.916</ele>
				<time>2015-07-04T09:10:44Z</time>
				<extensions>
				</extensions>
			</trkpt>
			<trkpt lat="-27.578964" lon="153.101537">
				<ele>27.403</ele>
				<time>2015-07-04T09:10:45Z</time>
				<extensions>
				</extensions>
			</trkpt>
			<trkpt lat="-27.578739" lon="153.101393">
				<ele>27.358</ele>
				<time>2015-07-04T09:10:46Z</time>
				<extensions>
				</extensions>
			</trkpt>
			<trkpt lat="-27.578514" lon="153.101253">
				<ele>26.952</ele>
				<time>2015-07-04T09:10:47Z</time>
				<extensions>
				</extensions>
			</trkpt>
			<trkpt lat="-27.578298" lon="153.101110">
				<ele>27.639</ele>
				<time>2015-07-04T09:10:48Z</time>
				<extensions>
				</extensions>
			</trkpt>
			<trkpt lat="-27.578072" lon="153.100973">
				<ele>28.281</ele>
				<time>2015-07-04T09:10:49Z</time>
				<extensions>
				</extensions>
			</trkpt>
			<trkpt lat="-27.577850" lon="153.100835">
				<ele>28.487</ele>
				<time>2015-07-04T09:10:50Z</time>
				<extensions>
				</extensions>
			</trkpt>
			<trkpt lat="-27.577634" lon="153.100688">
				<ele>30.541</ele>
				<time>2015-07-04T09:10:51Z</time>
				<extensions>
				</extensions>
			</trkpt>
			<trkpt lat="-27.577397" lon="153.100542">
				<ele>31.708</ele>
				<time>2015-07-04T09:10:52Z</time>
				<extensions>
				</extensions>
			</trkpt>
			<trkpt lat="-27.577175" lon="153.100392">
				<ele>32.254</ele>
				<time>2015-07-04T09:10:53Z</time>
				<extensions>
				</extensions>
			</trkpt>
			<trkpt lat="-27.576960" lon="153.100237">
				<ele>32.397</ele>
				<time>2015-07-04T09:10:54Z</time>
				<extensions>
				</extensions>
			</trkpt>
			<trkpt lat="-27.576749" lon="153.100082">
				<ele>33.189</ele>
				<time>2015-07-04T09:10:55Z</time>
				<extensions>
				</extensions>
			</trkpt>
			<trkpt lat="-27.576551" lon="153.099910">
				<ele>34.872</ele>
				<time>2015-07-04T09:10:56Z</time>
				<extensions>
				</extensions>
			</trkpt>
			<trkpt lat="-27.576340" lon="153.099736">
				<ele>37.164</ele>
				<time>2015-07-04T09:10:57Z</time>
				<extensions>
				</extensions>
			</trkpt>
			<trkpt lat="-27.576142" lon="153.099558">
				<ele>38.100</ele>
				<time>2015-07-04T09:10:58Z</time>
				<extensions>
				</extensions>
			</trkpt>
			<trkpt lat="-27.575952" lon="153.099374">
				<ele>39.543</ele>
				<time>2015-07-04T09:10:59Z</time>
				<extensions>
				</extensions>
			</trkpt>
			<trkpt lat="-27.575766" lon="153.099183">
				<ele>40.176</ele>
				<time>2015-07-04T09:11:00Z</time>
				<extensions>
				</extensions>
			</trkpt>
			<trkpt lat="-27.575574" lon="153.098989">
				<ele>38.827</ele>
				<time>2015-07-04T09:11:01Z</time>
				<extensions>
				</extensions>
			</trkpt>
			<trkpt lat="-27.575378" lon="153.098789">
				<ele>38.827</ele>
				<time>2015-07-04T09:11:02Z</time>
				<extensions>
				</extensions>
			</trkpt>
			<trkpt lat="-27.575203" lon="153.098589">
				<ele>38.793</ele>
				<time>2015-07-04T09:11:03Z</time>
				<extensions>
				</extensions>
			</trkpt>
			<trkpt lat="-27.575014" lon="153.098384">
				<ele>39.015</ele>
				<time>2015-07-04T09:11:04Z</time>
				<extensions>
				</extensions>
			</trkpt>
			<trkpt lat="-27.574829" lon="153.098178">
				<ele>39.280</ele>
				<time>2015-07-04T09:11:05Z</time>
				<extensions>
				</extensions>
			</trkpt>
			<trkpt lat="-27.574651" lon="153.097970">
				<ele>38.986</ele>
				<time>2015-07-04T09:11:06Z</time>
				<extensions>
				</extensions>
			</trkpt>
			<trkpt lat="-27.574474" lon="153.097766">
				<ele>38.569</ele>
				<time>2015-07-04T09:11:07Z</time>
				<extensions>
				</extensions>
			</trkpt>
			<trkpt lat="-27.574295" lon="153.097557">
				<ele>37.721</ele>
				<time>2015-07-04T09:11:08Z</time>
				<extensions>
				</extensions>
			</trkpt>
			<trkpt lat="-27.574126" lon="153.097352">
				<ele>37.215</ele>
				<time>2015-07-04T09:11:09Z</time>
				<extensions>
				</extensions>
			</trkpt>
			<trkpt lat="-27.573962" lon="153.097138">
				<ele>35.477</ele>
				<time>2015-07-04T09:11:10Z</time>
				<extensions>
				</extensions>
			</trkpt>
			<trkpt lat="-27.573811" lon="153.096917">
				<ele>35.109</ele>
				<time>2015-07-04T09:11:11Z</time>
				<extensions>
				</extensions>
			</trkpt>
			<trkpt lat="-27.573657" lon="153.096693">
				<ele>34.840</ele>
				<time>2015-07-04T09:11:12Z</time>
				<extensions>
				</extensions>
			</trkpt>
			<trkpt lat="-27.573502" lon="153.096459">
				<ele>34.518</ele>
				<time>2015-07-04T09:11:13Z</time>
				<extensions>
				</extensions>
			</trkpt>
			<trkpt lat="-27.573354" lon="153.096232">
				<ele>33.149</ele>
				<time>2015-07-04T09:11:14Z</time>
				<extensions>
				</extensions>
			</trkpt>
			<trkpt lat="-27.573222" lon="153.095996">
				<ele>32.307</ele>
				<time>2015-07-04T09:11:15Z</time>
				<extensions>
				</extensions>
			</trkpt>
			<trkpt lat="-27.573085" lon="153.095752">
				<ele>31.564</ele>
				<time>2015-07-04T09:11:16Z</time>
				<extensions>
				</extensions>
			</trkpt>
			<trkpt lat="-27.572944" lon="153.095507">
				<ele>31.883</ele>
				<time>2015-07-04T09:11:17Z</time>
				<extensions>
				</extensions>
			</trkpt>
			<trkpt lat="-27.572803" lon="153.095262">
				<ele>31.036</ele>
				<time>2015-07-04T09:11:18Z</time>
				<extensions>
				</extensions>
			</trkpt>
			<trkpt lat="-27.572669" lon="153.095015">
				<ele>30.734</ele>
				<time>2015-07-04T09:11:19Z</time>
				<extensions>
				</extensions>
			</trkpt>
			<trkpt lat="-27.572529" lon="153.094764">
				<ele>30.683</ele>
				<time>2015-07-04T09:11:20Z</time>
				<extensions>
				</extensions>
			</trkpt>
			<trkpt lat="-27.572398" lon="153.094516">
				<ele>31.798</ele>
				<time>2015-07-04T09:11:21Z</time>
				<extensions>
				</extensions>
			</trkpt>
			<trkpt lat="-27.572260" lon="153.094267">
				<ele>31.587</ele>
				<time>2015-07-04T09:11:22Z</time>
				<extensions>
				</extensions>
			</trkpt>
			<trkpt lat="-27.572122" lon="153.094023">
				<ele>32.406</ele>
				<time>2015-07-04T09:11:23Z</time>
				<extensions>
				</extensions>
			</trkpt>
			<trkpt lat="-27.571995" lon="153.093780">
				<ele>31.019</ele>
				<time>2015-07-04T09:11:24Z</time>
				<extensions>
				</extensions>
			</trkpt>
			<trkpt lat="-27.571856" lon="153.093528">
				<ele>31.231</ele>
				<time>2015-07-04T09:11:25Z</time>
				<extensions>
				</extensions>
			</trkpt>
			<trkpt lat="-27.571724" lon="153.093283">
				<ele>31.206</ele>
				<time>2015-07-04T09:11:26Z</time>
				<extensions>
				</extensions>
			</trkpt>
			<trkpt lat="-27.571586" lon="153.093038">
				<ele>31.686</ele>
				<time>2015-07-04T09:11:27Z</time>
				<extensions>
				</extensions>
			</trkpt>
			<trkpt lat="-27.571460" lon="153.092796">
				<ele>31.550</ele>
				<time>2015-07-04T09:11:28Z</time>
				<extensions>
				</extensions>
			</trkpt>
			<trkpt lat="-27.571330" lon="153.092551">
				<ele>32.295</ele>
				<time>2015-07-04T09:11:29Z</time>
				<extensions>
				</extensions>
			</trkpt>
			<trkpt lat="-27.571196" lon="153.092308">
				<ele>34.104</ele>
				<time>2015-07-04T09:11:30Z</time>
				<extensions>
				</extensions>
			</trkpt>
			<trkpt lat="-27.571071" lon="153.092066">
				<ele>33.427</ele>
				<time>2015-07-04T09:11:31Z</time>
				<extensions>
				</extensions>
			</trkpt>
			<trkpt lat="-27.570943" lon="153.091824">
				<ele>32.291</ele>
				<time>2015-07-04T09:11:32Z</time>
				<extensions>
				</extensions>
			</trkpt>
			<trkpt lat="-27.570801" lon="153.091581">
				<ele>32.807</ele>
				<time>2015-07-04T09:11:33Z</time>
				<extensions>
				</extensions>
			</trkpt>
			<trkpt lat="-27.570656" lon="153.091342">
				<ele>33.119</ele>
				<time>2015-07-04T09:11:34Z</time>
				<extensions>
				</extensions>
			</trkpt>
			<trkpt lat="-27.570533" lon="153.091096">
				<ele>31.771</ele>
				<time>2015-07-04T09:11:35Z</time>
				<extensions>
				</extensions>
			</trkpt>
			<trkpt lat="-27.570407" lon="153.090853">
				<ele>31.251</ele>
				<time>2015-07-04T09:11:36Z</time>
				<extensions>
				</extensions>
			</trkpt>
			<trkpt lat="-27.570276" lon="153.090605">
				<ele>31.745</ele>
				<time>2015-07-04T09:11:37Z</time>
				<extensions>
				</extensions>
			</trkpt>
			<trkpt lat="-27.570149" lon="153.090371">
				<ele>31.804</ele>
				<time>2015-07-04T09:11:38Z</time>
				<extensions>
				</extensions>
			</trkpt>
			<trkpt lat="-27.570014" lon="153.090137">
				<ele>31.151</ele>
				<time>2015-07-04T09:11:39Z</time>
				<extensions>
				</extensions>
			</trkpt>
			<trkpt lat="-27.569883" lon="153.089902">
				<ele>32.555</ele>
				<time>2015-07-04T09:11:40Z</time>
				<extensions>
				</extensions>
			</trkpt>
			<trkpt lat="-27.569753" lon="153.089665">
				<ele>31.403</ele>
				<time>2015-07-04T09:11:41Z</time>
				<extensions>
				</extensions>
			</trkpt>
			<trkpt lat="-27.569620" lon="153.089426">
				<ele>31.323</ele>
				<time>2015-07-04T09:11:42Z</time>
				<extensions>
				</extensions>
			</trkpt>
			<trkpt lat="-27.569490" lon="153.089188">
				<ele>30.990</ele>
				<time>2015-07-04T09:11:43Z</time>
				<extensions>
				</extensions>
			</trkpt>
			<trkpt lat="-27.569355" lon="153.088946">
				<ele>30.068</ele>
				<time>2015-07-04T09:11:44Z</time>
				<extensions>
				</extensions>
			</trkpt>
			<trkpt lat="-27.569222" lon="153.088699">
				<ele>29.761</ele>
				<time>2015-07-04T09:11:45Z</time>
				<extensions>
				</extensions>
			</trkpt>
			<trkpt lat="-27.569093" lon="153.088454">
				<ele>28.183</ele>
				<time>2015-07-04T09:11:46Z</time>
				<extensions>
				</extensions>
			</trkpt>
			<trkpt lat="-27.568962" lon="153.088221">
				<ele>27.773</ele>
				<time>2015-07-04T09:11:47Z</time>
				<extensions>
				</extensions>
			</trkpt>
			<trkpt lat="-27.568830" lon="153.087982">
				<ele>26.776</ele>
				<time>2015-07-04T09:11:48Z</time>
				<extensions>
				</extensions>
			</trkpt>
			<trkpt lat="-27.568697" lon="153.087739">
				<ele>26.378</ele>
				<time>2015-07-04T09:11:49Z</time>
				<extensions>
				</extensions>
			</trkpt>
			<trkpt lat="-27.568557" lon="153.087494">
				<ele>25.663</ele>
				<time>2015-07-04T09:11:50Z</time>
				<extensions>
				</extensions>
			</trkpt>
			<trkpt lat="-27.568418" lon="153.087246">
				<ele>25.950</ele>
				<time>2015-07-04T09:11:51Z</time>
				<extensions>
				</extensions>
			</trkpt>
			<trkpt lat="-27.568271" lon="153.087002">
				<ele>24.797</ele>
				<time>2015-07-04T09:11:52Z</time>
				<extensions>
				</extensions>
			</trkpt>
			<trkpt lat="-27.568133" lon="153.086764">
				<ele>24.552</ele>
				<time>2015-07-04T09:11:53Z</time>
				<extensions>
				</extensions>
			</trkpt>
			<trkpt lat="-27.567998" lon="153.086527">
				<ele>25.911</ele>
				<time>2015-07-04T09:11:54Z</time>
				<extensions>
				</extensions>
			</trkpt>
			<trkpt lat="-27.567864" lon="153.086299">
				<ele>24.735</ele>
				<time>2015-07-04T09:11:55Z</time>
				<extensions>
				</extensions>
			</trkpt>
			<trkpt lat="-27.567725" lon="153.086071">
				<ele>24.939</ele>
				<time>2015-07-04T09:11:56Z</time>
				<extensions>
				</extensions>
			</trkpt>
			<trkpt lat="-27.567573" lon="153.085838">
				<ele>26.401</ele>
				<time>2015-07-04T09:11:57Z</time>
				<extensions>
				</extensions>
			</trkpt>
			<trkpt lat="-27.567432" lon="153.085606">
				<ele>28.078</ele>
				<time>2015-07-04T09:11:58Z</time>
				<extensions>
				</extensions>
			</trkpt>
			<trkpt lat="-27.567281" lon="153.085378">
				<ele>28.980</ele>
				<time>2015-07-04T09:11:59Z</time>
				<extensions>
				</extensions>
			</trkpt>
			<trkpt lat="-27.567151" lon="153.085153">
				<ele>29.891</ele>
				<time>2015-07-04T09:12:00Z</time>
				<extensions>
				</extensions>
			</trkpt>
			<trkpt lat="-27.567001" lon="153.084918">
				<ele>30.515</ele>
				<time>2015-07-04T09:12:01Z</time>
				<extensions>
				</extensions>
			</trkpt>
			<trkpt lat="-27.566856" lon="153.084687">
				<ele>31.187</ele>
				<time>2015-07-04T09:12:02Z</time>
				<extensions>
				</extensions>
			</trkpt>
			<trkpt lat="-27.566712" lon="153.084454">
				<ele>32.678</ele>
				<time>2015-07-04T09:12:03Z</time>
				<extensions>
				</extensions>
			</trkpt>
			<trkpt lat="-27.566573" lon="153.084219">
				<ele>32.931</ele>
				<time>2015-07-04T09:12:04Z</time>
				<extensions>
				</extensions>
			</trkpt>
			<trkpt lat="-27.566423" lon="153.083984">
				<ele>34.547</ele>
				<time>2015-07-04T09:12:05Z</time>
				<extensions>
				</extensions>
			</trkpt>
			<trkpt lat="-27.566274" lon="153.083748">
				<ele>36.508</ele>
				<time>2015-07-04T09:12:06Z</time>
				<extensions>
				</extensions>
			</trkpt>
			<trkpt lat="-27.566124" lon="153.083518">
				<ele>36.508</ele>
				<time>2015-07-04T09:12:07Z</time>
				<extensions>
				</extensions>
			</trkpt>
			<trkpt lat="-27.565977" lon="153.083289">
				<ele>36.755</ele>
				<time>2015-07-04T09:12:08Z</time>
				<extensions>
				</extensions>
			</trkpt>
			<trkpt lat="-27.565834" lon="153.083059">
				<ele>38.314</ele>
				<time>2015-07-04T09:12:09Z</time>
				<extensions>
				</extensions>
			</trkpt>
			<trkpt lat="-27.565683" lon="153.082826">
				<ele>38.012</ele>
				<time>2015-07-04T09:12:10Z</time>
				<extensions>
				</extensions>
			</trkpt>
			<trkpt lat="-27.565537" lon="153.082600">
				<ele>39.355</ele>
				<time>2015-07-04T09:12:11Z</time>
				<extensions>
				</extensions>
			</trkpt>
			<trkpt lat="-27.565390" lon="153.082371">
				<ele>41.108</ele>
				<time>2015-07-04T09:12:12Z</time>
				<extensions>
				</extensions>
			</trkpt>
			<trkpt lat="-27.565239" lon="153.082141">
				<ele>41.464</ele>
				<time>2015-07-04T09:12:13Z</time>
				<extensions>
				</extensions>
			</trkpt>
			<trkpt lat="-27.565087" lon="153.081918">
				<ele>44.518</ele>
				<time>2015-07-04T09:12:14Z</time>
				<extensions>
				</extensions>
			</trkpt>
			<trkpt lat="-27.564939" lon="153.081689">
				<ele>44.604</ele>
				<time>2015-07-04T09:12:15Z</time>
				<extensions>
				</extensions>
			</trkpt>
			<trkpt lat="-27.564790" lon="153.081452">
				<ele>45.626</ele>
				<time>2015-07-04T09:12:16Z</time>
				<extensions>
				</extensions>
			</trkpt>
			<trkpt lat="-27.564637" lon="153.081216">
				<ele>46.106</ele>
				<time>2015-07-04T09:12:17Z</time>
				<extensions>
				</extensions>
			</trkpt>
			<trkpt lat="-27.564487" lon="153.080983">
				<ele>47.176</ele>
				<time>2015-07-04T09:12:18Z</time>
				<extensions>
				</extensions>
			</trkpt>
			<trkpt lat="-27.564338" lon="153.080748">
				<ele>49.035</ele>
				<time>2015-07-04T09:12:19Z</time>
				<extensions>
				</extensions>
			</trkpt>
			<trkpt lat="-27.564196" lon="153.080510">
				<ele>49.077</ele>
				<time>2015-07-04T09:12:20Z</time>
				<extensions>
				</extensions>
			</trkpt>
			<trkpt lat="-27.564046" lon="153.080277">
				<ele>48.558</ele>
				<time>2015-07-04T09:12:21Z</time>
				<extensions>
				</extensions>
			</trkpt>
			<trkpt lat="-27.563906" lon="153.080046">
				<ele>48.428</ele>
				<time>2015-07-04T09:12:22Z</time>
				<extensions>
				</extensions>
			</trkpt>
			<trkpt lat="-27.563761" lon="153.079816">
				<ele>48.385</ele>
				<time>2015-07-04T09:12:23Z</time>
				<extensions>
				</extensions>
			</trkpt>
			<trkpt lat="-27.563612" lon="153.079585">
				<ele>49.010</ele>
				<time>2015-07-04T09:12:24Z</time>
				<extensions>
				</extensions>
			</trkpt>
			<trkpt lat="-27.563458" lon="153.079361">
				<ele>48.697</ele>
				<time>2015-07-04T09:12:25Z</time>
				<extensions>
				</extensions>
			</trkpt>
			<trkpt lat="-27.563300" lon="153.079139">
				<ele>49.379</ele>
				<time>2015-07-04T09:12:26Z</time>
				<extensions>
				</extensions>
			</trkpt>
			<trkpt lat="-27.563148" lon="153.078918">
				<ele>48.953</ele>
				<time>2015-07-04T09:12:27Z</time>
				<extensions>
				</extensions>
			</trkpt>
			<trkpt lat="-27.562985" lon="153.078700">
				<ele>46.745</ele>
				<time>2015-07-04T09:12:28Z</time>
				<extensions>
				</extensions>
			</trkpt>
			<trkpt lat="-27.562825" lon="153.078481">
				<ele>47.489</ele>
				<time>2015-07-04T09:12:29Z</time>
				<extensions>
				</extensions>
			</trkpt>
			<trkpt lat="-27.562660" lon="153.078260">
				<ele>45.852</ele>
				<time>2015-07-04T09:12:30Z</time>
				<extensions>
				</extensions>
			</trkpt>
			<trkpt lat="-27.562498" lon="153.078039">
				<ele>45.256</ele>
				<time>2015-07-04T09:12:31Z</time>
				<extensions>
				</extensions>
			</trkpt>
			<trkpt lat="-27.562330" lon="153.077824">
				<ele>44.913</ele>
				<time>2015-07-04T09:12:32Z</time>
				<extensions>
				</extensions>
			</trkpt>
			<trkpt lat="-27.562156" lon="153.077613">
				<ele>43.000</ele>
				<time>2015-07-04T09:12:33Z</time>
				<extensions>
				</extensions>
			</trkpt>
			<trkpt lat="-27.561982" lon="153.077396">
				<ele>41.592</ele>
				<time>2015-07-04T09:12:34Z</time>
				<extensions>
				</extensions>
			</trkpt>
			<trkpt lat="-27.561798" lon="153.077184">
				<ele>39.939</ele>
				<time>2015-07-04T09:12:35Z</time>
				<extensions>
				</extensions>
			</trkpt>
			<trkpt lat="-27.561628" lon="153.076970">
				<ele>39.440</ele>
				<time>2015-07-04T09:12:36Z</time>
				<extensions>
				</extensions>
			</trkpt>
			<trkpt lat="-27.561451" lon="153.076752">
				<ele>38.894</ele>
				<time>2015-07-04T09:12:37Z</time>
				<extensions>
				</extensions>
			</trkpt>
			<trkpt lat="-27.561271" lon="153.076535">
				<ele>38.399</ele>
				<time>2015-07-04T09:12:38Z</time>
				<extensions>
				</extensions>
			</trkpt>
			<trkpt lat="-27.561088" lon="153.076326">
				<ele>37.999</ele>
				<time>2015-07-04T09:12:39Z</time>
				<extensions>
				</extensions>
			</trkpt>
			<trkpt lat="-27.560924" lon="153.076138">
				<ele>36.606</ele>
				<time>2015-07-04T09:12:40Z</time>
				<extensions>
				</extensions>
			</trkpt>
			<trkpt lat="-27.560760" lon="153.075940">
				<ele>37.690</ele>
				<time>2015-07-04T09:12:41Z</time>
				<extensions>
				</extensions>
			</trkpt>
			<trkpt lat="-27.560577" lon="153.075743">
				<ele>37.609</ele>
				<time>2015-07-04T09:12:42Z</time>
				<extensions>
				</extensions>
			</trkpt>
			<trkpt lat="-27.560392" lon="153.075549">
				<ele>36.765</ele>
				<time>2015-07-04T09:12:43Z</time>
				<extensions>
				</extensions>
			</trkpt>
			<trkpt lat="-27.560198" lon="153.075355">
				<ele>39.160</ele>
				<time>2015-07-04T09:12:44Z</time>
				<extensions>
				</extensions>
			</trkpt>
			<trkpt lat="-27.560003" lon="153.075166">
				<ele>38.779</ele>
				<time>2015-07-04T09:12:45Z</time>
				<extensions>
				</extensions>
			</trkpt>
			<trkpt lat="-27.559812" lon="153.074980">
				<ele>38.726</ele>
				<time>2015-07-04T09:12:46Z</time>
				<extensions>
				</extensions>
			</trkpt>
			<trkpt lat="-27.559619" lon="153.074791">
				<ele>38.796</ele>
				<time>2015-07-04T09:12:47Z</time>
				<extensions>
				</extensions>
			</trkpt>
			<trkpt lat="-27.559433" lon="153.074603">
				<ele>37.753</ele>
				<time>2015-07-04T09:12:48Z</time>
				<extensions>
				</extensions>
			</trkpt>
			<trkpt lat="-27.559238" lon="153.074416">
				<ele>37.046</ele>
				<time>2015-07-04T09:12:49Z</time>
				<extensions>
				</extensions>
			</trkpt>
			<trkpt lat="-27.559037" lon="153.074232">
				<ele>37.626</ele>
				<time>2015-07-04T09:12:50Z</time>
				<extensions>
				</extensions>
			</trkpt>
			<trkpt lat="-27.558837" lon="153.074051">
				<ele>38.454</ele>
				<time>2015-07-04T09:12:51Z</time>
				<extensions>
				</extensions>
			</trkpt>
			<trkpt lat="-27.558634" lon="153.073873">
				<ele>39.392</ele>
				<time>2015-07-04T09:12:52Z</time>
				<extensions>
				</extensions>
			</trkpt>
			<trkpt lat="-27.558430" lon="153.073699">
				<ele>40.131</ele>
				<time>2015-07-04T09:12:53Z</time>
				<extensions>
				</extensions>
			</trkpt>
			<trkpt lat="-27.558220" lon="153.073514">
				<ele>40.739</ele>
				<time>2015-07-04T09:12:54Z</time>
				<extensions>
				</extensions>
			</trkpt>
			<trkpt lat="-27.558016" lon="153.073343">
				<ele>40.645</ele>
				<time>2015-07-04T09:12:55Z</time>
				<extensions>
				</extensions>
			</trkpt>
			<trkpt lat="-27.557816" lon="153.073169">
				<ele>41.255</ele>
				<time>2015-07-04T09:12:56Z</time>
				<extensions>
				</extensions>
			</trkpt>
			<trkpt lat="-27.557614" lon="153.072999">
				<ele>41.505</ele>
				<time>2015-07-04T09:12:57Z</time>
				<extensions>
				</extensions>
			</trkpt>
			<trkpt lat="-27.557417" lon="153.072825">
				<ele>42.484</ele>
				<time>2015-07-04T09:12:58Z</time>
				<extensions>
				</extensions>
			</trkpt>
			<trkpt lat="-27.557219" lon="153.072644">
				<ele>42.451</ele>
				<time>2015-07-04T09:12:59Z</time>
				<extensions>
				</extensions>
			</trkpt>
			<trkpt lat="-27.557021" lon="153.072478">
				<ele>42.943</ele>
				<time>2015-07-04T09:13:00Z</time>
				<extensions>
				</extensions>
			</trkpt>
			<trkpt lat="-27.556815" lon="153.072302">
				<ele>43.787</ele>
				<time>2015-07-04T09:13:01Z</time>
				<extensions>
				</extensions>
			</trkpt>
			<trkpt lat="-27.556622" lon="153.072134">
				<ele>43.924</ele>
				<time>2015-07-04T09:13:02Z</time>
				<extensions>
				</extensions>
			</trkpt>
			<trkpt lat="-27.556422" lon="153.071967">
				<ele>45.521</ele>
				<time>2015-07-04T09:13:03Z</time>
				<extensions>
				</extensions>
			</trkpt>
			<trkpt lat="-27.556216" lon="153.071805">
				<ele>47.338</ele>
				<time>2015-07-04T09:13:04Z</time>
				<extensions>
				</extensions>
			</trkpt>
			<trkpt lat="-27.556014" lon="153.071636">
				<ele>47.716</ele>
				<time>2015-07-04T09:13:05Z</time>
				<extensions>
				</extensions>
			</trkpt>
			<trkpt lat="-27.555823" lon="153.071469">
				<ele>47.377</ele>
				<time>2015-07-04T09:13:06Z</time>
				<extensions>
				</extensions>
			</trkpt>
			<trkpt lat="-27.555623" lon="153.071306">
				<ele>48.935</ele>
				<time>2015-07-04T09:13:07Z</time>
				<extensions>
				</extensions>
			</trkpt>
			<trkpt lat="-27.555421" lon="153.071137">
				<ele>51.203</ele>
				<time>2015-07-04T09:13:08Z</time>
				<extensions>
				</extensions>
			</trkpt>
			<trkpt lat="-27.555218" lon="153.070971">
				<ele>51.203</ele>
				<time>2015-07-04T09:13:09Z</time>
				<extensions>
				</extensions>
			</trkpt>
			<trkpt lat="-27.555011" lon="153.070799">
				<ele>51.388</ele>
				<time>2015-07-04T09:13:10Z</time>
				<extensions>
				</extensions>
			</trkpt>
			<trkpt lat="-27.554808" lon="153.070629">
				<ele>51.741</ele>
				<time>2015-07-04T09:13:11Z</time>
				<extensions>
				</extensions>
			</trkpt>
			<trkpt lat="-27.554613" lon="153.070455">
				<ele>52.238</ele>
				<time>2015-07-04T09:13:12Z</time>
				<extensions>
				</extensions>
			</trkpt>
			<trkpt lat="-27.554405" lon="153.070283">
				<ele>52.664</ele>
				<time>2015-07-04T09:13:13Z</time>
				<extensions>
				</extensions>
			</trkpt>
			<trkpt lat="-27.554199" lon="153.070115">
				<ele>51.909</ele>
				<time>2015-07-04T09:13:14Z</time>
				<extensions>
				</extensions>
			</trkpt>
			<trkpt lat="-27.553991" lon="153.069949">
				<ele>51.583</ele>
				<time>2015-07-04T09:13:15Z</time>
				<extensions>
				</extensions>
			</trkpt>
			<trkpt lat="-27.553796" lon="153.069785">
				<ele>50.808</ele>
				<time>2015-07-04T09:13:16Z</time>
				<extensions>
				</extensions>
			</trkpt>
			<trkpt lat="-27.553595" lon="153.069609">
				<ele>50.914</ele>
				<time>2015-07-04T09:13:17Z</time>
				<extensions>
				</extensions>
			</trkpt>
			<trkpt lat="-27.553394" lon="153.069435">
				<ele>53.261</ele>
				<time>2015-07-04T09:13:18Z</time>
				<extensions>
				</extensions>
			</trkpt>
			<trkpt lat="-27.553192" lon="153.069264">
				<ele>53.105</ele>
				<time>2015-07-04T09:13:19Z</time>
				<extensions>
				</extensions>
			</trkpt>
			<trkpt lat="-27.552989" lon="153.069097">
				<ele>53.973</ele>
				<time>2015-07-04T09:13:20Z</time>
				<extensions>
				</extensions>
			</trkpt>
			<trkpt lat="-27.552791" lon="153.068919">
				<ele>53.387</ele>
				<time>2015-07-04T09:13:21Z</time>
				<extensions>
				</extensions>
			</trkpt>
			<trkpt lat="-27.552584" lon="153.068740">
				<ele>54.154</ele>
				<time>2015-07-04T09:13:22Z</time>
				<extensions>
				</extensions>
			</trkpt>
			<trkpt lat="-27.552382" lon="153.068572">
				<ele>53.677</ele>
				<time>2015-07-04T09:13:23Z</time>
				<extensions>
				</extensions>
			</trkpt>
			<trkpt lat="-27.552182" lon="153.068393">
				<ele>54.418</ele>
				<time>2015-07-04T09:13:24Z</time>
				<extensions>
				</extensions>
			</trkpt>
			<trkpt lat="-27.551979" lon="153.068222">
				<ele>54.124</ele>
				<time>2015-07-04T09:13:25Z</time>
				<extensions>
				</extensions>
			</trkpt>
			<trkpt lat="-27.551776" lon="153.068059">
				<ele>53.754</ele>
				<time>2015-07-04T09:13:26Z</time>
				<extensions>
				</extensions>
			</trkpt>
			<trkpt lat="-27.551578" lon="153.067894">
				<ele>54.625</ele>
				<time>2015-07-04T09:13:27Z</time>
				<extensions>
				</extensions>
			</trkpt>
			<trkpt lat="-27.551373" lon="153.067730">
				<ele>54.521</ele>
				<time>2015-07-04T09:13:28Z</time>
				<extensions>
				</extensions>
			</trkpt>
			<trkpt lat="-27.551177" lon="153.067560">
				<ele>54.908</ele>
				<time>2015-07-04T09:13:29Z</time>
				<extensions>
				</extensions>
			</trkpt>
			<trkpt lat="-27.550973" lon="153.067391">
				<ele>54.205</ele>
				<time>2015-07-04T09:13:30Z</time>
				<extensions>
				</extensions>
			</trkpt>
			<trkpt lat="-27.550768" lon="153.067217">
				<ele>56.055</ele>
				<time>2015-07-04T09:13:31Z</time>
				<extensions>
				</extensions>
			</trkpt>
			<trkpt lat="-27.550571" lon="153.067042">
				<ele>56.378</ele>
				<time>2015-07-04T09:13:32Z</time>
				<extensions>
				</extensions>
			</trkpt>
			<trkpt lat="-27.550370" lon="153.066870">
				<ele>56.251</ele>
				<time>2015-07-04T09:13:33Z</time>
				<extensions>
				</extensions>
			</trkpt>
			<trkpt lat="-27.550164" lon="153.066710">
				<ele>57.018</ele>
				<time>2015-07-04T09:13:34Z</time>
				<extensions>
				</extensions>
			</trkpt>
			<trkpt lat="-27.549957" lon="153.066543">
				<ele>57.530</ele>
				<time>2015-07-04T09:13:35Z</time>
				<extensions>
				</extensions>
			</trkpt>
			<trkpt lat="-27.549747" lon="153.066372">
				<ele>58.901</ele>
				<time>2015-07-04T09:13:36Z</time>
				<extensions>
				</extensions>
			</trkpt>
			<trkpt lat="-27.549541" lon="153.066195">
				<ele>59.468</ele>
				<time>2015-07-04T09:13:37Z</time>
				<extensions>
				</extensions>
			</trkpt>
			<trkpt lat="-27.549340" lon="153.066023">
				<ele>59.147</ele>
				<time>2015-07-04T09:13:38Z</time>
				<extensions>
				</extensions>
			</trkpt>
			<trkpt lat="-27.549141" lon="153.065851">
				<ele>60.331</ele>
				<time>2015-07-04T09:13:39Z</time>
				<extensions>
				</extensions>
			</trkpt>
			<trkpt lat="-27.548945" lon="153.065678">
				<ele>61.465</ele>
				<time>2015-07-04T09:13:40Z</time>
				<extensions>
				</extensions>
			</trkpt>
			<trkpt lat="-27.548740" lon="153.065497">
				<ele>62.088</ele>
				<time>2015-07-04T09:13:41Z</time>
				<extensions>
				</extensions>
			</trkpt>
			<trkpt lat="-27.548538" lon="153.065331">
				<ele>61.772</ele>
				<time>2015-07-04T09:13:42Z</time>
				<extensions>
				</extensions>
			</trkpt>
			<trkpt lat="-27.548342" lon="153.065161">
				<ele>62.838</ele>
				<time>2015-07-04T09:13:43Z</time>
				<extensions>
				</extensions>
			</trkpt>
			<trkpt lat="-27.548142" lon="153.064983">
				<ele>63.464</ele>
				<time>2015-07-04T09:13:44Z</time>
				<extensions>
				</extensions>
			</trkpt>
			<trkpt lat="-27.547942" lon="153.064823">
				<ele>65.214</ele>
				<time>2015-07-04T09:13:45Z</time>
				<extensions>
				</extensions>
			</trkpt>
			<trkpt lat="-27.547737" lon="153.064649">
				<ele>65.779</ele>
				<time>2015-07-04T09:13:46Z</time>
				<extensions>
				</extensions>
			</trkpt>
			<trkpt lat="-27.547528" lon="153.064475">
				<ele>66.099</ele>
				<time>2015-07-04T09:13:47Z</time>
				<extensions>
				</extensions>
			</trkpt>
			<trkpt lat="-27.547322" lon="153.064300">
				<ele>66.965</ele>
				<time>2015-07-04T09:13:48Z</time>
				<extensions>
				</extensions>
			</trkpt>
			<trkpt lat="-27.547120" lon="153.064128">
				<ele>68.100</ele>
				<time>2015-07-04T09:13:49Z</time>
				<extensions>
				</extensions>
			</trkpt>
			<trkpt lat="-27.546916" lon="153.063959">
				<ele>68.279</ele>
				<time>2015-07-04T09:13:50Z</time>
				<extensions>
				</extensions>
			</trkpt>
			<trkpt lat="-27.546717" lon="153.063786">
				<ele>68.308</ele>
				<time>2015-07-04T09:13:51Z</time>
				<extensions>
				</extensions>
			</trkpt>
			<trkpt lat="-27.546510" lon="153.063618">
				<ele>68.016</ele>
				<time>2015-07-04T09:13:52Z</time>
				<extensions>
				</extensions>
			</trkpt>
			<trkpt lat="-27.546307" lon="153.063452">
				<ele>70.217</ele>
				<time>2015-07-04T09:13:53Z</time>
				<extensions>
				</extensions>
			</trkpt>
			<trkpt lat="-27.546105" lon="153.063283">
				<ele>70.582</ele>
				<time>2015-07-04T09:13:54Z</time>
				<extensions>
				</extensions>
			</trkpt>
			<trkpt lat="-27.545900" lon="153.063110">
				<ele>70.666</ele>
				<time>2015-07-04T09:13:55Z</time>
				<extensions>
				</extensions>
			</trkpt>
			<trkpt lat="-27.545701" lon="153.062931">
				<ele>71.699</ele>
				<time>2015-07-04T09:13:56Z</time>
				<extensions>
				</extensions>
			</trkpt>
			<trkpt lat="-27.545494" lon="153.062758">
				<ele>71.777</ele>
				<time>2015-07-04T09:13:57Z</time>
				<extensions>
				</extensions>
			</trkpt>
			<trkpt lat="-27.545282" lon="153.062586">
				<ele>70.189</ele>
				<time>2015-07-04T09:13:58Z</time>
				<extensions>
				</extensions>
			</trkpt>
			<trkpt lat="-27.545078" lon="153.062420">
				<ele>70.685</ele>
				<time>2015-07-04T09:13:59Z</time>
				<extensions>
				</extensions>
			</trkpt>
			<trkpt lat="-27.544871" lon="153.062251">
				<ele>72.490</ele>
				<time>2015-07-04T09:14:00Z</time>
				<extensions>
				</extensions>
			</trkpt>
			<trkpt lat="-27.544670" lon="153.062083">
				<ele>72.748</ele>
				<time>2015-07-04T09:14:01Z</time>
				<extensions>
				</extensions>
			</trkpt>
			<trkpt lat="-27.544465" lon="153.061913">
				<ele>71.492</ele>
				<time>2015-07-04T09:14:02Z</time>
				<extensions>
				</extensions>
			</trkpt>
			<trkpt lat="-27.544263" lon="153.061753">
				<ele>69.478</ele>
				<time>2015-07-04T09:14:03Z</time>
				<extensions>
				</extensions>
			</trkpt>
			<trkpt lat="-27.544057" lon="153.061596">
				<ele>69.062</ele>
				<time>2015-07-04T09:14:04Z</time>
				<extensions>
				</extensions>
			</trkpt>
			<trkpt lat="-27.543849" lon="153.061446">
				<ele>66.982</ele>
				<time>2015-07-04T09:14:05Z</time>
				<extensions>
				</extensions>
			</trkpt>
			<trkpt lat="-27.543640" lon="153.061294">
				<ele>66.753</ele>
				<time>2015-07-04T09:14:06Z</time>
				<extensions>
				</extensions>
			</trkpt>
			<trkpt lat="-27.543432" lon="153.061156">
				<ele>64.970</ele>
				<time>2015-07-04T09:14:07Z</time>
				<extensions>
				</extensions>
			</trkpt>
			<trkpt lat="-27.543218" lon="153.061025">
				<ele>65.579</ele>
				<time>2015-07-04T09:14:08Z</time>
				<extensions>
				</extensions>
			</trkpt>
			<trkpt lat="-27.543000" lon="153.060887">
				<ele>64.563</ele>
				<time>2015-07-04T09:14:09Z</time>
				<extensions>
				</extensions>
			</trkpt>
			<trkpt lat="-27.542776" lon="153.060756">
				<ele>63.725</ele>
				<time>2015-07-04T09:14:10Z</time>
				<extensions>
				</extensions>
			</trkpt>
			<trkpt lat="-27.542561" lon="153.060631">
				<ele>63.451</ele>
				<time>2015-07-04T09:14:11Z</time>
				<extensions>
				</extensions>
			</trkpt>
			<trkpt lat="-27.542325" lon="153.060501">
				<ele>63.451</ele>
				<time>2015-07-04T09:14:12Z</time>
				<extensions>
				</extensions>
			</trkpt>
			<trkpt lat="-27.542091" lon="153.060376">
				<ele>64.949</ele>
				<time>2015-07-04T09:14:13Z</time>
				<extensions>
				</extensions>
			</trkpt>
			<trkpt lat="-27.541867" lon="153.060260">
				<ele>61.425</ele>
				<time>2015-07-04T09:14:14Z</time>
				<extensions>
				</extensions>
			</trkpt>
			<trkpt lat="-27.541630" lon="153.060142">
				<ele>61.522</ele>
				<time>2015-07-04T09:14:15Z</time>
				<extensions>
				</extensions>
			</trkpt>
			<trkpt lat="-27.541392" lon="153.060031">
				<ele>60.135</ele>
				<time>2015-07-04T09:14:16Z</time>
				<extensions>
				</extensions>
			</trkpt>
			<trkpt lat="-27.541163" lon="153.059921">
				<ele>59.233</ele>
				<time>2015-07-04T09:14:17Z</time>
				<extensions>
				</extensions>
			</trkpt>
			<trkpt lat="-27.540934" lon="153.059795">
				<ele>57.023</ele>
				<time>2015-07-04T09:14:18Z</time>
				<extensions>
				</extensions>
			</trkpt>
			<trkpt lat="-27.540703" lon="153.059681">
				<ele>57.579</ele>
				<time>2015-07-04T09:14:19Z</time>
				<extensions>
				</extensions>
			</trkpt>
			<trkpt lat="-27.540461" lon="153.059591">
				<ele>53.669</ele>
				<time>2015-07-04T09:14:20Z</time>
				<extensions>
				</extensions>
			</trkpt>
			<trkpt lat="-27.540220" lon="153.059500">
				<ele>54.360</ele>
				<time>2015-07-04T09:14:21Z</time>
				<extensions>
				</extensions>
			</trkpt>
			<trkpt lat="-27.539977" lon="153.059413">
				<ele>52.800</ele>
				<time>2015-07-04T09:14:22Z</time>
				<extensions>
				</extensions>
			</trkpt>
			<trkpt lat="-27.539740" lon="153.059332">
				<ele>51.653</ele>
				<time>2015-07-04T09:14:23Z</time>
				<extensions>
				</extensions>
			</trkpt>
			<trkpt lat="-27.539496" lon="153.059259">
				<ele>49.873</ele>
				<time>2015-07-04T09:14:24Z</time>
				<extensions>
				</extensions>
			</trkpt>
			<trkpt lat="-27.539248" lon="153.059182">
				<ele>49.677</ele>
				<time>2015-07-04T09:14:25Z</time>
				<extensions>
				</extensions>
			</trkpt>
			<trkpt lat="-27.539015" lon="153.059113">
				<ele>49.733</ele>
				<time>2015-07-04T09:14:26Z</time>
				<extensions>
				</extensions>
			</trkpt>
			<trkpt lat="-27.538769" lon="153.059048">
				<ele>48.446</ele>
				<time>2015-07-04T09:14:27Z</time>
				<extensions>
				</extensions>
			</trkpt>
			<trkpt lat="-27.538518" lon="153.058975">
				<ele>46.690</ele>
				<time>2015-07-04T09:14:28Z</time>
				<extensions>
				</extensions>
			</trkpt>
			<trkpt lat="-27.538268" lon="153.058912">
				<ele>45.971</ele>
				<time>2015-07-04T09:14:29Z</time>
				<extensions>
				</extensions>
			</trkpt>
			<trkpt lat="-27.538014" lon="153.058848">
				<ele>44.041</ele>
				<time>2015-07-04T09:14:30Z</time>
				<extensions>
				</extensions>
			</trkpt>
			<trkpt lat="-27.537761" lon="153.058785">
				<ele>41.824</ele>
				<time>2015-07-04T09:14:31Z</time>
				<extensions>
				</extensions>
			</trkpt>
			<trkpt lat="-27.537505" lon="153.058733">
				<ele>41.045</ele>
				<time>2015-07-04T09:14:32Z</time>
				<extensions>
				</extensions>
			</trkpt>
			<trkpt lat="-27.537254" lon="153.058677">
				<ele>38.863</ele>
				<time>2015-07-04T09:14:33Z</time>
				<extensions>
				</extensions>
			</trkpt>
			<trkpt lat="-27.537011" lon="153.058608">
				<ele>38.279</ele>
				<time>2015-07-04T09:14:34Z</time>
				<extensions>
				</extensions>
			</trkpt>
			<trkpt lat="-27.536753" lon="153.058555">
				<ele>38.291</ele>
				<time>2015-07-04T09:14:35Z</time>
				<extensions>
				</extensions>
			</trkpt>
			<trkpt lat="-27.536499" lon="153.058501">
				<ele>39.445</ele>
				<time>2015-07-04T09:14:36Z</time>
				<extensions>
				</extensions>
			</trkpt>
			<trkpt lat="-27.536254" lon="153.058460">
				<ele>37.269</ele>
				<time>2015-07-04T09:14:37Z</time>
				<extensions>
				</extensions>
			</trkpt>
			<trkpt lat="-27.535993" lon="153.058398">
				<ele>35.340</ele>
				<time>2015-07-04T09:14:38Z</time>
				<extensions>
				</extensions>
			</trkpt>
			<trkpt lat="-27.535763" lon="153.058351">
				<ele>34.584</ele>
				<time>2015-07-04T09:14:39Z</time>
				<extensions>
				</extensions>
			</trkpt>
			<trkpt lat="-27.535518" lon="153.058305">
				<ele>33.307</ele>
				<time>2015-07-04T09:14:40Z</time>
				<extensions>
				</extensions>
			</trkpt>
			<trkpt lat="-27.535267" lon="153.058250">
				<ele>33.009</ele>
				<time>2015-07-04T09:14:41Z</time>
				<extensions>
				</extensions>
			</trkpt>
			<trkpt lat="-27.535017" lon="153.058200">
				<ele>31.823</ele>
				<time>2015-07-04T09:14:42Z</time>
				<extensions>
				</extensions>
			</trkpt>
			<trkpt lat="-27.534765" lon="153.058147">
				<ele>31.331</ele>
				<time>2015-07-04T09:14:43Z</time>
				<extensions>
				</extensions>
			</trkpt>
			<trkpt lat="-27.534516" lon="153.058101">
				<ele>30.284</ele>
				<time>2015-07-04T09:14:44Z</time>
				<extensions>
				</extensions>
			</trkpt>
			<trkpt lat="-27.534269" lon="153.058050">
				<ele>28.984</ele>
				<time>2015-07-04T09:14:45Z</time>
				<extensions>
				</extensions>
			</trkpt>
			<trkpt lat="-27.534014" lon="153.057995">
				<ele>27.124</ele>
				<time>2015-07-04T09:14:46Z</time>
				<extensions>
				</extensions>
			</trkpt>
			<trkpt lat="-27.533760" lon="153.057941">
				<ele>27.652</ele>
				<time>2015-07-04T09:14:47Z</time>
				<extensions>
				</extensions>
			</trkpt>
			<trkpt lat="-27.533502" lon="153.057884">
				<ele>28.128</ele>
				<time>2015-07-04T09:14:48Z</time>
				<extensions>
				</extensions>
			</trkpt>
			<trkpt lat="-27.533245" lon="153.057831">
				<ele>27.674</ele>
				<time>2015-07-04T09:14:49Z</time>
				<extensions>
				</extensions>
			</trkpt>
			<trkpt lat="-27.532992" lon="153.057773">
				<ele>27.647</ele>
				<time>2015-07-04T09:14:50Z</time>
				<extensions>
				</extensions>
			</trkpt>
			<trkpt lat="-27.532739" lon="153.057720">
				<ele>25.089</ele>
				<time>2015-07-04T09:14:51Z</time>
				<extensions>
				</extensions>
			</trkpt>
			<trkpt lat="-27.532489" lon="153.057671">
				<ele>25.301</ele>
				<time>2015-07-04T09:14:52Z</time>
				<extensions>
				</extensions>
			</trkpt>
			<trkpt lat="-27.532232" lon="153.057616">
				<ele>24.623</ele>
				<time>2015-07-04T09:14:53Z</time>
				<extensions>
				</extensions>
			</trkpt>
			<trkpt lat="-27.531986" lon="153.057561">
				<ele>22.986</ele>
				<time>2015-07-04T09:14:54Z</time>
				<extensions>
				</extensions>
			</trkpt>
			<trkpt lat="-27.531741" lon="153.057499">
				<ele>23.717</ele>
				<time>2015-07-04T09:14:55Z</time>
				<extensions>
				</extensions>
			</trkpt>
			<trkpt lat="-27.531498" lon="153.057448">
				<ele>21.892</ele>
				<time>2015-07-04T09:14:56Z</time>
				<extensions>
				</extensions>
			</trkpt>
			<trkpt lat="-27.531254" lon="153.057397">
				<ele>21.472</ele>
				<time>2015-07-04T09:14:57Z</time>
				<extensions>
				</extensions>
			</trkpt>
			<trkpt lat="-27.531009" lon="153.057349">
				<ele>23.539</ele>
				<time>2015-07-04T09:14:58Z</time>
				<extensions>
				</extensions>
			</trkpt>
			<trkpt lat="-27.530760" lon="153.057297">
				<ele>22.538</ele>
				<time>2015-07-04T09:14:59Z</time>
				<extensions>
				</extensions>
			</trkpt>
			<trkpt lat="-27.530516" lon="153.057247">
				<ele>21.488</ele>
				<time>2015-07-04T09:15:00Z</time>
				<extensions>
				</extensions>
			</trkpt>
			<trkpt lat="-27.530269" lon="153.057198">
				<ele>21.767</ele>
				<time>2015-07-04T09:15:01Z</time>
				<extensions>
				</extensions>
			</trkpt>
			<trkpt lat="-27.530023" lon="153.057145">
				<ele>21.355</ele>
				<time>2015-07-04T09:15:02Z</time>
				<extensions>
				</extensions>
			</trkpt>
			<trkpt lat="-27.529771" lon="153.057091">
				<ele>21.699</ele>
				<time>2015-07-04T09:15:03Z</time>
				<extensions>
				</extensions>
			</trkpt>
			<trkpt lat="-27.529521" lon="153.057042">
				<ele>20.666</ele>
				<time>2015-07-04T09:15:04Z</time>
				<extensions>
				</extensions>
			</trkpt>
			<trkpt lat="-27.529278" lon="153.056989">
				<ele>20.981</ele>
				<time>2015-07-04T09:15:05Z</time>
				<extensions>
				</extensions>
			</trkpt>
			<trkpt lat="-27.529044" lon="153.056939">
				<ele>20.618</ele>
				<time>2015-07-04T09:15:06Z</time>
				<extensions>
				</extensions>
			</trkpt>
			<trkpt lat="-27.528806" lon="153.056878">
				<ele>19.230</ele>
				<time>2015-07-04T09:15:07Z</time>
				<extensions>
				</extensions>
			</trkpt>
			<trkpt lat="-27.528567" lon="153.056833">
				<ele>20.738</ele>
				<time>2015-07-04T09:15:08Z</time>
				<extensions>
				</extensions>
			</trkpt>
			<trkpt lat="-27.528330" lon="153.056780">
				<ele>19.895</ele>
				<time>2015-07-04T09:15:09Z</time>
				<extensions>
				</extensions>
			</trkpt>
			<trkpt lat="-27.528089" lon="153.056716">
				<ele>21.150</ele>
				<time>2015-07-04T09:15:10Z</time>
				<extensions>
				</extensions>
			</trkpt>
			<trkpt lat="-27.527843" lon="153.056641">
				<ele>20.206</ele>
				<time>2015-07-04T09:15:11Z</time>
				<extensions>
				</extensions>
			</trkpt>
			<trkpt lat="-27.527604" lon="153.056573">
				<ele>20.697</ele>
				<time>2015-07-04T09:15:12Z</time>
				<extensions>
				</extensions>
			</trkpt>
			<trkpt lat="-27.527362" lon="153.056499">
				<ele>20.759</ele>
				<time>2015-07-04T09:15:13Z</time>
				<extensions>
				</extensions>
			</trkpt>
			<trkpt lat="-27.527122" lon="153.056417">
				<ele>20.086</ele>
				<time>2015-07-04T09:15:14Z</time>
				<extensions>
				</extensions>
			</trkpt>
			<trkpt lat="-27.526880" lon="153.056329">
				<ele>20.086</ele>
				<time>2015-07-04T09:15:15Z</time>
				<extensions>
				</extensions>
			</trkpt>
			<trkpt lat="-27.526644" lon="153.056240">
				<ele>20.593</ele>
				<time>2015-07-04T09:15:16Z</time>
				<extensions>
				</extensions>
			</trkpt>
			<trkpt lat="-27.526408" lon="153.056151">
				<ele>20.528</ele>
				<time>2015-07-04T09:15:17Z</time>
				<extensions>
				</extensions>
			</trkpt>
			<trkpt lat="-27.526181" lon="153.056059">
				<ele>20.828</ele>
				<time>2015-07-04T09:15:18Z</time>
				<extensions>
				</extensions>
			</trkpt>
			<trkpt lat="-27.525960" lon="153.055959">
				<ele>20.133</ele>
				<time>2015-07-04T09:15:19Z</time>
				<extensions>
				</extensions>
			</trkpt>
			<trkpt lat="-27.525738" lon="153.055852">
				<ele>19.997</ele>
				<time>2015-07-04T09:15:20Z</time>
				<extensions>
				</extensions>
			</trkpt>
			<trkpt lat="-27.525495" lon="153.055739">
				<ele>20.520</ele>
				<time>2015-07-04T09:15:21Z</time>
				<extensions>
				</extensions>
			</trkpt>
			<trkpt lat="-27.525273" lon="153.055625">
				<ele>20.258</ele>
				<time>2015-07-04T09:15:22Z</time>
				<extensions>
				</extensions>
			</trkpt>
			<trkpt lat="-27.525061" lon="153.055518">
				<ele>20.490</ele>
				<time>2015-07-04T09:15:23Z</time>
				<extensions>
				</extensions>
			</trkpt>
			<trkpt lat="-27.524846" lon="153.055396">
				<ele>19.586</ele>
				<time>2015-07-04T09:15:24Z</time>
				<extensions>
				</extensions>
			</trkpt>
			<trkpt lat="-27.524630" lon="153.055279">
				<ele>19.734</ele>
				<time>2015-07-04T09:15:25Z</time>
				<extensions>
				</extensions>
			</trkpt>
			<trkpt lat="-27.524427" lon="153.055150">
				<ele>18.986</ele>
				<time>2015-07-04T09:15:26Z</time>
				<extensions>
				</extensions>
			</trkpt>
			<trkpt lat="-27.524221" lon="153.055014">
				<ele>19.339</ele>
				<time>2015-07-04T09:15:27Z</time>
				<extensions>
				</extensions>
			</trkpt>
			<trkpt lat="-27.524019" lon="153.054875">
				<ele>18.746</ele>
				<time>2015-07-04T09:15:28Z</time>
				<extensions>
				</extensions>
			</trkpt>
			<trkpt lat="-27.523826" lon="153.054737">
				<ele>19.682</ele>
				<time>2015-07-04T09:15:29Z</time>
				<extensions>
				</extensions>
			</trkpt>
			<trkpt lat="-27.523628" lon="153.054583">
				<ele>18.634</ele>
				<time>2015-07-04T09:15:30Z</time>
				<extensions>
				</extensions>
			</trkpt>
			<trkpt lat="-27.523434" lon="153.054430">
				<ele>18.132</ele>
				<time>2015-07-04T09:15:31Z</time>
				<extensions>
				</extensions>
			</trkpt>
			<trkpt lat="-27.523237" lon="153.054278">
				<ele>18.022</ele>
				<time>2015-07-04T09:15:32Z</time>
				<extensions>
				</extensions>
			</trkpt>
			<trkpt lat="-27.523042" lon="153.054123">
				<ele>18.758</ele>
				<time>2015-07-04T09:15:33Z</time>
				<extensions>
				</extensions>
			</trkpt>
			<trkpt lat="-27.522837" lon="153.053970">
				<ele>18.455</ele>
				<time>2015-07-04T09:15:34Z</time>
				<extensions>
				</extensions>
			</trkpt>
			<trkpt lat="-27.522636" lon="153.053817">
				<ele>18.450</ele>
				<time>2015-07-04T09:15:35Z</time>
				<extensions>
				</extensions>
			</trkpt>
			<trkpt lat="-27.522442" lon="153.053661">
				<ele>18.999</ele>
				<time>2015-07-04T09:15:36Z</time>
				<extensions>
				</extensions>
			</trkpt>
			<trkpt lat="-27.522241" lon="153.053508">
				<ele>18.886</ele>
				<time>2015-07-04T09:15:37Z</time>
				<extensions>
				</extensions>
			</trkpt>
			<trkpt lat="-27.522045" lon="153.053352">
				<ele>18.388</ele>
				<time>2015-07-04T09:15:38Z</time>
				<extensions>
				</extensions>
			</trkpt>
			<trkpt lat="-27.521853" lon="153.053200">
				<ele>17.800</ele>
				<time>2015-07-04T09:15:39Z</time>
				<extensions>
				</extensions>
			</trkpt>
			<trkpt lat="-27.521658" lon="153.053042">
				<ele>18.298</ele>
				<time>2015-07-04T09:15:40Z</time>
				<extensions>
				</extensions>
			</trkpt>
			<trkpt lat="-27.521468" lon="153.052889">
				<ele>17.550</ele>
				<time>2015-07-04T09:15:41Z</time>
				<extensions>
				</extensions>
			</trkpt>
			<trkpt lat="-27.521274" lon="153.052731">
				<ele>17.755</ele>
				<time>2015-07-04T09:15:42Z</time>
				<extensions>
				</extensions>
			</trkpt>
			<trkpt lat="-27.521073" lon="153.052573">
				<ele>18.013</ele>
				<time>2015-07-04T09:15:43Z</time>
				<extensions>
				</extensions>
			</trkpt>
			<trkpt lat="-27.520867" lon="153.052416">
				<ele>15.944</ele>
				<time>2015-07-04T09:15:44Z</time>
				<extensions>
				</extensions>
			</trkpt>
			<trkpt lat="-27.520662" lon="153.052263">
				<ele>15.672</ele>
				<time>2015-07-04T09:15:45Z</time>
				<extensions>
				</extensions>
			</trkpt>
			<trkpt lat="-27.520458" lon="153.052100">
				<ele>15.924</ele>
				<time>2015-07-04T09:15:46Z</time>
				<extensions>
				</extensions>
			</trkpt>
			<trkpt lat="-27.520263" lon="153.051941">
				<ele>16.182</ele>
				<time>2015-07-04T09:15:47Z</time>
				<extensions>
				</extensions>
			</trkpt>
			<trkpt lat="-27.520063" lon="153.051779">
				<ele>15.232</ele>
				<time>2015-07-04T09:15:48Z</time>
				<extensions>
				</extensions>
			</trkpt>
			<trkpt lat="-27.519863" lon="153.051621">
				<ele>16.636</ele>
				<time>2015-07-04T09:15:49Z</time>
				<extensions>
				</extensions>
			</trkpt>
			<trkpt lat="-27.519663" lon="153.051459">
				<ele>15.405</ele>
				<time>2015-07-04T09:15:50Z</time>
				<extensions>
				</extensions>
			</trkpt>
			<trkpt lat="-27.519460" lon="153.051289">
				<ele>14.928</ele>
				<time>2015-07-04T09:15:51Z</time>
				<extensions>
				</extensions>
			</trkpt>
			<trkpt lat="-27.519256" lon="153.051117">
				<ele>14.461</ele>
				<time>2015-07-04T09:15:52Z</time>
				<extensions>
				</extensions>
			</trkpt>
			<trkpt lat="-27.519058" lon="153.050937">
				<ele>14.421</ele>
				<time>2015-07-04T09:15:53Z</time>
				<extensions>
				</extensions>
			</trkpt>
			<trkpt lat="-27.518866" lon="153.050754">
				<ele>13.681</ele>
				<time>2015-07-04T09:15:54Z</time>
				<extensions>
				</extensions>
			</trkpt>
			<trkpt lat="-27.518674" lon="153.050573">
				<ele>13.110</ele>
				<time>2015-07-04T09:15:55Z</time>
				<extensions>
				</extensions>
			</trkpt>
			<trkpt lat="-27.518490" lon="153.050382">
				<ele>12.729</ele>
				<time>2015-07-04T09:15:56Z</time>
				<extensions>
				</extensions>
			</trkpt>
			<trkpt lat="-27.518314" lon="153.050175">
				<ele>13.250</ele>
				<time>2015-07-04T09:15:57Z</time>
				<extensions>
				</extensions>
			</trkpt>
			<trkpt lat="-27.518141" lon="153.049964">
				<ele>12.855</ele>
				<time>2015-07-04T09:15:58Z</time>
				<extensions>
				</extensions>
			</trkpt>
			<trkpt lat="-27.517974" lon="153.049748">
				<ele>12.622</ele>
				<time>2015-07-04T09:15:59Z</time>
				<extensions>
				</extensions>
			</trkpt>
			<trkpt lat="-27.517808" lon="153.049533">
				<ele>14.631</ele>
				<time>2015-07-04T09:16:00Z</time>
				<extensions>
				</extensions>
			</trkpt>
			<trkpt lat="-27.517640" lon="153.049297">
				<ele>12.138</ele>
				<time>2015-07-04T09:16:01Z</time>
				<extensions>
				</extensions>
			</trkpt>
			<trkpt lat="-27.517489" lon="153.049064">
				<ele>11.857</ele>
				<time>2015-07-04T09:16:02Z</time>
				<extensions>
				</extensions>
			</trkpt>
			<trkpt lat="-27.517345" lon="153.048828">
				<ele>12.089</ele>
				<time>2015-07-04T09:16:03Z</time>
				<extensions>
				</extensions>
			</trkpt>
			<trkpt lat="-27.517198" lon="153.048591">
				<ele>11.552</ele>
				<time>2015-07-04T09:16:04Z</time>
				<extensions>
				</extensions>
			</trkpt>
			<trkpt lat="-27.517077" lon="153.048342">
				<ele>11.475</ele>
				<time>2015-07-04T09:16:05Z</time>
				<extensions>
				</extensions>
			</trkpt>
			<trkpt lat="-27.516950" lon="153.048096">
				<ele>11.923</ele>
				<time>2015-07-04T09:16:06Z</time>
				<extensions>
				</extensions>
			</trkpt>
			<trkpt lat="-27.516823" lon="153.047844">
				<ele>11.131</ele>
				<time>2015-07-04T09:16:07Z</time>
				<extensions>
				</extensions>
			</trkpt>
			<trkpt lat="-27.516702" lon="153.047592">
				<ele>11.633</ele>
				<time>2015-07-04T09:16:08Z</time>
				<extensions>
				</extensions>
			</trkpt>
			<trkpt lat="-27.516578" lon="153.047341">
				<ele>11.427</ele>
				<time>2015-07-04T09:16:09Z</time>
				<extensions>
				</extensions>
			</trkpt>
			<trkpt lat="-27.516455" lon="153.047092">
				<ele>12.059</ele>
				<time>2015-07-04T09:16:10Z</time>
				<extensions>
				</extensions>
			</trkpt>
			<trkpt lat="-27.516331" lon="153.046843">
				<ele>11.440</ele>
				<time>2015-07-04T09:16:11Z</time>
				<extensions>
				</extensions>
			</trkpt>
			<trkpt lat="-27.516208" lon="153.046592">
				<ele>11.349</ele>
				<time>2015-07-04T09:16:12Z</time>
				<extensions>
				</extensions>
			</trkpt>
			<trkpt lat="-27.516085" lon="153.046346">
				<ele>10.161</ele>
				<time>2015-07-04T09:16:13Z</time>
				<extensions>
				</extensions>
			</trkpt>
			<trkpt lat="-27.515963" lon="153.046100">
				<ele>9.562</ele>
				<time>2015-07-04T09:16:14Z</time>
				<extensions>
				</extensions>
			</trkpt>
			<trkpt lat="-27.515842" lon="153.045853">
				<ele>9.634</ele>
				<time>2015-07-04T09:16:15Z</time>
				<extensions>
				</extensions>
			</trkpt>
			<trkpt lat="-27.515716" lon="153.045602">
				<ele>8.766</ele>
				<time>2015-07-04T09:16:16Z</time>
				<extensions>
				</extensions>
			</trkpt>
			<trkpt lat="-27.515596" lon="153.045361">
				<ele>8.766</ele>
				<time>2015-07-04T09:16:17Z</time>
				<extensions>
				</extensions>
			</trkpt>
			<trkpt lat="-27.515473" lon="153.045115">
				<ele>9.088</ele>
				<time>2015-07-04T09:16:18Z</time>
				<extensions>
				</extensions>
			</trkpt>
			<trkpt lat="-27.515345" lon="153.044859">
				<ele>9.818</ele>
				<time>2015-07-04T09:16:19Z</time>
				<extensions>
				</extensions>
			</trkpt>
			<trkpt lat="-27.515224" lon="153.044618">
				<ele>9.245</ele>
				<time>2015-07-04T09:16:20Z</time>
				<extensions>
				</extensions>
			</trkpt>
			<trkpt lat="-27.515105" lon="153.044372">
				<ele>9.636</ele>
				<time>2015-07-04T09:16:21Z</time>
				<extensions>
				</extensions>
			</trkpt>
			<trkpt lat="-27.514982" lon="153.044131">
				<ele>10.432</ele>
				<time>2015-07-04T09:16:22Z</time>
				<extensions>
				</extensions>
			</trkpt>
			<trkpt lat="-27.514864" lon="153.043882">
				<ele>10.087</ele>
				<time>2015-07-04T09:16:23Z</time>
				<extensions>
				</extensions>
			</trkpt>
			<trkpt lat="-27.514743" lon="153.043635">
				<ele>9.387</ele>
				<time>2015-07-04T09:16:24Z</time>
				<extensions>
				</extensions>
			</trkpt>
			<trkpt lat="-27.514630" lon="153.043395">
				<ele>9.971</ele>
				<time>2015-07-04T09:16:25Z</time>
				<extensions>
				</extensions>
			</trkpt>
			<trkpt lat="-27.514508" lon="153.043147">
				<ele>10.389</ele>
				<time>2015-07-04T09:16:26Z</time>
				<extensions>
				</extensions>
			</trkpt>
			<trkpt lat="-27.514403" lon="153.042915">
				<ele>10.591</ele>
				<time>2015-07-04T09:16:27Z</time>
				<extensions>
				</extensions>
			</trkpt>
			<trkpt lat="-27.514280" lon="153.042679">
				<ele>10.719</ele>
				<time>2015-07-04T09:16:28Z</time>
				<extensions>
				</extensions>
			</trkpt>
			<trkpt lat="-27.514172" lon="153.042449">
				<ele>10.714</ele>
				<time>2015-07-04T09:16:29Z</time>
				<extensions>
				</extensions>
			</trkpt>
			<trkpt lat="-27.514060" lon="153.042224">
				<ele>9.965</ele>
				<time>2015-07-04T09:16:30Z</time>
				<extensions>
				</extensions>
			</trkpt>
			<trkpt lat="-27.513931" lon="153.042015">
				<ele>9.152</ele>
				<time>2015-07-04T09:16:31Z</time>
				<extensions>
				</extensions>
			</trkpt>
			<trkpt lat="-27.513801" lon="153.041802">
				<ele>9.294</ele>
				<time>2015-07-04T09:16:32Z</time>
				<extensions>
				</extensions>
			</trkpt>
			<trkpt lat="-27.513654" lon="153.041601">
				<ele>9.540</ele>
				<time>2015-07-04T09:16:33Z</time>
				<extensions>
				</extensions>
			</trkpt>
			<trkpt lat="-27.513496" lon="153.041416">
				<ele>10.452</ele>
				<time>2015-07-04T09:16:34Z</time>
				<extensions>
				</extensions>
			</trkpt>
			<trkpt lat="-27.513327" lon="153.041225">
				<ele>10.308</ele>
				<time>2015-07-04T09:16:35Z</time>
				<extensions>
				</extensions>
			</trkpt>
			<trkpt lat="-27.513162" lon="153.041047">
				<ele>9.348</ele>
				<time>2015-07-04T09:16:36Z</time>
				<extensions>
				</extensions>
			</trkpt>
			<trkpt lat="-27.512987" lon="153.040885">
				<ele>8.720</ele>
				<time>2015-07-04T09:16:37Z</time>
				<extensions>
				</extensions>
			</trkpt>
			<trkpt lat="-27.512812" lon="153.040724">
				<ele>8.600</ele>
				<time>2015-07-04T09:16:38Z</time>
				<extensions>
				</extensions>
			</trkpt>
			<trkpt lat="-27.512622" lon="153.040587">
				<ele>8.585</ele>
				<time>2015-07-04T09:16:39Z</time>
				<extensions>
				</extensions>
			</trkpt>
			<trkpt lat="-27.512438" lon="153.040454">
				<ele>7.535</ele>
				<time>2015-07-04T09:16:40Z</time>
				<extensions>
				</extensions>
			</trkpt>
			<trkpt lat="-27.512241" lon="153.040323">
				<ele>6.509</ele>
				<time>2015-07-04T09:16:41Z</time>
				<extensions>
				</extensions>
			</trkpt>
			<trkpt lat="-27.512045" lon="153.040207">
				<ele>7.481</ele>
				<time>2015-07-04T09:16:42Z</time>
				<extensions>
				</extensions>
			</trkpt>
			<trkpt lat="-27.511837" lon="153.040083">
				<ele>9.645</ele>
				<time>2015-07-04T09:16:43Z</time>
				<extensions>
				</extensions>
			</trkpt>
			<trkpt lat="-27.511616" lon="153.039968">
				<ele>9.584</ele>
				<time>2015-07-04T09:16:44Z</time>
				<extensions>
				</extensions>
			</trkpt>
			<trkpt lat="-27.511400" lon="153.039859">
				<ele>10.425</ele>
				<time>2015-07-04T09:16:45Z</time>
				<extensions>
				</extensions>
			</trkpt>
			<trkpt lat="-27.511174" lon="153.039745">
				<ele>10.431</ele>
				<time>2015-07-04T09:16:46Z</time>
				<extensions>
				</extensions>
			</trkpt>
			<trkpt lat="-27.510950" lon="153.039630">
				<ele>10.519</ele>
				<time>2015-07-04T09:16:47Z</time>
				<extensions>
				</extensions>
			</trkpt>
			<trkpt lat="-27.510738" lon="153.039511">
				<ele>10.129</ele>
				<time>2015-07-04T09:16:48Z</time>
				<extensions>
				</extensions>
			</trkpt>
			<trkpt lat="-27.510521" lon="153.039402">
				<ele>10.202</ele>
				<time>2015-07-04T09:16:49Z</time>
				<extensions>
				</extensions>
			</trkpt>
			<trkpt lat="-27.510282" lon="153.039280">
				<ele>12.074</ele>
				<time>2015-07-04T09:16:50Z</time>
				<extensions>
				</extensions>
			</trkpt>
			<trkpt lat="-27.510066" lon="153.039178">
				<ele>13.348</ele>
				<time>2015-07-04T09:16:51Z</time>
				<extensions>
				</extensions>
			</trkpt>
			<trkpt lat="-27.509834" lon="153.039058">
				<ele>12.004</ele>
				<time>2015-07-04T09:16:52Z</time>
				<extensions>
				</extensions>
			</trkpt>
			<trkpt lat="-27.509618" lon="153.038940">
				<ele>12.212</ele>
				<time>2015-07-04T09:16:53Z</time>
				<extensions>
				</extensions>
			</trkpt>
			<trkpt lat="-27.509393" lon="153.038848">
				<ele>10.135</ele>
				<time>2015-07-04T09:16:54Z</time>
				<extensions>
				</extensions>
			</trkpt>
			<trkpt lat="-27.509161" lon="153.038770">
				<ele>11.120</ele>
				<time>2015-07-04T09:16:55Z</time>
				<extensions>
				</extensions>
			</trkpt>
			<trkpt lat="-27.508932" lon="153.038705">
				<ele>11.472</ele>
				<time>2015-07-04T09:16:56Z</time>
				<extensions>
				</extensions>
			</trkpt>
			<trkpt lat="-27.508695" lon="153.038650">
				<ele>11.676</ele>
				<time>2015-07-04T09:16:57Z</time>
				<extensions>
				</extensions>
			</trkpt>
			<trkpt lat="-27.508456" lon="153.038608">
				<ele>11.652</ele>
				<time>2015-07-04T09:16:58Z</time>
				<extensions>
				</extensions>
			</trkpt>
			<trkpt lat="-27.508218" lon="153.038580">
				<ele>12.923</ele>
				<time>2015-07-04T09:16:59Z</time>
				<extensions>
				</extensions>
			</trkpt>
			<trkpt lat="-27.507977" lon="153.038564">
				<ele>14.874</ele>
				<time>2015-07-04T09:17:00Z</time>
				<extensions>
				</extensions>
			</trkpt>
			<trkpt lat="-27.507728" lon="153.038557">
				<ele>13.964</ele>
				<time>2015-07-04T09:17:01Z</time>
				<extensions>
				</extensions>
			</trkpt>
			<trkpt lat="-27.507481" lon="153.038568">
				<ele>15.249</ele>
				<time>2015-07-04T09:17:02Z</time>
				<extensions>
				</extensions>
			</trkpt>
			<trkpt lat="-27.507230" lon="153.038597">
				<ele>15.228</ele>
				<time>2015-07-04T09:17:03Z</time>
				<extensions>
				</extensions>
			</trkpt>
			<trkpt lat="-27.506981" lon="153.038633">
				<ele>16.595</ele>
				<time>2015-07-04T09:17:04Z</time>
				<extensions>
				</extensions>
			</trkpt>
			<trkpt lat="-27.506733" lon="153.038677">
				<ele>16.955</ele>
				<time>2015-07-04T09:17:05Z</time>
				<extensions>
				</extensions>
			</trkpt>
			<trkpt lat="-27.506472" lon="153.038718">
				<ele>16.674</ele>
				<time>2015-07-04T09:17:06Z</time>
				<extensions>
				</extensions>
			</trkpt>
			<trkpt lat="-27.506218" lon="153.038760">
				<ele>16.087</ele>
				<time>2015-07-04T09:17:07Z</time>
				<extensions>
				</extensions>
			</trkpt>
			<trkpt lat="-27.505964" lon="153.038808">
				<ele>15.828</ele>
				<time>2015-07-04T09:17:08Z</time>
				<extensions>
				</extensions>
			</trkpt>
			<trkpt lat="-27.505713" lon="153.038846">
				<ele>13.783</ele>
				<time>2015-07-04T09:17:09Z</time>
				<extensions>
				</extensions>
			</trkpt>
			<trkpt lat="-27.505463" lon="153.038892">
				<ele>14.754</ele>
				<time>2015-07-04T09:17:10Z</time>
				<extensions>
				</extensions>
			</trkpt>
			<trkpt lat="-27.505208" lon="153.038928">
				<ele>15.416</ele>
				<time>2015-07-04T09:17:11Z</time>
				<extensions>
				</extensions>
			</trkpt>
			<trkpt lat="-27.504960" lon="153.038975">
				<ele>14.776</ele>
				<time>2015-07-04T09:17:12Z</time>
				<extensions>
				</extensions>
			</trkpt>
			<trkpt lat="-27.504713" lon="153.039017">
				<ele>15.319</ele>
				<time>2015-07-04T09:17:13Z</time>
				<extensions>
				</extensions>
			</trkpt>
			<trkpt lat="-27.504466" lon="153.039078">
				<ele>13.706</ele>
				<time>2015-07-04T09:17:14Z</time>
				<extensions>
				</extensions>
			</trkpt>
			<trkpt lat="-27.504210" lon="153.039091">
				<ele>12.654</ele>
				<time>2015-07-04T09:17:15Z</time>
				<extensions>
				</extensions>
			</trkpt>
			<trkpt lat="-27.503964" lon="153.039122">
				<ele>12.766</ele>
				<time>2015-07-04T09:17:16Z</time>
				<extensions>
				</extensions>
			</trkpt>
			<trkpt lat="-27.503718" lon="153.039173">
				<ele>13.525</ele>
				<time>2015-07-04T09:17:17Z</time>
				<extensions>
				</extensions>
			</trkpt>
			<trkpt lat="-27.503476" lon="153.039218">
				<ele>11.969</ele>
				<time>2015-07-04T09:17:18Z</time>
				<extensions>
				</extensions>
			</trkpt>
			<trkpt lat="-27.503224" lon="153.039253">
				<ele>11.058</ele>
				<time>2015-07-04T09:17:19Z</time>
				<extensions>
				</extensions>
			</trkpt>
			<trkpt lat="-27.502981" lon="153.039300">
				<ele>12.437</ele>
				<time>2015-07-04T09:17:20Z</time>
				<extensions>
				</extensions>
			</trkpt>
			<trkpt lat="-27.502736" lon="153.039346">
				<ele>12.437</ele>
				<time>2015-07-04T09:17:21Z</time>
				<extensions>
				</extensions>
			</trkpt>
			<trkpt lat="-27.502500" lon="153.039394">
				<ele>11.507</ele>
				<time>2015-07-04T09:17:22Z</time>
				<extensions>
				</extensions>
			</trkpt>
			<trkpt lat="-27.502267" lon="153.039434">
				<ele>9.263</ele>
				<time>2015-07-04T09:17:23Z</time>
				<extensions>
				</extensions>
			</trkpt>
			<trkpt lat="-27.502032" lon="153.039476">
				<ele>11.521</ele>
				<time>2015-07-04T09:17:24Z</time>
				<extensions>
				</extensions>
			</trkpt>
			<trkpt lat="-27.501799" lon="153.039519">
				<ele>12.797</ele>
				<time>2015-07-04T09:17:25Z</time>
				<extensions>
				</extensions>
			</trkpt>
			<trkpt lat="-27.501565" lon="153.039567">
				<ele>12.617</ele>
				<time>2015-07-04T09:17:26Z</time>
				<extensions>
				</extensions>
			</trkpt>
			<trkpt lat="-27.501339" lon="153.039614">
				<ele>10.444</ele>
				<time>2015-07-04T09:17:27Z</time>
				<extensions>
				</extensions>
			</trkpt>
			<trkpt lat="-27.501126" lon="153.039662">
				<ele>8.568</ele>
				<time>2015-07-04T09:17:28Z</time>
				<extensions>
				</extensions>
			</trkpt>
			<trkpt lat="-27.500903" lon="153.039697">
				<ele>8.707</ele>
				<time>2015-07-04T09:17:29Z</time>
				<extensions>
				</extensions>
			</trkpt>
			<trkpt lat="-27.500684" lon="153.039734">
				<ele>7.074</ele>
				<time>2015-07-04T09:17:30Z</time>
				<extensions>
				</extensions>
			</trkpt>
			<trkpt lat="-27.500452" lon="153.039753">
				<ele>9.803</ele>
				<time>2015-07-04T09:17:31Z</time>
				<extensions>
				</extensions>
			</trkpt>
			<trkpt lat="-27.500231" lon="153.039760">
				<ele>8.740</ele>
				<time>2015-07-04T09:17:32Z</time>
				<extensions>
				</extensions>
			</trkpt>
			<trkpt lat="-27.500003" lon="153.039763">
				<ele>8.035</ele>
				<time>2015-07-04T09:17:33Z</time>
				<extensions>
				</extensions>
			</trkpt>
			<trkpt lat="-27.499771" lon="153.039746">
				<ele>8.475</ele>
				<time>2015-07-04T09:17:34Z</time>
				<extensions>
				</extensions>
			</trkpt>
			<trkpt lat="-27.499548" lon="153.039718">
				<ele>8.884</ele>
				<time>2015-07-04T09:17:35Z</time>
				<extensions>
				</extensions>
			</trkpt>
			<trkpt lat="-27.499324" lon="153.039688">
				<ele>8.291</ele>
				<time>2015-07-04T09:17:36Z</time>
				<extensions>
				</extensions>
			</trkpt>
			<trkpt lat="-27.499110" lon="153.039651">
				<ele>8.422</ele>
				<time>2015-07-04T09:17:37Z</time>
				<extensions>
				</extensions>
			</trkpt>
			<trkpt lat="-27.498887" lon="153.039591">
				<ele>9.653</ele>
				<time>2015-07-04T09:17:38Z</time>
				<extensions>
				</extensions>
			</trkpt>
			<trkpt lat="-27.498670" lon="153.039527">
				<ele>9.937</ele>
				<time>2015-07-04T09:17:39Z</time>
				<extensions>
				</extensions>
			</trkpt>
			<trkpt lat="-27.498455" lon="153.039453">
				<ele>10.867</ele>
				<time>2015-07-04T09:17:40Z</time>
				<extensions>
				</extensions>
			</trkpt>
			<trkpt lat="-27.498252" lon="153.039372">
				<ele>13.226</ele>
				<time>2015-07-04T09:17:41Z</time>
				<extensions>
				</extensions>
			</trkpt>
			<trkpt lat="-27.498048" lon="153.039278">
				<ele>13.913</ele>
				<time>2015-07-04T09:17:42Z</time>
				<extensions>
				</extensions>
			</trkpt>
			<trkpt lat="-27.497844" lon="153.039181">
				<ele>15.288</ele>
				<time>2015-07-04T09:17:43Z</time>
				<extensions>
				</extensions>
			</trkpt>
			<trkpt lat="-27.497645" lon="153.039074">
				<ele>16.146</ele>
				<time>2015-07-04T09:17:44Z</time>
				<extensions>
				</extensions>
			</trkpt>
			<trkpt lat="-27.497448" lon="153.038949">
				<ele>16.233</ele>
				<time>2015-07-04T09:17:45Z</time>
				<extensions>
				</extensions>
			</trkpt>
			<trkpt lat="-27.497263" lon="153.038830">
				<ele>19.110</ele>
				<time>2015-07-04T09:17:46Z</time>
				<extensions>
				</extensions>
			</trkpt>
			<trkpt lat="-27.497073" lon="153.038698">
				<ele>19.828</ele>
				<time>2015-07-04T09:17:47Z</time>
				<extensions>
				</extensions>
			</trkpt>
			<trkpt lat="-27.496893" lon="153.038566">
				<ele>19.871</ele>
				<time>2015-07-04T09:17:48Z</time>
				<extensions>
				</extensions>
			</trkpt>
			<trkpt lat="-27.496713" lon="153.038437">
				<ele>19.952</ele>
				<time>2015-07-04T09:17:49Z</time>
				<extensions>
				</extensions>
			</trkpt>
			<trkpt lat="-27.496534" lon="153.038306">
				<ele>18.918</ele>
				<time>2015-07-04T09:17:50Z</time>
				<extensions>
				</extensions>
			</trkpt>
			<trkpt lat="-27.496356" lon="153.038175">
				<ele>17.481</ele>
				<time>2015-07-04T09:17:51Z</time>
				<extensions>
				</extensions>
			</trkpt>
			<trkpt lat="-27.496184" lon="153.038056">
				<ele>16.829</ele>
				<time>2015-07-04T09:17:52Z</time>
				<extensions>
				</extensions>
			</trkpt>
			<trkpt lat="-27.496017" lon="153.037933">
				<ele>15.141</ele>
				<time>2015-07-04T09:17:53Z</time>
				<extensions>
				</extensions>
			</trkpt>
			<trkpt lat="-27.495848" lon="153.037804">
				<ele>13.647</ele>
				<time>2015-07-04T09:17:54Z</time>
				<extensions>
				</extensions>
			</trkpt>
			<trkpt lat="-27.495688" lon="153.037684">
				<ele>12.796</ele>
				<time>2015-07-04T09:17:55Z</time>
				<extensions>
				</extensions>
			</trkpt>
			<trkpt lat="-27.495514" lon="153.037555">
				<ele>12.739</ele>
				<time>2015-07-04T09:17:56Z</time>
				<extensions>
				</extensions>
			</trkpt>
			<trkpt lat="-27.495344" lon="153.037433">
				<ele>11.808</ele>
				<time>2015-07-04T09:17:57Z</time>
				<extensions>
				</extensions>
			</trkpt>
			<trkpt lat="-27.495173" lon="153.037301">
				<ele>12.012</ele>
				<time>2015-07-04T09:17:58Z</time>
				<extensions>
				</extensions>
			</trkpt>
			<trkpt lat="-27.494998" lon="153.037171">
				<ele>10.840</ele>
				<time>2015-07-04T09:17:59Z</time>
				<extensions>
				</extensions>
			</trkpt>
			<trkpt lat="-27.494835" lon="153.037047">
				<ele>10.190</ele>
				<time>2015-07-04T09:18:00Z</time>
				<extensions>
				</extensions>
			</trkpt>
			<trkpt lat="-27.494673" lon="153.036915">
				<ele>9.259</ele>
				<time>2015-07-04T09:18:01Z</time>
				<extensions>
				</extensions>
			</trkpt>
			<trkpt lat="-27.494512" lon="153.036779">
				<ele>8.771</ele>
				<time>2015-07-04T09:18:02Z</time>
				<extensions>
				</extensions>
			</trkpt>
			<trkpt lat="-27.494355" lon="153.036634">
				<ele>8.812</ele>
				<time>2015-07-04T09:18:03Z</time>
				<extensions>
				</extensions>
			</trkpt>
			<trkpt lat="-27.494200" lon="153.036486">
				<ele>8.520</ele>
				<time>2015-07-04T09:18:04Z</time>
				<extensions>
				</extensions>
			</trkpt>
			<trkpt lat="-27.494044" lon="153.036329">
				<ele>9.282</ele>
				<time>2015-07-04T09:18:05Z</time>
				<extensions>
				</extensions>
			</trkpt>
			<trkpt lat="-27.493893" lon="153.036161">
				<ele>9.354</ele>
				<time>2015-07-04T09:18:06Z</time>
				<extensions>
				</extensions>
			</trkpt>
			<trkpt lat="-27.493765" lon="153.035981">
				<ele>8.064</ele>
				<time>2015-07-04T09:18:07Z</time>
				<extensions>
				</extensions>
			</trkpt>
			<trkpt lat="-27.493632" lon="153.035817">
				<ele>7.348</ele>
				<time>2015-07-04T09:18:08Z</time>
				<extensions>
				</extensions>
			</trkpt>
			<trkpt lat="-27.493508" lon="153.035655">
				<ele>5.981</ele>
				<time>2015-07-04T09:18:09Z</time>
				<extensions>
				</extensions>
			</trkpt>
			<trkpt lat="-27.493388" lon="153.035484">
				<ele>4.886</ele>
				<time>2015-07-04T09:18:10Z</time>
				<extensions>
				</extensions>
			</trkpt>
			<trkpt lat="-27.493276" lon="153.035318">
				<ele>4.651</ele>
				<time>2015-07-04T09:18:11Z</time>
				<extensions>
				</extensions>
			</trkpt>
			<trkpt lat="-27.493161" lon="153.035148">
				<ele>5.242</ele>
				<time>2015-07-04T09:18:12Z</time>
				<extensions>
				</extensions>
			</trkpt>
			<trkpt lat="-27.493038" lon="153.034978">
				<ele>5.884</ele>
				<time>2015-07-04T09:18:13Z</time>
				<extensions>
				</extensions>
			</trkpt>
			<trkpt lat="-27.492922" lon="153.034809">
				<ele>6.042</ele>
				<time>2015-07-04T09:18:14Z</time>
				<extensions>
				</extensions>
			</trkpt>
			<trkpt lat="-27.492806" lon="153.034644">
				<ele>5.244</ele>
				<time>2015-07-04T09:18:15Z</time>
				<extensions>
				</extensions>
			</trkpt>
			<trkpt lat="-27.492594" lon="153.034329">
				<ele>4.515</ele>
				<time>2015-07-04T09:18:17Z</time>
				<extensions>
				</extensions>
			</trkpt>
			<trkpt lat="-27.492354" lon="153.034027">
				<ele>4.740</ele>
				<time>2015-07-04T09:18:19Z</time>
				<extensions>
				</extensions>
			</trkpt>
			<trkpt lat="-27.492089" lon="153.033755">
				<ele>5.268</ele>
				<time>2015-07-04T09:18:21Z</time>
				<extensions>
				</extensions>
			</trkpt>
			<trkpt lat="-27.491795" lon="153.033536">
				<ele>4.443</ele>
				<time>2015-07-04T09:18:23Z</time>
				<extensions>
				</extensions>
			</trkpt>
			<trkpt lat="-27.491635" lon="153.033443">
				<ele>3.965</ele>
				<time>2015-07-04T09:18:24Z</time>
				<extensions>
				</extensions>
			</trkpt>
			<trkpt lat="-27.491306" lon="153.033292">
				<ele>2.131</ele>
				<time>2015-07-04T09:18:26Z</time>
				<extensions>
				</extensions>
			</trkpt>
			<trkpt lat="-27.490972" lon="153.033202">
				<ele>1.135</ele>
				<time>2015-07-04T09:18:28Z</time>
				<extensions>
				</extensions>
			</trkpt>
			<trkpt lat="-27.490617" lon="153.033152">
				<ele>0.431</ele>
				<time>2015-07-04T09:18:30Z</time>
				<extensions>
				</extensions>
			</trkpt>
			<trkpt lat="-27.490247" lon="153.033139">
				<ele>-1.523</ele>
				<time>2015-07-04T09:18:32Z</time>
				<extensions>
				</extensions>
			</trkpt>
			<trkpt lat="-27.489923" lon="153.033157">
				<ele>-3.387</ele>
				<time>2015-07-04T09:18:34Z</time>
				<extensions>
				</extensions>
			</trkpt>
			<trkpt lat="-27.447430" lon="153.032610">
				<ele>-6.614</ele>
				<time>2015-07-04T09:22:13Z</time>
				<extensions>
				</extensions>
			</trkpt>
			<trkpt lat="-27.447245" lon="153.032647">
				<ele>-5.613</ele>
				<time>2015-07-04T09:22:14Z</time>
				<extensions>
				</extensions>
			</trkpt>
			<trkpt lat="-27.447041" lon="153.032689">
				<ele>-5.083</ele>
				<time>2015-07-04T09:22:15Z</time>
				<extensions>
				</extensions>
			</trkpt>
			<trkpt lat="-27.446658" lon="153.032721">
				<ele>-3.916</ele>
				<time>2015-07-04T09:22:17Z</time>
				<extensions>
				</extensions>
			</trkpt>
			<trkpt lat="-27.446469" lon="153.032727">
				<ele>-2.932</ele>
				<time>2015-07-04T09:22:18Z</time>
				<extensions>
				</extensions>
			</trkpt>
			<trkpt lat="-27.446282" lon="153.032708">
				<ele>-2.308</ele>
				<time>2015-07-04T09:22:19Z</time>
				<extensions>
				</extensions>
			</trkpt>
			<trkpt lat="-27.446086" lon="153.032673">
				<ele>-1.565</ele>
				<time>2015-07-04T09:22:20Z</time>
				<extensions>
				</extensions>
			</trkpt>
			<trkpt lat="-27.445890" lon="153.032626">
				<ele>-1.239</ele>
				<time>2015-07-04T09:22:21Z</time>
				<extensions>
				</extensions>
			</trkpt>
			<trkpt lat="-27.445714" lon="153.032566">
				<ele>-0.626</ele>
				<time>2015-07-04T09:22:22Z</time>
				<extensions>
				</extensions>
			</trkpt>
			<trkpt lat="-27.445529" lon="153.032490">
				<ele>-0.670</ele>
				<time>2015-07-04T09:22:23Z</time>
				<extensions>
				</extensions>
			</trkpt>
			<trkpt lat="-27.445329" lon="153.032410">
				<ele>-1.230</ele>
				<time>2015-07-04T09:22:24Z</time>
				<extensions>
				</extensions>
			</trkpt>
			<trkpt lat="-27.445138" lon="153.032323">
				<ele>-1.039</ele>
				<time>2015-07-04T09:22:25Z</time>
				<extensions>
				</extensions>
			</trkpt>
			<trkpt lat="-27.444950" lon="153.032245">
				<ele>-1.257</ele>
				<time>2015-07-04T09:22:26Z</time>
				<extensions>
				</extensions>
			</trkpt>
			<trkpt lat="-27.444758" lon="153.032167">
				<ele>-1.615</ele>
				<time>2015-07-04T09:22:27Z</time>
				<extensions>
				</extensions>
			</trkpt>
			<trkpt lat="-27.444576" lon="153.032089">
				<ele>-1.975</ele>
				<time>2015-07-04T09:22:28Z</time>
				<extensions>
				</extensions>
			</trkpt>
			<trkpt lat="-27.444388" lon="153.032011">
				<ele>-2.389</ele>
				<time>2015-07-04T09:22:29Z</time>
				<extensions>
				</extensions>
			</trkpt>
			<trkpt lat="-27.444212" lon="153.031937">
				<ele>-3.457</ele>
				<time>2015-07-04T09:22:30Z</time>
				<extensions>
				</extensions>
			</trkpt>
			<trkpt lat="-27.443911" lon="153.031815">
				<ele>-7.254</ele>
				<time>2015-07-04T09:22:32Z</time>
				<extensions>
				</extensions>
			</trkpt>
			<trkpt lat="-27.443624" lon="153.031735">
				<ele>-6.909</ele>
				<time>2015-07-04T09:22:34Z</time>
				<extensions>
				</extensions>
			</trkpt>
			<trkpt lat="-27.443307" lon="153.031674">
				<ele>-5.138</ele>
				<time>2015-07-04T09:22:36Z</time>
				<extensions>
				</extensions>
			</trkpt>
			<trkpt lat="-27.442973" lon="153.031639">
				<ele>-3.865</ele>
				<time>2015-07-04T09:22:38Z</time>
				<extensions>
				</extensions>
			</trkpt>
			<trkpt lat="-27.442620" lon="153.031626">
				<ele>-3.862</ele>
				<time>2015-07-04T09:22:40Z</time>
				<extensions>
				</extensions>
			</trkpt>
			<trkpt lat="-27.442278" lon="153.031616">
				<ele>-3.751</ele>
				<time>2015-07-04T09:22:42Z</time>
				<extensions>
				</extensions>
			</trkpt>
			<trkpt lat="-27.441929" lon="153.031616">
				<ele>-4.250</ele>
				<time>2015-07-04T09:22:44Z</time>
				<extensions>
				</extensions>
			</trkpt>
			<trkpt lat="-27.441573" lon="153.031618">
				<ele>-4.946</ele>
				<time>2015-07-04T09:22:46Z</time>
				<extensions>
				</extensions>
			</trkpt>
			<trkpt lat="-27.416550" lon="153.036163">
				<ele>3.738</ele>
				<time>2015-07-04T09:25:01Z</time>
				<extensions>
				</extensions>
			</trkpt>
			<trkpt lat="-27.416282" lon="153.036252">
				<ele>4.731</ele>
				<time>2015-07-04T09:25:03Z</time>
				<extensions>
				</extensions>
			</trkpt>
			<trkpt lat="-27.415987" lon="153.036251">
				<ele>5.743</ele>
				<time>2015-07-04T09:25:05Z</time>
				<extensions>
				</extensions>
			</trkpt>
			<trkpt lat="-27.415684" lon="153.036182">
				<ele>5.912</ele>
				<time>2015-07-04T09:25:07Z</time>
				<extensions>
				</extensions>
			</trkpt>
			<trkpt lat="-27.415391" lon="153.036077">
				<ele>6.553</ele>
				<time>2015-07-04T09:25:09Z</time>
				<extensions>
				</extensions>
			</trkpt>
			<trkpt lat="-27.415098" lon="153.035934">
				<ele>6.833</ele>
				<time>2015-07-04T09:25:11Z</time>
				<extensions>
				</extensions>
			</trkpt>
			<trkpt lat="-27.414834" lon="153.035764">
				<ele>5.334</ele>
				<time>2015-07-04T09:25:13Z</time>
				<extensions>
				</extensions>
			</trkpt>
			<trkpt lat="-27.414582" lon="153.035571">
				<ele>4.083</ele>
				<time>2015-07-04T09:25:15Z</time>
				<extensions>
				</extensions>
			</trkpt>
			<trkpt lat="-27.414327" lon="153.035356">
				<ele>5.249</ele>
				<time>2015-07-04T09:25:17Z</time>
				<extensions>
				</extensions>
			</trkpt>
			<trkpt lat="-27.414085" lon="153.035143">
				<ele>6.788</ele>
				<time>2015-07-04T09:25:19Z</time>
				<extensions>
				</extensions>
			</trkpt>
			<trkpt lat="-27.413854" lon="153.034904">
				<ele>8.650</ele>
				<time>2015-07-04T09:25:21Z</time>
				<extensions>
				</extensions>
			</trkpt>
			<trkpt lat="-27.413629" lon="153.034663">
				<ele>9.902</ele>
				<time>2015-07-04T09:25:23Z</time>
				<extensions>
				</extensions>
			</trkpt>
			<trkpt lat="-27.413411" lon="153.034428">
				<ele>11.112</ele>
				<time>2015-07-04T09:25:25Z</time>
				<extensions>
				</extensions>
			</trkpt>
			<trkpt lat="-27.413193" lon="153.034192">
				<ele>13.015</ele>
				<time>2015-07-04T09:25:27Z</time>
				<extensions>
				</extensions>
			</trkpt>
			<trkpt lat="-27.412991" lon="153.033954">
				<ele>14.920</ele>
				<time>2015-07-04T09:25:29Z</time>
				<extensions>
				</extensions>
			</trkpt>
			<trkpt lat="-27.412800" lon="153.033710">
				<ele>15.905</ele>
				<time>2015-07-04T09:25:31Z</time>
				<extensions>
				</extensions>
			</trkpt>
			<trkpt lat="-27.412635" lon="153.033417">
				<ele>17.195</ele>
				<time>2015-07-04T09:25:33Z</time>
				<extensions>
				</extensions>
			</trkpt>
			<trkpt lat="-27.412512" lon="153.033104">
				<ele>17.346</ele>
				<time>2015-07-04T09:25:35Z</time>
				<extensions>
				</extensions>
			</trkpt>
			<trkpt lat="-27.412445" lon="153.032765">
				<ele>16.494</ele>
				<time>2015-07-04T09:25:37Z</time>
				<extensions>
				</extensions>
			</trkpt>
			<trkpt lat="-27.412404" lon="153.032414">
				<ele>15.833</ele>
				<time>2015-07-04T09:25:39Z</time>
				<extensions>
				</extensions>
			</trkpt>
			<trkpt lat="-27.412370" lon="153.032073">
				<ele>13.744</ele>
				<time>2015-07-04T09:25:41Z</time>
				<extensions>
				</extensions>
			</trkpt>
			<trkpt lat="-27.412335" lon="153.031728">
				<ele>11.273</ele>
				<time>2015-07-04T09:25:43Z</time>
				<extensions>
				</extensions>
			</trkpt>
			<trkpt lat="-27.412309" lon="153.031393">
				<ele>9.531</ele>
				<time>2015-07-04T09:25:45Z</time>
				<extensions>
				</extensions>
			</trkpt>
			<trkpt lat="-27.412302" lon="153.031059">
				<ele>9.602</ele>
				<time>2015-07-04T09:25:47Z</time>
				<extensions>
				</extensions>
			</trkpt>
			<trkpt lat="-27.412285" lon="153.030730">
				<ele>10.344</ele>
				<time>2015-07-04T09:25:49Z</time>
				<extensions>
				</extensions>
			</trkpt>
			<trkpt lat="-27.412248" lon="153.030370">
				<ele>11.284</ele>
				<time>2015-07-04T09:25:51Z</time>
				<extensions>
				</extensions>
			</trkpt>
			<trkpt lat="-27.412208" lon="153.030031">
				<ele>13.499</ele>
				<time>2015-07-04T09:25:53Z</time>
				<extensions>
				</extensions>
			</trkpt>
			<trkpt lat="-27.412172" lon="153.029683">
				<ele>16.030</ele>
				<time>2015-07-04T09:25:55Z</time>
				<extensions>
				</extensions>
			</trkpt>
			<trkpt lat="-27.412146" lon="153.029418">
				<ele>18.525</ele>
				<time>2015-07-04T09:25:57Z</time>
				<extensions>
				</extensions>
			</trkpt>
			<trkpt lat="-27.412114" lon="153.029173">
				<ele>19.518</ele>
				<time>2015-07-04T09:25:58Z</time>
				<extensions>
				</extensions>
			</trkpt>
			<trkpt lat="-27.412073" lon="153.028830">
				<ele>21.904</ele>
				<time>2015-07-04T09:26:00Z</time>
				<extensions>
				</extensions>
			</trkpt>
			<trkpt lat="-27.412024" lon="153.028474">
				<ele>24.546</ele>
				<time>2015-07-04T09:26:02Z</time>
				<extensions>
				</extensions>
			</trkpt>
			<trkpt lat="-27.411991" lon="153.028179">
				<ele>23.102</ele>
				<time>2015-07-04T09:26:04Z</time>
				<extensions>
				</extensions>
			</trkpt>
			<trkpt lat="-27.411978" lon="153.027903">
				<ele>20.537</ele>
				<time>2015-07-04T09:26:07Z</time>
				<extensions>
				</extensions>
			</trkpt>
			<trkpt lat="-27.411938" lon="153.027690">
				<ele>20.522</ele>
				<time>2015-07-04T09:26:11Z</time>
				<extensions>
				</extensions>
			</trkpt>
			<trkpt lat="-27.411911" lon="153.027470">
				<ele>23.189</ele>
				<time>2015-07-04T09:26:26Z</time>
				<extensions>
				</extensions>
			</trkpt>
			<trkpt lat="-27.411881" lon="153.027197">
				<ele>27.564</ele>
				<time>2015-07-04T09:26:29Z</time>
				<extensions>
				</extensions>
			</trkpt>
			<trkpt lat="-27.411843" lon="153.026927">
				<ele>30.187</ele>
				<time>2015-07-04T09:26:31Z</time>
				<extensions>
				</extensions>
			</trkpt>
			<trkpt lat="-27.411793" lon="153.026628">
				<ele>32.264</ele>
				<time>2015-07-04T09:26:33Z</time>
				<extensions>
				</extensions>
			</trkpt>
			<trkpt lat="-27.411737" lon="153.026281">
				<ele>33.423</ele>
				<time>2015-07-04T09:26:35Z</time>
				<extensions>
				</extensions>
			</trkpt>
			<trkpt lat="-27.411698" lon="153.025937">
				<ele>33.206</ele>
				<time>2015-07-04T09:26:37Z</time>
				<extensions>
				</extensions>
			</trkpt>
			<trkpt lat="-27.411653" lon="153.025604">
				<ele>31.951</ele>
				<time>2015-07-04T09:26:39Z</time>
				<extensions>
				</extensions>
			</trkpt>
			<trkpt lat="-27.411612" lon="153.025264">
				<ele>30.854</ele>
				<time>2015-07-04T09:26:41Z</time>
				<extensions>
				</extensions>
			</trkpt>
			<trkpt lat="-27.411566" lon="153.024925">
				<ele>30.004</ele>
				<time>2015-07-04T09:26:43Z</time>
				<extensions>
				</extensions>
			</trkpt>
			<trkpt lat="-27.411533" lon="153.024611">
				<ele>30.289</ele>
				<time>2015-07-04T09:26:45Z</time>
				<extensions>
				</extensions>
			</trkpt>
			<trkpt lat="-27.411486" lon="153.024289">
				<ele>27.956</ele>
				<time>2015-07-04T09:26:47Z</time>
				<extensions>
				</extensions>
			</trkpt>
			<trkpt lat="-27.411444" lon="153.023963">
				<ele>26.548</ele>
				<time>2015-07-04T09:26:49Z</time>
				<extensions>
				</extensions>
			</trkpt>
			<trkpt lat="-27.411404" lon="153.023647">
				<ele>25.003</ele>
				<time>2015-07-04T09:26:51Z</time>
				<extensions>
				</extensions>
			</trkpt>
			<trkpt lat="-27.411356" lon="153.023307">
				<ele>23.832</ele>
				<time>2015-07-04T09:26:53Z</time>
				<extensions>
				</extensions>
			</trkpt>
			<trkpt lat="-27.411305" lon="153.022976">
				<ele>23.990</ele>
				<time>2015-07-04T09:26:55Z</time>
				<extensions>
				</extensions>
			</trkpt>
			<trkpt lat="-27.411243" lon="153.022640">
				<ele>23.440</ele>
				<time>2015-07-04T09:26:57Z</time>
				<extensions>
				</extensions>
			</trkpt>
			<trkpt lat="-27.411196" lon="153.022311">
				<ele>22.558</ele>
				<time>2015-07-04T09:26:59Z</time>
				<extensions>
				</extensions>
			</trkpt>
			<trkpt lat="-27.411155" lon="153.021985">
				<ele>22.317</ele>
				<time>2015-07-04T09:27:01Z</time>
				<extensions>
				</extensions>
			</trkpt>
			<trkpt lat="-27.411117" lon="153.021654">
				<ele>21.931</ele>
				<time>2015-07-04T09:27:03Z</time>
				<extensions>
				</extensions>
			</trkpt>
			<trkpt lat="-27.411079" lon="153.021330">
				<ele>20.927</ele>
				<time>2015-07-04T09:27:05Z</time>
				<extensions>
				</extensions>
			</trkpt>
			<trkpt lat="-27.411045" lon="153.020988">
				<ele>20.108</ele>
				<time>2015-07-04T09:27:07Z</time>
				<extensions>
				</extensions>
			</trkpt>
			<trkpt lat="-27.410998" lon="153.020644">
				<ele>19.228</ele>
				<time>2015-07-04T09:27:09Z</time>
				<extensions>
				</extensions>
			</trkpt>
			<trkpt lat="-27.410955" lon="153.020291">
				<ele>19.259</ele>
				<time>2015-07-04T09:27:11Z</time>
				<extensions>
				</extensions>
			</trkpt>
			<trkpt lat="-27.410900" lon="153.019953">
				<ele>19.511</ele>
				<time>2015-07-04T09:27:13Z</time>
				<extensions>
				</extensions>
			</trkpt>
			<trkpt lat="-27.410861" lon="153.019610">
				<ele>19.974</ele>
				<time>2015-07-04T09:27:15Z</time>
				<extensions>
				</extensions>
			</trkpt>
			<trkpt lat="-27.410828" lon="153.019271">
				<ele>21.433</ele>
				<time>2015-07-04T09:27:17Z</time>
				<extensions>
				</extensions>
			</trkpt>
			<trkpt lat="-27.410755" lon="153.018924">
				<ele>22.481</ele>
				<time>2015-07-04T09:27:19Z</time>
				<extensions>
				</extensions>
			</trkpt>
			<trkpt lat="-27.410715" lon="153.018571">
				<ele>23.107</ele>
				<time>2015-07-04T09:27:21Z</time>
				<extensions>
				</extensions>
			</trkpt>
			<trkpt lat="-27.410680" lon="153.018226">
				<ele>21.383</ele>
				<time>2015-07-04T09:27:23Z</time>
				<extensions>
				</extensions>
			</trkpt>
			<trkpt lat="-27.410639" lon="153.017882">
				<ele>19.852</ele>
				<time>2015-07-04T09:27:25Z</time>
				<extensions>
				</extensions>
			</trkpt>
			<trkpt lat="-27.410597" lon="153.017537">
				<ele>20.172</ele>
				<time>2015-07-04T09:27:27Z</time>
				<extensions>
				</extensions>
			</trkpt>
			<trkpt lat="-27.410543" lon="153.017189">
				<ele>20.514</ele>
				<time>2015-07-04T09:27:29Z</time>
				<extensions>
				</extensions>
			</trkpt>
			<trkpt lat="-27.410503" lon="153.016841">
				<ele>21.546</ele>
				<time>2015-07-04T09:27:31Z</time>
				<extensions>
				</extensions>
			</trkpt>
			<trkpt lat="-27.410469" lon="153.016493">
				<ele>22.178</ele>
				<time>2015-07-04T09:27:33Z</time>
				<extensions>
				</extensions>
			</trkpt>
			<trkpt lat="-27.410422" lon="153.016177">
				<ele>21.255</ele>
				<time>2015-07-04T09:27:35Z</time>
				<extensions>
				</extensions>
			</trkpt>
			<trkpt lat="-27.410378" lon="153.015871">
				<ele>19.658</ele>
				<time>2015-07-04T09:27:37Z</time>
				<extensions>
				</extensions>
			</trkpt>
			<trkpt lat="-27.410333" lon="153.015586">
				<ele>17.711</ele>
				<time>2015-07-04T09:27:39Z</time>
				<extensions>
				</extensions>
			</trkpt>
			<trkpt lat="-27.410287" lon="153.015294">
				<ele>17.113</ele>
				<time>2015-07-04T09:27:41Z</time>
				<extensions>
				</extensions>
			</trkpt>
			<trkpt lat="-27.410250" lon="153.015002">
				<ele>17.129</ele>
				<time>2015-07-04T09:27:43Z</time>
				<extensions>
				</extensions>
			</trkpt>
			<trkpt lat="-27.410215" lon="153.014749">
				<ele>15.882</ele>
				<time>2015-07-04T09:27:45Z</time>
				<extensions>
				</extensions>
			</trkpt>
			<trkpt lat="-27.410178" lon="153.014502">
				<ele>14.506</ele>
				<time>2015-07-04T09:27:48Z</time>
				<extensions>
				</extensions>
			</trkpt>
			<trkpt lat="-27.410151" lon="153.014278">
				<ele>14.463</ele>
				<time>2015-07-04T09:27:52Z</time>
				<extensions>
				</extensions>
			</trkpt>
			<trkpt lat="-27.410119" lon="153.014009">
				<ele>16.385</ele>
				<time>2015-07-04T09:27:56Z</time>
				<extensions>
				</extensions>
			</trkpt>
			<trkpt lat="-27.410099" lon="153.013791">
				<ele>17.755</ele>
				<time>2015-07-04T09:27:58Z</time>
				<extensions>
				</extensions>
			</trkpt>
			<trkpt lat="-27.410072" lon="153.013529">
				<ele>18.736</ele>
				<time>2015-07-04T09:28:00Z</time>
				<extensions>
				</extensions>
			</trkpt>
			<trkpt lat="-27.410045" lon="153.013242">
				<ele>19.629</ele>
				<time>2015-07-04T09:28:02Z</time>
				<extensions>
				</extensions>
			</trkpt>
			<trkpt lat="-27.410014" lon="153.012925">
				<ele>19.949</ele>
				<time>2015-07-04T09:28:04Z</time>
				<extensions>
				</extensions>
			</trkpt>
			<trkpt lat="-27.409975" lon="153.012606">
				<ele>19.311</ele>
				<time>2015-07-04T09:28:06Z</time>
				<extensions>
				</extensions>
			</trkpt>
			<trkpt lat="-27.409921" lon="153.012292">
				<ele>19.748</ele>
				<time>2015-07-04T09:28:08Z</time>
				<extensions>
				</extensions>
			</trkpt>
			<trkpt lat="-27.409866" lon="153.011968">
				<ele>19.399</ele>
				<time>2015-07-04T09:28:10Z</time>
				<extensions>
				</extensions>
			</trkpt>
			<trkpt lat="-27.409816" lon="153.011646">
				<ele>18.785</ele>
				<time>2015-07-04T09:28:12Z</time>
				<extensions>
				</extensions>
			</trkpt>
			<trkpt lat="-27.409770" lon="153.011321">
				<ele>18.576</ele>
				<time>2015-07-04T09:28:14Z</time>
				<extensions>
				</extensions>
			</trkpt>
			<trkpt lat="-27.409725" lon="153.011009">
				<ele>18.291</ele>
				<time>2015-07-04T09:28:16Z</time>
				<extensions>
				</extensions>
			</trkpt>
			<trkpt lat="-27.409683" lon="153.010708">
				<ele>19.138</ele>
				<time>2015-07-04T09:28:18Z</time>
				<extensions>
				</extensions>
			</trkpt>
			<trkpt lat="-27.409631" lon="153.010389">
				<ele>19.108</ele>
				<time>2015-07-04T09:28:20Z</time>
				<extensions>
				</extensions>
			</trkpt>
			<trkpt lat="-27.409593" lon="153.010091">
				<ele>18.659</ele>
				<time>2015-07-04T09:28:22Z</time>
				<extensions>
				</extensions>
			</trkpt>
			<trkpt lat="-27.409550" lon="153.009806">
				<ele>18.159</ele>
				<time>2015-07-04T09:28:24Z</time>
				<extensions>
				</extensions>
			</trkpt>
			<trkpt lat="-27.409519" lon="153.009527">
				<ele>18.720</ele>
				<time>2015-07-04T09:28:26Z</time>
				<extensions>
				</extensions>
			</trkpt>
			<trkpt lat="-27.409495" lon="153.009238">
				<ele>19.078</ele>
				<time>2015-07-04T09:28:28Z</time>
				<extensions>
				</extensions>
			</trkpt>
			<trkpt lat="-27.409468" lon="153.008950">
				<ele>19.699</ele>
				<time>2015-07-04T09:28:30Z</time>
				<extensions>
				</extensions>
			</trkpt>
			<trkpt lat="-27.409416" lon="153.008620">
				<ele>22.633</ele>
				<time>2015-07-04T09:28:32Z</time>
				<extensions>
				</extensions>
			</trkpt>
			<trkpt lat="-27.409367" lon="153.008272">
				<ele>23.983</ele>
				<time>2015-07-04T09:28:34Z</time>
				<extensions>
				</extensions>
			</trkpt>
			<trkpt lat="-27.409320" lon="153.007926">
				<ele>23.028</ele>
				<time>2015-07-04T09:28:36Z</time>
				<extensions>
				</extensions>
			</trkpt>
			<trkpt lat="-27.409260" lon="153.007578">
				<ele>23.700</ele>
				<time>2015-07-04T09:28:38Z</time>
				<extensions>
				</extensions>
			</trkpt>
			<trkpt lat="-27.409209" lon="153.007241">
				<ele>24.217</ele>
				<time>2015-07-04T09:28:40Z</time>
				<extensions>
				</extensions>
			</trkpt>
			<trkpt lat="-27.409159" lon="153.006904">
				<ele>23.900</ele>
				<time>2015-07-04T09:28:42Z</time>
				<extensions>
				</extensions>
			</trkpt>
			<trkpt lat="-27.409108" lon="153.006580">
				<ele>23.889</ele>
				<time>2015-07-04T09:28:44Z</time>
				<extensions>
				</extensions>
			</trkpt>
			<trkpt lat="-27.409049" lon="153.006240">
				<ele>24.464</ele>
				<time>2015-07-04T09:28:46Z</time>
				<extensions>
				</extensions>
			</trkpt>
			<trkpt lat="-27.408994" lon="153.005886">
				<ele>26.083</ele>
				<time>2015-07-04T09:28:48Z</time>
				<extensions>
				</extensions>
			</trkpt>
			<trkpt lat="-27.408937" lon="153.005554">
				<ele>27.622</ele>
				<time>2015-07-04T09:28:50Z</time>
				<extensions>
				</extensions>
			</trkpt>
			<trkpt lat="-27.408881" lon="153.005222">
				<ele>29.097</ele>
				<time>2015-07-04T09:28:52Z</time>
				<extensions>
				</extensions>
			</trkpt>
			<trkpt lat="-27.408830" lon="153.004888">
				<ele>30.575</ele>
				<time>2015-07-04T09:28:54Z</time>
				<extensions>
				</extensions>
			</trkpt>
			<trkpt lat="-27.408780" lon="153.004543">
				<ele>31.438</ele>
				<time>2015-07-04T09:28:56Z</time>
				<extensions>
				</extensions>
			</trkpt>
			<trkpt lat="-27.408742" lon="153.004214">
				<ele>31.474</ele>
				<time>2015-07-04T09:28:58Z</time>
				<extensions>
				</extensions>
			</trkpt>
			<trkpt lat="-27.408694" lon="153.003882">
				<ele>31.996</ele>
				<time>2015-07-04T09:29:00Z</time>
				<extensions>
				</extensions>
			</trkpt>
			<trkpt lat="-27.408640" lon="153.003547">
				<ele>32.503</ele>
				<time>2015-07-04T09:29:02Z</time>
				<extensions>
				</extensions>
			</trkpt>
			<trkpt lat="-27.408590" lon="153.003212">
				<ele>33.674</ele>
				<time>2015-07-04T09:29:04Z</time>
				<extensions>
				</extensions>
			</trkpt>
			<trkpt lat="-27.408544" lon="153.002882">
				<ele>35.051</ele>
				<time>2015-07-04T09:29:06Z</time>
				<extensions>
				</extensions>
			</trkpt>
			<trkpt lat="-27.408493" lon="153.002544">
				<ele>36.109</ele>
				<time>2015-07-04T09:29:08Z</time>
				<extensions>
				</extensions>
			</trkpt>
			<trkpt lat="-27.408442" lon="153.002211">
				<ele>37.602</ele>
				<time>2015-07-04T09:29:10Z</time>
				<extensions>
				</extensions>
			</trkpt>
			<trkpt lat="-27.408389" lon="153.001888">
				<ele>39.591</ele>
				<time>2015-07-04T09:29:12Z</time>
				<extensions>
				</extensions>
			</trkpt>
			<trkpt lat="-27.408345" lon="153.001557">
				<ele>40.678</ele>
				<time>2015-07-04T09:29:14Z</time>
				<extensions>
				</extensions>
			</trkpt>
			<trkpt lat="-27.408295" lon="153.001243">
				<ele>41.643</ele>
				<time>2015-07-04T09:29:16Z</time>
				<extensions>
				</extensions>
			</trkpt>
			<trkpt lat="-27.408253" lon="153.000926">
				<ele>41.983</ele>
				<time>2015-07-04T09:29:18Z</time>
				<extensions>
				</extensions>
			</trkpt>
			<trkpt lat="-27.408209" lon="153.000610">
				<ele>42.889</ele>
				<time>2015-07-04T09:29:20Z</time>
				<extensions>
				</extensions>
			</trkpt>
			<trkpt lat="-27.408139" lon="153.000299">
				<ele>43.983</ele>
				<time>2015-07-04T09:29:22Z</time>
				<extensions>
				</extensions>
			</trkpt>
			<trkpt lat="-27.408005" lon="153.000007">
				<ele>45.947</ele>
				<time>2015-07-04T09:29:24Z</time>
				<extensions>
				</extensions>
			</trkpt>
			<trkpt lat="-27.407868" lon="152.999747">
				<ele>44.528</ele>
				<time>2015-07-04T09:29:26Z</time>
				<extensions>
				</extensions>
			</trkpt>
			<trkpt lat="-27.407746" lon="152.999511">
				<ele>43.716</ele>
				<time>2015-07-04T09:29:28Z</time>
				<extensions>
				</extensions>
			</trkpt>
			<trkpt lat="-27.407644" lon="152.999313">
				<ele>41.491</ele>
				<time>2015-07-04T09:29:30Z</time>
				<extensions>
				</extensions>
			</trkpt>
			<trkpt lat="-27.407556" lon="152.999137">
				<ele>40.804</ele>
				<time>2015-07-04T09:29:32Z</time>
				<extensions>
				</extensions>
			</trkpt>
			<trkpt lat="-27.407427" lon="152.998882">
				<ele>39.495</ele>
				<time>2015-07-04T09:29:35Z</time>
				<extensions>
				</extensions>
			</trkpt>
			<trkpt lat="-27.407315" lon="152.998642">
				<ele>38.500</ele>
				<time>2015-07-04T09:29:38Z</time>
				<extensions>
				</extensions>
			</trkpt>
			<trkpt lat="-27.407244" lon="152.998344">
				<ele>39.222</ele>
				<time>2015-07-04T09:29:41Z</time>
				<extensions>
				</extensions>
			</trkpt>
			<trkpt lat="-27.407253" lon="152.998101">
				<ele>38.085</ele>
				<time>2015-07-04T09:29:43Z</time>
				<extensions>
				</extensions>
			</trkpt>
			<trkpt lat="-27.407296" lon="152.997828">
				<ele>36.534</ele>
				<time>2015-07-04T09:29:45Z</time>
				<extensions>
				</extensions>
			</trkpt>
			<trkpt lat="-27.407335" lon="152.997538">
				<ele>34.117</ele>
				<time>2015-07-04T09:29:47Z</time>
				<extensions>
				</extensions>
			</trkpt>
			<trkpt lat="-27.407374" lon="152.997225">
				<ele>32.935</ele>
				<time>2015-07-04T09:29:49Z</time>
				<extensions>
				</extensions>
			</trkpt>
			<trkpt lat="-27.407427" lon="152.996897">
				<ele>30.744</ele>
				<time>2015-07-04T09:29:51Z</time>
				<extensions>
				</extensions>
			</trkpt>
			<trkpt lat="-27.407472" lon="152.996575">
				<ele>29.955</ele>
				<time>2015-07-04T09:29:53Z</time>
				<extensions>
				</extensions>
			</trkpt>
			<trkpt lat="-27.407485" lon="152.996253">
				<ele>28.251</ele>
				<time>2015-07-04T09:29:55Z</time>
				<extensions>
				</extensions>
			</trkpt>
			<trkpt lat="-27.407461" lon="152.995935">
				<ele>27.613</ele>
				<time>2015-07-04T09:29:57Z</time>
				<extensions>
				</extensions>
			</trkpt>
			<trkpt lat="-27.407410" lon="152.995614">
				<ele>26.305</ele>
				<time>2015-07-04T09:29:59Z</time>
				<extensions>
				</extensions>
			</trkpt>
			<trkpt lat="-27.407369" lon="152.995303">
				<ele>25.249</ele>
				<time>2015-07-04T09:30:01Z</time>
				<extensions>
				</extensions>
			</trkpt>
			<trkpt lat="-27.407321" lon="152.994995">
				<ele>24.385</ele>
				<time>2015-07-04T09:30:03Z</time>
				<extensions>
				</extensions>
			</trkpt>
			<trkpt lat="-27.407278" lon="152.994687">
				<ele>24.185</ele>
				<time>2015-07-04T09:30:05Z</time>
				<extensions>
				</extensions>
			</trkpt>
			<trkpt lat="-27.407239" lon="152.994394">
				<ele>23.428</ele>
				<time>2015-07-04T09:30:07Z</time>
				<extensions>
				</extensions>
			</trkpt>
			<trkpt lat="-27.407214" lon="152.994094">
				<ele>22.930</ele>
				<time>2015-07-04T09:30:09Z</time>
				<extensions>
				</extensions>
			</trkpt>
			<trkpt lat="-27.407181" lon="152.993787">
				<ele>22.812</ele>
				<time>2015-07-04T09:30:11Z</time>
				<extensions>
				</extensions>
			</trkpt>
			<trkpt lat="-27.407129" lon="152.993478">
				<ele>23.090</ele>
				<time>2015-07-04T09:30:13Z</time>
				<extensions>
				</extensions>
			</trkpt>
			<trkpt lat="-27.407079" lon="152.993182">
				<ele>23.022</ele>
				<time>2015-07-04T09:30:15Z</time>
				<extensions>
				</extensions>
			</trkpt>
			<trkpt lat="-27.407039" lon="152.992896">
				<ele>22.892</ele>
				<time>2015-07-04T09:30:17Z</time>
				<extensions>
				</extensions>
			</trkpt>
			<trkpt lat="-27.407007" lon="152.992635">
				<ele>22.807</ele>
				<time>2015-07-04T09:30:19Z</time>
				<extensions>
				</extensions>
			</trkpt>
			<trkpt lat="-27.406983" lon="152.992396">
				<ele>22.112</ele>
				<time>2015-07-04T09:30:21Z</time>
				<extensions>
				</extensions>
			</trkpt>
			<trkpt lat="-27.406992" lon="152.992142">
				<ele>20.099</ele>
				<time>2015-07-04T09:30:24Z</time>
				<extensions>
				</extensions>
			</trkpt>
			<trkpt lat="-27.407024" lon="152.991918">
				<ele>20.894</ele>
				<time>2015-07-04T09:31:07Z</time>
				<extensions>
				</extensions>
			</trkpt>
			<trkpt lat="-27.407080" lon="152.991694">
				<ele>21.184</ele>
				<time>2015-07-04T09:31:12Z</time>
				<extensions>
				</extensions>
			</trkpt>
			<trkpt lat="-27.407135" lon="152.991491">
				<ele>21.922</ele>
				<time>2015-07-04T09:31:45Z</time>
				<extensions>
				</extensions>
			</trkpt>
			<trkpt lat="-27.407157" lon="152.991250">
				<ele>23.647</ele>
				<time>2015-07-04T09:32:42Z</time>
				<extensions>
				</extensions>
			</trkpt>
			<trkpt lat="-27.407266" lon="152.991055">
				<ele>25.541</ele>
				<time>2015-07-04T09:34:12Z</time>
				<extensions>
				</extensions>
			</trkpt>
			<trkpt lat="-27.407140" lon="152.990840">
				<ele>27.242</ele>
				<time>2015-07-04T09:34:14Z</time>
				<extensions>
				</extensions>
			</trkpt>
			<trkpt lat="-27.406851" lon="152.990807">
				<ele>29.576</ele>
				<time>2015-07-04T09:34:17Z</time>
				<extensions>
				</extensions>
			</trkpt>
			<trkpt lat="-27.406589" lon="152.990789">
				<ele>31.467</ele>
				<time>2015-07-04T09:34:19Z</time>
				<extensions>
				</extensions>
			</trkpt>
			<trkpt lat="-27.406320" lon="152.990757">
				<ele>31.844</ele>
				<time>2015-07-04T09:34:21Z</time>
				<extensions>
				</extensions>
			</trkpt>
			<trkpt lat="-27.406073" lon="152.990698">
				<ele>30.513</ele>
				<time>2015-07-04T09:34:23Z</time>
				<extensions>
				</extensions>
			</trkpt>
			<trkpt lat="-27.405860" lon="152.990546">
				<ele>29.851</ele>
				<time>2015-07-04T09:34:25Z</time>
				<extensions>
				</extensions>
			</trkpt>
			<trkpt lat="-27.405674" lon="152.990307">
				<ele>32.705</ele>
				<time>2015-07-04T09:34:27Z</time>
				<extensions>
				</extensions>
			</trkpt>
			<trkpt lat="-27.405481" lon="152.990049">
				<ele>34.037</ele>
				<time>2015-07-04T09:34:29Z</time>
				<extensions>
				</extensions>
			</trkpt>
			<trkpt lat="-27.405289" lon="152.989802">
				<ele>33.345</ele>
				<time>2015-07-04T09:34:31Z</time>
				<extensions>
				</extensions>
			</trkpt>
			<trkpt lat="-27.405112" lon="152.989537">
				<ele>33.070</ele>
				<time>2015-07-04T09:34:33Z</time>
				<extensions>
				</extensions>
			</trkpt>
			<trkpt lat="-27.404954" lon="152.989255">
				<ele>33.420</ele>
				<time>2015-07-04T09:34:35Z</time>
				<extensions>
				</extensions>
			</trkpt>
			<trkpt lat="-27.404800" lon="152.988982">
				<ele>33.062</ele>
				<time>2015-07-04T09:34:37Z</time>
				<extensions>
				</extensions>
			</trkpt>
			<trkpt lat="-27.404627" lon="152.988738">
				<ele>32.525</ele>
				<time>2015-07-04T09:34:39Z</time>
				<extensions>
				</extensions>
			</trkpt>
			<trkpt lat="-27.404404" lon="152.988542">
				<ele>33.218</ele>
				<time>2015-07-04T09:34:41Z</time>
				<extensions>
				</extensions>
			</trkpt>
			<trkpt lat="-27.404158" lon="152.988346">
				<ele>33.949</ele>
				<time>2015-07-04T09:34:43Z</time>
				<extensions>
				</extensions>
			</trkpt>
			<trkpt lat="-27.403917" lon="152.988151">
				<ele>33.512</ele>
				<time>2015-07-04T09:34:45Z</time>
				<extensions>
				</extensions>
			</trkpt>
			<trkpt lat="-27.403682" lon="152.987954">
				<ele>33.498</ele>
				<time>2015-07-04T09:34:47Z</time>
				<extensions>
				</extensions>
			</trkpt>
			<trkpt lat="-27.403445" lon="152.987751">
				<ele>33.596</ele>
				<time>2015-07-04T09:34:49Z</time>
				<extensions>
				</extensions>
			</trkpt>
			<trkpt lat="-27.403216" lon="152.987549">
				<ele>33.862</ele>
				<time>2015-07-04T09:34:51Z</time>
				<extensions>
				</extensions>
			</trkpt>
			<trkpt lat="-27.402992" lon="152.987342">
				<ele>33.604</ele>
				<time>2015-07-04T09:34:53Z</time>
				<extensions>
				</extensions>
			</trkpt>
			<trkpt lat="-27.402770" lon="152.987145">
				<ele>34.456</ele>
				<time>2015-07-04T09:34:55Z</time>
				<extensions>
				</extensions>
			</trkpt>
			<trkpt lat="-27.402534" lon="152.987000">
				<ele>33.694</ele>
				<time>2015-07-04T09:34:57Z</time>
				<extensions>
				</extensions>
			</trkpt>
			<trkpt lat="-27.402257" lon="152.986939">
				<ele>34.689</ele>
				<time>2015-07-04T09:34:59Z</time>
				<extensions>
				</extensions>
			</trkpt>
			<trkpt lat="-27.401954" lon="152.986908">
				<ele>35.360</ele>
				<time>2015-07-04T09:35:01Z</time>
				<extensions>
				</extensions>
			</trkpt>
			<trkpt lat="-27.401660" lon="152.986874">
				<ele>35.678</ele>
				<time>2015-07-04T09:35:03Z</time>
				<extensions>
				</extensions>
			</trkpt>
			<trkpt lat="-27.401366" lon="152.986803">
				<ele>36.895</ele>
				<time>2015-07-04T09:35:05Z</time>
				<extensions>
				</extensions>
			</trkpt>
			<trkpt lat="-27.401105" lon="152.986672">
				<ele>38.911</ele>
				<time>2015-07-04T09:35:07Z</time>
				<extensions>
				</extensions>
			</trkpt>
			<trkpt lat="-27.400841" lon="152.986534">
				<ele>39.921</ele>
				<time>2015-07-04T09:35:09Z</time>
				<extensions>
				</extensions>
			</trkpt>
			<trkpt lat="-27.400574" lon="152.986438">
				<ele>40.144</ele>
				<time>2015-07-04T09:35:11Z</time>
				<extensions>
				</extensions>
			</trkpt>
			<trkpt lat="-27.400276" lon="152.986394">
				<ele>41.689</ele>
				<time>2015-07-04T09:35:13Z</time>
				<extensions>
				</extensions>
			</trkpt>
			<trkpt lat="-27.399983" lon="152.986345">
				<ele>42.682</ele>
				<time>2015-07-04T09:35:15Z</time>
				<extensions>
				</extensions>
			</trkpt>
			<trkpt lat="-27.399684" lon="152.986285">
				<ele>43.843</ele>
				<time>2015-07-04T09:35:17Z</time>
				<extensions>
				</extensions>
			</trkpt>
			<trkpt lat="-27.399400" lon="152.986226">
				<ele>46.248</ele>
				<time>2015-07-04T09:35:19Z</time>
				<extensions>
				</extensions>
			</trkpt>
			<trkpt lat="-27.399123" lon="152.986180">
				<ele>49.049</ele>
				<time>2015-07-04T09:35:21Z</time>
				<extensions>
				</extensions>
			</trkpt>
			<trkpt lat="-27.398862" lon="152.986198">
				<ele>52.382</ele>
				<time>2015-07-04T09:35:23Z</time>
				<extensions>
				</extensions>
			</trkpt>
			<trkpt lat="-27.398613" lon="152.986305">
				<ele>55.871</ele>
				<time>2015-07-04T09:35:25Z</time>
				<extensions>
				</extensions>
			</trkpt>
			<trkpt lat="-27.398375" lon="152.986473">
				<ele>60.094</ele>
				<time>2015-07-04T09:35:27Z</time>
				<extensions>
				</extensions>
			</trkpt>
			<trkpt lat="-27.398111" lon="152.986658">
				<ele>63.453</ele>
				<time>2015-07-04T09:35:29Z</time>
				<extensions>
				</extensions>
			</trkpt>
			<trkpt lat="-27.397865" lon="152.986830">
				<ele>63.425</ele>
				<time>2015-07-04T09:35:31Z</time>
				<extensions>
				</extensions>
			</trkpt>
			<trkpt lat="-27.397633" lon="152.986954">
				<ele>62.998</ele>
				<time>2015-07-04T09:35:33Z</time>
				<extensions>
				</extensions>
			</trkpt>
			<trkpt lat="-27.397391" lon="152.986982">
				<ele>62.319</ele>
				<time>2015-07-04T09:35:35Z</time>
				<extensions>
				</extensions>
			</trkpt>
			<trkpt lat="-27.397144" lon="152.986900">
				<ele>61.610</ele>
				<time>2015-07-04T09:35:37Z</time>
				<extensions>
				</extensions>
			</trkpt>
			<trkpt lat="-27.396869" lon="152.986766">
				<ele>60.728</ele>
				<time>2015-07-04T09:35:39Z</time>
				<extensions>
				</extensions>
			</trkpt>
			<trkpt lat="-27.396586" lon="152.986634">
				<ele>58.137</ele>
				<time>2015-07-04T09:35:41Z</time>
				<extensions>
				</extensions>
			</trkpt>
			<trkpt lat="-27.396292" lon="152.986497">
				<ele>54.855</ele>
				<time>2015-07-04T09:35:43Z</time>
				<extensions>
				</extensions>
			</trkpt>
			<trkpt lat="-27.396002" lon="152.986364">
				<ele>52.145</ele>
				<time>2015-07-04T09:35:45Z</time>
				<extensions>
				</extensions>
			</trkpt>
			<trkpt lat="-27.395725" lon="152.986237">
				<ele>50.699</ele>
				<time>2015-07-04T09:35:47Z</time>
				<extensions>
				</extensions>
			</trkpt>
			<trkpt lat="-27.395449" lon="152.986116">
				<ele>51.557</ele>
				<time>2015-07-04T09:35:49Z</time>
				<extensions>
				</extensions>
			</trkpt>
			<trkpt lat="-27.395172" lon="152.985996">
				<ele>54.520</ele>
				<time>2015-07-04T09:35:51Z</time>
				<extensions>
				</extensions>
			</trkpt>
			<trkpt lat="-27.394896" lon="152.985876">
				<ele>58.306</ele>
				<time>2015-07-04T09:35:53Z</time>
				<extensions>
				</extensions>
			</trkpt>
			<trkpt lat="-27.394609" lon="152.985752">
				<ele>62.223</ele>
				<time>2015-07-04T09:35:55Z</time>
				<extensions>
				</extensions>
			</trkpt>
			<trkpt lat="-27.394322" lon="152.985634">
				<ele>64.489</ele>
				<time>2015-07-04T09:35:57Z</time>
				<extensions>
				</extensions>
			</trkpt>
			<trkpt lat="-27.394039" lon="152.985511">
				<ele>63.917</ele>
				<time>2015-07-04T09:35:59Z</time>
				<extensions>
				</extensions>
			</trkpt>
			<trkpt lat="-27.393746" lon="152.985384">
				<ele>62.598</ele>
				<time>2015-07-04T09:36:01Z</time>
				<extensions>
				</extensions>
			</trkpt>
			<trkpt lat="-27.393444" lon="152.985257">
				<ele>59.897</ele>
				<time>2015-07-04T09:36:03Z</time>
				<extensions>
				</extensions>
			</trkpt>
			<trkpt lat="-27.393133" lon="152.985118">
				<ele>57.212</ele>
				<time>2015-07-04T09:36:05Z</time>
				<extensions>
				</extensions>
			</trkpt>
			<trkpt lat="-27.392843" lon="152.984992">
				<ele>55.589</ele>
				<time>2015-07-04T09:36:07Z</time>
				<extensions>
				</extensions>
			</trkpt>
			<trkpt lat="-27.392541" lon="152.984896">
				<ele>56.709</ele>
				<time>2015-07-04T09:36:09Z</time>
				<extensions>
				</extensions>
			</trkpt>
			<trkpt lat="-27.392230" lon="152.984876">
				<ele>60.116</ele>
				<time>2015-07-04T09:36:11Z</time>
				<extensions>
				</extensions>
			</trkpt>
			<trkpt lat="-27.391919" lon="152.984919">
				<ele>64.286</ele>
				<time>2015-07-04T09:36:13Z</time>
				<extensions>
				</extensions>
			</trkpt>
			<trkpt lat="-27.391609" lon="152.984979">
				<ele>67.842</ele>
				<time>2015-07-04T09:36:15Z</time>
				<extensions>
				</extensions>
			</trkpt>
			<trkpt lat="-27.391313" lon="152.985039">
				<ele>69.619</ele>
				<time>2015-07-04T09:36:17Z</time>
				<extensions>
				</extensions>
			</trkpt>
			<trkpt lat="-27.391013" lon="152.985091">
				<ele>70.153</ele>
				<time>2015-07-04T09:36:19Z</time>
				<extensions>
				</extensions>
			</trkpt>
			<trkpt lat="-27.390724" lon="152.985137">
				<ele>70.447</ele>
				<time>2015-07-04T09:36:21Z</time>
				<extensions>
				</extensions>
			</trkpt>
			<trkpt lat="-27.390412" lon="152.985128">
				<ele>70.927</ele>
				<time>2015-07-04T09:36:23Z</time>
				<extensions>
				</extensions>
			</trkpt>
			<trkpt lat="-27.390099" lon="152.985104">
				<ele>70.223</ele>
				<time>2015-07-04T09:36:25Z</time>
				<extensions>
				</extensions>
			</trkpt>
			<trkpt lat="-27.389779" lon="152.985074">
				<ele>69.321</ele>
				<time>2015-07-04T09:36:27Z</time>
				<extensions>
				</extensions>
			</trkpt>
			<trkpt lat="-27.389452" lon="152.985043">
				<ele>67.992</ele>
				<time>2015-07-04T09:36:29Z</time>
				<extensions>
				</extensions>
			</trkpt>
			<trkpt lat="-27.389129" lon="152.985007">
				<ele>65.992</ele>
				<time>2015-07-04T09:36:31Z</time>
				<extensions>
				</extensions>
			</trkpt>
			<trkpt lat="-27.388784" lon="152.984955">
				<ele>66.623</ele>
				<time>2015-07-04T09:36:33Z</time>
				<extensions>
				</extensions>
			</trkpt>
			<trkpt lat="-27.388600" lon="152.984927">
				<ele>66.027</ele>
				<time>2015-07-04T09:36:34Z</time>
				<extensions>
				</extensions>
			</trkpt>
			<trkpt lat="-27.388419" lon="152.984904">
				<ele>64.079</ele>
				<time>2015-07-04T09:36:35Z</time>
				<extensions>
				</extensions>
			</trkpt>
			<trkpt lat="-27.388063" lon="152.984867">
				<ele>62.300</ele>
				<time>2015-07-04T09:36:37Z</time>
				<extensions>
				</extensions>
			</trkpt>
			<trkpt lat="-27.387704" lon="152.984838">
				<ele>60.275</ele>
				<time>2015-07-04T09:36:39Z</time>
				<extensions>
				</extensions>
			</trkpt>
			<trkpt lat="-27.387349" lon="152.984801">
				<ele>58.071</ele>
				<time>2015-07-04T09:36:41Z</time>
				<extensions>
				</extensions>
			</trkpt>
			<trkpt lat="-27.386994" lon="152.984772">
				<ele>57.860</ele>
				<time>2015-07-04T09:36:43Z</time>
				<extensions>
				</extensions>
			</trkpt>
			<trkpt lat="-27.386641" lon="152.984768">
				<ele>58.199</ele>
				<time>2015-07-04T09:36:45Z</time>
				<extensions>
				</extensions>
			</trkpt>
			<trkpt lat="-27.386290" lon="152.984738">
				<ele>59.215</ele>
				<time>2015-07-04T09:36:47Z</time>
				<extensions>
				</extensions>
			</trkpt>
			<trkpt lat="-27.385946" lon="152.984641">
				<ele>61.564</ele>
				<time>2015-07-04T09:36:49Z</time>
				<extensions>
				</extensions>
			</trkpt>
			<trkpt lat="-27.385626" lon="152.984472">
				<ele>62.759</ele>
				<time>2015-07-04T09:36:51Z</time>
				<extensions>
				</extensions>
			</trkpt>
			<trkpt lat="-27.385476" lon="152.984358">
				<ele>63.111</ele>
				<time>2015-07-04T09:36:52Z</time>
				<extensions>
				</extensions>
			</trkpt>
			<trkpt lat="-27.385196" lon="152.984119">
				<ele>62.887</ele>
				<time>2015-07-04T09:36:54Z</time>
				<extensions>
				</extensions>
			</trkpt>
			<trkpt lat="-27.384897" lon="152.983908">
				<ele>63.714</ele>
				<time>2015-07-04T09:36:56Z</time>
				<extensions>
				</extensions>
			</trkpt>
			<trkpt lat="-27.384591" lon="152.983728">
				<ele>63.115</ele>
				<time>2015-07-04T09:36:58Z</time>
				<extensions>
				</extensions>
			</trkpt>
			<trkpt lat="-27.384261" lon="152.983581">
				<ele>62.229</ele>
				<time>2015-07-04T09:37:00Z</time>
				<extensions>
				</extensions>
			</trkpt>
			<trkpt lat="-27.384082" lon="152.983531">
				<ele>60.700</ele>
				<time>2015-07-04T09:37:01Z</time>
				<extensions>
				</extensions>
			</trkpt>
			<trkpt lat="-27.383902" lon="152.983479">
				<ele>60.012</ele>
				<time>2015-07-04T09:37:02Z</time>
				<extensions>
				</extensions>
			</trkpt>
			<trkpt lat="-27.383721" lon="152.983427">
				<ele>58.922</ele>
				<time>2015-07-04T09:37:03Z</time>
				<extensions>
				</extensions>
			</trkpt>
			<trkpt lat="-27.383544" lon="152.983372">
				<ele>57.014</ele>
				<time>2015-07-04T09:37:04Z</time>
				<extensions>
				</extensions>
			</trkpt>
			<trkpt lat="-27.383364" lon="152.983320">
				<ele>55.086</ele>
				<time>2015-07-04T09:37:05Z</time>
				<extensions>
				</extensions>
			</trkpt>
			<trkpt lat="-27.383188" lon="152.983270">
				<ele>53.527</ele>
				<time>2015-07-04T09:37:06Z</time>
				<extensions>
				</extensions>
			</trkpt>
			<trkpt lat="-27.383009" lon="152.983218">
				<ele>51.946</ele>
				<time>2015-07-04T09:37:07Z</time>
				<extensions>
				</extensions>
			</trkpt>
			<trkpt lat="-27.382827" lon="152.983161">
				<ele>50.654</ele>
				<time>2015-07-04T09:37:08Z</time>
				<extensions>
				</extensions>
			</trkpt>
			<trkpt lat="-27.382646" lon="152.983090">
				<ele>49.468</ele>
				<time>2015-07-04T09:37:09Z</time>
				<extensions>
				</extensions>
			</trkpt>
			<trkpt lat="-27.382459" lon="152.983012">
				<ele>48.730</ele>
				<time>2015-07-04T09:37:10Z</time>
				<extensions>
				</extensions>
			</trkpt>
			<trkpt lat="-27.382280" lon="152.982925">
				<ele>48.195</ele>
				<time>2015-07-04T09:37:11Z</time>
				<extensions>
				</extensions>
			</trkpt>
			<trkpt lat="-27.382113" lon="152.982825">
				<ele>46.739</ele>
				<time>2015-07-04T09:37:12Z</time>
				<extensions>
				</extensions>
			</trkpt>
			<trkpt lat="-27.381954" lon="152.982700">
				<ele>46.062</ele>
				<time>2015-07-04T09:37:13Z</time>
				<extensions>
				</extensions>
			</trkpt>
			<trkpt lat="-27.381804" lon="152.982562">
				<ele>45.550</ele>
				<time>2015-07-04T09:37:14Z</time>
				<extensions>
				</extensions>
			</trkpt>
			<trkpt lat="-27.381664" lon="152.982421">
				<ele>44.515</ele>
				<time>2015-07-04T09:37:15Z</time>
				<extensions>
				</extensions>
			</trkpt>
			<trkpt lat="-27.381526" lon="152.982274">
				<ele>42.817</ele>
				<time>2015-07-04T09:37:16Z</time>
				<extensions>
				</extensions>
			</trkpt>
			<trkpt lat="-27.381395" lon="152.982131">
				<ele>41.954</ele>
				<time>2015-07-04T09:37:17Z</time>
				<extensions>
				</extensions>
			</trkpt>
			<trkpt lat="-27.381263" lon="152.981993">
				<ele>41.997</ele>
				<time>2015-07-04T09:37:18Z</time>
				<extensions>
				</extensions>
			</trkpt>
			<trkpt lat="-27.381127" lon="152.981846">
				<ele>41.021</ele>
				<time>2015-07-04T09:37:19Z</time>
				<extensions>
				</extensions>
			</trkpt>
			<trkpt lat="-27.380993" lon="152.981709">
				<ele>41.005</ele>
				<time>2015-07-04T09:37:20Z</time>
				<extensions>
				</extensions>
			</trkpt>
			<trkpt lat="-27.380723" lon="152.981464">
				<ele>40.721</ele>
				<time>2015-07-04T09:37:22Z</time>
				<extensions>
				</extensions>
			</trkpt>
			<trkpt lat="-27.380429" lon="152.981245">
				<ele>43.141</ele>
				<time>2015-07-04T09:37:24Z</time>
				<extensions>
				</extensions>
			</trkpt>
			<trkpt lat="-27.380266" lon="152.981143">
				<ele>43.680</ele>
				<time>2015-07-04T09:37:25Z</time>
				<extensions>
				</extensions>
			</trkpt>
			<trkpt lat="-27.380094" lon="152.981044">
				<ele>44.660</ele>
				<time>2015-07-04T09:37:26Z</time>
				<extensions>
				</extensions>
			</trkpt>
			<trkpt lat="-27.379918" lon="152.980953">
				<ele>46.500</ele>
				<time>2015-07-04T09:37:27Z</time>
				<extensions>
				</extensions>
			</trkpt>
			<trkpt lat="-27.379740" lon="152.980868">
				<ele>47.408</ele>
				<time>2015-07-04T09:37:28Z</time>
				<extensions>
				</extensions>
			</trkpt>
			<trkpt lat="-27.379570" lon="152.980799">
				<ele>48.153</ele>
				<time>2015-07-04T09:37:29Z</time>
				<extensions>
				</extensions>
			</trkpt>
			<trkpt lat="-27.379229" lon="152.980692">
				<ele>50.131</ele>
				<time>2015-07-04T09:37:31Z</time>
				<extensions>
				</extensions>
			</trkpt>
			<trkpt lat="-27.379049" lon="152.980652">
				<ele>51.070</ele>
				<time>2015-07-04T09:37:32Z</time>
				<extensions>
				</extensions>
			</trkpt>
			<trkpt lat="-27.378861" lon="152.980617">
				<ele>52.699</ele>
				<time>2015-07-04T09:37:33Z</time>
				<extensions>
				</extensions>
			</trkpt>
			<trkpt lat="-27.378666" lon="152.980589">
				<ele>55.144</ele>
				<time>2015-07-04T09:37:34Z</time>
				<extensions>
				</extensions>
			</trkpt>
			<trkpt lat="-27.378460" lon="152.980566">
				<ele>57.338</ele>
				<time>2015-07-04T09:37:35Z</time>
				<extensions>
				</extensions>
			</trkpt>
			<trkpt lat="-27.378262" lon="152.980541">
				<ele>59.339</ele>
				<time>2015-07-04T09:37:36Z</time>
				<extensions>
				</extensions>
			</trkpt>
			<trkpt lat="-27.378072" lon="152.980515">
				<ele>59.455</ele>
				<time>2015-07-04T09:37:37Z</time>
				<extensions>
				</extensions>
			</trkpt>
			<trkpt lat="-27.377880" lon="152.980492">
				<ele>60.128</ele>
				<time>2015-07-04T09:37:38Z</time>
				<extensions>
				</extensions>
			</trkpt>
			<trkpt lat="-27.377685" lon="152.980468">
				<ele>61.099</ele>
				<time>2015-07-04T09:37:39Z</time>
				<extensions>
				</extensions>
			</trkpt>
			<trkpt lat="-27.377489" lon="152.980444">
				<ele>62.569</ele>
				<time>2015-07-04T09:37:40Z</time>
				<extensions>
				</extensions>
			</trkpt>
			<trkpt lat="-27.377294" lon="152.980421">
				<ele>63.165</ele>
				<time>2015-07-04T09:37:41Z</time>
				<extensions>
				</extensions>
			</trkpt>
			<trkpt lat="-27.377098" lon="152.980398">
				<ele>62.685</ele>
				<time>2015-07-04T09:37:42Z</time>
				<extensions>
				</extensions>
			</trkpt>
			<trkpt lat="-27.376904" lon="152.980377">
				<ele>62.805</ele>
				<time>2015-07-04T09:37:43Z</time>
				<extensions>
				</extensions>
			</trkpt>
			<trkpt lat="-27.376711" lon="152.980355">
				<ele>62.580</ele>
				<time>2015-07-04T09:37:44Z</time>
				<extensions>
				</extensions>
			</trkpt>
			<trkpt lat="-27.376518" lon="152.980334">
				<ele>63.303</ele>
				<time>2015-07-04T09:37:45Z</time>
				<extensions>
				</extensions>
			</trkpt>
			<trkpt lat="-27.376326" lon="152.980312">
				<ele>62.996</ele>
				<time>2015-07-04T09:37:46Z</time>
				<extensions>
				</extensions>
			</trkpt>
			<trkpt lat="-27.376131" lon="152.980291">
				<ele>62.354</ele>
				<time>2015-07-04T09:37:47Z</time>
				<extensions>
				</extensions>
			</trkpt>
			<trkpt lat="-27.375938" lon="152.980275">
				<ele>62.181</ele>
				<time>2015-07-04T09:37:48Z</time>
				<extensions>
				</extensions>
			</trkpt>
			<trkpt lat="-27.375742" lon="152.980261">
				<ele>60.812</ele>
				<time>2015-07-04T09:37:49Z</time>
				<extensions>
				</extensions>
			</trkpt>
			<trkpt lat="-27.375544" lon="152.980248">
				<ele>60.010</ele>
				<time>2015-07-04T09:37:50Z</time>
				<extensions>
				</extensions>
			</trkpt>
			<trkpt lat="-27.375344" lon="152.980240">
				<ele>58.593</ele>
				<time>2015-07-04T09:37:51Z</time>
				<extensions>
				</extensions>
			</trkpt>
			<trkpt lat="-27.375147" lon="152.980229">
				<ele>57.075</ele>
				<time>2015-07-04T09:37:52Z</time>
				<extensions>
				</extensions>
			</trkpt>
			<trkpt lat="-27.374949" lon="152.980222">
				<ele>56.227</ele>
				<time>2015-07-04T09:37:53Z</time>
				<extensions>
				</extensions>
			</trkpt>
			<trkpt lat="-27.374753" lon="152.980216">
				<ele>55.485</ele>
				<time>2015-07-04T09:37:54Z</time>
				<extensions>
				</extensions>
			</trkpt>
			<trkpt lat="-27.374554" lon="152.980221">
				<ele>55.173</ele>
				<time>2015-07-04T09:37:55Z</time>
				<extensions>
				</extensions>
			</trkpt>
			<trkpt lat="-27.374357" lon="152.980226">
				<ele>54.291</ele>
				<time>2015-07-04T09:37:56Z</time>
				<extensions>
				</extensions>
			</trkpt>
			<trkpt lat="-27.374167" lon="152.980230">
				<ele>53.851</ele>
				<time>2015-07-04T09:37:57Z</time>
				<extensions>
				</extensions>
			</trkpt>
			<trkpt lat="-27.373975" lon="152.980236">
				<ele>53.955</ele>
				<time>2015-07-04T09:37:58Z</time>
				<extensions>
				</extensions>
			</trkpt>
			<trkpt lat="-27.373779" lon="152.980243">
				<ele>54.339</ele>
				<time>2015-07-04T09:37:59Z</time>
				<extensions>
				</extensions>
			</trkpt>
			<trkpt lat="-27.373584" lon="152.980257">
				<ele>54.851</ele>
				<time>2015-07-04T09:38:00Z</time>
				<extensions>
				</extensions>
			</trkpt>
			<trkpt lat="-27.373390" lon="152.980263">
				<ele>56.077</ele>
				<time>2015-07-04T09:38:01Z</time>
				<extensions>
				</extensions>
			</trkpt>
			<trkpt lat="-27.373195" lon="152.980274">
				<ele>55.707</ele>
				<time>2015-07-04T09:38:02Z</time>
				<extensions>
				</extensions>
			</trkpt>
			<trkpt lat="-27.372997" lon="152.980284">
				<ele>56.923</ele>
				<time>2015-07-04T09:38:03Z</time>
				<extensions>
				</extensions>
			</trkpt>
			<trkpt lat="-27.372798" lon="152.980290">
				<ele>56.600</ele>
				<time>2015-07-04T09:38:04Z</time>
				<extensions>
				</extensions>
			</trkpt>
			<trkpt lat="-27.372596" lon="152.980293">
				<ele>56.801</ele>
				<time>2015-07-04T09:38:05Z</time>
				<extensions>
				</extensions>
			</trkpt>
			<trkpt lat="-27.372401" lon="152.980297">
				<ele>57.095</ele>
				<time>2015-07-04T09:38:06Z</time>
				<extensions>
				</extensions>
			</trkpt>
			<trkpt lat="-27.372202" lon="152.980286">
				<ele>55.976</ele>
				<time>2015-07-04T09:38:07Z</time>
				<extensions>
				</extensions>
			</trkpt>
			<trkpt lat="-27.372003" lon="152.980265">
				<ele>55.778</ele>
				<time>2015-07-04T09:38:08Z</time>
				<extensions>
				</extensions>
			</trkpt>
			<trkpt lat="-27.371807" lon="152.980239">
				<ele>54.489</ele>
				<time>2015-07-04T09:38:09Z</time>
				<extensions>
				</extensions>
			</trkpt>
			<trkpt lat="-27.371609" lon="152.980209">
				<ele>54.010</ele>
				<time>2015-07-04T09:38:10Z</time>
				<extensions>
				</extensions>
			</trkpt>
			<trkpt lat="-27.371413" lon="152.980171">
				<ele>53.466</ele>
				<time>2015-07-04T09:38:11Z</time>
				<extensions>
				</extensions>
			</trkpt>
			<trkpt lat="-27.371221" lon="152.980118">
				<ele>52.559</ele>
				<time>2015-07-04T09:38:12Z</time>
				<extensions>
				</extensions>
			</trkpt>
			<trkpt lat="-27.371023" lon="152.980056">
				<ele>50.938</ele>
				<time>2015-07-04T09:38:13Z</time>
				<extensions>
				</extensions>
			</trkpt>
			<trkpt lat="-27.370829" lon="152.979990">
				<ele>50.352</ele>
				<time>2015-07-04T09:38:14Z</time>
				<extensions>
				</extensions>
			</trkpt>
			<trkpt lat="-27.370635" lon="152.979910">
				<ele>48.470</ele>
				<time>2015-07-04T09:38:15Z</time>
				<extensions>
				</extensions>
			</trkpt>
			<trkpt lat="-27.370448" lon="152.979822">
				<ele>46.625</ele>
				<time>2015-07-04T09:38:16Z</time>
				<extensions>
				</extensions>
			</trkpt>
			<trkpt lat="-27.370260" lon="152.979732">
				<ele>45.080</ele>
				<time>2015-07-04T09:38:17Z</time>
				<extensions>
				</extensions>
			</trkpt>
			<trkpt lat="-27.370077" lon="152.979643">
				<ele>43.624</ele>
				<time>2015-07-04T09:38:18Z</time>
				<extensions>
				</extensions>
			</trkpt>
			<trkpt lat="-27.369891" lon="152.979553">
				<ele>41.271</ele>
				<time>2015-07-04T09:38:19Z</time>
				<extensions>
				</extensions>
			</trkpt>
			<trkpt lat="-27.369704" lon="152.979468">
				<ele>40.492</ele>
				<time>2015-07-04T09:38:20Z</time>
				<extensions>
				</extensions>
			</trkpt>
			<trkpt lat="-27.369515" lon="152.979375">
				<ele>39.041</ele>
				<time>2015-07-04T09:38:21Z</time>
				<extensions>
				</extensions>
			</trkpt>
			<trkpt lat="-27.369327" lon="152.979287">
				<ele>37.804</ele>
				<time>2015-07-04T09:38:22Z</time>
				<extensions>
				</extensions>
			</trkpt>
			<trkpt lat="-27.369144" lon="152.979195">
				<ele>37.804</ele>
				<time>2015-07-04T09:38:23Z</time>
				<extensions>
				</extensions>
			</trkpt>
			<trkpt lat="-27.368963" lon="152.979108">
				<ele>37.448</ele>
				<time>2015-07-04T09:38:24Z</time>
				<extensions>
				</extensions>
			</trkpt>
			<trkpt lat="-27.368785" lon="152.979025">
				<ele>36.415</ele>
				<time>2015-07-04T09:38:25Z</time>
				<extensions>
				</extensions>
			</trkpt>
			<trkpt lat="-27.368614" lon="152.978938">
				<ele>36.649</ele>
				<time>2015-07-04T09:38:26Z</time>
				<extensions>
				</extensions>
			</trkpt>
			<trkpt lat="-27.368443" lon="152.978844">
				<ele>37.149</ele>
				<time>2015-07-04T09:38:27Z</time>
				<extensions>
				</extensions>
			</trkpt>
			<trkpt lat="-27.368277" lon="152.978741">
				<ele>37.783</ele>
				<time>2015-07-04T09:38:28Z</time>
				<extensions>
				</extensions>
			</trkpt>
			<trkpt lat="-27.368111" lon="152.978626">
				<ele>39.676</ele>
				<time>2015-07-04T09:38:29Z</time>
				<extensions>
				</extensions>
			</trkpt>
			<trkpt lat="-27.367957" lon="152.978510">
				<ele>40.611</ele>
				<time>2015-07-04T09:38:30Z</time>
				<extensions>
				</extensions>
			</trkpt>
			<trkpt lat="-27.367803" lon="152.978385">
				<ele>40.750</ele>
				<time>2015-07-04T09:38:31Z</time>
				<extensions>
				</extensions>
			</trkpt>
			<trkpt lat="-27.367652" lon="152.978249">
				<ele>41.120</ele>
				<time>2015-07-04T09:38:32Z</time>
				<extensions>
				</extensions>
			</trkpt>
			<trkpt lat="-27.367502" lon="152.978099">
				<ele>42.760</ele>
				<time>2015-07-04T09:38:33Z</time>
				<extensions>
				</extensions>
			</trkpt>
			<trkpt lat="-27.367364" lon="152.977945">
				<ele>42.682</ele>
				<time>2015-07-04T09:38:34Z</time>
				<extensions>
				</extensions>
			</trkpt>
			<trkpt lat="-27.367233" lon="152.977783">
				<ele>42.686</ele>
				<time>2015-07-04T09:38:35Z</time>
				<extensions>
				</extensions>
			</trkpt>
			<trkpt lat="-27.367111" lon="152.977614">
				<ele>42.552</ele>
				<time>2015-07-04T09:38:36Z</time>
				<extensions>
				</extensions>
			</trkpt>
			<trkpt lat="-27.366990" lon="152.977435">
				<ele>43.194</ele>
				<time>2015-07-04T09:38:37Z</time>
				<extensions>
				</extensions>
			</trkpt>
			<trkpt lat="-27.366873" lon="152.977257">
				<ele>43.362</ele>
				<time>2015-07-04T09:38:38Z</time>
				<extensions>
				</extensions>
			</trkpt>
			<trkpt lat="-27.366759" lon="152.977083">
				<ele>41.814</ele>
				<time>2015-07-04T09:38:39Z</time>
				<extensions>
				</extensions>
			</trkpt>
			<trkpt lat="-27.366646" lon="152.976907">
				<ele>40.310</ele>
				<time>2015-07-04T09:38:40Z</time>
				<extensions>
				</extensions>
			</trkpt>
			<trkpt lat="-27.366529" lon="152.976729">
				<ele>40.455</ele>
				<time>2015-07-04T09:38:41Z</time>
				<extensions>
				</extensions>
			</trkpt>
			<trkpt lat="-27.366414" lon="152.976548">
				<ele>39.894</ele>
				<time>2015-07-04T09:38:42Z</time>
				<extensions>
				</extensions>
			</trkpt>
			<trkpt lat="-27.366301" lon="152.976373">
				<ele>39.097</ele>
				<time>2015-07-04T09:38:43Z</time>
				<extensions>
				</extensions>
			</trkpt>
			<trkpt lat="-27.366186" lon="152.976191">
				<ele>39.570</ele>
				<time>2015-07-04T09:38:44Z</time>
				<extensions>
				</extensions>
			</trkpt>
			<trkpt lat="-27.366070" lon="152.976012">
				<ele>40.472</ele>
				<time>2015-07-04T09:38:45Z</time>
				<extensions>
				</extensions>
			</trkpt>
			<trkpt lat="-27.365956" lon="152.975835">
				<ele>40.837</ele>
				<time>2015-07-04T09:38:46Z</time>
				<extensions>
				</extensions>
			</trkpt>
			<trkpt lat="-27.365847" lon="152.975671">
				<ele>40.180</ele>
				<time>2015-07-04T09:38:47Z</time>
				<extensions>
				</extensions>
			</trkpt>
			<trkpt lat="-27.365638" lon="152.975350">
				<ele>41.306</ele>
				<time>2015-07-04T09:38:49Z</time>
				<extensions>
				</extensions>
			</trkpt>
			<trkpt lat="-27.365413" lon="152.975042">
				<ele>42.965</ele>
				<time>2015-07-04T09:38:51Z</time>
				<extensions>
				</extensions>
			</trkpt>
			<trkpt lat="-27.365161" lon="152.974752">
				<ele>45.551</ele>
				<time>2015-07-04T09:38:53Z</time>
				<extensions>
				</extensions>
			</trkpt>
			<trkpt lat="-27.365027" lon="152.974613">
				<ele>47.443</ele>
				<time>2015-07-04T09:38:54Z</time>
				<extensions>
				</extensions>
			</trkpt>
			<trkpt lat="-27.364752" lon="152.974368">
				<ele>47.942</ele>
				<time>2015-07-04T09:38:56Z</time>
				<extensions>
				</extensions>
			</trkpt>
			<trkpt lat="-27.364459" lon="152.974151">
				<ele>49.328</ele>
				<time>2015-07-04T09:38:58Z</time>
				<extensions>
				</extensions>
			</trkpt>
			<trkpt lat="-27.364159" lon="152.973965">
				<ele>49.042</ele>
				<time>2015-07-04T09:39:00Z</time>
				<extensions>
				</extensions>
			</trkpt>
			<trkpt lat="-27.363854" lon="152.973804">
				<ele>49.017</ele>
				<time>2015-07-04T09:39:02Z</time>
				<extensions>
				</extensions>
			</trkpt>
			<trkpt lat="-27.363546" lon="152.973644">
				<ele>48.466</ele>
				<time>2015-07-04T09:39:04Z</time>
				<extensions>
				</extensions>
			</trkpt>
			<trkpt lat="-27.363252" lon="152.973451">
				<ele>48.384</ele>
				<time>2015-07-04T09:39:06Z</time>
				<extensions>
				</extensions>
			</trkpt>
			<trkpt lat="-27.362979" lon="152.973223">
				<ele>47.471</ele>
				<time>2015-07-04T09:39:08Z</time>
				<extensions>
				</extensions>
			</trkpt>
			<trkpt lat="-27.362729" lon="152.972977">
				<ele>46.058</ele>
				<time>2015-07-04T09:39:10Z</time>
				<extensions>
				</extensions>
			</trkpt>
			<trkpt lat="-27.362494" lon="152.972736">
				<ele>45.115</ele>
				<time>2015-07-04T09:39:12Z</time>
				<extensions>
				</extensions>
			</trkpt>
			<trkpt lat="-27.362253" lon="152.972511">
				<ele>43.758</ele>
				<time>2015-07-04T09:39:14Z</time>
				<extensions>
				</extensions>
			</trkpt>
			<trkpt lat="-27.362012" lon="152.972323">
				<ele>42.400</ele>
				<time>2015-07-04T09:39:16Z</time>
				<extensions>
				</extensions>
			</trkpt>
			<trkpt lat="-27.361742" lon="152.972140">
				<ele>42.464</ele>
				<time>2015-07-04T09:39:18Z</time>
				<extensions>
				</extensions>
			</trkpt>
			<trkpt lat="-27.361463" lon="152.971974">
				<ele>41.353</ele>
				<time>2015-07-04T09:39:20Z</time>
				<extensions>
				</extensions>
			</trkpt>
			<trkpt lat="-27.361174" lon="152.971797">
				<ele>40.157</ele>
				<time>2015-07-04T09:39:22Z</time>
				<extensions>
				</extensions>
			</trkpt>
			<trkpt lat="-27.360885" lon="152.971623">
				<ele>38.282</ele>
				<time>2015-07-04T09:39:24Z</time>
				<extensions>
				</extensions>
			</trkpt>
			<trkpt lat="-27.360595" lon="152.971457">
				<ele>36.737</ele>
				<time>2015-07-04T09:39:26Z</time>
				<extensions>
				</extensions>
			</trkpt>
			<trkpt lat="-27.360318" lon="152.971288">
				<ele>34.062</ele>
				<time>2015-07-04T09:39:28Z</time>
				<extensions>
				</extensions>
			</trkpt>
			<trkpt lat="-27.360047" lon="152.971124">
				<ele>31.894</ele>
				<time>2015-07-04T09:39:30Z</time>
				<extensions>
				</extensions>
			</trkpt>
			<trkpt lat="-27.359776" lon="152.970956">
				<ele>30.544</ele>
				<time>2015-07-04T09:39:32Z</time>
				<extensions>
				</extensions>
			</trkpt>
			<trkpt lat="-27.359501" lon="152.970787">
				<ele>28.199</ele>
				<time>2015-07-04T09:39:34Z</time>
				<extensions>
				</extensions>
			</trkpt>
			<trkpt lat="-27.359229" lon="152.970614">
				<ele>26.114</ele>
				<time>2015-07-04T09:39:36Z</time>
				<extensions>
				</extensions>
			</trkpt>
			<trkpt lat="-27.358970" lon="152.970443">
				<ele>23.858</ele>
				<time>2015-07-04T09:39:38Z</time>
				<extensions>
				</extensions>
			</trkpt>
			<trkpt lat="-27.358723" lon="152.970278">
				<ele>22.591</ele>
				<time>2015-07-04T09:39:40Z</time>
				<extensions>
				</extensions>
			</trkpt>
			<trkpt lat="-27.358488" lon="152.970126">
				<ele>21.400</ele>
				<time>2015-07-04T09:39:42Z</time>
				<extensions>
				</extensions>
			</trkpt>
			<trkpt lat="-27.358277" lon="152.969989">
				<ele>21.202</ele>
				<time>2015-07-04T09:39:44Z</time>
				<extensions>
				</extensions>
			</trkpt>
			<trkpt lat="-27.358094" lon="152.969863">
				<ele>21.058</ele>
				<time>2015-07-04T09:39:46Z</time>
				<extensions>
				</extensions>
			</trkpt>
			<trkpt lat="-27.357937" lon="152.969738">
				<ele>21.191</ele>
				<time>2015-07-04T09:39:48Z</time>
				<extensions>
				</extensions>
			</trkpt>
			<trkpt lat="-27.357734" lon="152.969606">
				<ele>20.749</ele>
				<time>2015-07-04T09:39:51Z</time>
				<extensions>
				</extensions>
			</trkpt>
			<trkpt lat="-27.357636" lon="152.969419">
				<ele>20.927</ele>
				<time>2015-07-04T09:39:54Z</time>
				<extensions>
				</extensions>
			</trkpt>
			<trkpt lat="-27.357710" lon="152.969156">
				<ele>23.197</ele>
				<time>2015-07-04T09:39:57Z</time>
				<extensions>
				</extensions>
			</trkpt>
			<trkpt lat="-27.357815" lon="152.968936">
				<ele>25.166</ele>
				<time>2015-07-04T09:39:59Z</time>
				<extensions>
				</extensions>
			</trkpt>
			<trkpt lat="-27.357937" lon="152.968680">
				<ele>27.450</ele>
				<time>2015-07-04T09:40:01Z</time>
				<extensions>
				</extensions>
			</trkpt>
			<trkpt lat="-27.358077" lon="152.968396">
				<ele>29.173</ele>
				<time>2015-07-04T09:40:03Z</time>
				<extensions>
				</extensions>
			</trkpt>
			<trkpt lat="-27.358226" lon="152.968094">
				<ele>31.221</ele>
				<time>2015-07-04T09:40:05Z</time>
				<extensions>
				</extensions>
			</trkpt>
			<trkpt lat="-27.358375" lon="152.967790">
				<ele>31.455</ele>
				<time>2015-07-04T09:40:07Z</time>
				<extensions>
				</extensions>
			</trkpt>
			<trkpt lat="-27.358518" lon="152.967501">
				<ele>31.154</ele>
				<time>2015-07-04T09:40:09Z</time>
				<extensions>
				</extensions>
			</trkpt>
			<trkpt lat="-27.358644" lon="152.967230">
				<ele>32.239</ele>
				<time>2015-07-04T09:40:11Z</time>
				<extensions>
				</extensions>
			</trkpt>
			<trkpt lat="-27.358749" lon="152.966902">
				<ele>34.027</ele>
				<time>2015-07-04T09:40:13Z</time>
				<extensions>
				</extensions>
			</trkpt>
			<trkpt lat="-27.358793" lon="152.966578">
				<ele>35.105</ele>
				<time>2015-07-04T09:40:15Z</time>
				<extensions>
				</extensions>
			</trkpt>
			<trkpt lat="-27.358776" lon="152.966226">
				<ele>36.441</ele>
				<time>2015-07-04T09:40:17Z</time>
				<extensions>
				</extensions>
			</trkpt>
			<trkpt lat="-27.358714" lon="152.965886">
				<ele>38.601</ele>
				<time>2015-07-04T09:40:19Z</time>
				<extensions>
				</extensions>
			</trkpt>
			<trkpt lat="-27.358606" lon="152.965564">
				<ele>39.940</ele>
				<time>2015-07-04T09:40:21Z</time>
				<extensions>
				</extensions>
			</trkpt>
			<trkpt lat="-27.358454" lon="152.965260">
				<ele>40.914</ele>
				<time>2015-07-04T09:40:23Z</time>
				<extensions>
				</extensions>
			</trkpt>
			<trkpt lat="-27.358267" lon="152.964978">
				<ele>41.497</ele>
				<time>2015-07-04T09:40:25Z</time>
				<extensions>
				</extensions>
			</trkpt>
			<trkpt lat="-27.358060" lon="152.964703">
				<ele>41.068</ele>
				<time>2015-07-04T09:40:27Z</time>
				<extensions>
				</extensions>
			</trkpt>
			<trkpt lat="-27.357837" lon="152.964448">
				<ele>39.494</ele>
				<time>2015-07-04T09:40:29Z</time>
				<extensions>
				</extensions>
			</trkpt>
			<trkpt lat="-27.357601" lon="152.964190">
				<ele>36.934</ele>
				<time>2015-07-04T09:40:31Z</time>
				<extensions>
				</extensions>
			</trkpt>
			<trkpt lat="-27.357362" lon="152.963936">
				<ele>34.113</ele>
				<time>2015-07-04T09:40:33Z</time>
				<extensions>
				</extensions>
			</trkpt>
			<trkpt lat="-27.357131" lon="152.963679">
				<ele>32.231</ele>
				<time>2015-07-04T09:40:35Z</time>
				<extensions>
				</extensions>
			</trkpt>
			<trkpt lat="-27.356902" lon="152.963420">
				<ele>29.630</ele>
				<time>2015-07-04T09:40:37Z</time>
				<extensions>
				</extensions>
			</trkpt>
			<trkpt lat="-27.356692" lon="152.963144">
				<ele>27.713</ele>
				<time>2015-07-04T09:40:39Z</time>
				<extensions>
				</extensions>
			</trkpt>
			<trkpt lat="-27.356519" lon="152.962847">
				<ele>26.374</ele>
				<time>2015-07-04T09:40:41Z</time>
				<extensions>
				</extensions>
			</trkpt>
			<trkpt lat="-27.356369" lon="152.962545">
				<ele>25.120</ele>
				<time>2015-07-04T09:40:43Z</time>
				<extensions>
				</extensions>
			</trkpt>
			<trkpt lat="-27.356235" lon="152.962262">
				<ele>23.637</ele>
				<time>2015-07-04T09:40:45Z</time>
				<extensions>
				</extensions>
			</trkpt>
			<trkpt lat="-27.356093" lon="152.962001">
				<ele>22.494</ele>
				<time>2015-07-04T09:40:47Z</time>
				<extensions>
				</extensions>
			</trkpt>
			<trkpt lat="-27.355971" lon="152.961759">
				<ele>21.462</ele>
				<time>2015-07-04T09:40:49Z</time>
				<extensions>
				</extensions>
			</trkpt>
			<trkpt lat="-27.355871" lon="152.961526">
				<ele>20.332</ele>
				<time>2015-07-04T09:40:51Z</time>
				<extensions>
				</extensions>
			</trkpt>
			<trkpt lat="-27.355825" lon="152.961314">
				<ele>19.565</ele>
				<time>2015-07-04T09:40:53Z</time>
				<extensions>
				</extensions>
			</trkpt>
			<trkpt lat="-27.355729" lon="152.961044">
				<ele>20.579</ele>
				<time>2015-07-04T09:40:56Z</time>
				<extensions>
				</extensions>
			</trkpt>
			<trkpt lat="-27.355603" lon="152.960819">
				<ele>22.566</ele>
				<time>2015-07-04T09:40:58Z</time>
				<extensions>
				</extensions>
			</trkpt>
			<trkpt lat="-27.355487" lon="152.960545">
				<ele>24.275</ele>
				<time>2015-07-04T09:41:00Z</time>
				<extensions>
				</extensions>
			</trkpt>
			<trkpt lat="-27.355366" lon="152.960258">
				<ele>24.329</ele>
				<time>2015-07-04T09:41:02Z</time>
				<extensions>
				</extensions>
			</trkpt>
			<trkpt lat="-27.355254" lon="152.959993">
				<ele>23.271</ele>
				<time>2015-07-04T09:41:04Z</time>
				<extensions>
				</extensions>
			</trkpt>
			<trkpt lat="-27.355146" lon="152.959726">
				<ele>23.367</ele>
				<time>2015-07-04T09:41:06Z</time>
				<extensions>
				</extensions>
			</trkpt>
			<trkpt lat="-27.355049" lon="152.959453">
				<ele>22.460</ele>
				<time>2015-07-04T09:41:08Z</time>
				<extensions>
				</extensions>
			</trkpt>
			<trkpt lat="-27.354993" lon="152.959175">
				<ele>22.779</ele>
				<time>2015-07-04T09:41:10Z</time>
				<extensions>
				</extensions>
			</trkpt>
			<trkpt lat="-27.354965" lon="152.958884">
				<ele>23.171</ele>
				<time>2015-07-04T09:41:12Z</time>
				<extensions>
				</extensions>
			</trkpt>
			<trkpt lat="-27.354950" lon="152.958607">
				<ele>22.206</ele>
				<time>2015-07-04T09:41:14Z</time>
				<extensions>
				</extensions>
			</trkpt>
			<trkpt lat="-27.354938" lon="152.958345">
				<ele>21.598</ele>
				<time>2015-07-04T09:41:16Z</time>
				<extensions>
				</extensions>
			</trkpt>
			<trkpt lat="-27.354930" lon="152.958085">
				<ele>20.426</ele>
				<time>2015-07-04T09:41:18Z</time>
				<extensions>
				</extensions>
			</trkpt>
			<trkpt lat="-27.354927" lon="152.957832">
				<ele>19.191</ele>
				<time>2015-07-04T09:41:20Z</time>
				<extensions>
				</extensions>
			</trkpt>
			<trkpt lat="-27.354933" lon="152.957614">
				<ele>17.657</ele>
				<time>2015-07-04T09:41:22Z</time>
				<extensions>
				</extensions>
			</trkpt>
			<trkpt lat="-27.354982" lon="152.957385">
				<ele>15.340</ele>
				<time>2015-07-04T09:41:25Z</time>
				<extensions>
				</extensions>
			</trkpt>
			<trkpt lat="-27.355207" lon="152.957350">
				<ele>15.993</ele>
				<time>2015-07-04T09:41:28Z</time>
				<extensions>
				</extensions>
			</trkpt>
			<trkpt lat="-27.355405" lon="152.957330">
				<ele>17.402</ele>
				<time>2015-07-04T09:41:30Z</time>
				<extensions>
				</extensions>
			</trkpt>
			<trkpt lat="-27.355609" lon="152.957282">
				<ele>18.315</ele>
				<time>2015-07-04T09:41:32Z</time>
				<extensions>
				</extensions>
			</trkpt>
			<trkpt lat="-27.355789" lon="152.957230">
				<ele>17.866</ele>
				<time>2015-07-04T09:41:34Z</time>
				<extensions>
				</extensions>
			</trkpt>
			<trkpt lat="-27.356024" lon="152.957114">
				<ele>17.768</ele>
				<time>2015-07-04T09:41:37Z</time>
				<extensions>
				</extensions>
			</trkpt>
			<trkpt lat="-27.356233" lon="152.956954">
				<ele>18.351</ele>
				<time>2015-07-04T09:41:40Z</time>
				<extensions>
				</extensions>
			</trkpt>
			<trkpt lat="-27.356430" lon="152.956791">
				<ele>18.738</ele>
				<time>2015-07-04T09:41:43Z</time>
				<extensions>
				</extensions>
			</trkpt>
			<trkpt lat="-27.356591" lon="152.956658">
				<ele>18.278</ele>
				<time>2015-07-04T09:41:46Z</time>
				<extensions>
				</extensions>
			</trkpt>
			<trkpt lat="-27.356753" lon="152.956551">
				<ele>17.354</ele>
				<time>2015-07-04T09:41:52Z</time>
				<extensions>
				</extensions>
			</trkpt>
		</trkseg>
	</trk>
</gpx>
